<?xml version="1.0" encoding="UTF-8" standalone="no" ?>
<gpx xmlns="http://www.topografix.com/GPX/1/1" xmlns:xsi="http://www.w3.org/2001/XMLSchema-instance" xsi:schemaLocation="http://www.topografix.com/GPX/1/1 http://www.topografix.com/GPX/1/1/gpx.xsd" version="1.1" creator="VisuGPX - https://www.visugpx.com">
  <metadata>
    <name>Chamedit bien un petit chamechaude en fin de journée</name>
    <desc><![CDATA[
]]></desc>
  </metadata>
  <trk>
    <name><![CDATA[Chamedit bien un petit chamechaude en fin de journée]]></name>
    <trkseg>
      <trkpt lat="45.28261" lon="5.76664">
        <ele>1248.8</ele>
        <time>2020-01-31T14:44:51Z</time>
      </trkpt>
      <trkpt lat="45.28262" lon="5.76665">
        <ele>1248.8</ele>
        <time>2020-01-31T14:44:54Z</time>
      </trkpt>
      <trkpt lat="45.28263" lon="5.76666">
        <ele>1248.8</ele>
        <time>2020-01-31T14:44:56Z</time>
      </trkpt>
      <trkpt lat="45.28264" lon="5.76667">
        <ele>1248.8</ele>
        <time>2020-01-31T14:44:58Z</time>
      </trkpt>
      <trkpt lat="45.28266" lon="5.76668">
        <ele>1248.8</ele>
        <time>2020-01-31T14:45:00Z</time>
      </trkpt>
      <trkpt lat="45.28267" lon="5.7667">
        <ele>1249.2</ele>
        <time>2020-01-31T14:45:01Z</time>
      </trkpt>
      <trkpt lat="45.28268" lon="5.76672">
        <ele>1249.2</ele>
        <time>2020-01-31T14:45:02Z</time>
      </trkpt>
      <trkpt lat="45.28269" lon="5.76673">
        <ele>1249.2</ele>
        <time>2020-01-31T14:45:03Z</time>
      </trkpt>
      <trkpt lat="45.2827" lon="5.76675">
        <ele>1249.2</ele>
        <time>2020-01-31T14:45:04Z</time>
      </trkpt>
      <trkpt lat="45.28271" lon="5.76677">
        <ele>1249.4</ele>
        <time>2020-01-31T14:45:05Z</time>
      </trkpt>
      <trkpt lat="45.28272" lon="5.76678">
        <ele>1250</ele>
        <time>2020-01-31T14:45:06Z</time>
      </trkpt>
      <trkpt lat="45.28272" lon="5.76679">
        <ele>1250.2</ele>
        <time>2020-01-31T14:45:07Z</time>
      </trkpt>
      <trkpt lat="45.28273" lon="5.76681">
        <ele>1250.6</ele>
        <time>2020-01-31T14:45:08Z</time>
      </trkpt>
      <trkpt lat="45.28274" lon="5.76682">
        <ele>1250.8</ele>
        <time>2020-01-31T14:45:09Z</time>
      </trkpt>
      <trkpt lat="45.28274" lon="5.76683">
        <ele>1251</ele>
        <time>2020-01-31T14:45:10Z</time>
      </trkpt>
      <trkpt lat="45.28275" lon="5.76684">
        <ele>1251</ele>
        <time>2020-01-31T14:45:11Z</time>
      </trkpt>
      <trkpt lat="45.28276" lon="5.76685">
        <ele>1251.2</ele>
        <time>2020-01-31T14:45:12Z</time>
      </trkpt>
      <trkpt lat="45.28276" lon="5.76686">
        <ele>1251.6</ele>
        <time>2020-01-31T14:45:13Z</time>
      </trkpt>
      <trkpt lat="45.28277" lon="5.76687">
        <ele>1251.8</ele>
        <time>2020-01-31T14:45:14Z</time>
      </trkpt>
      <trkpt lat="45.28278" lon="5.76688">
        <ele>1252.2</ele>
        <time>2020-01-31T14:45:15Z</time>
      </trkpt>
      <trkpt lat="45.28278" lon="5.76688">
        <ele>1252.4</ele>
        <time>2020-01-31T14:45:16Z</time>
      </trkpt>
      <trkpt lat="45.28278" lon="5.76688">
        <ele>1252.6</ele>
        <time>2020-01-31T14:45:17Z</time>
      </trkpt>
      <trkpt lat="45.2828" lon="5.76692">
        <ele>1253</ele>
        <time>2020-01-31T14:45:18Z</time>
      </trkpt>
      <trkpt lat="45.28281" lon="5.76694">
        <ele>1253.4</ele>
        <time>2020-01-31T14:45:19Z</time>
      </trkpt>
      <trkpt lat="45.28281" lon="5.76695">
        <ele>1253.6</ele>
        <time>2020-01-31T14:45:20Z</time>
      </trkpt>
      <trkpt lat="45.28282" lon="5.76696">
        <ele>1253.8</ele>
        <time>2020-01-31T14:45:21Z</time>
      </trkpt>
      <trkpt lat="45.28283" lon="5.76698">
        <ele>1254</ele>
        <time>2020-01-31T14:45:22Z</time>
      </trkpt>
      <trkpt lat="45.28283" lon="5.76699">
        <ele>1254</ele>
        <time>2020-01-31T14:45:23Z</time>
      </trkpt>
      <trkpt lat="45.28284" lon="5.767">
        <ele>1254.4</ele>
        <time>2020-01-31T14:45:24Z</time>
      </trkpt>
      <trkpt lat="45.28285" lon="5.76702">
        <ele>1254.8</ele>
        <time>2020-01-31T14:45:25Z</time>
      </trkpt>
      <trkpt lat="45.28285" lon="5.76703">
        <ele>1254.8</ele>
        <time>2020-01-31T14:45:26Z</time>
      </trkpt>
      <trkpt lat="45.28286" lon="5.76704">
        <ele>1255.2</ele>
        <time>2020-01-31T14:45:27Z</time>
      </trkpt>
      <trkpt lat="45.28287" lon="5.76704">
        <ele>1255.6</ele>
        <time>2020-01-31T14:45:28Z</time>
      </trkpt>
      <trkpt lat="45.28288" lon="5.76705">
        <ele>1255.8</ele>
        <time>2020-01-31T14:45:29Z</time>
      </trkpt>
      <trkpt lat="45.28289" lon="5.76706">
        <ele>1256.2</ele>
        <time>2020-01-31T14:45:30Z</time>
      </trkpt>
      <trkpt lat="45.2829" lon="5.76707">
        <ele>1256.2</ele>
        <time>2020-01-31T14:45:31Z</time>
      </trkpt>
      <trkpt lat="45.28291" lon="5.76707">
        <ele>1256.2</ele>
        <time>2020-01-31T14:45:32Z</time>
      </trkpt>
      <trkpt lat="45.28292" lon="5.76708">
        <ele>1256.4</ele>
        <time>2020-01-31T14:45:33Z</time>
      </trkpt>
      <trkpt lat="45.28293" lon="5.76709">
        <ele>1256.8</ele>
        <time>2020-01-31T14:45:34Z</time>
      </trkpt>
      <trkpt lat="45.28293" lon="5.76709">
        <ele>1257</ele>
        <time>2020-01-31T14:45:35Z</time>
      </trkpt>
      <trkpt lat="45.28295" lon="5.7671">
        <ele>1257.2</ele>
        <time>2020-01-31T14:45:36Z</time>
      </trkpt>
      <trkpt lat="45.28295" lon="5.7671">
        <ele>1257.4</ele>
        <time>2020-01-31T14:45:37Z</time>
      </trkpt>
      <trkpt lat="45.28297" lon="5.76712">
        <ele>1257.8</ele>
        <time>2020-01-31T14:45:38Z</time>
      </trkpt>
      <trkpt lat="45.28297" lon="5.76712">
        <ele>1258.2</ele>
        <time>2020-01-31T14:45:39Z</time>
      </trkpt>
      <trkpt lat="45.28299" lon="5.76713">
        <ele>1258.6</ele>
        <time>2020-01-31T14:45:40Z</time>
      </trkpt>
      <trkpt lat="45.28299" lon="5.76713">
        <ele>1258.8</ele>
        <time>2020-01-31T14:45:41Z</time>
      </trkpt>
      <trkpt lat="45.28299" lon="5.76713">
        <ele>1258.8</ele>
        <time>2020-01-31T14:45:42Z</time>
      </trkpt>
      <trkpt lat="45.28301" lon="5.76717">
        <ele>1259</ele>
        <time>2020-01-31T14:45:43Z</time>
      </trkpt>
      <trkpt lat="45.28301" lon="5.76717">
        <ele>1259</ele>
        <time>2020-01-31T14:45:44Z</time>
      </trkpt>
      <trkpt lat="45.28302" lon="5.76719">
        <ele>1259.2</ele>
        <time>2020-01-31T14:45:45Z</time>
      </trkpt>
      <trkpt lat="45.28302" lon="5.76719">
        <ele>1259.4</ele>
        <time>2020-01-31T14:45:46Z</time>
      </trkpt>
      <trkpt lat="45.28302" lon="5.76719">
        <ele>1259.4</ele>
        <time>2020-01-31T14:45:47Z</time>
      </trkpt>
      <trkpt lat="45.28304" lon="5.76722">
        <ele>1259.8</ele>
        <time>2020-01-31T14:45:48Z</time>
      </trkpt>
      <trkpt lat="45.28304" lon="5.76722">
        <ele>1260</ele>
        <time>2020-01-31T14:45:49Z</time>
      </trkpt>
      <trkpt lat="45.28306" lon="5.76724">
        <ele>1260.2</ele>
        <time>2020-01-31T14:45:50Z</time>
      </trkpt>
      <trkpt lat="45.28307" lon="5.76724">
        <ele>1260.6</ele>
        <time>2020-01-31T14:45:51Z</time>
      </trkpt>
      <trkpt lat="45.28307" lon="5.76724">
        <ele>1260.8</ele>
        <time>2020-01-31T14:45:52Z</time>
      </trkpt>
      <trkpt lat="45.28308" lon="5.76725">
        <ele>1261</ele>
        <time>2020-01-31T14:45:53Z</time>
      </trkpt>
      <trkpt lat="45.28308" lon="5.76725">
        <ele>1261.4</ele>
        <time>2020-01-31T14:45:54Z</time>
      </trkpt>
      <trkpt lat="45.28309" lon="5.76725">
        <ele>1261.6</ele>
        <time>2020-01-31T14:45:55Z</time>
      </trkpt>
      <trkpt lat="45.28309" lon="5.76726">
        <ele>1261.8</ele>
        <time>2020-01-31T14:45:56Z</time>
      </trkpt>
      <trkpt lat="45.2831" lon="5.76726">
        <ele>1262.2</ele>
        <time>2020-01-31T14:45:57Z</time>
      </trkpt>
      <trkpt lat="45.2831" lon="5.76727">
        <ele>1262.6</ele>
        <time>2020-01-31T14:45:58Z</time>
      </trkpt>
      <trkpt lat="45.28311" lon="5.76727">
        <ele>1262.8</ele>
        <time>2020-01-31T14:45:59Z</time>
      </trkpt>
      <trkpt lat="45.28316" lon="5.76731">
        <ele>1263.2</ele>
        <time>2020-01-31T14:46:00Z</time>
      </trkpt>
      <trkpt lat="45.28317" lon="5.76732">
        <ele>1263.2</ele>
        <time>2020-01-31T14:46:01Z</time>
      </trkpt>
      <trkpt lat="45.28317" lon="5.76733">
        <ele>1263.2</ele>
        <time>2020-01-31T14:46:02Z</time>
      </trkpt>
      <trkpt lat="45.28318" lon="5.76734">
        <ele>1263.6</ele>
        <time>2020-01-31T14:46:03Z</time>
      </trkpt>
      <trkpt lat="45.28319" lon="5.76735">
        <ele>1263.8</ele>
        <time>2020-01-31T14:46:04Z</time>
      </trkpt>
      <trkpt lat="45.28319" lon="5.76736">
        <ele>1263.8</ele>
        <time>2020-01-31T14:46:05Z</time>
      </trkpt>
      <trkpt lat="45.2832" lon="5.76737">
        <ele>1264</ele>
        <time>2020-01-31T14:46:06Z</time>
      </trkpt>
      <trkpt lat="45.28321" lon="5.76738">
        <ele>1264.4</ele>
        <time>2020-01-31T14:46:07Z</time>
      </trkpt>
      <trkpt lat="45.28321" lon="5.76739">
        <ele>1264.8</ele>
        <time>2020-01-31T14:46:08Z</time>
      </trkpt>
      <trkpt lat="45.28322" lon="5.7674">
        <ele>1265</ele>
        <time>2020-01-31T14:46:09Z</time>
      </trkpt>
      <trkpt lat="45.28323" lon="5.7674">
        <ele>1265.2</ele>
        <time>2020-01-31T14:46:10Z</time>
      </trkpt>
      <trkpt lat="45.28323" lon="5.76741">
        <ele>1265.4</ele>
        <time>2020-01-31T14:46:11Z</time>
      </trkpt>
      <trkpt lat="45.28324" lon="5.76742">
        <ele>1265.6</ele>
        <time>2020-01-31T14:46:12Z</time>
      </trkpt>
      <trkpt lat="45.28325" lon="5.76743">
        <ele>1265.8</ele>
        <time>2020-01-31T14:46:13Z</time>
      </trkpt>
      <trkpt lat="45.28325" lon="5.76743">
        <ele>1266</ele>
        <time>2020-01-31T14:46:14Z</time>
      </trkpt>
      <trkpt lat="45.28327" lon="5.76745">
        <ele>1266.2</ele>
        <time>2020-01-31T14:46:15Z</time>
      </trkpt>
      <trkpt lat="45.28327" lon="5.76745">
        <ele>1266.4</ele>
        <time>2020-01-31T14:46:16Z</time>
      </trkpt>
      <trkpt lat="45.28328" lon="5.76746">
        <ele>1266.6</ele>
        <time>2020-01-31T14:46:17Z</time>
      </trkpt>
      <trkpt lat="45.28328" lon="5.76746">
        <ele>1266.6</ele>
        <time>2020-01-31T14:46:18Z</time>
      </trkpt>
      <trkpt lat="45.2833" lon="5.76749">
        <ele>1266.8</ele>
        <time>2020-01-31T14:46:19Z</time>
      </trkpt>
      <trkpt lat="45.2833" lon="5.76749">
        <ele>1267.2</ele>
        <time>2020-01-31T14:46:20Z</time>
      </trkpt>
      <trkpt lat="45.28332" lon="5.7675">
        <ele>1267.4</ele>
        <time>2020-01-31T14:46:21Z</time>
      </trkpt>
      <trkpt lat="45.28332" lon="5.7675">
        <ele>1267.6</ele>
        <time>2020-01-31T14:46:22Z</time>
      </trkpt>
      <trkpt lat="45.28334" lon="5.76752">
        <ele>1267.6</ele>
        <time>2020-01-31T14:46:23Z</time>
      </trkpt>
      <trkpt lat="45.28334" lon="5.76754">
        <ele>1268</ele>
        <time>2020-01-31T14:46:24Z</time>
      </trkpt>
      <trkpt lat="45.28335" lon="5.76755">
        <ele>1268.2</ele>
        <time>2020-01-31T14:46:25Z</time>
      </trkpt>
      <trkpt lat="45.28336" lon="5.76756">
        <ele>1268.4</ele>
        <time>2020-01-31T14:46:26Z</time>
      </trkpt>
      <trkpt lat="45.28336" lon="5.76758">
        <ele>1268.8</ele>
        <time>2020-01-31T14:46:27Z</time>
      </trkpt>
      <trkpt lat="45.28337" lon="5.76759">
        <ele>1269</ele>
        <time>2020-01-31T14:46:28Z</time>
      </trkpt>
      <trkpt lat="45.28338" lon="5.76761">
        <ele>1269.2</ele>
        <time>2020-01-31T14:46:29Z</time>
      </trkpt>
      <trkpt lat="45.28338" lon="5.76762">
        <ele>1269.4</ele>
        <time>2020-01-31T14:46:30Z</time>
      </trkpt>
      <trkpt lat="45.28339" lon="5.76763">
        <ele>1269.8</ele>
        <time>2020-01-31T14:46:31Z</time>
      </trkpt>
      <trkpt lat="45.2834" lon="5.76765">
        <ele>1270</ele>
        <time>2020-01-31T14:46:32Z</time>
      </trkpt>
      <trkpt lat="45.2834" lon="5.76766">
        <ele>1270</ele>
        <time>2020-01-31T14:46:33Z</time>
      </trkpt>
      <trkpt lat="45.2834" lon="5.76768">
        <ele>1270.2</ele>
        <time>2020-01-31T14:46:34Z</time>
      </trkpt>
      <trkpt lat="45.28341" lon="5.76769">
        <ele>1270.6</ele>
        <time>2020-01-31T14:46:35Z</time>
      </trkpt>
      <trkpt lat="45.28341" lon="5.76771">
        <ele>1270.8</ele>
        <time>2020-01-31T14:46:36Z</time>
      </trkpt>
      <trkpt lat="45.28342" lon="5.76773">
        <ele>1271</ele>
        <time>2020-01-31T14:46:37Z</time>
      </trkpt>
      <trkpt lat="45.28342" lon="5.76774">
        <ele>1271.2</ele>
        <time>2020-01-31T14:46:38Z</time>
      </trkpt>
      <trkpt lat="45.28343" lon="5.76776">
        <ele>1271.6</ele>
        <time>2020-01-31T14:46:39Z</time>
      </trkpt>
      <trkpt lat="45.28343" lon="5.76777">
        <ele>1271.6</ele>
        <time>2020-01-31T14:46:40Z</time>
      </trkpt>
      <trkpt lat="45.28343" lon="5.76779">
        <ele>1271.8</ele>
        <time>2020-01-31T14:46:41Z</time>
      </trkpt>
      <trkpt lat="45.28343" lon="5.76781">
        <ele>1272</ele>
        <time>2020-01-31T14:46:42Z</time>
      </trkpt>
      <trkpt lat="45.28343" lon="5.76782">
        <ele>1272.2</ele>
        <time>2020-01-31T14:46:43Z</time>
      </trkpt>
      <trkpt lat="45.28344" lon="5.76784">
        <ele>1272.4</ele>
        <time>2020-01-31T14:46:44Z</time>
      </trkpt>
      <trkpt lat="45.28344" lon="5.76786">
        <ele>1272.8</ele>
        <time>2020-01-31T14:46:45Z</time>
      </trkpt>
      <trkpt lat="45.28344" lon="5.76787">
        <ele>1272.8</ele>
        <time>2020-01-31T14:46:46Z</time>
      </trkpt>
      <trkpt lat="45.28344" lon="5.76789">
        <ele>1272.8</ele>
        <time>2020-01-31T14:46:47Z</time>
      </trkpt>
      <trkpt lat="45.28345" lon="5.7679">
        <ele>1273.2</ele>
        <time>2020-01-31T14:46:48Z</time>
      </trkpt>
      <trkpt lat="45.28345" lon="5.76792">
        <ele>1273.6</ele>
        <time>2020-01-31T14:46:49Z</time>
      </trkpt>
      <trkpt lat="45.28346" lon="5.76793">
        <ele>1273.8</ele>
        <time>2020-01-31T14:46:50Z</time>
      </trkpt>
      <trkpt lat="45.28346" lon="5.76794">
        <ele>1273.8</ele>
        <time>2020-01-31T14:46:51Z</time>
      </trkpt>
      <trkpt lat="45.28346" lon="5.76796">
        <ele>1274.4</ele>
        <time>2020-01-31T14:46:52Z</time>
      </trkpt>
      <trkpt lat="45.28347" lon="5.76797">
        <ele>1274.6</ele>
        <time>2020-01-31T14:46:53Z</time>
      </trkpt>
      <trkpt lat="45.28347" lon="5.76798">
        <ele>1275</ele>
        <time>2020-01-31T14:46:54Z</time>
      </trkpt>
      <trkpt lat="45.28348" lon="5.76799">
        <ele>1275</ele>
        <time>2020-01-31T14:46:55Z</time>
      </trkpt>
      <trkpt lat="45.28348" lon="5.76801">
        <ele>1275.4</ele>
        <time>2020-01-31T14:46:56Z</time>
      </trkpt>
      <trkpt lat="45.28349" lon="5.76802">
        <ele>1275.4</ele>
        <time>2020-01-31T14:46:57Z</time>
      </trkpt>
      <trkpt lat="45.28349" lon="5.76803">
        <ele>1275.8</ele>
        <time>2020-01-31T14:46:58Z</time>
      </trkpt>
      <trkpt lat="45.28349" lon="5.76805">
        <ele>1275.8</ele>
        <time>2020-01-31T14:46:59Z</time>
      </trkpt>
      <trkpt lat="45.28349" lon="5.76806">
        <ele>1275.8</ele>
        <time>2020-01-31T14:47:00Z</time>
      </trkpt>
      <trkpt lat="45.28349" lon="5.76807">
        <ele>1276</ele>
        <time>2020-01-31T14:47:01Z</time>
      </trkpt>
      <trkpt lat="45.28349" lon="5.76809">
        <ele>1276.2</ele>
        <time>2020-01-31T14:47:02Z</time>
      </trkpt>
      <trkpt lat="45.28349" lon="5.7681">
        <ele>1276.4</ele>
        <time>2020-01-31T14:47:03Z</time>
      </trkpt>
      <trkpt lat="45.28349" lon="5.76811">
        <ele>1276.6</ele>
        <time>2020-01-31T14:47:04Z</time>
      </trkpt>
      <trkpt lat="45.28349" lon="5.76813">
        <ele>1277</ele>
        <time>2020-01-31T14:47:05Z</time>
      </trkpt>
      <trkpt lat="45.28349" lon="5.76814">
        <ele>1277.4</ele>
        <time>2020-01-31T14:47:06Z</time>
      </trkpt>
      <trkpt lat="45.2835" lon="5.76815">
        <ele>1277.8</ele>
        <time>2020-01-31T14:47:07Z</time>
      </trkpt>
      <trkpt lat="45.2835" lon="5.76816">
        <ele>1277.8</ele>
        <time>2020-01-31T14:47:08Z</time>
      </trkpt>
      <trkpt lat="45.28351" lon="5.76816">
        <ele>1278.2</ele>
        <time>2020-01-31T14:47:09Z</time>
      </trkpt>
      <trkpt lat="45.28352" lon="5.76817">
        <ele>1278.4</ele>
        <time>2020-01-31T14:47:10Z</time>
      </trkpt>
      <trkpt lat="45.28353" lon="5.76817">
        <ele>1279</ele>
        <time>2020-01-31T14:47:11Z</time>
      </trkpt>
      <trkpt lat="45.28354" lon="5.76818">
        <ele>1279</ele>
        <time>2020-01-31T14:47:12Z</time>
      </trkpt>
      <trkpt lat="45.28355" lon="5.76818">
        <ele>1279.4</ele>
        <time>2020-01-31T14:47:13Z</time>
      </trkpt>
      <trkpt lat="45.28356" lon="5.76819">
        <ele>1279.6</ele>
        <time>2020-01-31T14:47:14Z</time>
      </trkpt>
      <trkpt lat="45.28357" lon="5.76819">
        <ele>1280.2</ele>
        <time>2020-01-31T14:47:15Z</time>
      </trkpt>
      <trkpt lat="45.28358" lon="5.7682">
        <ele>1280.2</ele>
        <time>2020-01-31T14:47:16Z</time>
      </trkpt>
      <trkpt lat="45.28359" lon="5.76821">
        <ele>1280.6</ele>
        <time>2020-01-31T14:47:17Z</time>
      </trkpt>
      <trkpt lat="45.2836" lon="5.76822">
        <ele>1280.6</ele>
        <time>2020-01-31T14:47:18Z</time>
      </trkpt>
      <trkpt lat="45.2836" lon="5.76823">
        <ele>1281</ele>
        <time>2020-01-31T14:47:19Z</time>
      </trkpt>
      <trkpt lat="45.28361" lon="5.76824">
        <ele>1281.2</ele>
        <time>2020-01-31T14:47:20Z</time>
      </trkpt>
      <trkpt lat="45.28362" lon="5.76825">
        <ele>1281.4</ele>
        <time>2020-01-31T14:47:21Z</time>
      </trkpt>
      <trkpt lat="45.28363" lon="5.76826">
        <ele>1281.8</ele>
        <time>2020-01-31T14:47:22Z</time>
      </trkpt>
      <trkpt lat="45.28364" lon="5.76827">
        <ele>1282.2</ele>
        <time>2020-01-31T14:47:23Z</time>
      </trkpt>
      <trkpt lat="45.28365" lon="5.76828">
        <ele>1282.6</ele>
        <time>2020-01-31T14:47:24Z</time>
      </trkpt>
      <trkpt lat="45.28365" lon="5.76828">
        <ele>1282.4</ele>
        <time>2020-01-31T14:47:25Z</time>
      </trkpt>
      <trkpt lat="45.28366" lon="5.76829">
        <ele>1283.8</ele>
        <time>2020-01-31T14:47:26Z</time>
      </trkpt>
      <trkpt lat="45.28366" lon="5.7683">
        <ele>1283.8</ele>
        <time>2020-01-31T14:47:27Z</time>
      </trkpt>
      <trkpt lat="45.28366" lon="5.7683">
        <ele>1284.4</ele>
        <time>2020-01-31T14:47:28Z</time>
      </trkpt>
      <trkpt lat="45.28367" lon="5.76831">
        <ele>1284.2</ele>
        <time>2020-01-31T14:47:29Z</time>
      </trkpt>
      <trkpt lat="45.28367" lon="5.76831">
        <ele>1284.4</ele>
        <time>2020-01-31T14:47:30Z</time>
      </trkpt>
      <trkpt lat="45.28367" lon="5.76832">
        <ele>1284.6</ele>
        <time>2020-01-31T14:47:31Z</time>
      </trkpt>
      <trkpt lat="45.28368" lon="5.76832">
        <ele>1284.8</ele>
        <time>2020-01-31T14:47:32Z</time>
      </trkpt>
      <trkpt lat="45.28368" lon="5.76833">
        <ele>1285</ele>
        <time>2020-01-31T14:47:33Z</time>
      </trkpt>
      <trkpt lat="45.28369" lon="5.76833">
        <ele>1285.4</ele>
        <time>2020-01-31T14:47:34Z</time>
      </trkpt>
      <trkpt lat="45.28369" lon="5.76834">
        <ele>1285.8</ele>
        <time>2020-01-31T14:47:35Z</time>
      </trkpt>
      <trkpt lat="45.28373" lon="5.7684">
        <ele>1286</ele>
        <time>2020-01-31T14:47:36Z</time>
      </trkpt>
      <trkpt lat="45.28374" lon="5.7684">
        <ele>1286.2</ele>
        <time>2020-01-31T14:47:37Z</time>
      </trkpt>
      <trkpt lat="45.28375" lon="5.76841">
        <ele>1286.2</ele>
        <time>2020-01-31T14:47:38Z</time>
      </trkpt>
      <trkpt lat="45.28376" lon="5.76842">
        <ele>1286.6</ele>
        <time>2020-01-31T14:47:39Z</time>
      </trkpt>
      <trkpt lat="45.28377" lon="5.76842">
        <ele>1286.6</ele>
        <time>2020-01-31T14:47:40Z</time>
      </trkpt>
      <trkpt lat="45.28377" lon="5.76843">
        <ele>1286.8</ele>
        <time>2020-01-31T14:47:41Z</time>
      </trkpt>
      <trkpt lat="45.28378" lon="5.76844">
        <ele>1287</ele>
        <time>2020-01-31T14:47:42Z</time>
      </trkpt>
      <trkpt lat="45.28379" lon="5.76845">
        <ele>1287.4</ele>
        <time>2020-01-31T14:47:43Z</time>
      </trkpt>
      <trkpt lat="45.2838" lon="5.76845">
        <ele>1287.6</ele>
        <time>2020-01-31T14:47:44Z</time>
      </trkpt>
      <trkpt lat="45.28381" lon="5.76846">
        <ele>1287.6</ele>
        <time>2020-01-31T14:47:45Z</time>
      </trkpt>
      <trkpt lat="45.28382" lon="5.76847">
        <ele>1287.8</ele>
        <time>2020-01-31T14:47:46Z</time>
      </trkpt>
      <trkpt lat="45.28384" lon="5.76848">
        <ele>1288.2</ele>
        <time>2020-01-31T14:47:47Z</time>
      </trkpt>
      <trkpt lat="45.28385" lon="5.7685">
        <ele>1288.6</ele>
        <time>2020-01-31T14:47:48Z</time>
      </trkpt>
      <trkpt lat="45.28386" lon="5.76851">
        <ele>1288.8</ele>
        <time>2020-01-31T14:47:49Z</time>
      </trkpt>
      <trkpt lat="45.28387" lon="5.76852">
        <ele>1289</ele>
        <time>2020-01-31T14:47:50Z</time>
      </trkpt>
      <trkpt lat="45.28389" lon="5.76854">
        <ele>1289.6</ele>
        <time>2020-01-31T14:47:51Z</time>
      </trkpt>
      <trkpt lat="45.28389" lon="5.76855">
        <ele>1290</ele>
        <time>2020-01-31T14:47:52Z</time>
      </trkpt>
      <trkpt lat="45.2839" lon="5.76856">
        <ele>1290</ele>
        <time>2020-01-31T14:47:53Z</time>
      </trkpt>
      <trkpt lat="45.28391" lon="5.76857">
        <ele>1289.8</ele>
        <time>2020-01-31T14:47:54Z</time>
      </trkpt>
      <trkpt lat="45.28392" lon="5.76858">
        <ele>1290.2</ele>
        <time>2020-01-31T14:47:55Z</time>
      </trkpt>
      <trkpt lat="45.28393" lon="5.76859">
        <ele>1290.2</ele>
        <time>2020-01-31T14:47:56Z</time>
      </trkpt>
      <trkpt lat="45.28394" lon="5.76861">
        <ele>1290.6</ele>
        <time>2020-01-31T14:47:57Z</time>
      </trkpt>
      <trkpt lat="45.28395" lon="5.76862">
        <ele>1290.8</ele>
        <time>2020-01-31T14:47:58Z</time>
      </trkpt>
      <trkpt lat="45.28395" lon="5.76863">
        <ele>1291</ele>
        <time>2020-01-31T14:47:59Z</time>
      </trkpt>
      <trkpt lat="45.28396" lon="5.76864">
        <ele>1291</ele>
        <time>2020-01-31T14:48:00Z</time>
      </trkpt>
      <trkpt lat="45.28397" lon="5.76865">
        <ele>1291.2</ele>
        <time>2020-01-31T14:48:01Z</time>
      </trkpt>
      <trkpt lat="45.28397" lon="5.76866">
        <ele>1291.6</ele>
        <time>2020-01-31T14:48:02Z</time>
      </trkpt>
      <trkpt lat="45.28398" lon="5.76867">
        <ele>1291.6</ele>
        <time>2020-01-31T14:48:03Z</time>
      </trkpt>
      <trkpt lat="45.28399" lon="5.76868">
        <ele>1291.8</ele>
        <time>2020-01-31T14:48:04Z</time>
      </trkpt>
      <trkpt lat="45.284" lon="5.76869">
        <ele>1292.2</ele>
        <time>2020-01-31T14:48:05Z</time>
      </trkpt>
      <trkpt lat="45.284" lon="5.7687">
        <ele>1292.4</ele>
        <time>2020-01-31T14:48:06Z</time>
      </trkpt>
      <trkpt lat="45.28401" lon="5.76871">
        <ele>1292.6</ele>
        <time>2020-01-31T14:48:07Z</time>
      </trkpt>
      <trkpt lat="45.28402" lon="5.76872">
        <ele>1292.8</ele>
        <time>2020-01-31T14:48:08Z</time>
      </trkpt>
      <trkpt lat="45.28402" lon="5.76873">
        <ele>1293</ele>
        <time>2020-01-31T14:48:09Z</time>
      </trkpt>
      <trkpt lat="45.28403" lon="5.76874">
        <ele>1293.2</ele>
        <time>2020-01-31T14:48:10Z</time>
      </trkpt>
      <trkpt lat="45.28403" lon="5.76875">
        <ele>1293.6</ele>
        <time>2020-01-31T14:48:11Z</time>
      </trkpt>
      <trkpt lat="45.28404" lon="5.76875">
        <ele>1293.6</ele>
        <time>2020-01-31T14:48:12Z</time>
      </trkpt>
      <trkpt lat="45.28404" lon="5.76876">
        <ele>1293.8</ele>
        <time>2020-01-31T14:48:13Z</time>
      </trkpt>
      <trkpt lat="45.28405" lon="5.76877">
        <ele>1294</ele>
        <time>2020-01-31T14:48:14Z</time>
      </trkpt>
      <trkpt lat="45.28406" lon="5.76878">
        <ele>1294.4</ele>
        <time>2020-01-31T14:48:15Z</time>
      </trkpt>
      <trkpt lat="45.28406" lon="5.76878">
        <ele>1294.4</ele>
        <time>2020-01-31T14:48:16Z</time>
      </trkpt>
      <trkpt lat="45.28407" lon="5.76879">
        <ele>1294.8</ele>
        <time>2020-01-31T14:48:17Z</time>
      </trkpt>
      <trkpt lat="45.28407" lon="5.7688">
        <ele>1295.2</ele>
        <time>2020-01-31T14:48:18Z</time>
      </trkpt>
      <trkpt lat="45.28408" lon="5.76881">
        <ele>1295.4</ele>
        <time>2020-01-31T14:48:19Z</time>
      </trkpt>
      <trkpt lat="45.28408" lon="5.76881">
        <ele>1295.6</ele>
        <time>2020-01-31T14:48:20Z</time>
      </trkpt>
      <trkpt lat="45.28409" lon="5.76881">
        <ele>1295.8</ele>
        <time>2020-01-31T14:48:21Z</time>
      </trkpt>
      <trkpt lat="45.2841" lon="5.76882">
        <ele>1296</ele>
        <time>2020-01-31T14:48:22Z</time>
      </trkpt>
      <trkpt lat="45.28411" lon="5.76882">
        <ele>1296.4</ele>
        <time>2020-01-31T14:48:23Z</time>
      </trkpt>
      <trkpt lat="45.28411" lon="5.76882">
        <ele>1296.4</ele>
        <time>2020-01-31T14:48:24Z</time>
      </trkpt>
      <trkpt lat="45.28412" lon="5.76882">
        <ele>1296.4</ele>
        <time>2020-01-31T14:48:25Z</time>
      </trkpt>
      <trkpt lat="45.28413" lon="5.76882">
        <ele>1296.8</ele>
        <time>2020-01-31T14:48:26Z</time>
      </trkpt>
      <trkpt lat="45.28414" lon="5.76882">
        <ele>1297</ele>
        <time>2020-01-31T14:48:27Z</time>
      </trkpt>
      <trkpt lat="45.28421" lon="5.76883">
        <ele>1297</ele>
        <time>2020-01-31T14:48:28Z</time>
      </trkpt>
      <trkpt lat="45.28422" lon="5.76883">
        <ele>1297</ele>
        <time>2020-01-31T14:48:29Z</time>
      </trkpt>
      <trkpt lat="45.28424" lon="5.76883">
        <ele>1297</ele>
        <time>2020-01-31T14:48:30Z</time>
      </trkpt>
      <trkpt lat="45.28426" lon="5.76883">
        <ele>1297.4</ele>
        <time>2020-01-31T14:48:31Z</time>
      </trkpt>
      <trkpt lat="45.28428" lon="5.76883">
        <ele>1297.6</ele>
        <time>2020-01-31T14:48:32Z</time>
      </trkpt>
      <trkpt lat="45.28429" lon="5.76883">
        <ele>1297.8</ele>
        <time>2020-01-31T14:48:33Z</time>
      </trkpt>
      <trkpt lat="45.2843" lon="5.76883">
        <ele>1298</ele>
        <time>2020-01-31T14:48:34Z</time>
      </trkpt>
      <trkpt lat="45.28431" lon="5.76884">
        <ele>1298.2</ele>
        <time>2020-01-31T14:48:35Z</time>
      </trkpt>
      <trkpt lat="45.28433" lon="5.76884">
        <ele>1298.4</ele>
        <time>2020-01-31T14:48:36Z</time>
      </trkpt>
      <trkpt lat="45.28434" lon="5.76884">
        <ele>1298.4</ele>
        <time>2020-01-31T14:48:37Z</time>
      </trkpt>
      <trkpt lat="45.28441" lon="5.76885">
        <ele>1298.6</ele>
        <time>2020-01-31T14:48:38Z</time>
      </trkpt>
      <trkpt lat="45.28442" lon="5.76886">
        <ele>1298.8</ele>
        <time>2020-01-31T14:48:39Z</time>
      </trkpt>
      <trkpt lat="45.28443" lon="5.76886">
        <ele>1299</ele>
        <time>2020-01-31T14:48:40Z</time>
      </trkpt>
      <trkpt lat="45.28444" lon="5.76886">
        <ele>1299.2</ele>
        <time>2020-01-31T14:48:41Z</time>
      </trkpt>
      <trkpt lat="45.28445" lon="5.76886">
        <ele>1299.4</ele>
        <time>2020-01-31T14:48:42Z</time>
      </trkpt>
      <trkpt lat="45.28451" lon="5.76887">
        <ele>1299.6</ele>
        <time>2020-01-31T14:48:43Z</time>
      </trkpt>
      <trkpt lat="45.28452" lon="5.76887">
        <ele>1299.8</ele>
        <time>2020-01-31T14:48:44Z</time>
      </trkpt>
      <trkpt lat="45.28453" lon="5.76887">
        <ele>1300</ele>
        <time>2020-01-31T14:48:45Z</time>
      </trkpt>
      <trkpt lat="45.28454" lon="5.76887">
        <ele>1300</ele>
        <time>2020-01-31T14:48:46Z</time>
      </trkpt>
      <trkpt lat="45.28455" lon="5.76887">
        <ele>1300.2</ele>
        <time>2020-01-31T14:48:47Z</time>
      </trkpt>
      <trkpt lat="45.28456" lon="5.76887">
        <ele>1300.4</ele>
        <time>2020-01-31T14:48:48Z</time>
      </trkpt>
      <trkpt lat="45.28462" lon="5.76889">
        <ele>1300.6</ele>
        <time>2020-01-31T14:48:49Z</time>
      </trkpt>
      <trkpt lat="45.28464" lon="5.76889">
        <ele>1300.8</ele>
        <time>2020-01-31T14:48:50Z</time>
      </trkpt>
      <trkpt lat="45.28466" lon="5.76889">
        <ele>1300.6</ele>
        <time>2020-01-31T14:48:51Z</time>
      </trkpt>
      <trkpt lat="45.28468" lon="5.76889">
        <ele>1300.6</ele>
        <time>2020-01-31T14:48:52Z</time>
      </trkpt>
      <trkpt lat="45.2847" lon="5.76889">
        <ele>1301</ele>
        <time>2020-01-31T14:48:53Z</time>
      </trkpt>
      <trkpt lat="45.28472" lon="5.76889">
        <ele>1301</ele>
        <time>2020-01-31T14:48:54Z</time>
      </trkpt>
      <trkpt lat="45.28474" lon="5.76888">
        <ele>1301.2</ele>
        <time>2020-01-31T14:48:55Z</time>
      </trkpt>
      <trkpt lat="45.28477" lon="5.76888">
        <ele>1301.4</ele>
        <time>2020-01-31T14:48:56Z</time>
      </trkpt>
      <trkpt lat="45.28479" lon="5.76888">
        <ele>1301.8</ele>
        <time>2020-01-31T14:48:57Z</time>
      </trkpt>
      <trkpt lat="45.2848" lon="5.76888">
        <ele>1301.8</ele>
        <time>2020-01-31T14:48:58Z</time>
      </trkpt>
      <trkpt lat="45.28481" lon="5.76888">
        <ele>1302</ele>
        <time>2020-01-31T14:48:59Z</time>
      </trkpt>
      <trkpt lat="45.28483" lon="5.76888">
        <ele>1302.2</ele>
        <time>2020-01-31T14:49:00Z</time>
      </trkpt>
      <trkpt lat="45.28484" lon="5.76888">
        <ele>1302.4</ele>
        <time>2020-01-31T14:49:01Z</time>
      </trkpt>
      <trkpt lat="45.28485" lon="5.76888">
        <ele>1303</ele>
        <time>2020-01-31T14:49:02Z</time>
      </trkpt>
      <trkpt lat="45.28492" lon="5.76888">
        <ele>1303</ele>
        <time>2020-01-31T14:49:03Z</time>
      </trkpt>
      <trkpt lat="45.28495" lon="5.76887">
        <ele>1303.4</ele>
        <time>2020-01-31T14:49:04Z</time>
      </trkpt>
      <trkpt lat="45.28497" lon="5.76887">
        <ele>1303.6</ele>
        <time>2020-01-31T14:49:05Z</time>
      </trkpt>
      <trkpt lat="45.28499" lon="5.76887">
        <ele>1304</ele>
        <time>2020-01-31T14:49:06Z</time>
      </trkpt>
      <trkpt lat="45.28501" lon="5.76886">
        <ele>1304.2</ele>
        <time>2020-01-31T14:49:07Z</time>
      </trkpt>
      <trkpt lat="45.28502" lon="5.76886">
        <ele>1304.4</ele>
        <time>2020-01-31T14:49:08Z</time>
      </trkpt>
      <trkpt lat="45.28504" lon="5.76887">
        <ele>1304.4</ele>
        <time>2020-01-31T14:49:09Z</time>
      </trkpt>
      <trkpt lat="45.28505" lon="5.76887">
        <ele>1304.8</ele>
        <time>2020-01-31T14:49:10Z</time>
      </trkpt>
      <trkpt lat="45.28507" lon="5.76887">
        <ele>1305.2</ele>
        <time>2020-01-31T14:49:11Z</time>
      </trkpt>
      <trkpt lat="45.28508" lon="5.76887">
        <ele>1305.4</ele>
        <time>2020-01-31T14:49:12Z</time>
      </trkpt>
      <trkpt lat="45.2851" lon="5.76887">
        <ele>1305.8</ele>
        <time>2020-01-31T14:49:13Z</time>
      </trkpt>
      <trkpt lat="45.28511" lon="5.76887">
        <ele>1305.8</ele>
        <time>2020-01-31T14:49:14Z</time>
      </trkpt>
      <trkpt lat="45.28513" lon="5.76888">
        <ele>1306.2</ele>
        <time>2020-01-31T14:49:15Z</time>
      </trkpt>
      <trkpt lat="45.28514" lon="5.76888">
        <ele>1306.2</ele>
        <time>2020-01-31T14:49:16Z</time>
      </trkpt>
      <trkpt lat="45.28516" lon="5.76889">
        <ele>1306.4</ele>
        <time>2020-01-31T14:49:17Z</time>
      </trkpt>
      <trkpt lat="45.28517" lon="5.76889">
        <ele>1306.8</ele>
        <time>2020-01-31T14:49:18Z</time>
      </trkpt>
      <trkpt lat="45.28519" lon="5.76889">
        <ele>1307</ele>
        <time>2020-01-31T14:49:19Z</time>
      </trkpt>
      <trkpt lat="45.2852" lon="5.7689">
        <ele>1307.4</ele>
        <time>2020-01-31T14:49:20Z</time>
      </trkpt>
      <trkpt lat="45.28522" lon="5.76891">
        <ele>1307.6</ele>
        <time>2020-01-31T14:49:21Z</time>
      </trkpt>
      <trkpt lat="45.28523" lon="5.76891">
        <ele>1308</ele>
        <time>2020-01-31T14:49:22Z</time>
      </trkpt>
      <trkpt lat="45.28524" lon="5.76892">
        <ele>1308</ele>
        <time>2020-01-31T14:49:23Z</time>
      </trkpt>
      <trkpt lat="45.28526" lon="5.76892">
        <ele>1308</ele>
        <time>2020-01-31T14:49:24Z</time>
      </trkpt>
      <trkpt lat="45.28527" lon="5.76893">
        <ele>1308.2</ele>
        <time>2020-01-31T14:49:25Z</time>
      </trkpt>
      <trkpt lat="45.28528" lon="5.76894">
        <ele>1308.4</ele>
        <time>2020-01-31T14:49:26Z</time>
      </trkpt>
      <trkpt lat="45.2853" lon="5.76894">
        <ele>1308.6</ele>
        <time>2020-01-31T14:49:27Z</time>
      </trkpt>
      <trkpt lat="45.28531" lon="5.76894">
        <ele>1308.6</ele>
        <time>2020-01-31T14:49:28Z</time>
      </trkpt>
      <trkpt lat="45.28532" lon="5.76894">
        <ele>1309</ele>
        <time>2020-01-31T14:49:29Z</time>
      </trkpt>
      <trkpt lat="45.28534" lon="5.76894">
        <ele>1309</ele>
        <time>2020-01-31T14:49:30Z</time>
      </trkpt>
      <trkpt lat="45.28535" lon="5.76894">
        <ele>1309.6</ele>
        <time>2020-01-31T14:49:31Z</time>
      </trkpt>
      <trkpt lat="45.28536" lon="5.76894">
        <ele>1310</ele>
        <time>2020-01-31T14:49:32Z</time>
      </trkpt>
      <trkpt lat="45.28537" lon="5.76894">
        <ele>1310</ele>
        <time>2020-01-31T14:49:33Z</time>
      </trkpt>
      <trkpt lat="45.28539" lon="5.76895">
        <ele>1310.4</ele>
        <time>2020-01-31T14:49:34Z</time>
      </trkpt>
      <trkpt lat="45.2854" lon="5.76895">
        <ele>1310.6</ele>
        <time>2020-01-31T14:49:35Z</time>
      </trkpt>
      <trkpt lat="45.28541" lon="5.76896">
        <ele>1310.6</ele>
        <time>2020-01-31T14:49:36Z</time>
      </trkpt>
      <trkpt lat="45.28542" lon="5.76896">
        <ele>1310.6</ele>
        <time>2020-01-31T14:49:37Z</time>
      </trkpt>
      <trkpt lat="45.28543" lon="5.76897">
        <ele>1310.8</ele>
        <time>2020-01-31T14:49:38Z</time>
      </trkpt>
      <trkpt lat="45.28544" lon="5.76898">
        <ele>1311.2</ele>
        <time>2020-01-31T14:49:39Z</time>
      </trkpt>
      <trkpt lat="45.28545" lon="5.76898">
        <ele>1311.4</ele>
        <time>2020-01-31T14:49:40Z</time>
      </trkpt>
      <trkpt lat="45.28546" lon="5.76899">
        <ele>1311.6</ele>
        <time>2020-01-31T14:49:41Z</time>
      </trkpt>
      <trkpt lat="45.28547" lon="5.76899">
        <ele>1312</ele>
        <time>2020-01-31T14:49:42Z</time>
      </trkpt>
      <trkpt lat="45.28549" lon="5.76899">
        <ele>1312.4</ele>
        <time>2020-01-31T14:49:43Z</time>
      </trkpt>
      <trkpt lat="45.2855" lon="5.76899">
        <ele>1312.4</ele>
        <time>2020-01-31T14:49:44Z</time>
      </trkpt>
      <trkpt lat="45.2855" lon="5.76899">
        <ele>1312.6</ele>
        <time>2020-01-31T14:49:45Z</time>
      </trkpt>
      <trkpt lat="45.2855" lon="5.76899">
        <ele>1312.8</ele>
        <time>2020-01-31T14:49:46Z</time>
      </trkpt>
      <trkpt lat="45.28552" lon="5.76898">
        <ele>1313.2</ele>
        <time>2020-01-31T14:49:47Z</time>
      </trkpt>
      <trkpt lat="45.28554" lon="5.76898">
        <ele>1313.6</ele>
        <time>2020-01-31T14:49:48Z</time>
      </trkpt>
      <trkpt lat="45.28555" lon="5.76898">
        <ele>1313.6</ele>
        <time>2020-01-31T14:49:49Z</time>
      </trkpt>
      <trkpt lat="45.28556" lon="5.76898">
        <ele>1314</ele>
        <time>2020-01-31T14:49:50Z</time>
      </trkpt>
      <trkpt lat="45.28557" lon="5.76898">
        <ele>1314</ele>
        <time>2020-01-31T14:49:51Z</time>
      </trkpt>
      <trkpt lat="45.28558" lon="5.76897">
        <ele>1314</ele>
        <time>2020-01-31T14:49:52Z</time>
      </trkpt>
      <trkpt lat="45.28559" lon="5.76897">
        <ele>1314.4</ele>
        <time>2020-01-31T14:49:53Z</time>
      </trkpt>
      <trkpt lat="45.2856" lon="5.76897">
        <ele>1314.6</ele>
        <time>2020-01-31T14:49:54Z</time>
      </trkpt>
      <trkpt lat="45.28562" lon="5.76897">
        <ele>1315</ele>
        <time>2020-01-31T14:49:55Z</time>
      </trkpt>
      <trkpt lat="45.28562" lon="5.76897">
        <ele>1314.8</ele>
        <time>2020-01-31T14:49:56Z</time>
      </trkpt>
      <trkpt lat="45.28563" lon="5.76898">
        <ele>1315.4</ele>
        <time>2020-01-31T14:49:57Z</time>
      </trkpt>
      <trkpt lat="45.28564" lon="5.76898">
        <ele>1315.8</ele>
        <time>2020-01-31T14:49:58Z</time>
      </trkpt>
      <trkpt lat="45.28565" lon="5.76898">
        <ele>1316.2</ele>
        <time>2020-01-31T14:49:59Z</time>
      </trkpt>
      <trkpt lat="45.28566" lon="5.76899">
        <ele>1316.4</ele>
        <time>2020-01-31T14:50:00Z</time>
      </trkpt>
      <trkpt lat="45.28567" lon="5.76899">
        <ele>1316.6</ele>
        <time>2020-01-31T14:50:01Z</time>
      </trkpt>
      <trkpt lat="45.28568" lon="5.76899">
        <ele>1316.8</ele>
        <time>2020-01-31T14:50:02Z</time>
      </trkpt>
      <trkpt lat="45.28568" lon="5.76899">
        <ele>1317.6</ele>
        <time>2020-01-31T14:50:03Z</time>
      </trkpt>
      <trkpt lat="45.2857" lon="5.769">
        <ele>1317.4</ele>
        <time>2020-01-31T14:50:04Z</time>
      </trkpt>
      <trkpt lat="45.2857" lon="5.769">
        <ele>1317.8</ele>
        <time>2020-01-31T14:50:05Z</time>
      </trkpt>
      <trkpt lat="45.28572" lon="5.769">
        <ele>1318.2</ele>
        <time>2020-01-31T14:50:06Z</time>
      </trkpt>
      <trkpt lat="45.28572" lon="5.769">
        <ele>1318.6</ele>
        <time>2020-01-31T14:50:07Z</time>
      </trkpt>
      <trkpt lat="45.28574" lon="5.76902">
        <ele>1318.8</ele>
        <time>2020-01-31T14:50:08Z</time>
      </trkpt>
      <trkpt lat="45.28574" lon="5.76902">
        <ele>1319</ele>
        <time>2020-01-31T14:50:09Z</time>
      </trkpt>
      <trkpt lat="45.28577" lon="5.76905">
        <ele>1319.4</ele>
        <time>2020-01-31T14:50:10Z</time>
      </trkpt>
      <trkpt lat="45.28577" lon="5.76905">
        <ele>1319.6</ele>
        <time>2020-01-31T14:50:11Z</time>
      </trkpt>
      <trkpt lat="45.2858" lon="5.76906">
        <ele>1319.4</ele>
        <time>2020-01-31T14:50:12Z</time>
      </trkpt>
      <trkpt lat="45.2858" lon="5.76906">
        <ele>1319.6</ele>
        <time>2020-01-31T14:50:13Z</time>
      </trkpt>
      <trkpt lat="45.28582" lon="5.76907">
        <ele>1320.2</ele>
        <time>2020-01-31T14:50:14Z</time>
      </trkpt>
      <trkpt lat="45.28582" lon="5.76907">
        <ele>1320.2</ele>
        <time>2020-01-31T14:50:15Z</time>
      </trkpt>
      <trkpt lat="45.28584" lon="5.76909">
        <ele>1320.2</ele>
        <time>2020-01-31T14:50:16Z</time>
      </trkpt>
      <trkpt lat="45.28584" lon="5.76909">
        <ele>1320.4</ele>
        <time>2020-01-31T14:50:17Z</time>
      </trkpt>
      <trkpt lat="45.28584" lon="5.76909">
        <ele>1320.8</ele>
        <time>2020-01-31T14:50:18Z</time>
      </trkpt>
      <trkpt lat="45.28587" lon="5.76909">
        <ele>1320.8</ele>
        <time>2020-01-31T14:50:19Z</time>
      </trkpt>
      <trkpt lat="45.28587" lon="5.76909">
        <ele>1321</ele>
        <time>2020-01-31T14:50:20Z</time>
      </trkpt>
      <trkpt lat="45.2859" lon="5.7691">
        <ele>1321.4</ele>
        <time>2020-01-31T14:50:21Z</time>
      </trkpt>
      <trkpt lat="45.2859" lon="5.7691">
        <ele>1321.8</ele>
        <time>2020-01-31T14:50:22Z</time>
      </trkpt>
      <trkpt lat="45.28592" lon="5.76913">
        <ele>1322</ele>
        <time>2020-01-31T14:50:23Z</time>
      </trkpt>
      <trkpt lat="45.28592" lon="5.76913">
        <ele>1322.2</ele>
        <time>2020-01-31T14:50:24Z</time>
      </trkpt>
      <trkpt lat="45.28595" lon="5.76915">
        <ele>1322.4</ele>
        <time>2020-01-31T14:50:25Z</time>
      </trkpt>
      <trkpt lat="45.28595" lon="5.76915">
        <ele>1322.6</ele>
        <time>2020-01-31T14:50:26Z</time>
      </trkpt>
      <trkpt lat="45.28597" lon="5.76918">
        <ele>1322.8</ele>
        <time>2020-01-31T14:50:27Z</time>
      </trkpt>
      <trkpt lat="45.28597" lon="5.76918">
        <ele>1322.6</ele>
        <time>2020-01-31T14:50:28Z</time>
      </trkpt>
      <trkpt lat="45.28599" lon="5.76919">
        <ele>1323.2</ele>
        <time>2020-01-31T14:50:29Z</time>
      </trkpt>
      <trkpt lat="45.28599" lon="5.76919">
        <ele>1323.6</ele>
        <time>2020-01-31T14:50:30Z</time>
      </trkpt>
      <trkpt lat="45.28601" lon="5.76921">
        <ele>1323.8</ele>
        <time>2020-01-31T14:50:31Z</time>
      </trkpt>
      <trkpt lat="45.28601" lon="5.76921">
        <ele>1324</ele>
        <time>2020-01-31T14:50:32Z</time>
      </trkpt>
      <trkpt lat="45.28603" lon="5.76923">
        <ele>1324</ele>
        <time>2020-01-31T14:50:33Z</time>
      </trkpt>
      <trkpt lat="45.28603" lon="5.76923">
        <ele>1324</ele>
        <time>2020-01-31T14:50:34Z</time>
      </trkpt>
      <trkpt lat="45.28605" lon="5.76926">
        <ele>1324.2</ele>
        <time>2020-01-31T14:50:35Z</time>
      </trkpt>
      <trkpt lat="45.28605" lon="5.76926">
        <ele>1324.6</ele>
        <time>2020-01-31T14:50:36Z</time>
      </trkpt>
      <trkpt lat="45.28607" lon="5.76929">
        <ele>1325</ele>
        <time>2020-01-31T14:50:37Z</time>
      </trkpt>
      <trkpt lat="45.28607" lon="5.76929">
        <ele>1325.2</ele>
        <time>2020-01-31T14:50:38Z</time>
      </trkpt>
      <trkpt lat="45.28607" lon="5.76929">
        <ele>1325.6</ele>
        <time>2020-01-31T14:50:39Z</time>
      </trkpt>
      <trkpt lat="45.28609" lon="5.76932">
        <ele>1326</ele>
        <time>2020-01-31T14:50:40Z</time>
      </trkpt>
      <trkpt lat="45.28609" lon="5.76932">
        <ele>1326.2</ele>
        <time>2020-01-31T14:50:41Z</time>
      </trkpt>
      <trkpt lat="45.2861" lon="5.76934">
        <ele>1326.4</ele>
        <time>2020-01-31T14:50:42Z</time>
      </trkpt>
      <trkpt lat="45.2861" lon="5.76934">
        <ele>1326.6</ele>
        <time>2020-01-31T14:50:43Z</time>
      </trkpt>
      <trkpt lat="45.2861" lon="5.76934">
        <ele>1326.8</ele>
        <time>2020-01-31T14:50:44Z</time>
      </trkpt>
      <trkpt lat="45.28611" lon="5.76938">
        <ele>1327</ele>
        <time>2020-01-31T14:50:45Z</time>
      </trkpt>
      <trkpt lat="45.28611" lon="5.76938">
        <ele>1327.4</ele>
        <time>2020-01-31T14:50:46Z</time>
      </trkpt>
      <trkpt lat="45.28613" lon="5.7694">
        <ele>1327.6</ele>
        <time>2020-01-31T14:50:47Z</time>
      </trkpt>
      <trkpt lat="45.28613" lon="5.7694">
        <ele>1327.8</ele>
        <time>2020-01-31T14:50:48Z</time>
      </trkpt>
      <trkpt lat="45.28614" lon="5.76942">
        <ele>1328</ele>
        <time>2020-01-31T14:50:49Z</time>
      </trkpt>
      <trkpt lat="45.28614" lon="5.76942">
        <ele>1328.2</ele>
        <time>2020-01-31T14:50:50Z</time>
      </trkpt>
      <trkpt lat="45.28616" lon="5.76945">
        <ele>1328.8</ele>
        <time>2020-01-31T14:50:51Z</time>
      </trkpt>
      <trkpt lat="45.28616" lon="5.76945">
        <ele>1328.8</ele>
        <time>2020-01-31T14:50:52Z</time>
      </trkpt>
      <trkpt lat="45.28618" lon="5.76948">
        <ele>1329</ele>
        <time>2020-01-31T14:50:53Z</time>
      </trkpt>
      <trkpt lat="45.28618" lon="5.76948">
        <ele>1329</ele>
        <time>2020-01-31T14:50:54Z</time>
      </trkpt>
      <trkpt lat="45.28619" lon="5.76951">
        <ele>1329.2</ele>
        <time>2020-01-31T14:50:55Z</time>
      </trkpt>
      <trkpt lat="45.28619" lon="5.76951">
        <ele>1329.4</ele>
        <time>2020-01-31T14:50:56Z</time>
      </trkpt>
      <trkpt lat="45.28621" lon="5.76954">
        <ele>1329.6</ele>
        <time>2020-01-31T14:50:57Z</time>
      </trkpt>
      <trkpt lat="45.28621" lon="5.76954">
        <ele>1330</ele>
        <time>2020-01-31T14:50:58Z</time>
      </trkpt>
      <trkpt lat="45.28622" lon="5.76957">
        <ele>1330</ele>
        <time>2020-01-31T14:50:59Z</time>
      </trkpt>
      <trkpt lat="45.28622" lon="5.76957">
        <ele>1330.4</ele>
        <time>2020-01-31T14:51:00Z</time>
      </trkpt>
      <trkpt lat="45.28624" lon="5.7696">
        <ele>1330.8</ele>
        <time>2020-01-31T14:51:01Z</time>
      </trkpt>
      <trkpt lat="45.28624" lon="5.7696">
        <ele>1331.2</ele>
        <time>2020-01-31T14:51:02Z</time>
      </trkpt>
      <trkpt lat="45.28624" lon="5.76963">
        <ele>1331.4</ele>
        <time>2020-01-31T14:51:03Z</time>
      </trkpt>
      <trkpt lat="45.28624" lon="5.76963">
        <ele>1331.6</ele>
        <time>2020-01-31T14:51:04Z</time>
      </trkpt>
      <trkpt lat="45.28625" lon="5.76966">
        <ele>1332.2</ele>
        <time>2020-01-31T14:51:05Z</time>
      </trkpt>
      <trkpt lat="45.28625" lon="5.76966">
        <ele>1332</ele>
        <time>2020-01-31T14:51:06Z</time>
      </trkpt>
      <trkpt lat="45.28626" lon="5.76969">
        <ele>1332.2</ele>
        <time>2020-01-31T14:51:07Z</time>
      </trkpt>
      <trkpt lat="45.28626" lon="5.76969">
        <ele>1332.4</ele>
        <time>2020-01-31T14:51:08Z</time>
      </trkpt>
      <trkpt lat="45.28627" lon="5.76972">
        <ele>1332.8</ele>
        <time>2020-01-31T14:51:09Z</time>
      </trkpt>
      <trkpt lat="45.28627" lon="5.76972">
        <ele>1332.8</ele>
        <time>2020-01-31T14:51:10Z</time>
      </trkpt>
      <trkpt lat="45.28628" lon="5.76975">
        <ele>1333</ele>
        <time>2020-01-31T14:51:11Z</time>
      </trkpt>
      <trkpt lat="45.28628" lon="5.76975">
        <ele>1333.2</ele>
        <time>2020-01-31T14:51:12Z</time>
      </trkpt>
      <trkpt lat="45.28629" lon="5.76978">
        <ele>1333.6</ele>
        <time>2020-01-31T14:51:13Z</time>
      </trkpt>
      <trkpt lat="45.28629" lon="5.76978">
        <ele>1333.8</ele>
        <time>2020-01-31T14:51:14Z</time>
      </trkpt>
      <trkpt lat="45.28629" lon="5.7698">
        <ele>1333.8</ele>
        <time>2020-01-31T14:51:15Z</time>
      </trkpt>
      <trkpt lat="45.28629" lon="5.7698">
        <ele>1334.4</ele>
        <time>2020-01-31T14:51:16Z</time>
      </trkpt>
      <trkpt lat="45.28629" lon="5.76983">
        <ele>1334.2</ele>
        <time>2020-01-31T14:51:17Z</time>
      </trkpt>
      <trkpt lat="45.28629" lon="5.76983">
        <ele>1334.4</ele>
        <time>2020-01-31T14:51:18Z</time>
      </trkpt>
      <trkpt lat="45.28629" lon="5.76987">
        <ele>1334.6</ele>
        <time>2020-01-31T14:51:19Z</time>
      </trkpt>
      <trkpt lat="45.28629" lon="5.76987">
        <ele>1335.2</ele>
        <time>2020-01-31T14:51:20Z</time>
      </trkpt>
      <trkpt lat="45.28629" lon="5.7699">
        <ele>1335.2</ele>
        <time>2020-01-31T14:51:21Z</time>
      </trkpt>
      <trkpt lat="45.28629" lon="5.7699">
        <ele>1336</ele>
        <time>2020-01-31T14:51:22Z</time>
      </trkpt>
      <trkpt lat="45.28629" lon="5.76993">
        <ele>1336.2</ele>
        <time>2020-01-31T14:51:23Z</time>
      </trkpt>
      <trkpt lat="45.28629" lon="5.76993">
        <ele>1336.6</ele>
        <time>2020-01-31T14:51:24Z</time>
      </trkpt>
      <trkpt lat="45.2863" lon="5.76996">
        <ele>1336.4</ele>
        <time>2020-01-31T14:51:25Z</time>
      </trkpt>
      <trkpt lat="45.2863" lon="5.76996">
        <ele>1336.6</ele>
        <time>2020-01-31T14:51:26Z</time>
      </trkpt>
      <trkpt lat="45.2863" lon="5.76999">
        <ele>1336.6</ele>
        <time>2020-01-31T14:51:27Z</time>
      </trkpt>
      <trkpt lat="45.2863" lon="5.76999">
        <ele>1337.2</ele>
        <time>2020-01-31T14:51:28Z</time>
      </trkpt>
      <trkpt lat="45.28631" lon="5.77002">
        <ele>1337.2</ele>
        <time>2020-01-31T14:51:29Z</time>
      </trkpt>
      <trkpt lat="45.28631" lon="5.77002">
        <ele>1337.8</ele>
        <time>2020-01-31T14:51:30Z</time>
      </trkpt>
      <trkpt lat="45.28631" lon="5.77006">
        <ele>1338.2</ele>
        <time>2020-01-31T14:51:31Z</time>
      </trkpt>
      <trkpt lat="45.28631" lon="5.77006">
        <ele>1338.6</ele>
        <time>2020-01-31T14:51:32Z</time>
      </trkpt>
      <trkpt lat="45.28632" lon="5.77008">
        <ele>1338.4</ele>
        <time>2020-01-31T14:51:33Z</time>
      </trkpt>
      <trkpt lat="45.28632" lon="5.77008">
        <ele>1338.6</ele>
        <time>2020-01-31T14:51:34Z</time>
      </trkpt>
      <trkpt lat="45.28633" lon="5.7701">
        <ele>1338.6</ele>
        <time>2020-01-31T14:51:35Z</time>
      </trkpt>
      <trkpt lat="45.28633" lon="5.77012">
        <ele>1339</ele>
        <time>2020-01-31T14:51:36Z</time>
      </trkpt>
      <trkpt lat="45.28633" lon="5.77013">
        <ele>1339</ele>
        <time>2020-01-31T14:51:37Z</time>
      </trkpt>
      <trkpt lat="45.28633" lon="5.77014">
        <ele>1339</ele>
        <time>2020-01-31T14:51:38Z</time>
      </trkpt>
      <trkpt lat="45.28633" lon="5.77016">
        <ele>1339.4</ele>
        <time>2020-01-31T14:51:39Z</time>
      </trkpt>
      <trkpt lat="45.28633" lon="5.77017">
        <ele>1339.8</ele>
        <time>2020-01-31T14:51:40Z</time>
      </trkpt>
      <trkpt lat="45.28634" lon="5.77018">
        <ele>1340</ele>
        <time>2020-01-31T14:51:41Z</time>
      </trkpt>
      <trkpt lat="45.28634" lon="5.7702">
        <ele>1340.2</ele>
        <time>2020-01-31T14:51:42Z</time>
      </trkpt>
      <trkpt lat="45.28634" lon="5.7702">
        <ele>1340.4</ele>
        <time>2020-01-31T14:51:43Z</time>
      </trkpt>
      <trkpt lat="45.28634" lon="5.77023">
        <ele>1341</ele>
        <time>2020-01-31T14:51:44Z</time>
      </trkpt>
      <trkpt lat="45.28634" lon="5.77025">
        <ele>1341</ele>
        <time>2020-01-31T14:51:45Z</time>
      </trkpt>
      <trkpt lat="45.28634" lon="5.77026">
        <ele>1341.4</ele>
        <time>2020-01-31T14:51:46Z</time>
      </trkpt>
      <trkpt lat="45.28634" lon="5.77028">
        <ele>1341.8</ele>
        <time>2020-01-31T14:51:47Z</time>
      </trkpt>
      <trkpt lat="45.28634" lon="5.7703">
        <ele>1342.4</ele>
        <time>2020-01-31T14:51:48Z</time>
      </trkpt>
      <trkpt lat="45.28634" lon="5.77031">
        <ele>1342.6</ele>
        <time>2020-01-31T14:51:49Z</time>
      </trkpt>
      <trkpt lat="45.28634" lon="5.77033">
        <ele>1342.6</ele>
        <time>2020-01-31T14:51:50Z</time>
      </trkpt>
      <trkpt lat="45.28634" lon="5.77034">
        <ele>1342.8</ele>
        <time>2020-01-31T14:51:51Z</time>
      </trkpt>
      <trkpt lat="45.28634" lon="5.77035">
        <ele>1342.6</ele>
        <time>2020-01-31T14:51:52Z</time>
      </trkpt>
      <trkpt lat="45.28634" lon="5.77037">
        <ele>1342.8</ele>
        <time>2020-01-31T14:51:53Z</time>
      </trkpt>
      <trkpt lat="45.28634" lon="5.77038">
        <ele>1343.2</ele>
        <time>2020-01-31T14:51:54Z</time>
      </trkpt>
      <trkpt lat="45.28634" lon="5.7704">
        <ele>1343.2</ele>
        <time>2020-01-31T14:51:55Z</time>
      </trkpt>
      <trkpt lat="45.28634" lon="5.77041">
        <ele>1343.6</ele>
        <time>2020-01-31T14:51:56Z</time>
      </trkpt>
      <trkpt lat="45.28634" lon="5.77043">
        <ele>1343.6</ele>
        <time>2020-01-31T14:51:57Z</time>
      </trkpt>
      <trkpt lat="45.28634" lon="5.77044">
        <ele>1343.8</ele>
        <time>2020-01-31T14:51:58Z</time>
      </trkpt>
      <trkpt lat="45.28634" lon="5.77046">
        <ele>1344</ele>
        <time>2020-01-31T14:51:59Z</time>
      </trkpt>
      <trkpt lat="45.28634" lon="5.77047">
        <ele>1344.4</ele>
        <time>2020-01-31T14:52:00Z</time>
      </trkpt>
      <trkpt lat="45.28634" lon="5.77048">
        <ele>1344.4</ele>
        <time>2020-01-31T14:52:01Z</time>
      </trkpt>
      <trkpt lat="45.28635" lon="5.7705">
        <ele>1345.2</ele>
        <time>2020-01-31T14:52:02Z</time>
      </trkpt>
      <trkpt lat="45.28635" lon="5.77051">
        <ele>1345.6</ele>
        <time>2020-01-31T14:52:03Z</time>
      </trkpt>
      <trkpt lat="45.28635" lon="5.77053">
        <ele>1345.6</ele>
        <time>2020-01-31T14:52:04Z</time>
      </trkpt>
      <trkpt lat="45.28635" lon="5.77053">
        <ele>1345.8</ele>
        <time>2020-01-31T14:52:05Z</time>
      </trkpt>
      <trkpt lat="45.28635" lon="5.77056">
        <ele>1346.2</ele>
        <time>2020-01-31T14:52:06Z</time>
      </trkpt>
      <trkpt lat="45.28635" lon="5.77056">
        <ele>1346.2</ele>
        <time>2020-01-31T14:52:07Z</time>
      </trkpt>
      <trkpt lat="45.28636" lon="5.77059">
        <ele>1346.4</ele>
        <time>2020-01-31T14:52:08Z</time>
      </trkpt>
      <trkpt lat="45.28636" lon="5.7706">
        <ele>1346.6</ele>
        <time>2020-01-31T14:52:09Z</time>
      </trkpt>
      <trkpt lat="45.28636" lon="5.77062">
        <ele>1346.8</ele>
        <time>2020-01-31T14:52:10Z</time>
      </trkpt>
      <trkpt lat="45.28636" lon="5.77064">
        <ele>1347.4</ele>
        <time>2020-01-31T14:52:11Z</time>
      </trkpt>
      <trkpt lat="45.28636" lon="5.77065">
        <ele>1347.6</ele>
        <time>2020-01-31T14:52:12Z</time>
      </trkpt>
      <trkpt lat="45.28636" lon="5.77067">
        <ele>1347.8</ele>
        <time>2020-01-31T14:52:13Z</time>
      </trkpt>
      <trkpt lat="45.28636" lon="5.77069">
        <ele>1347.8</ele>
        <time>2020-01-31T14:52:14Z</time>
      </trkpt>
      <trkpt lat="45.28636" lon="5.77069">
        <ele>1348</ele>
        <time>2020-01-31T14:52:15Z</time>
      </trkpt>
      <trkpt lat="45.28636" lon="5.77072">
        <ele>1348.2</ele>
        <time>2020-01-31T14:52:16Z</time>
      </trkpt>
      <trkpt lat="45.28636" lon="5.77072">
        <ele>1348.4</ele>
        <time>2020-01-31T14:52:17Z</time>
      </trkpt>
      <trkpt lat="45.28637" lon="5.77075">
        <ele>1348.4</ele>
        <time>2020-01-31T14:52:18Z</time>
      </trkpt>
      <trkpt lat="45.28637" lon="5.77076">
        <ele>1348.8</ele>
        <time>2020-01-31T14:52:19Z</time>
      </trkpt>
      <trkpt lat="45.28637" lon="5.77078">
        <ele>1349.2</ele>
        <time>2020-01-31T14:52:20Z</time>
      </trkpt>
      <trkpt lat="45.28638" lon="5.77079">
        <ele>1349.4</ele>
        <time>2020-01-31T14:52:21Z</time>
      </trkpt>
      <trkpt lat="45.28638" lon="5.77081">
        <ele>1350</ele>
        <time>2020-01-31T14:52:22Z</time>
      </trkpt>
      <trkpt lat="45.28638" lon="5.77082">
        <ele>1350.6</ele>
        <time>2020-01-31T14:52:23Z</time>
      </trkpt>
      <trkpt lat="45.28639" lon="5.77084">
        <ele>1351</ele>
        <time>2020-01-31T14:52:24Z</time>
      </trkpt>
      <trkpt lat="45.28639" lon="5.77085">
        <ele>1351</ele>
        <time>2020-01-31T14:52:25Z</time>
      </trkpt>
      <trkpt lat="45.28639" lon="5.77087">
        <ele>1350.8</ele>
        <time>2020-01-31T14:52:26Z</time>
      </trkpt>
      <trkpt lat="45.2864" lon="5.77088">
        <ele>1351.2</ele>
        <time>2020-01-31T14:52:27Z</time>
      </trkpt>
      <trkpt lat="45.2864" lon="5.77089">
        <ele>1351</ele>
        <time>2020-01-31T14:52:28Z</time>
      </trkpt>
      <trkpt lat="45.2864" lon="5.77091">
        <ele>1351</ele>
        <time>2020-01-31T14:52:29Z</time>
      </trkpt>
      <trkpt lat="45.28641" lon="5.77092">
        <ele>1351.4</ele>
        <time>2020-01-31T14:52:30Z</time>
      </trkpt>
      <trkpt lat="45.28641" lon="5.77093">
        <ele>1351.4</ele>
        <time>2020-01-31T14:52:31Z</time>
      </trkpt>
      <trkpt lat="45.28641" lon="5.77095">
        <ele>1351.6</ele>
        <time>2020-01-31T14:52:32Z</time>
      </trkpt>
      <trkpt lat="45.28642" lon="5.77096">
        <ele>1351.8</ele>
        <time>2020-01-31T14:52:33Z</time>
      </trkpt>
      <trkpt lat="45.28642" lon="5.77097">
        <ele>1352</ele>
        <time>2020-01-31T14:52:34Z</time>
      </trkpt>
      <trkpt lat="45.28642" lon="5.77099">
        <ele>1352</ele>
        <time>2020-01-31T14:52:35Z</time>
      </trkpt>
      <trkpt lat="45.28643" lon="5.771">
        <ele>1352.2</ele>
        <time>2020-01-31T14:52:36Z</time>
      </trkpt>
      <trkpt lat="45.28643" lon="5.77101">
        <ele>1352.6</ele>
        <time>2020-01-31T14:52:37Z</time>
      </trkpt>
      <trkpt lat="45.28643" lon="5.77103">
        <ele>1353</ele>
        <time>2020-01-31T14:52:38Z</time>
      </trkpt>
      <trkpt lat="45.28643" lon="5.77104">
        <ele>1353.2</ele>
        <time>2020-01-31T14:52:39Z</time>
      </trkpt>
      <trkpt lat="45.28644" lon="5.77105">
        <ele>1353.4</ele>
        <time>2020-01-31T14:52:40Z</time>
      </trkpt>
      <trkpt lat="45.28644" lon="5.77106">
        <ele>1353.6</ele>
        <time>2020-01-31T14:52:41Z</time>
      </trkpt>
      <trkpt lat="45.28644" lon="5.77108">
        <ele>1354</ele>
        <time>2020-01-31T14:52:42Z</time>
      </trkpt>
      <trkpt lat="45.28645" lon="5.77109">
        <ele>1354.2</ele>
        <time>2020-01-31T14:52:43Z</time>
      </trkpt>
      <trkpt lat="45.28645" lon="5.7711">
        <ele>1354.4</ele>
        <time>2020-01-31T14:52:44Z</time>
      </trkpt>
      <trkpt lat="45.28645" lon="5.77112">
        <ele>1354.8</ele>
        <time>2020-01-31T14:52:45Z</time>
      </trkpt>
      <trkpt lat="45.28646" lon="5.77113">
        <ele>1354.8</ele>
        <time>2020-01-31T14:52:46Z</time>
      </trkpt>
      <trkpt lat="45.28646" lon="5.77114">
        <ele>1355</ele>
        <time>2020-01-31T14:52:47Z</time>
      </trkpt>
      <trkpt lat="45.28646" lon="5.77116">
        <ele>1355.2</ele>
        <time>2020-01-31T14:52:48Z</time>
      </trkpt>
      <trkpt lat="45.28646" lon="5.77117">
        <ele>1355.4</ele>
        <time>2020-01-31T14:52:49Z</time>
      </trkpt>
      <trkpt lat="45.28646" lon="5.77118">
        <ele>1355.8</ele>
        <time>2020-01-31T14:52:50Z</time>
      </trkpt>
      <trkpt lat="45.28647" lon="5.7712">
        <ele>1356</ele>
        <time>2020-01-31T14:52:51Z</time>
      </trkpt>
      <trkpt lat="45.28647" lon="5.77121">
        <ele>1356.2</ele>
        <time>2020-01-31T14:52:52Z</time>
      </trkpt>
      <trkpt lat="45.28647" lon="5.77122">
        <ele>1356.6</ele>
        <time>2020-01-31T14:52:53Z</time>
      </trkpt>
      <trkpt lat="45.28647" lon="5.77124">
        <ele>1356.8</ele>
        <time>2020-01-31T14:52:54Z</time>
      </trkpt>
      <trkpt lat="45.28647" lon="5.77125">
        <ele>1357</ele>
        <time>2020-01-31T14:52:55Z</time>
      </trkpt>
      <trkpt lat="45.28647" lon="5.77127">
        <ele>1357.2</ele>
        <time>2020-01-31T14:52:56Z</time>
      </trkpt>
      <trkpt lat="45.28648" lon="5.77128">
        <ele>1357.4</ele>
        <time>2020-01-31T14:52:57Z</time>
      </trkpt>
      <trkpt lat="45.28648" lon="5.77129">
        <ele>1357.6</ele>
        <time>2020-01-31T14:52:58Z</time>
      </trkpt>
      <trkpt lat="45.28648" lon="5.77131">
        <ele>1358</ele>
        <time>2020-01-31T14:52:59Z</time>
      </trkpt>
      <trkpt lat="45.28649" lon="5.77132">
        <ele>1358.2</ele>
        <time>2020-01-31T14:53:00Z</time>
      </trkpt>
      <trkpt lat="45.28649" lon="5.77133">
        <ele>1358.8</ele>
        <time>2020-01-31T14:53:01Z</time>
      </trkpt>
      <trkpt lat="45.28649" lon="5.77135">
        <ele>1358.6</ele>
        <time>2020-01-31T14:53:02Z</time>
      </trkpt>
      <trkpt lat="45.2865" lon="5.77136">
        <ele>1359</ele>
        <time>2020-01-31T14:53:03Z</time>
      </trkpt>
      <trkpt lat="45.2865" lon="5.77137">
        <ele>1359.2</ele>
        <time>2020-01-31T14:53:04Z</time>
      </trkpt>
      <trkpt lat="45.2865" lon="5.77139">
        <ele>1359.6</ele>
        <time>2020-01-31T14:53:05Z</time>
      </trkpt>
      <trkpt lat="45.2865" lon="5.7714">
        <ele>1359.6</ele>
        <time>2020-01-31T14:53:06Z</time>
      </trkpt>
      <trkpt lat="45.28651" lon="5.77141">
        <ele>1359.8</ele>
        <time>2020-01-31T14:53:07Z</time>
      </trkpt>
      <trkpt lat="45.28651" lon="5.77143">
        <ele>1360.6</ele>
        <time>2020-01-31T14:53:08Z</time>
      </trkpt>
      <trkpt lat="45.28652" lon="5.77144">
        <ele>1360.2</ele>
        <time>2020-01-31T14:53:09Z</time>
      </trkpt>
      <trkpt lat="45.28652" lon="5.77146">
        <ele>1360.2</ele>
        <time>2020-01-31T14:53:10Z</time>
      </trkpt>
      <trkpt lat="45.28652" lon="5.77147">
        <ele>1360.6</ele>
        <time>2020-01-31T14:53:11Z</time>
      </trkpt>
      <trkpt lat="45.28653" lon="5.77148">
        <ele>1360.8</ele>
        <time>2020-01-31T14:53:12Z</time>
      </trkpt>
      <trkpt lat="45.28653" lon="5.7715">
        <ele>1361</ele>
        <time>2020-01-31T14:53:13Z</time>
      </trkpt>
      <trkpt lat="45.28654" lon="5.77151">
        <ele>1361.2</ele>
        <time>2020-01-31T14:53:14Z</time>
      </trkpt>
      <trkpt lat="45.28654" lon="5.77153">
        <ele>1361.6</ele>
        <time>2020-01-31T14:53:15Z</time>
      </trkpt>
      <trkpt lat="45.28654" lon="5.77154">
        <ele>1361.6</ele>
        <time>2020-01-31T14:53:16Z</time>
      </trkpt>
      <trkpt lat="45.28654" lon="5.77156">
        <ele>1362</ele>
        <time>2020-01-31T14:53:17Z</time>
      </trkpt>
      <trkpt lat="45.28654" lon="5.77157">
        <ele>1362.2</ele>
        <time>2020-01-31T14:53:18Z</time>
      </trkpt>
      <trkpt lat="45.28655" lon="5.77159">
        <ele>1362.4</ele>
        <time>2020-01-31T14:53:19Z</time>
      </trkpt>
      <trkpt lat="45.28655" lon="5.7716">
        <ele>1362.2</ele>
        <time>2020-01-31T14:53:20Z</time>
      </trkpt>
      <trkpt lat="45.28655" lon="5.77161">
        <ele>1362.8</ele>
        <time>2020-01-31T14:53:21Z</time>
      </trkpt>
      <trkpt lat="45.28655" lon="5.77163">
        <ele>1363.4</ele>
        <time>2020-01-31T14:53:22Z</time>
      </trkpt>
      <trkpt lat="45.28655" lon="5.77164">
        <ele>1363.4</ele>
        <time>2020-01-31T14:53:23Z</time>
      </trkpt>
      <trkpt lat="45.28655" lon="5.77166">
        <ele>1363.8</ele>
        <time>2020-01-31T14:53:24Z</time>
      </trkpt>
      <trkpt lat="45.28655" lon="5.77167">
        <ele>1363.8</ele>
        <time>2020-01-31T14:53:25Z</time>
      </trkpt>
      <trkpt lat="45.28656" lon="5.77169">
        <ele>1363.8</ele>
        <time>2020-01-31T14:53:26Z</time>
      </trkpt>
      <trkpt lat="45.28656" lon="5.7717">
        <ele>1363.8</ele>
        <time>2020-01-31T14:53:27Z</time>
      </trkpt>
      <trkpt lat="45.28656" lon="5.77172">
        <ele>1364</ele>
        <time>2020-01-31T14:53:28Z</time>
      </trkpt>
      <trkpt lat="45.28656" lon="5.77173">
        <ele>1364.4</ele>
        <time>2020-01-31T14:53:29Z</time>
      </trkpt>
      <trkpt lat="45.28656" lon="5.77175">
        <ele>1364.4</ele>
        <time>2020-01-31T14:53:30Z</time>
      </trkpt>
      <trkpt lat="45.28657" lon="5.77176">
        <ele>1364.4</ele>
        <time>2020-01-31T14:53:31Z</time>
      </trkpt>
      <trkpt lat="45.28657" lon="5.77178">
        <ele>1364.6</ele>
        <time>2020-01-31T14:53:32Z</time>
      </trkpt>
      <trkpt lat="45.28657" lon="5.77179">
        <ele>1365</ele>
        <time>2020-01-31T14:53:33Z</time>
      </trkpt>
      <trkpt lat="45.28657" lon="5.77181">
        <ele>1365</ele>
        <time>2020-01-31T14:53:34Z</time>
      </trkpt>
      <trkpt lat="45.28658" lon="5.77182">
        <ele>1365.2</ele>
        <time>2020-01-31T14:53:35Z</time>
      </trkpt>
      <trkpt lat="45.28658" lon="5.77183">
        <ele>1365.8</ele>
        <time>2020-01-31T14:53:36Z</time>
      </trkpt>
      <trkpt lat="45.28658" lon="5.77185">
        <ele>1366</ele>
        <time>2020-01-31T14:53:37Z</time>
      </trkpt>
      <trkpt lat="45.28658" lon="5.77186">
        <ele>1366</ele>
        <time>2020-01-31T14:53:38Z</time>
      </trkpt>
      <trkpt lat="45.28659" lon="5.77187">
        <ele>1366.2</ele>
        <time>2020-01-31T14:53:39Z</time>
      </trkpt>
      <trkpt lat="45.28659" lon="5.77189">
        <ele>1366.4</ele>
        <time>2020-01-31T14:53:40Z</time>
      </trkpt>
      <trkpt lat="45.28659" lon="5.7719">
        <ele>1366.6</ele>
        <time>2020-01-31T14:53:41Z</time>
      </trkpt>
      <trkpt lat="45.28659" lon="5.77191">
        <ele>1366.8</ele>
        <time>2020-01-31T14:53:42Z</time>
      </trkpt>
      <trkpt lat="45.2866" lon="5.77193">
        <ele>1367</ele>
        <time>2020-01-31T14:53:43Z</time>
      </trkpt>
      <trkpt lat="45.2866" lon="5.77194">
        <ele>1367.4</ele>
        <time>2020-01-31T14:53:44Z</time>
      </trkpt>
      <trkpt lat="45.2866" lon="5.77195">
        <ele>1367.8</ele>
        <time>2020-01-31T14:53:45Z</time>
      </trkpt>
      <trkpt lat="45.2866" lon="5.77196">
        <ele>1368</ele>
        <time>2020-01-31T14:53:46Z</time>
      </trkpt>
      <trkpt lat="45.28661" lon="5.77197">
        <ele>1368.4</ele>
        <time>2020-01-31T14:53:47Z</time>
      </trkpt>
      <trkpt lat="45.28661" lon="5.77198">
        <ele>1368.6</ele>
        <time>2020-01-31T14:53:48Z</time>
      </trkpt>
      <trkpt lat="45.28661" lon="5.77199">
        <ele>1368.8</ele>
        <time>2020-01-31T14:53:49Z</time>
      </trkpt>
      <trkpt lat="45.28661" lon="5.77199">
        <ele>1369</ele>
        <time>2020-01-31T14:53:50Z</time>
      </trkpt>
      <trkpt lat="45.28661" lon="5.77199">
        <ele>1369</ele>
        <time>2020-01-31T14:53:51Z</time>
      </trkpt>
      <trkpt lat="45.28662" lon="5.77202">
        <ele>1369.2</ele>
        <time>2020-01-31T14:53:52Z</time>
      </trkpt>
      <trkpt lat="45.28662" lon="5.77204">
        <ele>1369.8</ele>
        <time>2020-01-31T14:53:53Z</time>
      </trkpt>
      <trkpt lat="45.28663" lon="5.77205">
        <ele>1370</ele>
        <time>2020-01-31T14:53:54Z</time>
      </trkpt>
      <trkpt lat="45.28663" lon="5.77207">
        <ele>1370.4</ele>
        <time>2020-01-31T14:53:55Z</time>
      </trkpt>
      <trkpt lat="45.28663" lon="5.77208">
        <ele>1370.8</ele>
        <time>2020-01-31T14:53:56Z</time>
      </trkpt>
      <trkpt lat="45.28663" lon="5.7721">
        <ele>1371</ele>
        <time>2020-01-31T14:53:57Z</time>
      </trkpt>
      <trkpt lat="45.28664" lon="5.77211">
        <ele>1371</ele>
        <time>2020-01-31T14:53:58Z</time>
      </trkpt>
      <trkpt lat="45.28664" lon="5.77212">
        <ele>1371.4</ele>
        <time>2020-01-31T14:53:59Z</time>
      </trkpt>
      <trkpt lat="45.28664" lon="5.77214">
        <ele>1372.2</ele>
        <time>2020-01-31T14:54:00Z</time>
      </trkpt>
      <trkpt lat="45.28665" lon="5.77215">
        <ele>1372.6</ele>
        <time>2020-01-31T14:54:01Z</time>
      </trkpt>
      <trkpt lat="45.28665" lon="5.77216">
        <ele>1373.2</ele>
        <time>2020-01-31T14:54:02Z</time>
      </trkpt>
      <trkpt lat="45.28665" lon="5.77218">
        <ele>1373.6</ele>
        <time>2020-01-31T14:54:03Z</time>
      </trkpt>
      <trkpt lat="45.28666" lon="5.77219">
        <ele>1373.8</ele>
        <time>2020-01-31T14:54:04Z</time>
      </trkpt>
      <trkpt lat="45.28666" lon="5.7722">
        <ele>1373.8</ele>
        <time>2020-01-31T14:54:05Z</time>
      </trkpt>
      <trkpt lat="45.28666" lon="5.77222">
        <ele>1374.2</ele>
        <time>2020-01-31T14:54:06Z</time>
      </trkpt>
      <trkpt lat="45.28666" lon="5.77222">
        <ele>1374.8</ele>
        <time>2020-01-31T14:54:07Z</time>
      </trkpt>
      <trkpt lat="45.28666" lon="5.77222">
        <ele>1375.2</ele>
        <time>2020-01-31T14:54:08Z</time>
      </trkpt>
      <trkpt lat="45.28667" lon="5.77226">
        <ele>1375.4</ele>
        <time>2020-01-31T14:54:09Z</time>
      </trkpt>
      <trkpt lat="45.28667" lon="5.77226">
        <ele>1375.6</ele>
        <time>2020-01-31T14:54:10Z</time>
      </trkpt>
      <trkpt lat="45.28667" lon="5.77226">
        <ele>1376.2</ele>
        <time>2020-01-31T14:54:11Z</time>
      </trkpt>
      <trkpt lat="45.28668" lon="5.77229">
        <ele>1376</ele>
        <time>2020-01-31T14:54:12Z</time>
      </trkpt>
      <trkpt lat="45.28668" lon="5.77229">
        <ele>1376.2</ele>
        <time>2020-01-31T14:54:13Z</time>
      </trkpt>
      <trkpt lat="45.28668" lon="5.77229">
        <ele>1376.4</ele>
        <time>2020-01-31T14:54:14Z</time>
      </trkpt>
      <trkpt lat="45.28669" lon="5.77232">
        <ele>1376.4</ele>
        <time>2020-01-31T14:54:15Z</time>
      </trkpt>
      <trkpt lat="45.28669" lon="5.77232">
        <ele>1376.6</ele>
        <time>2020-01-31T14:54:16Z</time>
      </trkpt>
      <trkpt lat="45.28669" lon="5.77235">
        <ele>1377</ele>
        <time>2020-01-31T14:54:17Z</time>
      </trkpt>
      <trkpt lat="45.28669" lon="5.77235">
        <ele>1377.2</ele>
        <time>2020-01-31T14:54:18Z</time>
      </trkpt>
      <trkpt lat="45.28669" lon="5.77235">
        <ele>1377.4</ele>
        <time>2020-01-31T14:54:19Z</time>
      </trkpt>
      <trkpt lat="45.28668" lon="5.77239">
        <ele>1377.6</ele>
        <time>2020-01-31T14:54:20Z</time>
      </trkpt>
      <trkpt lat="45.28668" lon="5.77239">
        <ele>1377.6</ele>
        <time>2020-01-31T14:54:21Z</time>
      </trkpt>
      <trkpt lat="45.28668" lon="5.77239">
        <ele>1377.8</ele>
        <time>2020-01-31T14:54:22Z</time>
      </trkpt>
      <trkpt lat="45.28669" lon="5.77243">
        <ele>1378</ele>
        <time>2020-01-31T14:54:23Z</time>
      </trkpt>
      <trkpt lat="45.28669" lon="5.77243">
        <ele>1378.2</ele>
        <time>2020-01-31T14:54:24Z</time>
      </trkpt>
      <trkpt lat="45.28669" lon="5.77243">
        <ele>1378.6</ele>
        <time>2020-01-31T14:54:25Z</time>
      </trkpt>
      <trkpt lat="45.28669" lon="5.77246">
        <ele>1378.8</ele>
        <time>2020-01-31T14:54:26Z</time>
      </trkpt>
      <trkpt lat="45.28669" lon="5.77246">
        <ele>1379.2</ele>
        <time>2020-01-31T14:54:27Z</time>
      </trkpt>
      <trkpt lat="45.28669" lon="5.77246">
        <ele>1379.2</ele>
        <time>2020-01-31T14:54:28Z</time>
      </trkpt>
      <trkpt lat="45.28669" lon="5.77251">
        <ele>1379.6</ele>
        <time>2020-01-31T14:54:29Z</time>
      </trkpt>
      <trkpt lat="45.28669" lon="5.77251">
        <ele>1380.2</ele>
        <time>2020-01-31T14:54:30Z</time>
      </trkpt>
      <trkpt lat="45.28669" lon="5.77251">
        <ele>1380.2</ele>
        <time>2020-01-31T14:54:31Z</time>
      </trkpt>
      <trkpt lat="45.28669" lon="5.77254">
        <ele>1380.4</ele>
        <time>2020-01-31T14:54:32Z</time>
      </trkpt>
      <trkpt lat="45.28669" lon="5.77254">
        <ele>1380.8</ele>
        <time>2020-01-31T14:54:33Z</time>
      </trkpt>
      <trkpt lat="45.28669" lon="5.77254">
        <ele>1380.8</ele>
        <time>2020-01-31T14:54:34Z</time>
      </trkpt>
      <trkpt lat="45.28669" lon="5.77254">
        <ele>1381</ele>
        <time>2020-01-31T14:54:35Z</time>
      </trkpt>
      <trkpt lat="45.2867" lon="5.77258">
        <ele>1381.6</ele>
        <time>2020-01-31T14:54:36Z</time>
      </trkpt>
      <trkpt lat="45.2867" lon="5.77258">
        <ele>1381.8</ele>
        <time>2020-01-31T14:54:37Z</time>
      </trkpt>
      <trkpt lat="45.2867" lon="5.77258">
        <ele>1382</ele>
        <time>2020-01-31T14:54:38Z</time>
      </trkpt>
      <trkpt lat="45.2867" lon="5.77262">
        <ele>1382.4</ele>
        <time>2020-01-31T14:54:39Z</time>
      </trkpt>
      <trkpt lat="45.2867" lon="5.77262">
        <ele>1382.6</ele>
        <time>2020-01-31T14:54:40Z</time>
      </trkpt>
      <trkpt lat="45.2867" lon="5.77264">
        <ele>1383</ele>
        <time>2020-01-31T14:54:41Z</time>
      </trkpt>
      <trkpt lat="45.2867" lon="5.77264">
        <ele>1383</ele>
        <time>2020-01-31T14:54:42Z</time>
      </trkpt>
      <trkpt lat="45.2867" lon="5.77264">
        <ele>1383.4</ele>
        <time>2020-01-31T14:54:43Z</time>
      </trkpt>
      <trkpt lat="45.28671" lon="5.77268">
        <ele>1383.6</ele>
        <time>2020-01-31T14:54:44Z</time>
      </trkpt>
      <trkpt lat="45.28671" lon="5.77268">
        <ele>1383.6</ele>
        <time>2020-01-31T14:54:45Z</time>
      </trkpt>
      <trkpt lat="45.28671" lon="5.77268">
        <ele>1384</ele>
        <time>2020-01-31T14:54:46Z</time>
      </trkpt>
      <trkpt lat="45.28672" lon="5.77271">
        <ele>1384.2</ele>
        <time>2020-01-31T14:54:47Z</time>
      </trkpt>
      <trkpt lat="45.28672" lon="5.77271">
        <ele>1384.6</ele>
        <time>2020-01-31T14:54:48Z</time>
      </trkpt>
      <trkpt lat="45.28672" lon="5.77271">
        <ele>1384.8</ele>
        <time>2020-01-31T14:54:49Z</time>
      </trkpt>
      <trkpt lat="45.28671" lon="5.77274">
        <ele>1384.8</ele>
        <time>2020-01-31T14:54:50Z</time>
      </trkpt>
      <trkpt lat="45.28671" lon="5.77274">
        <ele>1385.4</ele>
        <time>2020-01-31T14:54:51Z</time>
      </trkpt>
      <trkpt lat="45.28671" lon="5.77274">
        <ele>1385.4</ele>
        <time>2020-01-31T14:54:52Z</time>
      </trkpt>
      <trkpt lat="45.28671" lon="5.77278">
        <ele>1385.8</ele>
        <time>2020-01-31T14:54:53Z</time>
      </trkpt>
      <trkpt lat="45.28671" lon="5.77278">
        <ele>1386</ele>
        <time>2020-01-31T14:54:54Z</time>
      </trkpt>
      <trkpt lat="45.28671" lon="5.77278">
        <ele>1386.4</ele>
        <time>2020-01-31T14:54:55Z</time>
      </trkpt>
      <trkpt lat="45.28672" lon="5.77281">
        <ele>1386.6</ele>
        <time>2020-01-31T14:54:56Z</time>
      </trkpt>
      <trkpt lat="45.28672" lon="5.77281">
        <ele>1387</ele>
        <time>2020-01-31T14:54:57Z</time>
      </trkpt>
      <trkpt lat="45.28672" lon="5.77281">
        <ele>1387</ele>
        <time>2020-01-31T14:54:58Z</time>
      </trkpt>
      <trkpt lat="45.28671" lon="5.77285">
        <ele>1387.2</ele>
        <time>2020-01-31T14:54:59Z</time>
      </trkpt>
      <trkpt lat="45.28671" lon="5.77285">
        <ele>1387.4</ele>
        <time>2020-01-31T14:55:00Z</time>
      </trkpt>
      <trkpt lat="45.28671" lon="5.77285">
        <ele>1388</ele>
        <time>2020-01-31T14:55:01Z</time>
      </trkpt>
      <trkpt lat="45.28671" lon="5.77288">
        <ele>1388</ele>
        <time>2020-01-31T14:55:02Z</time>
      </trkpt>
      <trkpt lat="45.28671" lon="5.77288">
        <ele>1388.2</ele>
        <time>2020-01-31T14:55:03Z</time>
      </trkpt>
      <trkpt lat="45.28671" lon="5.77288">
        <ele>1388.4</ele>
        <time>2020-01-31T14:55:04Z</time>
      </trkpt>
      <trkpt lat="45.2867" lon="5.77291">
        <ele>1388.2</ele>
        <time>2020-01-31T14:55:05Z</time>
      </trkpt>
      <trkpt lat="45.2867" lon="5.77291">
        <ele>1388.6</ele>
        <time>2020-01-31T14:55:06Z</time>
      </trkpt>
      <trkpt lat="45.28669" lon="5.77294">
        <ele>1388.8</ele>
        <time>2020-01-31T14:55:07Z</time>
      </trkpt>
      <trkpt lat="45.28669" lon="5.77294">
        <ele>1389.2</ele>
        <time>2020-01-31T14:55:08Z</time>
      </trkpt>
      <trkpt lat="45.28669" lon="5.77294">
        <ele>1389.6</ele>
        <time>2020-01-31T14:55:09Z</time>
      </trkpt>
      <trkpt lat="45.28668" lon="5.77298">
        <ele>1389.8</ele>
        <time>2020-01-31T14:55:10Z</time>
      </trkpt>
      <trkpt lat="45.28668" lon="5.77298">
        <ele>1390</ele>
        <time>2020-01-31T14:55:11Z</time>
      </trkpt>
      <trkpt lat="45.28668" lon="5.77298">
        <ele>1390.4</ele>
        <time>2020-01-31T14:55:12Z</time>
      </trkpt>
      <trkpt lat="45.28668" lon="5.77298">
        <ele>1390.4</ele>
        <time>2020-01-31T14:55:13Z</time>
      </trkpt>
      <trkpt lat="45.28668" lon="5.77298">
        <ele>1391</ele>
        <time>2020-01-31T14:55:14Z</time>
      </trkpt>
      <trkpt lat="45.28669" lon="5.773">
        <ele>1391.2</ele>
        <time>2020-01-31T14:55:15Z</time>
      </trkpt>
      <trkpt lat="45.28669" lon="5.773">
        <ele>1391.8</ele>
        <time>2020-01-31T14:55:16Z</time>
      </trkpt>
      <trkpt lat="45.28669" lon="5.773">
        <ele>1392</ele>
        <time>2020-01-31T14:55:17Z</time>
      </trkpt>
      <trkpt lat="45.28669" lon="5.773">
        <ele>1391.8</ele>
        <time>2020-01-31T14:55:18Z</time>
      </trkpt>
      <trkpt lat="45.28668" lon="5.77302">
        <ele>1392.4</ele>
        <time>2020-01-31T14:55:19Z</time>
      </trkpt>
      <trkpt lat="45.28668" lon="5.77302">
        <ele>1392.6</ele>
        <time>2020-01-31T14:55:20Z</time>
      </trkpt>
      <trkpt lat="45.28668" lon="5.77302">
        <ele>1392.6</ele>
        <time>2020-01-31T14:55:21Z</time>
      </trkpt>
      <trkpt lat="45.28668" lon="5.77302">
        <ele>1392.8</ele>
        <time>2020-01-31T14:55:22Z</time>
      </trkpt>
      <trkpt lat="45.28666" lon="5.77304">
        <ele>1393.2</ele>
        <time>2020-01-31T14:55:23Z</time>
      </trkpt>
      <trkpt lat="45.28666" lon="5.77304">
        <ele>1393</ele>
        <time>2020-01-31T14:55:24Z</time>
      </trkpt>
      <trkpt lat="45.28666" lon="5.77304">
        <ele>1393.6</ele>
        <time>2020-01-31T14:55:25Z</time>
      </trkpt>
      <trkpt lat="45.28665" lon="5.77306">
        <ele>1394</ele>
        <time>2020-01-31T14:55:26Z</time>
      </trkpt>
      <trkpt lat="45.28665" lon="5.77306">
        <ele>1393.8</ele>
        <time>2020-01-31T14:55:27Z</time>
      </trkpt>
      <trkpt lat="45.28665" lon="5.77306">
        <ele>1394.2</ele>
        <time>2020-01-31T14:55:28Z</time>
      </trkpt>
      <trkpt lat="45.28665" lon="5.7731">
        <ele>1394.4</ele>
        <time>2020-01-31T14:55:29Z</time>
      </trkpt>
      <trkpt lat="45.28665" lon="5.7731">
        <ele>1394.2</ele>
        <time>2020-01-31T14:55:30Z</time>
      </trkpt>
      <trkpt lat="45.28665" lon="5.77312">
        <ele>1394.4</ele>
        <time>2020-01-31T14:55:31Z</time>
      </trkpt>
      <trkpt lat="45.28665" lon="5.77312">
        <ele>1394.6</ele>
        <time>2020-01-31T14:55:32Z</time>
      </trkpt>
      <trkpt lat="45.28665" lon="5.77312">
        <ele>1394.8</ele>
        <time>2020-01-31T14:55:33Z</time>
      </trkpt>
      <trkpt lat="45.28665" lon="5.77316">
        <ele>1395</ele>
        <time>2020-01-31T14:55:34Z</time>
      </trkpt>
      <trkpt lat="45.28665" lon="5.77316">
        <ele>1395.8</ele>
        <time>2020-01-31T14:55:35Z</time>
      </trkpt>
      <trkpt lat="45.28665" lon="5.77316">
        <ele>1395.8</ele>
        <time>2020-01-31T14:55:36Z</time>
      </trkpt>
      <trkpt lat="45.28665" lon="5.7732">
        <ele>1396.4</ele>
        <time>2020-01-31T14:55:37Z</time>
      </trkpt>
      <trkpt lat="45.28665" lon="5.7732">
        <ele>1396.8</ele>
        <time>2020-01-31T14:55:38Z</time>
      </trkpt>
      <trkpt lat="45.28665" lon="5.77323">
        <ele>1397</ele>
        <time>2020-01-31T14:55:39Z</time>
      </trkpt>
      <trkpt lat="45.28665" lon="5.77323">
        <ele>1397</ele>
        <time>2020-01-31T14:55:40Z</time>
      </trkpt>
      <trkpt lat="45.28665" lon="5.77323">
        <ele>1397</ele>
        <time>2020-01-31T14:55:41Z</time>
      </trkpt>
      <trkpt lat="45.28665" lon="5.77327">
        <ele>1397.2</ele>
        <time>2020-01-31T14:55:42Z</time>
      </trkpt>
      <trkpt lat="45.28665" lon="5.77327">
        <ele>1397.6</ele>
        <time>2020-01-31T14:55:43Z</time>
      </trkpt>
      <trkpt lat="45.28664" lon="5.7733">
        <ele>1397.8</ele>
        <time>2020-01-31T14:55:44Z</time>
      </trkpt>
      <trkpt lat="45.28664" lon="5.7733">
        <ele>1398</ele>
        <time>2020-01-31T14:55:45Z</time>
      </trkpt>
      <trkpt lat="45.28663" lon="5.77332">
        <ele>1398.2</ele>
        <time>2020-01-31T14:55:46Z</time>
      </trkpt>
      <trkpt lat="45.28663" lon="5.77332">
        <ele>1398.6</ele>
        <time>2020-01-31T14:55:47Z</time>
      </trkpt>
      <trkpt lat="45.28662" lon="5.77335">
        <ele>1398.8</ele>
        <time>2020-01-31T14:55:48Z</time>
      </trkpt>
      <trkpt lat="45.28662" lon="5.77335">
        <ele>1399.4</ele>
        <time>2020-01-31T14:55:49Z</time>
      </trkpt>
      <trkpt lat="45.28662" lon="5.77335">
        <ele>1399.8</ele>
        <time>2020-01-31T14:55:50Z</time>
      </trkpt>
      <trkpt lat="45.2866" lon="5.77337">
        <ele>1400</ele>
        <time>2020-01-31T14:55:51Z</time>
      </trkpt>
      <trkpt lat="45.2866" lon="5.77337">
        <ele>1400</ele>
        <time>2020-01-31T14:55:52Z</time>
      </trkpt>
      <trkpt lat="45.2866" lon="5.77337">
        <ele>1400.4</ele>
        <time>2020-01-31T14:55:53Z</time>
      </trkpt>
      <trkpt lat="45.28658" lon="5.77339">
        <ele>1400.4</ele>
        <time>2020-01-31T14:55:54Z</time>
      </trkpt>
      <trkpt lat="45.28658" lon="5.77339">
        <ele>1400.4</ele>
        <time>2020-01-31T14:55:55Z</time>
      </trkpt>
      <trkpt lat="45.28658" lon="5.77339">
        <ele>1400.8</ele>
        <time>2020-01-31T14:55:56Z</time>
      </trkpt>
      <trkpt lat="45.28656" lon="5.77341">
        <ele>1401</ele>
        <time>2020-01-31T14:55:57Z</time>
      </trkpt>
      <trkpt lat="45.28656" lon="5.77341">
        <ele>1401</ele>
        <time>2020-01-31T14:55:58Z</time>
      </trkpt>
      <trkpt lat="45.28656" lon="5.77341">
        <ele>1401.4</ele>
        <time>2020-01-31T14:55:59Z</time>
      </trkpt>
      <trkpt lat="45.28656" lon="5.77341">
        <ele>1401.6</ele>
        <time>2020-01-31T14:56:00Z</time>
      </trkpt>
      <trkpt lat="45.28655" lon="5.77343">
        <ele>1401.6</ele>
        <time>2020-01-31T14:56:01Z</time>
      </trkpt>
      <trkpt lat="45.28655" lon="5.77343">
        <ele>1402.2</ele>
        <time>2020-01-31T14:56:02Z</time>
      </trkpt>
      <trkpt lat="45.28653" lon="5.77345">
        <ele>1402.2</ele>
        <time>2020-01-31T14:56:03Z</time>
      </trkpt>
      <trkpt lat="45.28653" lon="5.77345">
        <ele>1402</ele>
        <time>2020-01-31T14:56:04Z</time>
      </trkpt>
      <trkpt lat="45.28651" lon="5.77346">
        <ele>1402.4</ele>
        <time>2020-01-31T14:56:05Z</time>
      </trkpt>
      <trkpt lat="45.28651" lon="5.77346">
        <ele>1402.6</ele>
        <time>2020-01-31T14:56:06Z</time>
      </trkpt>
      <trkpt lat="45.28651" lon="5.77346">
        <ele>1402.6</ele>
        <time>2020-01-31T14:56:07Z</time>
      </trkpt>
      <trkpt lat="45.28649" lon="5.77348">
        <ele>1403.4</ele>
        <time>2020-01-31T14:56:08Z</time>
      </trkpt>
      <trkpt lat="45.28649" lon="5.77348">
        <ele>1403.6</ele>
        <time>2020-01-31T14:56:09Z</time>
      </trkpt>
      <trkpt lat="45.28649" lon="5.77348">
        <ele>1403.6</ele>
        <time>2020-01-31T14:56:10Z</time>
      </trkpt>
      <trkpt lat="45.28649" lon="5.77348">
        <ele>1404.2</ele>
        <time>2020-01-31T14:56:11Z</time>
      </trkpt>
      <trkpt lat="45.28649" lon="5.77348">
        <ele>1404.4</ele>
        <time>2020-01-31T14:56:12Z</time>
      </trkpt>
      <trkpt lat="45.28649" lon="5.77348">
        <ele>1404.4</ele>
        <time>2020-01-31T14:56:13Z</time>
      </trkpt>
      <trkpt lat="45.28648" lon="5.7735">
        <ele>1404.8</ele>
        <time>2020-01-31T14:56:14Z</time>
      </trkpt>
      <trkpt lat="45.28648" lon="5.7735">
        <ele>1405</ele>
        <time>2020-01-31T14:56:15Z</time>
      </trkpt>
      <trkpt lat="45.28647" lon="5.77352">
        <ele>1405</ele>
        <time>2020-01-31T14:56:16Z</time>
      </trkpt>
      <trkpt lat="45.28647" lon="5.77352">
        <ele>1405.6</ele>
        <time>2020-01-31T14:56:17Z</time>
      </trkpt>
      <trkpt lat="45.28647" lon="5.77352">
        <ele>1405.8</ele>
        <time>2020-01-31T14:56:18Z</time>
      </trkpt>
      <trkpt lat="45.28647" lon="5.77352">
        <ele>1405.8</ele>
        <time>2020-01-31T14:56:19Z</time>
      </trkpt>
      <trkpt lat="45.28645" lon="5.77353">
        <ele>1406</ele>
        <time>2020-01-31T14:56:20Z</time>
      </trkpt>
      <trkpt lat="45.28645" lon="5.77353">
        <ele>1406.2</ele>
        <time>2020-01-31T14:56:21Z</time>
      </trkpt>
      <trkpt lat="45.28645" lon="5.77353">
        <ele>1406.2</ele>
        <time>2020-01-31T14:56:22Z</time>
      </trkpt>
      <trkpt lat="45.28643" lon="5.77355">
        <ele>1406.8</ele>
        <time>2020-01-31T14:56:23Z</time>
      </trkpt>
      <trkpt lat="45.28643" lon="5.77355">
        <ele>1406.8</ele>
        <time>2020-01-31T14:56:24Z</time>
      </trkpt>
      <trkpt lat="45.28643" lon="5.77355">
        <ele>1407</ele>
        <time>2020-01-31T14:56:25Z</time>
      </trkpt>
      <trkpt lat="45.28643" lon="5.77355">
        <ele>1407</ele>
        <time>2020-01-31T14:56:26Z</time>
      </trkpt>
      <trkpt lat="45.28643" lon="5.77359">
        <ele>1407.2</ele>
        <time>2020-01-31T14:56:27Z</time>
      </trkpt>
      <trkpt lat="45.28643" lon="5.77359">
        <ele>1407.8</ele>
        <time>2020-01-31T14:56:28Z</time>
      </trkpt>
      <trkpt lat="45.28643" lon="5.77359">
        <ele>1408</ele>
        <time>2020-01-31T14:56:29Z</time>
      </trkpt>
      <trkpt lat="45.28643" lon="5.77362">
        <ele>1408.2</ele>
        <time>2020-01-31T14:56:30Z</time>
      </trkpt>
      <trkpt lat="45.28643" lon="5.77362">
        <ele>1408.4</ele>
        <time>2020-01-31T14:56:31Z</time>
      </trkpt>
      <trkpt lat="45.28643" lon="5.77365">
        <ele>1408.4</ele>
        <time>2020-01-31T14:56:32Z</time>
      </trkpt>
      <trkpt lat="45.28643" lon="5.77365">
        <ele>1408.6</ele>
        <time>2020-01-31T14:56:33Z</time>
      </trkpt>
      <trkpt lat="45.28643" lon="5.77368">
        <ele>1409.2</ele>
        <time>2020-01-31T14:56:34Z</time>
      </trkpt>
      <trkpt lat="45.28643" lon="5.77368">
        <ele>1409</ele>
        <time>2020-01-31T14:56:35Z</time>
      </trkpt>
      <trkpt lat="45.28643" lon="5.77368">
        <ele>1409.2</ele>
        <time>2020-01-31T14:56:36Z</time>
      </trkpt>
      <trkpt lat="45.28643" lon="5.77371">
        <ele>1409.8</ele>
        <time>2020-01-31T14:56:37Z</time>
      </trkpt>
      <trkpt lat="45.28643" lon="5.77371">
        <ele>1410</ele>
        <time>2020-01-31T14:56:38Z</time>
      </trkpt>
      <trkpt lat="45.28643" lon="5.77371">
        <ele>1410.2</ele>
        <time>2020-01-31T14:56:39Z</time>
      </trkpt>
      <trkpt lat="45.28644" lon="5.77374">
        <ele>1410.2</ele>
        <time>2020-01-31T14:56:40Z</time>
      </trkpt>
      <trkpt lat="45.28644" lon="5.77374">
        <ele>1410.4</ele>
        <time>2020-01-31T14:56:41Z</time>
      </trkpt>
      <trkpt lat="45.28645" lon="5.77376">
        <ele>1411.2</ele>
        <time>2020-01-31T14:56:42Z</time>
      </trkpt>
      <trkpt lat="45.28645" lon="5.77376">
        <ele>1411</ele>
        <time>2020-01-31T14:56:43Z</time>
      </trkpt>
      <trkpt lat="45.28645" lon="5.77376">
        <ele>1411.2</ele>
        <time>2020-01-31T14:56:44Z</time>
      </trkpt>
      <trkpt lat="45.28645" lon="5.77379">
        <ele>1411.6</ele>
        <time>2020-01-31T14:56:45Z</time>
      </trkpt>
      <trkpt lat="45.28645" lon="5.77379">
        <ele>1411.8</ele>
        <time>2020-01-31T14:56:46Z</time>
      </trkpt>
      <trkpt lat="45.28646" lon="5.77382">
        <ele>1412</ele>
        <time>2020-01-31T14:56:47Z</time>
      </trkpt>
      <trkpt lat="45.28646" lon="5.77382">
        <ele>1412.2</ele>
        <time>2020-01-31T14:56:48Z</time>
      </trkpt>
      <trkpt lat="45.28646" lon="5.77382">
        <ele>1412.8</ele>
        <time>2020-01-31T14:56:49Z</time>
      </trkpt>
      <trkpt lat="45.28646" lon="5.77385">
        <ele>1413</ele>
        <time>2020-01-31T14:56:50Z</time>
      </trkpt>
      <trkpt lat="45.28646" lon="5.77385">
        <ele>1412.6</ele>
        <time>2020-01-31T14:56:51Z</time>
      </trkpt>
      <trkpt lat="45.28645" lon="5.77388">
        <ele>1412.6</ele>
        <time>2020-01-31T14:56:52Z</time>
      </trkpt>
      <trkpt lat="45.28645" lon="5.77388">
        <ele>1413</ele>
        <time>2020-01-31T14:56:53Z</time>
      </trkpt>
      <trkpt lat="45.28645" lon="5.77391">
        <ele>1413.2</ele>
        <time>2020-01-31T14:56:54Z</time>
      </trkpt>
      <trkpt lat="45.28645" lon="5.77391">
        <ele>1413.4</ele>
        <time>2020-01-31T14:56:55Z</time>
      </trkpt>
      <trkpt lat="45.28644" lon="5.77394">
        <ele>1413.6</ele>
        <time>2020-01-31T14:56:56Z</time>
      </trkpt>
      <trkpt lat="45.28644" lon="5.77394">
        <ele>1413.8</ele>
        <time>2020-01-31T14:56:57Z</time>
      </trkpt>
      <trkpt lat="45.28644" lon="5.77394">
        <ele>1414</ele>
        <time>2020-01-31T14:56:58Z</time>
      </trkpt>
      <trkpt lat="45.28643" lon="5.77398">
        <ele>1414</ele>
        <time>2020-01-31T14:56:59Z</time>
      </trkpt>
      <trkpt lat="45.28643" lon="5.77398">
        <ele>1414.8</ele>
        <time>2020-01-31T14:57:00Z</time>
      </trkpt>
      <trkpt lat="45.28643" lon="5.77398">
        <ele>1415</ele>
        <time>2020-01-31T14:57:01Z</time>
      </trkpt>
      <trkpt lat="45.28642" lon="5.774">
        <ele>1415</ele>
        <time>2020-01-31T14:57:02Z</time>
      </trkpt>
      <trkpt lat="45.28642" lon="5.774">
        <ele>1415.6</ele>
        <time>2020-01-31T14:57:03Z</time>
      </trkpt>
      <trkpt lat="45.28642" lon="5.774">
        <ele>1415.8</ele>
        <time>2020-01-31T14:57:04Z</time>
      </trkpt>
      <trkpt lat="45.28641" lon="5.77403">
        <ele>1416</ele>
        <time>2020-01-31T14:57:05Z</time>
      </trkpt>
      <trkpt lat="45.28641" lon="5.77403">
        <ele>1416.4</ele>
        <time>2020-01-31T14:57:06Z</time>
      </trkpt>
      <trkpt lat="45.28641" lon="5.77403">
        <ele>1416.6</ele>
        <time>2020-01-31T14:57:07Z</time>
      </trkpt>
      <trkpt lat="45.28641" lon="5.77403">
        <ele>1417</ele>
        <time>2020-01-31T14:57:08Z</time>
      </trkpt>
      <trkpt lat="45.28642" lon="5.77406">
        <ele>1417.2</ele>
        <time>2020-01-31T14:57:09Z</time>
      </trkpt>
      <trkpt lat="45.28642" lon="5.77406">
        <ele>1417.4</ele>
        <time>2020-01-31T14:57:10Z</time>
      </trkpt>
      <trkpt lat="45.28642" lon="5.77406">
        <ele>1417.4</ele>
        <time>2020-01-31T14:57:11Z</time>
      </trkpt>
      <trkpt lat="45.28641" lon="5.77409">
        <ele>1417.6</ele>
        <time>2020-01-31T14:57:12Z</time>
      </trkpt>
      <trkpt lat="45.28641" lon="5.77409">
        <ele>1418.2</ele>
        <time>2020-01-31T14:57:13Z</time>
      </trkpt>
      <trkpt lat="45.28641" lon="5.77409">
        <ele>1418.4</ele>
        <time>2020-01-31T14:57:14Z</time>
      </trkpt>
      <trkpt lat="45.28641" lon="5.77412">
        <ele>1418.6</ele>
        <time>2020-01-31T14:57:15Z</time>
      </trkpt>
      <trkpt lat="45.28641" lon="5.77412">
        <ele>1419</ele>
        <time>2020-01-31T14:57:16Z</time>
      </trkpt>
      <trkpt lat="45.28641" lon="5.77412">
        <ele>1419.4</ele>
        <time>2020-01-31T14:57:17Z</time>
      </trkpt>
      <trkpt lat="45.28641" lon="5.77415">
        <ele>1419.4</ele>
        <time>2020-01-31T14:57:18Z</time>
      </trkpt>
      <trkpt lat="45.28641" lon="5.77415">
        <ele>1419.8</ele>
        <time>2020-01-31T14:57:19Z</time>
      </trkpt>
      <trkpt lat="45.28641" lon="5.77415">
        <ele>1420</ele>
        <time>2020-01-31T14:57:20Z</time>
      </trkpt>
      <trkpt lat="45.28641" lon="5.77419">
        <ele>1420.6</ele>
        <time>2020-01-31T14:57:21Z</time>
      </trkpt>
      <trkpt lat="45.28641" lon="5.77419">
        <ele>1420.6</ele>
        <time>2020-01-31T14:57:22Z</time>
      </trkpt>
      <trkpt lat="45.28641" lon="5.77419">
        <ele>1420.8</ele>
        <time>2020-01-31T14:57:23Z</time>
      </trkpt>
      <trkpt lat="45.28641" lon="5.77422">
        <ele>1421.2</ele>
        <time>2020-01-31T14:57:24Z</time>
      </trkpt>
      <trkpt lat="45.28641" lon="5.77422">
        <ele>1421.4</ele>
        <time>2020-01-31T14:57:25Z</time>
      </trkpt>
      <trkpt lat="45.28641" lon="5.77422">
        <ele>1421.4</ele>
        <time>2020-01-31T14:57:26Z</time>
      </trkpt>
      <trkpt lat="45.2864" lon="5.77425">
        <ele>1421.8</ele>
        <time>2020-01-31T14:57:27Z</time>
      </trkpt>
      <trkpt lat="45.2864" lon="5.77425">
        <ele>1422</ele>
        <time>2020-01-31T14:57:28Z</time>
      </trkpt>
      <trkpt lat="45.2864" lon="5.77425">
        <ele>1422.2</ele>
        <time>2020-01-31T14:57:29Z</time>
      </trkpt>
      <trkpt lat="45.2864" lon="5.77428">
        <ele>1422.4</ele>
        <time>2020-01-31T14:57:30Z</time>
      </trkpt>
      <trkpt lat="45.2864" lon="5.77428">
        <ele>1422.6</ele>
        <time>2020-01-31T14:57:31Z</time>
      </trkpt>
      <trkpt lat="45.2864" lon="5.77428">
        <ele>1422.8</ele>
        <time>2020-01-31T14:57:32Z</time>
      </trkpt>
      <trkpt lat="45.28641" lon="5.77431">
        <ele>1423.2</ele>
        <time>2020-01-31T14:57:33Z</time>
      </trkpt>
      <trkpt lat="45.28641" lon="5.77431">
        <ele>1423.2</ele>
        <time>2020-01-31T14:57:34Z</time>
      </trkpt>
      <trkpt lat="45.28641" lon="5.77434">
        <ele>1423.8</ele>
        <time>2020-01-31T14:57:35Z</time>
      </trkpt>
      <trkpt lat="45.28641" lon="5.77434">
        <ele>1423.8</ele>
        <time>2020-01-31T14:57:36Z</time>
      </trkpt>
      <trkpt lat="45.28641" lon="5.77434">
        <ele>1423.8</ele>
        <time>2020-01-31T14:57:37Z</time>
      </trkpt>
      <trkpt lat="45.28641" lon="5.77438">
        <ele>1424</ele>
        <time>2020-01-31T14:57:38Z</time>
      </trkpt>
      <trkpt lat="45.28641" lon="5.77438">
        <ele>1424.2</ele>
        <time>2020-01-31T14:57:39Z</time>
      </trkpt>
      <trkpt lat="45.28641" lon="5.77438">
        <ele>1424.4</ele>
        <time>2020-01-31T14:57:40Z</time>
      </trkpt>
      <trkpt lat="45.28642" lon="5.77442">
        <ele>1424.6</ele>
        <time>2020-01-31T14:57:41Z</time>
      </trkpt>
      <trkpt lat="45.28642" lon="5.77442">
        <ele>1424.8</ele>
        <time>2020-01-31T14:57:42Z</time>
      </trkpt>
      <trkpt lat="45.28643" lon="5.77444">
        <ele>1425.4</ele>
        <time>2020-01-31T14:57:43Z</time>
      </trkpt>
      <trkpt lat="45.28643" lon="5.77444">
        <ele>1425.4</ele>
        <time>2020-01-31T14:57:44Z</time>
      </trkpt>
      <trkpt lat="45.28643" lon="5.77444">
        <ele>1425.6</ele>
        <time>2020-01-31T14:57:45Z</time>
      </trkpt>
      <trkpt lat="45.28643" lon="5.77448">
        <ele>1426</ele>
        <time>2020-01-31T14:57:46Z</time>
      </trkpt>
      <trkpt lat="45.28643" lon="5.77448">
        <ele>1426.2</ele>
        <time>2020-01-31T14:57:47Z</time>
      </trkpt>
      <trkpt lat="45.28643" lon="5.77448">
        <ele>1426.4</ele>
        <time>2020-01-31T14:57:48Z</time>
      </trkpt>
      <trkpt lat="45.28643" lon="5.77451">
        <ele>1426.8</ele>
        <time>2020-01-31T14:57:49Z</time>
      </trkpt>
      <trkpt lat="45.28643" lon="5.77451">
        <ele>1427</ele>
        <time>2020-01-31T14:57:50Z</time>
      </trkpt>
      <trkpt lat="45.28643" lon="5.77451">
        <ele>1427.2</ele>
        <time>2020-01-31T14:57:51Z</time>
      </trkpt>
      <trkpt lat="45.28644" lon="5.77453">
        <ele>1427.6</ele>
        <time>2020-01-31T14:57:52Z</time>
      </trkpt>
      <trkpt lat="45.28644" lon="5.77453">
        <ele>1427.8</ele>
        <time>2020-01-31T14:57:53Z</time>
      </trkpt>
      <trkpt lat="45.28644" lon="5.77453">
        <ele>1428.2</ele>
        <time>2020-01-31T14:57:54Z</time>
      </trkpt>
      <trkpt lat="45.28645" lon="5.77457">
        <ele>1428.4</ele>
        <time>2020-01-31T14:57:55Z</time>
      </trkpt>
      <trkpt lat="45.28645" lon="5.77457">
        <ele>1428.6</ele>
        <time>2020-01-31T14:57:56Z</time>
      </trkpt>
      <trkpt lat="45.28646" lon="5.7746">
        <ele>1428.6</ele>
        <time>2020-01-31T14:57:57Z</time>
      </trkpt>
      <trkpt lat="45.28646" lon="5.7746">
        <ele>1428.6</ele>
        <time>2020-01-31T14:57:58Z</time>
      </trkpt>
      <trkpt lat="45.28646" lon="5.7746">
        <ele>1429</ele>
        <time>2020-01-31T14:57:59Z</time>
      </trkpt>
      <trkpt lat="45.28647" lon="5.77463">
        <ele>1429.6</ele>
        <time>2020-01-31T14:58:00Z</time>
      </trkpt>
      <trkpt lat="45.28647" lon="5.77463">
        <ele>1429.6</ele>
        <time>2020-01-31T14:58:01Z</time>
      </trkpt>
      <trkpt lat="45.28647" lon="5.77463">
        <ele>1430</ele>
        <time>2020-01-31T14:58:02Z</time>
      </trkpt>
      <trkpt lat="45.28648" lon="5.77466">
        <ele>1430.4</ele>
        <time>2020-01-31T14:58:03Z</time>
      </trkpt>
      <trkpt lat="45.28648" lon="5.77466">
        <ele>1430.4</ele>
        <time>2020-01-31T14:58:04Z</time>
      </trkpt>
      <trkpt lat="45.28648" lon="5.77466">
        <ele>1430.8</ele>
        <time>2020-01-31T14:58:05Z</time>
      </trkpt>
      <trkpt lat="45.2865" lon="5.77469">
        <ele>1431.2</ele>
        <time>2020-01-31T14:58:06Z</time>
      </trkpt>
      <trkpt lat="45.2865" lon="5.77469">
        <ele>1431.2</ele>
        <time>2020-01-31T14:58:07Z</time>
      </trkpt>
      <trkpt lat="45.2865" lon="5.77469">
        <ele>1431.4</ele>
        <time>2020-01-31T14:58:08Z</time>
      </trkpt>
      <trkpt lat="45.28651" lon="5.77472">
        <ele>1431.6</ele>
        <time>2020-01-31T14:58:09Z</time>
      </trkpt>
      <trkpt lat="45.28651" lon="5.77472">
        <ele>1431.8</ele>
        <time>2020-01-31T14:58:10Z</time>
      </trkpt>
      <trkpt lat="45.28651" lon="5.77472">
        <ele>1432</ele>
        <time>2020-01-31T14:58:11Z</time>
      </trkpt>
      <trkpt lat="45.28652" lon="5.77475">
        <ele>1432</ele>
        <time>2020-01-31T14:58:12Z</time>
      </trkpt>
      <trkpt lat="45.28652" lon="5.77475">
        <ele>1432.4</ele>
        <time>2020-01-31T14:58:13Z</time>
      </trkpt>
      <trkpt lat="45.28652" lon="5.77475">
        <ele>1432.6</ele>
        <time>2020-01-31T14:58:14Z</time>
      </trkpt>
      <trkpt lat="45.28653" lon="5.77478">
        <ele>1432.6</ele>
        <time>2020-01-31T14:58:15Z</time>
      </trkpt>
      <trkpt lat="45.28653" lon="5.77478">
        <ele>1433</ele>
        <time>2020-01-31T14:58:16Z</time>
      </trkpt>
      <trkpt lat="45.28653" lon="5.77478">
        <ele>1433.2</ele>
        <time>2020-01-31T14:58:17Z</time>
      </trkpt>
      <trkpt lat="45.28654" lon="5.77482">
        <ele>1433</ele>
        <time>2020-01-31T14:58:18Z</time>
      </trkpt>
      <trkpt lat="45.28654" lon="5.77482">
        <ele>1433.2</ele>
        <time>2020-01-31T14:58:19Z</time>
      </trkpt>
      <trkpt lat="45.28654" lon="5.77482">
        <ele>1434</ele>
        <time>2020-01-31T14:58:20Z</time>
      </trkpt>
      <trkpt lat="45.28654" lon="5.77482">
        <ele>1434</ele>
        <time>2020-01-31T14:58:21Z</time>
      </trkpt>
      <trkpt lat="45.28653" lon="5.77485">
        <ele>1434.8</ele>
        <time>2020-01-31T14:58:22Z</time>
      </trkpt>
      <trkpt lat="45.28653" lon="5.77485">
        <ele>1435.2</ele>
        <time>2020-01-31T14:58:23Z</time>
      </trkpt>
      <trkpt lat="45.28653" lon="5.77485">
        <ele>1435.2</ele>
        <time>2020-01-31T14:58:24Z</time>
      </trkpt>
      <trkpt lat="45.28653" lon="5.77485">
        <ele>1435.6</ele>
        <time>2020-01-31T14:58:25Z</time>
      </trkpt>
      <trkpt lat="45.2865" lon="5.77486">
        <ele>1436</ele>
        <time>2020-01-31T14:58:26Z</time>
      </trkpt>
      <trkpt lat="45.2865" lon="5.77486">
        <ele>1436.2</ele>
        <time>2020-01-31T14:58:27Z</time>
      </trkpt>
      <trkpt lat="45.2865" lon="5.77486">
        <ele>1436.4</ele>
        <time>2020-01-31T14:58:28Z</time>
      </trkpt>
      <trkpt lat="45.28648" lon="5.77487">
        <ele>1437</ele>
        <time>2020-01-31T14:58:29Z</time>
      </trkpt>
      <trkpt lat="45.28648" lon="5.77487">
        <ele>1437.4</ele>
        <time>2020-01-31T14:58:30Z</time>
      </trkpt>
      <trkpt lat="45.28646" lon="5.77488">
        <ele>1437.6</ele>
        <time>2020-01-31T14:58:31Z</time>
      </trkpt>
      <trkpt lat="45.28646" lon="5.77488">
        <ele>1438</ele>
        <time>2020-01-31T14:58:32Z</time>
      </trkpt>
      <trkpt lat="45.28643" lon="5.77489">
        <ele>1438.2</ele>
        <time>2020-01-31T14:58:33Z</time>
      </trkpt>
      <trkpt lat="45.28643" lon="5.77489">
        <ele>1438.4</ele>
        <time>2020-01-31T14:58:34Z</time>
      </trkpt>
      <trkpt lat="45.28643" lon="5.77489">
        <ele>1439</ele>
        <time>2020-01-31T14:58:35Z</time>
      </trkpt>
      <trkpt lat="45.28641" lon="5.77489">
        <ele>1439.4</ele>
        <time>2020-01-31T14:58:36Z</time>
      </trkpt>
      <trkpt lat="45.28641" lon="5.77489">
        <ele>1439.4</ele>
        <time>2020-01-31T14:58:37Z</time>
      </trkpt>
      <trkpt lat="45.28641" lon="5.77489">
        <ele>1440</ele>
        <time>2020-01-31T14:58:38Z</time>
      </trkpt>
      <trkpt lat="45.28639" lon="5.7749">
        <ele>1440.2</ele>
        <time>2020-01-31T14:58:39Z</time>
      </trkpt>
      <trkpt lat="45.28639" lon="5.7749">
        <ele>1440.2</ele>
        <time>2020-01-31T14:58:40Z</time>
      </trkpt>
      <trkpt lat="45.28639" lon="5.7749">
        <ele>1441</ele>
        <time>2020-01-31T14:58:41Z</time>
      </trkpt>
      <trkpt lat="45.28637" lon="5.77491">
        <ele>1441</ele>
        <time>2020-01-31T14:58:42Z</time>
      </trkpt>
      <trkpt lat="45.28637" lon="5.77491">
        <ele>1441</ele>
        <time>2020-01-31T14:58:43Z</time>
      </trkpt>
      <trkpt lat="45.28635" lon="5.77491">
        <ele>1441.6</ele>
        <time>2020-01-31T14:58:44Z</time>
      </trkpt>
      <trkpt lat="45.28635" lon="5.77491">
        <ele>1441.8</ele>
        <time>2020-01-31T14:58:45Z</time>
      </trkpt>
      <trkpt lat="45.28632" lon="5.77492">
        <ele>1441.8</ele>
        <time>2020-01-31T14:58:46Z</time>
      </trkpt>
      <trkpt lat="45.28632" lon="5.77492">
        <ele>1442.2</ele>
        <time>2020-01-31T14:58:47Z</time>
      </trkpt>
      <trkpt lat="45.28632" lon="5.77492">
        <ele>1442.6</ele>
        <time>2020-01-31T14:58:48Z</time>
      </trkpt>
      <trkpt lat="45.2863" lon="5.77492">
        <ele>1442.6</ele>
        <time>2020-01-31T14:58:49Z</time>
      </trkpt>
      <trkpt lat="45.2863" lon="5.77492">
        <ele>1442.8</ele>
        <time>2020-01-31T14:58:50Z</time>
      </trkpt>
      <trkpt lat="45.28628" lon="5.77492">
        <ele>1443.2</ele>
        <time>2020-01-31T14:58:51Z</time>
      </trkpt>
      <trkpt lat="45.28628" lon="5.77492">
        <ele>1443.6</ele>
        <time>2020-01-31T14:58:52Z</time>
      </trkpt>
      <trkpt lat="45.28627" lon="5.77492">
        <ele>1444</ele>
        <time>2020-01-31T14:58:53Z</time>
      </trkpt>
      <trkpt lat="45.28627" lon="5.77492">
        <ele>1444.4</ele>
        <time>2020-01-31T14:58:54Z</time>
      </trkpt>
      <trkpt lat="45.28625" lon="5.77492">
        <ele>1444.4</ele>
        <time>2020-01-31T14:58:55Z</time>
      </trkpt>
      <trkpt lat="45.28625" lon="5.77492">
        <ele>1444.8</ele>
        <time>2020-01-31T14:58:56Z</time>
      </trkpt>
      <trkpt lat="45.28625" lon="5.77492">
        <ele>1444.8</ele>
        <time>2020-01-31T14:58:57Z</time>
      </trkpt>
      <trkpt lat="45.28623" lon="5.77491">
        <ele>1445.2</ele>
        <time>2020-01-31T14:58:58Z</time>
      </trkpt>
      <trkpt lat="45.28623" lon="5.77491">
        <ele>1445.6</ele>
        <time>2020-01-31T14:58:59Z</time>
      </trkpt>
      <trkpt lat="45.28623" lon="5.77491">
        <ele>1445.4</ele>
        <time>2020-01-31T14:59:00Z</time>
      </trkpt>
      <trkpt lat="45.28623" lon="5.77491">
        <ele>1446</ele>
        <time>2020-01-31T14:59:01Z</time>
      </trkpt>
      <trkpt lat="45.28623" lon="5.77491">
        <ele>1446.4</ele>
        <time>2020-01-31T14:59:02Z</time>
      </trkpt>
      <trkpt lat="45.28623" lon="5.77491">
        <ele>1446.6</ele>
        <time>2020-01-31T14:59:03Z</time>
      </trkpt>
      <trkpt lat="45.28621" lon="5.77492">
        <ele>1446.4</ele>
        <time>2020-01-31T14:59:04Z</time>
      </trkpt>
      <trkpt lat="45.28621" lon="5.77492">
        <ele>1446.4</ele>
        <time>2020-01-31T14:59:05Z</time>
      </trkpt>
      <trkpt lat="45.28621" lon="5.77492">
        <ele>1447</ele>
        <time>2020-01-31T14:59:06Z</time>
      </trkpt>
      <trkpt lat="45.28621" lon="5.77492">
        <ele>1447</ele>
        <time>2020-01-31T14:59:07Z</time>
      </trkpt>
      <trkpt lat="45.28621" lon="5.77492">
        <ele>1447.2</ele>
        <time>2020-01-31T14:59:08Z</time>
      </trkpt>
      <trkpt lat="45.28621" lon="5.77492">
        <ele>1447.6</ele>
        <time>2020-01-31T14:59:09Z</time>
      </trkpt>
      <trkpt lat="45.28622" lon="5.77495">
        <ele>1447.6</ele>
        <time>2020-01-31T14:59:10Z</time>
      </trkpt>
      <trkpt lat="45.28622" lon="5.77495">
        <ele>1447.8</ele>
        <time>2020-01-31T14:59:11Z</time>
      </trkpt>
      <trkpt lat="45.28622" lon="5.77498">
        <ele>1448</ele>
        <time>2020-01-31T14:59:12Z</time>
      </trkpt>
      <trkpt lat="45.28622" lon="5.77498">
        <ele>1448</ele>
        <time>2020-01-31T14:59:13Z</time>
      </trkpt>
      <trkpt lat="45.28622" lon="5.77501">
        <ele>1448.2</ele>
        <time>2020-01-31T14:59:14Z</time>
      </trkpt>
      <trkpt lat="45.28622" lon="5.77501">
        <ele>1448.4</ele>
        <time>2020-01-31T14:59:15Z</time>
      </trkpt>
      <trkpt lat="45.28622" lon="5.77504">
        <ele>1448.6</ele>
        <time>2020-01-31T14:59:16Z</time>
      </trkpt>
      <trkpt lat="45.28622" lon="5.77504">
        <ele>1448.6</ele>
        <time>2020-01-31T14:59:17Z</time>
      </trkpt>
      <trkpt lat="45.28622" lon="5.77504">
        <ele>1448.8</ele>
        <time>2020-01-31T14:59:18Z</time>
      </trkpt>
      <trkpt lat="45.28623" lon="5.77507">
        <ele>1449.2</ele>
        <time>2020-01-31T14:59:19Z</time>
      </trkpt>
      <trkpt lat="45.28623" lon="5.77507">
        <ele>1449.4</ele>
        <time>2020-01-31T14:59:20Z</time>
      </trkpt>
      <trkpt lat="45.28624" lon="5.77509">
        <ele>1449.6</ele>
        <time>2020-01-31T14:59:21Z</time>
      </trkpt>
      <trkpt lat="45.28624" lon="5.77509">
        <ele>1449.8</ele>
        <time>2020-01-31T14:59:22Z</time>
      </trkpt>
      <trkpt lat="45.28624" lon="5.77509">
        <ele>1450</ele>
        <time>2020-01-31T14:59:23Z</time>
      </trkpt>
      <trkpt lat="45.28626" lon="5.77512">
        <ele>1450.2</ele>
        <time>2020-01-31T14:59:24Z</time>
      </trkpt>
      <trkpt lat="45.28626" lon="5.77512">
        <ele>1450.4</ele>
        <time>2020-01-31T14:59:25Z</time>
      </trkpt>
      <trkpt lat="45.28626" lon="5.77512">
        <ele>1450.6</ele>
        <time>2020-01-31T14:59:26Z</time>
      </trkpt>
      <trkpt lat="45.28626" lon="5.77516">
        <ele>1451</ele>
        <time>2020-01-31T14:59:27Z</time>
      </trkpt>
      <trkpt lat="45.28626" lon="5.77516">
        <ele>1451.2</ele>
        <time>2020-01-31T14:59:28Z</time>
      </trkpt>
      <trkpt lat="45.28626" lon="5.77516">
        <ele>1451.4</ele>
        <time>2020-01-31T14:59:29Z</time>
      </trkpt>
      <trkpt lat="45.28627" lon="5.77519">
        <ele>1451.6</ele>
        <time>2020-01-31T14:59:30Z</time>
      </trkpt>
      <trkpt lat="45.28627" lon="5.77519">
        <ele>1452</ele>
        <time>2020-01-31T14:59:31Z</time>
      </trkpt>
      <trkpt lat="45.28627" lon="5.77519">
        <ele>1452.2</ele>
        <time>2020-01-31T14:59:32Z</time>
      </trkpt>
      <trkpt lat="45.28628" lon="5.77523">
        <ele>1452.6</ele>
        <time>2020-01-31T14:59:33Z</time>
      </trkpt>
      <trkpt lat="45.28628" lon="5.77523">
        <ele>1452.6</ele>
        <time>2020-01-31T14:59:34Z</time>
      </trkpt>
      <trkpt lat="45.28628" lon="5.77523">
        <ele>1453.2</ele>
        <time>2020-01-31T14:59:35Z</time>
      </trkpt>
      <trkpt lat="45.28627" lon="5.77525">
        <ele>1453.6</ele>
        <time>2020-01-31T14:59:36Z</time>
      </trkpt>
      <trkpt lat="45.28627" lon="5.77525">
        <ele>1453.8</ele>
        <time>2020-01-31T14:59:37Z</time>
      </trkpt>
      <trkpt lat="45.28627" lon="5.77525">
        <ele>1454.4</ele>
        <time>2020-01-31T14:59:38Z</time>
      </trkpt>
      <trkpt lat="45.28625" lon="5.77525">
        <ele>1454.8</ele>
        <time>2020-01-31T14:59:39Z</time>
      </trkpt>
      <trkpt lat="45.28625" lon="5.77525">
        <ele>1455</ele>
        <time>2020-01-31T14:59:40Z</time>
      </trkpt>
      <trkpt lat="45.28623" lon="5.77525">
        <ele>1455.2</ele>
        <time>2020-01-31T14:59:41Z</time>
      </trkpt>
      <trkpt lat="45.28623" lon="5.77525">
        <ele>1455.4</ele>
        <time>2020-01-31T14:59:42Z</time>
      </trkpt>
      <trkpt lat="45.28621" lon="5.77525">
        <ele>1455.6</ele>
        <time>2020-01-31T14:59:43Z</time>
      </trkpt>
      <trkpt lat="45.28621" lon="5.77525">
        <ele>1455.4</ele>
        <time>2020-01-31T14:59:44Z</time>
      </trkpt>
      <trkpt lat="45.28621" lon="5.77525">
        <ele>1456</ele>
        <time>2020-01-31T14:59:45Z</time>
      </trkpt>
      <trkpt lat="45.28618" lon="5.77525">
        <ele>1456.2</ele>
        <time>2020-01-31T14:59:46Z</time>
      </trkpt>
      <trkpt lat="45.28618" lon="5.77525">
        <ele>1456.2</ele>
        <time>2020-01-31T14:59:47Z</time>
      </trkpt>
      <trkpt lat="45.28616" lon="5.77524">
        <ele>1456.6</ele>
        <time>2020-01-31T14:59:48Z</time>
      </trkpt>
      <trkpt lat="45.28616" lon="5.77524">
        <ele>1457</ele>
        <time>2020-01-31T14:59:49Z</time>
      </trkpt>
      <trkpt lat="45.28614" lon="5.77524">
        <ele>1457.6</ele>
        <time>2020-01-31T14:59:50Z</time>
      </trkpt>
      <trkpt lat="45.28614" lon="5.77524">
        <ele>1457.8</ele>
        <time>2020-01-31T14:59:51Z</time>
      </trkpt>
      <trkpt lat="45.28614" lon="5.77524">
        <ele>1458.2</ele>
        <time>2020-01-31T14:59:52Z</time>
      </trkpt>
      <trkpt lat="45.28614" lon="5.77524">
        <ele>1458.4</ele>
        <time>2020-01-31T14:59:53Z</time>
      </trkpt>
      <trkpt lat="45.28613" lon="5.77526">
        <ele>1458.2</ele>
        <time>2020-01-31T14:59:54Z</time>
      </trkpt>
      <trkpt lat="45.28613" lon="5.77526">
        <ele>1458.4</ele>
        <time>2020-01-31T14:59:55Z</time>
      </trkpt>
      <trkpt lat="45.28614" lon="5.77528">
        <ele>1458.2</ele>
        <time>2020-01-31T14:59:56Z</time>
      </trkpt>
      <trkpt lat="45.28614" lon="5.77528">
        <ele>1458.2</ele>
        <time>2020-01-31T14:59:57Z</time>
      </trkpt>
      <trkpt lat="45.28615" lon="5.7753">
        <ele>1458.6</ele>
        <time>2020-01-31T14:59:58Z</time>
      </trkpt>
      <trkpt lat="45.28615" lon="5.7753">
        <ele>1458.6</ele>
        <time>2020-01-31T14:59:59Z</time>
      </trkpt>
      <trkpt lat="45.28615" lon="5.7753">
        <ele>1458.6</ele>
        <time>2020-01-31T15:00:00Z</time>
      </trkpt>
      <trkpt lat="45.28616" lon="5.77532">
        <ele>1458.6</ele>
        <time>2020-01-31T15:00:01Z</time>
      </trkpt>
      <trkpt lat="45.28616" lon="5.77532">
        <ele>1458.8</ele>
        <time>2020-01-31T15:00:02Z</time>
      </trkpt>
      <trkpt lat="45.28616" lon="5.77532">
        <ele>1459.2</ele>
        <time>2020-01-31T15:00:03Z</time>
      </trkpt>
      <trkpt lat="45.28617" lon="5.77535">
        <ele>1459.2</ele>
        <time>2020-01-31T15:00:04Z</time>
      </trkpt>
      <trkpt lat="45.28617" lon="5.77535">
        <ele>1459.6</ele>
        <time>2020-01-31T15:00:05Z</time>
      </trkpt>
      <trkpt lat="45.28617" lon="5.77535">
        <ele>1459.8</ele>
        <time>2020-01-31T15:00:06Z</time>
      </trkpt>
      <trkpt lat="45.28617" lon="5.77537">
        <ele>1460</ele>
        <time>2020-01-31T15:00:07Z</time>
      </trkpt>
      <trkpt lat="45.28617" lon="5.77537">
        <ele>1460.4</ele>
        <time>2020-01-31T15:00:08Z</time>
      </trkpt>
      <trkpt lat="45.28617" lon="5.77537">
        <ele>1460.4</ele>
        <time>2020-01-31T15:00:09Z</time>
      </trkpt>
      <trkpt lat="45.28618" lon="5.77541">
        <ele>1460.8</ele>
        <time>2020-01-31T15:00:10Z</time>
      </trkpt>
      <trkpt lat="45.28618" lon="5.77541">
        <ele>1461</ele>
        <time>2020-01-31T15:00:11Z</time>
      </trkpt>
      <trkpt lat="45.28618" lon="5.77541">
        <ele>1461.2</ele>
        <time>2020-01-31T15:00:12Z</time>
      </trkpt>
      <trkpt lat="45.28618" lon="5.77541">
        <ele>1461.8</ele>
        <time>2020-01-31T15:00:13Z</time>
      </trkpt>
      <trkpt lat="45.28618" lon="5.77541">
        <ele>1462</ele>
        <time>2020-01-31T15:00:14Z</time>
      </trkpt>
      <trkpt lat="45.28617" lon="5.77543">
        <ele>1462.2</ele>
        <time>2020-01-31T15:00:15Z</time>
      </trkpt>
      <trkpt lat="45.28617" lon="5.77543">
        <ele>1462.8</ele>
        <time>2020-01-31T15:00:16Z</time>
      </trkpt>
      <trkpt lat="45.28614" lon="5.77545">
        <ele>1463</ele>
        <time>2020-01-31T15:00:17Z</time>
      </trkpt>
      <trkpt lat="45.28614" lon="5.77545">
        <ele>1463.2</ele>
        <time>2020-01-31T15:00:18Z</time>
      </trkpt>
      <trkpt lat="45.28614" lon="5.77545">
        <ele>1463.6</ele>
        <time>2020-01-31T15:00:19Z</time>
      </trkpt>
      <trkpt lat="45.28613" lon="5.77546">
        <ele>1464</ele>
        <time>2020-01-31T15:00:20Z</time>
      </trkpt>
      <trkpt lat="45.28613" lon="5.77546">
        <ele>1464.4</ele>
        <time>2020-01-31T15:00:21Z</time>
      </trkpt>
      <trkpt lat="45.28613" lon="5.77546">
        <ele>1464.2</ele>
        <time>2020-01-31T15:00:22Z</time>
      </trkpt>
      <trkpt lat="45.2861" lon="5.77546">
        <ele>1464.6</ele>
        <time>2020-01-31T15:00:23Z</time>
      </trkpt>
      <trkpt lat="45.2861" lon="5.77546">
        <ele>1464.8</ele>
        <time>2020-01-31T15:00:24Z</time>
      </trkpt>
      <trkpt lat="45.28608" lon="5.77546">
        <ele>1465</ele>
        <time>2020-01-31T15:00:25Z</time>
      </trkpt>
      <trkpt lat="45.28608" lon="5.77546">
        <ele>1465.6</ele>
        <time>2020-01-31T15:00:26Z</time>
      </trkpt>
      <trkpt lat="45.28608" lon="5.77546">
        <ele>1465.6</ele>
        <time>2020-01-31T15:00:27Z</time>
      </trkpt>
      <trkpt lat="45.28608" lon="5.77546">
        <ele>1465.8</ele>
        <time>2020-01-31T15:00:28Z</time>
      </trkpt>
      <trkpt lat="45.28608" lon="5.77546">
        <ele>1465.6</ele>
        <time>2020-01-31T15:00:29Z</time>
      </trkpt>
      <trkpt lat="45.28609" lon="5.77549">
        <ele>1466</ele>
        <time>2020-01-31T15:00:30Z</time>
      </trkpt>
      <trkpt lat="45.28609" lon="5.77549">
        <ele>1466</ele>
        <time>2020-01-31T15:00:31Z</time>
      </trkpt>
      <trkpt lat="45.2861" lon="5.77551">
        <ele>1466.4</ele>
        <time>2020-01-31T15:00:32Z</time>
      </trkpt>
      <trkpt lat="45.2861" lon="5.77551">
        <ele>1466.2</ele>
        <time>2020-01-31T15:00:33Z</time>
      </trkpt>
      <trkpt lat="45.2861" lon="5.77554">
        <ele>1466.4</ele>
        <time>2020-01-31T15:00:34Z</time>
      </trkpt>
      <trkpt lat="45.2861" lon="5.77554">
        <ele>1466.8</ele>
        <time>2020-01-31T15:00:35Z</time>
      </trkpt>
      <trkpt lat="45.2861" lon="5.77554">
        <ele>1466.6</ele>
        <time>2020-01-31T15:00:36Z</time>
      </trkpt>
      <trkpt lat="45.2861" lon="5.77554">
        <ele>1466.8</ele>
        <time>2020-01-31T15:00:37Z</time>
      </trkpt>
      <trkpt lat="45.28611" lon="5.77557">
        <ele>1467.2</ele>
        <time>2020-01-31T15:00:38Z</time>
      </trkpt>
      <trkpt lat="45.28611" lon="5.77557">
        <ele>1467.4</ele>
        <time>2020-01-31T15:00:39Z</time>
      </trkpt>
      <trkpt lat="45.28612" lon="5.77559">
        <ele>1467.4</ele>
        <time>2020-01-31T15:00:40Z</time>
      </trkpt>
      <trkpt lat="45.28612" lon="5.77559">
        <ele>1468</ele>
        <time>2020-01-31T15:00:41Z</time>
      </trkpt>
      <trkpt lat="45.28612" lon="5.77559">
        <ele>1468</ele>
        <time>2020-01-31T15:00:42Z</time>
      </trkpt>
      <trkpt lat="45.28613" lon="5.77562">
        <ele>1468.4</ele>
        <time>2020-01-31T15:00:43Z</time>
      </trkpt>
      <trkpt lat="45.28613" lon="5.77562">
        <ele>1468.6</ele>
        <time>2020-01-31T15:00:44Z</time>
      </trkpt>
      <trkpt lat="45.28613" lon="5.77562">
        <ele>1468.8</ele>
        <time>2020-01-31T15:00:45Z</time>
      </trkpt>
      <trkpt lat="45.28614" lon="5.77565">
        <ele>1469</ele>
        <time>2020-01-31T15:00:46Z</time>
      </trkpt>
      <trkpt lat="45.28614" lon="5.77565">
        <ele>1468.8</ele>
        <time>2020-01-31T15:00:47Z</time>
      </trkpt>
      <trkpt lat="45.28615" lon="5.77567">
        <ele>1469.2</ele>
        <time>2020-01-31T15:00:48Z</time>
      </trkpt>
      <trkpt lat="45.28615" lon="5.77567">
        <ele>1469.2</ele>
        <time>2020-01-31T15:00:49Z</time>
      </trkpt>
      <trkpt lat="45.28616" lon="5.7757">
        <ele>1469.6</ele>
        <time>2020-01-31T15:00:50Z</time>
      </trkpt>
      <trkpt lat="45.28616" lon="5.7757">
        <ele>1470</ele>
        <time>2020-01-31T15:00:51Z</time>
      </trkpt>
      <trkpt lat="45.28617" lon="5.77572">
        <ele>1470.4</ele>
        <time>2020-01-31T15:00:52Z</time>
      </trkpt>
      <trkpt lat="45.28617" lon="5.77572">
        <ele>1470.4</ele>
        <time>2020-01-31T15:00:53Z</time>
      </trkpt>
      <trkpt lat="45.28617" lon="5.77572">
        <ele>1470.6</ele>
        <time>2020-01-31T15:00:54Z</time>
      </trkpt>
      <trkpt lat="45.28618" lon="5.77575">
        <ele>1471</ele>
        <time>2020-01-31T15:00:55Z</time>
      </trkpt>
      <trkpt lat="45.28618" lon="5.77575">
        <ele>1471</ele>
        <time>2020-01-31T15:00:56Z</time>
      </trkpt>
      <trkpt lat="45.28618" lon="5.77575">
        <ele>1471.2</ele>
        <time>2020-01-31T15:00:57Z</time>
      </trkpt>
      <trkpt lat="45.28618" lon="5.77578">
        <ele>1471.6</ele>
        <time>2020-01-31T15:00:58Z</time>
      </trkpt>
      <trkpt lat="45.28618" lon="5.77578">
        <ele>1471.8</ele>
        <time>2020-01-31T15:00:59Z</time>
      </trkpt>
      <trkpt lat="45.28618" lon="5.77578">
        <ele>1472</ele>
        <time>2020-01-31T15:01:00Z</time>
      </trkpt>
      <trkpt lat="45.28618" lon="5.77581">
        <ele>1472.4</ele>
        <time>2020-01-31T15:01:01Z</time>
      </trkpt>
      <trkpt lat="45.28618" lon="5.77581">
        <ele>1472.4</ele>
        <time>2020-01-31T15:01:02Z</time>
      </trkpt>
      <trkpt lat="45.28618" lon="5.77581">
        <ele>1473.2</ele>
        <time>2020-01-31T15:01:03Z</time>
      </trkpt>
      <trkpt lat="45.28618" lon="5.77584">
        <ele>1473</ele>
        <time>2020-01-31T15:01:04Z</time>
      </trkpt>
      <trkpt lat="45.28618" lon="5.77584">
        <ele>1473.2</ele>
        <time>2020-01-31T15:01:05Z</time>
      </trkpt>
      <trkpt lat="45.28618" lon="5.77584">
        <ele>1473.6</ele>
        <time>2020-01-31T15:01:06Z</time>
      </trkpt>
      <trkpt lat="45.28618" lon="5.77587">
        <ele>1473.8</ele>
        <time>2020-01-31T15:01:07Z</time>
      </trkpt>
      <trkpt lat="45.28618" lon="5.77587">
        <ele>1474</ele>
        <time>2020-01-31T15:01:08Z</time>
      </trkpt>
      <trkpt lat="45.28618" lon="5.77587">
        <ele>1474.2</ele>
        <time>2020-01-31T15:01:09Z</time>
      </trkpt>
      <trkpt lat="45.28618" lon="5.7759">
        <ele>1474.4</ele>
        <time>2020-01-31T15:01:10Z</time>
      </trkpt>
      <trkpt lat="45.28618" lon="5.7759">
        <ele>1474.8</ele>
        <time>2020-01-31T15:01:11Z</time>
      </trkpt>
      <trkpt lat="45.28618" lon="5.7759">
        <ele>1475</ele>
        <time>2020-01-31T15:01:12Z</time>
      </trkpt>
      <trkpt lat="45.28618" lon="5.77593">
        <ele>1475.2</ele>
        <time>2020-01-31T15:01:13Z</time>
      </trkpt>
      <trkpt lat="45.28618" lon="5.77593">
        <ele>1475.4</ele>
        <time>2020-01-31T15:01:14Z</time>
      </trkpt>
      <trkpt lat="45.28618" lon="5.77593">
        <ele>1475.6</ele>
        <time>2020-01-31T15:01:15Z</time>
      </trkpt>
      <trkpt lat="45.28617" lon="5.77597">
        <ele>1475.8</ele>
        <time>2020-01-31T15:01:16Z</time>
      </trkpt>
      <trkpt lat="45.28617" lon="5.77597">
        <ele>1475.8</ele>
        <time>2020-01-31T15:01:17Z</time>
      </trkpt>
      <trkpt lat="45.28617" lon="5.77597">
        <ele>1476</ele>
        <time>2020-01-31T15:01:18Z</time>
      </trkpt>
      <trkpt lat="45.28618" lon="5.776">
        <ele>1476.2</ele>
        <time>2020-01-31T15:01:19Z</time>
      </trkpt>
      <trkpt lat="45.28618" lon="5.776">
        <ele>1476.6</ele>
        <time>2020-01-31T15:01:20Z</time>
      </trkpt>
      <trkpt lat="45.28618" lon="5.776">
        <ele>1476.8</ele>
        <time>2020-01-31T15:01:21Z</time>
      </trkpt>
      <trkpt lat="45.28618" lon="5.776">
        <ele>1477.4</ele>
        <time>2020-01-31T15:01:22Z</time>
      </trkpt>
      <trkpt lat="45.28619" lon="5.77602">
        <ele>1477.6</ele>
        <time>2020-01-31T15:01:23Z</time>
      </trkpt>
      <trkpt lat="45.28619" lon="5.77602">
        <ele>1478</ele>
        <time>2020-01-31T15:01:24Z</time>
      </trkpt>
      <trkpt lat="45.28619" lon="5.77602">
        <ele>1478.2</ele>
        <time>2020-01-31T15:01:25Z</time>
      </trkpt>
      <trkpt lat="45.28621" lon="5.77605">
        <ele>1478.2</ele>
        <time>2020-01-31T15:01:26Z</time>
      </trkpt>
      <trkpt lat="45.28621" lon="5.77605">
        <ele>1478.2</ele>
        <time>2020-01-31T15:01:27Z</time>
      </trkpt>
      <trkpt lat="45.28621" lon="5.77605">
        <ele>1478.4</ele>
        <time>2020-01-31T15:01:28Z</time>
      </trkpt>
      <trkpt lat="45.28621" lon="5.77609">
        <ele>1478.8</ele>
        <time>2020-01-31T15:01:29Z</time>
      </trkpt>
      <trkpt lat="45.28621" lon="5.77609">
        <ele>1478.8</ele>
        <time>2020-01-31T15:01:30Z</time>
      </trkpt>
      <trkpt lat="45.28621" lon="5.77609">
        <ele>1479.6</ele>
        <time>2020-01-31T15:01:31Z</time>
      </trkpt>
      <trkpt lat="45.28621" lon="5.77612">
        <ele>1479.8</ele>
        <time>2020-01-31T15:01:32Z</time>
      </trkpt>
      <trkpt lat="45.28621" lon="5.77612">
        <ele>1480.4</ele>
        <time>2020-01-31T15:01:33Z</time>
      </trkpt>
      <trkpt lat="45.28621" lon="5.77612">
        <ele>1480.8</ele>
        <time>2020-01-31T15:01:34Z</time>
      </trkpt>
      <trkpt lat="45.28621" lon="5.77612">
        <ele>1480.8</ele>
        <time>2020-01-31T15:01:35Z</time>
      </trkpt>
      <trkpt lat="45.28621" lon="5.77612">
        <ele>1480.8</ele>
        <time>2020-01-31T15:01:36Z</time>
      </trkpt>
      <trkpt lat="45.28622" lon="5.77615">
        <ele>1481.2</ele>
        <time>2020-01-31T15:01:37Z</time>
      </trkpt>
      <trkpt lat="45.28622" lon="5.77615">
        <ele>1481.2</ele>
        <time>2020-01-31T15:01:38Z</time>
      </trkpt>
      <trkpt lat="45.28622" lon="5.77615">
        <ele>1481.6</ele>
        <time>2020-01-31T15:01:39Z</time>
      </trkpt>
      <trkpt lat="45.28623" lon="5.77617">
        <ele>1481.4</ele>
        <time>2020-01-31T15:01:40Z</time>
      </trkpt>
      <trkpt lat="45.28623" lon="5.77617">
        <ele>1481.6</ele>
        <time>2020-01-31T15:01:41Z</time>
      </trkpt>
      <trkpt lat="45.28623" lon="5.77617">
        <ele>1482</ele>
        <time>2020-01-31T15:01:42Z</time>
      </trkpt>
      <trkpt lat="45.28625" lon="5.7762">
        <ele>1482</ele>
        <time>2020-01-31T15:01:43Z</time>
      </trkpt>
      <trkpt lat="45.28625" lon="5.7762">
        <ele>1482</ele>
        <time>2020-01-31T15:01:44Z</time>
      </trkpt>
      <trkpt lat="45.28625" lon="5.7762">
        <ele>1482.4</ele>
        <time>2020-01-31T15:01:45Z</time>
      </trkpt>
      <trkpt lat="45.28626" lon="5.77623">
        <ele>1482.4</ele>
        <time>2020-01-31T15:01:46Z</time>
      </trkpt>
      <trkpt lat="45.28626" lon="5.77623">
        <ele>1483</ele>
        <time>2020-01-31T15:01:47Z</time>
      </trkpt>
      <trkpt lat="45.28626" lon="5.77623">
        <ele>1483</ele>
        <time>2020-01-31T15:01:48Z</time>
      </trkpt>
      <trkpt lat="45.28626" lon="5.77626">
        <ele>1483.2</ele>
        <time>2020-01-31T15:01:49Z</time>
      </trkpt>
      <trkpt lat="45.28626" lon="5.77626">
        <ele>1483.8</ele>
        <time>2020-01-31T15:01:50Z</time>
      </trkpt>
      <trkpt lat="45.28626" lon="5.77626">
        <ele>1483.8</ele>
        <time>2020-01-31T15:01:51Z</time>
      </trkpt>
      <trkpt lat="45.28628" lon="5.77628">
        <ele>1483.8</ele>
        <time>2020-01-31T15:01:52Z</time>
      </trkpt>
      <trkpt lat="45.28628" lon="5.77628">
        <ele>1484.2</ele>
        <time>2020-01-31T15:01:53Z</time>
      </trkpt>
      <trkpt lat="45.28628" lon="5.77628">
        <ele>1484.4</ele>
        <time>2020-01-31T15:01:54Z</time>
      </trkpt>
      <trkpt lat="45.28627" lon="5.77632">
        <ele>1484.6</ele>
        <time>2020-01-31T15:01:55Z</time>
      </trkpt>
      <trkpt lat="45.28627" lon="5.77632">
        <ele>1484.8</ele>
        <time>2020-01-31T15:01:56Z</time>
      </trkpt>
      <trkpt lat="45.28627" lon="5.77632">
        <ele>1485</ele>
        <time>2020-01-31T15:01:57Z</time>
      </trkpt>
      <trkpt lat="45.28628" lon="5.77635">
        <ele>1485.4</ele>
        <time>2020-01-31T15:01:58Z</time>
      </trkpt>
      <trkpt lat="45.28628" lon="5.77635">
        <ele>1485.4</ele>
        <time>2020-01-31T15:01:59Z</time>
      </trkpt>
      <trkpt lat="45.28628" lon="5.77635">
        <ele>1485.6</ele>
        <time>2020-01-31T15:02:00Z</time>
      </trkpt>
      <trkpt lat="45.28629" lon="5.77638">
        <ele>1486</ele>
        <time>2020-01-31T15:02:01Z</time>
      </trkpt>
      <trkpt lat="45.28629" lon="5.77638">
        <ele>1486.2</ele>
        <time>2020-01-31T15:02:02Z</time>
      </trkpt>
      <trkpt lat="45.28629" lon="5.77638">
        <ele>1486.6</ele>
        <time>2020-01-31T15:02:03Z</time>
      </trkpt>
      <trkpt lat="45.28629" lon="5.77641">
        <ele>1486.4</ele>
        <time>2020-01-31T15:02:04Z</time>
      </trkpt>
      <trkpt lat="45.28629" lon="5.77641">
        <ele>1486.8</ele>
        <time>2020-01-31T15:02:05Z</time>
      </trkpt>
      <trkpt lat="45.28629" lon="5.77641">
        <ele>1487.6</ele>
        <time>2020-01-31T15:02:06Z</time>
      </trkpt>
      <trkpt lat="45.28629" lon="5.77641">
        <ele>1487.6</ele>
        <time>2020-01-31T15:02:07Z</time>
      </trkpt>
      <trkpt lat="45.28629" lon="5.77641">
        <ele>1488</ele>
        <time>2020-01-31T15:02:08Z</time>
      </trkpt>
      <trkpt lat="45.28626" lon="5.77643">
        <ele>1488.6</ele>
        <time>2020-01-31T15:02:09Z</time>
      </trkpt>
      <trkpt lat="45.28624" lon="5.77643">
        <ele>1488.6</ele>
        <time>2020-01-31T15:02:10Z</time>
      </trkpt>
      <trkpt lat="45.28623" lon="5.77643">
        <ele>1489</ele>
        <time>2020-01-31T15:02:11Z</time>
      </trkpt>
      <trkpt lat="45.28622" lon="5.77643">
        <ele>1489.4</ele>
        <time>2020-01-31T15:02:12Z</time>
      </trkpt>
      <trkpt lat="45.28621" lon="5.77642">
        <ele>1489.4</ele>
        <time>2020-01-31T15:02:13Z</time>
      </trkpt>
      <trkpt lat="45.28619" lon="5.77642">
        <ele>1489.6</ele>
        <time>2020-01-31T15:02:14Z</time>
      </trkpt>
      <trkpt lat="45.28619" lon="5.77642">
        <ele>1490</ele>
        <time>2020-01-31T15:02:15Z</time>
      </trkpt>
      <trkpt lat="45.28619" lon="5.77642">
        <ele>1489.6</ele>
        <time>2020-01-31T15:02:16Z</time>
      </trkpt>
      <trkpt lat="45.28616" lon="5.77642">
        <ele>1490</ele>
        <time>2020-01-31T15:02:17Z</time>
      </trkpt>
      <trkpt lat="45.28616" lon="5.77642">
        <ele>1490.6</ele>
        <time>2020-01-31T15:02:18Z</time>
      </trkpt>
      <trkpt lat="45.28616" lon="5.77642">
        <ele>1490.6</ele>
        <time>2020-01-31T15:02:19Z</time>
      </trkpt>
      <trkpt lat="45.28613" lon="5.77643">
        <ele>1491</ele>
        <time>2020-01-31T15:02:20Z</time>
      </trkpt>
      <trkpt lat="45.28612" lon="5.77644">
        <ele>1491.2</ele>
        <time>2020-01-31T15:02:21Z</time>
      </trkpt>
      <trkpt lat="45.28612" lon="5.77644">
        <ele>1491.2</ele>
        <time>2020-01-31T15:02:22Z</time>
      </trkpt>
      <trkpt lat="45.28611" lon="5.77644">
        <ele>1491.4</ele>
        <time>2020-01-31T15:02:23Z</time>
      </trkpt>
      <trkpt lat="45.2861" lon="5.77644">
        <ele>1492</ele>
        <time>2020-01-31T15:02:24Z</time>
      </trkpt>
      <trkpt lat="45.2861" lon="5.77645">
        <ele>1492</ele>
        <time>2020-01-31T15:02:25Z</time>
      </trkpt>
      <trkpt lat="45.28609" lon="5.77645">
        <ele>1492.6</ele>
        <time>2020-01-31T15:02:26Z</time>
      </trkpt>
      <trkpt lat="45.28608" lon="5.77645">
        <ele>1492.4</ele>
        <time>2020-01-31T15:02:27Z</time>
      </trkpt>
      <trkpt lat="45.28607" lon="5.77645">
        <ele>1492.8</ele>
        <time>2020-01-31T15:02:28Z</time>
      </trkpt>
      <trkpt lat="45.28607" lon="5.77646">
        <ele>1492.8</ele>
        <time>2020-01-31T15:02:29Z</time>
      </trkpt>
      <trkpt lat="45.28606" lon="5.77646">
        <ele>1493.4</ele>
        <time>2020-01-31T15:02:30Z</time>
      </trkpt>
      <trkpt lat="45.28605" lon="5.77646">
        <ele>1493.8</ele>
        <time>2020-01-31T15:02:31Z</time>
      </trkpt>
      <trkpt lat="45.28605" lon="5.77646">
        <ele>1493.8</ele>
        <time>2020-01-31T15:02:32Z</time>
      </trkpt>
      <trkpt lat="45.28604" lon="5.77647">
        <ele>1494.2</ele>
        <time>2020-01-31T15:02:33Z</time>
      </trkpt>
      <trkpt lat="45.28603" lon="5.77646">
        <ele>1494.6</ele>
        <time>2020-01-31T15:02:34Z</time>
      </trkpt>
      <trkpt lat="45.28602" lon="5.77646">
        <ele>1494.6</ele>
        <time>2020-01-31T15:02:35Z</time>
      </trkpt>
      <trkpt lat="45.28601" lon="5.77645">
        <ele>1495</ele>
        <time>2020-01-31T15:02:36Z</time>
      </trkpt>
      <trkpt lat="45.286" lon="5.77645">
        <ele>1495.2</ele>
        <time>2020-01-31T15:02:37Z</time>
      </trkpt>
      <trkpt lat="45.28599" lon="5.77644">
        <ele>1495.4</ele>
        <time>2020-01-31T15:02:38Z</time>
      </trkpt>
      <trkpt lat="45.28599" lon="5.77644">
        <ele>1495.2</ele>
        <time>2020-01-31T15:02:39Z</time>
      </trkpt>
      <trkpt lat="45.28598" lon="5.77643">
        <ele>1495.8</ele>
        <time>2020-01-31T15:02:40Z</time>
      </trkpt>
      <trkpt lat="45.28597" lon="5.77643">
        <ele>1495.8</ele>
        <time>2020-01-31T15:02:41Z</time>
      </trkpt>
      <trkpt lat="45.28596" lon="5.77642">
        <ele>1496.2</ele>
        <time>2020-01-31T15:02:42Z</time>
      </trkpt>
      <trkpt lat="45.28596" lon="5.77642">
        <ele>1496.6</ele>
        <time>2020-01-31T15:02:43Z</time>
      </trkpt>
      <trkpt lat="45.28596" lon="5.77642">
        <ele>1496.4</ele>
        <time>2020-01-31T15:02:44Z</time>
      </trkpt>
      <trkpt lat="45.28596" lon="5.77642">
        <ele>1497</ele>
        <time>2020-01-31T15:02:45Z</time>
      </trkpt>
      <trkpt lat="45.28593" lon="5.77641">
        <ele>1497.4</ele>
        <time>2020-01-31T15:02:46Z</time>
      </trkpt>
      <trkpt lat="45.28593" lon="5.77641">
        <ele>1497.6</ele>
        <time>2020-01-31T15:02:47Z</time>
      </trkpt>
      <trkpt lat="45.28591" lon="5.77641">
        <ele>1497.4</ele>
        <time>2020-01-31T15:02:48Z</time>
      </trkpt>
      <trkpt lat="45.28591" lon="5.77641">
        <ele>1497.6</ele>
        <time>2020-01-31T15:02:49Z</time>
      </trkpt>
      <trkpt lat="45.28591" lon="5.77641">
        <ele>1497.6</ele>
        <time>2020-01-31T15:02:50Z</time>
      </trkpt>
      <trkpt lat="45.28591" lon="5.77641">
        <ele>1498.2</ele>
        <time>2020-01-31T15:02:51Z</time>
      </trkpt>
      <trkpt lat="45.28589" lon="5.7764">
        <ele>1498.2</ele>
        <time>2020-01-31T15:02:52Z</time>
      </trkpt>
      <trkpt lat="45.28588" lon="5.7764">
        <ele>1498</ele>
        <time>2020-01-31T15:02:53Z</time>
      </trkpt>
      <trkpt lat="45.28587" lon="5.77639">
        <ele>1498.6</ele>
        <time>2020-01-31T15:02:54Z</time>
      </trkpt>
      <trkpt lat="45.28586" lon="5.77639">
        <ele>1498.8</ele>
        <time>2020-01-31T15:02:55Z</time>
      </trkpt>
      <trkpt lat="45.28586" lon="5.77638">
        <ele>1498.6</ele>
        <time>2020-01-31T15:02:56Z</time>
      </trkpt>
      <trkpt lat="45.28585" lon="5.77638">
        <ele>1499</ele>
        <time>2020-01-31T15:02:57Z</time>
      </trkpt>
      <trkpt lat="45.28584" lon="5.77638">
        <ele>1499.2</ele>
        <time>2020-01-31T15:02:58Z</time>
      </trkpt>
      <trkpt lat="45.28584" lon="5.77637">
        <ele>1499.2</ele>
        <time>2020-01-31T15:02:59Z</time>
      </trkpt>
      <trkpt lat="45.28583" lon="5.77637">
        <ele>1499.8</ele>
        <time>2020-01-31T15:03:00Z</time>
      </trkpt>
      <trkpt lat="45.28582" lon="5.77636">
        <ele>1500</ele>
        <time>2020-01-31T15:03:01Z</time>
      </trkpt>
      <trkpt lat="45.28581" lon="5.77636">
        <ele>1499.8</ele>
        <time>2020-01-31T15:03:02Z</time>
      </trkpt>
      <trkpt lat="45.28581" lon="5.77635">
        <ele>1500.6</ele>
        <time>2020-01-31T15:03:03Z</time>
      </trkpt>
      <trkpt lat="45.28581" lon="5.77635">
        <ele>1501.2</ele>
        <time>2020-01-31T15:03:04Z</time>
      </trkpt>
      <trkpt lat="45.28581" lon="5.77635">
        <ele>1501.4</ele>
        <time>2020-01-31T15:03:05Z</time>
      </trkpt>
      <trkpt lat="45.28581" lon="5.77635">
        <ele>1501.2</ele>
        <time>2020-01-31T15:03:06Z</time>
      </trkpt>
      <trkpt lat="45.28581" lon="5.77635">
        <ele>1501.4</ele>
        <time>2020-01-31T15:03:07Z</time>
      </trkpt>
      <trkpt lat="45.28581" lon="5.77635">
        <ele>1501.8</ele>
        <time>2020-01-31T15:03:08Z</time>
      </trkpt>
      <trkpt lat="45.28581" lon="5.77635">
        <ele>1501.8</ele>
        <time>2020-01-31T15:03:09Z</time>
      </trkpt>
      <trkpt lat="45.28581" lon="5.77635">
        <ele>1502.2</ele>
        <time>2020-01-31T15:03:10Z</time>
      </trkpt>
      <trkpt lat="45.28581" lon="5.77635">
        <ele>1502.6</ele>
        <time>2020-01-31T15:03:11Z</time>
      </trkpt>
      <trkpt lat="45.28581" lon="5.77635">
        <ele>1502.4</ele>
        <time>2020-01-31T15:03:12Z</time>
      </trkpt>
      <trkpt lat="45.28577" lon="5.77636">
        <ele>1502.6</ele>
        <time>2020-01-31T15:03:13Z</time>
      </trkpt>
      <trkpt lat="45.28577" lon="5.77636">
        <ele>1503</ele>
        <time>2020-01-31T15:03:14Z</time>
      </trkpt>
      <trkpt lat="45.28577" lon="5.77636">
        <ele>1503</ele>
        <time>2020-01-31T15:03:15Z</time>
      </trkpt>
      <trkpt lat="45.28573" lon="5.77637">
        <ele>1503.2</ele>
        <time>2020-01-31T15:03:16Z</time>
      </trkpt>
      <trkpt lat="45.28572" lon="5.77637">
        <ele>1503.6</ele>
        <time>2020-01-31T15:03:17Z</time>
      </trkpt>
      <trkpt lat="45.28571" lon="5.77637">
        <ele>1503.6</ele>
        <time>2020-01-31T15:03:18Z</time>
      </trkpt>
      <trkpt lat="45.2857" lon="5.77638">
        <ele>1503.8</ele>
        <time>2020-01-31T15:03:19Z</time>
      </trkpt>
      <trkpt lat="45.28569" lon="5.77638">
        <ele>1504.4</ele>
        <time>2020-01-31T15:03:20Z</time>
      </trkpt>
      <trkpt lat="45.28568" lon="5.77638">
        <ele>1504.2</ele>
        <time>2020-01-31T15:03:21Z</time>
      </trkpt>
      <trkpt lat="45.28567" lon="5.77638">
        <ele>1504.6</ele>
        <time>2020-01-31T15:03:22Z</time>
      </trkpt>
      <trkpt lat="45.28566" lon="5.77639">
        <ele>1504.8</ele>
        <time>2020-01-31T15:03:23Z</time>
      </trkpt>
      <trkpt lat="45.28565" lon="5.77639">
        <ele>1505</ele>
        <time>2020-01-31T15:03:24Z</time>
      </trkpt>
      <trkpt lat="45.28563" lon="5.77639">
        <ele>1505.4</ele>
        <time>2020-01-31T15:03:25Z</time>
      </trkpt>
      <trkpt lat="45.28562" lon="5.77639">
        <ele>1505.4</ele>
        <time>2020-01-31T15:03:26Z</time>
      </trkpt>
      <trkpt lat="45.28561" lon="5.77639">
        <ele>1505.4</ele>
        <time>2020-01-31T15:03:27Z</time>
      </trkpt>
      <trkpt lat="45.2856" lon="5.7764">
        <ele>1505.6</ele>
        <time>2020-01-31T15:03:28Z</time>
      </trkpt>
      <trkpt lat="45.28559" lon="5.7764">
        <ele>1505.8</ele>
        <time>2020-01-31T15:03:29Z</time>
      </trkpt>
      <trkpt lat="45.28558" lon="5.7764">
        <ele>1506.2</ele>
        <time>2020-01-31T15:03:30Z</time>
      </trkpt>
      <trkpt lat="45.28557" lon="5.7764">
        <ele>1506.4</ele>
        <time>2020-01-31T15:03:31Z</time>
      </trkpt>
      <trkpt lat="45.28556" lon="5.7764">
        <ele>1506.4</ele>
        <time>2020-01-31T15:03:32Z</time>
      </trkpt>
      <trkpt lat="45.28555" lon="5.7764">
        <ele>1506.6</ele>
        <time>2020-01-31T15:03:33Z</time>
      </trkpt>
      <trkpt lat="45.28554" lon="5.7764">
        <ele>1507.2</ele>
        <time>2020-01-31T15:03:34Z</time>
      </trkpt>
      <trkpt lat="45.28553" lon="5.77641">
        <ele>1507.4</ele>
        <time>2020-01-31T15:03:35Z</time>
      </trkpt>
      <trkpt lat="45.28551" lon="5.77641">
        <ele>1508</ele>
        <time>2020-01-31T15:03:36Z</time>
      </trkpt>
      <trkpt lat="45.2855" lon="5.77641">
        <ele>1508.2</ele>
        <time>2020-01-31T15:03:37Z</time>
      </trkpt>
      <trkpt lat="45.28549" lon="5.77641">
        <ele>1508.4</ele>
        <time>2020-01-31T15:03:38Z</time>
      </trkpt>
      <trkpt lat="45.28549" lon="5.77641">
        <ele>1508.6</ele>
        <time>2020-01-31T15:03:39Z</time>
      </trkpt>
      <trkpt lat="45.28548" lon="5.77641">
        <ele>1508.8</ele>
        <time>2020-01-31T15:03:40Z</time>
      </trkpt>
      <trkpt lat="45.28547" lon="5.77641">
        <ele>1509.2</ele>
        <time>2020-01-31T15:03:41Z</time>
      </trkpt>
      <trkpt lat="45.28546" lon="5.77641">
        <ele>1509.4</ele>
        <time>2020-01-31T15:03:42Z</time>
      </trkpt>
      <trkpt lat="45.28546" lon="5.77641">
        <ele>1509.4</ele>
        <time>2020-01-31T15:03:43Z</time>
      </trkpt>
      <trkpt lat="45.28545" lon="5.77641">
        <ele>1509.4</ele>
        <time>2020-01-31T15:03:44Z</time>
      </trkpt>
      <trkpt lat="45.28544" lon="5.77641">
        <ele>1509.6</ele>
        <time>2020-01-31T15:03:45Z</time>
      </trkpt>
      <trkpt lat="45.28543" lon="5.77641">
        <ele>1510</ele>
        <time>2020-01-31T15:03:46Z</time>
      </trkpt>
      <trkpt lat="45.28543" lon="5.77642">
        <ele>1510.4</ele>
        <time>2020-01-31T15:03:47Z</time>
      </trkpt>
      <trkpt lat="45.28542" lon="5.77642">
        <ele>1510.4</ele>
        <time>2020-01-31T15:03:48Z</time>
      </trkpt>
      <trkpt lat="45.28541" lon="5.77642">
        <ele>1510.8</ele>
        <time>2020-01-31T15:03:49Z</time>
      </trkpt>
      <trkpt lat="45.2854" lon="5.77642">
        <ele>1511.4</ele>
        <time>2020-01-31T15:03:50Z</time>
      </trkpt>
      <trkpt lat="45.2854" lon="5.77642">
        <ele>1511.6</ele>
        <time>2020-01-31T15:03:51Z</time>
      </trkpt>
      <trkpt lat="45.28539" lon="5.77642">
        <ele>1511.6</ele>
        <time>2020-01-31T15:03:52Z</time>
      </trkpt>
      <trkpt lat="45.28539" lon="5.77642">
        <ele>1512</ele>
        <time>2020-01-31T15:03:53Z</time>
      </trkpt>
      <trkpt lat="45.28538" lon="5.77643">
        <ele>1512</ele>
        <time>2020-01-31T15:03:54Z</time>
      </trkpt>
      <trkpt lat="45.28538" lon="5.77643">
        <ele>1512.4</ele>
        <time>2020-01-31T15:03:55Z</time>
      </trkpt>
      <trkpt lat="45.28537" lon="5.77643">
        <ele>1512.8</ele>
        <time>2020-01-31T15:03:56Z</time>
      </trkpt>
      <trkpt lat="45.28537" lon="5.77643">
        <ele>1513.2</ele>
        <time>2020-01-31T15:03:57Z</time>
      </trkpt>
      <trkpt lat="45.28536" lon="5.77643">
        <ele>1513.2</ele>
        <time>2020-01-31T15:03:58Z</time>
      </trkpt>
      <trkpt lat="45.28536" lon="5.77644">
        <ele>1513.4</ele>
        <time>2020-01-31T15:03:59Z</time>
      </trkpt>
      <trkpt lat="45.28535" lon="5.77644">
        <ele>1513.2</ele>
        <time>2020-01-31T15:04:00Z</time>
      </trkpt>
      <trkpt lat="45.28535" lon="5.77644">
        <ele>1513.2</ele>
        <time>2020-01-31T15:04:01Z</time>
      </trkpt>
      <trkpt lat="45.28535" lon="5.77644">
        <ele>1513.6</ele>
        <time>2020-01-31T15:04:02Z</time>
      </trkpt>
      <trkpt lat="45.28528" lon="5.77647">
        <ele>1513.6</ele>
        <time>2020-01-31T15:04:03Z</time>
      </trkpt>
      <trkpt lat="45.28527" lon="5.77648">
        <ele>1513.8</ele>
        <time>2020-01-31T15:04:04Z</time>
      </trkpt>
      <trkpt lat="45.28525" lon="5.77649">
        <ele>1514.4</ele>
        <time>2020-01-31T15:04:05Z</time>
      </trkpt>
      <trkpt lat="45.28524" lon="5.7765">
        <ele>1514.6</ele>
        <time>2020-01-31T15:04:06Z</time>
      </trkpt>
      <trkpt lat="45.28522" lon="5.77651">
        <ele>1515</ele>
        <time>2020-01-31T15:04:07Z</time>
      </trkpt>
      <trkpt lat="45.28521" lon="5.77651">
        <ele>1515.4</ele>
        <time>2020-01-31T15:04:08Z</time>
      </trkpt>
      <trkpt lat="45.28521" lon="5.77652">
        <ele>1515.4</ele>
        <time>2020-01-31T15:04:09Z</time>
      </trkpt>
      <trkpt lat="45.28521" lon="5.77652">
        <ele>1516</ele>
        <time>2020-01-31T15:04:10Z</time>
      </trkpt>
      <trkpt lat="45.28521" lon="5.77653">
        <ele>1516.2</ele>
        <time>2020-01-31T15:04:11Z</time>
      </trkpt>
      <trkpt lat="45.2852" lon="5.77654">
        <ele>1516.2</ele>
        <time>2020-01-31T15:04:12Z</time>
      </trkpt>
      <trkpt lat="45.2852" lon="5.77654">
        <ele>1516.4</ele>
        <time>2020-01-31T15:04:13Z</time>
      </trkpt>
      <trkpt lat="45.2852" lon="5.77655">
        <ele>1516.6</ele>
        <time>2020-01-31T15:04:14Z</time>
      </trkpt>
      <trkpt lat="45.2852" lon="5.77655">
        <ele>1516.8</ele>
        <time>2020-01-31T15:04:15Z</time>
      </trkpt>
      <trkpt lat="45.2852" lon="5.77656">
        <ele>1517</ele>
        <time>2020-01-31T15:04:16Z</time>
      </trkpt>
      <trkpt lat="45.2852" lon="5.77656">
        <ele>1517.2</ele>
        <time>2020-01-31T15:04:17Z</time>
      </trkpt>
      <trkpt lat="45.2852" lon="5.77657">
        <ele>1517.2</ele>
        <time>2020-01-31T15:04:18Z</time>
      </trkpt>
      <trkpt lat="45.2852" lon="5.77658">
        <ele>1517.6</ele>
        <time>2020-01-31T15:04:19Z</time>
      </trkpt>
      <trkpt lat="45.2852" lon="5.77658">
        <ele>1517.8</ele>
        <time>2020-01-31T15:04:20Z</time>
      </trkpt>
      <trkpt lat="45.2852" lon="5.77659">
        <ele>1518</ele>
        <time>2020-01-31T15:04:21Z</time>
      </trkpt>
      <trkpt lat="45.2852" lon="5.77659">
        <ele>1518.4</ele>
        <time>2020-01-31T15:04:22Z</time>
      </trkpt>
      <trkpt lat="45.2852" lon="5.7766">
        <ele>1518.6</ele>
        <time>2020-01-31T15:04:23Z</time>
      </trkpt>
      <trkpt lat="45.28519" lon="5.7766">
        <ele>1518.6</ele>
        <time>2020-01-31T15:04:24Z</time>
      </trkpt>
      <trkpt lat="45.28519" lon="5.77661">
        <ele>1519.4</ele>
        <time>2020-01-31T15:04:25Z</time>
      </trkpt>
      <trkpt lat="45.28519" lon="5.77661">
        <ele>1519.6</ele>
        <time>2020-01-31T15:04:26Z</time>
      </trkpt>
      <trkpt lat="45.28519" lon="5.77662">
        <ele>1519.8</ele>
        <time>2020-01-31T15:04:27Z</time>
      </trkpt>
      <trkpt lat="45.28519" lon="5.77663">
        <ele>1520</ele>
        <time>2020-01-31T15:04:28Z</time>
      </trkpt>
      <trkpt lat="45.28519" lon="5.77663">
        <ele>1520</ele>
        <time>2020-01-31T15:04:29Z</time>
      </trkpt>
      <trkpt lat="45.28519" lon="5.77663">
        <ele>1520.6</ele>
        <time>2020-01-31T15:04:30Z</time>
      </trkpt>
      <trkpt lat="45.28521" lon="5.77665">
        <ele>1520.8</ele>
        <time>2020-01-31T15:04:31Z</time>
      </trkpt>
      <trkpt lat="45.28521" lon="5.77665">
        <ele>1521</ele>
        <time>2020-01-31T15:04:32Z</time>
      </trkpt>
      <trkpt lat="45.28522" lon="5.77667">
        <ele>1521.4</ele>
        <time>2020-01-31T15:04:33Z</time>
      </trkpt>
      <trkpt lat="45.28522" lon="5.77667">
        <ele>1521.2</ele>
        <time>2020-01-31T15:04:34Z</time>
      </trkpt>
      <trkpt lat="45.28522" lon="5.77667">
        <ele>1521.4</ele>
        <time>2020-01-31T15:04:35Z</time>
      </trkpt>
      <trkpt lat="45.28525" lon="5.77668">
        <ele>1521.8</ele>
        <time>2020-01-31T15:04:36Z</time>
      </trkpt>
      <trkpt lat="45.28525" lon="5.77668">
        <ele>1521.8</ele>
        <time>2020-01-31T15:04:37Z</time>
      </trkpt>
      <trkpt lat="45.28525" lon="5.77668">
        <ele>1522</ele>
        <time>2020-01-31T15:04:38Z</time>
      </trkpt>
      <trkpt lat="45.28527" lon="5.7767">
        <ele>1522.4</ele>
        <time>2020-01-31T15:04:39Z</time>
      </trkpt>
      <trkpt lat="45.28527" lon="5.7767">
        <ele>1522.4</ele>
        <time>2020-01-31T15:04:40Z</time>
      </trkpt>
      <trkpt lat="45.28528" lon="5.77671">
        <ele>1522.6</ele>
        <time>2020-01-31T15:04:41Z</time>
      </trkpt>
      <trkpt lat="45.28528" lon="5.77671">
        <ele>1523.2</ele>
        <time>2020-01-31T15:04:42Z</time>
      </trkpt>
      <trkpt lat="45.2853" lon="5.77672">
        <ele>1523.2</ele>
        <time>2020-01-31T15:04:43Z</time>
      </trkpt>
      <trkpt lat="45.2853" lon="5.77672">
        <ele>1523.4</ele>
        <time>2020-01-31T15:04:44Z</time>
      </trkpt>
      <trkpt lat="45.28533" lon="5.77674">
        <ele>1523.8</ele>
        <time>2020-01-31T15:04:45Z</time>
      </trkpt>
      <trkpt lat="45.28533" lon="5.77674">
        <ele>1523.8</ele>
        <time>2020-01-31T15:04:46Z</time>
      </trkpt>
      <trkpt lat="45.28534" lon="5.77675">
        <ele>1523.8</ele>
        <time>2020-01-31T15:04:47Z</time>
      </trkpt>
      <trkpt lat="45.28534" lon="5.77675">
        <ele>1524.4</ele>
        <time>2020-01-31T15:04:48Z</time>
      </trkpt>
      <trkpt lat="45.28534" lon="5.77675">
        <ele>1524.6</ele>
        <time>2020-01-31T15:04:49Z</time>
      </trkpt>
      <trkpt lat="45.28537" lon="5.77676">
        <ele>1524.8</ele>
        <time>2020-01-31T15:04:50Z</time>
      </trkpt>
      <trkpt lat="45.28537" lon="5.77676">
        <ele>1525</ele>
        <time>2020-01-31T15:04:51Z</time>
      </trkpt>
      <trkpt lat="45.28537" lon="5.77676">
        <ele>1525.2</ele>
        <time>2020-01-31T15:04:52Z</time>
      </trkpt>
      <trkpt lat="45.28539" lon="5.77678">
        <ele>1525.4</ele>
        <time>2020-01-31T15:04:53Z</time>
      </trkpt>
      <trkpt lat="45.28539" lon="5.77678">
        <ele>1525.8</ele>
        <time>2020-01-31T15:04:54Z</time>
      </trkpt>
      <trkpt lat="45.28541" lon="5.77679">
        <ele>1525.8</ele>
        <time>2020-01-31T15:04:55Z</time>
      </trkpt>
      <trkpt lat="45.28541" lon="5.77679">
        <ele>1526</ele>
        <time>2020-01-31T15:04:56Z</time>
      </trkpt>
      <trkpt lat="45.28541" lon="5.77679">
        <ele>1526.2</ele>
        <time>2020-01-31T15:04:57Z</time>
      </trkpt>
      <trkpt lat="45.28543" lon="5.7768">
        <ele>1526.2</ele>
        <time>2020-01-31T15:04:58Z</time>
      </trkpt>
      <trkpt lat="45.28543" lon="5.7768">
        <ele>1526.6</ele>
        <time>2020-01-31T15:04:59Z</time>
      </trkpt>
      <trkpt lat="45.28545" lon="5.77681">
        <ele>1526.8</ele>
        <time>2020-01-31T15:05:00Z</time>
      </trkpt>
      <trkpt lat="45.28545" lon="5.77681">
        <ele>1527</ele>
        <time>2020-01-31T15:05:01Z</time>
      </trkpt>
      <trkpt lat="45.28547" lon="5.77683">
        <ele>1527.2</ele>
        <time>2020-01-31T15:05:02Z</time>
      </trkpt>
      <trkpt lat="45.28547" lon="5.77683">
        <ele>1527.6</ele>
        <time>2020-01-31T15:05:03Z</time>
      </trkpt>
      <trkpt lat="45.28548" lon="5.77684">
        <ele>1528</ele>
        <time>2020-01-31T15:05:04Z</time>
      </trkpt>
      <trkpt lat="45.28548" lon="5.77684">
        <ele>1528</ele>
        <time>2020-01-31T15:05:05Z</time>
      </trkpt>
      <trkpt lat="45.2855" lon="5.77686">
        <ele>1528.4</ele>
        <time>2020-01-31T15:05:06Z</time>
      </trkpt>
      <trkpt lat="45.2855" lon="5.77686">
        <ele>1528.6</ele>
        <time>2020-01-31T15:05:07Z</time>
      </trkpt>
      <trkpt lat="45.28552" lon="5.77687">
        <ele>1528.6</ele>
        <time>2020-01-31T15:05:08Z</time>
      </trkpt>
      <trkpt lat="45.28552" lon="5.77687">
        <ele>1529</ele>
        <time>2020-01-31T15:05:09Z</time>
      </trkpt>
      <trkpt lat="45.28552" lon="5.77687">
        <ele>1529</ele>
        <time>2020-01-31T15:05:10Z</time>
      </trkpt>
      <trkpt lat="45.28554" lon="5.77689">
        <ele>1529.2</ele>
        <time>2020-01-31T15:05:11Z</time>
      </trkpt>
      <trkpt lat="45.28554" lon="5.77689">
        <ele>1529.6</ele>
        <time>2020-01-31T15:05:12Z</time>
      </trkpt>
      <trkpt lat="45.28555" lon="5.77692">
        <ele>1529.6</ele>
        <time>2020-01-31T15:05:13Z</time>
      </trkpt>
      <trkpt lat="45.28555" lon="5.77692">
        <ele>1529.8</ele>
        <time>2020-01-31T15:05:14Z</time>
      </trkpt>
      <trkpt lat="45.28555" lon="5.77692">
        <ele>1530</ele>
        <time>2020-01-31T15:05:15Z</time>
      </trkpt>
      <trkpt lat="45.28557" lon="5.77696">
        <ele>1530.4</ele>
        <time>2020-01-31T15:05:16Z</time>
      </trkpt>
      <trkpt lat="45.28557" lon="5.77696">
        <ele>1530.4</ele>
        <time>2020-01-31T15:05:17Z</time>
      </trkpt>
      <trkpt lat="45.28557" lon="5.77696">
        <ele>1530.8</ele>
        <time>2020-01-31T15:05:18Z</time>
      </trkpt>
      <trkpt lat="45.28556" lon="5.777">
        <ele>1530.8</ele>
        <time>2020-01-31T15:05:19Z</time>
      </trkpt>
      <trkpt lat="45.28556" lon="5.777">
        <ele>1531.4</ele>
        <time>2020-01-31T15:05:20Z</time>
      </trkpt>
      <trkpt lat="45.28556" lon="5.777">
        <ele>1531.8</ele>
        <time>2020-01-31T15:05:21Z</time>
      </trkpt>
      <trkpt lat="45.28554" lon="5.77701">
        <ele>1531.8</ele>
        <time>2020-01-31T15:05:22Z</time>
      </trkpt>
      <trkpt lat="45.28554" lon="5.77701">
        <ele>1532.2</ele>
        <time>2020-01-31T15:05:23Z</time>
      </trkpt>
      <trkpt lat="45.28551" lon="5.77702">
        <ele>1532.2</ele>
        <time>2020-01-31T15:05:24Z</time>
      </trkpt>
      <trkpt lat="45.28551" lon="5.77702">
        <ele>1532.4</ele>
        <time>2020-01-31T15:05:25Z</time>
      </trkpt>
      <trkpt lat="45.28551" lon="5.77702">
        <ele>1532.8</ele>
        <time>2020-01-31T15:05:26Z</time>
      </trkpt>
      <trkpt lat="45.28549" lon="5.77704">
        <ele>1533</ele>
        <time>2020-01-31T15:05:27Z</time>
      </trkpt>
      <trkpt lat="45.28549" lon="5.77705">
        <ele>1533</ele>
        <time>2020-01-31T15:05:28Z</time>
      </trkpt>
      <trkpt lat="45.28549" lon="5.77705">
        <ele>1533.4</ele>
        <time>2020-01-31T15:05:29Z</time>
      </trkpt>
      <trkpt lat="45.28549" lon="5.77706">
        <ele>1533.2</ele>
        <time>2020-01-31T15:05:30Z</time>
      </trkpt>
      <trkpt lat="45.28549" lon="5.77707">
        <ele>1533.4</ele>
        <time>2020-01-31T15:05:31Z</time>
      </trkpt>
      <trkpt lat="45.28549" lon="5.77708">
        <ele>1533.6</ele>
        <time>2020-01-31T15:05:32Z</time>
      </trkpt>
      <trkpt lat="45.28549" lon="5.77709">
        <ele>1533.6</ele>
        <time>2020-01-31T15:05:33Z</time>
      </trkpt>
      <trkpt lat="45.28549" lon="5.77709">
        <ele>1534</ele>
        <time>2020-01-31T15:05:34Z</time>
      </trkpt>
      <trkpt lat="45.28549" lon="5.7771">
        <ele>1534.2</ele>
        <time>2020-01-31T15:05:35Z</time>
      </trkpt>
      <trkpt lat="45.28549" lon="5.77711">
        <ele>1534.2</ele>
        <time>2020-01-31T15:05:36Z</time>
      </trkpt>
      <trkpt lat="45.28549" lon="5.77712">
        <ele>1534.4</ele>
        <time>2020-01-31T15:05:37Z</time>
      </trkpt>
      <trkpt lat="45.28549" lon="5.77713">
        <ele>1534.6</ele>
        <time>2020-01-31T15:05:38Z</time>
      </trkpt>
      <trkpt lat="45.28549" lon="5.77713">
        <ele>1534.6</ele>
        <time>2020-01-31T15:05:39Z</time>
      </trkpt>
      <trkpt lat="45.28549" lon="5.77714">
        <ele>1535</ele>
        <time>2020-01-31T15:05:40Z</time>
      </trkpt>
      <trkpt lat="45.28549" lon="5.77715">
        <ele>1535.2</ele>
        <time>2020-01-31T15:05:41Z</time>
      </trkpt>
      <trkpt lat="45.28549" lon="5.77716">
        <ele>1535.4</ele>
        <time>2020-01-31T15:05:42Z</time>
      </trkpt>
      <trkpt lat="45.28549" lon="5.77716">
        <ele>1535.4</ele>
        <time>2020-01-31T15:05:43Z</time>
      </trkpt>
      <trkpt lat="45.28549" lon="5.77716">
        <ele>1535.6</ele>
        <time>2020-01-31T15:05:44Z</time>
      </trkpt>
      <trkpt lat="45.2855" lon="5.77718">
        <ele>1536</ele>
        <time>2020-01-31T15:05:45Z</time>
      </trkpt>
      <trkpt lat="45.2855" lon="5.77718">
        <ele>1536.2</ele>
        <time>2020-01-31T15:05:46Z</time>
      </trkpt>
      <trkpt lat="45.2855" lon="5.77718">
        <ele>1536.6</ele>
        <time>2020-01-31T15:05:47Z</time>
      </trkpt>
      <trkpt lat="45.28552" lon="5.77721">
        <ele>1536.8</ele>
        <time>2020-01-31T15:05:48Z</time>
      </trkpt>
      <trkpt lat="45.28552" lon="5.77721">
        <ele>1537</ele>
        <time>2020-01-31T15:05:49Z</time>
      </trkpt>
      <trkpt lat="45.28552" lon="5.77721">
        <ele>1537.2</ele>
        <time>2020-01-31T15:05:50Z</time>
      </trkpt>
      <trkpt lat="45.28554" lon="5.77723">
        <ele>1537.6</ele>
        <time>2020-01-31T15:05:51Z</time>
      </trkpt>
      <trkpt lat="45.28554" lon="5.77723">
        <ele>1537.8</ele>
        <time>2020-01-31T15:05:52Z</time>
      </trkpt>
      <trkpt lat="45.28554" lon="5.77723">
        <ele>1537.8</ele>
        <time>2020-01-31T15:05:53Z</time>
      </trkpt>
      <trkpt lat="45.28556" lon="5.77724">
        <ele>1538</ele>
        <time>2020-01-31T15:05:54Z</time>
      </trkpt>
      <trkpt lat="45.28556" lon="5.77724">
        <ele>1538</ele>
        <time>2020-01-31T15:05:55Z</time>
      </trkpt>
      <trkpt lat="45.28556" lon="5.77724">
        <ele>1538</ele>
        <time>2020-01-31T15:05:56Z</time>
      </trkpt>
      <trkpt lat="45.28558" lon="5.77726">
        <ele>1538.6</ele>
        <time>2020-01-31T15:05:57Z</time>
      </trkpt>
      <trkpt lat="45.28558" lon="5.77726">
        <ele>1539.2</ele>
        <time>2020-01-31T15:05:58Z</time>
      </trkpt>
      <trkpt lat="45.28558" lon="5.77726">
        <ele>1539.2</ele>
        <time>2020-01-31T15:05:59Z</time>
      </trkpt>
      <trkpt lat="45.2856" lon="5.77728">
        <ele>1539.4</ele>
        <time>2020-01-31T15:06:00Z</time>
      </trkpt>
      <trkpt lat="45.2856" lon="5.77729">
        <ele>1539.4</ele>
        <time>2020-01-31T15:06:01Z</time>
      </trkpt>
      <trkpt lat="45.2856" lon="5.7773">
        <ele>1539.6</ele>
        <time>2020-01-31T15:06:02Z</time>
      </trkpt>
      <trkpt lat="45.2856" lon="5.77731">
        <ele>1540</ele>
        <time>2020-01-31T15:06:03Z</time>
      </trkpt>
      <trkpt lat="45.28561" lon="5.77732">
        <ele>1540.2</ele>
        <time>2020-01-31T15:06:04Z</time>
      </trkpt>
      <trkpt lat="45.28561" lon="5.77733">
        <ele>1540.8</ele>
        <time>2020-01-31T15:06:05Z</time>
      </trkpt>
      <trkpt lat="45.28561" lon="5.77734">
        <ele>1541.4</ele>
        <time>2020-01-31T15:06:06Z</time>
      </trkpt>
      <trkpt lat="45.28562" lon="5.77735">
        <ele>1541.6</ele>
        <time>2020-01-31T15:06:07Z</time>
      </trkpt>
      <trkpt lat="45.28562" lon="5.77736">
        <ele>1541.8</ele>
        <time>2020-01-31T15:06:08Z</time>
      </trkpt>
      <trkpt lat="45.28562" lon="5.77737">
        <ele>1542</ele>
        <time>2020-01-31T15:06:09Z</time>
      </trkpt>
      <trkpt lat="45.28562" lon="5.77738">
        <ele>1542.2</ele>
        <time>2020-01-31T15:06:10Z</time>
      </trkpt>
      <trkpt lat="45.28563" lon="5.77739">
        <ele>1542.6</ele>
        <time>2020-01-31T15:06:11Z</time>
      </trkpt>
      <trkpt lat="45.28563" lon="5.7774">
        <ele>1542.8</ele>
        <time>2020-01-31T15:06:12Z</time>
      </trkpt>
      <trkpt lat="45.28563" lon="5.77741">
        <ele>1543.2</ele>
        <time>2020-01-31T15:06:13Z</time>
      </trkpt>
      <trkpt lat="45.28564" lon="5.77742">
        <ele>1543.4</ele>
        <time>2020-01-31T15:06:14Z</time>
      </trkpt>
      <trkpt lat="45.28564" lon="5.77743">
        <ele>1543.8</ele>
        <time>2020-01-31T15:06:15Z</time>
      </trkpt>
      <trkpt lat="45.28565" lon="5.77744">
        <ele>1543.6</ele>
        <time>2020-01-31T15:06:16Z</time>
      </trkpt>
      <trkpt lat="45.28565" lon="5.77745">
        <ele>1543.8</ele>
        <time>2020-01-31T15:06:17Z</time>
      </trkpt>
      <trkpt lat="45.28565" lon="5.77746">
        <ele>1544.2</ele>
        <time>2020-01-31T15:06:18Z</time>
      </trkpt>
      <trkpt lat="45.28566" lon="5.77747">
        <ele>1544.8</ele>
        <time>2020-01-31T15:06:19Z</time>
      </trkpt>
      <trkpt lat="45.28566" lon="5.77748">
        <ele>1544.8</ele>
        <time>2020-01-31T15:06:20Z</time>
      </trkpt>
      <trkpt lat="45.28567" lon="5.77749">
        <ele>1545.2</ele>
        <time>2020-01-31T15:06:21Z</time>
      </trkpt>
      <trkpt lat="45.28567" lon="5.77751">
        <ele>1545.6</ele>
        <time>2020-01-31T15:06:22Z</time>
      </trkpt>
      <trkpt lat="45.28567" lon="5.77752">
        <ele>1546</ele>
        <time>2020-01-31T15:06:23Z</time>
      </trkpt>
      <trkpt lat="45.28568" lon="5.77753">
        <ele>1546.6</ele>
        <time>2020-01-31T15:06:24Z</time>
      </trkpt>
      <trkpt lat="45.28568" lon="5.77754">
        <ele>1546.8</ele>
        <time>2020-01-31T15:06:25Z</time>
      </trkpt>
      <trkpt lat="45.28568" lon="5.77754">
        <ele>1547.6</ele>
        <time>2020-01-31T15:06:26Z</time>
      </trkpt>
      <trkpt lat="45.28568" lon="5.77755">
        <ele>1547.8</ele>
        <time>2020-01-31T15:06:27Z</time>
      </trkpt>
      <trkpt lat="45.28569" lon="5.77756">
        <ele>1548</ele>
        <time>2020-01-31T15:06:28Z</time>
      </trkpt>
      <trkpt lat="45.28569" lon="5.77757">
        <ele>1548.4</ele>
        <time>2020-01-31T15:06:29Z</time>
      </trkpt>
      <trkpt lat="45.28569" lon="5.77758">
        <ele>1548.4</ele>
        <time>2020-01-31T15:06:30Z</time>
      </trkpt>
      <trkpt lat="45.28569" lon="5.77758">
        <ele>1548.6</ele>
        <time>2020-01-31T15:06:31Z</time>
      </trkpt>
      <trkpt lat="45.28569" lon="5.77759">
        <ele>1548.6</ele>
        <time>2020-01-31T15:06:32Z</time>
      </trkpt>
      <trkpt lat="45.2857" lon="5.7776">
        <ele>1548.8</ele>
        <time>2020-01-31T15:06:33Z</time>
      </trkpt>
      <trkpt lat="45.2857" lon="5.77761">
        <ele>1549</ele>
        <time>2020-01-31T15:06:34Z</time>
      </trkpt>
      <trkpt lat="45.2857" lon="5.77762">
        <ele>1549.2</ele>
        <time>2020-01-31T15:06:35Z</time>
      </trkpt>
      <trkpt lat="45.2857" lon="5.77762">
        <ele>1549.6</ele>
        <time>2020-01-31T15:06:36Z</time>
      </trkpt>
      <trkpt lat="45.2857" lon="5.77763">
        <ele>1550</ele>
        <time>2020-01-31T15:06:37Z</time>
      </trkpt>
      <trkpt lat="45.28571" lon="5.77764">
        <ele>1550</ele>
        <time>2020-01-31T15:06:38Z</time>
      </trkpt>
      <trkpt lat="45.28571" lon="5.77765">
        <ele>1550.6</ele>
        <time>2020-01-31T15:06:39Z</time>
      </trkpt>
      <trkpt lat="45.28571" lon="5.77766">
        <ele>1550.8</ele>
        <time>2020-01-31T15:06:40Z</time>
      </trkpt>
      <trkpt lat="45.28572" lon="5.77767">
        <ele>1551.4</ele>
        <time>2020-01-31T15:06:41Z</time>
      </trkpt>
      <trkpt lat="45.28572" lon="5.77768">
        <ele>1551.4</ele>
        <time>2020-01-31T15:06:42Z</time>
      </trkpt>
      <trkpt lat="45.28573" lon="5.77769">
        <ele>1551.8</ele>
        <time>2020-01-31T15:06:43Z</time>
      </trkpt>
      <trkpt lat="45.28573" lon="5.7777">
        <ele>1552</ele>
        <time>2020-01-31T15:06:44Z</time>
      </trkpt>
      <trkpt lat="45.28574" lon="5.77771">
        <ele>1552.6</ele>
        <time>2020-01-31T15:06:45Z</time>
      </trkpt>
      <trkpt lat="45.28574" lon="5.77772">
        <ele>1552.6</ele>
        <time>2020-01-31T15:06:46Z</time>
      </trkpt>
      <trkpt lat="45.28575" lon="5.77773">
        <ele>1552.8</ele>
        <time>2020-01-31T15:06:47Z</time>
      </trkpt>
      <trkpt lat="45.28575" lon="5.77774">
        <ele>1552.8</ele>
        <time>2020-01-31T15:06:48Z</time>
      </trkpt>
      <trkpt lat="45.28576" lon="5.77774">
        <ele>1553</ele>
        <time>2020-01-31T15:06:49Z</time>
      </trkpt>
      <trkpt lat="45.28576" lon="5.77775">
        <ele>1553</ele>
        <time>2020-01-31T15:06:50Z</time>
      </trkpt>
      <trkpt lat="45.28576" lon="5.77776">
        <ele>1553.2</ele>
        <time>2020-01-31T15:06:51Z</time>
      </trkpt>
      <trkpt lat="45.28577" lon="5.77778">
        <ele>1553.4</ele>
        <time>2020-01-31T15:06:52Z</time>
      </trkpt>
      <trkpt lat="45.28577" lon="5.77779">
        <ele>1553.4</ele>
        <time>2020-01-31T15:06:53Z</time>
      </trkpt>
      <trkpt lat="45.28577" lon="5.7778">
        <ele>1553.6</ele>
        <time>2020-01-31T15:06:54Z</time>
      </trkpt>
      <trkpt lat="45.28577" lon="5.77781">
        <ele>1553.8</ele>
        <time>2020-01-31T15:06:55Z</time>
      </trkpt>
      <trkpt lat="45.28578" lon="5.77782">
        <ele>1554</ele>
        <time>2020-01-31T15:06:56Z</time>
      </trkpt>
      <trkpt lat="45.28578" lon="5.77783">
        <ele>1554.2</ele>
        <time>2020-01-31T15:06:57Z</time>
      </trkpt>
      <trkpt lat="45.28578" lon="5.77784">
        <ele>1554.8</ele>
        <time>2020-01-31T15:06:58Z</time>
      </trkpt>
      <trkpt lat="45.28578" lon="5.77785">
        <ele>1554.8</ele>
        <time>2020-01-31T15:06:59Z</time>
      </trkpt>
      <trkpt lat="45.28578" lon="5.77786">
        <ele>1554.8</ele>
        <time>2020-01-31T15:07:00Z</time>
      </trkpt>
      <trkpt lat="45.28579" lon="5.77787">
        <ele>1555</ele>
        <time>2020-01-31T15:07:01Z</time>
      </trkpt>
      <trkpt lat="45.28579" lon="5.77788">
        <ele>1555.4</ele>
        <time>2020-01-31T15:07:02Z</time>
      </trkpt>
      <trkpt lat="45.28579" lon="5.77789">
        <ele>1555.6</ele>
        <time>2020-01-31T15:07:03Z</time>
      </trkpt>
      <trkpt lat="45.28579" lon="5.77789">
        <ele>1556</ele>
        <time>2020-01-31T15:07:04Z</time>
      </trkpt>
      <trkpt lat="45.28579" lon="5.7779">
        <ele>1556.4</ele>
        <time>2020-01-31T15:07:05Z</time>
      </trkpt>
      <trkpt lat="45.28579" lon="5.77791">
        <ele>1556.6</ele>
        <time>2020-01-31T15:07:06Z</time>
      </trkpt>
      <trkpt lat="45.28579" lon="5.77792">
        <ele>1556.6</ele>
        <time>2020-01-31T15:07:07Z</time>
      </trkpt>
      <trkpt lat="45.2858" lon="5.77792">
        <ele>1557.2</ele>
        <time>2020-01-31T15:07:08Z</time>
      </trkpt>
      <trkpt lat="45.2858" lon="5.77793">
        <ele>1557.2</ele>
        <time>2020-01-31T15:07:09Z</time>
      </trkpt>
      <trkpt lat="45.2858" lon="5.77794">
        <ele>1557.6</ele>
        <time>2020-01-31T15:07:10Z</time>
      </trkpt>
      <trkpt lat="45.2858" lon="5.77794">
        <ele>1557.8</ele>
        <time>2020-01-31T15:07:11Z</time>
      </trkpt>
      <trkpt lat="45.2858" lon="5.77795">
        <ele>1558</ele>
        <time>2020-01-31T15:07:12Z</time>
      </trkpt>
      <trkpt lat="45.2858" lon="5.77796">
        <ele>1558.4</ele>
        <time>2020-01-31T15:07:13Z</time>
      </trkpt>
      <trkpt lat="45.2858" lon="5.77797">
        <ele>1558.6</ele>
        <time>2020-01-31T15:07:14Z</time>
      </trkpt>
      <trkpt lat="45.2858" lon="5.77797">
        <ele>1558.6</ele>
        <time>2020-01-31T15:07:15Z</time>
      </trkpt>
      <trkpt lat="45.2858" lon="5.77798">
        <ele>1559</ele>
        <time>2020-01-31T15:07:16Z</time>
      </trkpt>
      <trkpt lat="45.2858" lon="5.77799">
        <ele>1559.2</ele>
        <time>2020-01-31T15:07:17Z</time>
      </trkpt>
      <trkpt lat="45.2858" lon="5.778">
        <ele>1559.4</ele>
        <time>2020-01-31T15:07:18Z</time>
      </trkpt>
      <trkpt lat="45.28581" lon="5.778">
        <ele>1559.4</ele>
        <time>2020-01-31T15:07:19Z</time>
      </trkpt>
      <trkpt lat="45.28581" lon="5.77801">
        <ele>1560</ele>
        <time>2020-01-31T15:07:20Z</time>
      </trkpt>
      <trkpt lat="45.28581" lon="5.77802">
        <ele>1559.6</ele>
        <time>2020-01-31T15:07:21Z</time>
      </trkpt>
      <trkpt lat="45.28582" lon="5.77804">
        <ele>1560</ele>
        <time>2020-01-31T15:07:22Z</time>
      </trkpt>
      <trkpt lat="45.28582" lon="5.77805">
        <ele>1560.4</ele>
        <time>2020-01-31T15:07:23Z</time>
      </trkpt>
      <trkpt lat="45.28583" lon="5.77806">
        <ele>1561</ele>
        <time>2020-01-31T15:07:24Z</time>
      </trkpt>
      <trkpt lat="45.28583" lon="5.77808">
        <ele>1561.2</ele>
        <time>2020-01-31T15:07:25Z</time>
      </trkpt>
      <trkpt lat="45.28584" lon="5.77809">
        <ele>1561.4</ele>
        <time>2020-01-31T15:07:26Z</time>
      </trkpt>
      <trkpt lat="45.28584" lon="5.7781">
        <ele>1561.4</ele>
        <time>2020-01-31T15:07:27Z</time>
      </trkpt>
      <trkpt lat="45.28585" lon="5.77811">
        <ele>1562</ele>
        <time>2020-01-31T15:07:28Z</time>
      </trkpt>
      <trkpt lat="45.28585" lon="5.77813">
        <ele>1561.8</ele>
        <time>2020-01-31T15:07:29Z</time>
      </trkpt>
      <trkpt lat="45.28585" lon="5.77814">
        <ele>1562</ele>
        <time>2020-01-31T15:07:30Z</time>
      </trkpt>
      <trkpt lat="45.28585" lon="5.77815">
        <ele>1562.2</ele>
        <time>2020-01-31T15:07:31Z</time>
      </trkpt>
      <trkpt lat="45.28585" lon="5.77817">
        <ele>1562.4</ele>
        <time>2020-01-31T15:07:32Z</time>
      </trkpt>
      <trkpt lat="45.28585" lon="5.77818">
        <ele>1562.6</ele>
        <time>2020-01-31T15:07:33Z</time>
      </trkpt>
      <trkpt lat="45.28585" lon="5.7782">
        <ele>1562.8</ele>
        <time>2020-01-31T15:07:34Z</time>
      </trkpt>
      <trkpt lat="45.28585" lon="5.77821">
        <ele>1562.8</ele>
        <time>2020-01-31T15:07:35Z</time>
      </trkpt>
      <trkpt lat="45.28585" lon="5.77822">
        <ele>1563.2</ele>
        <time>2020-01-31T15:07:36Z</time>
      </trkpt>
      <trkpt lat="45.28585" lon="5.77824">
        <ele>1563</ele>
        <time>2020-01-31T15:07:37Z</time>
      </trkpt>
      <trkpt lat="45.28585" lon="5.77825">
        <ele>1563.2</ele>
        <time>2020-01-31T15:07:38Z</time>
      </trkpt>
      <trkpt lat="45.28585" lon="5.77826">
        <ele>1563.4</ele>
        <time>2020-01-31T15:07:39Z</time>
      </trkpt>
      <trkpt lat="45.28585" lon="5.77827">
        <ele>1564</ele>
        <time>2020-01-31T15:07:40Z</time>
      </trkpt>
      <trkpt lat="45.28586" lon="5.77828">
        <ele>1564.2</ele>
        <time>2020-01-31T15:07:41Z</time>
      </trkpt>
      <trkpt lat="45.28586" lon="5.77828">
        <ele>1564.6</ele>
        <time>2020-01-31T15:07:42Z</time>
      </trkpt>
      <trkpt lat="45.28587" lon="5.77829">
        <ele>1565</ele>
        <time>2020-01-31T15:07:43Z</time>
      </trkpt>
      <trkpt lat="45.28587" lon="5.7783">
        <ele>1565.2</ele>
        <time>2020-01-31T15:07:44Z</time>
      </trkpt>
      <trkpt lat="45.28587" lon="5.77831">
        <ele>1565.2</ele>
        <time>2020-01-31T15:07:45Z</time>
      </trkpt>
      <trkpt lat="45.28588" lon="5.77831">
        <ele>1565.2</ele>
        <time>2020-01-31T15:07:46Z</time>
      </trkpt>
      <trkpt lat="45.28588" lon="5.77832">
        <ele>1565.6</ele>
        <time>2020-01-31T15:07:47Z</time>
      </trkpt>
      <trkpt lat="45.28589" lon="5.77833">
        <ele>1566</ele>
        <time>2020-01-31T15:07:48Z</time>
      </trkpt>
      <trkpt lat="45.28589" lon="5.77833">
        <ele>1566</ele>
        <time>2020-01-31T15:07:49Z</time>
      </trkpt>
      <trkpt lat="45.28589" lon="5.77834">
        <ele>1565.8</ele>
        <time>2020-01-31T15:07:50Z</time>
      </trkpt>
      <trkpt lat="45.2859" lon="5.77835">
        <ele>1566</ele>
        <time>2020-01-31T15:07:51Z</time>
      </trkpt>
      <trkpt lat="45.2859" lon="5.77835">
        <ele>1566.4</ele>
        <time>2020-01-31T15:07:52Z</time>
      </trkpt>
      <trkpt lat="45.28591" lon="5.77836">
        <ele>1566.6</ele>
        <time>2020-01-31T15:07:53Z</time>
      </trkpt>
      <trkpt lat="45.28591" lon="5.77837">
        <ele>1567</ele>
        <time>2020-01-31T15:07:54Z</time>
      </trkpt>
      <trkpt lat="45.28592" lon="5.77838">
        <ele>1567.6</ele>
        <time>2020-01-31T15:07:55Z</time>
      </trkpt>
      <trkpt lat="45.28592" lon="5.77838">
        <ele>1567.6</ele>
        <time>2020-01-31T15:07:56Z</time>
      </trkpt>
      <trkpt lat="45.28592" lon="5.77839">
        <ele>1567.8</ele>
        <time>2020-01-31T15:07:57Z</time>
      </trkpt>
      <trkpt lat="45.28593" lon="5.7784">
        <ele>1568</ele>
        <time>2020-01-31T15:07:58Z</time>
      </trkpt>
      <trkpt lat="45.28593" lon="5.77841">
        <ele>1568</ele>
        <time>2020-01-31T15:07:59Z</time>
      </trkpt>
      <trkpt lat="45.28594" lon="5.77841">
        <ele>1568.2</ele>
        <time>2020-01-31T15:08:00Z</time>
      </trkpt>
      <trkpt lat="45.28594" lon="5.77842">
        <ele>1568.4</ele>
        <time>2020-01-31T15:08:01Z</time>
      </trkpt>
      <trkpt lat="45.28595" lon="5.77843">
        <ele>1568.6</ele>
        <time>2020-01-31T15:08:02Z</time>
      </trkpt>
      <trkpt lat="45.28595" lon="5.77844">
        <ele>1569.2</ele>
        <time>2020-01-31T15:08:03Z</time>
      </trkpt>
      <trkpt lat="45.28595" lon="5.77844">
        <ele>1569.2</ele>
        <time>2020-01-31T15:08:04Z</time>
      </trkpt>
      <trkpt lat="45.28596" lon="5.77845">
        <ele>1569.4</ele>
        <time>2020-01-31T15:08:05Z</time>
      </trkpt>
      <trkpt lat="45.28596" lon="5.77846">
        <ele>1569.8</ele>
        <time>2020-01-31T15:08:06Z</time>
      </trkpt>
      <trkpt lat="45.28597" lon="5.77847">
        <ele>1570</ele>
        <time>2020-01-31T15:08:07Z</time>
      </trkpt>
      <trkpt lat="45.28597" lon="5.77847">
        <ele>1570.4</ele>
        <time>2020-01-31T15:08:08Z</time>
      </trkpt>
      <trkpt lat="45.28598" lon="5.77848">
        <ele>1570.2</ele>
        <time>2020-01-31T15:08:09Z</time>
      </trkpt>
      <trkpt lat="45.28598" lon="5.77849">
        <ele>1570.4</ele>
        <time>2020-01-31T15:08:10Z</time>
      </trkpt>
      <trkpt lat="45.28599" lon="5.7785">
        <ele>1570.8</ele>
        <time>2020-01-31T15:08:11Z</time>
      </trkpt>
      <trkpt lat="45.28599" lon="5.77851">
        <ele>1571</ele>
        <time>2020-01-31T15:08:12Z</time>
      </trkpt>
      <trkpt lat="45.286" lon="5.77851">
        <ele>1571.4</ele>
        <time>2020-01-31T15:08:13Z</time>
      </trkpt>
      <trkpt lat="45.286" lon="5.77852">
        <ele>1571.8</ele>
        <time>2020-01-31T15:08:14Z</time>
      </trkpt>
      <trkpt lat="45.28601" lon="5.77853">
        <ele>1571.8</ele>
        <time>2020-01-31T15:08:15Z</time>
      </trkpt>
      <trkpt lat="45.28601" lon="5.77854">
        <ele>1572.2</ele>
        <time>2020-01-31T15:08:16Z</time>
      </trkpt>
      <trkpt lat="45.28602" lon="5.77855">
        <ele>1572.4</ele>
        <time>2020-01-31T15:08:17Z</time>
      </trkpt>
      <trkpt lat="45.28602" lon="5.77856">
        <ele>1572.6</ele>
        <time>2020-01-31T15:08:18Z</time>
      </trkpt>
      <trkpt lat="45.28603" lon="5.77856">
        <ele>1572.8</ele>
        <time>2020-01-31T15:08:19Z</time>
      </trkpt>
      <trkpt lat="45.28603" lon="5.77857">
        <ele>1573.2</ele>
        <time>2020-01-31T15:08:20Z</time>
      </trkpt>
      <trkpt lat="45.28604" lon="5.77858">
        <ele>1573.2</ele>
        <time>2020-01-31T15:08:21Z</time>
      </trkpt>
      <trkpt lat="45.28604" lon="5.77858">
        <ele>1573.6</ele>
        <time>2020-01-31T15:08:22Z</time>
      </trkpt>
      <trkpt lat="45.28604" lon="5.77859">
        <ele>1573.4</ele>
        <time>2020-01-31T15:08:23Z</time>
      </trkpt>
      <trkpt lat="45.28605" lon="5.77859">
        <ele>1573.8</ele>
        <time>2020-01-31T15:08:24Z</time>
      </trkpt>
      <trkpt lat="45.28605" lon="5.7786">
        <ele>1574.2</ele>
        <time>2020-01-31T15:08:25Z</time>
      </trkpt>
      <trkpt lat="45.28606" lon="5.77861">
        <ele>1574.6</ele>
        <time>2020-01-31T15:08:26Z</time>
      </trkpt>
      <trkpt lat="45.28606" lon="5.77861">
        <ele>1574.8</ele>
        <time>2020-01-31T15:08:27Z</time>
      </trkpt>
      <trkpt lat="45.28606" lon="5.77862">
        <ele>1574.8</ele>
        <time>2020-01-31T15:08:28Z</time>
      </trkpt>
      <trkpt lat="45.28607" lon="5.77863">
        <ele>1575</ele>
        <time>2020-01-31T15:08:29Z</time>
      </trkpt>
      <trkpt lat="45.28607" lon="5.77863">
        <ele>1575.4</ele>
        <time>2020-01-31T15:08:30Z</time>
      </trkpt>
      <trkpt lat="45.28608" lon="5.77864">
        <ele>1575.8</ele>
        <time>2020-01-31T15:08:31Z</time>
      </trkpt>
      <trkpt lat="45.28608" lon="5.77864">
        <ele>1576</ele>
        <time>2020-01-31T15:08:32Z</time>
      </trkpt>
      <trkpt lat="45.28609" lon="5.77865">
        <ele>1576.4</ele>
        <time>2020-01-31T15:08:33Z</time>
      </trkpt>
      <trkpt lat="45.28609" lon="5.77866">
        <ele>1576.6</ele>
        <time>2020-01-31T15:08:34Z</time>
      </trkpt>
      <trkpt lat="45.28609" lon="5.77867">
        <ele>1577.2</ele>
        <time>2020-01-31T15:08:35Z</time>
      </trkpt>
      <trkpt lat="45.2861" lon="5.77868">
        <ele>1576.8</ele>
        <time>2020-01-31T15:08:36Z</time>
      </trkpt>
      <trkpt lat="45.2861" lon="5.77869">
        <ele>1577</ele>
        <time>2020-01-31T15:08:37Z</time>
      </trkpt>
      <trkpt lat="45.28611" lon="5.7787">
        <ele>1577.4</ele>
        <time>2020-01-31T15:08:38Z</time>
      </trkpt>
      <trkpt lat="45.28611" lon="5.77871">
        <ele>1577.6</ele>
        <time>2020-01-31T15:08:39Z</time>
      </trkpt>
      <trkpt lat="45.28612" lon="5.77872">
        <ele>1577.8</ele>
        <time>2020-01-31T15:08:40Z</time>
      </trkpt>
      <trkpt lat="45.28613" lon="5.77873">
        <ele>1578</ele>
        <time>2020-01-31T15:08:41Z</time>
      </trkpt>
      <trkpt lat="45.28613" lon="5.77874">
        <ele>1578.4</ele>
        <time>2020-01-31T15:08:42Z</time>
      </trkpt>
      <trkpt lat="45.28614" lon="5.77875">
        <ele>1578.6</ele>
        <time>2020-01-31T15:08:43Z</time>
      </trkpt>
      <trkpt lat="45.28614" lon="5.77876">
        <ele>1579</ele>
        <time>2020-01-31T15:08:44Z</time>
      </trkpt>
      <trkpt lat="45.28615" lon="5.77877">
        <ele>1579.6</ele>
        <time>2020-01-31T15:08:45Z</time>
      </trkpt>
      <trkpt lat="45.28615" lon="5.77878">
        <ele>1579.8</ele>
        <time>2020-01-31T15:08:46Z</time>
      </trkpt>
      <trkpt lat="45.28615" lon="5.77878">
        <ele>1580</ele>
        <time>2020-01-31T15:08:47Z</time>
      </trkpt>
      <trkpt lat="45.28616" lon="5.77878">
        <ele>1580.4</ele>
        <time>2020-01-31T15:08:48Z</time>
      </trkpt>
      <trkpt lat="45.28616" lon="5.77878">
        <ele>1580.8</ele>
        <time>2020-01-31T15:08:49Z</time>
      </trkpt>
      <trkpt lat="45.28616" lon="5.77879">
        <ele>1580.8</ele>
        <time>2020-01-31T15:08:50Z</time>
      </trkpt>
      <trkpt lat="45.28617" lon="5.77879">
        <ele>1581.2</ele>
        <time>2020-01-31T15:08:51Z</time>
      </trkpt>
      <trkpt lat="45.28617" lon="5.77879">
        <ele>1581.2</ele>
        <time>2020-01-31T15:08:52Z</time>
      </trkpt>
      <trkpt lat="45.28617" lon="5.7788">
        <ele>1581.4</ele>
        <time>2020-01-31T15:08:53Z</time>
      </trkpt>
      <trkpt lat="45.28618" lon="5.7788">
        <ele>1581.6</ele>
        <time>2020-01-31T15:08:54Z</time>
      </trkpt>
      <trkpt lat="45.28618" lon="5.7788">
        <ele>1582.2</ele>
        <time>2020-01-31T15:08:55Z</time>
      </trkpt>
      <trkpt lat="45.28618" lon="5.77881">
        <ele>1582.8</ele>
        <time>2020-01-31T15:08:56Z</time>
      </trkpt>
      <trkpt lat="45.28619" lon="5.77881">
        <ele>1582.8</ele>
        <time>2020-01-31T15:08:57Z</time>
      </trkpt>
      <trkpt lat="45.28619" lon="5.77881">
        <ele>1583.4</ele>
        <time>2020-01-31T15:08:58Z</time>
      </trkpt>
      <trkpt lat="45.28619" lon="5.77881">
        <ele>1583.6</ele>
        <time>2020-01-31T15:08:59Z</time>
      </trkpt>
      <trkpt lat="45.2862" lon="5.77882">
        <ele>1583.4</ele>
        <time>2020-01-31T15:09:00Z</time>
      </trkpt>
      <trkpt lat="45.2862" lon="5.77882">
        <ele>1583.8</ele>
        <time>2020-01-31T15:09:01Z</time>
      </trkpt>
      <trkpt lat="45.2862" lon="5.77882">
        <ele>1584.2</ele>
        <time>2020-01-31T15:09:02Z</time>
      </trkpt>
      <trkpt lat="45.2862" lon="5.77882">
        <ele>1584.2</ele>
        <time>2020-01-31T15:09:03Z</time>
      </trkpt>
      <trkpt lat="45.2862" lon="5.77885">
        <ele>1584.6</ele>
        <time>2020-01-31T15:09:04Z</time>
      </trkpt>
      <trkpt lat="45.2862" lon="5.77885">
        <ele>1585.2</ele>
        <time>2020-01-31T15:09:05Z</time>
      </trkpt>
      <trkpt lat="45.2862" lon="5.77885">
        <ele>1585.4</ele>
        <time>2020-01-31T15:09:06Z</time>
      </trkpt>
      <trkpt lat="45.2862" lon="5.77885">
        <ele>1585.4</ele>
        <time>2020-01-31T15:09:07Z</time>
      </trkpt>
      <trkpt lat="45.2862" lon="5.77885">
        <ele>1585.2</ele>
        <time>2020-01-31T15:09:08Z</time>
      </trkpt>
      <trkpt lat="45.28622" lon="5.77886">
        <ele>1585.6</ele>
        <time>2020-01-31T15:09:09Z</time>
      </trkpt>
      <trkpt lat="45.28622" lon="5.77886">
        <ele>1585.6</ele>
        <time>2020-01-31T15:09:10Z</time>
      </trkpt>
      <trkpt lat="45.28624" lon="5.77887">
        <ele>1585.6</ele>
        <time>2020-01-31T15:09:11Z</time>
      </trkpt>
      <trkpt lat="45.28624" lon="5.77887">
        <ele>1585.6</ele>
        <time>2020-01-31T15:09:12Z</time>
      </trkpt>
      <trkpt lat="45.28624" lon="5.77887">
        <ele>1585.8</ele>
        <time>2020-01-31T15:09:13Z</time>
      </trkpt>
      <trkpt lat="45.28626" lon="5.77887">
        <ele>1585.6</ele>
        <time>2020-01-31T15:09:14Z</time>
      </trkpt>
      <trkpt lat="45.28626" lon="5.77887">
        <ele>1585.8</ele>
        <time>2020-01-31T15:09:15Z</time>
      </trkpt>
      <trkpt lat="45.28628" lon="5.77888">
        <ele>1586.2</ele>
        <time>2020-01-31T15:09:16Z</time>
      </trkpt>
      <trkpt lat="45.28628" lon="5.77888">
        <ele>1586.6</ele>
        <time>2020-01-31T15:09:17Z</time>
      </trkpt>
      <trkpt lat="45.28628" lon="5.77888">
        <ele>1586.4</ele>
        <time>2020-01-31T15:09:18Z</time>
      </trkpt>
      <trkpt lat="45.2863" lon="5.77889">
        <ele>1586.8</ele>
        <time>2020-01-31T15:09:19Z</time>
      </trkpt>
      <trkpt lat="45.2863" lon="5.77889">
        <ele>1587</ele>
        <time>2020-01-31T15:09:20Z</time>
      </trkpt>
      <trkpt lat="45.2863" lon="5.77889">
        <ele>1586.8</ele>
        <time>2020-01-31T15:09:21Z</time>
      </trkpt>
      <trkpt lat="45.2863" lon="5.77889">
        <ele>1587.2</ele>
        <time>2020-01-31T15:09:22Z</time>
      </trkpt>
      <trkpt lat="45.2863" lon="5.77889">
        <ele>1587.6</ele>
        <time>2020-01-31T15:09:23Z</time>
      </trkpt>
      <trkpt lat="45.2863" lon="5.77889">
        <ele>1587.8</ele>
        <time>2020-01-31T15:09:24Z</time>
      </trkpt>
      <trkpt lat="45.28631" lon="5.7789">
        <ele>1588.2</ele>
        <time>2020-01-31T15:09:25Z</time>
      </trkpt>
      <trkpt lat="45.28631" lon="5.7789">
        <ele>1588.6</ele>
        <time>2020-01-31T15:09:26Z</time>
      </trkpt>
      <trkpt lat="45.28633" lon="5.77892">
        <ele>1588.8</ele>
        <time>2020-01-31T15:09:27Z</time>
      </trkpt>
      <trkpt lat="45.28633" lon="5.77892">
        <ele>1589.2</ele>
        <time>2020-01-31T15:09:28Z</time>
      </trkpt>
      <trkpt lat="45.28635" lon="5.77893">
        <ele>1589.4</ele>
        <time>2020-01-31T15:09:29Z</time>
      </trkpt>
      <trkpt lat="45.28635" lon="5.77893">
        <ele>1589.2</ele>
        <time>2020-01-31T15:09:30Z</time>
      </trkpt>
      <trkpt lat="45.28635" lon="5.77893">
        <ele>1589.4</ele>
        <time>2020-01-31T15:09:31Z</time>
      </trkpt>
      <trkpt lat="45.28637" lon="5.77895">
        <ele>1589.8</ele>
        <time>2020-01-31T15:09:32Z</time>
      </trkpt>
      <trkpt lat="45.28637" lon="5.77895">
        <ele>1589.8</ele>
        <time>2020-01-31T15:09:33Z</time>
      </trkpt>
      <trkpt lat="45.28637" lon="5.77895">
        <ele>1590.2</ele>
        <time>2020-01-31T15:09:34Z</time>
      </trkpt>
      <trkpt lat="45.28637" lon="5.77895">
        <ele>1590.4</ele>
        <time>2020-01-31T15:09:35Z</time>
      </trkpt>
      <trkpt lat="45.28639" lon="5.77897">
        <ele>1590.8</ele>
        <time>2020-01-31T15:09:36Z</time>
      </trkpt>
      <trkpt lat="45.2864" lon="5.77897">
        <ele>1590.8</ele>
        <time>2020-01-31T15:09:37Z</time>
      </trkpt>
      <trkpt lat="45.2864" lon="5.77898">
        <ele>1591</ele>
        <time>2020-01-31T15:09:38Z</time>
      </trkpt>
      <trkpt lat="45.28641" lon="5.77898">
        <ele>1591.2</ele>
        <time>2020-01-31T15:09:39Z</time>
      </trkpt>
      <trkpt lat="45.28642" lon="5.77898">
        <ele>1591.6</ele>
        <time>2020-01-31T15:09:40Z</time>
      </trkpt>
      <trkpt lat="45.28642" lon="5.77899">
        <ele>1592</ele>
        <time>2020-01-31T15:09:41Z</time>
      </trkpt>
      <trkpt lat="45.28643" lon="5.77899">
        <ele>1592</ele>
        <time>2020-01-31T15:09:42Z</time>
      </trkpt>
      <trkpt lat="45.28644" lon="5.77899">
        <ele>1592.2</ele>
        <time>2020-01-31T15:09:43Z</time>
      </trkpt>
      <trkpt lat="45.28645" lon="5.779">
        <ele>1592.8</ele>
        <time>2020-01-31T15:09:44Z</time>
      </trkpt>
      <trkpt lat="45.28645" lon="5.779">
        <ele>1592.8</ele>
        <time>2020-01-31T15:09:45Z</time>
      </trkpt>
      <trkpt lat="45.28646" lon="5.779">
        <ele>1593</ele>
        <time>2020-01-31T15:09:46Z</time>
      </trkpt>
      <trkpt lat="45.28645" lon="5.77901">
        <ele>1593.2</ele>
        <time>2020-01-31T15:09:47Z</time>
      </trkpt>
      <trkpt lat="45.28645" lon="5.77902">
        <ele>1593.4</ele>
        <time>2020-01-31T15:09:48Z</time>
      </trkpt>
      <trkpt lat="45.28644" lon="5.77902">
        <ele>1593.4</ele>
        <time>2020-01-31T15:09:49Z</time>
      </trkpt>
      <trkpt lat="45.28644" lon="5.77903">
        <ele>1593.8</ele>
        <time>2020-01-31T15:09:50Z</time>
      </trkpt>
      <trkpt lat="45.28643" lon="5.77904">
        <ele>1594.2</ele>
        <time>2020-01-31T15:09:51Z</time>
      </trkpt>
      <trkpt lat="45.28643" lon="5.77905">
        <ele>1594.2</ele>
        <time>2020-01-31T15:09:52Z</time>
      </trkpt>
      <trkpt lat="45.28642" lon="5.77905">
        <ele>1594.2</ele>
        <time>2020-01-31T15:09:53Z</time>
      </trkpt>
      <trkpt lat="45.28642" lon="5.77906">
        <ele>1594.6</ele>
        <time>2020-01-31T15:09:54Z</time>
      </trkpt>
      <trkpt lat="45.28641" lon="5.77907">
        <ele>1595</ele>
        <time>2020-01-31T15:09:55Z</time>
      </trkpt>
      <trkpt lat="45.28641" lon="5.77907">
        <ele>1595.6</ele>
        <time>2020-01-31T15:09:56Z</time>
      </trkpt>
      <trkpt lat="45.2864" lon="5.77908">
        <ele>1595.6</ele>
        <time>2020-01-31T15:09:57Z</time>
      </trkpt>
      <trkpt lat="45.2864" lon="5.77909">
        <ele>1596</ele>
        <time>2020-01-31T15:09:58Z</time>
      </trkpt>
      <trkpt lat="45.28639" lon="5.7791">
        <ele>1596.4</ele>
        <time>2020-01-31T15:09:59Z</time>
      </trkpt>
      <trkpt lat="45.28639" lon="5.7791">
        <ele>1596.6</ele>
        <time>2020-01-31T15:10:00Z</time>
      </trkpt>
      <trkpt lat="45.28639" lon="5.77911">
        <ele>1596.8</ele>
        <time>2020-01-31T15:10:01Z</time>
      </trkpt>
      <trkpt lat="45.28638" lon="5.77911">
        <ele>1596.8</ele>
        <time>2020-01-31T15:10:02Z</time>
      </trkpt>
      <trkpt lat="45.28638" lon="5.77912">
        <ele>1596.8</ele>
        <time>2020-01-31T15:10:03Z</time>
      </trkpt>
      <trkpt lat="45.28638" lon="5.77912">
        <ele>1596.6</ele>
        <time>2020-01-31T15:10:04Z</time>
      </trkpt>
      <trkpt lat="45.28637" lon="5.77913">
        <ele>1596.8</ele>
        <time>2020-01-31T15:10:05Z</time>
      </trkpt>
      <trkpt lat="45.28637" lon="5.77913">
        <ele>1597.2</ele>
        <time>2020-01-31T15:10:06Z</time>
      </trkpt>
      <trkpt lat="45.28637" lon="5.77914">
        <ele>1597</ele>
        <time>2020-01-31T15:10:07Z</time>
      </trkpt>
      <trkpt lat="45.28636" lon="5.77914">
        <ele>1597.2</ele>
        <time>2020-01-31T15:10:08Z</time>
      </trkpt>
      <trkpt lat="45.28636" lon="5.77915">
        <ele>1597.2</ele>
        <time>2020-01-31T15:10:09Z</time>
      </trkpt>
      <trkpt lat="45.28635" lon="5.77915">
        <ele>1597.8</ele>
        <time>2020-01-31T15:10:10Z</time>
      </trkpt>
      <trkpt lat="45.28635" lon="5.77916">
        <ele>1598.2</ele>
        <time>2020-01-31T15:10:11Z</time>
      </trkpt>
      <trkpt lat="45.28635" lon="5.77916">
        <ele>1598.2</ele>
        <time>2020-01-31T15:10:12Z</time>
      </trkpt>
      <trkpt lat="45.28634" lon="5.77917">
        <ele>1598.6</ele>
        <time>2020-01-31T15:10:13Z</time>
      </trkpt>
      <trkpt lat="45.28634" lon="5.77917">
        <ele>1599</ele>
        <time>2020-01-31T15:10:14Z</time>
      </trkpt>
      <trkpt lat="45.28634" lon="5.77918">
        <ele>1599.4</ele>
        <time>2020-01-31T15:10:15Z</time>
      </trkpt>
      <trkpt lat="45.28634" lon="5.77918">
        <ele>1599.2</ele>
        <time>2020-01-31T15:10:16Z</time>
      </trkpt>
      <trkpt lat="45.28634" lon="5.77918">
        <ele>1599.2</ele>
        <time>2020-01-31T15:10:17Z</time>
      </trkpt>
      <trkpt lat="45.28634" lon="5.77918">
        <ele>1599.8</ele>
        <time>2020-01-31T15:10:18Z</time>
      </trkpt>
      <trkpt lat="45.28634" lon="5.77918">
        <ele>1599.8</ele>
        <time>2020-01-31T15:10:19Z</time>
      </trkpt>
      <trkpt lat="45.28634" lon="5.77918">
        <ele>1600</ele>
        <time>2020-01-31T15:10:20Z</time>
      </trkpt>
      <trkpt lat="45.28631" lon="5.77922">
        <ele>1600.4</ele>
        <time>2020-01-31T15:10:21Z</time>
      </trkpt>
      <trkpt lat="45.28631" lon="5.77922">
        <ele>1600.6</ele>
        <time>2020-01-31T15:10:22Z</time>
      </trkpt>
      <trkpt lat="45.28631" lon="5.77922">
        <ele>1600.2</ele>
        <time>2020-01-31T15:10:23Z</time>
      </trkpt>
      <trkpt lat="45.28631" lon="5.77922">
        <ele>1600.2</ele>
        <time>2020-01-31T15:10:24Z</time>
      </trkpt>
      <trkpt lat="45.2863" lon="5.77924">
        <ele>1600</ele>
        <time>2020-01-31T15:10:25Z</time>
      </trkpt>
      <trkpt lat="45.2863" lon="5.77925">
        <ele>1600.4</ele>
        <time>2020-01-31T15:10:26Z</time>
      </trkpt>
      <trkpt lat="45.28629" lon="5.77925">
        <ele>1600.8</ele>
        <time>2020-01-31T15:10:27Z</time>
      </trkpt>
      <trkpt lat="45.28629" lon="5.77926">
        <ele>1601.2</ele>
        <time>2020-01-31T15:10:28Z</time>
      </trkpt>
      <trkpt lat="45.28628" lon="5.77927">
        <ele>1601.6</ele>
        <time>2020-01-31T15:10:29Z</time>
      </trkpt>
      <trkpt lat="45.28628" lon="5.77927">
        <ele>1602</ele>
        <time>2020-01-31T15:10:30Z</time>
      </trkpt>
      <trkpt lat="45.28627" lon="5.77928">
        <ele>1602.2</ele>
        <time>2020-01-31T15:10:31Z</time>
      </trkpt>
      <trkpt lat="45.28627" lon="5.77929">
        <ele>1602.2</ele>
        <time>2020-01-31T15:10:32Z</time>
      </trkpt>
      <trkpt lat="45.28627" lon="5.77929">
        <ele>1602.4</ele>
        <time>2020-01-31T15:10:33Z</time>
      </trkpt>
      <trkpt lat="45.28627" lon="5.77929">
        <ele>1602.4</ele>
        <time>2020-01-31T15:10:34Z</time>
      </trkpt>
      <trkpt lat="45.28627" lon="5.77929">
        <ele>1602.6</ele>
        <time>2020-01-31T15:10:35Z</time>
      </trkpt>
      <trkpt lat="45.28626" lon="5.77931">
        <ele>1602.4</ele>
        <time>2020-01-31T15:10:36Z</time>
      </trkpt>
      <trkpt lat="45.28625" lon="5.77932">
        <ele>1602.6</ele>
        <time>2020-01-31T15:10:37Z</time>
      </trkpt>
      <trkpt lat="45.28625" lon="5.77932">
        <ele>1603</ele>
        <time>2020-01-31T15:10:38Z</time>
      </trkpt>
      <trkpt lat="45.28624" lon="5.77933">
        <ele>1603.2</ele>
        <time>2020-01-31T15:10:39Z</time>
      </trkpt>
      <trkpt lat="45.28624" lon="5.77933">
        <ele>1603.2</ele>
        <time>2020-01-31T15:10:40Z</time>
      </trkpt>
      <trkpt lat="45.28623" lon="5.77934">
        <ele>1603.2</ele>
        <time>2020-01-31T15:10:41Z</time>
      </trkpt>
      <trkpt lat="45.28623" lon="5.77934">
        <ele>1603.4</ele>
        <time>2020-01-31T15:10:42Z</time>
      </trkpt>
      <trkpt lat="45.28623" lon="5.77935">
        <ele>1604</ele>
        <time>2020-01-31T15:10:43Z</time>
      </trkpt>
      <trkpt lat="45.28622" lon="5.77935">
        <ele>1604.2</ele>
        <time>2020-01-31T15:10:44Z</time>
      </trkpt>
      <trkpt lat="45.28622" lon="5.77936">
        <ele>1604.6</ele>
        <time>2020-01-31T15:10:45Z</time>
      </trkpt>
      <trkpt lat="45.28621" lon="5.77937">
        <ele>1604.4</ele>
        <time>2020-01-31T15:10:46Z</time>
      </trkpt>
      <trkpt lat="45.28621" lon="5.77937">
        <ele>1604.6</ele>
        <time>2020-01-31T15:10:47Z</time>
      </trkpt>
      <trkpt lat="45.2862" lon="5.77938">
        <ele>1605.4</ele>
        <time>2020-01-31T15:10:48Z</time>
      </trkpt>
      <trkpt lat="45.2862" lon="5.77938">
        <ele>1605.4</ele>
        <time>2020-01-31T15:10:49Z</time>
      </trkpt>
      <trkpt lat="45.28619" lon="5.77939">
        <ele>1605.4</ele>
        <time>2020-01-31T15:10:50Z</time>
      </trkpt>
      <trkpt lat="45.28619" lon="5.77939">
        <ele>1606</ele>
        <time>2020-01-31T15:10:51Z</time>
      </trkpt>
      <trkpt lat="45.28619" lon="5.7794">
        <ele>1606.2</ele>
        <time>2020-01-31T15:10:52Z</time>
      </trkpt>
      <trkpt lat="45.28618" lon="5.7794">
        <ele>1606.4</ele>
        <time>2020-01-31T15:10:53Z</time>
      </trkpt>
      <trkpt lat="45.28617" lon="5.77941">
        <ele>1606.6</ele>
        <time>2020-01-31T15:10:54Z</time>
      </trkpt>
      <trkpt lat="45.28616" lon="5.77942">
        <ele>1607</ele>
        <time>2020-01-31T15:10:55Z</time>
      </trkpt>
      <trkpt lat="45.28616" lon="5.77942">
        <ele>1607</ele>
        <time>2020-01-31T15:10:56Z</time>
      </trkpt>
      <trkpt lat="45.28615" lon="5.77943">
        <ele>1607.2</ele>
        <time>2020-01-31T15:10:57Z</time>
      </trkpt>
      <trkpt lat="45.28614" lon="5.77944">
        <ele>1607.6</ele>
        <time>2020-01-31T15:10:58Z</time>
      </trkpt>
      <trkpt lat="45.28613" lon="5.77944">
        <ele>1607.8</ele>
        <time>2020-01-31T15:10:59Z</time>
      </trkpt>
      <trkpt lat="45.28613" lon="5.77945">
        <ele>1607.8</ele>
        <time>2020-01-31T15:11:00Z</time>
      </trkpt>
      <trkpt lat="45.28612" lon="5.77946">
        <ele>1608.2</ele>
        <time>2020-01-31T15:11:01Z</time>
      </trkpt>
      <trkpt lat="45.28611" lon="5.77946">
        <ele>1608.8</ele>
        <time>2020-01-31T15:11:02Z</time>
      </trkpt>
      <trkpt lat="45.2861" lon="5.77947">
        <ele>1609.2</ele>
        <time>2020-01-31T15:11:03Z</time>
      </trkpt>
      <trkpt lat="45.2861" lon="5.77947">
        <ele>1609.4</ele>
        <time>2020-01-31T15:11:04Z</time>
      </trkpt>
      <trkpt lat="45.28609" lon="5.77948">
        <ele>1609.6</ele>
        <time>2020-01-31T15:11:05Z</time>
      </trkpt>
      <trkpt lat="45.28609" lon="5.77948">
        <ele>1609.8</ele>
        <time>2020-01-31T15:11:06Z</time>
      </trkpt>
      <trkpt lat="45.28608" lon="5.77949">
        <ele>1609.8</ele>
        <time>2020-01-31T15:11:07Z</time>
      </trkpt>
      <trkpt lat="45.28608" lon="5.7795">
        <ele>1610</ele>
        <time>2020-01-31T15:11:08Z</time>
      </trkpt>
      <trkpt lat="45.28607" lon="5.7795">
        <ele>1610.4</ele>
        <time>2020-01-31T15:11:09Z</time>
      </trkpt>
      <trkpt lat="45.28607" lon="5.77951">
        <ele>1611</ele>
        <time>2020-01-31T15:11:10Z</time>
      </trkpt>
      <trkpt lat="45.28606" lon="5.77951">
        <ele>1611.2</ele>
        <time>2020-01-31T15:11:11Z</time>
      </trkpt>
      <trkpt lat="45.28606" lon="5.77952">
        <ele>1611.2</ele>
        <time>2020-01-31T15:11:12Z</time>
      </trkpt>
      <trkpt lat="45.28605" lon="5.77952">
        <ele>1611.6</ele>
        <time>2020-01-31T15:11:13Z</time>
      </trkpt>
      <trkpt lat="45.28605" lon="5.77953">
        <ele>1611.4</ele>
        <time>2020-01-31T15:11:14Z</time>
      </trkpt>
      <trkpt lat="45.28604" lon="5.77953">
        <ele>1611.8</ele>
        <time>2020-01-31T15:11:15Z</time>
      </trkpt>
      <trkpt lat="45.28604" lon="5.77954">
        <ele>1612.2</ele>
        <time>2020-01-31T15:11:16Z</time>
      </trkpt>
      <trkpt lat="45.28603" lon="5.77954">
        <ele>1612.4</ele>
        <time>2020-01-31T15:11:17Z</time>
      </trkpt>
      <trkpt lat="45.28603" lon="5.77955">
        <ele>1612.6</ele>
        <time>2020-01-31T15:11:18Z</time>
      </trkpt>
      <trkpt lat="45.28602" lon="5.77956">
        <ele>1613</ele>
        <time>2020-01-31T15:11:19Z</time>
      </trkpt>
      <trkpt lat="45.28602" lon="5.77956">
        <ele>1613.2</ele>
        <time>2020-01-31T15:11:20Z</time>
      </trkpt>
      <trkpt lat="45.28601" lon="5.77957">
        <ele>1613.4</ele>
        <time>2020-01-31T15:11:21Z</time>
      </trkpt>
      <trkpt lat="45.28601" lon="5.77958">
        <ele>1613.8</ele>
        <time>2020-01-31T15:11:22Z</time>
      </trkpt>
      <trkpt lat="45.286" lon="5.77959">
        <ele>1613.8</ele>
        <time>2020-01-31T15:11:23Z</time>
      </trkpt>
      <trkpt lat="45.286" lon="5.7796">
        <ele>1613.8</ele>
        <time>2020-01-31T15:11:24Z</time>
      </trkpt>
      <trkpt lat="45.28599" lon="5.7796">
        <ele>1614</ele>
        <time>2020-01-31T15:11:25Z</time>
      </trkpt>
      <trkpt lat="45.28599" lon="5.77961">
        <ele>1614.2</ele>
        <time>2020-01-31T15:11:26Z</time>
      </trkpt>
      <trkpt lat="45.28599" lon="5.77962">
        <ele>1614.6</ele>
        <time>2020-01-31T15:11:27Z</time>
      </trkpt>
      <trkpt lat="45.28598" lon="5.77963">
        <ele>1614.8</ele>
        <time>2020-01-31T15:11:28Z</time>
      </trkpt>
      <trkpt lat="45.28598" lon="5.77964">
        <ele>1615.4</ele>
        <time>2020-01-31T15:11:29Z</time>
      </trkpt>
      <trkpt lat="45.28597" lon="5.77965">
        <ele>1615.8</ele>
        <time>2020-01-31T15:11:30Z</time>
      </trkpt>
      <trkpt lat="45.28596" lon="5.77965">
        <ele>1616</ele>
        <time>2020-01-31T15:11:31Z</time>
      </trkpt>
      <trkpt lat="45.28596" lon="5.77966">
        <ele>1616.6</ele>
        <time>2020-01-31T15:11:32Z</time>
      </trkpt>
      <trkpt lat="45.28595" lon="5.77966">
        <ele>1616.8</ele>
        <time>2020-01-31T15:11:33Z</time>
      </trkpt>
      <trkpt lat="45.28595" lon="5.77967">
        <ele>1617.2</ele>
        <time>2020-01-31T15:11:34Z</time>
      </trkpt>
      <trkpt lat="45.28594" lon="5.77967">
        <ele>1617.4</ele>
        <time>2020-01-31T15:11:35Z</time>
      </trkpt>
      <trkpt lat="45.28593" lon="5.77968">
        <ele>1617.4</ele>
        <time>2020-01-31T15:11:36Z</time>
      </trkpt>
      <trkpt lat="45.28593" lon="5.77968">
        <ele>1618.2</ele>
        <time>2020-01-31T15:11:37Z</time>
      </trkpt>
      <trkpt lat="45.28592" lon="5.77969">
        <ele>1618.6</ele>
        <time>2020-01-31T15:11:38Z</time>
      </trkpt>
      <trkpt lat="45.28592" lon="5.77969">
        <ele>1618.6</ele>
        <time>2020-01-31T15:11:39Z</time>
      </trkpt>
      <trkpt lat="45.28591" lon="5.7797">
        <ele>1618.6</ele>
        <time>2020-01-31T15:11:40Z</time>
      </trkpt>
      <trkpt lat="45.28591" lon="5.7797">
        <ele>1619</ele>
        <time>2020-01-31T15:11:41Z</time>
      </trkpt>
      <trkpt lat="45.2859" lon="5.77971">
        <ele>1619.2</ele>
        <time>2020-01-31T15:11:42Z</time>
      </trkpt>
      <trkpt lat="45.28589" lon="5.77971">
        <ele>1619.2</ele>
        <time>2020-01-31T15:11:43Z</time>
      </trkpt>
      <trkpt lat="45.28589" lon="5.77972">
        <ele>1619.4</ele>
        <time>2020-01-31T15:11:44Z</time>
      </trkpt>
      <trkpt lat="45.28587" lon="5.77971">
        <ele>1619.8</ele>
        <time>2020-01-31T15:11:45Z</time>
      </trkpt>
      <trkpt lat="45.28586" lon="5.77971">
        <ele>1620.2</ele>
        <time>2020-01-31T15:11:46Z</time>
      </trkpt>
      <trkpt lat="45.28584" lon="5.7797">
        <ele>1620.2</ele>
        <time>2020-01-31T15:11:47Z</time>
      </trkpt>
      <trkpt lat="45.28583" lon="5.7797">
        <ele>1620.8</ele>
        <time>2020-01-31T15:11:48Z</time>
      </trkpt>
      <trkpt lat="45.28581" lon="5.77969">
        <ele>1621.2</ele>
        <time>2020-01-31T15:11:49Z</time>
      </trkpt>
      <trkpt lat="45.28579" lon="5.77969">
        <ele>1621.4</ele>
        <time>2020-01-31T15:11:50Z</time>
      </trkpt>
      <trkpt lat="45.28579" lon="5.77969">
        <ele>1622</ele>
        <time>2020-01-31T15:11:51Z</time>
      </trkpt>
      <trkpt lat="45.28579" lon="5.77969">
        <ele>1622.2</ele>
        <time>2020-01-31T15:11:52Z</time>
      </trkpt>
      <trkpt lat="45.28579" lon="5.77969">
        <ele>1622</ele>
        <time>2020-01-31T15:11:53Z</time>
      </trkpt>
      <trkpt lat="45.28579" lon="5.77969">
        <ele>1622.6</ele>
        <time>2020-01-31T15:11:54Z</time>
      </trkpt>
      <trkpt lat="45.28579" lon="5.77969">
        <ele>1622.6</ele>
        <time>2020-01-31T15:11:55Z</time>
      </trkpt>
      <trkpt lat="45.28577" lon="5.77968">
        <ele>1622.8</ele>
        <time>2020-01-31T15:11:56Z</time>
      </trkpt>
      <trkpt lat="45.28577" lon="5.77968">
        <ele>1622.8</ele>
        <time>2020-01-31T15:11:57Z</time>
      </trkpt>
      <trkpt lat="45.28577" lon="5.77968">
        <ele>1623</ele>
        <time>2020-01-31T15:11:58Z</time>
      </trkpt>
      <trkpt lat="45.28577" lon="5.77968">
        <ele>1623.4</ele>
        <time>2020-01-31T15:11:59Z</time>
      </trkpt>
      <trkpt lat="45.28577" lon="5.77968">
        <ele>1623.4</ele>
        <time>2020-01-31T15:12:00Z</time>
      </trkpt>
      <trkpt lat="45.28577" lon="5.77968">
        <ele>1623.4</ele>
        <time>2020-01-31T15:12:01Z</time>
      </trkpt>
      <trkpt lat="45.28575" lon="5.7797">
        <ele>1623.6</ele>
        <time>2020-01-31T15:12:02Z</time>
      </trkpt>
      <trkpt lat="45.28575" lon="5.7797">
        <ele>1624</ele>
        <time>2020-01-31T15:12:03Z</time>
      </trkpt>
      <trkpt lat="45.28575" lon="5.7797">
        <ele>1623.8</ele>
        <time>2020-01-31T15:12:04Z</time>
      </trkpt>
      <trkpt lat="45.28575" lon="5.7797">
        <ele>1624.4</ele>
        <time>2020-01-31T15:12:05Z</time>
      </trkpt>
      <trkpt lat="45.28575" lon="5.7797">
        <ele>1625</ele>
        <time>2020-01-31T15:12:06Z</time>
      </trkpt>
      <trkpt lat="45.28575" lon="5.7797">
        <ele>1625.2</ele>
        <time>2020-01-31T15:12:07Z</time>
      </trkpt>
      <trkpt lat="45.28575" lon="5.7797">
        <ele>1625.2</ele>
        <time>2020-01-31T15:12:08Z</time>
      </trkpt>
      <trkpt lat="45.28575" lon="5.7797">
        <ele>1625.2</ele>
        <time>2020-01-31T15:12:09Z</time>
      </trkpt>
      <trkpt lat="45.28575" lon="5.7797">
        <ele>1625.4</ele>
        <time>2020-01-31T15:12:10Z</time>
      </trkpt>
      <trkpt lat="45.28575" lon="5.7797">
        <ele>1625.4</ele>
        <time>2020-01-31T15:12:11Z</time>
      </trkpt>
      <trkpt lat="45.28575" lon="5.7797">
        <ele>1625.4</ele>
        <time>2020-01-31T15:12:12Z</time>
      </trkpt>
      <trkpt lat="45.28575" lon="5.7797">
        <ele>1625.4</ele>
        <time>2020-01-31T15:12:13Z</time>
      </trkpt>
      <trkpt lat="45.28575" lon="5.7797">
        <ele>1625.2</ele>
        <time>2020-01-31T15:12:14Z</time>
      </trkpt>
      <trkpt lat="45.28575" lon="5.7797">
        <ele>1625.4</ele>
        <time>2020-01-31T15:12:15Z</time>
      </trkpt>
      <trkpt lat="45.28575" lon="5.7797">
        <ele>1625.8</ele>
        <time>2020-01-31T15:12:16Z</time>
      </trkpt>
      <trkpt lat="45.28575" lon="5.7797">
        <ele>1625.8</ele>
        <time>2020-01-31T15:12:17Z</time>
      </trkpt>
      <trkpt lat="45.28578" lon="5.77973">
        <ele>1626</ele>
        <time>2020-01-31T15:12:18Z</time>
      </trkpt>
      <trkpt lat="45.28578" lon="5.77973">
        <ele>1626.2</ele>
        <time>2020-01-31T15:12:19Z</time>
      </trkpt>
      <trkpt lat="45.28578" lon="5.77973">
        <ele>1626.4</ele>
        <time>2020-01-31T15:12:20Z</time>
      </trkpt>
      <trkpt lat="45.2858" lon="5.77974">
        <ele>1626.6</ele>
        <time>2020-01-31T15:12:21Z</time>
      </trkpt>
      <trkpt lat="45.2858" lon="5.77974">
        <ele>1627</ele>
        <time>2020-01-31T15:12:22Z</time>
      </trkpt>
      <trkpt lat="45.2858" lon="5.77974">
        <ele>1627.2</ele>
        <time>2020-01-31T15:12:23Z</time>
      </trkpt>
      <trkpt lat="45.2858" lon="5.77974">
        <ele>1627.6</ele>
        <time>2020-01-31T15:12:24Z</time>
      </trkpt>
      <trkpt lat="45.2858" lon="5.77974">
        <ele>1628.2</ele>
        <time>2020-01-31T15:12:25Z</time>
      </trkpt>
      <trkpt lat="45.2858" lon="5.77974">
        <ele>1628.4</ele>
        <time>2020-01-31T15:12:26Z</time>
      </trkpt>
      <trkpt lat="45.28581" lon="5.77979">
        <ele>1628.6</ele>
        <time>2020-01-31T15:12:27Z</time>
      </trkpt>
      <trkpt lat="45.28581" lon="5.7798">
        <ele>1628.8</ele>
        <time>2020-01-31T15:12:28Z</time>
      </trkpt>
      <trkpt lat="45.28582" lon="5.7798">
        <ele>1629</ele>
        <time>2020-01-31T15:12:29Z</time>
      </trkpt>
      <trkpt lat="45.28582" lon="5.77981">
        <ele>1628.8</ele>
        <time>2020-01-31T15:12:30Z</time>
      </trkpt>
      <trkpt lat="45.28583" lon="5.77982">
        <ele>1629.2</ele>
        <time>2020-01-31T15:12:31Z</time>
      </trkpt>
      <trkpt lat="45.28583" lon="5.77983">
        <ele>1629.4</ele>
        <time>2020-01-31T15:12:32Z</time>
      </trkpt>
      <trkpt lat="45.28583" lon="5.77984">
        <ele>1630</ele>
        <time>2020-01-31T15:12:33Z</time>
      </trkpt>
      <trkpt lat="45.28584" lon="5.77984">
        <ele>1630.6</ele>
        <time>2020-01-31T15:12:34Z</time>
      </trkpt>
      <trkpt lat="45.28584" lon="5.77985">
        <ele>1631.2</ele>
        <time>2020-01-31T15:12:35Z</time>
      </trkpt>
      <trkpt lat="45.28585" lon="5.77986">
        <ele>1631.6</ele>
        <time>2020-01-31T15:12:36Z</time>
      </trkpt>
      <trkpt lat="45.28585" lon="5.77987">
        <ele>1631.8</ele>
        <time>2020-01-31T15:12:37Z</time>
      </trkpt>
      <trkpt lat="45.28585" lon="5.77987">
        <ele>1631.8</ele>
        <time>2020-01-31T15:12:38Z</time>
      </trkpt>
      <trkpt lat="45.28586" lon="5.77988">
        <ele>1632.2</ele>
        <time>2020-01-31T15:12:39Z</time>
      </trkpt>
      <trkpt lat="45.28586" lon="5.77989">
        <ele>1632.4</ele>
        <time>2020-01-31T15:12:40Z</time>
      </trkpt>
      <trkpt lat="45.28586" lon="5.77989">
        <ele>1632.4</ele>
        <time>2020-01-31T15:12:41Z</time>
      </trkpt>
      <trkpt lat="45.28586" lon="5.77989">
        <ele>1632.6</ele>
        <time>2020-01-31T15:12:42Z</time>
      </trkpt>
      <trkpt lat="45.28586" lon="5.77989">
        <ele>1632.6</ele>
        <time>2020-01-31T15:12:43Z</time>
      </trkpt>
      <trkpt lat="45.28586" lon="5.77989">
        <ele>1632.4</ele>
        <time>2020-01-31T15:12:44Z</time>
      </trkpt>
      <trkpt lat="45.28586" lon="5.77989">
        <ele>1632.8</ele>
        <time>2020-01-31T15:12:45Z</time>
      </trkpt>
      <trkpt lat="45.28586" lon="5.77989">
        <ele>1633.2</ele>
        <time>2020-01-31T15:12:46Z</time>
      </trkpt>
      <trkpt lat="45.28588" lon="5.77993">
        <ele>1633.2</ele>
        <time>2020-01-31T15:12:47Z</time>
      </trkpt>
      <trkpt lat="45.28588" lon="5.77993">
        <ele>1633.2</ele>
        <time>2020-01-31T15:12:48Z</time>
      </trkpt>
      <trkpt lat="45.28588" lon="5.77993">
        <ele>1633.6</ele>
        <time>2020-01-31T15:12:49Z</time>
      </trkpt>
      <trkpt lat="45.28588" lon="5.77993">
        <ele>1633.8</ele>
        <time>2020-01-31T15:12:50Z</time>
      </trkpt>
      <trkpt lat="45.28588" lon="5.77993">
        <ele>1634</ele>
        <time>2020-01-31T15:12:51Z</time>
      </trkpt>
      <trkpt lat="45.28588" lon="5.77993">
        <ele>1634.2</ele>
        <time>2020-01-31T15:12:52Z</time>
      </trkpt>
      <trkpt lat="45.28588" lon="5.77998">
        <ele>1634.6</ele>
        <time>2020-01-31T15:12:53Z</time>
      </trkpt>
      <trkpt lat="45.28588" lon="5.77998">
        <ele>1634.6</ele>
        <time>2020-01-31T15:12:54Z</time>
      </trkpt>
      <trkpt lat="45.28588" lon="5.77998">
        <ele>1635</ele>
        <time>2020-01-31T15:12:55Z</time>
      </trkpt>
      <trkpt lat="45.28588" lon="5.77998">
        <ele>1634.8</ele>
        <time>2020-01-31T15:12:56Z</time>
      </trkpt>
      <trkpt lat="45.28589" lon="5.78">
        <ele>1635</ele>
        <time>2020-01-31T15:12:57Z</time>
      </trkpt>
      <trkpt lat="45.28589" lon="5.78">
        <ele>1635.4</ele>
        <time>2020-01-31T15:12:58Z</time>
      </trkpt>
      <trkpt lat="45.28589" lon="5.78">
        <ele>1635.8</ele>
        <time>2020-01-31T15:12:59Z</time>
      </trkpt>
      <trkpt lat="45.2859" lon="5.78001">
        <ele>1636</ele>
        <time>2020-01-31T15:13:00Z</time>
      </trkpt>
      <trkpt lat="45.2859" lon="5.78001">
        <ele>1636.6</ele>
        <time>2020-01-31T15:13:01Z</time>
      </trkpt>
      <trkpt lat="45.28592" lon="5.78003">
        <ele>1636.8</ele>
        <time>2020-01-31T15:13:02Z</time>
      </trkpt>
      <trkpt lat="45.28592" lon="5.78003">
        <ele>1636.8</ele>
        <time>2020-01-31T15:13:03Z</time>
      </trkpt>
      <trkpt lat="45.28592" lon="5.78003">
        <ele>1637.2</ele>
        <time>2020-01-31T15:13:04Z</time>
      </trkpt>
      <trkpt lat="45.28592" lon="5.78003">
        <ele>1637.4</ele>
        <time>2020-01-31T15:13:05Z</time>
      </trkpt>
      <trkpt lat="45.28594" lon="5.78005">
        <ele>1637.8</ele>
        <time>2020-01-31T15:13:06Z</time>
      </trkpt>
      <trkpt lat="45.28594" lon="5.78005">
        <ele>1637.8</ele>
        <time>2020-01-31T15:13:07Z</time>
      </trkpt>
      <trkpt lat="45.28594" lon="5.78005">
        <ele>1638</ele>
        <time>2020-01-31T15:13:08Z</time>
      </trkpt>
      <trkpt lat="45.28596" lon="5.78007">
        <ele>1638.2</ele>
        <time>2020-01-31T15:13:09Z</time>
      </trkpt>
      <trkpt lat="45.28596" lon="5.78007">
        <ele>1638.2</ele>
        <time>2020-01-31T15:13:10Z</time>
      </trkpt>
      <trkpt lat="45.28598" lon="5.78008">
        <ele>1638.4</ele>
        <time>2020-01-31T15:13:11Z</time>
      </trkpt>
      <trkpt lat="45.28598" lon="5.78008">
        <ele>1638.8</ele>
        <time>2020-01-31T15:13:12Z</time>
      </trkpt>
      <trkpt lat="45.28599" lon="5.78008">
        <ele>1638.8</ele>
        <time>2020-01-31T15:13:13Z</time>
      </trkpt>
      <trkpt lat="45.28599" lon="5.78008">
        <ele>1638.8</ele>
        <time>2020-01-31T15:13:14Z</time>
      </trkpt>
      <trkpt lat="45.28602" lon="5.78009">
        <ele>1639.2</ele>
        <time>2020-01-31T15:13:15Z</time>
      </trkpt>
      <trkpt lat="45.28602" lon="5.78009">
        <ele>1639.2</ele>
        <time>2020-01-31T15:13:16Z</time>
      </trkpt>
      <trkpt lat="45.28603" lon="5.7801">
        <ele>1639.2</ele>
        <time>2020-01-31T15:13:17Z</time>
      </trkpt>
      <trkpt lat="45.28603" lon="5.7801">
        <ele>1639.6</ele>
        <time>2020-01-31T15:13:18Z</time>
      </trkpt>
      <trkpt lat="45.28603" lon="5.7801">
        <ele>1639.6</ele>
        <time>2020-01-31T15:13:19Z</time>
      </trkpt>
      <trkpt lat="45.28605" lon="5.7801">
        <ele>1639.8</ele>
        <time>2020-01-31T15:13:20Z</time>
      </trkpt>
      <trkpt lat="45.28605" lon="5.7801">
        <ele>1639.8</ele>
        <time>2020-01-31T15:13:21Z</time>
      </trkpt>
      <trkpt lat="45.28605" lon="5.7801">
        <ele>1640</ele>
        <time>2020-01-31T15:13:22Z</time>
      </trkpt>
      <trkpt lat="45.28605" lon="5.7801">
        <ele>1640.4</ele>
        <time>2020-01-31T15:13:23Z</time>
      </trkpt>
      <trkpt lat="45.28608" lon="5.78013">
        <ele>1640.6</ele>
        <time>2020-01-31T15:13:24Z</time>
      </trkpt>
      <trkpt lat="45.28608" lon="5.78013">
        <ele>1640.8</ele>
        <time>2020-01-31T15:13:25Z</time>
      </trkpt>
      <trkpt lat="45.28608" lon="5.78013">
        <ele>1641</ele>
        <time>2020-01-31T15:13:26Z</time>
      </trkpt>
      <trkpt lat="45.2861" lon="5.78014">
        <ele>1641</ele>
        <time>2020-01-31T15:13:27Z</time>
      </trkpt>
      <trkpt lat="45.2861" lon="5.78014">
        <ele>1641.2</ele>
        <time>2020-01-31T15:13:28Z</time>
      </trkpt>
      <trkpt lat="45.2861" lon="5.78014">
        <ele>1641.6</ele>
        <time>2020-01-31T15:13:29Z</time>
      </trkpt>
      <trkpt lat="45.2861" lon="5.78014">
        <ele>1641.8</ele>
        <time>2020-01-31T15:13:30Z</time>
      </trkpt>
      <trkpt lat="45.28613" lon="5.78017">
        <ele>1642</ele>
        <time>2020-01-31T15:13:31Z</time>
      </trkpt>
      <trkpt lat="45.28613" lon="5.78017">
        <ele>1642.2</ele>
        <time>2020-01-31T15:13:32Z</time>
      </trkpt>
      <trkpt lat="45.28614" lon="5.78017">
        <ele>1642.4</ele>
        <time>2020-01-31T15:13:33Z</time>
      </trkpt>
      <trkpt lat="45.28614" lon="5.78017">
        <ele>1643</ele>
        <time>2020-01-31T15:13:34Z</time>
      </trkpt>
      <trkpt lat="45.28614" lon="5.78017">
        <ele>1643</ele>
        <time>2020-01-31T15:13:35Z</time>
      </trkpt>
      <trkpt lat="45.28617" lon="5.78018">
        <ele>1643</ele>
        <time>2020-01-31T15:13:36Z</time>
      </trkpt>
      <trkpt lat="45.28617" lon="5.78018">
        <ele>1643.2</ele>
        <time>2020-01-31T15:13:37Z</time>
      </trkpt>
      <trkpt lat="45.28617" lon="5.78018">
        <ele>1643.2</ele>
        <time>2020-01-31T15:13:38Z</time>
      </trkpt>
      <trkpt lat="45.28619" lon="5.78018">
        <ele>1643.6</ele>
        <time>2020-01-31T15:13:39Z</time>
      </trkpt>
      <trkpt lat="45.2862" lon="5.78018">
        <ele>1643.6</ele>
        <time>2020-01-31T15:13:40Z</time>
      </trkpt>
      <trkpt lat="45.28621" lon="5.78019">
        <ele>1643.8</ele>
        <time>2020-01-31T15:13:41Z</time>
      </trkpt>
      <trkpt lat="45.28622" lon="5.78019">
        <ele>1644.2</ele>
        <time>2020-01-31T15:13:42Z</time>
      </trkpt>
      <trkpt lat="45.28623" lon="5.78019">
        <ele>1644.2</ele>
        <time>2020-01-31T15:13:43Z</time>
      </trkpt>
      <trkpt lat="45.28624" lon="5.78019">
        <ele>1644.4</ele>
        <time>2020-01-31T15:13:44Z</time>
      </trkpt>
      <trkpt lat="45.28624" lon="5.7802">
        <ele>1644.4</ele>
        <time>2020-01-31T15:13:45Z</time>
      </trkpt>
      <trkpt lat="45.28625" lon="5.7802">
        <ele>1644.6</ele>
        <time>2020-01-31T15:13:46Z</time>
      </trkpt>
      <trkpt lat="45.28625" lon="5.7802">
        <ele>1645</ele>
        <time>2020-01-31T15:13:47Z</time>
      </trkpt>
      <trkpt lat="45.28625" lon="5.7802">
        <ele>1644.6</ele>
        <time>2020-01-31T15:13:48Z</time>
      </trkpt>
      <trkpt lat="45.28627" lon="5.78021">
        <ele>1644.8</ele>
        <time>2020-01-31T15:13:49Z</time>
      </trkpt>
      <trkpt lat="45.28627" lon="5.78021">
        <ele>1645.4</ele>
        <time>2020-01-31T15:13:50Z</time>
      </trkpt>
      <trkpt lat="45.28627" lon="5.78021">
        <ele>1645.6</ele>
        <time>2020-01-31T15:13:51Z</time>
      </trkpt>
      <trkpt lat="45.28629" lon="5.78022">
        <ele>1645.8</ele>
        <time>2020-01-31T15:13:52Z</time>
      </trkpt>
      <trkpt lat="45.2863" lon="5.78023">
        <ele>1646.2</ele>
        <time>2020-01-31T15:13:53Z</time>
      </trkpt>
      <trkpt lat="45.28631" lon="5.78023">
        <ele>1646.4</ele>
        <time>2020-01-31T15:13:54Z</time>
      </trkpt>
      <trkpt lat="45.28632" lon="5.78024">
        <ele>1646.8</ele>
        <time>2020-01-31T15:13:55Z</time>
      </trkpt>
      <trkpt lat="45.28633" lon="5.78025">
        <ele>1647</ele>
        <time>2020-01-31T15:13:56Z</time>
      </trkpt>
      <trkpt lat="45.28634" lon="5.78025">
        <ele>1647.2</ele>
        <time>2020-01-31T15:13:57Z</time>
      </trkpt>
      <trkpt lat="45.28634" lon="5.78025">
        <ele>1647.4</ele>
        <time>2020-01-31T15:13:58Z</time>
      </trkpt>
      <trkpt lat="45.28635" lon="5.78026">
        <ele>1647.8</ele>
        <time>2020-01-31T15:13:59Z</time>
      </trkpt>
      <trkpt lat="45.28636" lon="5.78026">
        <ele>1647.8</ele>
        <time>2020-01-31T15:14:00Z</time>
      </trkpt>
      <trkpt lat="45.28637" lon="5.78026">
        <ele>1647.8</ele>
        <time>2020-01-31T15:14:01Z</time>
      </trkpt>
      <trkpt lat="45.28637" lon="5.78026">
        <ele>1647.8</ele>
        <time>2020-01-31T15:14:02Z</time>
      </trkpt>
      <trkpt lat="45.2864" lon="5.78026">
        <ele>1648.2</ele>
        <time>2020-01-31T15:14:03Z</time>
      </trkpt>
      <trkpt lat="45.2864" lon="5.78026">
        <ele>1648</ele>
        <time>2020-01-31T15:14:04Z</time>
      </trkpt>
      <trkpt lat="45.2864" lon="5.78026">
        <ele>1648.4</ele>
        <time>2020-01-31T15:14:05Z</time>
      </trkpt>
      <trkpt lat="45.28643" lon="5.78026">
        <ele>1649.2</ele>
        <time>2020-01-31T15:14:06Z</time>
      </trkpt>
      <trkpt lat="45.28643" lon="5.78026">
        <ele>1649</ele>
        <time>2020-01-31T15:14:07Z</time>
      </trkpt>
      <trkpt lat="45.28645" lon="5.78026">
        <ele>1649.2</ele>
        <time>2020-01-31T15:14:08Z</time>
      </trkpt>
      <trkpt lat="45.28645" lon="5.78026">
        <ele>1649.6</ele>
        <time>2020-01-31T15:14:09Z</time>
      </trkpt>
      <trkpt lat="45.28647" lon="5.78026">
        <ele>1649.6</ele>
        <time>2020-01-31T15:14:10Z</time>
      </trkpt>
      <trkpt lat="45.28647" lon="5.78026">
        <ele>1649.8</ele>
        <time>2020-01-31T15:14:11Z</time>
      </trkpt>
      <trkpt lat="45.28649" lon="5.78027">
        <ele>1650.4</ele>
        <time>2020-01-31T15:14:12Z</time>
      </trkpt>
      <trkpt lat="45.28649" lon="5.78027">
        <ele>1650.4</ele>
        <time>2020-01-31T15:14:13Z</time>
      </trkpt>
      <trkpt lat="45.28651" lon="5.78027">
        <ele>1650.4</ele>
        <time>2020-01-31T15:14:14Z</time>
      </trkpt>
      <trkpt lat="45.28651" lon="5.78027">
        <ele>1650.4</ele>
        <time>2020-01-31T15:14:15Z</time>
      </trkpt>
      <trkpt lat="45.28651" lon="5.78027">
        <ele>1650.4</ele>
        <time>2020-01-31T15:14:16Z</time>
      </trkpt>
      <trkpt lat="45.28651" lon="5.78027">
        <ele>1650.6</ele>
        <time>2020-01-31T15:14:17Z</time>
      </trkpt>
      <trkpt lat="45.28654" lon="5.78026">
        <ele>1650.8</ele>
        <time>2020-01-31T15:14:18Z</time>
      </trkpt>
      <trkpt lat="45.28654" lon="5.78026">
        <ele>1650.8</ele>
        <time>2020-01-31T15:14:19Z</time>
      </trkpt>
      <trkpt lat="45.28654" lon="5.78026">
        <ele>1651</ele>
        <time>2020-01-31T15:14:20Z</time>
      </trkpt>
      <trkpt lat="45.28657" lon="5.78027">
        <ele>1651.2</ele>
        <time>2020-01-31T15:14:21Z</time>
      </trkpt>
      <trkpt lat="45.28657" lon="5.78027">
        <ele>1651.4</ele>
        <time>2020-01-31T15:14:22Z</time>
      </trkpt>
      <trkpt lat="45.28657" lon="5.78027">
        <ele>1651.8</ele>
        <time>2020-01-31T15:14:23Z</time>
      </trkpt>
      <trkpt lat="45.2866" lon="5.78027">
        <ele>1652</ele>
        <time>2020-01-31T15:14:24Z</time>
      </trkpt>
      <trkpt lat="45.2866" lon="5.78027">
        <ele>1652</ele>
        <time>2020-01-31T15:14:25Z</time>
      </trkpt>
      <trkpt lat="45.28662" lon="5.78026">
        <ele>1652.4</ele>
        <time>2020-01-31T15:14:26Z</time>
      </trkpt>
      <trkpt lat="45.28662" lon="5.78026">
        <ele>1652.2</ele>
        <time>2020-01-31T15:14:27Z</time>
      </trkpt>
      <trkpt lat="45.28664" lon="5.78025">
        <ele>1652.2</ele>
        <time>2020-01-31T15:14:28Z</time>
      </trkpt>
      <trkpt lat="45.28664" lon="5.78025">
        <ele>1652.4</ele>
        <time>2020-01-31T15:14:29Z</time>
      </trkpt>
      <trkpt lat="45.28666" lon="5.78024">
        <ele>1652.8</ele>
        <time>2020-01-31T15:14:30Z</time>
      </trkpt>
      <trkpt lat="45.28666" lon="5.78024">
        <ele>1653</ele>
        <time>2020-01-31T15:14:31Z</time>
      </trkpt>
      <trkpt lat="45.28667" lon="5.78024">
        <ele>1652.8</ele>
        <time>2020-01-31T15:14:32Z</time>
      </trkpt>
      <trkpt lat="45.28667" lon="5.78024">
        <ele>1652.8</ele>
        <time>2020-01-31T15:14:33Z</time>
      </trkpt>
      <trkpt lat="45.28669" lon="5.78024">
        <ele>1653.2</ele>
        <time>2020-01-31T15:14:34Z</time>
      </trkpt>
      <trkpt lat="45.28669" lon="5.78024">
        <ele>1653.4</ele>
        <time>2020-01-31T15:14:35Z</time>
      </trkpt>
      <trkpt lat="45.28669" lon="5.78024">
        <ele>1653.6</ele>
        <time>2020-01-31T15:14:36Z</time>
      </trkpt>
      <trkpt lat="45.28672" lon="5.78023">
        <ele>1653.6</ele>
        <time>2020-01-31T15:14:37Z</time>
      </trkpt>
      <trkpt lat="45.28672" lon="5.78023">
        <ele>1653.8</ele>
        <time>2020-01-31T15:14:38Z</time>
      </trkpt>
      <trkpt lat="45.28672" lon="5.78023">
        <ele>1654.4</ele>
        <time>2020-01-31T15:14:39Z</time>
      </trkpt>
      <trkpt lat="45.28672" lon="5.78023">
        <ele>1654.8</ele>
        <time>2020-01-31T15:14:40Z</time>
      </trkpt>
      <trkpt lat="45.28674" lon="5.78022">
        <ele>1655</ele>
        <time>2020-01-31T15:14:41Z</time>
      </trkpt>
      <trkpt lat="45.28674" lon="5.78022">
        <ele>1655.2</ele>
        <time>2020-01-31T15:14:42Z</time>
      </trkpt>
      <trkpt lat="45.28674" lon="5.78022">
        <ele>1655.2</ele>
        <time>2020-01-31T15:14:43Z</time>
      </trkpt>
      <trkpt lat="45.28674" lon="5.78022">
        <ele>1655.6</ele>
        <time>2020-01-31T15:14:44Z</time>
      </trkpt>
      <trkpt lat="45.28677" lon="5.78022">
        <ele>1655.8</ele>
        <time>2020-01-31T15:14:45Z</time>
      </trkpt>
      <trkpt lat="45.28677" lon="5.78022">
        <ele>1655.8</ele>
        <time>2020-01-31T15:14:46Z</time>
      </trkpt>
      <trkpt lat="45.28677" lon="5.78022">
        <ele>1656</ele>
        <time>2020-01-31T15:14:47Z</time>
      </trkpt>
      <trkpt lat="45.28679" lon="5.78021">
        <ele>1656.2</ele>
        <time>2020-01-31T15:14:48Z</time>
      </trkpt>
      <trkpt lat="45.28679" lon="5.78021">
        <ele>1656.4</ele>
        <time>2020-01-31T15:14:49Z</time>
      </trkpt>
      <trkpt lat="45.28679" lon="5.78021">
        <ele>1656.8</ele>
        <time>2020-01-31T15:14:50Z</time>
      </trkpt>
      <trkpt lat="45.28681" lon="5.7802">
        <ele>1656.8</ele>
        <time>2020-01-31T15:14:51Z</time>
      </trkpt>
      <trkpt lat="45.28681" lon="5.7802">
        <ele>1657.2</ele>
        <time>2020-01-31T15:14:52Z</time>
      </trkpt>
      <trkpt lat="45.28681" lon="5.7802">
        <ele>1657.2</ele>
        <time>2020-01-31T15:14:53Z</time>
      </trkpt>
      <trkpt lat="45.28683" lon="5.7802">
        <ele>1657.2</ele>
        <time>2020-01-31T15:14:54Z</time>
      </trkpt>
      <trkpt lat="45.28683" lon="5.7802">
        <ele>1657.6</ele>
        <time>2020-01-31T15:14:55Z</time>
      </trkpt>
      <trkpt lat="45.28683" lon="5.7802">
        <ele>1658</ele>
        <time>2020-01-31T15:14:56Z</time>
      </trkpt>
      <trkpt lat="45.28685" lon="5.78019">
        <ele>1658.4</ele>
        <time>2020-01-31T15:14:57Z</time>
      </trkpt>
      <trkpt lat="45.28685" lon="5.78019">
        <ele>1658.6</ele>
        <time>2020-01-31T15:14:58Z</time>
      </trkpt>
      <trkpt lat="45.28685" lon="5.78019">
        <ele>1659</ele>
        <time>2020-01-31T15:14:59Z</time>
      </trkpt>
      <trkpt lat="45.28687" lon="5.7802">
        <ele>1659.4</ele>
        <time>2020-01-31T15:15:00Z</time>
      </trkpt>
      <trkpt lat="45.28687" lon="5.7802">
        <ele>1659.4</ele>
        <time>2020-01-31T15:15:01Z</time>
      </trkpt>
      <trkpt lat="45.28687" lon="5.7802">
        <ele>1659.4</ele>
        <time>2020-01-31T15:15:02Z</time>
      </trkpt>
      <trkpt lat="45.28687" lon="5.7802">
        <ele>1659.6</ele>
        <time>2020-01-31T15:15:03Z</time>
      </trkpt>
      <trkpt lat="45.28689" lon="5.7802">
        <ele>1660</ele>
        <time>2020-01-31T15:15:04Z</time>
      </trkpt>
      <trkpt lat="45.28689" lon="5.7802">
        <ele>1660.4</ele>
        <time>2020-01-31T15:15:05Z</time>
      </trkpt>
      <trkpt lat="45.28689" lon="5.7802">
        <ele>1660.4</ele>
        <time>2020-01-31T15:15:06Z</time>
      </trkpt>
      <trkpt lat="45.28691" lon="5.78021">
        <ele>1660.8</ele>
        <time>2020-01-31T15:15:07Z</time>
      </trkpt>
      <trkpt lat="45.28691" lon="5.78021">
        <ele>1660.6</ele>
        <time>2020-01-31T15:15:08Z</time>
      </trkpt>
      <trkpt lat="45.28691" lon="5.78021">
        <ele>1660.6</ele>
        <time>2020-01-31T15:15:09Z</time>
      </trkpt>
      <trkpt lat="45.28693" lon="5.78022">
        <ele>1660.8</ele>
        <time>2020-01-31T15:15:10Z</time>
      </trkpt>
      <trkpt lat="45.28693" lon="5.78022">
        <ele>1661</ele>
        <time>2020-01-31T15:15:11Z</time>
      </trkpt>
      <trkpt lat="45.28693" lon="5.78022">
        <ele>1661.2</ele>
        <time>2020-01-31T15:15:12Z</time>
      </trkpt>
      <trkpt lat="45.28695" lon="5.78023">
        <ele>1661.2</ele>
        <time>2020-01-31T15:15:13Z</time>
      </trkpt>
      <trkpt lat="45.28695" lon="5.78023">
        <ele>1661.4</ele>
        <time>2020-01-31T15:15:14Z</time>
      </trkpt>
      <trkpt lat="45.28695" lon="5.78023">
        <ele>1662</ele>
        <time>2020-01-31T15:15:15Z</time>
      </trkpt>
      <trkpt lat="45.28697" lon="5.78025">
        <ele>1662.4</ele>
        <time>2020-01-31T15:15:16Z</time>
      </trkpt>
      <trkpt lat="45.28697" lon="5.78025">
        <ele>1662.4</ele>
        <time>2020-01-31T15:15:17Z</time>
      </trkpt>
      <trkpt lat="45.28697" lon="5.78025">
        <ele>1662.6</ele>
        <time>2020-01-31T15:15:18Z</time>
      </trkpt>
      <trkpt lat="45.28698" lon="5.78026">
        <ele>1662.8</ele>
        <time>2020-01-31T15:15:19Z</time>
      </trkpt>
      <trkpt lat="45.28698" lon="5.78026">
        <ele>1663.2</ele>
        <time>2020-01-31T15:15:20Z</time>
      </trkpt>
      <trkpt lat="45.28698" lon="5.78026">
        <ele>1663.4</ele>
        <time>2020-01-31T15:15:21Z</time>
      </trkpt>
      <trkpt lat="45.28698" lon="5.78026">
        <ele>1663.6</ele>
        <time>2020-01-31T15:15:22Z</time>
      </trkpt>
      <trkpt lat="45.287" lon="5.78028">
        <ele>1663.6</ele>
        <time>2020-01-31T15:15:23Z</time>
      </trkpt>
      <trkpt lat="45.287" lon="5.78028">
        <ele>1663.8</ele>
        <time>2020-01-31T15:15:24Z</time>
      </trkpt>
      <trkpt lat="45.287" lon="5.78028">
        <ele>1664.2</ele>
        <time>2020-01-31T15:15:25Z</time>
      </trkpt>
      <trkpt lat="45.28702" lon="5.78029">
        <ele>1664</ele>
        <time>2020-01-31T15:15:26Z</time>
      </trkpt>
      <trkpt lat="45.28702" lon="5.78029">
        <ele>1664.4</ele>
        <time>2020-01-31T15:15:27Z</time>
      </trkpt>
      <trkpt lat="45.28702" lon="5.78029">
        <ele>1664.8</ele>
        <time>2020-01-31T15:15:28Z</time>
      </trkpt>
      <trkpt lat="45.28703" lon="5.78031">
        <ele>1664.8</ele>
        <time>2020-01-31T15:15:29Z</time>
      </trkpt>
      <trkpt lat="45.28703" lon="5.78031">
        <ele>1665.4</ele>
        <time>2020-01-31T15:15:30Z</time>
      </trkpt>
      <trkpt lat="45.28703" lon="5.78031">
        <ele>1665.6</ele>
        <time>2020-01-31T15:15:31Z</time>
      </trkpt>
      <trkpt lat="45.28703" lon="5.78031">
        <ele>1665.8</ele>
        <time>2020-01-31T15:15:32Z</time>
      </trkpt>
      <trkpt lat="45.28703" lon="5.78031">
        <ele>1665.6</ele>
        <time>2020-01-31T15:15:33Z</time>
      </trkpt>
      <trkpt lat="45.28703" lon="5.78031">
        <ele>1666</ele>
        <time>2020-01-31T15:15:34Z</time>
      </trkpt>
      <trkpt lat="45.28703" lon="5.78031">
        <ele>1666.2</ele>
        <time>2020-01-31T15:15:35Z</time>
      </trkpt>
      <trkpt lat="45.28705" lon="5.78033">
        <ele>1666.4</ele>
        <time>2020-01-31T15:15:36Z</time>
      </trkpt>
      <trkpt lat="45.28705" lon="5.78033">
        <ele>1667</ele>
        <time>2020-01-31T15:15:37Z</time>
      </trkpt>
      <trkpt lat="45.28705" lon="5.78033">
        <ele>1667.2</ele>
        <time>2020-01-31T15:15:38Z</time>
      </trkpt>
      <trkpt lat="45.28705" lon="5.78033">
        <ele>1667.4</ele>
        <time>2020-01-31T15:15:39Z</time>
      </trkpt>
      <trkpt lat="45.28707" lon="5.78035">
        <ele>1667.8</ele>
        <time>2020-01-31T15:15:40Z</time>
      </trkpt>
      <trkpt lat="45.28707" lon="5.78035">
        <ele>1668</ele>
        <time>2020-01-31T15:15:41Z</time>
      </trkpt>
      <trkpt lat="45.28709" lon="5.78037">
        <ele>1668.2</ele>
        <time>2020-01-31T15:15:42Z</time>
      </trkpt>
      <trkpt lat="45.28709" lon="5.78037">
        <ele>1668.2</ele>
        <time>2020-01-31T15:15:43Z</time>
      </trkpt>
      <trkpt lat="45.28709" lon="5.78037">
        <ele>1668.2</ele>
        <time>2020-01-31T15:15:44Z</time>
      </trkpt>
      <trkpt lat="45.28711" lon="5.78039">
        <ele>1668.2</ele>
        <time>2020-01-31T15:15:45Z</time>
      </trkpt>
      <trkpt lat="45.28711" lon="5.78039">
        <ele>1668.6</ele>
        <time>2020-01-31T15:15:46Z</time>
      </trkpt>
      <trkpt lat="45.28711" lon="5.78039">
        <ele>1669</ele>
        <time>2020-01-31T15:15:47Z</time>
      </trkpt>
      <trkpt lat="45.28713" lon="5.78041">
        <ele>1669.2</ele>
        <time>2020-01-31T15:15:48Z</time>
      </trkpt>
      <trkpt lat="45.28713" lon="5.78041">
        <ele>1669.4</ele>
        <time>2020-01-31T15:15:49Z</time>
      </trkpt>
      <trkpt lat="45.28713" lon="5.78041">
        <ele>1669.4</ele>
        <time>2020-01-31T15:15:50Z</time>
      </trkpt>
      <trkpt lat="45.28713" lon="5.78041">
        <ele>1669.6</ele>
        <time>2020-01-31T15:15:51Z</time>
      </trkpt>
      <trkpt lat="45.28715" lon="5.78043">
        <ele>1670</ele>
        <time>2020-01-31T15:15:52Z</time>
      </trkpt>
      <trkpt lat="45.28715" lon="5.78043">
        <ele>1670.2</ele>
        <time>2020-01-31T15:15:53Z</time>
      </trkpt>
      <trkpt lat="45.28715" lon="5.78043">
        <ele>1670.4</ele>
        <time>2020-01-31T15:15:54Z</time>
      </trkpt>
      <trkpt lat="45.28717" lon="5.78045">
        <ele>1670.6</ele>
        <time>2020-01-31T15:15:55Z</time>
      </trkpt>
      <trkpt lat="45.28717" lon="5.78045">
        <ele>1671</ele>
        <time>2020-01-31T15:15:56Z</time>
      </trkpt>
      <trkpt lat="45.28717" lon="5.78045">
        <ele>1671.4</ele>
        <time>2020-01-31T15:15:57Z</time>
      </trkpt>
      <trkpt lat="45.28718" lon="5.78047">
        <ele>1671.4</ele>
        <time>2020-01-31T15:15:58Z</time>
      </trkpt>
      <trkpt lat="45.28718" lon="5.78047">
        <ele>1671.6</ele>
        <time>2020-01-31T15:15:59Z</time>
      </trkpt>
      <trkpt lat="45.28718" lon="5.78047">
        <ele>1672</ele>
        <time>2020-01-31T15:16:00Z</time>
      </trkpt>
      <trkpt lat="45.2872" lon="5.78048">
        <ele>1672.2</ele>
        <time>2020-01-31T15:16:01Z</time>
      </trkpt>
      <trkpt lat="45.2872" lon="5.78048">
        <ele>1672.6</ele>
        <time>2020-01-31T15:16:02Z</time>
      </trkpt>
      <trkpt lat="45.2872" lon="5.78048">
        <ele>1672.4</ele>
        <time>2020-01-31T15:16:03Z</time>
      </trkpt>
      <trkpt lat="45.2872" lon="5.78048">
        <ele>1672.8</ele>
        <time>2020-01-31T15:16:04Z</time>
      </trkpt>
      <trkpt lat="45.28722" lon="5.78051">
        <ele>1673.2</ele>
        <time>2020-01-31T15:16:05Z</time>
      </trkpt>
      <trkpt lat="45.28722" lon="5.78051">
        <ele>1673.4</ele>
        <time>2020-01-31T15:16:06Z</time>
      </trkpt>
      <trkpt lat="45.28723" lon="5.78053">
        <ele>1673.8</ele>
        <time>2020-01-31T15:16:07Z</time>
      </trkpt>
      <trkpt lat="45.28723" lon="5.78053">
        <ele>1674.2</ele>
        <time>2020-01-31T15:16:08Z</time>
      </trkpt>
      <trkpt lat="45.28725" lon="5.78055">
        <ele>1674.4</ele>
        <time>2020-01-31T15:16:09Z</time>
      </trkpt>
      <trkpt lat="45.28725" lon="5.78055">
        <ele>1674.6</ele>
        <time>2020-01-31T15:16:10Z</time>
      </trkpt>
      <trkpt lat="45.28725" lon="5.78055">
        <ele>1674.8</ele>
        <time>2020-01-31T15:16:11Z</time>
      </trkpt>
      <trkpt lat="45.28725" lon="5.78055">
        <ele>1674.8</ele>
        <time>2020-01-31T15:16:12Z</time>
      </trkpt>
      <trkpt lat="45.28726" lon="5.78056">
        <ele>1674.8</ele>
        <time>2020-01-31T15:16:13Z</time>
      </trkpt>
      <trkpt lat="45.28726" lon="5.78056">
        <ele>1675.2</ele>
        <time>2020-01-31T15:16:14Z</time>
      </trkpt>
      <trkpt lat="45.28726" lon="5.78056">
        <ele>1675.6</ele>
        <time>2020-01-31T15:16:15Z</time>
      </trkpt>
      <trkpt lat="45.28726" lon="5.78056">
        <ele>1675.6</ele>
        <time>2020-01-31T15:16:16Z</time>
      </trkpt>
      <trkpt lat="45.28728" lon="5.78059">
        <ele>1676</ele>
        <time>2020-01-31T15:16:17Z</time>
      </trkpt>
      <trkpt lat="45.28728" lon="5.78059">
        <ele>1676</ele>
        <time>2020-01-31T15:16:18Z</time>
      </trkpt>
      <trkpt lat="45.28728" lon="5.78059">
        <ele>1676.8</ele>
        <time>2020-01-31T15:16:19Z</time>
      </trkpt>
      <trkpt lat="45.28729" lon="5.78062">
        <ele>1677</ele>
        <time>2020-01-31T15:16:20Z</time>
      </trkpt>
      <trkpt lat="45.28729" lon="5.78062">
        <ele>1677.2</ele>
        <time>2020-01-31T15:16:21Z</time>
      </trkpt>
      <trkpt lat="45.28729" lon="5.78062">
        <ele>1677.4</ele>
        <time>2020-01-31T15:16:22Z</time>
      </trkpt>
      <trkpt lat="45.28729" lon="5.78062">
        <ele>1677.4</ele>
        <time>2020-01-31T15:16:23Z</time>
      </trkpt>
      <trkpt lat="45.28731" lon="5.78064">
        <ele>1677.6</ele>
        <time>2020-01-31T15:16:24Z</time>
      </trkpt>
      <trkpt lat="45.28731" lon="5.78064">
        <ele>1677.4</ele>
        <time>2020-01-31T15:16:25Z</time>
      </trkpt>
      <trkpt lat="45.28731" lon="5.78064">
        <ele>1677.4</ele>
        <time>2020-01-31T15:16:26Z</time>
      </trkpt>
      <trkpt lat="45.28733" lon="5.78066">
        <ele>1677.8</ele>
        <time>2020-01-31T15:16:27Z</time>
      </trkpt>
      <trkpt lat="45.28733" lon="5.78066">
        <ele>1678.2</ele>
        <time>2020-01-31T15:16:28Z</time>
      </trkpt>
      <trkpt lat="45.28733" lon="5.78066">
        <ele>1678.6</ele>
        <time>2020-01-31T15:16:29Z</time>
      </trkpt>
      <trkpt lat="45.28734" lon="5.78068">
        <ele>1678.8</ele>
        <time>2020-01-31T15:16:30Z</time>
      </trkpt>
      <trkpt lat="45.28734" lon="5.78068">
        <ele>1678.8</ele>
        <time>2020-01-31T15:16:31Z</time>
      </trkpt>
      <trkpt lat="45.28734" lon="5.78068">
        <ele>1679.2</ele>
        <time>2020-01-31T15:16:32Z</time>
      </trkpt>
      <trkpt lat="45.28734" lon="5.78068">
        <ele>1679.4</ele>
        <time>2020-01-31T15:16:33Z</time>
      </trkpt>
      <trkpt lat="45.28734" lon="5.78068">
        <ele>1680</ele>
        <time>2020-01-31T15:16:34Z</time>
      </trkpt>
      <trkpt lat="45.28734" lon="5.78068">
        <ele>1680.4</ele>
        <time>2020-01-31T15:16:35Z</time>
      </trkpt>
      <trkpt lat="45.28734" lon="5.78068">
        <ele>1680.4</ele>
        <time>2020-01-31T15:16:36Z</time>
      </trkpt>
      <trkpt lat="45.28734" lon="5.78071">
        <ele>1681</ele>
        <time>2020-01-31T15:16:37Z</time>
      </trkpt>
      <trkpt lat="45.28734" lon="5.78071">
        <ele>1681.2</ele>
        <time>2020-01-31T15:16:38Z</time>
      </trkpt>
      <trkpt lat="45.28734" lon="5.78071">
        <ele>1681.2</ele>
        <time>2020-01-31T15:16:39Z</time>
      </trkpt>
      <trkpt lat="45.28731" lon="5.78072">
        <ele>1681.8</ele>
        <time>2020-01-31T15:16:40Z</time>
      </trkpt>
      <trkpt lat="45.28731" lon="5.78072">
        <ele>1682.2</ele>
        <time>2020-01-31T15:16:41Z</time>
      </trkpt>
      <trkpt lat="45.28731" lon="5.78072">
        <ele>1682.2</ele>
        <time>2020-01-31T15:16:42Z</time>
      </trkpt>
      <trkpt lat="45.28731" lon="5.78072">
        <ele>1682</ele>
        <time>2020-01-31T15:16:43Z</time>
      </trkpt>
      <trkpt lat="45.28729" lon="5.78073">
        <ele>1682.6</ele>
        <time>2020-01-31T15:16:44Z</time>
      </trkpt>
      <trkpt lat="45.28729" lon="5.78073">
        <ele>1683.2</ele>
        <time>2020-01-31T15:16:45Z</time>
      </trkpt>
      <trkpt lat="45.28727" lon="5.78075">
        <ele>1683</ele>
        <time>2020-01-31T15:16:46Z</time>
      </trkpt>
      <trkpt lat="45.28727" lon="5.78075">
        <ele>1683.6</ele>
        <time>2020-01-31T15:16:47Z</time>
      </trkpt>
      <trkpt lat="45.28727" lon="5.78075">
        <ele>1684</ele>
        <time>2020-01-31T15:16:48Z</time>
      </trkpt>
      <trkpt lat="45.28727" lon="5.78075">
        <ele>1684</ele>
        <time>2020-01-31T15:16:49Z</time>
      </trkpt>
      <trkpt lat="45.28725" lon="5.78076">
        <ele>1684.2</ele>
        <time>2020-01-31T15:16:50Z</time>
      </trkpt>
      <trkpt lat="45.28725" lon="5.78076">
        <ele>1684.4</ele>
        <time>2020-01-31T15:16:51Z</time>
      </trkpt>
      <trkpt lat="45.28725" lon="5.78076">
        <ele>1684.4</ele>
        <time>2020-01-31T15:16:52Z</time>
      </trkpt>
      <trkpt lat="45.28723" lon="5.78078">
        <ele>1684.8</ele>
        <time>2020-01-31T15:16:53Z</time>
      </trkpt>
      <trkpt lat="45.28723" lon="5.78078">
        <ele>1685.2</ele>
        <time>2020-01-31T15:16:54Z</time>
      </trkpt>
      <trkpt lat="45.28723" lon="5.78078">
        <ele>1685.4</ele>
        <time>2020-01-31T15:16:55Z</time>
      </trkpt>
      <trkpt lat="45.28723" lon="5.78078">
        <ele>1685.2</ele>
        <time>2020-01-31T15:16:56Z</time>
      </trkpt>
      <trkpt lat="45.28721" lon="5.7808">
        <ele>1685</ele>
        <time>2020-01-31T15:16:57Z</time>
      </trkpt>
      <trkpt lat="45.28721" lon="5.7808">
        <ele>1685.2</ele>
        <time>2020-01-31T15:16:58Z</time>
      </trkpt>
      <trkpt lat="45.28721" lon="5.7808">
        <ele>1685.8</ele>
        <time>2020-01-31T15:16:59Z</time>
      </trkpt>
      <trkpt lat="45.28719" lon="5.78081">
        <ele>1686</ele>
        <time>2020-01-31T15:17:00Z</time>
      </trkpt>
      <trkpt lat="45.28719" lon="5.78081">
        <ele>1686.2</ele>
        <time>2020-01-31T15:17:01Z</time>
      </trkpt>
      <trkpt lat="45.28719" lon="5.78081">
        <ele>1686.6</ele>
        <time>2020-01-31T15:17:02Z</time>
      </trkpt>
      <trkpt lat="45.28717" lon="5.78083">
        <ele>1686.8</ele>
        <time>2020-01-31T15:17:03Z</time>
      </trkpt>
      <trkpt lat="45.28717" lon="5.78083">
        <ele>1686.6</ele>
        <time>2020-01-31T15:17:04Z</time>
      </trkpt>
      <trkpt lat="45.28717" lon="5.78083">
        <ele>1687</ele>
        <time>2020-01-31T15:17:05Z</time>
      </trkpt>
      <trkpt lat="45.28714" lon="5.78084">
        <ele>1687.2</ele>
        <time>2020-01-31T15:17:06Z</time>
      </trkpt>
      <trkpt lat="45.28714" lon="5.78084">
        <ele>1687.4</ele>
        <time>2020-01-31T15:17:07Z</time>
      </trkpt>
      <trkpt lat="45.28714" lon="5.78084">
        <ele>1687.6</ele>
        <time>2020-01-31T15:17:08Z</time>
      </trkpt>
      <trkpt lat="45.28714" lon="5.78084">
        <ele>1687.8</ele>
        <time>2020-01-31T15:17:09Z</time>
      </trkpt>
      <trkpt lat="45.28714" lon="5.78084">
        <ele>1688.2</ele>
        <time>2020-01-31T15:17:10Z</time>
      </trkpt>
      <trkpt lat="45.28714" lon="5.78084">
        <ele>1688.4</ele>
        <time>2020-01-31T15:17:11Z</time>
      </trkpt>
      <trkpt lat="45.28714" lon="5.78084">
        <ele>1688.6</ele>
        <time>2020-01-31T15:17:12Z</time>
      </trkpt>
      <trkpt lat="45.28714" lon="5.78084">
        <ele>1688.6</ele>
        <time>2020-01-31T15:17:13Z</time>
      </trkpt>
      <trkpt lat="45.28714" lon="5.78084">
        <ele>1688.8</ele>
        <time>2020-01-31T15:17:14Z</time>
      </trkpt>
      <trkpt lat="45.28715" lon="5.78087">
        <ele>1688.6</ele>
        <time>2020-01-31T15:17:15Z</time>
      </trkpt>
      <trkpt lat="45.28715" lon="5.78087">
        <ele>1688.8</ele>
        <time>2020-01-31T15:17:16Z</time>
      </trkpt>
      <trkpt lat="45.28715" lon="5.78087">
        <ele>1689.2</ele>
        <time>2020-01-31T15:17:17Z</time>
      </trkpt>
      <trkpt lat="45.28715" lon="5.78087">
        <ele>1689.2</ele>
        <time>2020-01-31T15:17:18Z</time>
      </trkpt>
      <trkpt lat="45.28715" lon="5.78087">
        <ele>1689.6</ele>
        <time>2020-01-31T15:17:19Z</time>
      </trkpt>
      <trkpt lat="45.28715" lon="5.78087">
        <ele>1689.6</ele>
        <time>2020-01-31T15:17:20Z</time>
      </trkpt>
      <trkpt lat="45.28716" lon="5.7809">
        <ele>1690</ele>
        <time>2020-01-31T15:17:21Z</time>
      </trkpt>
      <trkpt lat="45.28716" lon="5.7809">
        <ele>1690.4</ele>
        <time>2020-01-31T15:17:22Z</time>
      </trkpt>
      <trkpt lat="45.28716" lon="5.7809">
        <ele>1690.8</ele>
        <time>2020-01-31T15:17:23Z</time>
      </trkpt>
      <trkpt lat="45.28716" lon="5.7809">
        <ele>1691</ele>
        <time>2020-01-31T15:17:24Z</time>
      </trkpt>
      <trkpt lat="45.28714" lon="5.78091">
        <ele>1691.4</ele>
        <time>2020-01-31T15:17:25Z</time>
      </trkpt>
      <trkpt lat="45.28714" lon="5.78091">
        <ele>1691.8</ele>
        <time>2020-01-31T15:17:26Z</time>
      </trkpt>
      <trkpt lat="45.28714" lon="5.78091">
        <ele>1691.8</ele>
        <time>2020-01-31T15:17:27Z</time>
      </trkpt>
      <trkpt lat="45.28712" lon="5.78093">
        <ele>1691.8</ele>
        <time>2020-01-31T15:17:28Z</time>
      </trkpt>
      <trkpt lat="45.28712" lon="5.78093">
        <ele>1692.2</ele>
        <time>2020-01-31T15:17:29Z</time>
      </trkpt>
      <trkpt lat="45.28712" lon="5.78093">
        <ele>1692.6</ele>
        <time>2020-01-31T15:17:30Z</time>
      </trkpt>
      <trkpt lat="45.2871" lon="5.78094">
        <ele>1692.4</ele>
        <time>2020-01-31T15:17:31Z</time>
      </trkpt>
      <trkpt lat="45.2871" lon="5.78094">
        <ele>1692.8</ele>
        <time>2020-01-31T15:17:32Z</time>
      </trkpt>
      <trkpt lat="45.28708" lon="5.78095">
        <ele>1693</ele>
        <time>2020-01-31T15:17:33Z</time>
      </trkpt>
      <trkpt lat="45.28708" lon="5.78095">
        <ele>1693</ele>
        <time>2020-01-31T15:17:34Z</time>
      </trkpt>
      <trkpt lat="45.28708" lon="5.78095">
        <ele>1693.6</ele>
        <time>2020-01-31T15:17:35Z</time>
      </trkpt>
      <trkpt lat="45.28706" lon="5.78097">
        <ele>1693.8</ele>
        <time>2020-01-31T15:17:36Z</time>
      </trkpt>
      <trkpt lat="45.28706" lon="5.78097">
        <ele>1693.8</ele>
        <time>2020-01-31T15:17:37Z</time>
      </trkpt>
      <trkpt lat="45.28704" lon="5.78099">
        <ele>1693.8</ele>
        <time>2020-01-31T15:17:38Z</time>
      </trkpt>
      <trkpt lat="45.28704" lon="5.78099">
        <ele>1694.2</ele>
        <time>2020-01-31T15:17:39Z</time>
      </trkpt>
      <trkpt lat="45.28704" lon="5.78099">
        <ele>1694.4</ele>
        <time>2020-01-31T15:17:40Z</time>
      </trkpt>
      <trkpt lat="45.28703" lon="5.78102">
        <ele>1695.2</ele>
        <time>2020-01-31T15:17:41Z</time>
      </trkpt>
      <trkpt lat="45.28703" lon="5.78102">
        <ele>1695.4</ele>
        <time>2020-01-31T15:17:42Z</time>
      </trkpt>
      <trkpt lat="45.28703" lon="5.78102">
        <ele>1695.6</ele>
        <time>2020-01-31T15:17:43Z</time>
      </trkpt>
      <trkpt lat="45.28701" lon="5.78104">
        <ele>1695.4</ele>
        <time>2020-01-31T15:17:44Z</time>
      </trkpt>
      <trkpt lat="45.28701" lon="5.78104">
        <ele>1695.6</ele>
        <time>2020-01-31T15:17:45Z</time>
      </trkpt>
      <trkpt lat="45.28701" lon="5.78104">
        <ele>1696</ele>
        <time>2020-01-31T15:17:46Z</time>
      </trkpt>
      <trkpt lat="45.28701" lon="5.78104">
        <ele>1696.2</ele>
        <time>2020-01-31T15:17:47Z</time>
      </trkpt>
      <trkpt lat="45.28699" lon="5.78105">
        <ele>1696.4</ele>
        <time>2020-01-31T15:17:48Z</time>
      </trkpt>
      <trkpt lat="45.28699" lon="5.78105">
        <ele>1697</ele>
        <time>2020-01-31T15:17:49Z</time>
      </trkpt>
      <trkpt lat="45.28699" lon="5.78105">
        <ele>1697</ele>
        <time>2020-01-31T15:17:50Z</time>
      </trkpt>
      <trkpt lat="45.28699" lon="5.78105">
        <ele>1697.2</ele>
        <time>2020-01-31T15:17:51Z</time>
      </trkpt>
      <trkpt lat="45.28698" lon="5.78107">
        <ele>1697.8</ele>
        <time>2020-01-31T15:17:52Z</time>
      </trkpt>
      <trkpt lat="45.28698" lon="5.78107">
        <ele>1697.6</ele>
        <time>2020-01-31T15:17:53Z</time>
      </trkpt>
      <trkpt lat="45.28698" lon="5.78107">
        <ele>1697.6</ele>
        <time>2020-01-31T15:17:54Z</time>
      </trkpt>
      <trkpt lat="45.28698" lon="5.78107">
        <ele>1698</ele>
        <time>2020-01-31T15:17:55Z</time>
      </trkpt>
      <trkpt lat="45.28698" lon="5.78107">
        <ele>1698.2</ele>
        <time>2020-01-31T15:17:56Z</time>
      </trkpt>
      <trkpt lat="45.28696" lon="5.7811">
        <ele>1698.4</ele>
        <time>2020-01-31T15:17:57Z</time>
      </trkpt>
      <trkpt lat="45.28696" lon="5.7811">
        <ele>1698.4</ele>
        <time>2020-01-31T15:17:58Z</time>
      </trkpt>
      <trkpt lat="45.28696" lon="5.7811">
        <ele>1698.6</ele>
        <time>2020-01-31T15:17:59Z</time>
      </trkpt>
      <trkpt lat="45.28696" lon="5.7811">
        <ele>1698.8</ele>
        <time>2020-01-31T15:18:00Z</time>
      </trkpt>
      <trkpt lat="45.28695" lon="5.78113">
        <ele>1699.2</ele>
        <time>2020-01-31T15:18:01Z</time>
      </trkpt>
      <trkpt lat="45.28695" lon="5.78113">
        <ele>1699.2</ele>
        <time>2020-01-31T15:18:02Z</time>
      </trkpt>
      <trkpt lat="45.28695" lon="5.78113">
        <ele>1699.6</ele>
        <time>2020-01-31T15:18:03Z</time>
      </trkpt>
      <trkpt lat="45.28695" lon="5.78113">
        <ele>1700</ele>
        <time>2020-01-31T15:18:04Z</time>
      </trkpt>
      <trkpt lat="45.28695" lon="5.78113">
        <ele>1700</ele>
        <time>2020-01-31T15:18:05Z</time>
      </trkpt>
      <trkpt lat="45.28695" lon="5.78113">
        <ele>1699.8</ele>
        <time>2020-01-31T15:18:06Z</time>
      </trkpt>
      <trkpt lat="45.28698" lon="5.78114">
        <ele>1699.6</ele>
        <time>2020-01-31T15:18:07Z</time>
      </trkpt>
      <trkpt lat="45.28698" lon="5.78114">
        <ele>1699.6</ele>
        <time>2020-01-31T15:18:08Z</time>
      </trkpt>
      <trkpt lat="45.28698" lon="5.78114">
        <ele>1700</ele>
        <time>2020-01-31T15:18:09Z</time>
      </trkpt>
      <trkpt lat="45.287" lon="5.78114">
        <ele>1700</ele>
        <time>2020-01-31T15:18:10Z</time>
      </trkpt>
      <trkpt lat="45.287" lon="5.78114">
        <ele>1700.4</ele>
        <time>2020-01-31T15:18:11Z</time>
      </trkpt>
      <trkpt lat="45.287" lon="5.78114">
        <ele>1700.2</ele>
        <time>2020-01-31T15:18:12Z</time>
      </trkpt>
      <trkpt lat="45.287" lon="5.78114">
        <ele>1700.6</ele>
        <time>2020-01-31T15:18:13Z</time>
      </trkpt>
      <trkpt lat="45.287" lon="5.78114">
        <ele>1700.8</ele>
        <time>2020-01-31T15:18:14Z</time>
      </trkpt>
      <trkpt lat="45.287" lon="5.78114">
        <ele>1701</ele>
        <time>2020-01-31T15:18:15Z</time>
      </trkpt>
      <trkpt lat="45.287" lon="5.78114">
        <ele>1701.4</ele>
        <time>2020-01-31T15:18:16Z</time>
      </trkpt>
      <trkpt lat="45.287" lon="5.78114">
        <ele>1701.6</ele>
        <time>2020-01-31T15:18:17Z</time>
      </trkpt>
      <trkpt lat="45.28701" lon="5.78117">
        <ele>1702.2</ele>
        <time>2020-01-31T15:18:18Z</time>
      </trkpt>
      <trkpt lat="45.28701" lon="5.78117">
        <ele>1702.4</ele>
        <time>2020-01-31T15:18:19Z</time>
      </trkpt>
      <trkpt lat="45.28701" lon="5.78117">
        <ele>1702.6</ele>
        <time>2020-01-31T15:18:20Z</time>
      </trkpt>
      <trkpt lat="45.28701" lon="5.78117">
        <ele>1702.8</ele>
        <time>2020-01-31T15:18:21Z</time>
      </trkpt>
      <trkpt lat="45.28701" lon="5.78117">
        <ele>1703</ele>
        <time>2020-01-31T15:18:22Z</time>
      </trkpt>
      <trkpt lat="45.28701" lon="5.78117">
        <ele>1703.4</ele>
        <time>2020-01-31T15:18:23Z</time>
      </trkpt>
      <trkpt lat="45.28703" lon="5.78119">
        <ele>1703.4</ele>
        <time>2020-01-31T15:18:24Z</time>
      </trkpt>
      <trkpt lat="45.28703" lon="5.78119">
        <ele>1704</ele>
        <time>2020-01-31T15:18:25Z</time>
      </trkpt>
      <trkpt lat="45.28703" lon="5.78119">
        <ele>1704</ele>
        <time>2020-01-31T15:18:26Z</time>
      </trkpt>
      <trkpt lat="45.28705" lon="5.78121">
        <ele>1704</ele>
        <time>2020-01-31T15:18:27Z</time>
      </trkpt>
      <trkpt lat="45.28705" lon="5.78121">
        <ele>1704</ele>
        <time>2020-01-31T15:18:28Z</time>
      </trkpt>
      <trkpt lat="45.28705" lon="5.78121">
        <ele>1704.4</ele>
        <time>2020-01-31T15:18:29Z</time>
      </trkpt>
      <trkpt lat="45.28706" lon="5.78123">
        <ele>1704.8</ele>
        <time>2020-01-31T15:18:30Z</time>
      </trkpt>
      <trkpt lat="45.28706" lon="5.78123">
        <ele>1705</ele>
        <time>2020-01-31T15:18:31Z</time>
      </trkpt>
      <trkpt lat="45.28706" lon="5.78123">
        <ele>1705.2</ele>
        <time>2020-01-31T15:18:32Z</time>
      </trkpt>
      <trkpt lat="45.28708" lon="5.78125">
        <ele>1705.4</ele>
        <time>2020-01-31T15:18:33Z</time>
      </trkpt>
      <trkpt lat="45.28708" lon="5.78125">
        <ele>1705.6</ele>
        <time>2020-01-31T15:18:34Z</time>
      </trkpt>
      <trkpt lat="45.28708" lon="5.78125">
        <ele>1705.8</ele>
        <time>2020-01-31T15:18:35Z</time>
      </trkpt>
      <trkpt lat="45.2871" lon="5.78127">
        <ele>1706</ele>
        <time>2020-01-31T15:18:36Z</time>
      </trkpt>
      <trkpt lat="45.2871" lon="5.78127">
        <ele>1706.4</ele>
        <time>2020-01-31T15:18:37Z</time>
      </trkpt>
      <trkpt lat="45.2871" lon="5.78127">
        <ele>1706.4</ele>
        <time>2020-01-31T15:18:38Z</time>
      </trkpt>
      <trkpt lat="45.28711" lon="5.7813">
        <ele>1706.8</ele>
        <time>2020-01-31T15:18:39Z</time>
      </trkpt>
      <trkpt lat="45.28711" lon="5.7813">
        <ele>1706.8</ele>
        <time>2020-01-31T15:18:40Z</time>
      </trkpt>
      <trkpt lat="45.28711" lon="5.7813">
        <ele>1707</ele>
        <time>2020-01-31T15:18:41Z</time>
      </trkpt>
      <trkpt lat="45.28713" lon="5.78132">
        <ele>1707.4</ele>
        <time>2020-01-31T15:18:42Z</time>
      </trkpt>
      <trkpt lat="45.28713" lon="5.78132">
        <ele>1708</ele>
        <time>2020-01-31T15:18:43Z</time>
      </trkpt>
      <trkpt lat="45.28713" lon="5.78132">
        <ele>1708.2</ele>
        <time>2020-01-31T15:18:44Z</time>
      </trkpt>
      <trkpt lat="45.28715" lon="5.78133">
        <ele>1708.2</ele>
        <time>2020-01-31T15:18:45Z</time>
      </trkpt>
      <trkpt lat="45.28715" lon="5.78133">
        <ele>1708.4</ele>
        <time>2020-01-31T15:18:46Z</time>
      </trkpt>
      <trkpt lat="45.28715" lon="5.78133">
        <ele>1709</ele>
        <time>2020-01-31T15:18:47Z</time>
      </trkpt>
      <trkpt lat="45.28715" lon="5.78133">
        <ele>1709</ele>
        <time>2020-01-31T15:18:48Z</time>
      </trkpt>
      <trkpt lat="45.28715" lon="5.78133">
        <ele>1709</ele>
        <time>2020-01-31T15:18:49Z</time>
      </trkpt>
      <trkpt lat="45.28715" lon="5.78133">
        <ele>1709.2</ele>
        <time>2020-01-31T15:18:50Z</time>
      </trkpt>
      <trkpt lat="45.28716" lon="5.78136">
        <ele>1709.4</ele>
        <time>2020-01-31T15:18:51Z</time>
      </trkpt>
      <trkpt lat="45.28716" lon="5.78136">
        <ele>1710.2</ele>
        <time>2020-01-31T15:18:52Z</time>
      </trkpt>
      <trkpt lat="45.28716" lon="5.78136">
        <ele>1710.4</ele>
        <time>2020-01-31T15:18:53Z</time>
      </trkpt>
      <trkpt lat="45.28716" lon="5.78136">
        <ele>1710.4</ele>
        <time>2020-01-31T15:18:54Z</time>
      </trkpt>
      <trkpt lat="45.28718" lon="5.78138">
        <ele>1710.6</ele>
        <time>2020-01-31T15:18:55Z</time>
      </trkpt>
      <trkpt lat="45.28718" lon="5.78138">
        <ele>1710.6</ele>
        <time>2020-01-31T15:18:56Z</time>
      </trkpt>
      <trkpt lat="45.28718" lon="5.78138">
        <ele>1710.6</ele>
        <time>2020-01-31T15:18:57Z</time>
      </trkpt>
      <trkpt lat="45.28719" lon="5.7814">
        <ele>1711.2</ele>
        <time>2020-01-31T15:18:58Z</time>
      </trkpt>
      <trkpt lat="45.28719" lon="5.7814">
        <ele>1711.4</ele>
        <time>2020-01-31T15:18:59Z</time>
      </trkpt>
      <trkpt lat="45.28719" lon="5.7814">
        <ele>1711.8</ele>
        <time>2020-01-31T15:19:00Z</time>
      </trkpt>
      <trkpt lat="45.28721" lon="5.78142">
        <ele>1711.8</ele>
        <time>2020-01-31T15:19:01Z</time>
      </trkpt>
      <trkpt lat="45.28721" lon="5.78142">
        <ele>1712.2</ele>
        <time>2020-01-31T15:19:02Z</time>
      </trkpt>
      <trkpt lat="45.28721" lon="5.78142">
        <ele>1712.6</ele>
        <time>2020-01-31T15:19:03Z</time>
      </trkpt>
      <trkpt lat="45.28721" lon="5.78142">
        <ele>1713.2</ele>
        <time>2020-01-31T15:19:04Z</time>
      </trkpt>
      <trkpt lat="45.28721" lon="5.78142">
        <ele>1713.4</ele>
        <time>2020-01-31T15:19:05Z</time>
      </trkpt>
      <trkpt lat="45.28721" lon="5.78142">
        <ele>1713.6</ele>
        <time>2020-01-31T15:19:06Z</time>
      </trkpt>
      <trkpt lat="45.28721" lon="5.78142">
        <ele>1713.8</ele>
        <time>2020-01-31T15:19:07Z</time>
      </trkpt>
      <trkpt lat="45.28719" lon="5.78144">
        <ele>1713.8</ele>
        <time>2020-01-31T15:19:08Z</time>
      </trkpt>
      <trkpt lat="45.28719" lon="5.78144">
        <ele>1714.2</ele>
        <time>2020-01-31T15:19:09Z</time>
      </trkpt>
      <trkpt lat="45.28719" lon="5.78144">
        <ele>1714.6</ele>
        <time>2020-01-31T15:19:10Z</time>
      </trkpt>
      <trkpt lat="45.28717" lon="5.78145">
        <ele>1714.4</ele>
        <time>2020-01-31T15:19:11Z</time>
      </trkpt>
      <trkpt lat="45.28717" lon="5.78145">
        <ele>1714.6</ele>
        <time>2020-01-31T15:19:12Z</time>
      </trkpt>
      <trkpt lat="45.28717" lon="5.78145">
        <ele>1715</ele>
        <time>2020-01-31T15:19:13Z</time>
      </trkpt>
      <trkpt lat="45.28715" lon="5.78147">
        <ele>1715.4</ele>
        <time>2020-01-31T15:19:14Z</time>
      </trkpt>
      <trkpt lat="45.28715" lon="5.78147">
        <ele>1715.4</ele>
        <time>2020-01-31T15:19:15Z</time>
      </trkpt>
      <trkpt lat="45.28715" lon="5.78147">
        <ele>1715.8</ele>
        <time>2020-01-31T15:19:16Z</time>
      </trkpt>
      <trkpt lat="45.28713" lon="5.78149">
        <ele>1716</ele>
        <time>2020-01-31T15:19:17Z</time>
      </trkpt>
      <trkpt lat="45.28713" lon="5.78149">
        <ele>1715.8</ele>
        <time>2020-01-31T15:19:18Z</time>
      </trkpt>
      <trkpt lat="45.28712" lon="5.78151">
        <ele>1716.2</ele>
        <time>2020-01-31T15:19:19Z</time>
      </trkpt>
      <trkpt lat="45.28712" lon="5.78151">
        <ele>1716.2</ele>
        <time>2020-01-31T15:19:20Z</time>
      </trkpt>
      <trkpt lat="45.28712" lon="5.78151">
        <ele>1716.4</ele>
        <time>2020-01-31T15:19:21Z</time>
      </trkpt>
      <trkpt lat="45.28709" lon="5.78153">
        <ele>1716.4</ele>
        <time>2020-01-31T15:19:22Z</time>
      </trkpt>
      <trkpt lat="45.28709" lon="5.78153">
        <ele>1716.8</ele>
        <time>2020-01-31T15:19:23Z</time>
      </trkpt>
      <trkpt lat="45.28709" lon="5.78153">
        <ele>1717</ele>
        <time>2020-01-31T15:19:24Z</time>
      </trkpt>
      <trkpt lat="45.28708" lon="5.78155">
        <ele>1717</ele>
        <time>2020-01-31T15:19:25Z</time>
      </trkpt>
      <trkpt lat="45.28708" lon="5.78155">
        <ele>1717.4</ele>
        <time>2020-01-31T15:19:26Z</time>
      </trkpt>
      <trkpt lat="45.28708" lon="5.78155">
        <ele>1717.8</ele>
        <time>2020-01-31T15:19:27Z</time>
      </trkpt>
      <trkpt lat="45.28708" lon="5.78155">
        <ele>1717.8</ele>
        <time>2020-01-31T15:19:28Z</time>
      </trkpt>
      <trkpt lat="45.28706" lon="5.78157">
        <ele>1718.2</ele>
        <time>2020-01-31T15:19:29Z</time>
      </trkpt>
      <trkpt lat="45.28706" lon="5.78157">
        <ele>1718.6</ele>
        <time>2020-01-31T15:19:30Z</time>
      </trkpt>
      <trkpt lat="45.28706" lon="5.78157">
        <ele>1718.2</ele>
        <time>2020-01-31T15:19:31Z</time>
      </trkpt>
      <trkpt lat="45.28704" lon="5.78159">
        <ele>1718.8</ele>
        <time>2020-01-31T15:19:32Z</time>
      </trkpt>
      <trkpt lat="45.28704" lon="5.78159">
        <ele>1719.4</ele>
        <time>2020-01-31T15:19:33Z</time>
      </trkpt>
      <trkpt lat="45.28704" lon="5.78159">
        <ele>1719.6</ele>
        <time>2020-01-31T15:19:34Z</time>
      </trkpt>
      <trkpt lat="45.28704" lon="5.78159">
        <ele>1720.2</ele>
        <time>2020-01-31T15:19:35Z</time>
      </trkpt>
      <trkpt lat="45.28704" lon="5.78159">
        <ele>1720.6</ele>
        <time>2020-01-31T15:19:36Z</time>
      </trkpt>
      <trkpt lat="45.28702" lon="5.7816">
        <ele>1720.4</ele>
        <time>2020-01-31T15:19:37Z</time>
      </trkpt>
      <trkpt lat="45.28702" lon="5.7816">
        <ele>1720.4</ele>
        <time>2020-01-31T15:19:38Z</time>
      </trkpt>
      <trkpt lat="45.28702" lon="5.7816">
        <ele>1721</ele>
        <time>2020-01-31T15:19:39Z</time>
      </trkpt>
      <trkpt lat="45.28702" lon="5.7816">
        <ele>1721.4</ele>
        <time>2020-01-31T15:19:40Z</time>
      </trkpt>
      <trkpt lat="45.287" lon="5.78163">
        <ele>1721.4</ele>
        <time>2020-01-31T15:19:41Z</time>
      </trkpt>
      <trkpt lat="45.287" lon="5.78163">
        <ele>1721.4</ele>
        <time>2020-01-31T15:19:42Z</time>
      </trkpt>
      <trkpt lat="45.28699" lon="5.78165">
        <ele>1722</ele>
        <time>2020-01-31T15:19:43Z</time>
      </trkpt>
      <trkpt lat="45.28699" lon="5.78165">
        <ele>1722</ele>
        <time>2020-01-31T15:19:44Z</time>
      </trkpt>
      <trkpt lat="45.28699" lon="5.78165">
        <ele>1721.8</ele>
        <time>2020-01-31T15:19:45Z</time>
      </trkpt>
      <trkpt lat="45.28699" lon="5.78165">
        <ele>1722.2</ele>
        <time>2020-01-31T15:19:46Z</time>
      </trkpt>
      <trkpt lat="45.28697" lon="5.78168">
        <ele>1722.8</ele>
        <time>2020-01-31T15:19:47Z</time>
      </trkpt>
      <trkpt lat="45.28697" lon="5.78168">
        <ele>1722.6</ele>
        <time>2020-01-31T15:19:48Z</time>
      </trkpt>
      <trkpt lat="45.28696" lon="5.78169">
        <ele>1722.8</ele>
        <time>2020-01-31T15:19:49Z</time>
      </trkpt>
      <trkpt lat="45.28696" lon="5.7817">
        <ele>1723.4</ele>
        <time>2020-01-31T15:19:50Z</time>
      </trkpt>
      <trkpt lat="45.28696" lon="5.78171">
        <ele>1723.8</ele>
        <time>2020-01-31T15:19:51Z</time>
      </trkpt>
      <trkpt lat="45.28695" lon="5.78172">
        <ele>1723.8</ele>
        <time>2020-01-31T15:19:52Z</time>
      </trkpt>
      <trkpt lat="45.28695" lon="5.78173">
        <ele>1724.2</ele>
        <time>2020-01-31T15:19:53Z</time>
      </trkpt>
      <trkpt lat="45.28694" lon="5.78174">
        <ele>1724.4</ele>
        <time>2020-01-31T15:19:54Z</time>
      </trkpt>
      <trkpt lat="45.28694" lon="5.78175">
        <ele>1724.4</ele>
        <time>2020-01-31T15:19:55Z</time>
      </trkpt>
      <trkpt lat="45.28694" lon="5.78175">
        <ele>1724</ele>
        <time>2020-01-31T15:19:56Z</time>
      </trkpt>
      <trkpt lat="45.28694" lon="5.78175">
        <ele>1723.8</ele>
        <time>2020-01-31T15:19:57Z</time>
      </trkpt>
      <trkpt lat="45.28694" lon="5.78175">
        <ele>1724</ele>
        <time>2020-01-31T15:19:58Z</time>
      </trkpt>
      <trkpt lat="45.28692" lon="5.78178">
        <ele>1724.4</ele>
        <time>2020-01-31T15:19:59Z</time>
      </trkpt>
      <trkpt lat="45.28692" lon="5.78178">
        <ele>1724.8</ele>
        <time>2020-01-31T15:20:00Z</time>
      </trkpt>
      <trkpt lat="45.2869" lon="5.78179">
        <ele>1724.6</ele>
        <time>2020-01-31T15:20:01Z</time>
      </trkpt>
      <trkpt lat="45.2869" lon="5.78179">
        <ele>1724.6</ele>
        <time>2020-01-31T15:20:02Z</time>
      </trkpt>
      <trkpt lat="45.2869" lon="5.78179">
        <ele>1725</ele>
        <time>2020-01-31T15:20:03Z</time>
      </trkpt>
      <trkpt lat="45.28688" lon="5.78181">
        <ele>1725.4</ele>
        <time>2020-01-31T15:20:04Z</time>
      </trkpt>
      <trkpt lat="45.28688" lon="5.78181">
        <ele>1725.4</ele>
        <time>2020-01-31T15:20:05Z</time>
      </trkpt>
      <trkpt lat="45.28688" lon="5.78181">
        <ele>1725.8</ele>
        <time>2020-01-31T15:20:06Z</time>
      </trkpt>
      <trkpt lat="45.28686" lon="5.78183">
        <ele>1726</ele>
        <time>2020-01-31T15:20:07Z</time>
      </trkpt>
      <trkpt lat="45.28686" lon="5.78184">
        <ele>1726</ele>
        <time>2020-01-31T15:20:08Z</time>
      </trkpt>
      <trkpt lat="45.28685" lon="5.78185">
        <ele>1725.8</ele>
        <time>2020-01-31T15:20:09Z</time>
      </trkpt>
      <trkpt lat="45.28685" lon="5.78186">
        <ele>1726</ele>
        <time>2020-01-31T15:20:10Z</time>
      </trkpt>
      <trkpt lat="45.28684" lon="5.78186">
        <ele>1726.2</ele>
        <time>2020-01-31T15:20:11Z</time>
      </trkpt>
      <trkpt lat="45.28684" lon="5.78187">
        <ele>1726.8</ele>
        <time>2020-01-31T15:20:12Z</time>
      </trkpt>
      <trkpt lat="45.28683" lon="5.78188">
        <ele>1727.2</ele>
        <time>2020-01-31T15:20:13Z</time>
      </trkpt>
      <trkpt lat="45.28683" lon="5.78189">
        <ele>1727</ele>
        <time>2020-01-31T15:20:14Z</time>
      </trkpt>
      <trkpt lat="45.28683" lon="5.7819">
        <ele>1727.2</ele>
        <time>2020-01-31T15:20:15Z</time>
      </trkpt>
      <trkpt lat="45.28682" lon="5.78191">
        <ele>1727.6</ele>
        <time>2020-01-31T15:20:16Z</time>
      </trkpt>
      <trkpt lat="45.28682" lon="5.78191">
        <ele>1728</ele>
        <time>2020-01-31T15:20:17Z</time>
      </trkpt>
      <trkpt lat="45.28681" lon="5.78192">
        <ele>1728.2</ele>
        <time>2020-01-31T15:20:18Z</time>
      </trkpt>
      <trkpt lat="45.28681" lon="5.78193">
        <ele>1728.6</ele>
        <time>2020-01-31T15:20:19Z</time>
      </trkpt>
      <trkpt lat="45.2868" lon="5.78193">
        <ele>1728.6</ele>
        <time>2020-01-31T15:20:20Z</time>
      </trkpt>
      <trkpt lat="45.2868" lon="5.78194">
        <ele>1728.8</ele>
        <time>2020-01-31T15:20:21Z</time>
      </trkpt>
      <trkpt lat="45.28679" lon="5.78195">
        <ele>1729.2</ele>
        <time>2020-01-31T15:20:22Z</time>
      </trkpt>
      <trkpt lat="45.28679" lon="5.78196">
        <ele>1729.6</ele>
        <time>2020-01-31T15:20:23Z</time>
      </trkpt>
      <trkpt lat="45.28678" lon="5.78196">
        <ele>1729.2</ele>
        <time>2020-01-31T15:20:24Z</time>
      </trkpt>
      <trkpt lat="45.28678" lon="5.78196">
        <ele>1729.6</ele>
        <time>2020-01-31T15:20:25Z</time>
      </trkpt>
      <trkpt lat="45.28678" lon="5.78196">
        <ele>1730</ele>
        <time>2020-01-31T15:20:26Z</time>
      </trkpt>
      <trkpt lat="45.28677" lon="5.78198">
        <ele>1730.2</ele>
        <time>2020-01-31T15:20:27Z</time>
      </trkpt>
      <trkpt lat="45.28677" lon="5.78198">
        <ele>1730.4</ele>
        <time>2020-01-31T15:20:28Z</time>
      </trkpt>
      <trkpt lat="45.28677" lon="5.78198">
        <ele>1730.8</ele>
        <time>2020-01-31T15:20:29Z</time>
      </trkpt>
      <trkpt lat="45.28677" lon="5.78198">
        <ele>1730.8</ele>
        <time>2020-01-31T15:20:30Z</time>
      </trkpt>
      <trkpt lat="45.28675" lon="5.78202">
        <ele>1731.2</ele>
        <time>2020-01-31T15:20:31Z</time>
      </trkpt>
      <trkpt lat="45.28675" lon="5.78202">
        <ele>1731.6</ele>
        <time>2020-01-31T15:20:32Z</time>
      </trkpt>
      <trkpt lat="45.28675" lon="5.78202">
        <ele>1731.6</ele>
        <time>2020-01-31T15:20:33Z</time>
      </trkpt>
      <trkpt lat="45.28675" lon="5.78202">
        <ele>1731.8</ele>
        <time>2020-01-31T15:20:34Z</time>
      </trkpt>
      <trkpt lat="45.28674" lon="5.78205">
        <ele>1732</ele>
        <time>2020-01-31T15:20:35Z</time>
      </trkpt>
      <trkpt lat="45.28674" lon="5.78205">
        <ele>1732.4</ele>
        <time>2020-01-31T15:20:36Z</time>
      </trkpt>
      <trkpt lat="45.28674" lon="5.78205">
        <ele>1732.6</ele>
        <time>2020-01-31T15:20:37Z</time>
      </trkpt>
      <trkpt lat="45.28674" lon="5.78205">
        <ele>1733.2</ele>
        <time>2020-01-31T15:20:38Z</time>
      </trkpt>
      <trkpt lat="45.28674" lon="5.78205">
        <ele>1733.6</ele>
        <time>2020-01-31T15:20:39Z</time>
      </trkpt>
      <trkpt lat="45.28672" lon="5.78208">
        <ele>1733.4</ele>
        <time>2020-01-31T15:20:40Z</time>
      </trkpt>
      <trkpt lat="45.28672" lon="5.78208">
        <ele>1733.6</ele>
        <time>2020-01-31T15:20:41Z</time>
      </trkpt>
      <trkpt lat="45.28672" lon="5.78208">
        <ele>1734</ele>
        <time>2020-01-31T15:20:42Z</time>
      </trkpt>
      <trkpt lat="45.2867" lon="5.78209">
        <ele>1734.2</ele>
        <time>2020-01-31T15:20:43Z</time>
      </trkpt>
      <trkpt lat="45.2867" lon="5.78209">
        <ele>1734.4</ele>
        <time>2020-01-31T15:20:44Z</time>
      </trkpt>
      <trkpt lat="45.2867" lon="5.78209">
        <ele>1734.4</ele>
        <time>2020-01-31T15:20:45Z</time>
      </trkpt>
      <trkpt lat="45.2867" lon="5.78209">
        <ele>1734.6</ele>
        <time>2020-01-31T15:20:46Z</time>
      </trkpt>
      <trkpt lat="45.2867" lon="5.78209">
        <ele>1734.6</ele>
        <time>2020-01-31T15:20:47Z</time>
      </trkpt>
      <trkpt lat="45.2867" lon="5.78209">
        <ele>1734.4</ele>
        <time>2020-01-31T15:20:48Z</time>
      </trkpt>
      <trkpt lat="45.2867" lon="5.78209">
        <ele>1734.2</ele>
        <time>2020-01-31T15:20:49Z</time>
      </trkpt>
      <trkpt lat="45.2867" lon="5.78209">
        <ele>1734.4</ele>
        <time>2020-01-31T15:20:50Z</time>
      </trkpt>
      <trkpt lat="45.2867" lon="5.78209">
        <ele>1734.2</ele>
        <time>2020-01-31T15:20:51Z</time>
      </trkpt>
      <trkpt lat="45.28672" lon="5.7821">
        <ele>1734.4</ele>
        <time>2020-01-31T15:20:52Z</time>
      </trkpt>
      <trkpt lat="45.28672" lon="5.7821">
        <ele>1734.4</ele>
        <time>2020-01-31T15:20:53Z</time>
      </trkpt>
      <trkpt lat="45.28672" lon="5.7821">
        <ele>1734.8</ele>
        <time>2020-01-31T15:20:54Z</time>
      </trkpt>
      <trkpt lat="45.28674" lon="5.78211">
        <ele>1735</ele>
        <time>2020-01-31T15:20:55Z</time>
      </trkpt>
      <trkpt lat="45.28674" lon="5.78211">
        <ele>1735.2</ele>
        <time>2020-01-31T15:20:56Z</time>
      </trkpt>
      <trkpt lat="45.28674" lon="5.78211">
        <ele>1735.4</ele>
        <time>2020-01-31T15:20:57Z</time>
      </trkpt>
      <trkpt lat="45.28674" lon="5.78211">
        <ele>1735.2</ele>
        <time>2020-01-31T15:20:58Z</time>
      </trkpt>
      <trkpt lat="45.28676" lon="5.78212">
        <ele>1735.6</ele>
        <time>2020-01-31T15:20:59Z</time>
      </trkpt>
      <trkpt lat="45.28676" lon="5.78212">
        <ele>1736</ele>
        <time>2020-01-31T15:21:00Z</time>
      </trkpt>
      <trkpt lat="45.28676" lon="5.78212">
        <ele>1736.4</ele>
        <time>2020-01-31T15:21:01Z</time>
      </trkpt>
      <trkpt lat="45.28679" lon="5.78212">
        <ele>1737</ele>
        <time>2020-01-31T15:21:02Z</time>
      </trkpt>
      <trkpt lat="45.28679" lon="5.78212">
        <ele>1737</ele>
        <time>2020-01-31T15:21:03Z</time>
      </trkpt>
      <trkpt lat="45.28679" lon="5.78212">
        <ele>1737</ele>
        <time>2020-01-31T15:21:04Z</time>
      </trkpt>
      <trkpt lat="45.28681" lon="5.78214">
        <ele>1737.2</ele>
        <time>2020-01-31T15:21:05Z</time>
      </trkpt>
      <trkpt lat="45.28681" lon="5.78214">
        <ele>1737.4</ele>
        <time>2020-01-31T15:21:06Z</time>
      </trkpt>
      <trkpt lat="45.28681" lon="5.78214">
        <ele>1737.6</ele>
        <time>2020-01-31T15:21:07Z</time>
      </trkpt>
      <trkpt lat="45.28683" lon="5.78214">
        <ele>1737.8</ele>
        <time>2020-01-31T15:21:08Z</time>
      </trkpt>
      <trkpt lat="45.28683" lon="5.78214">
        <ele>1737.6</ele>
        <time>2020-01-31T15:21:09Z</time>
      </trkpt>
      <trkpt lat="45.28683" lon="5.78214">
        <ele>1738.2</ele>
        <time>2020-01-31T15:21:10Z</time>
      </trkpt>
      <trkpt lat="45.28685" lon="5.78215">
        <ele>1738</ele>
        <time>2020-01-31T15:21:11Z</time>
      </trkpt>
      <trkpt lat="45.28685" lon="5.78215">
        <ele>1738.4</ele>
        <time>2020-01-31T15:21:12Z</time>
      </trkpt>
      <trkpt lat="45.28685" lon="5.78215">
        <ele>1738.4</ele>
        <time>2020-01-31T15:21:13Z</time>
      </trkpt>
      <trkpt lat="45.28685" lon="5.78215">
        <ele>1738.4</ele>
        <time>2020-01-31T15:21:14Z</time>
      </trkpt>
      <trkpt lat="45.28685" lon="5.78215">
        <ele>1738.4</ele>
        <time>2020-01-31T15:21:15Z</time>
      </trkpt>
      <trkpt lat="45.28689" lon="5.78215">
        <ele>1738.8</ele>
        <time>2020-01-31T15:21:16Z</time>
      </trkpt>
      <trkpt lat="45.28689" lon="5.78215">
        <ele>1739.4</ele>
        <time>2020-01-31T15:21:17Z</time>
      </trkpt>
      <trkpt lat="45.28689" lon="5.78215">
        <ele>1739.8</ele>
        <time>2020-01-31T15:21:18Z</time>
      </trkpt>
      <trkpt lat="45.28691" lon="5.78215">
        <ele>1739.8</ele>
        <time>2020-01-31T15:21:19Z</time>
      </trkpt>
      <trkpt lat="45.28691" lon="5.78215">
        <ele>1740</ele>
        <time>2020-01-31T15:21:20Z</time>
      </trkpt>
      <trkpt lat="45.28691" lon="5.78215">
        <ele>1739.8</ele>
        <time>2020-01-31T15:21:21Z</time>
      </trkpt>
      <trkpt lat="45.28691" lon="5.78215">
        <ele>1740.2</ele>
        <time>2020-01-31T15:21:22Z</time>
      </trkpt>
      <trkpt lat="45.28692" lon="5.78217">
        <ele>1740.8</ele>
        <time>2020-01-31T15:21:23Z</time>
      </trkpt>
      <trkpt lat="45.28692" lon="5.78217">
        <ele>1741.4</ele>
        <time>2020-01-31T15:21:24Z</time>
      </trkpt>
      <trkpt lat="45.28692" lon="5.78217">
        <ele>1741.6</ele>
        <time>2020-01-31T15:21:25Z</time>
      </trkpt>
      <trkpt lat="45.28692" lon="5.78217">
        <ele>1742</ele>
        <time>2020-01-31T15:21:26Z</time>
      </trkpt>
      <trkpt lat="45.28692" lon="5.78217">
        <ele>1742.2</ele>
        <time>2020-01-31T15:21:27Z</time>
      </trkpt>
      <trkpt lat="45.2869" lon="5.78218">
        <ele>1742.4</ele>
        <time>2020-01-31T15:21:28Z</time>
      </trkpt>
      <trkpt lat="45.2869" lon="5.78218">
        <ele>1742.6</ele>
        <time>2020-01-31T15:21:29Z</time>
      </trkpt>
      <trkpt lat="45.2869" lon="5.78218">
        <ele>1743</ele>
        <time>2020-01-31T15:21:30Z</time>
      </trkpt>
      <trkpt lat="45.28689" lon="5.78221">
        <ele>1743.2</ele>
        <time>2020-01-31T15:21:31Z</time>
      </trkpt>
      <trkpt lat="45.28689" lon="5.78221">
        <ele>1743</ele>
        <time>2020-01-31T15:21:32Z</time>
      </trkpt>
      <trkpt lat="45.28689" lon="5.78221">
        <ele>1743.2</ele>
        <time>2020-01-31T15:21:33Z</time>
      </trkpt>
      <trkpt lat="45.28689" lon="5.78221">
        <ele>1743.4</ele>
        <time>2020-01-31T15:21:34Z</time>
      </trkpt>
      <trkpt lat="45.28687" lon="5.78222">
        <ele>1743.6</ele>
        <time>2020-01-31T15:21:35Z</time>
      </trkpt>
      <trkpt lat="45.28687" lon="5.78222">
        <ele>1743.2</ele>
        <time>2020-01-31T15:21:36Z</time>
      </trkpt>
      <trkpt lat="45.28687" lon="5.78222">
        <ele>1743.8</ele>
        <time>2020-01-31T15:21:37Z</time>
      </trkpt>
      <trkpt lat="45.28687" lon="5.78222">
        <ele>1744.2</ele>
        <time>2020-01-31T15:21:38Z</time>
      </trkpt>
      <trkpt lat="45.28685" lon="5.78225">
        <ele>1744.2</ele>
        <time>2020-01-31T15:21:39Z</time>
      </trkpt>
      <trkpt lat="45.28685" lon="5.78225">
        <ele>1744.6</ele>
        <time>2020-01-31T15:21:40Z</time>
      </trkpt>
      <trkpt lat="45.28685" lon="5.78225">
        <ele>1744.8</ele>
        <time>2020-01-31T15:21:41Z</time>
      </trkpt>
      <trkpt lat="45.28683" lon="5.78227">
        <ele>1744.8</ele>
        <time>2020-01-31T15:21:42Z</time>
      </trkpt>
      <trkpt lat="45.28683" lon="5.78227">
        <ele>1744.8</ele>
        <time>2020-01-31T15:21:43Z</time>
      </trkpt>
      <trkpt lat="45.28683" lon="5.78227">
        <ele>1745</ele>
        <time>2020-01-31T15:21:44Z</time>
      </trkpt>
      <trkpt lat="45.28681" lon="5.78229">
        <ele>1745.2</ele>
        <time>2020-01-31T15:21:45Z</time>
      </trkpt>
      <trkpt lat="45.28681" lon="5.78229">
        <ele>1745.2</ele>
        <time>2020-01-31T15:21:46Z</time>
      </trkpt>
      <trkpt lat="45.28681" lon="5.78229">
        <ele>1745.4</ele>
        <time>2020-01-31T15:21:47Z</time>
      </trkpt>
      <trkpt lat="45.28679" lon="5.7823">
        <ele>1745.8</ele>
        <time>2020-01-31T15:21:48Z</time>
      </trkpt>
      <trkpt lat="45.28679" lon="5.7823">
        <ele>1746.2</ele>
        <time>2020-01-31T15:21:49Z</time>
      </trkpt>
      <trkpt lat="45.28679" lon="5.7823">
        <ele>1746.4</ele>
        <time>2020-01-31T15:21:50Z</time>
      </trkpt>
      <trkpt lat="45.28676" lon="5.78232">
        <ele>1746.8</ele>
        <time>2020-01-31T15:21:51Z</time>
      </trkpt>
      <trkpt lat="45.28676" lon="5.78232">
        <ele>1746.8</ele>
        <time>2020-01-31T15:21:52Z</time>
      </trkpt>
      <trkpt lat="45.28675" lon="5.78233">
        <ele>1746.8</ele>
        <time>2020-01-31T15:21:53Z</time>
      </trkpt>
      <trkpt lat="45.28675" lon="5.78233">
        <ele>1747.4</ele>
        <time>2020-01-31T15:21:54Z</time>
      </trkpt>
      <trkpt lat="45.28675" lon="5.78234">
        <ele>1747.6</ele>
        <time>2020-01-31T15:21:55Z</time>
      </trkpt>
      <trkpt lat="45.28674" lon="5.78234">
        <ele>1747.6</ele>
        <time>2020-01-31T15:21:56Z</time>
      </trkpt>
      <trkpt lat="45.28674" lon="5.78235">
        <ele>1747.4</ele>
        <time>2020-01-31T15:21:57Z</time>
      </trkpt>
      <trkpt lat="45.28674" lon="5.78235">
        <ele>1748</ele>
        <time>2020-01-31T15:21:58Z</time>
      </trkpt>
      <trkpt lat="45.28673" lon="5.78236">
        <ele>1748.2</ele>
        <time>2020-01-31T15:21:59Z</time>
      </trkpt>
      <trkpt lat="45.28673" lon="5.78236">
        <ele>1748.2</ele>
        <time>2020-01-31T15:22:00Z</time>
      </trkpt>
      <trkpt lat="45.28673" lon="5.78237">
        <ele>1748.8</ele>
        <time>2020-01-31T15:22:01Z</time>
      </trkpt>
      <trkpt lat="45.28672" lon="5.78238">
        <ele>1749.2</ele>
        <time>2020-01-31T15:22:02Z</time>
      </trkpt>
      <trkpt lat="45.28672" lon="5.78238">
        <ele>1749.2</ele>
        <time>2020-01-31T15:22:03Z</time>
      </trkpt>
      <trkpt lat="45.28671" lon="5.78239">
        <ele>1749.6</ele>
        <time>2020-01-31T15:22:04Z</time>
      </trkpt>
      <trkpt lat="45.28671" lon="5.78239">
        <ele>1749.8</ele>
        <time>2020-01-31T15:22:05Z</time>
      </trkpt>
      <trkpt lat="45.28671" lon="5.7824">
        <ele>1750</ele>
        <time>2020-01-31T15:22:06Z</time>
      </trkpt>
      <trkpt lat="45.28671" lon="5.7824">
        <ele>1750</ele>
        <time>2020-01-31T15:22:07Z</time>
      </trkpt>
      <trkpt lat="45.28672" lon="5.7824">
        <ele>1750</ele>
        <time>2020-01-31T15:22:08Z</time>
      </trkpt>
      <trkpt lat="45.28673" lon="5.7824">
        <ele>1750.2</ele>
        <time>2020-01-31T15:22:09Z</time>
      </trkpt>
      <trkpt lat="45.28674" lon="5.7824">
        <ele>1750</ele>
        <time>2020-01-31T15:22:10Z</time>
      </trkpt>
      <trkpt lat="45.28674" lon="5.78241">
        <ele>1750.2</ele>
        <time>2020-01-31T15:22:11Z</time>
      </trkpt>
      <trkpt lat="45.28675" lon="5.78241">
        <ele>1750.2</ele>
        <time>2020-01-31T15:22:12Z</time>
      </trkpt>
      <trkpt lat="45.28676" lon="5.78241">
        <ele>1750.2</ele>
        <time>2020-01-31T15:22:13Z</time>
      </trkpt>
      <trkpt lat="45.28677" lon="5.78241">
        <ele>1750.4</ele>
        <time>2020-01-31T15:22:14Z</time>
      </trkpt>
      <trkpt lat="45.28677" lon="5.78241">
        <ele>1750.4</ele>
        <time>2020-01-31T15:22:15Z</time>
      </trkpt>
      <trkpt lat="45.28678" lon="5.78242">
        <ele>1750.6</ele>
        <time>2020-01-31T15:22:16Z</time>
      </trkpt>
      <trkpt lat="45.28679" lon="5.78242">
        <ele>1751</ele>
        <time>2020-01-31T15:22:17Z</time>
      </trkpt>
      <trkpt lat="45.2868" lon="5.78242">
        <ele>1751</ele>
        <time>2020-01-31T15:22:18Z</time>
      </trkpt>
      <trkpt lat="45.2868" lon="5.78242">
        <ele>1751.4</ele>
        <time>2020-01-31T15:22:19Z</time>
      </trkpt>
      <trkpt lat="45.2868" lon="5.78242">
        <ele>1751.4</ele>
        <time>2020-01-31T15:22:20Z</time>
      </trkpt>
      <trkpt lat="45.2868" lon="5.78242">
        <ele>1751.4</ele>
        <time>2020-01-31T15:22:21Z</time>
      </trkpt>
      <trkpt lat="45.28683" lon="5.78243">
        <ele>1751.8</ele>
        <time>2020-01-31T15:22:22Z</time>
      </trkpt>
      <trkpt lat="45.28684" lon="5.78243">
        <ele>1751.8</ele>
        <time>2020-01-31T15:22:23Z</time>
      </trkpt>
      <trkpt lat="45.28684" lon="5.78243">
        <ele>1752.2</ele>
        <time>2020-01-31T15:22:24Z</time>
      </trkpt>
      <trkpt lat="45.28685" lon="5.78244">
        <ele>1752.2</ele>
        <time>2020-01-31T15:22:25Z</time>
      </trkpt>
      <trkpt lat="45.28685" lon="5.78244">
        <ele>1752.2</ele>
        <time>2020-01-31T15:22:26Z</time>
      </trkpt>
      <trkpt lat="45.28686" lon="5.78244">
        <ele>1752.8</ele>
        <time>2020-01-31T15:22:27Z</time>
      </trkpt>
      <trkpt lat="45.28686" lon="5.78244">
        <ele>1753</ele>
        <time>2020-01-31T15:22:28Z</time>
      </trkpt>
      <trkpt lat="45.28687" lon="5.78244">
        <ele>1753.2</ele>
        <time>2020-01-31T15:22:29Z</time>
      </trkpt>
      <trkpt lat="45.28687" lon="5.78244">
        <ele>1753.4</ele>
        <time>2020-01-31T15:22:30Z</time>
      </trkpt>
      <trkpt lat="45.28688" lon="5.78244">
        <ele>1753.8</ele>
        <time>2020-01-31T15:22:31Z</time>
      </trkpt>
      <trkpt lat="45.28688" lon="5.78244">
        <ele>1754.4</ele>
        <time>2020-01-31T15:22:32Z</time>
      </trkpt>
      <trkpt lat="45.28688" lon="5.78244">
        <ele>1754.6</ele>
        <time>2020-01-31T15:22:33Z</time>
      </trkpt>
      <trkpt lat="45.28686" lon="5.78247">
        <ele>1755</ele>
        <time>2020-01-31T15:22:34Z</time>
      </trkpt>
      <trkpt lat="45.28686" lon="5.78247">
        <ele>1755.4</ele>
        <time>2020-01-31T15:22:35Z</time>
      </trkpt>
      <trkpt lat="45.28686" lon="5.78247">
        <ele>1755.6</ele>
        <time>2020-01-31T15:22:36Z</time>
      </trkpt>
      <trkpt lat="45.28684" lon="5.78248">
        <ele>1756</ele>
        <time>2020-01-31T15:22:37Z</time>
      </trkpt>
      <trkpt lat="45.28684" lon="5.78248">
        <ele>1756</ele>
        <time>2020-01-31T15:22:38Z</time>
      </trkpt>
      <trkpt lat="45.28684" lon="5.78248">
        <ele>1756.2</ele>
        <time>2020-01-31T15:22:39Z</time>
      </trkpt>
      <trkpt lat="45.28683" lon="5.78251">
        <ele>1756.2</ele>
        <time>2020-01-31T15:22:40Z</time>
      </trkpt>
      <trkpt lat="45.28683" lon="5.78251">
        <ele>1756.4</ele>
        <time>2020-01-31T15:22:41Z</time>
      </trkpt>
      <trkpt lat="45.28683" lon="5.78251">
        <ele>1756.6</ele>
        <time>2020-01-31T15:22:42Z</time>
      </trkpt>
      <trkpt lat="45.28681" lon="5.78252">
        <ele>1756.8</ele>
        <time>2020-01-31T15:22:43Z</time>
      </trkpt>
      <trkpt lat="45.28681" lon="5.78252">
        <ele>1757</ele>
        <time>2020-01-31T15:22:44Z</time>
      </trkpt>
      <trkpt lat="45.28681" lon="5.78252">
        <ele>1757</ele>
        <time>2020-01-31T15:22:45Z</time>
      </trkpt>
      <trkpt lat="45.28679" lon="5.78253">
        <ele>1757.2</ele>
        <time>2020-01-31T15:22:46Z</time>
      </trkpt>
      <trkpt lat="45.2868" lon="5.78253">
        <ele>1757.2</ele>
        <time>2020-01-31T15:22:47Z</time>
      </trkpt>
      <trkpt lat="45.2868" lon="5.78253">
        <ele>1757.2</ele>
        <time>2020-01-31T15:22:48Z</time>
      </trkpt>
      <trkpt lat="45.28681" lon="5.78253">
        <ele>1757.4</ele>
        <time>2020-01-31T15:22:49Z</time>
      </trkpt>
      <trkpt lat="45.28681" lon="5.78253">
        <ele>1757.4</ele>
        <time>2020-01-31T15:22:50Z</time>
      </trkpt>
      <trkpt lat="45.28682" lon="5.78253">
        <ele>1757</ele>
        <time>2020-01-31T15:22:51Z</time>
      </trkpt>
      <trkpt lat="45.28683" lon="5.78253">
        <ele>1757.2</ele>
        <time>2020-01-31T15:22:52Z</time>
      </trkpt>
      <trkpt lat="45.28683" lon="5.78253">
        <ele>1757.2</ele>
        <time>2020-01-31T15:22:53Z</time>
      </trkpt>
      <trkpt lat="45.28684" lon="5.78253">
        <ele>1757</ele>
        <time>2020-01-31T15:22:54Z</time>
      </trkpt>
      <trkpt lat="45.28685" lon="5.78253">
        <ele>1757.2</ele>
        <time>2020-01-31T15:22:55Z</time>
      </trkpt>
      <trkpt lat="45.28685" lon="5.78253">
        <ele>1757.4</ele>
        <time>2020-01-31T15:22:56Z</time>
      </trkpt>
      <trkpt lat="45.28686" lon="5.78253">
        <ele>1757.4</ele>
        <time>2020-01-31T15:22:57Z</time>
      </trkpt>
      <trkpt lat="45.28686" lon="5.78253">
        <ele>1757.2</ele>
        <time>2020-01-31T15:22:58Z</time>
      </trkpt>
      <trkpt lat="45.28687" lon="5.78253">
        <ele>1757.2</ele>
        <time>2020-01-31T15:22:59Z</time>
      </trkpt>
      <trkpt lat="45.28688" lon="5.78253">
        <ele>1757.6</ele>
        <time>2020-01-31T15:23:00Z</time>
      </trkpt>
      <trkpt lat="45.28688" lon="5.78253">
        <ele>1757.6</ele>
        <time>2020-01-31T15:23:01Z</time>
      </trkpt>
      <trkpt lat="45.28689" lon="5.78253">
        <ele>1757.8</ele>
        <time>2020-01-31T15:23:02Z</time>
      </trkpt>
      <trkpt lat="45.2869" lon="5.78253">
        <ele>1757.6</ele>
        <time>2020-01-31T15:23:03Z</time>
      </trkpt>
      <trkpt lat="45.28691" lon="5.78252">
        <ele>1758</ele>
        <time>2020-01-31T15:23:04Z</time>
      </trkpt>
      <trkpt lat="45.28692" lon="5.78252">
        <ele>1758.2</ele>
        <time>2020-01-31T15:23:05Z</time>
      </trkpt>
      <trkpt lat="45.28692" lon="5.78252">
        <ele>1758</ele>
        <time>2020-01-31T15:23:06Z</time>
      </trkpt>
      <trkpt lat="45.28692" lon="5.78252">
        <ele>1758.2</ele>
        <time>2020-01-31T15:23:07Z</time>
      </trkpt>
      <trkpt lat="45.28694" lon="5.78252">
        <ele>1758.4</ele>
        <time>2020-01-31T15:23:08Z</time>
      </trkpt>
      <trkpt lat="45.28694" lon="5.78252">
        <ele>1758.8</ele>
        <time>2020-01-31T15:23:09Z</time>
      </trkpt>
      <trkpt lat="45.28696" lon="5.78252">
        <ele>1759</ele>
        <time>2020-01-31T15:23:10Z</time>
      </trkpt>
      <trkpt lat="45.28696" lon="5.78252">
        <ele>1759</ele>
        <time>2020-01-31T15:23:11Z</time>
      </trkpt>
      <trkpt lat="45.28696" lon="5.78252">
        <ele>1759.4</ele>
        <time>2020-01-31T15:23:12Z</time>
      </trkpt>
      <trkpt lat="45.28698" lon="5.78253">
        <ele>1759.4</ele>
        <time>2020-01-31T15:23:13Z</time>
      </trkpt>
      <trkpt lat="45.28698" lon="5.78253">
        <ele>1759.8</ele>
        <time>2020-01-31T15:23:14Z</time>
      </trkpt>
      <trkpt lat="45.287" lon="5.78252">
        <ele>1759.8</ele>
        <time>2020-01-31T15:23:15Z</time>
      </trkpt>
      <trkpt lat="45.287" lon="5.78252">
        <ele>1760.2</ele>
        <time>2020-01-31T15:23:16Z</time>
      </trkpt>
      <trkpt lat="45.287" lon="5.78252">
        <ele>1760.6</ele>
        <time>2020-01-31T15:23:17Z</time>
      </trkpt>
      <trkpt lat="45.28703" lon="5.78252">
        <ele>1761.2</ele>
        <time>2020-01-31T15:23:18Z</time>
      </trkpt>
      <trkpt lat="45.28703" lon="5.78252">
        <ele>1761.4</ele>
        <time>2020-01-31T15:23:19Z</time>
      </trkpt>
      <trkpt lat="45.28703" lon="5.78252">
        <ele>1761.6</ele>
        <time>2020-01-31T15:23:20Z</time>
      </trkpt>
      <trkpt lat="45.28705" lon="5.78253">
        <ele>1761.8</ele>
        <time>2020-01-31T15:23:21Z</time>
      </trkpt>
      <trkpt lat="45.28705" lon="5.78253">
        <ele>1761.4</ele>
        <time>2020-01-31T15:23:22Z</time>
      </trkpt>
      <trkpt lat="45.28705" lon="5.78253">
        <ele>1761.8</ele>
        <time>2020-01-31T15:23:23Z</time>
      </trkpt>
      <trkpt lat="45.28707" lon="5.78253">
        <ele>1761.8</ele>
        <time>2020-01-31T15:23:24Z</time>
      </trkpt>
      <trkpt lat="45.28707" lon="5.78253">
        <ele>1762</ele>
        <time>2020-01-31T15:23:25Z</time>
      </trkpt>
      <trkpt lat="45.28707" lon="5.78253">
        <ele>1762.6</ele>
        <time>2020-01-31T15:23:26Z</time>
      </trkpt>
      <trkpt lat="45.28709" lon="5.78254">
        <ele>1762.6</ele>
        <time>2020-01-31T15:23:27Z</time>
      </trkpt>
      <trkpt lat="45.28709" lon="5.78254">
        <ele>1762.8</ele>
        <time>2020-01-31T15:23:28Z</time>
      </trkpt>
      <trkpt lat="45.28709" lon="5.78254">
        <ele>1762.6</ele>
        <time>2020-01-31T15:23:29Z</time>
      </trkpt>
      <trkpt lat="45.28709" lon="5.78254">
        <ele>1763</ele>
        <time>2020-01-31T15:23:30Z</time>
      </trkpt>
      <trkpt lat="45.28709" lon="5.78254">
        <ele>1763.2</ele>
        <time>2020-01-31T15:23:31Z</time>
      </trkpt>
      <trkpt lat="45.28711" lon="5.78254">
        <ele>1763.4</ele>
        <time>2020-01-31T15:23:32Z</time>
      </trkpt>
      <trkpt lat="45.28711" lon="5.78254">
        <ele>1764</ele>
        <time>2020-01-31T15:23:33Z</time>
      </trkpt>
      <trkpt lat="45.28711" lon="5.78254">
        <ele>1764</ele>
        <time>2020-01-31T15:23:34Z</time>
      </trkpt>
      <trkpt lat="45.28711" lon="5.78254">
        <ele>1764.4</ele>
        <time>2020-01-31T15:23:35Z</time>
      </trkpt>
      <trkpt lat="45.28713" lon="5.78256">
        <ele>1764.4</ele>
        <time>2020-01-31T15:23:36Z</time>
      </trkpt>
      <trkpt lat="45.28713" lon="5.78256">
        <ele>1764.6</ele>
        <time>2020-01-31T15:23:37Z</time>
      </trkpt>
      <trkpt lat="45.28713" lon="5.78256">
        <ele>1764.8</ele>
        <time>2020-01-31T15:23:38Z</time>
      </trkpt>
      <trkpt lat="45.28713" lon="5.78256">
        <ele>1764.8</ele>
        <time>2020-01-31T15:23:39Z</time>
      </trkpt>
      <trkpt lat="45.28716" lon="5.78256">
        <ele>1765.2</ele>
        <time>2020-01-31T15:23:40Z</time>
      </trkpt>
      <trkpt lat="45.28716" lon="5.78256">
        <ele>1765.2</ele>
        <time>2020-01-31T15:23:41Z</time>
      </trkpt>
      <trkpt lat="45.28716" lon="5.78256">
        <ele>1765.4</ele>
        <time>2020-01-31T15:23:42Z</time>
      </trkpt>
      <trkpt lat="45.28718" lon="5.78257">
        <ele>1765.2</ele>
        <time>2020-01-31T15:23:43Z</time>
      </trkpt>
      <trkpt lat="45.28718" lon="5.78257">
        <ele>1765.6</ele>
        <time>2020-01-31T15:23:44Z</time>
      </trkpt>
      <trkpt lat="45.28719" lon="5.78258">
        <ele>1765.8</ele>
        <time>2020-01-31T15:23:45Z</time>
      </trkpt>
      <trkpt lat="45.28719" lon="5.78258">
        <ele>1766</ele>
        <time>2020-01-31T15:23:46Z</time>
      </trkpt>
      <trkpt lat="45.28719" lon="5.78258">
        <ele>1766.4</ele>
        <time>2020-01-31T15:23:47Z</time>
      </trkpt>
      <trkpt lat="45.28721" lon="5.78259">
        <ele>1766.2</ele>
        <time>2020-01-31T15:23:48Z</time>
      </trkpt>
      <trkpt lat="45.28721" lon="5.78259">
        <ele>1766.4</ele>
        <time>2020-01-31T15:23:49Z</time>
      </trkpt>
      <trkpt lat="45.28721" lon="5.78259">
        <ele>1766.8</ele>
        <time>2020-01-31T15:23:50Z</time>
      </trkpt>
      <trkpt lat="45.28723" lon="5.7826">
        <ele>1767</ele>
        <time>2020-01-31T15:23:51Z</time>
      </trkpt>
      <trkpt lat="45.28723" lon="5.7826">
        <ele>1767.6</ele>
        <time>2020-01-31T15:23:52Z</time>
      </trkpt>
      <trkpt lat="45.28723" lon="5.7826">
        <ele>1767.4</ele>
        <time>2020-01-31T15:23:53Z</time>
      </trkpt>
      <trkpt lat="45.28725" lon="5.78262">
        <ele>1767.6</ele>
        <time>2020-01-31T15:23:54Z</time>
      </trkpt>
      <trkpt lat="45.28725" lon="5.78262">
        <ele>1767.8</ele>
        <time>2020-01-31T15:23:55Z</time>
      </trkpt>
      <trkpt lat="45.28725" lon="5.78262">
        <ele>1767.8</ele>
        <time>2020-01-31T15:23:56Z</time>
      </trkpt>
      <trkpt lat="45.28727" lon="5.78262">
        <ele>1768.2</ele>
        <time>2020-01-31T15:23:57Z</time>
      </trkpt>
      <trkpt lat="45.28727" lon="5.78262">
        <ele>1768.4</ele>
        <time>2020-01-31T15:23:58Z</time>
      </trkpt>
      <trkpt lat="45.28729" lon="5.78263">
        <ele>1768.4</ele>
        <time>2020-01-31T15:23:59Z</time>
      </trkpt>
      <trkpt lat="45.28729" lon="5.78263">
        <ele>1768.6</ele>
        <time>2020-01-31T15:24:00Z</time>
      </trkpt>
      <trkpt lat="45.28729" lon="5.78263">
        <ele>1768.8</ele>
        <time>2020-01-31T15:24:01Z</time>
      </trkpt>
      <trkpt lat="45.2873" lon="5.78266">
        <ele>1768.8</ele>
        <time>2020-01-31T15:24:02Z</time>
      </trkpt>
      <trkpt lat="45.2873" lon="5.78266">
        <ele>1769.6</ele>
        <time>2020-01-31T15:24:03Z</time>
      </trkpt>
      <trkpt lat="45.2873" lon="5.78266">
        <ele>1770</ele>
        <time>2020-01-31T15:24:04Z</time>
      </trkpt>
      <trkpt lat="45.2873" lon="5.78266">
        <ele>1770.4</ele>
        <time>2020-01-31T15:24:05Z</time>
      </trkpt>
      <trkpt lat="45.2873" lon="5.78269">
        <ele>1770.8</ele>
        <time>2020-01-31T15:24:06Z</time>
      </trkpt>
      <trkpt lat="45.2873" lon="5.78269">
        <ele>1771</ele>
        <time>2020-01-31T15:24:07Z</time>
      </trkpt>
      <trkpt lat="45.2873" lon="5.78269">
        <ele>1771.2</ele>
        <time>2020-01-31T15:24:08Z</time>
      </trkpt>
      <trkpt lat="45.28728" lon="5.7827">
        <ele>1771.4</ele>
        <time>2020-01-31T15:24:09Z</time>
      </trkpt>
      <trkpt lat="45.28728" lon="5.7827">
        <ele>1771</ele>
        <time>2020-01-31T15:24:10Z</time>
      </trkpt>
      <trkpt lat="45.28728" lon="5.7827">
        <ele>1771</ele>
        <time>2020-01-31T15:24:11Z</time>
      </trkpt>
      <trkpt lat="45.28726" lon="5.78272">
        <ele>1771.6</ele>
        <time>2020-01-31T15:24:12Z</time>
      </trkpt>
      <trkpt lat="45.28726" lon="5.78272">
        <ele>1772</ele>
        <time>2020-01-31T15:24:13Z</time>
      </trkpt>
      <trkpt lat="45.28726" lon="5.78272">
        <ele>1771.8</ele>
        <time>2020-01-31T15:24:14Z</time>
      </trkpt>
      <trkpt lat="45.28726" lon="5.78272">
        <ele>1771.6</ele>
        <time>2020-01-31T15:24:15Z</time>
      </trkpt>
      <trkpt lat="45.28724" lon="5.78274">
        <ele>1772</ele>
        <time>2020-01-31T15:24:16Z</time>
      </trkpt>
      <trkpt lat="45.28724" lon="5.78274">
        <ele>1772.4</ele>
        <time>2020-01-31T15:24:17Z</time>
      </trkpt>
      <trkpt lat="45.28724" lon="5.78274">
        <ele>1772.6</ele>
        <time>2020-01-31T15:24:18Z</time>
      </trkpt>
      <trkpt lat="45.28724" lon="5.78274">
        <ele>1773</ele>
        <time>2020-01-31T15:24:19Z</time>
      </trkpt>
      <trkpt lat="45.28724" lon="5.78274">
        <ele>1773</ele>
        <time>2020-01-31T15:24:20Z</time>
      </trkpt>
      <trkpt lat="45.28724" lon="5.78274">
        <ele>1773</ele>
        <time>2020-01-31T15:24:21Z</time>
      </trkpt>
      <trkpt lat="45.28724" lon="5.78274">
        <ele>1773</ele>
        <time>2020-01-31T15:24:22Z</time>
      </trkpt>
      <trkpt lat="45.28724" lon="5.78274">
        <ele>1773</ele>
        <time>2020-01-31T15:24:23Z</time>
      </trkpt>
      <trkpt lat="45.28724" lon="5.78274">
        <ele>1773.2</ele>
        <time>2020-01-31T15:24:24Z</time>
      </trkpt>
      <trkpt lat="45.28725" lon="5.78276">
        <ele>1773</ele>
        <time>2020-01-31T15:24:25Z</time>
      </trkpt>
      <trkpt lat="45.28725" lon="5.78276">
        <ele>1773.4</ele>
        <time>2020-01-31T15:24:26Z</time>
      </trkpt>
      <trkpt lat="45.28725" lon="5.78276">
        <ele>1773.6</ele>
        <time>2020-01-31T15:24:27Z</time>
      </trkpt>
      <trkpt lat="45.28726" lon="5.78277">
        <ele>1774</ele>
        <time>2020-01-31T15:24:28Z</time>
      </trkpt>
      <trkpt lat="45.28726" lon="5.78277">
        <ele>1773.8</ele>
        <time>2020-01-31T15:24:29Z</time>
      </trkpt>
      <trkpt lat="45.28726" lon="5.78277">
        <ele>1774</ele>
        <time>2020-01-31T15:24:30Z</time>
      </trkpt>
      <trkpt lat="45.28726" lon="5.78277">
        <ele>1774.2</ele>
        <time>2020-01-31T15:24:31Z</time>
      </trkpt>
      <trkpt lat="45.28726" lon="5.78277">
        <ele>1774.4</ele>
        <time>2020-01-31T15:24:32Z</time>
      </trkpt>
      <trkpt lat="45.28726" lon="5.78277">
        <ele>1774.8</ele>
        <time>2020-01-31T15:24:33Z</time>
      </trkpt>
      <trkpt lat="45.28728" lon="5.78279">
        <ele>1775.4</ele>
        <time>2020-01-31T15:24:34Z</time>
      </trkpt>
      <trkpt lat="45.28728" lon="5.78279">
        <ele>1775.8</ele>
        <time>2020-01-31T15:24:35Z</time>
      </trkpt>
      <trkpt lat="45.28728" lon="5.78279">
        <ele>1776</ele>
        <time>2020-01-31T15:24:36Z</time>
      </trkpt>
      <trkpt lat="45.28726" lon="5.7828">
        <ele>1776.4</ele>
        <time>2020-01-31T15:24:37Z</time>
      </trkpt>
      <trkpt lat="45.28726" lon="5.7828">
        <ele>1776.8</ele>
        <time>2020-01-31T15:24:38Z</time>
      </trkpt>
      <trkpt lat="45.28726" lon="5.7828">
        <ele>1777</ele>
        <time>2020-01-31T15:24:39Z</time>
      </trkpt>
      <trkpt lat="45.28726" lon="5.7828">
        <ele>1777.2</ele>
        <time>2020-01-31T15:24:40Z</time>
      </trkpt>
      <trkpt lat="45.28726" lon="5.7828">
        <ele>1777.2</ele>
        <time>2020-01-31T15:24:41Z</time>
      </trkpt>
      <trkpt lat="45.28726" lon="5.7828">
        <ele>1777.6</ele>
        <time>2020-01-31T15:24:42Z</time>
      </trkpt>
      <trkpt lat="45.28726" lon="5.7828">
        <ele>1777.6</ele>
        <time>2020-01-31T15:24:43Z</time>
      </trkpt>
      <trkpt lat="45.28726" lon="5.7828">
        <ele>1777.4</ele>
        <time>2020-01-31T15:24:44Z</time>
      </trkpt>
      <trkpt lat="45.28726" lon="5.7828">
        <ele>1777</ele>
        <time>2020-01-31T15:24:45Z</time>
      </trkpt>
      <trkpt lat="45.28726" lon="5.7828">
        <ele>1777</ele>
        <time>2020-01-31T15:24:46Z</time>
      </trkpt>
      <trkpt lat="45.28726" lon="5.7828">
        <ele>1777.2</ele>
        <time>2020-01-31T15:24:47Z</time>
      </trkpt>
      <trkpt lat="45.28728" lon="5.78282">
        <ele>1777.2</ele>
        <time>2020-01-31T15:24:48Z</time>
      </trkpt>
      <trkpt lat="45.28728" lon="5.78282">
        <ele>1777.2</ele>
        <time>2020-01-31T15:24:49Z</time>
      </trkpt>
      <trkpt lat="45.28729" lon="5.78284">
        <ele>1777.2</ele>
        <time>2020-01-31T15:24:50Z</time>
      </trkpt>
      <trkpt lat="45.28729" lon="5.78284">
        <ele>1777.8</ele>
        <time>2020-01-31T15:24:51Z</time>
      </trkpt>
      <trkpt lat="45.28729" lon="5.78284">
        <ele>1778.2</ele>
        <time>2020-01-31T15:24:52Z</time>
      </trkpt>
      <trkpt lat="45.28729" lon="5.78284">
        <ele>1778.2</ele>
        <time>2020-01-31T15:24:53Z</time>
      </trkpt>
      <trkpt lat="45.28729" lon="5.78287">
        <ele>1778.6</ele>
        <time>2020-01-31T15:24:54Z</time>
      </trkpt>
      <trkpt lat="45.28729" lon="5.78287">
        <ele>1779</ele>
        <time>2020-01-31T15:24:55Z</time>
      </trkpt>
      <trkpt lat="45.28729" lon="5.78287">
        <ele>1779.2</ele>
        <time>2020-01-31T15:24:56Z</time>
      </trkpt>
      <trkpt lat="45.28727" lon="5.78288">
        <ele>1779.2</ele>
        <time>2020-01-31T15:24:57Z</time>
      </trkpt>
      <trkpt lat="45.28727" lon="5.78288">
        <ele>1779.6</ele>
        <time>2020-01-31T15:24:58Z</time>
      </trkpt>
      <trkpt lat="45.28727" lon="5.78288">
        <ele>1779.8</ele>
        <time>2020-01-31T15:24:59Z</time>
      </trkpt>
      <trkpt lat="45.28724" lon="5.78289">
        <ele>1779.4</ele>
        <time>2020-01-31T15:25:00Z</time>
      </trkpt>
      <trkpt lat="45.28724" lon="5.78289">
        <ele>1780</ele>
        <time>2020-01-31T15:25:01Z</time>
      </trkpt>
      <trkpt lat="45.28724" lon="5.78289">
        <ele>1780.4</ele>
        <time>2020-01-31T15:25:02Z</time>
      </trkpt>
      <trkpt lat="45.28722" lon="5.7829">
        <ele>1780.4</ele>
        <time>2020-01-31T15:25:03Z</time>
      </trkpt>
      <trkpt lat="45.28722" lon="5.7829">
        <ele>1780.6</ele>
        <time>2020-01-31T15:25:04Z</time>
      </trkpt>
      <trkpt lat="45.28722" lon="5.7829">
        <ele>1780.8</ele>
        <time>2020-01-31T15:25:05Z</time>
      </trkpt>
      <trkpt lat="45.28722" lon="5.7829">
        <ele>1780.6</ele>
        <time>2020-01-31T15:25:06Z</time>
      </trkpt>
      <trkpt lat="45.28722" lon="5.7829">
        <ele>1780.6</ele>
        <time>2020-01-31T15:25:07Z</time>
      </trkpt>
      <trkpt lat="45.28722" lon="5.7829">
        <ele>1780.8</ele>
        <time>2020-01-31T15:25:08Z</time>
      </trkpt>
      <trkpt lat="45.28722" lon="5.7829">
        <ele>1780.8</ele>
        <time>2020-01-31T15:25:09Z</time>
      </trkpt>
      <trkpt lat="45.28722" lon="5.7829">
        <ele>1780.8</ele>
        <time>2020-01-31T15:25:10Z</time>
      </trkpt>
      <trkpt lat="45.28722" lon="5.7829">
        <ele>1781</ele>
        <time>2020-01-31T15:25:11Z</time>
      </trkpt>
      <trkpt lat="45.28722" lon="5.7829">
        <ele>1780.8</ele>
        <time>2020-01-31T15:25:12Z</time>
      </trkpt>
      <trkpt lat="45.28724" lon="5.7829">
        <ele>1781.2</ele>
        <time>2020-01-31T15:25:13Z</time>
      </trkpt>
      <trkpt lat="45.28724" lon="5.7829">
        <ele>1781</ele>
        <time>2020-01-31T15:25:14Z</time>
      </trkpt>
      <trkpt lat="45.28724" lon="5.7829">
        <ele>1781.2</ele>
        <time>2020-01-31T15:25:15Z</time>
      </trkpt>
      <trkpt lat="45.28727" lon="5.78292">
        <ele>1781.4</ele>
        <time>2020-01-31T15:25:16Z</time>
      </trkpt>
      <trkpt lat="45.28727" lon="5.78292">
        <ele>1781.2</ele>
        <time>2020-01-31T15:25:17Z</time>
      </trkpt>
      <trkpt lat="45.28729" lon="5.78292">
        <ele>1781.2</ele>
        <time>2020-01-31T15:25:18Z</time>
      </trkpt>
      <trkpt lat="45.28729" lon="5.78292">
        <ele>1781.6</ele>
        <time>2020-01-31T15:25:19Z</time>
      </trkpt>
      <trkpt lat="45.28729" lon="5.78292">
        <ele>1781.8</ele>
        <time>2020-01-31T15:25:20Z</time>
      </trkpt>
      <trkpt lat="45.28731" lon="5.78292">
        <ele>1782</ele>
        <time>2020-01-31T15:25:21Z</time>
      </trkpt>
      <trkpt lat="45.28731" lon="5.78292">
        <ele>1782.4</ele>
        <time>2020-01-31T15:25:22Z</time>
      </trkpt>
      <trkpt lat="45.28731" lon="5.78292">
        <ele>1782.6</ele>
        <time>2020-01-31T15:25:23Z</time>
      </trkpt>
      <trkpt lat="45.28731" lon="5.78292">
        <ele>1782.6</ele>
        <time>2020-01-31T15:25:24Z</time>
      </trkpt>
      <trkpt lat="45.28731" lon="5.78292">
        <ele>1783</ele>
        <time>2020-01-31T15:25:25Z</time>
      </trkpt>
      <trkpt lat="45.28731" lon="5.78292">
        <ele>1783.8</ele>
        <time>2020-01-31T15:25:26Z</time>
      </trkpt>
      <trkpt lat="45.28731" lon="5.78292">
        <ele>1784</ele>
        <time>2020-01-31T15:25:27Z</time>
      </trkpt>
      <trkpt lat="45.28731" lon="5.78292">
        <ele>1784.2</ele>
        <time>2020-01-31T15:25:28Z</time>
      </trkpt>
      <trkpt lat="45.28731" lon="5.78292">
        <ele>1784.2</ele>
        <time>2020-01-31T15:25:29Z</time>
      </trkpt>
      <trkpt lat="45.2873" lon="5.78295">
        <ele>1784.4</ele>
        <time>2020-01-31T15:25:30Z</time>
      </trkpt>
      <trkpt lat="45.2873" lon="5.78295">
        <ele>1784.8</ele>
        <time>2020-01-31T15:25:31Z</time>
      </trkpt>
      <trkpt lat="45.2873" lon="5.78295">
        <ele>1785</ele>
        <time>2020-01-31T15:25:32Z</time>
      </trkpt>
      <trkpt lat="45.2873" lon="5.78295">
        <ele>1785</ele>
        <time>2020-01-31T15:25:33Z</time>
      </trkpt>
      <trkpt lat="45.28728" lon="5.78297">
        <ele>1785.6</ele>
        <time>2020-01-31T15:25:34Z</time>
      </trkpt>
      <trkpt lat="45.28728" lon="5.78297">
        <ele>1785.8</ele>
        <time>2020-01-31T15:25:35Z</time>
      </trkpt>
      <trkpt lat="45.28728" lon="5.78297">
        <ele>1786.2</ele>
        <time>2020-01-31T15:25:36Z</time>
      </trkpt>
      <trkpt lat="45.28728" lon="5.78297">
        <ele>1785.8</ele>
        <time>2020-01-31T15:25:37Z</time>
      </trkpt>
      <trkpt lat="45.28726" lon="5.78298">
        <ele>1786</ele>
        <time>2020-01-31T15:25:38Z</time>
      </trkpt>
      <trkpt lat="45.28726" lon="5.78298">
        <ele>1786.4</ele>
        <time>2020-01-31T15:25:39Z</time>
      </trkpt>
      <trkpt lat="45.28726" lon="5.78298">
        <ele>1786.4</ele>
        <time>2020-01-31T15:25:40Z</time>
      </trkpt>
      <trkpt lat="45.28726" lon="5.78298">
        <ele>1786.6</ele>
        <time>2020-01-31T15:25:41Z</time>
      </trkpt>
      <trkpt lat="45.28726" lon="5.78298">
        <ele>1786.6</ele>
        <time>2020-01-31T15:25:42Z</time>
      </trkpt>
      <trkpt lat="45.28726" lon="5.78298">
        <ele>1786.4</ele>
        <time>2020-01-31T15:25:43Z</time>
      </trkpt>
      <trkpt lat="45.28726" lon="5.78298">
        <ele>1786.6</ele>
        <time>2020-01-31T15:25:44Z</time>
      </trkpt>
      <trkpt lat="45.28726" lon="5.78298">
        <ele>1786.8</ele>
        <time>2020-01-31T15:25:45Z</time>
      </trkpt>
      <trkpt lat="45.28729" lon="5.78299">
        <ele>1786.6</ele>
        <time>2020-01-31T15:25:46Z</time>
      </trkpt>
      <trkpt lat="45.28729" lon="5.78299">
        <ele>1786.6</ele>
        <time>2020-01-31T15:25:47Z</time>
      </trkpt>
      <trkpt lat="45.28729" lon="5.78299">
        <ele>1786.6</ele>
        <time>2020-01-31T15:25:48Z</time>
      </trkpt>
      <trkpt lat="45.28731" lon="5.783">
        <ele>1787</ele>
        <time>2020-01-31T15:25:49Z</time>
      </trkpt>
      <trkpt lat="45.28731" lon="5.783">
        <ele>1787</ele>
        <time>2020-01-31T15:25:50Z</time>
      </trkpt>
      <trkpt lat="45.28731" lon="5.783">
        <ele>1787.4</ele>
        <time>2020-01-31T15:25:51Z</time>
      </trkpt>
      <trkpt lat="45.28731" lon="5.783">
        <ele>1787.6</ele>
        <time>2020-01-31T15:25:52Z</time>
      </trkpt>
      <trkpt lat="45.28731" lon="5.783">
        <ele>1788</ele>
        <time>2020-01-31T15:25:53Z</time>
      </trkpt>
      <trkpt lat="45.28731" lon="5.783">
        <ele>1788.2</ele>
        <time>2020-01-31T15:25:54Z</time>
      </trkpt>
      <trkpt lat="45.28731" lon="5.783">
        <ele>1788.4</ele>
        <time>2020-01-31T15:25:55Z</time>
      </trkpt>
      <trkpt lat="45.28732" lon="5.78302">
        <ele>1788.6</ele>
        <time>2020-01-31T15:25:56Z</time>
      </trkpt>
      <trkpt lat="45.28732" lon="5.78302">
        <ele>1788.8</ele>
        <time>2020-01-31T15:25:57Z</time>
      </trkpt>
      <trkpt lat="45.28732" lon="5.78302">
        <ele>1788.6</ele>
        <time>2020-01-31T15:25:58Z</time>
      </trkpt>
      <trkpt lat="45.28732" lon="5.78302">
        <ele>1788.8</ele>
        <time>2020-01-31T15:25:59Z</time>
      </trkpt>
      <trkpt lat="45.28734" lon="5.78303">
        <ele>1789</ele>
        <time>2020-01-31T15:26:00Z</time>
      </trkpt>
      <trkpt lat="45.28734" lon="5.78303">
        <ele>1789</ele>
        <time>2020-01-31T15:26:01Z</time>
      </trkpt>
      <trkpt lat="45.28734" lon="5.78303">
        <ele>1789.4</ele>
        <time>2020-01-31T15:26:02Z</time>
      </trkpt>
      <trkpt lat="45.28734" lon="5.78303">
        <ele>1789.6</ele>
        <time>2020-01-31T15:26:03Z</time>
      </trkpt>
      <trkpt lat="45.28734" lon="5.78303">
        <ele>1789.6</ele>
        <time>2020-01-31T15:26:04Z</time>
      </trkpt>
      <trkpt lat="45.28734" lon="5.78303">
        <ele>1790.2</ele>
        <time>2020-01-31T15:26:05Z</time>
      </trkpt>
      <trkpt lat="45.28734" lon="5.78303">
        <ele>1790.6</ele>
        <time>2020-01-31T15:26:06Z</time>
      </trkpt>
      <trkpt lat="45.28736" lon="5.78306">
        <ele>1790.8</ele>
        <time>2020-01-31T15:26:07Z</time>
      </trkpt>
      <trkpt lat="45.28736" lon="5.78306">
        <ele>1791</ele>
        <time>2020-01-31T15:26:08Z</time>
      </trkpt>
      <trkpt lat="45.28736" lon="5.78306">
        <ele>1791.2</ele>
        <time>2020-01-31T15:26:09Z</time>
      </trkpt>
      <trkpt lat="45.28737" lon="5.78308">
        <ele>1791.2</ele>
        <time>2020-01-31T15:26:10Z</time>
      </trkpt>
      <trkpt lat="45.28737" lon="5.78308">
        <ele>1791.6</ele>
        <time>2020-01-31T15:26:11Z</time>
      </trkpt>
      <trkpt lat="45.28737" lon="5.78308">
        <ele>1791.8</ele>
        <time>2020-01-31T15:26:12Z</time>
      </trkpt>
      <trkpt lat="45.28737" lon="5.78308">
        <ele>1791.8</ele>
        <time>2020-01-31T15:26:13Z</time>
      </trkpt>
      <trkpt lat="45.28737" lon="5.78308">
        <ele>1792.4</ele>
        <time>2020-01-31T15:26:14Z</time>
      </trkpt>
      <trkpt lat="45.28737" lon="5.78308">
        <ele>1793</ele>
        <time>2020-01-31T15:26:15Z</time>
      </trkpt>
      <trkpt lat="45.28737" lon="5.7831">
        <ele>1793.4</ele>
        <time>2020-01-31T15:26:16Z</time>
      </trkpt>
      <trkpt lat="45.28737" lon="5.7831">
        <ele>1793.8</ele>
        <time>2020-01-31T15:26:17Z</time>
      </trkpt>
      <trkpt lat="45.28737" lon="5.7831">
        <ele>1794</ele>
        <time>2020-01-31T15:26:18Z</time>
      </trkpt>
      <trkpt lat="45.28737" lon="5.7831">
        <ele>1794.2</ele>
        <time>2020-01-31T15:26:19Z</time>
      </trkpt>
      <trkpt lat="45.28736" lon="5.78312">
        <ele>1794</ele>
        <time>2020-01-31T15:26:20Z</time>
      </trkpt>
      <trkpt lat="45.28736" lon="5.78312">
        <ele>1794.2</ele>
        <time>2020-01-31T15:26:21Z</time>
      </trkpt>
      <trkpt lat="45.28736" lon="5.78312">
        <ele>1794.8</ele>
        <time>2020-01-31T15:26:22Z</time>
      </trkpt>
      <trkpt lat="45.28736" lon="5.78312">
        <ele>1795</ele>
        <time>2020-01-31T15:26:23Z</time>
      </trkpt>
      <trkpt lat="45.28736" lon="5.78312">
        <ele>1795</ele>
        <time>2020-01-31T15:26:24Z</time>
      </trkpt>
      <trkpt lat="45.28736" lon="5.78312">
        <ele>1795</ele>
        <time>2020-01-31T15:26:25Z</time>
      </trkpt>
      <trkpt lat="45.28736" lon="5.78312">
        <ele>1795</ele>
        <time>2020-01-31T15:26:26Z</time>
      </trkpt>
      <trkpt lat="45.28736" lon="5.78312">
        <ele>1794.6</ele>
        <time>2020-01-31T15:26:27Z</time>
      </trkpt>
      <trkpt lat="45.28736" lon="5.78312">
        <ele>1794.6</ele>
        <time>2020-01-31T15:26:28Z</time>
      </trkpt>
      <trkpt lat="45.28736" lon="5.78312">
        <ele>1795</ele>
        <time>2020-01-31T15:26:29Z</time>
      </trkpt>
      <trkpt lat="45.28736" lon="5.78312">
        <ele>1794.6</ele>
        <time>2020-01-31T15:26:30Z</time>
      </trkpt>
      <trkpt lat="45.28736" lon="5.78312">
        <ele>1794.8</ele>
        <time>2020-01-31T15:26:31Z</time>
      </trkpt>
      <trkpt lat="45.28738" lon="5.78314">
        <ele>1794.8</ele>
        <time>2020-01-31T15:26:32Z</time>
      </trkpt>
      <trkpt lat="45.28738" lon="5.78314">
        <ele>1795.2</ele>
        <time>2020-01-31T15:26:33Z</time>
      </trkpt>
      <trkpt lat="45.28738" lon="5.78314">
        <ele>1795.2</ele>
        <time>2020-01-31T15:26:34Z</time>
      </trkpt>
      <trkpt lat="45.28741" lon="5.78316">
        <ele>1795.2</ele>
        <time>2020-01-31T15:26:35Z</time>
      </trkpt>
      <trkpt lat="45.28741" lon="5.78316">
        <ele>1795.2</ele>
        <time>2020-01-31T15:26:36Z</time>
      </trkpt>
      <trkpt lat="45.28741" lon="5.78316">
        <ele>1795.2</ele>
        <time>2020-01-31T15:26:37Z</time>
      </trkpt>
      <trkpt lat="45.28743" lon="5.78317">
        <ele>1795.6</ele>
        <time>2020-01-31T15:26:38Z</time>
      </trkpt>
      <trkpt lat="45.28743" lon="5.78317">
        <ele>1795.4</ele>
        <time>2020-01-31T15:26:39Z</time>
      </trkpt>
      <trkpt lat="45.28745" lon="5.78319">
        <ele>1795.8</ele>
        <time>2020-01-31T15:26:40Z</time>
      </trkpt>
      <trkpt lat="45.28745" lon="5.78319">
        <ele>1795.6</ele>
        <time>2020-01-31T15:26:41Z</time>
      </trkpt>
      <trkpt lat="45.28745" lon="5.78319">
        <ele>1796</ele>
        <time>2020-01-31T15:26:42Z</time>
      </trkpt>
      <trkpt lat="45.28747" lon="5.78319">
        <ele>1796.4</ele>
        <time>2020-01-31T15:26:43Z</time>
      </trkpt>
      <trkpt lat="45.28747" lon="5.78319">
        <ele>1796.6</ele>
        <time>2020-01-31T15:26:44Z</time>
      </trkpt>
      <trkpt lat="45.28747" lon="5.78319">
        <ele>1797</ele>
        <time>2020-01-31T15:26:45Z</time>
      </trkpt>
      <trkpt lat="45.28749" lon="5.7832">
        <ele>1796.8</ele>
        <time>2020-01-31T15:26:46Z</time>
      </trkpt>
      <trkpt lat="45.28749" lon="5.7832">
        <ele>1796.8</ele>
        <time>2020-01-31T15:26:47Z</time>
      </trkpt>
      <trkpt lat="45.28749" lon="5.7832">
        <ele>1797</ele>
        <time>2020-01-31T15:26:48Z</time>
      </trkpt>
      <trkpt lat="45.28751" lon="5.78322">
        <ele>1797.2</ele>
        <time>2020-01-31T15:26:49Z</time>
      </trkpt>
      <trkpt lat="45.28751" lon="5.78322">
        <ele>1797.6</ele>
        <time>2020-01-31T15:26:50Z</time>
      </trkpt>
      <trkpt lat="45.28751" lon="5.78322">
        <ele>1797.6</ele>
        <time>2020-01-31T15:26:51Z</time>
      </trkpt>
      <trkpt lat="45.28753" lon="5.78323">
        <ele>1797.8</ele>
        <time>2020-01-31T15:26:52Z</time>
      </trkpt>
      <trkpt lat="45.28753" lon="5.78323">
        <ele>1797.8</ele>
        <time>2020-01-31T15:26:53Z</time>
      </trkpt>
      <trkpt lat="45.28753" lon="5.78323">
        <ele>1798</ele>
        <time>2020-01-31T15:26:54Z</time>
      </trkpt>
      <trkpt lat="45.28755" lon="5.78324">
        <ele>1798.4</ele>
        <time>2020-01-31T15:26:55Z</time>
      </trkpt>
      <trkpt lat="45.28755" lon="5.78324">
        <ele>1798.6</ele>
        <time>2020-01-31T15:26:56Z</time>
      </trkpt>
      <trkpt lat="45.28755" lon="5.78324">
        <ele>1798.8</ele>
        <time>2020-01-31T15:26:57Z</time>
      </trkpt>
      <trkpt lat="45.28756" lon="5.78326">
        <ele>1798.8</ele>
        <time>2020-01-31T15:26:58Z</time>
      </trkpt>
      <trkpt lat="45.28756" lon="5.78326">
        <ele>1799</ele>
        <time>2020-01-31T15:26:59Z</time>
      </trkpt>
      <trkpt lat="45.28756" lon="5.78326">
        <ele>1799.6</ele>
        <time>2020-01-31T15:27:00Z</time>
      </trkpt>
      <trkpt lat="45.28756" lon="5.78326">
        <ele>1799.6</ele>
        <time>2020-01-31T15:27:01Z</time>
      </trkpt>
      <trkpt lat="45.28759" lon="5.78327">
        <ele>1799.8</ele>
        <time>2020-01-31T15:27:02Z</time>
      </trkpt>
      <trkpt lat="45.28759" lon="5.78327">
        <ele>1800</ele>
        <time>2020-01-31T15:27:03Z</time>
      </trkpt>
      <trkpt lat="45.28759" lon="5.78327">
        <ele>1799.8</ele>
        <time>2020-01-31T15:27:04Z</time>
      </trkpt>
      <trkpt lat="45.28761" lon="5.78328">
        <ele>1800</ele>
        <time>2020-01-31T15:27:05Z</time>
      </trkpt>
      <trkpt lat="45.28761" lon="5.78328">
        <ele>1800.6</ele>
        <time>2020-01-31T15:27:06Z</time>
      </trkpt>
      <trkpt lat="45.28761" lon="5.78328">
        <ele>1800.8</ele>
        <time>2020-01-31T15:27:07Z</time>
      </trkpt>
      <trkpt lat="45.28763" lon="5.78328">
        <ele>1800.8</ele>
        <time>2020-01-31T15:27:08Z</time>
      </trkpt>
      <trkpt lat="45.28763" lon="5.78328">
        <ele>1801.2</ele>
        <time>2020-01-31T15:27:09Z</time>
      </trkpt>
      <trkpt lat="45.28765" lon="5.7833">
        <ele>1801.4</ele>
        <time>2020-01-31T15:27:10Z</time>
      </trkpt>
      <trkpt lat="45.28765" lon="5.7833">
        <ele>1801.6</ele>
        <time>2020-01-31T15:27:11Z</time>
      </trkpt>
      <trkpt lat="45.28765" lon="5.7833">
        <ele>1801.8</ele>
        <time>2020-01-31T15:27:12Z</time>
      </trkpt>
      <trkpt lat="45.28766" lon="5.78331">
        <ele>1801.8</ele>
        <time>2020-01-31T15:27:13Z</time>
      </trkpt>
      <trkpt lat="45.28766" lon="5.78331">
        <ele>1802.2</ele>
        <time>2020-01-31T15:27:14Z</time>
      </trkpt>
      <trkpt lat="45.28766" lon="5.78331">
        <ele>1802.2</ele>
        <time>2020-01-31T15:27:15Z</time>
      </trkpt>
      <trkpt lat="45.28769" lon="5.78332">
        <ele>1802.4</ele>
        <time>2020-01-31T15:27:16Z</time>
      </trkpt>
      <trkpt lat="45.28769" lon="5.78332">
        <ele>1802.6</ele>
        <time>2020-01-31T15:27:17Z</time>
      </trkpt>
      <trkpt lat="45.28769" lon="5.78332">
        <ele>1802.8</ele>
        <time>2020-01-31T15:27:18Z</time>
      </trkpt>
      <trkpt lat="45.2877" lon="5.78333">
        <ele>1803</ele>
        <time>2020-01-31T15:27:19Z</time>
      </trkpt>
      <trkpt lat="45.2877" lon="5.78333">
        <ele>1803</ele>
        <time>2020-01-31T15:27:20Z</time>
      </trkpt>
      <trkpt lat="45.28772" lon="5.78334">
        <ele>1803.4</ele>
        <time>2020-01-31T15:27:21Z</time>
      </trkpt>
      <trkpt lat="45.28772" lon="5.78334">
        <ele>1803.4</ele>
        <time>2020-01-31T15:27:22Z</time>
      </trkpt>
      <trkpt lat="45.28772" lon="5.78334">
        <ele>1803.6</ele>
        <time>2020-01-31T15:27:23Z</time>
      </trkpt>
      <trkpt lat="45.28774" lon="5.78335">
        <ele>1803.8</ele>
        <time>2020-01-31T15:27:24Z</time>
      </trkpt>
      <trkpt lat="45.28774" lon="5.78335">
        <ele>1804</ele>
        <time>2020-01-31T15:27:25Z</time>
      </trkpt>
      <trkpt lat="45.28776" lon="5.78336">
        <ele>1804.6</ele>
        <time>2020-01-31T15:27:26Z</time>
      </trkpt>
      <trkpt lat="45.28776" lon="5.78336">
        <ele>1804.8</ele>
        <time>2020-01-31T15:27:27Z</time>
      </trkpt>
      <trkpt lat="45.28776" lon="5.78336">
        <ele>1805</ele>
        <time>2020-01-31T15:27:28Z</time>
      </trkpt>
      <trkpt lat="45.28778" lon="5.78337">
        <ele>1804.8</ele>
        <time>2020-01-31T15:27:29Z</time>
      </trkpt>
      <trkpt lat="45.28778" lon="5.78337">
        <ele>1804.8</ele>
        <time>2020-01-31T15:27:30Z</time>
      </trkpt>
      <trkpt lat="45.28778" lon="5.78337">
        <ele>1805.2</ele>
        <time>2020-01-31T15:27:31Z</time>
      </trkpt>
      <trkpt lat="45.2878" lon="5.78338">
        <ele>1805.4</ele>
        <time>2020-01-31T15:27:32Z</time>
      </trkpt>
      <trkpt lat="45.2878" lon="5.78338">
        <ele>1805.8</ele>
        <time>2020-01-31T15:27:33Z</time>
      </trkpt>
      <trkpt lat="45.2878" lon="5.78338">
        <ele>1805.8</ele>
        <time>2020-01-31T15:27:34Z</time>
      </trkpt>
      <trkpt lat="45.28782" lon="5.78339">
        <ele>1806.2</ele>
        <time>2020-01-31T15:27:35Z</time>
      </trkpt>
      <trkpt lat="45.28782" lon="5.78339">
        <ele>1806.2</ele>
        <time>2020-01-31T15:27:36Z</time>
      </trkpt>
      <trkpt lat="45.28782" lon="5.78339">
        <ele>1806.4</ele>
        <time>2020-01-31T15:27:37Z</time>
      </trkpt>
      <trkpt lat="45.28784" lon="5.78339">
        <ele>1806.4</ele>
        <time>2020-01-31T15:27:38Z</time>
      </trkpt>
      <trkpt lat="45.28784" lon="5.78339">
        <ele>1806.4</ele>
        <time>2020-01-31T15:27:39Z</time>
      </trkpt>
      <trkpt lat="45.28784" lon="5.78339">
        <ele>1806.8</ele>
        <time>2020-01-31T15:27:40Z</time>
      </trkpt>
      <trkpt lat="45.28786" lon="5.7834">
        <ele>1806.8</ele>
        <time>2020-01-31T15:27:41Z</time>
      </trkpt>
      <trkpt lat="45.28786" lon="5.7834">
        <ele>1807</ele>
        <time>2020-01-31T15:27:42Z</time>
      </trkpt>
      <trkpt lat="45.28786" lon="5.7834">
        <ele>1807</ele>
        <time>2020-01-31T15:27:43Z</time>
      </trkpt>
      <trkpt lat="45.28789" lon="5.78341">
        <ele>1807</ele>
        <time>2020-01-31T15:27:44Z</time>
      </trkpt>
      <trkpt lat="45.28789" lon="5.78341">
        <ele>1807.2</ele>
        <time>2020-01-31T15:27:45Z</time>
      </trkpt>
      <trkpt lat="45.28789" lon="5.78341">
        <ele>1807.4</ele>
        <time>2020-01-31T15:27:46Z</time>
      </trkpt>
      <trkpt lat="45.2879" lon="5.78344">
        <ele>1807.6</ele>
        <time>2020-01-31T15:27:47Z</time>
      </trkpt>
      <trkpt lat="45.2879" lon="5.78344">
        <ele>1808.2</ele>
        <time>2020-01-31T15:27:48Z</time>
      </trkpt>
      <trkpt lat="45.2879" lon="5.78344">
        <ele>1808.6</ele>
        <time>2020-01-31T15:27:49Z</time>
      </trkpt>
      <trkpt lat="45.28789" lon="5.78346">
        <ele>1809</ele>
        <time>2020-01-31T15:27:50Z</time>
      </trkpt>
      <trkpt lat="45.28789" lon="5.78346">
        <ele>1809.2</ele>
        <time>2020-01-31T15:27:51Z</time>
      </trkpt>
      <trkpt lat="45.28789" lon="5.78346">
        <ele>1809.6</ele>
        <time>2020-01-31T15:27:52Z</time>
      </trkpt>
      <trkpt lat="45.28789" lon="5.78346">
        <ele>1809.6</ele>
        <time>2020-01-31T15:27:53Z</time>
      </trkpt>
      <trkpt lat="45.28787" lon="5.78347">
        <ele>1810</ele>
        <time>2020-01-31T15:27:54Z</time>
      </trkpt>
      <trkpt lat="45.28787" lon="5.78347">
        <ele>1810.4</ele>
        <time>2020-01-31T15:27:55Z</time>
      </trkpt>
      <trkpt lat="45.28787" lon="5.78347">
        <ele>1810.6</ele>
        <time>2020-01-31T15:27:56Z</time>
      </trkpt>
      <trkpt lat="45.28785" lon="5.7835">
        <ele>1810.8</ele>
        <time>2020-01-31T15:27:57Z</time>
      </trkpt>
      <trkpt lat="45.28785" lon="5.7835">
        <ele>1811.2</ele>
        <time>2020-01-31T15:27:58Z</time>
      </trkpt>
      <trkpt lat="45.28785" lon="5.7835">
        <ele>1811.4</ele>
        <time>2020-01-31T15:27:59Z</time>
      </trkpt>
      <trkpt lat="45.28783" lon="5.7835">
        <ele>1811.6</ele>
        <time>2020-01-31T15:28:00Z</time>
      </trkpt>
      <trkpt lat="45.28783" lon="5.7835">
        <ele>1811.8</ele>
        <time>2020-01-31T15:28:01Z</time>
      </trkpt>
      <trkpt lat="45.28783" lon="5.7835">
        <ele>1812</ele>
        <time>2020-01-31T15:28:02Z</time>
      </trkpt>
      <trkpt lat="45.28781" lon="5.78352">
        <ele>1812.2</ele>
        <time>2020-01-31T15:28:03Z</time>
      </trkpt>
      <trkpt lat="45.28781" lon="5.78352">
        <ele>1812.6</ele>
        <time>2020-01-31T15:28:04Z</time>
      </trkpt>
      <trkpt lat="45.28781" lon="5.78352">
        <ele>1812.8</ele>
        <time>2020-01-31T15:28:05Z</time>
      </trkpt>
      <trkpt lat="45.28779" lon="5.78352">
        <ele>1813.2</ele>
        <time>2020-01-31T15:28:06Z</time>
      </trkpt>
      <trkpt lat="45.28779" lon="5.78352">
        <ele>1813.2</ele>
        <time>2020-01-31T15:28:07Z</time>
      </trkpt>
      <trkpt lat="45.28779" lon="5.78352">
        <ele>1813.4</ele>
        <time>2020-01-31T15:28:08Z</time>
      </trkpt>
      <trkpt lat="45.28779" lon="5.78352">
        <ele>1813.6</ele>
        <time>2020-01-31T15:28:09Z</time>
      </trkpt>
      <trkpt lat="45.28779" lon="5.78352">
        <ele>1813.8</ele>
        <time>2020-01-31T15:28:10Z</time>
      </trkpt>
      <trkpt lat="45.28779" lon="5.78352">
        <ele>1813.6</ele>
        <time>2020-01-31T15:28:11Z</time>
      </trkpt>
      <trkpt lat="45.28779" lon="5.78352">
        <ele>1813.2</ele>
        <time>2020-01-31T15:28:12Z</time>
      </trkpt>
      <trkpt lat="45.28779" lon="5.78352">
        <ele>1813</ele>
        <time>2020-01-31T15:28:13Z</time>
      </trkpt>
      <trkpt lat="45.28779" lon="5.78352">
        <ele>1813</ele>
        <time>2020-01-31T15:28:14Z</time>
      </trkpt>
      <trkpt lat="45.28779" lon="5.78352">
        <ele>1813.2</ele>
        <time>2020-01-31T15:28:15Z</time>
      </trkpt>
      <trkpt lat="45.28779" lon="5.78352">
        <ele>1813.2</ele>
        <time>2020-01-31T15:28:16Z</time>
      </trkpt>
      <trkpt lat="45.28779" lon="5.78352">
        <ele>1813.2</ele>
        <time>2020-01-31T15:28:17Z</time>
      </trkpt>
      <trkpt lat="45.28779" lon="5.78352">
        <ele>1813.2</ele>
        <time>2020-01-31T15:28:18Z</time>
      </trkpt>
      <trkpt lat="45.28779" lon="5.78352">
        <ele>1813.4</ele>
        <time>2020-01-31T15:28:19Z</time>
      </trkpt>
      <trkpt lat="45.28779" lon="5.78352">
        <ele>1813.2</ele>
        <time>2020-01-31T15:28:20Z</time>
      </trkpt>
      <trkpt lat="45.28779" lon="5.78352">
        <ele>1813</ele>
        <time>2020-01-31T15:28:21Z</time>
      </trkpt>
      <trkpt lat="45.28779" lon="5.78352">
        <ele>1813</ele>
        <time>2020-01-31T15:28:22Z</time>
      </trkpt>
      <trkpt lat="45.28779" lon="5.78352">
        <ele>1813</ele>
        <time>2020-01-31T15:28:23Z</time>
      </trkpt>
      <trkpt lat="45.28779" lon="5.78352">
        <ele>1812.8</ele>
        <time>2020-01-31T15:28:24Z</time>
      </trkpt>
      <trkpt lat="45.28779" lon="5.78352">
        <ele>1812.8</ele>
        <time>2020-01-31T15:28:25Z</time>
      </trkpt>
      <trkpt lat="45.28779" lon="5.78352">
        <ele>1812.8</ele>
        <time>2020-01-31T15:28:26Z</time>
      </trkpt>
      <trkpt lat="45.28779" lon="5.78352">
        <ele>1812.8</ele>
        <time>2020-01-31T15:28:27Z</time>
      </trkpt>
      <trkpt lat="45.2878" lon="5.78353">
        <ele>1812.8</ele>
        <time>2020-01-31T15:28:28Z</time>
      </trkpt>
      <trkpt lat="45.2878" lon="5.78353">
        <ele>1812.6</ele>
        <time>2020-01-31T15:28:29Z</time>
      </trkpt>
      <trkpt lat="45.28783" lon="5.78354">
        <ele>1812.6</ele>
        <time>2020-01-31T15:28:30Z</time>
      </trkpt>
      <trkpt lat="45.28783" lon="5.78354">
        <ele>1812.8</ele>
        <time>2020-01-31T15:28:31Z</time>
      </trkpt>
      <trkpt lat="45.28785" lon="5.78354">
        <ele>1813</ele>
        <time>2020-01-31T15:28:32Z</time>
      </trkpt>
      <trkpt lat="45.28785" lon="5.78354">
        <ele>1813.2</ele>
        <time>2020-01-31T15:28:33Z</time>
      </trkpt>
      <trkpt lat="45.28785" lon="5.78354">
        <ele>1813</ele>
        <time>2020-01-31T15:28:34Z</time>
      </trkpt>
      <trkpt lat="45.28785" lon="5.78354">
        <ele>1813.6</ele>
        <time>2020-01-31T15:28:35Z</time>
      </trkpt>
      <trkpt lat="45.28787" lon="5.78354">
        <ele>1813.6</ele>
        <time>2020-01-31T15:28:36Z</time>
      </trkpt>
      <trkpt lat="45.28787" lon="5.78354">
        <ele>1813.4</ele>
        <time>2020-01-31T15:28:37Z</time>
      </trkpt>
      <trkpt lat="45.28787" lon="5.78354">
        <ele>1813.6</ele>
        <time>2020-01-31T15:28:38Z</time>
      </trkpt>
      <trkpt lat="45.28787" lon="5.78354">
        <ele>1813.4</ele>
        <time>2020-01-31T15:28:39Z</time>
      </trkpt>
      <trkpt lat="45.28787" lon="5.78354">
        <ele>1813.8</ele>
        <time>2020-01-31T15:28:40Z</time>
      </trkpt>
      <trkpt lat="45.28787" lon="5.78354">
        <ele>1814.4</ele>
        <time>2020-01-31T15:28:41Z</time>
      </trkpt>
      <trkpt lat="45.28788" lon="5.78356">
        <ele>1815</ele>
        <time>2020-01-31T15:28:42Z</time>
      </trkpt>
      <trkpt lat="45.28788" lon="5.78356">
        <ele>1814.8</ele>
        <time>2020-01-31T15:28:43Z</time>
      </trkpt>
      <trkpt lat="45.28788" lon="5.78356">
        <ele>1815.2</ele>
        <time>2020-01-31T15:28:44Z</time>
      </trkpt>
      <trkpt lat="45.28788" lon="5.78356">
        <ele>1815.2</ele>
        <time>2020-01-31T15:28:45Z</time>
      </trkpt>
      <trkpt lat="45.28787" lon="5.7836">
        <ele>1815</ele>
        <time>2020-01-31T15:28:46Z</time>
      </trkpt>
      <trkpt lat="45.28787" lon="5.7836">
        <ele>1815.8</ele>
        <time>2020-01-31T15:28:47Z</time>
      </trkpt>
      <trkpt lat="45.28787" lon="5.7836">
        <ele>1816.4</ele>
        <time>2020-01-31T15:28:48Z</time>
      </trkpt>
      <trkpt lat="45.28787" lon="5.7836">
        <ele>1816.6</ele>
        <time>2020-01-31T15:28:49Z</time>
      </trkpt>
      <trkpt lat="45.28785" lon="5.78361">
        <ele>1816.4</ele>
        <time>2020-01-31T15:28:50Z</time>
      </trkpt>
      <trkpt lat="45.28785" lon="5.78361">
        <ele>1817</ele>
        <time>2020-01-31T15:28:51Z</time>
      </trkpt>
      <trkpt lat="45.28785" lon="5.78361">
        <ele>1817.4</ele>
        <time>2020-01-31T15:28:52Z</time>
      </trkpt>
      <trkpt lat="45.28784" lon="5.78362">
        <ele>1817.4</ele>
        <time>2020-01-31T15:28:53Z</time>
      </trkpt>
      <trkpt lat="45.28784" lon="5.78362">
        <ele>1817.2</ele>
        <time>2020-01-31T15:28:54Z</time>
      </trkpt>
      <trkpt lat="45.28784" lon="5.78362">
        <ele>1817.6</ele>
        <time>2020-01-31T15:28:55Z</time>
      </trkpt>
      <trkpt lat="45.28784" lon="5.78362">
        <ele>1818</ele>
        <time>2020-01-31T15:28:56Z</time>
      </trkpt>
      <trkpt lat="45.28782" lon="5.78364">
        <ele>1818</ele>
        <time>2020-01-31T15:28:57Z</time>
      </trkpt>
      <trkpt lat="45.28782" lon="5.78364">
        <ele>1818</ele>
        <time>2020-01-31T15:28:58Z</time>
      </trkpt>
      <trkpt lat="45.28782" lon="5.78364">
        <ele>1818.4</ele>
        <time>2020-01-31T15:28:59Z</time>
      </trkpt>
      <trkpt lat="45.28781" lon="5.78366">
        <ele>1818.8</ele>
        <time>2020-01-31T15:29:00Z</time>
      </trkpt>
      <trkpt lat="45.28781" lon="5.78366">
        <ele>1818.8</ele>
        <time>2020-01-31T15:29:01Z</time>
      </trkpt>
      <trkpt lat="45.28781" lon="5.78366">
        <ele>1819</ele>
        <time>2020-01-31T15:29:02Z</time>
      </trkpt>
      <trkpt lat="45.28781" lon="5.78366">
        <ele>1819.4</ele>
        <time>2020-01-31T15:29:03Z</time>
      </trkpt>
      <trkpt lat="45.28779" lon="5.78367">
        <ele>1819.4</ele>
        <time>2020-01-31T15:29:04Z</time>
      </trkpt>
      <trkpt lat="45.28779" lon="5.78367">
        <ele>1819.4</ele>
        <time>2020-01-31T15:29:05Z</time>
      </trkpt>
      <trkpt lat="45.28777" lon="5.78368">
        <ele>1819.8</ele>
        <time>2020-01-31T15:29:06Z</time>
      </trkpt>
      <trkpt lat="45.28777" lon="5.78368">
        <ele>1820.2</ele>
        <time>2020-01-31T15:29:07Z</time>
      </trkpt>
      <trkpt lat="45.28777" lon="5.78368">
        <ele>1820.4</ele>
        <time>2020-01-31T15:29:08Z</time>
      </trkpt>
      <trkpt lat="45.28775" lon="5.7837">
        <ele>1820</ele>
        <time>2020-01-31T15:29:09Z</time>
      </trkpt>
      <trkpt lat="45.28775" lon="5.7837">
        <ele>1820.4</ele>
        <time>2020-01-31T15:29:10Z</time>
      </trkpt>
      <trkpt lat="45.28775" lon="5.7837">
        <ele>1820.6</ele>
        <time>2020-01-31T15:29:11Z</time>
      </trkpt>
      <trkpt lat="45.28775" lon="5.7837">
        <ele>1821</ele>
        <time>2020-01-31T15:29:12Z</time>
      </trkpt>
      <trkpt lat="45.28773" lon="5.7837">
        <ele>1821</ele>
        <time>2020-01-31T15:29:13Z</time>
      </trkpt>
      <trkpt lat="45.28773" lon="5.7837">
        <ele>1821.2</ele>
        <time>2020-01-31T15:29:14Z</time>
      </trkpt>
      <trkpt lat="45.28773" lon="5.7837">
        <ele>1821.2</ele>
        <time>2020-01-31T15:29:15Z</time>
      </trkpt>
      <trkpt lat="45.28771" lon="5.78371">
        <ele>1821.6</ele>
        <time>2020-01-31T15:29:16Z</time>
      </trkpt>
      <trkpt lat="45.28771" lon="5.78371">
        <ele>1821.4</ele>
        <time>2020-01-31T15:29:17Z</time>
      </trkpt>
      <trkpt lat="45.28771" lon="5.78371">
        <ele>1821.6</ele>
        <time>2020-01-31T15:29:18Z</time>
      </trkpt>
      <trkpt lat="45.28771" lon="5.78371">
        <ele>1821.8</ele>
        <time>2020-01-31T15:29:19Z</time>
      </trkpt>
      <trkpt lat="45.28771" lon="5.78371">
        <ele>1822.2</ele>
        <time>2020-01-31T15:29:20Z</time>
      </trkpt>
      <trkpt lat="45.28771" lon="5.78371">
        <ele>1822.2</ele>
        <time>2020-01-31T15:29:21Z</time>
      </trkpt>
      <trkpt lat="45.28771" lon="5.78371">
        <ele>1822.2</ele>
        <time>2020-01-31T15:29:22Z</time>
      </trkpt>
      <trkpt lat="45.28771" lon="5.78371">
        <ele>1822</ele>
        <time>2020-01-31T15:29:23Z</time>
      </trkpt>
      <trkpt lat="45.28771" lon="5.78371">
        <ele>1822.2</ele>
        <time>2020-01-31T15:29:24Z</time>
      </trkpt>
      <trkpt lat="45.28771" lon="5.78371">
        <ele>1822.2</ele>
        <time>2020-01-31T15:29:25Z</time>
      </trkpt>
      <trkpt lat="45.28771" lon="5.78371">
        <ele>1821.8</ele>
        <time>2020-01-31T15:29:26Z</time>
      </trkpt>
      <trkpt lat="45.28771" lon="5.78371">
        <ele>1821.8</ele>
        <time>2020-01-31T15:29:27Z</time>
      </trkpt>
      <trkpt lat="45.28771" lon="5.78371">
        <ele>1821.8</ele>
        <time>2020-01-31T15:29:28Z</time>
      </trkpt>
      <trkpt lat="45.28771" lon="5.78371">
        <ele>1822</ele>
        <time>2020-01-31T15:29:29Z</time>
      </trkpt>
      <trkpt lat="45.28771" lon="5.78371">
        <ele>1822.2</ele>
        <time>2020-01-31T15:29:30Z</time>
      </trkpt>
      <trkpt lat="45.28771" lon="5.78371">
        <ele>1822.6</ele>
        <time>2020-01-31T15:29:31Z</time>
      </trkpt>
      <trkpt lat="45.28773" lon="5.78372">
        <ele>1822.6</ele>
        <time>2020-01-31T15:29:32Z</time>
      </trkpt>
      <trkpt lat="45.28773" lon="5.78372">
        <ele>1822.8</ele>
        <time>2020-01-31T15:29:33Z</time>
      </trkpt>
      <trkpt lat="45.28773" lon="5.78372">
        <ele>1823</ele>
        <time>2020-01-31T15:29:34Z</time>
      </trkpt>
      <trkpt lat="45.28773" lon="5.78372">
        <ele>1823.2</ele>
        <time>2020-01-31T15:29:35Z</time>
      </trkpt>
      <trkpt lat="45.28773" lon="5.78372">
        <ele>1823.6</ele>
        <time>2020-01-31T15:29:36Z</time>
      </trkpt>
      <trkpt lat="45.28773" lon="5.78372">
        <ele>1824</ele>
        <time>2020-01-31T15:29:37Z</time>
      </trkpt>
      <trkpt lat="45.28773" lon="5.78372">
        <ele>1824.4</ele>
        <time>2020-01-31T15:29:38Z</time>
      </trkpt>
      <trkpt lat="45.28771" lon="5.78374">
        <ele>1824.8</ele>
        <time>2020-01-31T15:29:39Z</time>
      </trkpt>
      <trkpt lat="45.28771" lon="5.78374">
        <ele>1825.2</ele>
        <time>2020-01-31T15:29:40Z</time>
      </trkpt>
      <trkpt lat="45.28771" lon="5.78374">
        <ele>1825.4</ele>
        <time>2020-01-31T15:29:41Z</time>
      </trkpt>
      <trkpt lat="45.28771" lon="5.78374">
        <ele>1825.4</ele>
        <time>2020-01-31T15:29:42Z</time>
      </trkpt>
      <trkpt lat="45.28771" lon="5.78374">
        <ele>1825.8</ele>
        <time>2020-01-31T15:29:43Z</time>
      </trkpt>
      <trkpt lat="45.2877" lon="5.78376">
        <ele>1826</ele>
        <time>2020-01-31T15:29:44Z</time>
      </trkpt>
      <trkpt lat="45.2877" lon="5.78376">
        <ele>1826.2</ele>
        <time>2020-01-31T15:29:45Z</time>
      </trkpt>
      <trkpt lat="45.2877" lon="5.78376">
        <ele>1826.6</ele>
        <time>2020-01-31T15:29:46Z</time>
      </trkpt>
      <trkpt lat="45.2877" lon="5.78376">
        <ele>1826.6</ele>
        <time>2020-01-31T15:29:47Z</time>
      </trkpt>
      <trkpt lat="45.2877" lon="5.78376">
        <ele>1826.8</ele>
        <time>2020-01-31T15:29:48Z</time>
      </trkpt>
      <trkpt lat="45.28768" lon="5.78376">
        <ele>1827</ele>
        <time>2020-01-31T15:29:49Z</time>
      </trkpt>
      <trkpt lat="45.28768" lon="5.78376">
        <ele>1827.4</ele>
        <time>2020-01-31T15:29:50Z</time>
      </trkpt>
      <trkpt lat="45.28768" lon="5.78376">
        <ele>1827.4</ele>
        <time>2020-01-31T15:29:51Z</time>
      </trkpt>
      <trkpt lat="45.28768" lon="5.78376">
        <ele>1827.4</ele>
        <time>2020-01-31T15:29:52Z</time>
      </trkpt>
      <trkpt lat="45.28766" lon="5.78378">
        <ele>1827.6</ele>
        <time>2020-01-31T15:29:53Z</time>
      </trkpt>
      <trkpt lat="45.28766" lon="5.78378">
        <ele>1827.8</ele>
        <time>2020-01-31T15:29:54Z</time>
      </trkpt>
      <trkpt lat="45.28766" lon="5.78378">
        <ele>1828</ele>
        <time>2020-01-31T15:29:55Z</time>
      </trkpt>
      <trkpt lat="45.28766" lon="5.78378">
        <ele>1828</ele>
        <time>2020-01-31T15:29:56Z</time>
      </trkpt>
      <trkpt lat="45.28766" lon="5.78378">
        <ele>1828.4</ele>
        <time>2020-01-31T15:29:57Z</time>
      </trkpt>
      <trkpt lat="45.28764" lon="5.78379">
        <ele>1828.6</ele>
        <time>2020-01-31T15:29:58Z</time>
      </trkpt>
      <trkpt lat="45.28764" lon="5.78379">
        <ele>1828.8</ele>
        <time>2020-01-31T15:29:59Z</time>
      </trkpt>
      <trkpt lat="45.28764" lon="5.78379">
        <ele>1828.8</ele>
        <time>2020-01-31T15:30:00Z</time>
      </trkpt>
      <trkpt lat="45.28764" lon="5.78379">
        <ele>1829</ele>
        <time>2020-01-31T15:30:01Z</time>
      </trkpt>
      <trkpt lat="45.28762" lon="5.78381">
        <ele>1829.2</ele>
        <time>2020-01-31T15:30:02Z</time>
      </trkpt>
      <trkpt lat="45.28762" lon="5.78381">
        <ele>1829.6</ele>
        <time>2020-01-31T15:30:03Z</time>
      </trkpt>
      <trkpt lat="45.28762" lon="5.78381">
        <ele>1829.6</ele>
        <time>2020-01-31T15:30:04Z</time>
      </trkpt>
      <trkpt lat="45.28762" lon="5.78381">
        <ele>1829.4</ele>
        <time>2020-01-31T15:30:05Z</time>
      </trkpt>
      <trkpt lat="45.2876" lon="5.78382">
        <ele>1829.2</ele>
        <time>2020-01-31T15:30:06Z</time>
      </trkpt>
      <trkpt lat="45.2876" lon="5.78382">
        <ele>1829.2</ele>
        <time>2020-01-31T15:30:07Z</time>
      </trkpt>
      <trkpt lat="45.2876" lon="5.78382">
        <ele>1829.8</ele>
        <time>2020-01-31T15:30:08Z</time>
      </trkpt>
      <trkpt lat="45.2876" lon="5.78382">
        <ele>1830.2</ele>
        <time>2020-01-31T15:30:09Z</time>
      </trkpt>
      <trkpt lat="45.2876" lon="5.78382">
        <ele>1830.2</ele>
        <time>2020-01-31T15:30:10Z</time>
      </trkpt>
      <trkpt lat="45.2876" lon="5.78382">
        <ele>1830.4</ele>
        <time>2020-01-31T15:30:11Z</time>
      </trkpt>
      <trkpt lat="45.2876" lon="5.78382">
        <ele>1830.6</ele>
        <time>2020-01-31T15:30:12Z</time>
      </trkpt>
      <trkpt lat="45.2876" lon="5.78382">
        <ele>1830.8</ele>
        <time>2020-01-31T15:30:13Z</time>
      </trkpt>
      <trkpt lat="45.2876" lon="5.78382">
        <ele>1830.4</ele>
        <time>2020-01-31T15:30:14Z</time>
      </trkpt>
      <trkpt lat="45.2876" lon="5.78382">
        <ele>1830.6</ele>
        <time>2020-01-31T15:30:15Z</time>
      </trkpt>
      <trkpt lat="45.2876" lon="5.78382">
        <ele>1830.6</ele>
        <time>2020-01-31T15:30:16Z</time>
      </trkpt>
      <trkpt lat="45.2876" lon="5.78382">
        <ele>1830.6</ele>
        <time>2020-01-31T15:30:17Z</time>
      </trkpt>
      <trkpt lat="45.2876" lon="5.78382">
        <ele>1830.8</ele>
        <time>2020-01-31T15:30:18Z</time>
      </trkpt>
      <trkpt lat="45.2876" lon="5.78382">
        <ele>1831.2</ele>
        <time>2020-01-31T15:30:19Z</time>
      </trkpt>
      <trkpt lat="45.28761" lon="5.78385">
        <ele>1831.2</ele>
        <time>2020-01-31T15:30:20Z</time>
      </trkpt>
      <trkpt lat="45.28761" lon="5.78385">
        <ele>1831.4</ele>
        <time>2020-01-31T15:30:21Z</time>
      </trkpt>
      <trkpt lat="45.28761" lon="5.78385">
        <ele>1831.4</ele>
        <time>2020-01-31T15:30:22Z</time>
      </trkpt>
      <trkpt lat="45.28761" lon="5.78385">
        <ele>1831.8</ele>
        <time>2020-01-31T15:30:23Z</time>
      </trkpt>
      <trkpt lat="45.28763" lon="5.78387">
        <ele>1831.8</ele>
        <time>2020-01-31T15:30:24Z</time>
      </trkpt>
      <trkpt lat="45.28763" lon="5.78387">
        <ele>1831.8</ele>
        <time>2020-01-31T15:30:25Z</time>
      </trkpt>
      <trkpt lat="45.28763" lon="5.78387">
        <ele>1831.8</ele>
        <time>2020-01-31T15:30:26Z</time>
      </trkpt>
      <trkpt lat="45.28763" lon="5.78387">
        <ele>1832.2</ele>
        <time>2020-01-31T15:30:27Z</time>
      </trkpt>
      <trkpt lat="45.28763" lon="5.78387">
        <ele>1832.2</ele>
        <time>2020-01-31T15:30:28Z</time>
      </trkpt>
      <trkpt lat="45.28763" lon="5.78387">
        <ele>1832.2</ele>
        <time>2020-01-31T15:30:29Z</time>
      </trkpt>
      <trkpt lat="45.28763" lon="5.78387">
        <ele>1832.4</ele>
        <time>2020-01-31T15:30:30Z</time>
      </trkpt>
      <trkpt lat="45.28763" lon="5.78387">
        <ele>1832.4</ele>
        <time>2020-01-31T15:30:31Z</time>
      </trkpt>
      <trkpt lat="45.28763" lon="5.78387">
        <ele>1832.4</ele>
        <time>2020-01-31T15:30:32Z</time>
      </trkpt>
      <trkpt lat="45.28763" lon="5.78387">
        <ele>1832.4</ele>
        <time>2020-01-31T15:30:33Z</time>
      </trkpt>
      <trkpt lat="45.28763" lon="5.78387">
        <ele>1832.4</ele>
        <time>2020-01-31T15:30:34Z</time>
      </trkpt>
      <trkpt lat="45.28763" lon="5.78387">
        <ele>1832.2</ele>
        <time>2020-01-31T15:30:35Z</time>
      </trkpt>
      <trkpt lat="45.28763" lon="5.78387">
        <ele>1832.2</ele>
        <time>2020-01-31T15:30:36Z</time>
      </trkpt>
      <trkpt lat="45.28763" lon="5.78387">
        <ele>1832.4</ele>
        <time>2020-01-31T15:30:37Z</time>
      </trkpt>
      <trkpt lat="45.28763" lon="5.78387">
        <ele>1832.2</ele>
        <time>2020-01-31T15:30:38Z</time>
      </trkpt>
      <trkpt lat="45.28763" lon="5.78387">
        <ele>1832.8</ele>
        <time>2020-01-31T15:30:39Z</time>
      </trkpt>
      <trkpt lat="45.28763" lon="5.78387">
        <ele>1833</ele>
        <time>2020-01-31T15:30:40Z</time>
      </trkpt>
      <trkpt lat="45.28763" lon="5.78387">
        <ele>1833</ele>
        <time>2020-01-31T15:30:41Z</time>
      </trkpt>
      <trkpt lat="45.28763" lon="5.78387">
        <ele>1833</ele>
        <time>2020-01-31T15:30:42Z</time>
      </trkpt>
      <trkpt lat="45.28763" lon="5.78387">
        <ele>1832.8</ele>
        <time>2020-01-31T15:30:43Z</time>
      </trkpt>
      <trkpt lat="45.28763" lon="5.78387">
        <ele>1832.8</ele>
        <time>2020-01-31T15:30:44Z</time>
      </trkpt>
      <trkpt lat="45.28763" lon="5.78387">
        <ele>1832.6</ele>
        <time>2020-01-31T15:30:45Z</time>
      </trkpt>
      <trkpt lat="45.28763" lon="5.78387">
        <ele>1832.4</ele>
        <time>2020-01-31T15:30:46Z</time>
      </trkpt>
      <trkpt lat="45.28763" lon="5.78387">
        <ele>1832.4</ele>
        <time>2020-01-31T15:30:47Z</time>
      </trkpt>
      <trkpt lat="45.28763" lon="5.78387">
        <ele>1832.4</ele>
        <time>2020-01-31T15:30:48Z</time>
      </trkpt>
      <trkpt lat="45.28763" lon="5.78387">
        <ele>1832.4</ele>
        <time>2020-01-31T15:30:49Z</time>
      </trkpt>
      <trkpt lat="45.28763" lon="5.78387">
        <ele>1832.4</ele>
        <time>2020-01-31T15:30:50Z</time>
      </trkpt>
      <trkpt lat="45.28763" lon="5.78387">
        <ele>1832.4</ele>
        <time>2020-01-31T15:30:51Z</time>
      </trkpt>
      <trkpt lat="45.28763" lon="5.78389">
        <ele>1832.4</ele>
        <time>2020-01-31T15:30:52Z</time>
      </trkpt>
      <trkpt lat="45.28763" lon="5.78389">
        <ele>1832.6</ele>
        <time>2020-01-31T15:30:53Z</time>
      </trkpt>
      <trkpt lat="45.28763" lon="5.78389">
        <ele>1833</ele>
        <time>2020-01-31T15:30:54Z</time>
      </trkpt>
      <trkpt lat="45.28763" lon="5.78389">
        <ele>1833.4</ele>
        <time>2020-01-31T15:30:55Z</time>
      </trkpt>
      <trkpt lat="45.28763" lon="5.78389">
        <ele>1833.8</ele>
        <time>2020-01-31T15:30:56Z</time>
      </trkpt>
      <trkpt lat="45.28763" lon="5.78389">
        <ele>1833.8</ele>
        <time>2020-01-31T15:30:57Z</time>
      </trkpt>
      <trkpt lat="45.28763" lon="5.78389">
        <ele>1834</ele>
        <time>2020-01-31T15:30:58Z</time>
      </trkpt>
      <trkpt lat="45.28763" lon="5.78389">
        <ele>1833.6</ele>
        <time>2020-01-31T15:30:59Z</time>
      </trkpt>
      <trkpt lat="45.28763" lon="5.78389">
        <ele>1833.4</ele>
        <time>2020-01-31T15:31:00Z</time>
      </trkpt>
      <trkpt lat="45.28763" lon="5.78389">
        <ele>1833.4</ele>
        <time>2020-01-31T15:31:01Z</time>
      </trkpt>
      <trkpt lat="45.28763" lon="5.78389">
        <ele>1833.6</ele>
        <time>2020-01-31T15:31:02Z</time>
      </trkpt>
      <trkpt lat="45.28763" lon="5.78389">
        <ele>1834.2</ele>
        <time>2020-01-31T15:31:03Z</time>
      </trkpt>
      <trkpt lat="45.28763" lon="5.78389">
        <ele>1834.4</ele>
        <time>2020-01-31T15:31:04Z</time>
      </trkpt>
      <trkpt lat="45.28763" lon="5.78389">
        <ele>1834.4</ele>
        <time>2020-01-31T15:31:05Z</time>
      </trkpt>
      <trkpt lat="45.28762" lon="5.78392">
        <ele>1834.6</ele>
        <time>2020-01-31T15:31:06Z</time>
      </trkpt>
      <trkpt lat="45.28762" lon="5.78392">
        <ele>1835</ele>
        <time>2020-01-31T15:31:07Z</time>
      </trkpt>
      <trkpt lat="45.2876" lon="5.78392">
        <ele>1834.8</ele>
        <time>2020-01-31T15:31:08Z</time>
      </trkpt>
      <trkpt lat="45.2876" lon="5.78392">
        <ele>1835</ele>
        <time>2020-01-31T15:31:09Z</time>
      </trkpt>
      <trkpt lat="45.2876" lon="5.78392">
        <ele>1835.2</ele>
        <time>2020-01-31T15:31:10Z</time>
      </trkpt>
      <trkpt lat="45.28758" lon="5.78394">
        <ele>1835.6</ele>
        <time>2020-01-31T15:31:11Z</time>
      </trkpt>
      <trkpt lat="45.28758" lon="5.78394">
        <ele>1835.6</ele>
        <time>2020-01-31T15:31:12Z</time>
      </trkpt>
      <trkpt lat="45.28758" lon="5.78394">
        <ele>1836</ele>
        <time>2020-01-31T15:31:13Z</time>
      </trkpt>
      <trkpt lat="45.28758" lon="5.78394">
        <ele>1836</ele>
        <time>2020-01-31T15:31:14Z</time>
      </trkpt>
      <trkpt lat="45.28756" lon="5.78394">
        <ele>1835.8</ele>
        <time>2020-01-31T15:31:15Z</time>
      </trkpt>
      <trkpt lat="45.28756" lon="5.78394">
        <ele>1836</ele>
        <time>2020-01-31T15:31:16Z</time>
      </trkpt>
      <trkpt lat="45.28756" lon="5.78394">
        <ele>1836.2</ele>
        <time>2020-01-31T15:31:17Z</time>
      </trkpt>
      <trkpt lat="45.28756" lon="5.78394">
        <ele>1836.2</ele>
        <time>2020-01-31T15:31:18Z</time>
      </trkpt>
      <trkpt lat="45.28756" lon="5.78394">
        <ele>1836.2</ele>
        <time>2020-01-31T15:31:19Z</time>
      </trkpt>
      <trkpt lat="45.28756" lon="5.78394">
        <ele>1836</ele>
        <time>2020-01-31T15:31:20Z</time>
      </trkpt>
      <trkpt lat="45.28756" lon="5.78394">
        <ele>1835.8</ele>
        <time>2020-01-31T15:31:21Z</time>
      </trkpt>
      <trkpt lat="45.28756" lon="5.78394">
        <ele>1835.8</ele>
        <time>2020-01-31T15:31:22Z</time>
      </trkpt>
      <trkpt lat="45.28759" lon="5.78394">
        <ele>1836</ele>
        <time>2020-01-31T15:31:23Z</time>
      </trkpt>
      <trkpt lat="45.28759" lon="5.78394">
        <ele>1836.2</ele>
        <time>2020-01-31T15:31:24Z</time>
      </trkpt>
      <trkpt lat="45.2876" lon="5.78393">
        <ele>1836</ele>
        <time>2020-01-31T15:31:25Z</time>
      </trkpt>
      <trkpt lat="45.2876" lon="5.78393">
        <ele>1836</ele>
        <time>2020-01-31T15:31:26Z</time>
      </trkpt>
      <trkpt lat="45.28762" lon="5.78393">
        <ele>1836</ele>
        <time>2020-01-31T15:31:27Z</time>
      </trkpt>
      <trkpt lat="45.28762" lon="5.78393">
        <ele>1836</ele>
        <time>2020-01-31T15:31:28Z</time>
      </trkpt>
      <trkpt lat="45.28764" lon="5.78394">
        <ele>1836.2</ele>
        <time>2020-01-31T15:31:29Z</time>
      </trkpt>
      <trkpt lat="45.28764" lon="5.78394">
        <ele>1836.2</ele>
        <time>2020-01-31T15:31:30Z</time>
      </trkpt>
      <trkpt lat="45.28764" lon="5.78394">
        <ele>1836.4</ele>
        <time>2020-01-31T15:31:31Z</time>
      </trkpt>
      <trkpt lat="45.28766" lon="5.78395">
        <ele>1836.6</ele>
        <time>2020-01-31T15:31:32Z</time>
      </trkpt>
      <trkpt lat="45.28766" lon="5.78395">
        <ele>1837</ele>
        <time>2020-01-31T15:31:33Z</time>
      </trkpt>
      <trkpt lat="45.28766" lon="5.78395">
        <ele>1837.2</ele>
        <time>2020-01-31T15:31:34Z</time>
      </trkpt>
      <trkpt lat="45.28768" lon="5.78396">
        <ele>1837.2</ele>
        <time>2020-01-31T15:31:35Z</time>
      </trkpt>
      <trkpt lat="45.28768" lon="5.78396">
        <ele>1837.8</ele>
        <time>2020-01-31T15:31:36Z</time>
      </trkpt>
      <trkpt lat="45.28768" lon="5.78396">
        <ele>1838.2</ele>
        <time>2020-01-31T15:31:37Z</time>
      </trkpt>
      <trkpt lat="45.28768" lon="5.78399">
        <ele>1838.2</ele>
        <time>2020-01-31T15:31:38Z</time>
      </trkpt>
      <trkpt lat="45.28768" lon="5.78399">
        <ele>1837.8</ele>
        <time>2020-01-31T15:31:39Z</time>
      </trkpt>
      <trkpt lat="45.28768" lon="5.78399">
        <ele>1837.6</ele>
        <time>2020-01-31T15:31:40Z</time>
      </trkpt>
      <trkpt lat="45.28768" lon="5.78399">
        <ele>1837.8</ele>
        <time>2020-01-31T15:31:41Z</time>
      </trkpt>
      <trkpt lat="45.28768" lon="5.78399">
        <ele>1837.6</ele>
        <time>2020-01-31T15:31:42Z</time>
      </trkpt>
      <trkpt lat="45.28768" lon="5.78399">
        <ele>1837.8</ele>
        <time>2020-01-31T15:31:43Z</time>
      </trkpt>
      <trkpt lat="45.28768" lon="5.78399">
        <ele>1837.6</ele>
        <time>2020-01-31T15:31:44Z</time>
      </trkpt>
      <trkpt lat="45.28768" lon="5.78399">
        <ele>1837.6</ele>
        <time>2020-01-31T15:31:45Z</time>
      </trkpt>
      <trkpt lat="45.28768" lon="5.78399">
        <ele>1837.8</ele>
        <time>2020-01-31T15:31:46Z</time>
      </trkpt>
      <trkpt lat="45.28768" lon="5.78399">
        <ele>1838</ele>
        <time>2020-01-31T15:31:47Z</time>
      </trkpt>
      <trkpt lat="45.28768" lon="5.78399">
        <ele>1838</ele>
        <time>2020-01-31T15:31:48Z</time>
      </trkpt>
      <trkpt lat="45.28768" lon="5.78399">
        <ele>1837.8</ele>
        <time>2020-01-31T15:31:49Z</time>
      </trkpt>
      <trkpt lat="45.28768" lon="5.78399">
        <ele>1838</ele>
        <time>2020-01-31T15:31:50Z</time>
      </trkpt>
      <trkpt lat="45.28768" lon="5.78399">
        <ele>1838.4</ele>
        <time>2020-01-31T15:31:51Z</time>
      </trkpt>
      <trkpt lat="45.28768" lon="5.78399">
        <ele>1838.4</ele>
        <time>2020-01-31T15:31:52Z</time>
      </trkpt>
      <trkpt lat="45.28769" lon="5.78396">
        <ele>1838.6</ele>
        <time>2020-01-31T15:31:53Z</time>
      </trkpt>
      <trkpt lat="45.28769" lon="5.78396">
        <ele>1838.6</ele>
        <time>2020-01-31T15:31:54Z</time>
      </trkpt>
      <trkpt lat="45.28769" lon="5.78396">
        <ele>1838.2</ele>
        <time>2020-01-31T15:31:55Z</time>
      </trkpt>
      <trkpt lat="45.28769" lon="5.78396">
        <ele>1838</ele>
        <time>2020-01-31T15:31:56Z</time>
      </trkpt>
      <trkpt lat="45.28769" lon="5.78396">
        <ele>1837.8</ele>
        <time>2020-01-31T15:31:57Z</time>
      </trkpt>
      <trkpt lat="45.28769" lon="5.78396">
        <ele>1838.2</ele>
        <time>2020-01-31T15:31:58Z</time>
      </trkpt>
      <trkpt lat="45.28769" lon="5.78396">
        <ele>1838.4</ele>
        <time>2020-01-31T15:31:59Z</time>
      </trkpt>
      <trkpt lat="45.28769" lon="5.78396">
        <ele>1838.4</ele>
        <time>2020-01-31T15:32:00Z</time>
      </trkpt>
      <trkpt lat="45.28769" lon="5.78396">
        <ele>1838.2</ele>
        <time>2020-01-31T15:32:01Z</time>
      </trkpt>
      <trkpt lat="45.28769" lon="5.78396">
        <ele>1838.2</ele>
        <time>2020-01-31T15:32:02Z</time>
      </trkpt>
      <trkpt lat="45.28769" lon="5.78396">
        <ele>1838.4</ele>
        <time>2020-01-31T15:32:03Z</time>
      </trkpt>
      <trkpt lat="45.28769" lon="5.78396">
        <ele>1838.6</ele>
        <time>2020-01-31T15:32:04Z</time>
      </trkpt>
      <trkpt lat="45.28769" lon="5.78396">
        <ele>1838.8</ele>
        <time>2020-01-31T15:32:05Z</time>
      </trkpt>
      <trkpt lat="45.28769" lon="5.78396">
        <ele>1839</ele>
        <time>2020-01-31T15:32:06Z</time>
      </trkpt>
      <trkpt lat="45.28769" lon="5.78396">
        <ele>1838.8</ele>
        <time>2020-01-31T15:32:07Z</time>
      </trkpt>
      <trkpt lat="45.28769" lon="5.78396">
        <ele>1839.2</ele>
        <time>2020-01-31T15:32:08Z</time>
      </trkpt>
      <trkpt lat="45.28769" lon="5.78396">
        <ele>1839</ele>
        <time>2020-01-31T15:32:09Z</time>
      </trkpt>
      <trkpt lat="45.28769" lon="5.78396">
        <ele>1839</ele>
        <time>2020-01-31T15:32:10Z</time>
      </trkpt>
      <trkpt lat="45.28769" lon="5.78396">
        <ele>1838.8</ele>
        <time>2020-01-31T15:32:11Z</time>
      </trkpt>
      <trkpt lat="45.28769" lon="5.78396">
        <ele>1838.8</ele>
        <time>2020-01-31T15:32:12Z</time>
      </trkpt>
      <trkpt lat="45.28769" lon="5.78396">
        <ele>1838.8</ele>
        <time>2020-01-31T15:32:13Z</time>
      </trkpt>
      <trkpt lat="45.2877" lon="5.78399">
        <ele>1838.8</ele>
        <time>2020-01-31T15:32:14Z</time>
      </trkpt>
      <trkpt lat="45.2877" lon="5.78399">
        <ele>1838.4</ele>
        <time>2020-01-31T15:32:15Z</time>
      </trkpt>
      <trkpt lat="45.2877" lon="5.78399">
        <ele>1838.4</ele>
        <time>2020-01-31T15:32:16Z</time>
      </trkpt>
      <trkpt lat="45.2877" lon="5.78399">
        <ele>1838.2</ele>
        <time>2020-01-31T15:32:17Z</time>
      </trkpt>
      <trkpt lat="45.2877" lon="5.78399">
        <ele>1838</ele>
        <time>2020-01-31T15:32:18Z</time>
      </trkpt>
      <trkpt lat="45.2877" lon="5.78399">
        <ele>1838</ele>
        <time>2020-01-31T15:32:19Z</time>
      </trkpt>
      <trkpt lat="45.2877" lon="5.78399">
        <ele>1838</ele>
        <time>2020-01-31T15:32:20Z</time>
      </trkpt>
      <trkpt lat="45.2877" lon="5.78399">
        <ele>1838.2</ele>
        <time>2020-01-31T15:32:21Z</time>
      </trkpt>
      <trkpt lat="45.2877" lon="5.78399">
        <ele>1838</ele>
        <time>2020-01-31T15:32:22Z</time>
      </trkpt>
      <trkpt lat="45.2877" lon="5.78399">
        <ele>1837.8</ele>
        <time>2020-01-31T15:32:23Z</time>
      </trkpt>
      <trkpt lat="45.2877" lon="5.78399">
        <ele>1838</ele>
        <time>2020-01-31T15:32:24Z</time>
      </trkpt>
      <trkpt lat="45.2877" lon="5.78399">
        <ele>1838</ele>
        <time>2020-01-31T15:32:25Z</time>
      </trkpt>
      <trkpt lat="45.2877" lon="5.78399">
        <ele>1838</ele>
        <time>2020-01-31T15:32:26Z</time>
      </trkpt>
      <trkpt lat="45.2877" lon="5.78399">
        <ele>1838.2</ele>
        <time>2020-01-31T15:32:27Z</time>
      </trkpt>
      <trkpt lat="45.2877" lon="5.78399">
        <ele>1838.2</ele>
        <time>2020-01-31T15:32:28Z</time>
      </trkpt>
      <trkpt lat="45.2877" lon="5.78399">
        <ele>1838.6</ele>
        <time>2020-01-31T15:32:29Z</time>
      </trkpt>
      <trkpt lat="45.2877" lon="5.78399">
        <ele>1838.4</ele>
        <time>2020-01-31T15:32:30Z</time>
      </trkpt>
      <trkpt lat="45.2877" lon="5.78399">
        <ele>1838.4</ele>
        <time>2020-01-31T15:32:31Z</time>
      </trkpt>
      <trkpt lat="45.2877" lon="5.78399">
        <ele>1838.4</ele>
        <time>2020-01-31T15:32:32Z</time>
      </trkpt>
      <trkpt lat="45.2877" lon="5.78399">
        <ele>1838.4</ele>
        <time>2020-01-31T15:32:33Z</time>
      </trkpt>
      <trkpt lat="45.2877" lon="5.78399">
        <ele>1838.2</ele>
        <time>2020-01-31T15:32:34Z</time>
      </trkpt>
      <trkpt lat="45.2877" lon="5.78399">
        <ele>1838.2</ele>
        <time>2020-01-31T15:32:35Z</time>
      </trkpt>
      <trkpt lat="45.2877" lon="5.78399">
        <ele>1838.2</ele>
        <time>2020-01-31T15:32:36Z</time>
      </trkpt>
      <trkpt lat="45.2877" lon="5.78399">
        <ele>1838.2</ele>
        <time>2020-01-31T15:32:37Z</time>
      </trkpt>
      <trkpt lat="45.2877" lon="5.78399">
        <ele>1838.2</ele>
        <time>2020-01-31T15:32:38Z</time>
      </trkpt>
      <trkpt lat="45.2877" lon="5.78399">
        <ele>1838.4</ele>
        <time>2020-01-31T15:32:39Z</time>
      </trkpt>
      <trkpt lat="45.2877" lon="5.78399">
        <ele>1838.6</ele>
        <time>2020-01-31T15:32:40Z</time>
      </trkpt>
      <trkpt lat="45.28769" lon="5.78396">
        <ele>1838.8</ele>
        <time>2020-01-31T15:32:41Z</time>
      </trkpt>
      <trkpt lat="45.28769" lon="5.78396">
        <ele>1838.8</ele>
        <time>2020-01-31T15:32:42Z</time>
      </trkpt>
      <trkpt lat="45.28769" lon="5.78396">
        <ele>1838.6</ele>
        <time>2020-01-31T15:32:43Z</time>
      </trkpt>
      <trkpt lat="45.28769" lon="5.78396">
        <ele>1838.6</ele>
        <time>2020-01-31T15:32:44Z</time>
      </trkpt>
      <trkpt lat="45.28769" lon="5.78396">
        <ele>1838.8</ele>
        <time>2020-01-31T15:32:45Z</time>
      </trkpt>
      <trkpt lat="45.28769" lon="5.78396">
        <ele>1839.2</ele>
        <time>2020-01-31T15:32:46Z</time>
      </trkpt>
      <trkpt lat="45.28769" lon="5.78396">
        <ele>1838.8</ele>
        <time>2020-01-31T15:32:47Z</time>
      </trkpt>
      <trkpt lat="45.28769" lon="5.78396">
        <ele>1838.8</ele>
        <time>2020-01-31T15:32:48Z</time>
      </trkpt>
      <trkpt lat="45.28769" lon="5.78396">
        <ele>1838.8</ele>
        <time>2020-01-31T15:32:49Z</time>
      </trkpt>
      <trkpt lat="45.28769" lon="5.78396">
        <ele>1838.6</ele>
        <time>2020-01-31T15:32:50Z</time>
      </trkpt>
      <trkpt lat="45.28769" lon="5.78396">
        <ele>1839</ele>
        <time>2020-01-31T15:32:51Z</time>
      </trkpt>
      <trkpt lat="45.28769" lon="5.78396">
        <ele>1839.2</ele>
        <time>2020-01-31T15:32:52Z</time>
      </trkpt>
      <trkpt lat="45.28769" lon="5.78396">
        <ele>1839.2</ele>
        <time>2020-01-31T15:32:53Z</time>
      </trkpt>
      <trkpt lat="45.28769" lon="5.78396">
        <ele>1839.4</ele>
        <time>2020-01-31T15:32:54Z</time>
      </trkpt>
      <trkpt lat="45.28769" lon="5.78396">
        <ele>1839.4</ele>
        <time>2020-01-31T15:32:55Z</time>
      </trkpt>
      <trkpt lat="45.28769" lon="5.78396">
        <ele>1839.6</ele>
        <time>2020-01-31T15:32:56Z</time>
      </trkpt>
      <trkpt lat="45.28769" lon="5.78396">
        <ele>1839.4</ele>
        <time>2020-01-31T15:32:57Z</time>
      </trkpt>
      <trkpt lat="45.28769" lon="5.78396">
        <ele>1839.2</ele>
        <time>2020-01-31T15:32:58Z</time>
      </trkpt>
      <trkpt lat="45.28769" lon="5.78396">
        <ele>1839.4</ele>
        <time>2020-01-31T15:32:59Z</time>
      </trkpt>
      <trkpt lat="45.28769" lon="5.78396">
        <ele>1839.6</ele>
        <time>2020-01-31T15:33:00Z</time>
      </trkpt>
      <trkpt lat="45.28769" lon="5.78396">
        <ele>1839.6</ele>
        <time>2020-01-31T15:33:01Z</time>
      </trkpt>
      <trkpt lat="45.28769" lon="5.78396">
        <ele>1839.6</ele>
        <time>2020-01-31T15:33:02Z</time>
      </trkpt>
      <trkpt lat="45.28769" lon="5.78396">
        <ele>1839.6</ele>
        <time>2020-01-31T15:33:03Z</time>
      </trkpt>
      <trkpt lat="45.28769" lon="5.78396">
        <ele>1839.6</ele>
        <time>2020-01-31T15:33:04Z</time>
      </trkpt>
      <trkpt lat="45.28769" lon="5.78396">
        <ele>1839.4</ele>
        <time>2020-01-31T15:33:05Z</time>
      </trkpt>
      <trkpt lat="45.28769" lon="5.78396">
        <ele>1839.6</ele>
        <time>2020-01-31T15:33:06Z</time>
      </trkpt>
      <trkpt lat="45.28769" lon="5.78396">
        <ele>1839.8</ele>
        <time>2020-01-31T15:33:07Z</time>
      </trkpt>
      <trkpt lat="45.28769" lon="5.78396">
        <ele>1839.6</ele>
        <time>2020-01-31T15:33:08Z</time>
      </trkpt>
      <trkpt lat="45.28769" lon="5.78396">
        <ele>1839.6</ele>
        <time>2020-01-31T15:33:09Z</time>
      </trkpt>
      <trkpt lat="45.28769" lon="5.78396">
        <ele>1839.4</ele>
        <time>2020-01-31T15:33:10Z</time>
      </trkpt>
      <trkpt lat="45.28769" lon="5.78396">
        <ele>1839</ele>
        <time>2020-01-31T15:33:11Z</time>
      </trkpt>
      <trkpt lat="45.28769" lon="5.78396">
        <ele>1839</ele>
        <time>2020-01-31T15:33:12Z</time>
      </trkpt>
      <trkpt lat="45.28769" lon="5.78396">
        <ele>1839.2</ele>
        <time>2020-01-31T15:33:13Z</time>
      </trkpt>
      <trkpt lat="45.28769" lon="5.78396">
        <ele>1839.4</ele>
        <time>2020-01-31T15:33:14Z</time>
      </trkpt>
      <trkpt lat="45.28769" lon="5.78396">
        <ele>1839.4</ele>
        <time>2020-01-31T15:33:15Z</time>
      </trkpt>
      <trkpt lat="45.28769" lon="5.78396">
        <ele>1839.4</ele>
        <time>2020-01-31T15:33:16Z</time>
      </trkpt>
      <trkpt lat="45.28769" lon="5.78396">
        <ele>1839.4</ele>
        <time>2020-01-31T15:33:17Z</time>
      </trkpt>
      <trkpt lat="45.28769" lon="5.78396">
        <ele>1839.2</ele>
        <time>2020-01-31T15:33:18Z</time>
      </trkpt>
      <trkpt lat="45.28769" lon="5.78396">
        <ele>1839.4</ele>
        <time>2020-01-31T15:33:19Z</time>
      </trkpt>
      <trkpt lat="45.28769" lon="5.78396">
        <ele>1839.2</ele>
        <time>2020-01-31T15:33:20Z</time>
      </trkpt>
      <trkpt lat="45.28769" lon="5.78396">
        <ele>1839.2</ele>
        <time>2020-01-31T15:33:21Z</time>
      </trkpt>
      <trkpt lat="45.28769" lon="5.78396">
        <ele>1839.2</ele>
        <time>2020-01-31T15:33:22Z</time>
      </trkpt>
      <trkpt lat="45.28769" lon="5.78396">
        <ele>1839.2</ele>
        <time>2020-01-31T15:33:23Z</time>
      </trkpt>
      <trkpt lat="45.28769" lon="5.78396">
        <ele>1839.2</ele>
        <time>2020-01-31T15:33:24Z</time>
      </trkpt>
      <trkpt lat="45.28769" lon="5.78396">
        <ele>1839.4</ele>
        <time>2020-01-31T15:33:25Z</time>
      </trkpt>
      <trkpt lat="45.28769" lon="5.78396">
        <ele>1839.8</ele>
        <time>2020-01-31T15:33:26Z</time>
      </trkpt>
      <trkpt lat="45.28769" lon="5.78396">
        <ele>1840</ele>
        <time>2020-01-31T15:33:27Z</time>
      </trkpt>
      <trkpt lat="45.28769" lon="5.78396">
        <ele>1840</ele>
        <time>2020-01-31T15:33:28Z</time>
      </trkpt>
      <trkpt lat="45.28768" lon="5.78398">
        <ele>1840.6</ele>
        <time>2020-01-31T15:33:29Z</time>
      </trkpt>
      <trkpt lat="45.28768" lon="5.78398">
        <ele>1840.8</ele>
        <time>2020-01-31T15:33:30Z</time>
      </trkpt>
      <trkpt lat="45.28768" lon="5.78398">
        <ele>1841</ele>
        <time>2020-01-31T15:33:31Z</time>
      </trkpt>
      <trkpt lat="45.28768" lon="5.78398">
        <ele>1841.2</ele>
        <time>2020-01-31T15:33:32Z</time>
      </trkpt>
      <trkpt lat="45.28768" lon="5.78398">
        <ele>1841.4</ele>
        <time>2020-01-31T15:33:33Z</time>
      </trkpt>
      <trkpt lat="45.28767" lon="5.78401">
        <ele>1841.4</ele>
        <time>2020-01-31T15:33:34Z</time>
      </trkpt>
      <trkpt lat="45.28767" lon="5.78401">
        <ele>1841.6</ele>
        <time>2020-01-31T15:33:35Z</time>
      </trkpt>
      <trkpt lat="45.28767" lon="5.78401">
        <ele>1841.8</ele>
        <time>2020-01-31T15:33:36Z</time>
      </trkpt>
      <trkpt lat="45.28767" lon="5.78401">
        <ele>1842</ele>
        <time>2020-01-31T15:33:37Z</time>
      </trkpt>
      <trkpt lat="45.28766" lon="5.78404">
        <ele>1842</ele>
        <time>2020-01-31T15:33:38Z</time>
      </trkpt>
      <trkpt lat="45.28766" lon="5.78404">
        <ele>1842.2</ele>
        <time>2020-01-31T15:33:39Z</time>
      </trkpt>
      <trkpt lat="45.28766" lon="5.78404">
        <ele>1842.4</ele>
        <time>2020-01-31T15:33:40Z</time>
      </trkpt>
      <trkpt lat="45.28766" lon="5.78404">
        <ele>1842.6</ele>
        <time>2020-01-31T15:33:41Z</time>
      </trkpt>
      <trkpt lat="45.28766" lon="5.78404">
        <ele>1842.8</ele>
        <time>2020-01-31T15:33:42Z</time>
      </trkpt>
      <trkpt lat="45.28766" lon="5.78404">
        <ele>1842.8</ele>
        <time>2020-01-31T15:33:43Z</time>
      </trkpt>
      <trkpt lat="45.28766" lon="5.78404">
        <ele>1843</ele>
        <time>2020-01-31T15:33:44Z</time>
      </trkpt>
      <trkpt lat="45.28766" lon="5.78404">
        <ele>1843</ele>
        <time>2020-01-31T15:33:45Z</time>
      </trkpt>
      <trkpt lat="45.28766" lon="5.78404">
        <ele>1843</ele>
        <time>2020-01-31T15:33:46Z</time>
      </trkpt>
      <trkpt lat="45.28766" lon="5.78404">
        <ele>1843.2</ele>
        <time>2020-01-31T15:33:47Z</time>
      </trkpt>
      <trkpt lat="45.28766" lon="5.78404">
        <ele>1843.4</ele>
        <time>2020-01-31T15:33:48Z</time>
      </trkpt>
      <trkpt lat="45.28768" lon="5.78405">
        <ele>1843.6</ele>
        <time>2020-01-31T15:33:49Z</time>
      </trkpt>
      <trkpt lat="45.28768" lon="5.78405">
        <ele>1843.8</ele>
        <time>2020-01-31T15:33:50Z</time>
      </trkpt>
      <trkpt lat="45.28768" lon="5.78405">
        <ele>1844.2</ele>
        <time>2020-01-31T15:33:51Z</time>
      </trkpt>
      <trkpt lat="45.28768" lon="5.78405">
        <ele>1844.2</ele>
        <time>2020-01-31T15:33:52Z</time>
      </trkpt>
      <trkpt lat="45.28768" lon="5.78405">
        <ele>1844.2</ele>
        <time>2020-01-31T15:33:53Z</time>
      </trkpt>
      <trkpt lat="45.2877" lon="5.78406">
        <ele>1844.6</ele>
        <time>2020-01-31T15:33:54Z</time>
      </trkpt>
      <trkpt lat="45.2877" lon="5.78406">
        <ele>1845</ele>
        <time>2020-01-31T15:33:55Z</time>
      </trkpt>
      <trkpt lat="45.2877" lon="5.78406">
        <ele>1845.2</ele>
        <time>2020-01-31T15:33:56Z</time>
      </trkpt>
      <trkpt lat="45.2877" lon="5.78406">
        <ele>1845.6</ele>
        <time>2020-01-31T15:33:57Z</time>
      </trkpt>
      <trkpt lat="45.2877" lon="5.78406">
        <ele>1845.6</ele>
        <time>2020-01-31T15:33:58Z</time>
      </trkpt>
      <trkpt lat="45.2877" lon="5.78406">
        <ele>1846.2</ele>
        <time>2020-01-31T15:33:59Z</time>
      </trkpt>
      <trkpt lat="45.28772" lon="5.78408">
        <ele>1846.2</ele>
        <time>2020-01-31T15:34:00Z</time>
      </trkpt>
      <trkpt lat="45.28772" lon="5.78408">
        <ele>1846.4</ele>
        <time>2020-01-31T15:34:01Z</time>
      </trkpt>
      <trkpt lat="45.28772" lon="5.78408">
        <ele>1846.6</ele>
        <time>2020-01-31T15:34:02Z</time>
      </trkpt>
      <trkpt lat="45.28772" lon="5.78408">
        <ele>1846.4</ele>
        <time>2020-01-31T15:34:03Z</time>
      </trkpt>
      <trkpt lat="45.28772" lon="5.78408">
        <ele>1846.6</ele>
        <time>2020-01-31T15:34:04Z</time>
      </trkpt>
      <trkpt lat="45.28774" lon="5.78409">
        <ele>1846.8</ele>
        <time>2020-01-31T15:34:05Z</time>
      </trkpt>
      <trkpt lat="45.28774" lon="5.78409">
        <ele>1847.2</ele>
        <time>2020-01-31T15:34:06Z</time>
      </trkpt>
      <trkpt lat="45.28774" lon="5.78409">
        <ele>1847.4</ele>
        <time>2020-01-31T15:34:07Z</time>
      </trkpt>
      <trkpt lat="45.28774" lon="5.78409">
        <ele>1847.4</ele>
        <time>2020-01-31T15:34:08Z</time>
      </trkpt>
      <trkpt lat="45.28774" lon="5.78409">
        <ele>1847.6</ele>
        <time>2020-01-31T15:34:09Z</time>
      </trkpt>
      <trkpt lat="45.28774" lon="5.78409">
        <ele>1847.8</ele>
        <time>2020-01-31T15:34:10Z</time>
      </trkpt>
      <trkpt lat="45.28774" lon="5.78409">
        <ele>1848</ele>
        <time>2020-01-31T15:34:11Z</time>
      </trkpt>
      <trkpt lat="45.28774" lon="5.78409">
        <ele>1848</ele>
        <time>2020-01-31T15:34:12Z</time>
      </trkpt>
      <trkpt lat="45.28774" lon="5.78409">
        <ele>1848</ele>
        <time>2020-01-31T15:34:13Z</time>
      </trkpt>
      <trkpt lat="45.28774" lon="5.78409">
        <ele>1848</ele>
        <time>2020-01-31T15:34:14Z</time>
      </trkpt>
      <trkpt lat="45.28774" lon="5.78409">
        <ele>1848.2</ele>
        <time>2020-01-31T15:34:15Z</time>
      </trkpt>
      <trkpt lat="45.28774" lon="5.78409">
        <ele>1848.2</ele>
        <time>2020-01-31T15:34:16Z</time>
      </trkpt>
      <trkpt lat="45.28774" lon="5.78409">
        <ele>1848.2</ele>
        <time>2020-01-31T15:34:17Z</time>
      </trkpt>
      <trkpt lat="45.28774" lon="5.78409">
        <ele>1848.4</ele>
        <time>2020-01-31T15:34:18Z</time>
      </trkpt>
      <trkpt lat="45.28774" lon="5.78409">
        <ele>1848.4</ele>
        <time>2020-01-31T15:34:19Z</time>
      </trkpt>
      <trkpt lat="45.28774" lon="5.78409">
        <ele>1848</ele>
        <time>2020-01-31T15:34:20Z</time>
      </trkpt>
      <trkpt lat="45.28777" lon="5.7841">
        <ele>1848.2</ele>
        <time>2020-01-31T15:34:21Z</time>
      </trkpt>
      <trkpt lat="45.28777" lon="5.7841">
        <ele>1848.4</ele>
        <time>2020-01-31T15:34:22Z</time>
      </trkpt>
      <trkpt lat="45.28777" lon="5.7841">
        <ele>1848.6</ele>
        <time>2020-01-31T15:34:23Z</time>
      </trkpt>
      <trkpt lat="45.28777" lon="5.7841">
        <ele>1848.8</ele>
        <time>2020-01-31T15:34:24Z</time>
      </trkpt>
      <trkpt lat="45.28778" lon="5.78412">
        <ele>1848.8</ele>
        <time>2020-01-31T15:34:25Z</time>
      </trkpt>
      <trkpt lat="45.28778" lon="5.78412">
        <ele>1849.2</ele>
        <time>2020-01-31T15:34:26Z</time>
      </trkpt>
      <trkpt lat="45.28778" lon="5.78412">
        <ele>1849.8</ele>
        <time>2020-01-31T15:34:27Z</time>
      </trkpt>
      <trkpt lat="45.28778" lon="5.78412">
        <ele>1850</ele>
        <time>2020-01-31T15:34:28Z</time>
      </trkpt>
      <trkpt lat="45.28777" lon="5.78415">
        <ele>1850.4</ele>
        <time>2020-01-31T15:34:29Z</time>
      </trkpt>
      <trkpt lat="45.28777" lon="5.78415">
        <ele>1851.2</ele>
        <time>2020-01-31T15:34:30Z</time>
      </trkpt>
      <trkpt lat="45.28777" lon="5.78415">
        <ele>1851.4</ele>
        <time>2020-01-31T15:34:31Z</time>
      </trkpt>
      <trkpt lat="45.28777" lon="5.78415">
        <ele>1851.6</ele>
        <time>2020-01-31T15:34:32Z</time>
      </trkpt>
      <trkpt lat="45.28777" lon="5.78415">
        <ele>1851.8</ele>
        <time>2020-01-31T15:34:33Z</time>
      </trkpt>
      <trkpt lat="45.28776" lon="5.78417">
        <ele>1851.6</ele>
        <time>2020-01-31T15:34:34Z</time>
      </trkpt>
      <trkpt lat="45.28776" lon="5.78417">
        <ele>1851.8</ele>
        <time>2020-01-31T15:34:35Z</time>
      </trkpt>
      <trkpt lat="45.28776" lon="5.78417">
        <ele>1851.8</ele>
        <time>2020-01-31T15:34:36Z</time>
      </trkpt>
      <trkpt lat="45.28774" lon="5.78417">
        <ele>1851.8</ele>
        <time>2020-01-31T15:34:37Z</time>
      </trkpt>
      <trkpt lat="45.28774" lon="5.78417">
        <ele>1851.6</ele>
        <time>2020-01-31T15:34:38Z</time>
      </trkpt>
      <trkpt lat="45.28774" lon="5.78417">
        <ele>1852</ele>
        <time>2020-01-31T15:34:39Z</time>
      </trkpt>
      <trkpt lat="45.28774" lon="5.78417">
        <ele>1852.2</ele>
        <time>2020-01-31T15:34:40Z</time>
      </trkpt>
      <trkpt lat="45.28774" lon="5.78417">
        <ele>1852.6</ele>
        <time>2020-01-31T15:34:41Z</time>
      </trkpt>
      <trkpt lat="45.28774" lon="5.78417">
        <ele>1852.8</ele>
        <time>2020-01-31T15:34:42Z</time>
      </trkpt>
      <trkpt lat="45.28774" lon="5.78417">
        <ele>1853</ele>
        <time>2020-01-31T15:34:43Z</time>
      </trkpt>
      <trkpt lat="45.28774" lon="5.78417">
        <ele>1853</ele>
        <time>2020-01-31T15:34:44Z</time>
      </trkpt>
      <trkpt lat="45.28774" lon="5.78417">
        <ele>1852.8</ele>
        <time>2020-01-31T15:34:45Z</time>
      </trkpt>
      <trkpt lat="45.28774" lon="5.78417">
        <ele>1852.8</ele>
        <time>2020-01-31T15:34:46Z</time>
      </trkpt>
      <trkpt lat="45.28774" lon="5.78417">
        <ele>1853.2</ele>
        <time>2020-01-31T15:34:47Z</time>
      </trkpt>
      <trkpt lat="45.28774" lon="5.78417">
        <ele>1853.2</ele>
        <time>2020-01-31T15:34:48Z</time>
      </trkpt>
      <trkpt lat="45.28774" lon="5.78417">
        <ele>1853.2</ele>
        <time>2020-01-31T15:34:49Z</time>
      </trkpt>
      <trkpt lat="45.28774" lon="5.78417">
        <ele>1853.4</ele>
        <time>2020-01-31T15:34:50Z</time>
      </trkpt>
      <trkpt lat="45.28774" lon="5.78417">
        <ele>1853.2</ele>
        <time>2020-01-31T15:34:51Z</time>
      </trkpt>
      <trkpt lat="45.28774" lon="5.78417">
        <ele>1853.4</ele>
        <time>2020-01-31T15:34:52Z</time>
      </trkpt>
      <trkpt lat="45.28774" lon="5.78417">
        <ele>1853.6</ele>
        <time>2020-01-31T15:34:53Z</time>
      </trkpt>
      <trkpt lat="45.28773" lon="5.78421">
        <ele>1853.8</ele>
        <time>2020-01-31T15:34:54Z</time>
      </trkpt>
      <trkpt lat="45.28773" lon="5.78421">
        <ele>1854</ele>
        <time>2020-01-31T15:34:55Z</time>
      </trkpt>
      <trkpt lat="45.28773" lon="5.78421">
        <ele>1854</ele>
        <time>2020-01-31T15:34:56Z</time>
      </trkpt>
      <trkpt lat="45.28773" lon="5.78421">
        <ele>1853.8</ele>
        <time>2020-01-31T15:34:57Z</time>
      </trkpt>
      <trkpt lat="45.28773" lon="5.78421">
        <ele>1854</ele>
        <time>2020-01-31T15:34:58Z</time>
      </trkpt>
      <trkpt lat="45.28773" lon="5.78421">
        <ele>1853.8</ele>
        <time>2020-01-31T15:34:59Z</time>
      </trkpt>
      <trkpt lat="45.28773" lon="5.78421">
        <ele>1853.8</ele>
        <time>2020-01-31T15:35:00Z</time>
      </trkpt>
      <trkpt lat="45.28773" lon="5.78421">
        <ele>1853.8</ele>
        <time>2020-01-31T15:35:01Z</time>
      </trkpt>
      <trkpt lat="45.28773" lon="5.78421">
        <ele>1854.2</ele>
        <time>2020-01-31T15:35:02Z</time>
      </trkpt>
      <trkpt lat="45.28773" lon="5.78421">
        <ele>1854</ele>
        <time>2020-01-31T15:35:03Z</time>
      </trkpt>
      <trkpt lat="45.28773" lon="5.78421">
        <ele>1854</ele>
        <time>2020-01-31T15:35:04Z</time>
      </trkpt>
      <trkpt lat="45.28773" lon="5.78421">
        <ele>1854</ele>
        <time>2020-01-31T15:35:05Z</time>
      </trkpt>
      <trkpt lat="45.28773" lon="5.78421">
        <ele>1854.2</ele>
        <time>2020-01-31T15:35:06Z</time>
      </trkpt>
      <trkpt lat="45.28773" lon="5.78421">
        <ele>1854.2</ele>
        <time>2020-01-31T15:35:07Z</time>
      </trkpt>
      <trkpt lat="45.28773" lon="5.78421">
        <ele>1854.6</ele>
        <time>2020-01-31T15:35:08Z</time>
      </trkpt>
      <trkpt lat="45.28773" lon="5.78421">
        <ele>1855</ele>
        <time>2020-01-31T15:35:09Z</time>
      </trkpt>
      <trkpt lat="45.28773" lon="5.78421">
        <ele>1855</ele>
        <time>2020-01-31T15:35:10Z</time>
      </trkpt>
      <trkpt lat="45.28775" lon="5.78422">
        <ele>1855</ele>
        <time>2020-01-31T15:35:11Z</time>
      </trkpt>
      <trkpt lat="45.28775" lon="5.78422">
        <ele>1855.4</ele>
        <time>2020-01-31T15:35:12Z</time>
      </trkpt>
      <trkpt lat="45.28775" lon="5.78422">
        <ele>1855.8</ele>
        <time>2020-01-31T15:35:13Z</time>
      </trkpt>
      <trkpt lat="45.28775" lon="5.78422">
        <ele>1855.8</ele>
        <time>2020-01-31T15:35:14Z</time>
      </trkpt>
      <trkpt lat="45.28775" lon="5.78422">
        <ele>1856</ele>
        <time>2020-01-31T15:35:15Z</time>
      </trkpt>
      <trkpt lat="45.28775" lon="5.78422">
        <ele>1855.8</ele>
        <time>2020-01-31T15:35:16Z</time>
      </trkpt>
      <trkpt lat="45.28777" lon="5.78423">
        <ele>1856</ele>
        <time>2020-01-31T15:35:17Z</time>
      </trkpt>
      <trkpt lat="45.28777" lon="5.78423">
        <ele>1856.2</ele>
        <time>2020-01-31T15:35:18Z</time>
      </trkpt>
      <trkpt lat="45.28777" lon="5.78423">
        <ele>1856.6</ele>
        <time>2020-01-31T15:35:19Z</time>
      </trkpt>
      <trkpt lat="45.28777" lon="5.78423">
        <ele>1856.8</ele>
        <time>2020-01-31T15:35:20Z</time>
      </trkpt>
      <trkpt lat="45.28779" lon="5.78425">
        <ele>1857.2</ele>
        <time>2020-01-31T15:35:21Z</time>
      </trkpt>
      <trkpt lat="45.28779" lon="5.78425">
        <ele>1857.4</ele>
        <time>2020-01-31T15:35:22Z</time>
      </trkpt>
      <trkpt lat="45.28779" lon="5.78425">
        <ele>1857.6</ele>
        <time>2020-01-31T15:35:23Z</time>
      </trkpt>
      <trkpt lat="45.2878" lon="5.78428">
        <ele>1857.6</ele>
        <time>2020-01-31T15:35:24Z</time>
      </trkpt>
      <trkpt lat="45.2878" lon="5.78428">
        <ele>1857.6</ele>
        <time>2020-01-31T15:35:25Z</time>
      </trkpt>
      <trkpt lat="45.2878" lon="5.78428">
        <ele>1857.6</ele>
        <time>2020-01-31T15:35:26Z</time>
      </trkpt>
      <trkpt lat="45.28779" lon="5.78431">
        <ele>1858</ele>
        <time>2020-01-31T15:35:27Z</time>
      </trkpt>
      <trkpt lat="45.28779" lon="5.78431">
        <ele>1858.6</ele>
        <time>2020-01-31T15:35:28Z</time>
      </trkpt>
      <trkpt lat="45.28779" lon="5.78431">
        <ele>1858.8</ele>
        <time>2020-01-31T15:35:29Z</time>
      </trkpt>
      <trkpt lat="45.28779" lon="5.78433">
        <ele>1859.4</ele>
        <time>2020-01-31T15:35:30Z</time>
      </trkpt>
      <trkpt lat="45.28779" lon="5.78433">
        <ele>1859.4</ele>
        <time>2020-01-31T15:35:31Z</time>
      </trkpt>
      <trkpt lat="45.28779" lon="5.78433">
        <ele>1860</ele>
        <time>2020-01-31T15:35:32Z</time>
      </trkpt>
      <trkpt lat="45.28779" lon="5.78433">
        <ele>1860.4</ele>
        <time>2020-01-31T15:35:33Z</time>
      </trkpt>
      <trkpt lat="45.28779" lon="5.78436">
        <ele>1860.4</ele>
        <time>2020-01-31T15:35:34Z</time>
      </trkpt>
      <trkpt lat="45.28779" lon="5.78436">
        <ele>1860.2</ele>
        <time>2020-01-31T15:35:35Z</time>
      </trkpt>
      <trkpt lat="45.28779" lon="5.78436">
        <ele>1860.2</ele>
        <time>2020-01-31T15:35:36Z</time>
      </trkpt>
      <trkpt lat="45.28779" lon="5.78436">
        <ele>1860.8</ele>
        <time>2020-01-31T15:35:37Z</time>
      </trkpt>
      <trkpt lat="45.28779" lon="5.78436">
        <ele>1861</ele>
        <time>2020-01-31T15:35:38Z</time>
      </trkpt>
      <trkpt lat="45.28779" lon="5.78436">
        <ele>1861.2</ele>
        <time>2020-01-31T15:35:39Z</time>
      </trkpt>
      <trkpt lat="45.28779" lon="5.78436">
        <ele>1861</ele>
        <time>2020-01-31T15:35:40Z</time>
      </trkpt>
      <trkpt lat="45.28779" lon="5.78436">
        <ele>1861.2</ele>
        <time>2020-01-31T15:35:41Z</time>
      </trkpt>
      <trkpt lat="45.28779" lon="5.78436">
        <ele>1861.4</ele>
        <time>2020-01-31T15:35:42Z</time>
      </trkpt>
      <trkpt lat="45.28779" lon="5.78436">
        <ele>1861.4</ele>
        <time>2020-01-31T15:35:43Z</time>
      </trkpt>
      <trkpt lat="45.2878" lon="5.78439">
        <ele>1862</ele>
        <time>2020-01-31T15:35:44Z</time>
      </trkpt>
      <trkpt lat="45.2878" lon="5.78439">
        <ele>1862.2</ele>
        <time>2020-01-31T15:35:45Z</time>
      </trkpt>
      <trkpt lat="45.2878" lon="5.78439">
        <ele>1862.2</ele>
        <time>2020-01-31T15:35:46Z</time>
      </trkpt>
      <trkpt lat="45.2878" lon="5.78439">
        <ele>1862.4</ele>
        <time>2020-01-31T15:35:47Z</time>
      </trkpt>
      <trkpt lat="45.2878" lon="5.78439">
        <ele>1862.8</ele>
        <time>2020-01-31T15:35:48Z</time>
      </trkpt>
      <trkpt lat="45.2878" lon="5.78439">
        <ele>1863.2</ele>
        <time>2020-01-31T15:35:49Z</time>
      </trkpt>
      <trkpt lat="45.2878" lon="5.78439">
        <ele>1863.4</ele>
        <time>2020-01-31T15:35:50Z</time>
      </trkpt>
      <trkpt lat="45.2878" lon="5.78439">
        <ele>1863.4</ele>
        <time>2020-01-31T15:35:51Z</time>
      </trkpt>
      <trkpt lat="45.28782" lon="5.7844">
        <ele>1863.8</ele>
        <time>2020-01-31T15:35:52Z</time>
      </trkpt>
      <trkpt lat="45.28783" lon="5.7844">
        <ele>1864</ele>
        <time>2020-01-31T15:35:53Z</time>
      </trkpt>
      <trkpt lat="45.28783" lon="5.7844">
        <ele>1864.2</ele>
        <time>2020-01-31T15:35:54Z</time>
      </trkpt>
      <trkpt lat="45.28784" lon="5.7844">
        <ele>1864.6</ele>
        <time>2020-01-31T15:35:55Z</time>
      </trkpt>
      <trkpt lat="45.28784" lon="5.7844">
        <ele>1864.6</ele>
        <time>2020-01-31T15:35:56Z</time>
      </trkpt>
      <trkpt lat="45.28785" lon="5.7844">
        <ele>1864.6</ele>
        <time>2020-01-31T15:35:57Z</time>
      </trkpt>
      <trkpt lat="45.28786" lon="5.7844">
        <ele>1864.8</ele>
        <time>2020-01-31T15:35:58Z</time>
      </trkpt>
      <trkpt lat="45.28786" lon="5.7844">
        <ele>1865</ele>
        <time>2020-01-31T15:35:59Z</time>
      </trkpt>
      <trkpt lat="45.28787" lon="5.7844">
        <ele>1865.2</ele>
        <time>2020-01-31T15:36:00Z</time>
      </trkpt>
      <trkpt lat="45.28787" lon="5.7844">
        <ele>1865.4</ele>
        <time>2020-01-31T15:36:01Z</time>
      </trkpt>
      <trkpt lat="45.28788" lon="5.7844">
        <ele>1865.8</ele>
        <time>2020-01-31T15:36:02Z</time>
      </trkpt>
      <trkpt lat="45.28789" lon="5.78441">
        <ele>1866</ele>
        <time>2020-01-31T15:36:03Z</time>
      </trkpt>
      <trkpt lat="45.28789" lon="5.78441">
        <ele>1866.4</ele>
        <time>2020-01-31T15:36:04Z</time>
      </trkpt>
      <trkpt lat="45.2879" lon="5.78441">
        <ele>1866.8</ele>
        <time>2020-01-31T15:36:05Z</time>
      </trkpt>
      <trkpt lat="45.28791" lon="5.78441">
        <ele>1867</ele>
        <time>2020-01-31T15:36:06Z</time>
      </trkpt>
      <trkpt lat="45.28791" lon="5.78441">
        <ele>1867</ele>
        <time>2020-01-31T15:36:07Z</time>
      </trkpt>
      <trkpt lat="45.28791" lon="5.78441">
        <ele>1867.2</ele>
        <time>2020-01-31T15:36:08Z</time>
      </trkpt>
      <trkpt lat="45.28791" lon="5.78441">
        <ele>1867.4</ele>
        <time>2020-01-31T15:36:09Z</time>
      </trkpt>
      <trkpt lat="45.28792" lon="5.78443">
        <ele>1867.6</ele>
        <time>2020-01-31T15:36:10Z</time>
      </trkpt>
      <trkpt lat="45.28792" lon="5.78443">
        <ele>1868</ele>
        <time>2020-01-31T15:36:11Z</time>
      </trkpt>
      <trkpt lat="45.28792" lon="5.78443">
        <ele>1868</ele>
        <time>2020-01-31T15:36:12Z</time>
      </trkpt>
      <trkpt lat="45.28792" lon="5.78443">
        <ele>1868.4</ele>
        <time>2020-01-31T15:36:13Z</time>
      </trkpt>
      <trkpt lat="45.28792" lon="5.78443">
        <ele>1869.2</ele>
        <time>2020-01-31T15:36:14Z</time>
      </trkpt>
      <trkpt lat="45.28792" lon="5.78443">
        <ele>1869.4</ele>
        <time>2020-01-31T15:36:15Z</time>
      </trkpt>
      <trkpt lat="45.28791" lon="5.78447">
        <ele>1869.2</ele>
        <time>2020-01-31T15:36:16Z</time>
      </trkpt>
      <trkpt lat="45.28791" lon="5.78447">
        <ele>1869.4</ele>
        <time>2020-01-31T15:36:17Z</time>
      </trkpt>
      <trkpt lat="45.28791" lon="5.78447">
        <ele>1869.8</ele>
        <time>2020-01-31T15:36:18Z</time>
      </trkpt>
      <trkpt lat="45.2879" lon="5.78449">
        <ele>1870.2</ele>
        <time>2020-01-31T15:36:19Z</time>
      </trkpt>
      <trkpt lat="45.2879" lon="5.78449">
        <ele>1870.4</ele>
        <time>2020-01-31T15:36:20Z</time>
      </trkpt>
      <trkpt lat="45.2879" lon="5.78449">
        <ele>1870.8</ele>
        <time>2020-01-31T15:36:21Z</time>
      </trkpt>
      <trkpt lat="45.2879" lon="5.78449">
        <ele>1871</ele>
        <time>2020-01-31T15:36:22Z</time>
      </trkpt>
      <trkpt lat="45.2879" lon="5.78449">
        <ele>1871</ele>
        <time>2020-01-31T15:36:23Z</time>
      </trkpt>
      <trkpt lat="45.28789" lon="5.78451">
        <ele>1870.6</ele>
        <time>2020-01-31T15:36:24Z</time>
      </trkpt>
      <trkpt lat="45.28789" lon="5.78451">
        <ele>1870.4</ele>
        <time>2020-01-31T15:36:25Z</time>
      </trkpt>
      <trkpt lat="45.28789" lon="5.78451">
        <ele>1870.4</ele>
        <time>2020-01-31T15:36:26Z</time>
      </trkpt>
      <trkpt lat="45.28789" lon="5.78451">
        <ele>1870.6</ele>
        <time>2020-01-31T15:36:27Z</time>
      </trkpt>
      <trkpt lat="45.28787" lon="5.78454">
        <ele>1870.4</ele>
        <time>2020-01-31T15:36:28Z</time>
      </trkpt>
      <trkpt lat="45.28787" lon="5.78454">
        <ele>1871.2</ele>
        <time>2020-01-31T15:36:29Z</time>
      </trkpt>
      <trkpt lat="45.28787" lon="5.78454">
        <ele>1871.8</ele>
        <time>2020-01-31T15:36:30Z</time>
      </trkpt>
      <trkpt lat="45.28787" lon="5.78454">
        <ele>1872</ele>
        <time>2020-01-31T15:36:31Z</time>
      </trkpt>
      <trkpt lat="45.28787" lon="5.78457">
        <ele>1872</ele>
        <time>2020-01-31T15:36:32Z</time>
      </trkpt>
      <trkpt lat="45.28787" lon="5.78457">
        <ele>1871.8</ele>
        <time>2020-01-31T15:36:33Z</time>
      </trkpt>
      <trkpt lat="45.28787" lon="5.78457">
        <ele>1872.2</ele>
        <time>2020-01-31T15:36:34Z</time>
      </trkpt>
      <trkpt lat="45.28787" lon="5.78457">
        <ele>1872.8</ele>
        <time>2020-01-31T15:36:35Z</time>
      </trkpt>
      <trkpt lat="45.28787" lon="5.7846">
        <ele>1873</ele>
        <time>2020-01-31T15:36:36Z</time>
      </trkpt>
      <trkpt lat="45.28787" lon="5.7846">
        <ele>1873.2</ele>
        <time>2020-01-31T15:36:37Z</time>
      </trkpt>
      <trkpt lat="45.28787" lon="5.7846">
        <ele>1873.4</ele>
        <time>2020-01-31T15:36:38Z</time>
      </trkpt>
      <trkpt lat="45.28787" lon="5.7846">
        <ele>1873.6</ele>
        <time>2020-01-31T15:36:39Z</time>
      </trkpt>
      <trkpt lat="45.28786" lon="5.78462">
        <ele>1874.2</ele>
        <time>2020-01-31T15:36:40Z</time>
      </trkpt>
      <trkpt lat="45.28786" lon="5.78462">
        <ele>1874.2</ele>
        <time>2020-01-31T15:36:41Z</time>
      </trkpt>
      <trkpt lat="45.28786" lon="5.78462">
        <ele>1874</ele>
        <time>2020-01-31T15:36:42Z</time>
      </trkpt>
      <trkpt lat="45.28786" lon="5.78462">
        <ele>1874</ele>
        <time>2020-01-31T15:36:43Z</time>
      </trkpt>
      <trkpt lat="45.28786" lon="5.78462">
        <ele>1874.6</ele>
        <time>2020-01-31T15:36:44Z</time>
      </trkpt>
      <trkpt lat="45.28786" lon="5.78462">
        <ele>1874.8</ele>
        <time>2020-01-31T15:36:45Z</time>
      </trkpt>
      <trkpt lat="45.28785" lon="5.78464">
        <ele>1874.8</ele>
        <time>2020-01-31T15:36:46Z</time>
      </trkpt>
      <trkpt lat="45.28785" lon="5.78464">
        <ele>1875</ele>
        <time>2020-01-31T15:36:47Z</time>
      </trkpt>
      <trkpt lat="45.28785" lon="5.78464">
        <ele>1875.4</ele>
        <time>2020-01-31T15:36:48Z</time>
      </trkpt>
      <trkpt lat="45.28785" lon="5.78464">
        <ele>1875.6</ele>
        <time>2020-01-31T15:36:49Z</time>
      </trkpt>
      <trkpt lat="45.28785" lon="5.78464">
        <ele>1875.8</ele>
        <time>2020-01-31T15:36:50Z</time>
      </trkpt>
      <trkpt lat="45.28784" lon="5.78466">
        <ele>1875.6</ele>
        <time>2020-01-31T15:36:51Z</time>
      </trkpt>
      <trkpt lat="45.28784" lon="5.78466">
        <ele>1875.6</ele>
        <time>2020-01-31T15:36:52Z</time>
      </trkpt>
      <trkpt lat="45.28784" lon="5.78466">
        <ele>1875.8</ele>
        <time>2020-01-31T15:36:53Z</time>
      </trkpt>
      <trkpt lat="45.28784" lon="5.78466">
        <ele>1876.4</ele>
        <time>2020-01-31T15:36:54Z</time>
      </trkpt>
      <trkpt lat="45.28782" lon="5.78469">
        <ele>1876.4</ele>
        <time>2020-01-31T15:36:55Z</time>
      </trkpt>
      <trkpt lat="45.28782" lon="5.78469">
        <ele>1876.6</ele>
        <time>2020-01-31T15:36:56Z</time>
      </trkpt>
      <trkpt lat="45.28782" lon="5.78469">
        <ele>1877</ele>
        <time>2020-01-31T15:36:57Z</time>
      </trkpt>
      <trkpt lat="45.28782" lon="5.78469">
        <ele>1877.2</ele>
        <time>2020-01-31T15:36:58Z</time>
      </trkpt>
      <trkpt lat="45.28782" lon="5.78469">
        <ele>1877.2</ele>
        <time>2020-01-31T15:36:59Z</time>
      </trkpt>
      <trkpt lat="45.28782" lon="5.78469">
        <ele>1877.2</ele>
        <time>2020-01-31T15:37:00Z</time>
      </trkpt>
      <trkpt lat="45.28782" lon="5.78469">
        <ele>1877.2</ele>
        <time>2020-01-31T15:37:01Z</time>
      </trkpt>
      <trkpt lat="45.28782" lon="5.78469">
        <ele>1877.4</ele>
        <time>2020-01-31T15:37:02Z</time>
      </trkpt>
      <trkpt lat="45.28782" lon="5.78469">
        <ele>1877.4</ele>
        <time>2020-01-31T15:37:03Z</time>
      </trkpt>
      <trkpt lat="45.28782" lon="5.78469">
        <ele>1877.8</ele>
        <time>2020-01-31T15:37:04Z</time>
      </trkpt>
      <trkpt lat="45.28782" lon="5.78469">
        <ele>1878</ele>
        <time>2020-01-31T15:37:05Z</time>
      </trkpt>
      <trkpt lat="45.28782" lon="5.78469">
        <ele>1878</ele>
        <time>2020-01-31T15:37:06Z</time>
      </trkpt>
      <trkpt lat="45.28782" lon="5.78469">
        <ele>1878</ele>
        <time>2020-01-31T15:37:07Z</time>
      </trkpt>
      <trkpt lat="45.28782" lon="5.78469">
        <ele>1878.2</ele>
        <time>2020-01-31T15:37:08Z</time>
      </trkpt>
      <trkpt lat="45.28782" lon="5.78469">
        <ele>1878.2</ele>
        <time>2020-01-31T15:37:09Z</time>
      </trkpt>
      <trkpt lat="45.28782" lon="5.78469">
        <ele>1878.4</ele>
        <time>2020-01-31T15:37:10Z</time>
      </trkpt>
      <trkpt lat="45.28781" lon="5.78469">
        <ele>1878.6</ele>
        <time>2020-01-31T15:37:11Z</time>
      </trkpt>
      <trkpt lat="45.28781" lon="5.78469">
        <ele>1878.6</ele>
        <time>2020-01-31T15:37:12Z</time>
      </trkpt>
      <trkpt lat="45.28781" lon="5.78469">
        <ele>1879.2</ele>
        <time>2020-01-31T15:37:13Z</time>
      </trkpt>
      <trkpt lat="45.28781" lon="5.78469">
        <ele>1879.6</ele>
        <time>2020-01-31T15:37:14Z</time>
      </trkpt>
      <trkpt lat="45.28781" lon="5.78469">
        <ele>1879.6</ele>
        <time>2020-01-31T15:37:15Z</time>
      </trkpt>
      <trkpt lat="45.28781" lon="5.78469">
        <ele>1879.6</ele>
        <time>2020-01-31T15:37:16Z</time>
      </trkpt>
      <trkpt lat="45.28781" lon="5.78469">
        <ele>1879.6</ele>
        <time>2020-01-31T15:37:17Z</time>
      </trkpt>
      <trkpt lat="45.28781" lon="5.78469">
        <ele>1880.2</ele>
        <time>2020-01-31T15:37:18Z</time>
      </trkpt>
      <trkpt lat="45.28781" lon="5.78469">
        <ele>1880.6</ele>
        <time>2020-01-31T15:37:19Z</time>
      </trkpt>
      <trkpt lat="45.28781" lon="5.78469">
        <ele>1880.6</ele>
        <time>2020-01-31T15:37:20Z</time>
      </trkpt>
      <trkpt lat="45.28781" lon="5.78469">
        <ele>1880.8</ele>
        <time>2020-01-31T15:37:21Z</time>
      </trkpt>
      <trkpt lat="45.28781" lon="5.78469">
        <ele>1880.8</ele>
        <time>2020-01-31T15:37:22Z</time>
      </trkpt>
      <trkpt lat="45.28782" lon="5.78471">
        <ele>1881</ele>
        <time>2020-01-31T15:37:23Z</time>
      </trkpt>
      <trkpt lat="45.28782" lon="5.78471">
        <ele>1881</ele>
        <time>2020-01-31T15:37:24Z</time>
      </trkpt>
      <trkpt lat="45.28782" lon="5.78471">
        <ele>1881.4</ele>
        <time>2020-01-31T15:37:25Z</time>
      </trkpt>
      <trkpt lat="45.28782" lon="5.78471">
        <ele>1882</ele>
        <time>2020-01-31T15:37:26Z</time>
      </trkpt>
      <trkpt lat="45.28782" lon="5.78473">
        <ele>1882.4</ele>
        <time>2020-01-31T15:37:27Z</time>
      </trkpt>
      <trkpt lat="45.28782" lon="5.78473">
        <ele>1882.8</ele>
        <time>2020-01-31T15:37:28Z</time>
      </trkpt>
      <trkpt lat="45.28782" lon="5.78473">
        <ele>1883.2</ele>
        <time>2020-01-31T15:37:29Z</time>
      </trkpt>
      <trkpt lat="45.28783" lon="5.78476">
        <ele>1883.4</ele>
        <time>2020-01-31T15:37:30Z</time>
      </trkpt>
      <trkpt lat="45.28783" lon="5.78476">
        <ele>1883.2</ele>
        <time>2020-01-31T15:37:31Z</time>
      </trkpt>
      <trkpt lat="45.28783" lon="5.78476">
        <ele>1883.8</ele>
        <time>2020-01-31T15:37:32Z</time>
      </trkpt>
      <trkpt lat="45.28783" lon="5.78476">
        <ele>1884.2</ele>
        <time>2020-01-31T15:37:33Z</time>
      </trkpt>
      <trkpt lat="45.28783" lon="5.78476">
        <ele>1884.2</ele>
        <time>2020-01-31T15:37:34Z</time>
      </trkpt>
      <trkpt lat="45.28783" lon="5.78476">
        <ele>1884.2</ele>
        <time>2020-01-31T15:37:35Z</time>
      </trkpt>
      <trkpt lat="45.28783" lon="5.78476">
        <ele>1884.8</ele>
        <time>2020-01-31T15:37:36Z</time>
      </trkpt>
      <trkpt lat="45.28783" lon="5.78476">
        <ele>1885.2</ele>
        <time>2020-01-31T15:37:37Z</time>
      </trkpt>
      <trkpt lat="45.28783" lon="5.78476">
        <ele>1885.4</ele>
        <time>2020-01-31T15:37:38Z</time>
      </trkpt>
      <trkpt lat="45.28783" lon="5.78476">
        <ele>1885.2</ele>
        <time>2020-01-31T15:37:39Z</time>
      </trkpt>
      <trkpt lat="45.28783" lon="5.78476">
        <ele>1885.4</ele>
        <time>2020-01-31T15:37:40Z</time>
      </trkpt>
      <trkpt lat="45.28783" lon="5.78476">
        <ele>1885.2</ele>
        <time>2020-01-31T15:37:41Z</time>
      </trkpt>
      <trkpt lat="45.28783" lon="5.78476">
        <ele>1885.4</ele>
        <time>2020-01-31T15:37:42Z</time>
      </trkpt>
      <trkpt lat="45.28783" lon="5.78476">
        <ele>1885.8</ele>
        <time>2020-01-31T15:37:43Z</time>
      </trkpt>
      <trkpt lat="45.28783" lon="5.78476">
        <ele>1886</ele>
        <time>2020-01-31T15:37:44Z</time>
      </trkpt>
      <trkpt lat="45.28783" lon="5.78476">
        <ele>1885.8</ele>
        <time>2020-01-31T15:37:45Z</time>
      </trkpt>
      <trkpt lat="45.28783" lon="5.78476">
        <ele>1885.6</ele>
        <time>2020-01-31T15:37:46Z</time>
      </trkpt>
      <trkpt lat="45.28783" lon="5.78476">
        <ele>1885.8</ele>
        <time>2020-01-31T15:37:47Z</time>
      </trkpt>
      <trkpt lat="45.28783" lon="5.78476">
        <ele>1886</ele>
        <time>2020-01-31T15:37:48Z</time>
      </trkpt>
      <trkpt lat="45.28781" lon="5.78476">
        <ele>1886.2</ele>
        <time>2020-01-31T15:37:49Z</time>
      </trkpt>
      <trkpt lat="45.28781" lon="5.78476">
        <ele>1886.2</ele>
        <time>2020-01-31T15:37:50Z</time>
      </trkpt>
      <trkpt lat="45.28781" lon="5.78476">
        <ele>1886.2</ele>
        <time>2020-01-31T15:37:51Z</time>
      </trkpt>
      <trkpt lat="45.28781" lon="5.78476">
        <ele>1886.4</ele>
        <time>2020-01-31T15:37:52Z</time>
      </trkpt>
      <trkpt lat="45.28781" lon="5.78476">
        <ele>1886.4</ele>
        <time>2020-01-31T15:37:53Z</time>
      </trkpt>
      <trkpt lat="45.28781" lon="5.78476">
        <ele>1886.8</ele>
        <time>2020-01-31T15:37:54Z</time>
      </trkpt>
      <trkpt lat="45.28781" lon="5.78476">
        <ele>1887</ele>
        <time>2020-01-31T15:37:55Z</time>
      </trkpt>
      <trkpt lat="45.28781" lon="5.78476">
        <ele>1887.4</ele>
        <time>2020-01-31T15:37:56Z</time>
      </trkpt>
      <trkpt lat="45.28781" lon="5.78476">
        <ele>1887.4</ele>
        <time>2020-01-31T15:37:57Z</time>
      </trkpt>
      <trkpt lat="45.28781" lon="5.78476">
        <ele>1887.4</ele>
        <time>2020-01-31T15:37:58Z</time>
      </trkpt>
      <trkpt lat="45.28781" lon="5.78476">
        <ele>1887.6</ele>
        <time>2020-01-31T15:37:59Z</time>
      </trkpt>
      <trkpt lat="45.28782" lon="5.78478">
        <ele>1887.8</ele>
        <time>2020-01-31T15:38:00Z</time>
      </trkpt>
      <trkpt lat="45.28782" lon="5.78478">
        <ele>1887.8</ele>
        <time>2020-01-31T15:38:01Z</time>
      </trkpt>
      <trkpt lat="45.28782" lon="5.78478">
        <ele>1888.2</ele>
        <time>2020-01-31T15:38:02Z</time>
      </trkpt>
      <trkpt lat="45.28782" lon="5.78478">
        <ele>1888.8</ele>
        <time>2020-01-31T15:38:03Z</time>
      </trkpt>
      <trkpt lat="45.28782" lon="5.78478">
        <ele>1889</ele>
        <time>2020-01-31T15:38:04Z</time>
      </trkpt>
      <trkpt lat="45.28782" lon="5.78478">
        <ele>1889</ele>
        <time>2020-01-31T15:38:05Z</time>
      </trkpt>
      <trkpt lat="45.28782" lon="5.78478">
        <ele>1889.2</ele>
        <time>2020-01-31T15:38:06Z</time>
      </trkpt>
      <trkpt lat="45.28782" lon="5.78478">
        <ele>1889.2</ele>
        <time>2020-01-31T15:38:07Z</time>
      </trkpt>
      <trkpt lat="45.28782" lon="5.78478">
        <ele>1889.6</ele>
        <time>2020-01-31T15:38:08Z</time>
      </trkpt>
      <trkpt lat="45.28782" lon="5.78478">
        <ele>1889.8</ele>
        <time>2020-01-31T15:38:09Z</time>
      </trkpt>
      <trkpt lat="45.28782" lon="5.78478">
        <ele>1889.8</ele>
        <time>2020-01-31T15:38:10Z</time>
      </trkpt>
      <trkpt lat="45.28784" lon="5.78479">
        <ele>1890.2</ele>
        <time>2020-01-31T15:38:11Z</time>
      </trkpt>
      <trkpt lat="45.28784" lon="5.78479">
        <ele>1890.2</ele>
        <time>2020-01-31T15:38:12Z</time>
      </trkpt>
      <trkpt lat="45.28784" lon="5.78479">
        <ele>1890.2</ele>
        <time>2020-01-31T15:38:13Z</time>
      </trkpt>
      <trkpt lat="45.28784" lon="5.78479">
        <ele>1890.4</ele>
        <time>2020-01-31T15:38:14Z</time>
      </trkpt>
      <trkpt lat="45.28784" lon="5.78479">
        <ele>1890.4</ele>
        <time>2020-01-31T15:38:15Z</time>
      </trkpt>
      <trkpt lat="45.28785" lon="5.7848">
        <ele>1890.8</ele>
        <time>2020-01-31T15:38:16Z</time>
      </trkpt>
      <trkpt lat="45.28785" lon="5.7848">
        <ele>1890.8</ele>
        <time>2020-01-31T15:38:17Z</time>
      </trkpt>
      <trkpt lat="45.28785" lon="5.7848">
        <ele>1890.8</ele>
        <time>2020-01-31T15:38:18Z</time>
      </trkpt>
      <trkpt lat="45.28785" lon="5.7848">
        <ele>1891.2</ele>
        <time>2020-01-31T15:38:19Z</time>
      </trkpt>
      <trkpt lat="45.28785" lon="5.7848">
        <ele>1891.2</ele>
        <time>2020-01-31T15:38:20Z</time>
      </trkpt>
      <trkpt lat="45.28787" lon="5.78481">
        <ele>1891.2</ele>
        <time>2020-01-31T15:38:21Z</time>
      </trkpt>
      <trkpt lat="45.28787" lon="5.78481">
        <ele>1891.8</ele>
        <time>2020-01-31T15:38:22Z</time>
      </trkpt>
      <trkpt lat="45.28787" lon="5.78481">
        <ele>1891.6</ele>
        <time>2020-01-31T15:38:23Z</time>
      </trkpt>
      <trkpt lat="45.28787" lon="5.78481">
        <ele>1892.2</ele>
        <time>2020-01-31T15:38:24Z</time>
      </trkpt>
      <trkpt lat="45.2879" lon="5.78482">
        <ele>1892.4</ele>
        <time>2020-01-31T15:38:25Z</time>
      </trkpt>
      <trkpt lat="45.2879" lon="5.78482">
        <ele>1892.4</ele>
        <time>2020-01-31T15:38:26Z</time>
      </trkpt>
      <trkpt lat="45.2879" lon="5.78482">
        <ele>1892.6</ele>
        <time>2020-01-31T15:38:27Z</time>
      </trkpt>
      <trkpt lat="45.2879" lon="5.78482">
        <ele>1892.6</ele>
        <time>2020-01-31T15:38:28Z</time>
      </trkpt>
      <trkpt lat="45.2879" lon="5.78482">
        <ele>1892.8</ele>
        <time>2020-01-31T15:38:29Z</time>
      </trkpt>
      <trkpt lat="45.2879" lon="5.78482">
        <ele>1893</ele>
        <time>2020-01-31T15:38:30Z</time>
      </trkpt>
      <trkpt lat="45.28792" lon="5.78482">
        <ele>1893</ele>
        <time>2020-01-31T15:38:31Z</time>
      </trkpt>
      <trkpt lat="45.28792" lon="5.78482">
        <ele>1893.6</ele>
        <time>2020-01-31T15:38:32Z</time>
      </trkpt>
      <trkpt lat="45.28792" lon="5.78482">
        <ele>1893.8</ele>
        <time>2020-01-31T15:38:33Z</time>
      </trkpt>
      <trkpt lat="45.28793" lon="5.78485">
        <ele>1894.2</ele>
        <time>2020-01-31T15:38:34Z</time>
      </trkpt>
      <trkpt lat="45.28793" lon="5.78485">
        <ele>1894.6</ele>
        <time>2020-01-31T15:38:35Z</time>
      </trkpt>
      <trkpt lat="45.28793" lon="5.78485">
        <ele>1895.2</ele>
        <time>2020-01-31T15:38:36Z</time>
      </trkpt>
      <trkpt lat="45.28794" lon="5.78487">
        <ele>1895.4</ele>
        <time>2020-01-31T15:38:37Z</time>
      </trkpt>
      <trkpt lat="45.28794" lon="5.78487">
        <ele>1895.8</ele>
        <time>2020-01-31T15:38:38Z</time>
      </trkpt>
      <trkpt lat="45.28794" lon="5.78487">
        <ele>1896.2</ele>
        <time>2020-01-31T15:38:39Z</time>
      </trkpt>
      <trkpt lat="45.28794" lon="5.78487">
        <ele>1896</ele>
        <time>2020-01-31T15:38:40Z</time>
      </trkpt>
      <trkpt lat="45.28794" lon="5.78487">
        <ele>1896.6</ele>
        <time>2020-01-31T15:38:41Z</time>
      </trkpt>
      <trkpt lat="45.28794" lon="5.78487">
        <ele>1896.8</ele>
        <time>2020-01-31T15:38:42Z</time>
      </trkpt>
      <trkpt lat="45.28794" lon="5.78487">
        <ele>1897</ele>
        <time>2020-01-31T15:38:43Z</time>
      </trkpt>
      <trkpt lat="45.28794" lon="5.78487">
        <ele>1896.8</ele>
        <time>2020-01-31T15:38:44Z</time>
      </trkpt>
      <trkpt lat="45.28794" lon="5.78487">
        <ele>1897</ele>
        <time>2020-01-31T15:38:45Z</time>
      </trkpt>
      <trkpt lat="45.28794" lon="5.78487">
        <ele>1897.6</ele>
        <time>2020-01-31T15:38:46Z</time>
      </trkpt>
      <trkpt lat="45.28794" lon="5.78487">
        <ele>1897.2</ele>
        <time>2020-01-31T15:38:47Z</time>
      </trkpt>
      <trkpt lat="45.28794" lon="5.78487">
        <ele>1897.4</ele>
        <time>2020-01-31T15:38:48Z</time>
      </trkpt>
      <trkpt lat="45.28794" lon="5.78491">
        <ele>1897.6</ele>
        <time>2020-01-31T15:38:49Z</time>
      </trkpt>
      <trkpt lat="45.28794" lon="5.78491">
        <ele>1897.6</ele>
        <time>2020-01-31T15:38:50Z</time>
      </trkpt>
      <trkpt lat="45.28794" lon="5.78491">
        <ele>1897.4</ele>
        <time>2020-01-31T15:38:51Z</time>
      </trkpt>
      <trkpt lat="45.28794" lon="5.78491">
        <ele>1897.6</ele>
        <time>2020-01-31T15:38:52Z</time>
      </trkpt>
      <trkpt lat="45.28794" lon="5.78491">
        <ele>1897.8</ele>
        <time>2020-01-31T15:38:53Z</time>
      </trkpt>
      <trkpt lat="45.28794" lon="5.78491">
        <ele>1897.8</ele>
        <time>2020-01-31T15:38:54Z</time>
      </trkpt>
      <trkpt lat="45.28794" lon="5.78491">
        <ele>1898.2</ele>
        <time>2020-01-31T15:38:55Z</time>
      </trkpt>
      <trkpt lat="45.28792" lon="5.78492">
        <ele>1898</ele>
        <time>2020-01-31T15:38:56Z</time>
      </trkpt>
      <trkpt lat="45.28792" lon="5.78492">
        <ele>1898</ele>
        <time>2020-01-31T15:38:57Z</time>
      </trkpt>
      <trkpt lat="45.28792" lon="5.78492">
        <ele>1898.6</ele>
        <time>2020-01-31T15:38:58Z</time>
      </trkpt>
      <trkpt lat="45.28792" lon="5.78492">
        <ele>1898.6</ele>
        <time>2020-01-31T15:38:59Z</time>
      </trkpt>
      <trkpt lat="45.28792" lon="5.78492">
        <ele>1898.4</ele>
        <time>2020-01-31T15:39:00Z</time>
      </trkpt>
      <trkpt lat="45.28792" lon="5.78492">
        <ele>1898.4</ele>
        <time>2020-01-31T15:39:01Z</time>
      </trkpt>
      <trkpt lat="45.28792" lon="5.78492">
        <ele>1898.6</ele>
        <time>2020-01-31T15:39:02Z</time>
      </trkpt>
      <trkpt lat="45.28792" lon="5.78492">
        <ele>1898.6</ele>
        <time>2020-01-31T15:39:03Z</time>
      </trkpt>
      <trkpt lat="45.28792" lon="5.78492">
        <ele>1898.6</ele>
        <time>2020-01-31T15:39:04Z</time>
      </trkpt>
      <trkpt lat="45.28792" lon="5.78492">
        <ele>1899.2</ele>
        <time>2020-01-31T15:39:05Z</time>
      </trkpt>
      <trkpt lat="45.28792" lon="5.78492">
        <ele>1899.8</ele>
        <time>2020-01-31T15:39:06Z</time>
      </trkpt>
      <trkpt lat="45.28792" lon="5.78492">
        <ele>1900.2</ele>
        <time>2020-01-31T15:39:07Z</time>
      </trkpt>
      <trkpt lat="45.28792" lon="5.78492">
        <ele>1900.6</ele>
        <time>2020-01-31T15:39:08Z</time>
      </trkpt>
      <trkpt lat="45.28792" lon="5.78492">
        <ele>1900.6</ele>
        <time>2020-01-31T15:39:09Z</time>
      </trkpt>
      <trkpt lat="45.28792" lon="5.78492">
        <ele>1900.8</ele>
        <time>2020-01-31T15:39:10Z</time>
      </trkpt>
      <trkpt lat="45.28792" lon="5.78492">
        <ele>1901.2</ele>
        <time>2020-01-31T15:39:11Z</time>
      </trkpt>
      <trkpt lat="45.28792" lon="5.78492">
        <ele>1901.4</ele>
        <time>2020-01-31T15:39:12Z</time>
      </trkpt>
      <trkpt lat="45.28792" lon="5.78492">
        <ele>1901.4</ele>
        <time>2020-01-31T15:39:13Z</time>
      </trkpt>
      <trkpt lat="45.28792" lon="5.78492">
        <ele>1901.4</ele>
        <time>2020-01-31T15:39:14Z</time>
      </trkpt>
      <trkpt lat="45.28795" lon="5.78496">
        <ele>1901</ele>
        <time>2020-01-31T15:39:15Z</time>
      </trkpt>
      <trkpt lat="45.28795" lon="5.78496">
        <ele>1901.6</ele>
        <time>2020-01-31T15:39:16Z</time>
      </trkpt>
      <trkpt lat="45.28795" lon="5.78496">
        <ele>1901.8</ele>
        <time>2020-01-31T15:39:17Z</time>
      </trkpt>
      <trkpt lat="45.28795" lon="5.78496">
        <ele>1902</ele>
        <time>2020-01-31T15:39:18Z</time>
      </trkpt>
      <trkpt lat="45.28795" lon="5.78496">
        <ele>1902</ele>
        <time>2020-01-31T15:39:19Z</time>
      </trkpt>
      <trkpt lat="45.28795" lon="5.78496">
        <ele>1902.2</ele>
        <time>2020-01-31T15:39:20Z</time>
      </trkpt>
      <trkpt lat="45.28795" lon="5.78496">
        <ele>1902.2</ele>
        <time>2020-01-31T15:39:21Z</time>
      </trkpt>
      <trkpt lat="45.28795" lon="5.78496">
        <ele>1902.6</ele>
        <time>2020-01-31T15:39:22Z</time>
      </trkpt>
      <trkpt lat="45.28797" lon="5.78497">
        <ele>1902.8</ele>
        <time>2020-01-31T15:39:23Z</time>
      </trkpt>
      <trkpt lat="45.28797" lon="5.78497">
        <ele>1903</ele>
        <time>2020-01-31T15:39:24Z</time>
      </trkpt>
      <trkpt lat="45.28797" lon="5.78498">
        <ele>1903.2</ele>
        <time>2020-01-31T15:39:25Z</time>
      </trkpt>
      <trkpt lat="45.28797" lon="5.78499">
        <ele>1903.4</ele>
        <time>2020-01-31T15:39:26Z</time>
      </trkpt>
      <trkpt lat="45.28797" lon="5.785">
        <ele>1903.6</ele>
        <time>2020-01-31T15:39:27Z</time>
      </trkpt>
      <trkpt lat="45.28797" lon="5.785">
        <ele>1903.8</ele>
        <time>2020-01-31T15:39:28Z</time>
      </trkpt>
      <trkpt lat="45.28797" lon="5.78501">
        <ele>1904.2</ele>
        <time>2020-01-31T15:39:29Z</time>
      </trkpt>
      <trkpt lat="45.28798" lon="5.78502">
        <ele>1904.6</ele>
        <time>2020-01-31T15:39:30Z</time>
      </trkpt>
      <trkpt lat="45.28798" lon="5.78503">
        <ele>1904.8</ele>
        <time>2020-01-31T15:39:31Z</time>
      </trkpt>
      <trkpt lat="45.28798" lon="5.78503">
        <ele>1905</ele>
        <time>2020-01-31T15:39:32Z</time>
      </trkpt>
      <trkpt lat="45.28798" lon="5.78504">
        <ele>1905.2</ele>
        <time>2020-01-31T15:39:33Z</time>
      </trkpt>
      <trkpt lat="45.28798" lon="5.78505">
        <ele>1905.6</ele>
        <time>2020-01-31T15:39:34Z</time>
      </trkpt>
      <trkpt lat="45.28798" lon="5.78505">
        <ele>1905.8</ele>
        <time>2020-01-31T15:39:35Z</time>
      </trkpt>
      <trkpt lat="45.28798" lon="5.78506">
        <ele>1906</ele>
        <time>2020-01-31T15:39:36Z</time>
      </trkpt>
      <trkpt lat="45.28798" lon="5.78507">
        <ele>1906.2</ele>
        <time>2020-01-31T15:39:37Z</time>
      </trkpt>
      <trkpt lat="45.28798" lon="5.78508">
        <ele>1906.2</ele>
        <time>2020-01-31T15:39:38Z</time>
      </trkpt>
      <trkpt lat="45.28798" lon="5.78508">
        <ele>1906.6</ele>
        <time>2020-01-31T15:39:39Z</time>
      </trkpt>
      <trkpt lat="45.28798" lon="5.78509">
        <ele>1907</ele>
        <time>2020-01-31T15:39:40Z</time>
      </trkpt>
      <trkpt lat="45.28799" lon="5.7851">
        <ele>1907</ele>
        <time>2020-01-31T15:39:41Z</time>
      </trkpt>
      <trkpt lat="45.28799" lon="5.7851">
        <ele>1907</ele>
        <time>2020-01-31T15:39:42Z</time>
      </trkpt>
      <trkpt lat="45.28799" lon="5.7851">
        <ele>1907.2</ele>
        <time>2020-01-31T15:39:43Z</time>
      </trkpt>
      <trkpt lat="45.28799" lon="5.78511">
        <ele>1907.2</ele>
        <time>2020-01-31T15:39:44Z</time>
      </trkpt>
      <trkpt lat="45.28799" lon="5.78511">
        <ele>1907.4</ele>
        <time>2020-01-31T15:39:45Z</time>
      </trkpt>
      <trkpt lat="45.28799" lon="5.78511">
        <ele>1907.4</ele>
        <time>2020-01-31T15:39:46Z</time>
      </trkpt>
      <trkpt lat="45.28799" lon="5.78512">
        <ele>1907.6</ele>
        <time>2020-01-31T15:39:47Z</time>
      </trkpt>
      <trkpt lat="45.28799" lon="5.78512">
        <ele>1907.8</ele>
        <time>2020-01-31T15:39:48Z</time>
      </trkpt>
      <trkpt lat="45.28799" lon="5.78512">
        <ele>1908</ele>
        <time>2020-01-31T15:39:49Z</time>
      </trkpt>
      <trkpt lat="45.28799" lon="5.78513">
        <ele>1908</ele>
        <time>2020-01-31T15:39:50Z</time>
      </trkpt>
      <trkpt lat="45.28799" lon="5.78513">
        <ele>1908</ele>
        <time>2020-01-31T15:39:51Z</time>
      </trkpt>
      <trkpt lat="45.28799" lon="5.78513">
        <ele>1908</ele>
        <time>2020-01-31T15:39:52Z</time>
      </trkpt>
      <trkpt lat="45.28799" lon="5.78513">
        <ele>1908.4</ele>
        <time>2020-01-31T15:39:53Z</time>
      </trkpt>
      <trkpt lat="45.28799" lon="5.78514">
        <ele>1908.2</ele>
        <time>2020-01-31T15:39:54Z</time>
      </trkpt>
      <trkpt lat="45.28799" lon="5.78514">
        <ele>1908.4</ele>
        <time>2020-01-31T15:39:55Z</time>
      </trkpt>
      <trkpt lat="45.28799" lon="5.78514">
        <ele>1909</ele>
        <time>2020-01-31T15:39:56Z</time>
      </trkpt>
      <trkpt lat="45.288" lon="5.78515">
        <ele>1909</ele>
        <time>2020-01-31T15:39:57Z</time>
      </trkpt>
      <trkpt lat="45.288" lon="5.78515">
        <ele>1909.2</ele>
        <time>2020-01-31T15:39:58Z</time>
      </trkpt>
      <trkpt lat="45.288" lon="5.78515">
        <ele>1909.4</ele>
        <time>2020-01-31T15:39:59Z</time>
      </trkpt>
      <trkpt lat="45.288" lon="5.78516">
        <ele>1909.4</ele>
        <time>2020-01-31T15:40:00Z</time>
      </trkpt>
      <trkpt lat="45.288" lon="5.78516">
        <ele>1909.6</ele>
        <time>2020-01-31T15:40:01Z</time>
      </trkpt>
      <trkpt lat="45.288" lon="5.78516">
        <ele>1909.4</ele>
        <time>2020-01-31T15:40:02Z</time>
      </trkpt>
      <trkpt lat="45.288" lon="5.78517">
        <ele>1909.4</ele>
        <time>2020-01-31T15:40:03Z</time>
      </trkpt>
      <trkpt lat="45.288" lon="5.78517">
        <ele>1909.6</ele>
        <time>2020-01-31T15:40:04Z</time>
      </trkpt>
      <trkpt lat="45.288" lon="5.78517">
        <ele>1910.2</ele>
        <time>2020-01-31T15:40:05Z</time>
      </trkpt>
      <trkpt lat="45.288" lon="5.78517">
        <ele>1910.6</ele>
        <time>2020-01-31T15:40:06Z</time>
      </trkpt>
      <trkpt lat="45.288" lon="5.78518">
        <ele>1911</ele>
        <time>2020-01-31T15:40:07Z</time>
      </trkpt>
      <trkpt lat="45.288" lon="5.78518">
        <ele>1911.4</ele>
        <time>2020-01-31T15:40:08Z</time>
      </trkpt>
      <trkpt lat="45.288" lon="5.78518">
        <ele>1911.8</ele>
        <time>2020-01-31T15:40:09Z</time>
      </trkpt>
      <trkpt lat="45.288" lon="5.78519">
        <ele>1912</ele>
        <time>2020-01-31T15:40:10Z</time>
      </trkpt>
      <trkpt lat="45.288" lon="5.78519">
        <ele>1912.4</ele>
        <time>2020-01-31T15:40:11Z</time>
      </trkpt>
      <trkpt lat="45.288" lon="5.78519">
        <ele>1912.6</ele>
        <time>2020-01-31T15:40:12Z</time>
      </trkpt>
      <trkpt lat="45.288" lon="5.7852">
        <ele>1913</ele>
        <time>2020-01-31T15:40:13Z</time>
      </trkpt>
      <trkpt lat="45.28801" lon="5.7852">
        <ele>1913</ele>
        <time>2020-01-31T15:40:14Z</time>
      </trkpt>
      <trkpt lat="45.28801" lon="5.7852">
        <ele>1913.2</ele>
        <time>2020-01-31T15:40:15Z</time>
      </trkpt>
      <trkpt lat="45.28801" lon="5.7852">
        <ele>1913</ele>
        <time>2020-01-31T15:40:16Z</time>
      </trkpt>
      <trkpt lat="45.28801" lon="5.78521">
        <ele>1913</ele>
        <time>2020-01-31T15:40:17Z</time>
      </trkpt>
      <trkpt lat="45.28801" lon="5.78521">
        <ele>1913.6</ele>
        <time>2020-01-31T15:40:18Z</time>
      </trkpt>
      <trkpt lat="45.28801" lon="5.78521">
        <ele>1913.8</ele>
        <time>2020-01-31T15:40:19Z</time>
      </trkpt>
      <trkpt lat="45.28801" lon="5.78522">
        <ele>1913.6</ele>
        <time>2020-01-31T15:40:20Z</time>
      </trkpt>
      <trkpt lat="45.28801" lon="5.78522">
        <ele>1913.4</ele>
        <time>2020-01-31T15:40:21Z</time>
      </trkpt>
      <trkpt lat="45.28801" lon="5.78522">
        <ele>1913.4</ele>
        <time>2020-01-31T15:40:22Z</time>
      </trkpt>
      <trkpt lat="45.28801" lon="5.78523">
        <ele>1913.4</ele>
        <time>2020-01-31T15:40:23Z</time>
      </trkpt>
      <trkpt lat="45.28801" lon="5.78523">
        <ele>1914</ele>
        <time>2020-01-31T15:40:24Z</time>
      </trkpt>
      <trkpt lat="45.28802" lon="5.78523">
        <ele>1914.4</ele>
        <time>2020-01-31T15:40:25Z</time>
      </trkpt>
      <trkpt lat="45.28802" lon="5.78523">
        <ele>1914.8</ele>
        <time>2020-01-31T15:40:26Z</time>
      </trkpt>
      <trkpt lat="45.28802" lon="5.78522">
        <ele>1915.4</ele>
        <time>2020-01-31T15:40:27Z</time>
      </trkpt>
      <trkpt lat="45.28803" lon="5.78522">
        <ele>1915.8</ele>
        <time>2020-01-31T15:40:28Z</time>
      </trkpt>
      <trkpt lat="45.28803" lon="5.78522">
        <ele>1915.4</ele>
        <time>2020-01-31T15:40:29Z</time>
      </trkpt>
      <trkpt lat="45.28804" lon="5.78522">
        <ele>1915.8</ele>
        <time>2020-01-31T15:40:30Z</time>
      </trkpt>
      <trkpt lat="45.28804" lon="5.78522">
        <ele>1916.2</ele>
        <time>2020-01-31T15:40:31Z</time>
      </trkpt>
      <trkpt lat="45.28804" lon="5.78522">
        <ele>1916.4</ele>
        <time>2020-01-31T15:40:32Z</time>
      </trkpt>
      <trkpt lat="45.28805" lon="5.78521">
        <ele>1916.6</ele>
        <time>2020-01-31T15:40:33Z</time>
      </trkpt>
      <trkpt lat="45.28805" lon="5.78521">
        <ele>1916.2</ele>
        <time>2020-01-31T15:40:34Z</time>
      </trkpt>
      <trkpt lat="45.28806" lon="5.78521">
        <ele>1916.4</ele>
        <time>2020-01-31T15:40:35Z</time>
      </trkpt>
      <trkpt lat="45.28806" lon="5.78521">
        <ele>1916.8</ele>
        <time>2020-01-31T15:40:36Z</time>
      </trkpt>
      <trkpt lat="45.28807" lon="5.78521">
        <ele>1917</ele>
        <time>2020-01-31T15:40:37Z</time>
      </trkpt>
      <trkpt lat="45.28807" lon="5.78521">
        <ele>1916.8</ele>
        <time>2020-01-31T15:40:38Z</time>
      </trkpt>
      <trkpt lat="45.28807" lon="5.7852">
        <ele>1917.2</ele>
        <time>2020-01-31T15:40:39Z</time>
      </trkpt>
      <trkpt lat="45.28808" lon="5.7852">
        <ele>1917.2</ele>
        <time>2020-01-31T15:40:40Z</time>
      </trkpt>
      <trkpt lat="45.28808" lon="5.7852">
        <ele>1917.4</ele>
        <time>2020-01-31T15:40:41Z</time>
      </trkpt>
      <trkpt lat="45.28809" lon="5.7852">
        <ele>1917.6</ele>
        <time>2020-01-31T15:40:42Z</time>
      </trkpt>
      <trkpt lat="45.28809" lon="5.7852">
        <ele>1917.6</ele>
        <time>2020-01-31T15:40:43Z</time>
      </trkpt>
      <trkpt lat="45.28809" lon="5.7852">
        <ele>1917.6</ele>
        <time>2020-01-31T15:40:44Z</time>
      </trkpt>
      <trkpt lat="45.2881" lon="5.7852">
        <ele>1917.8</ele>
        <time>2020-01-31T15:40:45Z</time>
      </trkpt>
      <trkpt lat="45.2881" lon="5.78519">
        <ele>1917.4</ele>
        <time>2020-01-31T15:40:46Z</time>
      </trkpt>
      <trkpt lat="45.2881" lon="5.78519">
        <ele>1917.6</ele>
        <time>2020-01-31T15:40:47Z</time>
      </trkpt>
      <trkpt lat="45.2881" lon="5.7852">
        <ele>1917.6</ele>
        <time>2020-01-31T15:40:48Z</time>
      </trkpt>
      <trkpt lat="45.2881" lon="5.7852">
        <ele>1918</ele>
        <time>2020-01-31T15:40:49Z</time>
      </trkpt>
      <trkpt lat="45.2881" lon="5.7852">
        <ele>1918.2</ele>
        <time>2020-01-31T15:40:50Z</time>
      </trkpt>
      <trkpt lat="45.2881" lon="5.7852">
        <ele>1918.4</ele>
        <time>2020-01-31T15:40:51Z</time>
      </trkpt>
      <trkpt lat="45.28811" lon="5.7852">
        <ele>1918.4</ele>
        <time>2020-01-31T15:40:52Z</time>
      </trkpt>
      <trkpt lat="45.28811" lon="5.7852">
        <ele>1917.8</ele>
        <time>2020-01-31T15:40:53Z</time>
      </trkpt>
      <trkpt lat="45.28811" lon="5.7852">
        <ele>1917.4</ele>
        <time>2020-01-31T15:40:54Z</time>
      </trkpt>
      <trkpt lat="45.28811" lon="5.7852">
        <ele>1917.2</ele>
        <time>2020-01-31T15:40:55Z</time>
      </trkpt>
      <trkpt lat="45.28811" lon="5.78521">
        <ele>1917</ele>
        <time>2020-01-31T15:40:56Z</time>
      </trkpt>
      <trkpt lat="45.28811" lon="5.78521">
        <ele>1917</ele>
        <time>2020-01-31T15:40:57Z</time>
      </trkpt>
      <trkpt lat="45.28811" lon="5.78521">
        <ele>1917.2</ele>
        <time>2020-01-31T15:40:58Z</time>
      </trkpt>
      <trkpt lat="45.28811" lon="5.78521">
        <ele>1917.2</ele>
        <time>2020-01-31T15:40:59Z</time>
      </trkpt>
      <trkpt lat="45.28811" lon="5.78521">
        <ele>1917.4</ele>
        <time>2020-01-31T15:41:00Z</time>
      </trkpt>
      <trkpt lat="45.28811" lon="5.78521">
        <ele>1917.6</ele>
        <time>2020-01-31T15:41:01Z</time>
      </trkpt>
      <trkpt lat="45.28811" lon="5.78521">
        <ele>1917.8</ele>
        <time>2020-01-31T15:41:02Z</time>
      </trkpt>
      <trkpt lat="45.28811" lon="5.78521">
        <ele>1918</ele>
        <time>2020-01-31T15:41:03Z</time>
      </trkpt>
      <trkpt lat="45.28811" lon="5.78522">
        <ele>1917.8</ele>
        <time>2020-01-31T15:41:04Z</time>
      </trkpt>
      <trkpt lat="45.28811" lon="5.78522">
        <ele>1918</ele>
        <time>2020-01-31T15:41:05Z</time>
      </trkpt>
      <trkpt lat="45.28811" lon="5.78522">
        <ele>1917.6</ele>
        <time>2020-01-31T15:41:06Z</time>
      </trkpt>
      <trkpt lat="45.28811" lon="5.78522">
        <ele>1918</ele>
        <time>2020-01-31T15:41:07Z</time>
      </trkpt>
      <trkpt lat="45.28811" lon="5.78522">
        <ele>1918.2</ele>
        <time>2020-01-31T15:41:08Z</time>
      </trkpt>
      <trkpt lat="45.28811" lon="5.78522">
        <ele>1918.2</ele>
        <time>2020-01-31T15:41:09Z</time>
      </trkpt>
      <trkpt lat="45.28811" lon="5.78522">
        <ele>1918.2</ele>
        <time>2020-01-31T15:41:10Z</time>
      </trkpt>
      <trkpt lat="45.28811" lon="5.78522">
        <ele>1918.6</ele>
        <time>2020-01-31T15:41:11Z</time>
      </trkpt>
      <trkpt lat="45.28811" lon="5.78523">
        <ele>1918.8</ele>
        <time>2020-01-31T15:41:12Z</time>
      </trkpt>
      <trkpt lat="45.28811" lon="5.78523">
        <ele>1919</ele>
        <time>2020-01-31T15:41:13Z</time>
      </trkpt>
      <trkpt lat="45.28811" lon="5.78523">
        <ele>1919.2</ele>
        <time>2020-01-31T15:41:14Z</time>
      </trkpt>
      <trkpt lat="45.28811" lon="5.78523">
        <ele>1919.4</ele>
        <time>2020-01-31T15:41:15Z</time>
      </trkpt>
      <trkpt lat="45.28812" lon="5.78523">
        <ele>1919.4</ele>
        <time>2020-01-31T15:41:16Z</time>
      </trkpt>
      <trkpt lat="45.28812" lon="5.78523">
        <ele>1919.4</ele>
        <time>2020-01-31T15:41:17Z</time>
      </trkpt>
      <trkpt lat="45.28812" lon="5.78523">
        <ele>1920</ele>
        <time>2020-01-31T15:41:18Z</time>
      </trkpt>
      <trkpt lat="45.28812" lon="5.78523">
        <ele>1920.2</ele>
        <time>2020-01-31T15:41:19Z</time>
      </trkpt>
      <trkpt lat="45.28812" lon="5.78524">
        <ele>1920.2</ele>
        <time>2020-01-31T15:41:20Z</time>
      </trkpt>
      <trkpt lat="45.28812" lon="5.78524">
        <ele>1920.2</ele>
        <time>2020-01-31T15:41:21Z</time>
      </trkpt>
      <trkpt lat="45.28812" lon="5.78524">
        <ele>1920.4</ele>
        <time>2020-01-31T15:41:22Z</time>
      </trkpt>
      <trkpt lat="45.28812" lon="5.78524">
        <ele>1920.6</ele>
        <time>2020-01-31T15:41:23Z</time>
      </trkpt>
      <trkpt lat="45.28812" lon="5.78524">
        <ele>1920.6</ele>
        <time>2020-01-31T15:41:24Z</time>
      </trkpt>
      <trkpt lat="45.28812" lon="5.78524">
        <ele>1920.8</ele>
        <time>2020-01-31T15:41:25Z</time>
      </trkpt>
      <trkpt lat="45.28812" lon="5.78524">
        <ele>1921.4</ele>
        <time>2020-01-31T15:41:26Z</time>
      </trkpt>
      <trkpt lat="45.28812" lon="5.78524">
        <ele>1921.6</ele>
        <time>2020-01-31T15:41:27Z</time>
      </trkpt>
      <trkpt lat="45.28812" lon="5.78525">
        <ele>1921.6</ele>
        <time>2020-01-31T15:41:28Z</time>
      </trkpt>
      <trkpt lat="45.28812" lon="5.78525">
        <ele>1922</ele>
        <time>2020-01-31T15:41:29Z</time>
      </trkpt>
      <trkpt lat="45.28812" lon="5.78525">
        <ele>1922.6</ele>
        <time>2020-01-31T15:41:30Z</time>
      </trkpt>
      <trkpt lat="45.28812" lon="5.78525">
        <ele>1922.8</ele>
        <time>2020-01-31T15:41:31Z</time>
      </trkpt>
      <trkpt lat="45.28812" lon="5.78525">
        <ele>1922.8</ele>
        <time>2020-01-31T15:41:32Z</time>
      </trkpt>
      <trkpt lat="45.28812" lon="5.78525">
        <ele>1923.2</ele>
        <time>2020-01-31T15:41:33Z</time>
      </trkpt>
      <trkpt lat="45.28812" lon="5.78525">
        <ele>1923.6</ele>
        <time>2020-01-31T15:41:34Z</time>
      </trkpt>
      <trkpt lat="45.28812" lon="5.78525">
        <ele>1923.6</ele>
        <time>2020-01-31T15:41:35Z</time>
      </trkpt>
      <trkpt lat="45.28812" lon="5.78526">
        <ele>1923.6</ele>
        <time>2020-01-31T15:41:36Z</time>
      </trkpt>
      <trkpt lat="45.28812" lon="5.78526">
        <ele>1923.6</ele>
        <time>2020-01-31T15:41:37Z</time>
      </trkpt>
      <trkpt lat="45.28812" lon="5.78526">
        <ele>1924.2</ele>
        <time>2020-01-31T15:41:38Z</time>
      </trkpt>
      <trkpt lat="45.28813" lon="5.78526">
        <ele>1924</ele>
        <time>2020-01-31T15:41:39Z</time>
      </trkpt>
      <trkpt lat="45.28813" lon="5.78526">
        <ele>1924.2</ele>
        <time>2020-01-31T15:41:40Z</time>
      </trkpt>
      <trkpt lat="45.28813" lon="5.78526">
        <ele>1924</ele>
        <time>2020-01-31T15:41:41Z</time>
      </trkpt>
      <trkpt lat="45.28813" lon="5.78526">
        <ele>1924.4</ele>
        <time>2020-01-31T15:41:42Z</time>
      </trkpt>
      <trkpt lat="45.28813" lon="5.78526">
        <ele>1924.6</ele>
        <time>2020-01-31T15:41:43Z</time>
      </trkpt>
      <trkpt lat="45.28813" lon="5.78527">
        <ele>1924.6</ele>
        <time>2020-01-31T15:41:44Z</time>
      </trkpt>
      <trkpt lat="45.28813" lon="5.78527">
        <ele>1925</ele>
        <time>2020-01-31T15:41:45Z</time>
      </trkpt>
      <trkpt lat="45.28813" lon="5.78527">
        <ele>1925.6</ele>
        <time>2020-01-31T15:41:46Z</time>
      </trkpt>
      <trkpt lat="45.28813" lon="5.78527">
        <ele>1925.4</ele>
        <time>2020-01-31T15:41:47Z</time>
      </trkpt>
      <trkpt lat="45.28813" lon="5.78527">
        <ele>1925.8</ele>
        <time>2020-01-31T15:41:48Z</time>
      </trkpt>
      <trkpt lat="45.28813" lon="5.78527">
        <ele>1925.8</ele>
        <time>2020-01-31T15:41:49Z</time>
      </trkpt>
      <trkpt lat="45.28813" lon="5.78527">
        <ele>1925.8</ele>
        <time>2020-01-31T15:41:50Z</time>
      </trkpt>
      <trkpt lat="45.28813" lon="5.78527">
        <ele>1926</ele>
        <time>2020-01-31T15:41:51Z</time>
      </trkpt>
      <trkpt lat="45.28813" lon="5.78528">
        <ele>1926.6</ele>
        <time>2020-01-31T15:41:52Z</time>
      </trkpt>
      <trkpt lat="45.28813" lon="5.78528">
        <ele>1926.8</ele>
        <time>2020-01-31T15:41:53Z</time>
      </trkpt>
      <trkpt lat="45.28813" lon="5.78528">
        <ele>1927.2</ele>
        <time>2020-01-31T15:41:54Z</time>
      </trkpt>
      <trkpt lat="45.28813" lon="5.78528">
        <ele>1928</ele>
        <time>2020-01-31T15:41:55Z</time>
      </trkpt>
      <trkpt lat="45.28813" lon="5.78528">
        <ele>1928.4</ele>
        <time>2020-01-31T15:41:56Z</time>
      </trkpt>
      <trkpt lat="45.28813" lon="5.78528">
        <ele>1928.6</ele>
        <time>2020-01-31T15:41:57Z</time>
      </trkpt>
      <trkpt lat="45.28813" lon="5.78528">
        <ele>1929</ele>
        <time>2020-01-31T15:41:58Z</time>
      </trkpt>
      <trkpt lat="45.28813" lon="5.78528">
        <ele>1928.8</ele>
        <time>2020-01-31T15:41:59Z</time>
      </trkpt>
      <trkpt lat="45.28813" lon="5.78528">
        <ele>1928.4</ele>
        <time>2020-01-31T15:42:00Z</time>
      </trkpt>
      <trkpt lat="45.28813" lon="5.78528">
        <ele>1928.8</ele>
        <time>2020-01-31T15:42:01Z</time>
      </trkpt>
      <trkpt lat="45.28813" lon="5.78528">
        <ele>1929.2</ele>
        <time>2020-01-31T15:42:02Z</time>
      </trkpt>
      <trkpt lat="45.28813" lon="5.78528">
        <ele>1929.4</ele>
        <time>2020-01-31T15:42:03Z</time>
      </trkpt>
      <trkpt lat="45.28813" lon="5.78528">
        <ele>1929.4</ele>
        <time>2020-01-31T15:42:04Z</time>
      </trkpt>
      <trkpt lat="45.28815" lon="5.7853">
        <ele>1929.6</ele>
        <time>2020-01-31T15:42:05Z</time>
      </trkpt>
      <trkpt lat="45.28815" lon="5.7853">
        <ele>1930.2</ele>
        <time>2020-01-31T15:42:06Z</time>
      </trkpt>
      <trkpt lat="45.28815" lon="5.7853">
        <ele>1930.6</ele>
        <time>2020-01-31T15:42:07Z</time>
      </trkpt>
      <trkpt lat="45.28815" lon="5.7853">
        <ele>1930.8</ele>
        <time>2020-01-31T15:42:08Z</time>
      </trkpt>
      <trkpt lat="45.28817" lon="5.7853">
        <ele>1931</ele>
        <time>2020-01-31T15:42:09Z</time>
      </trkpt>
      <trkpt lat="45.28817" lon="5.7853">
        <ele>1931</ele>
        <time>2020-01-31T15:42:10Z</time>
      </trkpt>
      <trkpt lat="45.28817" lon="5.7853">
        <ele>1931</ele>
        <time>2020-01-31T15:42:11Z</time>
      </trkpt>
      <trkpt lat="45.28817" lon="5.7853">
        <ele>1931.2</ele>
        <time>2020-01-31T15:42:12Z</time>
      </trkpt>
      <trkpt lat="45.28817" lon="5.7853">
        <ele>1931.2</ele>
        <time>2020-01-31T15:42:13Z</time>
      </trkpt>
      <trkpt lat="45.28817" lon="5.7853">
        <ele>1931.2</ele>
        <time>2020-01-31T15:42:14Z</time>
      </trkpt>
      <trkpt lat="45.28817" lon="5.7853">
        <ele>1931.4</ele>
        <time>2020-01-31T15:42:15Z</time>
      </trkpt>
      <trkpt lat="45.28817" lon="5.7853">
        <ele>1931.6</ele>
        <time>2020-01-31T15:42:16Z</time>
      </trkpt>
      <trkpt lat="45.28817" lon="5.7853">
        <ele>1932</ele>
        <time>2020-01-31T15:42:17Z</time>
      </trkpt>
      <trkpt lat="45.28817" lon="5.7853">
        <ele>1932</ele>
        <time>2020-01-31T15:42:18Z</time>
      </trkpt>
      <trkpt lat="45.28817" lon="5.7853">
        <ele>1932.2</ele>
        <time>2020-01-31T15:42:19Z</time>
      </trkpt>
      <trkpt lat="45.28817" lon="5.7853">
        <ele>1932</ele>
        <time>2020-01-31T15:42:20Z</time>
      </trkpt>
      <trkpt lat="45.28817" lon="5.7853">
        <ele>1932.2</ele>
        <time>2020-01-31T15:42:21Z</time>
      </trkpt>
      <trkpt lat="45.28817" lon="5.7853">
        <ele>1932.2</ele>
        <time>2020-01-31T15:42:22Z</time>
      </trkpt>
      <trkpt lat="45.28815" lon="5.78531">
        <ele>1932.2</ele>
        <time>2020-01-31T15:42:23Z</time>
      </trkpt>
      <trkpt lat="45.28815" lon="5.78531">
        <ele>1932.2</ele>
        <time>2020-01-31T15:42:24Z</time>
      </trkpt>
      <trkpt lat="45.28815" lon="5.78531">
        <ele>1932.2</ele>
        <time>2020-01-31T15:42:25Z</time>
      </trkpt>
      <trkpt lat="45.28815" lon="5.78531">
        <ele>1932</ele>
        <time>2020-01-31T15:42:26Z</time>
      </trkpt>
      <trkpt lat="45.28815" lon="5.78531">
        <ele>1932</ele>
        <time>2020-01-31T15:42:27Z</time>
      </trkpt>
      <trkpt lat="45.28815" lon="5.78531">
        <ele>1932.2</ele>
        <time>2020-01-31T15:42:28Z</time>
      </trkpt>
      <trkpt lat="45.28815" lon="5.78531">
        <ele>1932.2</ele>
        <time>2020-01-31T15:42:29Z</time>
      </trkpt>
      <trkpt lat="45.28815" lon="5.78531">
        <ele>1931.8</ele>
        <time>2020-01-31T15:42:30Z</time>
      </trkpt>
      <trkpt lat="45.28815" lon="5.78531">
        <ele>1931.6</ele>
        <time>2020-01-31T15:42:31Z</time>
      </trkpt>
      <trkpt lat="45.28815" lon="5.78531">
        <ele>1931.4</ele>
        <time>2020-01-31T15:42:32Z</time>
      </trkpt>
      <trkpt lat="45.28815" lon="5.78531">
        <ele>1931.4</ele>
        <time>2020-01-31T15:42:33Z</time>
      </trkpt>
      <trkpt lat="45.28815" lon="5.78531">
        <ele>1931.6</ele>
        <time>2020-01-31T15:42:34Z</time>
      </trkpt>
      <trkpt lat="45.28815" lon="5.78531">
        <ele>1931.6</ele>
        <time>2020-01-31T15:42:35Z</time>
      </trkpt>
      <trkpt lat="45.28815" lon="5.78531">
        <ele>1931.8</ele>
        <time>2020-01-31T15:42:36Z</time>
      </trkpt>
      <trkpt lat="45.28815" lon="5.78531">
        <ele>1932.2</ele>
        <time>2020-01-31T15:42:37Z</time>
      </trkpt>
      <trkpt lat="45.28815" lon="5.78531">
        <ele>1932.6</ele>
        <time>2020-01-31T15:42:38Z</time>
      </trkpt>
      <trkpt lat="45.28817" lon="5.78533">
        <ele>1932.6</ele>
        <time>2020-01-31T15:42:39Z</time>
      </trkpt>
      <trkpt lat="45.28817" lon="5.78533">
        <ele>1932.6</ele>
        <time>2020-01-31T15:42:40Z</time>
      </trkpt>
      <trkpt lat="45.28817" lon="5.78533">
        <ele>1933.6</ele>
        <time>2020-01-31T15:42:41Z</time>
      </trkpt>
      <trkpt lat="45.28817" lon="5.78533">
        <ele>1933.8</ele>
        <time>2020-01-31T15:42:42Z</time>
      </trkpt>
      <trkpt lat="45.28817" lon="5.78533">
        <ele>1933.8</ele>
        <time>2020-01-31T15:42:43Z</time>
      </trkpt>
      <trkpt lat="45.28819" lon="5.78534">
        <ele>1933.8</ele>
        <time>2020-01-31T15:42:44Z</time>
      </trkpt>
      <trkpt lat="45.28819" lon="5.78534">
        <ele>1934.4</ele>
        <time>2020-01-31T15:42:45Z</time>
      </trkpt>
      <trkpt lat="45.28819" lon="5.78534">
        <ele>1934.2</ele>
        <time>2020-01-31T15:42:46Z</time>
      </trkpt>
      <trkpt lat="45.28819" lon="5.78534">
        <ele>1934.4</ele>
        <time>2020-01-31T15:42:47Z</time>
      </trkpt>
      <trkpt lat="45.28819" lon="5.78534">
        <ele>1934.8</ele>
        <time>2020-01-31T15:42:48Z</time>
      </trkpt>
      <trkpt lat="45.28821" lon="5.78533">
        <ele>1934.8</ele>
        <time>2020-01-31T15:42:49Z</time>
      </trkpt>
      <trkpt lat="45.28821" lon="5.78533">
        <ele>1934.6</ele>
        <time>2020-01-31T15:42:50Z</time>
      </trkpt>
      <trkpt lat="45.28821" lon="5.78533">
        <ele>1935</ele>
        <time>2020-01-31T15:42:51Z</time>
      </trkpt>
      <trkpt lat="45.28821" lon="5.78533">
        <ele>1935.2</ele>
        <time>2020-01-31T15:42:52Z</time>
      </trkpt>
      <trkpt lat="45.28821" lon="5.78533">
        <ele>1935.4</ele>
        <time>2020-01-31T15:42:53Z</time>
      </trkpt>
      <trkpt lat="45.28821" lon="5.78533">
        <ele>1935.4</ele>
        <time>2020-01-31T15:42:54Z</time>
      </trkpt>
      <trkpt lat="45.28821" lon="5.78533">
        <ele>1935.4</ele>
        <time>2020-01-31T15:42:55Z</time>
      </trkpt>
      <trkpt lat="45.28821" lon="5.78533">
        <ele>1935.4</ele>
        <time>2020-01-31T15:42:56Z</time>
      </trkpt>
      <trkpt lat="45.28821" lon="5.78533">
        <ele>1935.4</ele>
        <time>2020-01-31T15:42:57Z</time>
      </trkpt>
      <trkpt lat="45.28821" lon="5.78533">
        <ele>1935.6</ele>
        <time>2020-01-31T15:42:58Z</time>
      </trkpt>
      <trkpt lat="45.28821" lon="5.78533">
        <ele>1935.8</ele>
        <time>2020-01-31T15:42:59Z</time>
      </trkpt>
      <trkpt lat="45.28821" lon="5.78533">
        <ele>1936.2</ele>
        <time>2020-01-31T15:43:00Z</time>
      </trkpt>
      <trkpt lat="45.28821" lon="5.78533">
        <ele>1936.2</ele>
        <time>2020-01-31T15:43:01Z</time>
      </trkpt>
      <trkpt lat="45.28821" lon="5.78533">
        <ele>1936.6</ele>
        <time>2020-01-31T15:43:02Z</time>
      </trkpt>
      <trkpt lat="45.28821" lon="5.78533">
        <ele>1936.4</ele>
        <time>2020-01-31T15:43:03Z</time>
      </trkpt>
      <trkpt lat="45.28821" lon="5.78533">
        <ele>1936.6</ele>
        <time>2020-01-31T15:43:04Z</time>
      </trkpt>
      <trkpt lat="45.28821" lon="5.78533">
        <ele>1936.6</ele>
        <time>2020-01-31T15:43:05Z</time>
      </trkpt>
      <trkpt lat="45.28821" lon="5.78533">
        <ele>1936.4</ele>
        <time>2020-01-31T15:43:06Z</time>
      </trkpt>
      <trkpt lat="45.28821" lon="5.78533">
        <ele>1936.4</ele>
        <time>2020-01-31T15:43:07Z</time>
      </trkpt>
      <trkpt lat="45.28821" lon="5.78533">
        <ele>1936.2</ele>
        <time>2020-01-31T15:43:08Z</time>
      </trkpt>
      <trkpt lat="45.28822" lon="5.7853">
        <ele>1936.2</ele>
        <time>2020-01-31T15:43:09Z</time>
      </trkpt>
      <trkpt lat="45.28822" lon="5.7853">
        <ele>1936.6</ele>
        <time>2020-01-31T15:43:10Z</time>
      </trkpt>
      <trkpt lat="45.28822" lon="5.7853">
        <ele>1936.4</ele>
        <time>2020-01-31T15:43:11Z</time>
      </trkpt>
      <trkpt lat="45.28822" lon="5.7853">
        <ele>1936.6</ele>
        <time>2020-01-31T15:43:12Z</time>
      </trkpt>
      <trkpt lat="45.28822" lon="5.7853">
        <ele>1937</ele>
        <time>2020-01-31T15:43:13Z</time>
      </trkpt>
      <trkpt lat="45.28824" lon="5.7853">
        <ele>1937</ele>
        <time>2020-01-31T15:43:14Z</time>
      </trkpt>
      <trkpt lat="45.28824" lon="5.7853">
        <ele>1937.6</ele>
        <time>2020-01-31T15:43:15Z</time>
      </trkpt>
      <trkpt lat="45.28824" lon="5.7853">
        <ele>1937.8</ele>
        <time>2020-01-31T15:43:16Z</time>
      </trkpt>
      <trkpt lat="45.28824" lon="5.7853">
        <ele>1938.2</ele>
        <time>2020-01-31T15:43:17Z</time>
      </trkpt>
      <trkpt lat="45.28826" lon="5.78532">
        <ele>1938</ele>
        <time>2020-01-31T15:43:18Z</time>
      </trkpt>
      <trkpt lat="45.28826" lon="5.78532">
        <ele>1938.6</ele>
        <time>2020-01-31T15:43:19Z</time>
      </trkpt>
      <trkpt lat="45.28826" lon="5.78532">
        <ele>1938.8</ele>
        <time>2020-01-31T15:43:20Z</time>
      </trkpt>
      <trkpt lat="45.28826" lon="5.78532">
        <ele>1939</ele>
        <time>2020-01-31T15:43:21Z</time>
      </trkpt>
      <trkpt lat="45.28827" lon="5.78534">
        <ele>1939</ele>
        <time>2020-01-31T15:43:22Z</time>
      </trkpt>
      <trkpt lat="45.28827" lon="5.78534">
        <ele>1939.4</ele>
        <time>2020-01-31T15:43:23Z</time>
      </trkpt>
      <trkpt lat="45.28827" lon="5.78534">
        <ele>1939.4</ele>
        <time>2020-01-31T15:43:24Z</time>
      </trkpt>
      <trkpt lat="45.28827" lon="5.78534">
        <ele>1939.8</ele>
        <time>2020-01-31T15:43:25Z</time>
      </trkpt>
      <trkpt lat="45.28828" lon="5.78536">
        <ele>1940</ele>
        <time>2020-01-31T15:43:26Z</time>
      </trkpt>
      <trkpt lat="45.28828" lon="5.78536">
        <ele>1940.2</ele>
        <time>2020-01-31T15:43:27Z</time>
      </trkpt>
      <trkpt lat="45.28828" lon="5.78536">
        <ele>1940.4</ele>
        <time>2020-01-31T15:43:28Z</time>
      </trkpt>
      <trkpt lat="45.28828" lon="5.78536">
        <ele>1940.8</ele>
        <time>2020-01-31T15:43:29Z</time>
      </trkpt>
      <trkpt lat="45.28828" lon="5.78536">
        <ele>1941.2</ele>
        <time>2020-01-31T15:43:30Z</time>
      </trkpt>
      <trkpt lat="45.28828" lon="5.78536">
        <ele>1941.4</ele>
        <time>2020-01-31T15:43:31Z</time>
      </trkpt>
      <trkpt lat="45.28827" lon="5.78539">
        <ele>1941.2</ele>
        <time>2020-01-31T15:43:32Z</time>
      </trkpt>
      <trkpt lat="45.28827" lon="5.78539">
        <ele>1941</ele>
        <time>2020-01-31T15:43:33Z</time>
      </trkpt>
      <trkpt lat="45.28827" lon="5.78539">
        <ele>1941</ele>
        <time>2020-01-31T15:43:34Z</time>
      </trkpt>
      <trkpt lat="45.28827" lon="5.78539">
        <ele>1941.2</ele>
        <time>2020-01-31T15:43:35Z</time>
      </trkpt>
      <trkpt lat="45.28827" lon="5.78539">
        <ele>1941.2</ele>
        <time>2020-01-31T15:43:36Z</time>
      </trkpt>
      <trkpt lat="45.28827" lon="5.78542">
        <ele>1941.2</ele>
        <time>2020-01-31T15:43:37Z</time>
      </trkpt>
      <trkpt lat="45.28827" lon="5.78542">
        <ele>1941.2</ele>
        <time>2020-01-31T15:43:38Z</time>
      </trkpt>
      <trkpt lat="45.28827" lon="5.78542">
        <ele>1941.2</ele>
        <time>2020-01-31T15:43:39Z</time>
      </trkpt>
      <trkpt lat="45.28827" lon="5.78542">
        <ele>1941.2</ele>
        <time>2020-01-31T15:43:40Z</time>
      </trkpt>
      <trkpt lat="45.28827" lon="5.78542">
        <ele>1941.4</ele>
        <time>2020-01-31T15:43:41Z</time>
      </trkpt>
      <trkpt lat="45.28827" lon="5.78542">
        <ele>1941.4</ele>
        <time>2020-01-31T15:43:42Z</time>
      </trkpt>
      <trkpt lat="45.28827" lon="5.78542">
        <ele>1941.8</ele>
        <time>2020-01-31T15:43:43Z</time>
      </trkpt>
      <trkpt lat="45.28827" lon="5.78542">
        <ele>1941.8</ele>
        <time>2020-01-31T15:43:44Z</time>
      </trkpt>
      <trkpt lat="45.28827" lon="5.78542">
        <ele>1942</ele>
        <time>2020-01-31T15:43:45Z</time>
      </trkpt>
      <trkpt lat="45.28827" lon="5.78542">
        <ele>1942.2</ele>
        <time>2020-01-31T15:43:46Z</time>
      </trkpt>
      <trkpt lat="45.28827" lon="5.78542">
        <ele>1942.2</ele>
        <time>2020-01-31T15:43:47Z</time>
      </trkpt>
      <trkpt lat="45.28827" lon="5.78542">
        <ele>1942</ele>
        <time>2020-01-31T15:43:48Z</time>
      </trkpt>
      <trkpt lat="45.28827" lon="5.78542">
        <ele>1941.8</ele>
        <time>2020-01-31T15:43:49Z</time>
      </trkpt>
      <trkpt lat="45.28827" lon="5.78542">
        <ele>1941.6</ele>
        <time>2020-01-31T15:43:50Z</time>
      </trkpt>
      <trkpt lat="45.28827" lon="5.78542">
        <ele>1941.6</ele>
        <time>2020-01-31T15:43:51Z</time>
      </trkpt>
      <trkpt lat="45.28827" lon="5.78542">
        <ele>1941.4</ele>
        <time>2020-01-31T15:43:52Z</time>
      </trkpt>
      <trkpt lat="45.28827" lon="5.78542">
        <ele>1941.4</ele>
        <time>2020-01-31T15:43:53Z</time>
      </trkpt>
      <trkpt lat="45.28827" lon="5.78542">
        <ele>1941.6</ele>
        <time>2020-01-31T15:43:54Z</time>
      </trkpt>
      <trkpt lat="45.28827" lon="5.78542">
        <ele>1941.6</ele>
        <time>2020-01-31T15:43:55Z</time>
      </trkpt>
      <trkpt lat="45.28827" lon="5.78542">
        <ele>1941.8</ele>
        <time>2020-01-31T15:43:56Z</time>
      </trkpt>
      <trkpt lat="45.28827" lon="5.78542">
        <ele>1941.6</ele>
        <time>2020-01-31T15:43:57Z</time>
      </trkpt>
      <trkpt lat="45.28827" lon="5.78542">
        <ele>1941.6</ele>
        <time>2020-01-31T15:43:58Z</time>
      </trkpt>
      <trkpt lat="45.28827" lon="5.78542">
        <ele>1941.8</ele>
        <time>2020-01-31T15:43:59Z</time>
      </trkpt>
      <trkpt lat="45.28827" lon="5.78542">
        <ele>1941.8</ele>
        <time>2020-01-31T15:44:00Z</time>
      </trkpt>
      <trkpt lat="45.28827" lon="5.78542">
        <ele>1941.8</ele>
        <time>2020-01-31T15:44:01Z</time>
      </trkpt>
      <trkpt lat="45.28827" lon="5.78542">
        <ele>1941.6</ele>
        <time>2020-01-31T15:44:02Z</time>
      </trkpt>
      <trkpt lat="45.28827" lon="5.78542">
        <ele>1941.6</ele>
        <time>2020-01-31T15:44:03Z</time>
      </trkpt>
      <trkpt lat="45.28827" lon="5.78542">
        <ele>1941.6</ele>
        <time>2020-01-31T15:44:04Z</time>
      </trkpt>
      <trkpt lat="45.28827" lon="5.78542">
        <ele>1941.6</ele>
        <time>2020-01-31T15:44:05Z</time>
      </trkpt>
      <trkpt lat="45.28827" lon="5.78542">
        <ele>1941.6</ele>
        <time>2020-01-31T15:44:06Z</time>
      </trkpt>
      <trkpt lat="45.28827" lon="5.78542">
        <ele>1941.6</ele>
        <time>2020-01-31T15:44:07Z</time>
      </trkpt>
      <trkpt lat="45.28827" lon="5.78542">
        <ele>1941.8</ele>
        <time>2020-01-31T15:44:08Z</time>
      </trkpt>
      <trkpt lat="45.28827" lon="5.78542">
        <ele>1942</ele>
        <time>2020-01-31T15:44:09Z</time>
      </trkpt>
      <trkpt lat="45.28827" lon="5.78542">
        <ele>1941.8</ele>
        <time>2020-01-31T15:44:10Z</time>
      </trkpt>
      <trkpt lat="45.28827" lon="5.78542">
        <ele>1941.8</ele>
        <time>2020-01-31T15:44:11Z</time>
      </trkpt>
      <trkpt lat="45.28827" lon="5.78542">
        <ele>1942</ele>
        <time>2020-01-31T15:44:12Z</time>
      </trkpt>
      <trkpt lat="45.28827" lon="5.78542">
        <ele>1942.4</ele>
        <time>2020-01-31T15:44:13Z</time>
      </trkpt>
      <trkpt lat="45.28827" lon="5.78542">
        <ele>1942.4</ele>
        <time>2020-01-31T15:44:14Z</time>
      </trkpt>
      <trkpt lat="45.28827" lon="5.78542">
        <ele>1942.6</ele>
        <time>2020-01-31T15:44:15Z</time>
      </trkpt>
      <trkpt lat="45.28827" lon="5.78542">
        <ele>1942.4</ele>
        <time>2020-01-31T15:44:16Z</time>
      </trkpt>
      <trkpt lat="45.28827" lon="5.78542">
        <ele>1942.6</ele>
        <time>2020-01-31T15:44:17Z</time>
      </trkpt>
      <trkpt lat="45.28827" lon="5.78542">
        <ele>1942.4</ele>
        <time>2020-01-31T15:44:18Z</time>
      </trkpt>
      <trkpt lat="45.28827" lon="5.78542">
        <ele>1942.2</ele>
        <time>2020-01-31T15:44:19Z</time>
      </trkpt>
      <trkpt lat="45.28827" lon="5.78542">
        <ele>1942.2</ele>
        <time>2020-01-31T15:44:20Z</time>
      </trkpt>
      <trkpt lat="45.28828" lon="5.7854">
        <ele>1941.8</ele>
        <time>2020-01-31T15:44:21Z</time>
      </trkpt>
      <trkpt lat="45.28828" lon="5.7854">
        <ele>1941.8</ele>
        <time>2020-01-31T15:44:22Z</time>
      </trkpt>
      <trkpt lat="45.28828" lon="5.7854">
        <ele>1941.6</ele>
        <time>2020-01-31T15:44:23Z</time>
      </trkpt>
      <trkpt lat="45.28828" lon="5.7854">
        <ele>1941.6</ele>
        <time>2020-01-31T15:44:24Z</time>
      </trkpt>
      <trkpt lat="45.28828" lon="5.7854">
        <ele>1941.8</ele>
        <time>2020-01-31T15:44:25Z</time>
      </trkpt>
      <trkpt lat="45.28828" lon="5.7854">
        <ele>1941.8</ele>
        <time>2020-01-31T15:44:26Z</time>
      </trkpt>
      <trkpt lat="45.28828" lon="5.7854">
        <ele>1941.8</ele>
        <time>2020-01-31T15:44:27Z</time>
      </trkpt>
      <trkpt lat="45.28828" lon="5.7854">
        <ele>1941.8</ele>
        <time>2020-01-31T15:44:28Z</time>
      </trkpt>
      <trkpt lat="45.28828" lon="5.7854">
        <ele>1941.8</ele>
        <time>2020-01-31T15:44:29Z</time>
      </trkpt>
      <trkpt lat="45.28828" lon="5.7854">
        <ele>1941.4</ele>
        <time>2020-01-31T15:44:30Z</time>
      </trkpt>
      <trkpt lat="45.28828" lon="5.7854">
        <ele>1941.8</ele>
        <time>2020-01-31T15:44:31Z</time>
      </trkpt>
      <trkpt lat="45.28828" lon="5.7854">
        <ele>1942.2</ele>
        <time>2020-01-31T15:44:32Z</time>
      </trkpt>
      <trkpt lat="45.28828" lon="5.7854">
        <ele>1942.2</ele>
        <time>2020-01-31T15:44:33Z</time>
      </trkpt>
      <trkpt lat="45.28828" lon="5.7854">
        <ele>1942.4</ele>
        <time>2020-01-31T15:44:34Z</time>
      </trkpt>
      <trkpt lat="45.28828" lon="5.7854">
        <ele>1942.2</ele>
        <time>2020-01-31T15:44:35Z</time>
      </trkpt>
      <trkpt lat="45.28829" lon="5.78542">
        <ele>1942.4</ele>
        <time>2020-01-31T15:44:36Z</time>
      </trkpt>
      <trkpt lat="45.28829" lon="5.78542">
        <ele>1942.8</ele>
        <time>2020-01-31T15:44:37Z</time>
      </trkpt>
      <trkpt lat="45.28829" lon="5.78542">
        <ele>1943.2</ele>
        <time>2020-01-31T15:44:38Z</time>
      </trkpt>
      <trkpt lat="45.28829" lon="5.78542">
        <ele>1943.2</ele>
        <time>2020-01-31T15:44:39Z</time>
      </trkpt>
      <trkpt lat="45.28829" lon="5.78542">
        <ele>1943.2</ele>
        <time>2020-01-31T15:44:40Z</time>
      </trkpt>
      <trkpt lat="45.28829" lon="5.78542">
        <ele>1943.6</ele>
        <time>2020-01-31T15:44:41Z</time>
      </trkpt>
      <trkpt lat="45.28829" lon="5.78542">
        <ele>1944</ele>
        <time>2020-01-31T15:44:42Z</time>
      </trkpt>
      <trkpt lat="45.28829" lon="5.78542">
        <ele>1944.2</ele>
        <time>2020-01-31T15:44:43Z</time>
      </trkpt>
      <trkpt lat="45.28829" lon="5.78542">
        <ele>1944.4</ele>
        <time>2020-01-31T15:44:44Z</time>
      </trkpt>
      <trkpt lat="45.2883" lon="5.78545">
        <ele>1944.2</ele>
        <time>2020-01-31T15:44:45Z</time>
      </trkpt>
      <trkpt lat="45.2883" lon="5.78545">
        <ele>1944.8</ele>
        <time>2020-01-31T15:44:46Z</time>
      </trkpt>
      <trkpt lat="45.2883" lon="5.78545">
        <ele>1944.8</ele>
        <time>2020-01-31T15:44:47Z</time>
      </trkpt>
      <trkpt lat="45.2883" lon="5.78545">
        <ele>1944.8</ele>
        <time>2020-01-31T15:44:48Z</time>
      </trkpt>
      <trkpt lat="45.2883" lon="5.78545">
        <ele>1945.2</ele>
        <time>2020-01-31T15:44:49Z</time>
      </trkpt>
      <trkpt lat="45.2883" lon="5.78545">
        <ele>1945.4</ele>
        <time>2020-01-31T15:44:50Z</time>
      </trkpt>
      <trkpt lat="45.2883" lon="5.78545">
        <ele>1945.6</ele>
        <time>2020-01-31T15:44:51Z</time>
      </trkpt>
      <trkpt lat="45.2883" lon="5.78545">
        <ele>1945.6</ele>
        <time>2020-01-31T15:44:52Z</time>
      </trkpt>
      <trkpt lat="45.28832" lon="5.78546">
        <ele>1945.8</ele>
        <time>2020-01-31T15:44:53Z</time>
      </trkpt>
      <trkpt lat="45.28832" lon="5.78546">
        <ele>1946</ele>
        <time>2020-01-31T15:44:54Z</time>
      </trkpt>
      <trkpt lat="45.28832" lon="5.78546">
        <ele>1946</ele>
        <time>2020-01-31T15:44:55Z</time>
      </trkpt>
      <trkpt lat="45.28832" lon="5.78546">
        <ele>1946.2</ele>
        <time>2020-01-31T15:44:56Z</time>
      </trkpt>
      <trkpt lat="45.28832" lon="5.78546">
        <ele>1946</ele>
        <time>2020-01-31T15:44:57Z</time>
      </trkpt>
      <trkpt lat="45.28832" lon="5.78546">
        <ele>1946</ele>
        <time>2020-01-31T15:44:58Z</time>
      </trkpt>
      <trkpt lat="45.28832" lon="5.78546">
        <ele>1945.6</ele>
        <time>2020-01-31T15:44:59Z</time>
      </trkpt>
      <trkpt lat="45.28832" lon="5.78546">
        <ele>1945.8</ele>
        <time>2020-01-31T15:45:00Z</time>
      </trkpt>
      <trkpt lat="45.28832" lon="5.78546">
        <ele>1946.2</ele>
        <time>2020-01-31T15:45:01Z</time>
      </trkpt>
      <trkpt lat="45.28832" lon="5.78549">
        <ele>1946.2</ele>
        <time>2020-01-31T15:45:02Z</time>
      </trkpt>
      <trkpt lat="45.28832" lon="5.78549">
        <ele>1946.4</ele>
        <time>2020-01-31T15:45:03Z</time>
      </trkpt>
      <trkpt lat="45.28832" lon="5.78549">
        <ele>1946.8</ele>
        <time>2020-01-31T15:45:04Z</time>
      </trkpt>
      <trkpt lat="45.28832" lon="5.78549">
        <ele>1947</ele>
        <time>2020-01-31T15:45:05Z</time>
      </trkpt>
      <trkpt lat="45.28832" lon="5.78549">
        <ele>1947.4</ele>
        <time>2020-01-31T15:45:06Z</time>
      </trkpt>
      <trkpt lat="45.28832" lon="5.78549">
        <ele>1947.6</ele>
        <time>2020-01-31T15:45:07Z</time>
      </trkpt>
      <trkpt lat="45.28833" lon="5.78552">
        <ele>1947.8</ele>
        <time>2020-01-31T15:45:08Z</time>
      </trkpt>
      <trkpt lat="45.28833" lon="5.78552">
        <ele>1947.6</ele>
        <time>2020-01-31T15:45:09Z</time>
      </trkpt>
      <trkpt lat="45.28833" lon="5.78552">
        <ele>1948</ele>
        <time>2020-01-31T15:45:10Z</time>
      </trkpt>
      <trkpt lat="45.28833" lon="5.78552">
        <ele>1948</ele>
        <time>2020-01-31T15:45:11Z</time>
      </trkpt>
      <trkpt lat="45.28833" lon="5.78552">
        <ele>1947.8</ele>
        <time>2020-01-31T15:45:12Z</time>
      </trkpt>
      <trkpt lat="45.28833" lon="5.78555">
        <ele>1948.6</ele>
        <time>2020-01-31T15:45:13Z</time>
      </trkpt>
      <trkpt lat="45.28833" lon="5.78555">
        <ele>1949</ele>
        <time>2020-01-31T15:45:14Z</time>
      </trkpt>
      <trkpt lat="45.28833" lon="5.78555">
        <ele>1949.2</ele>
        <time>2020-01-31T15:45:15Z</time>
      </trkpt>
      <trkpt lat="45.28833" lon="5.78555">
        <ele>1949.4</ele>
        <time>2020-01-31T15:45:16Z</time>
      </trkpt>
      <trkpt lat="45.28833" lon="5.78555">
        <ele>1949.6</ele>
        <time>2020-01-31T15:45:17Z</time>
      </trkpt>
      <trkpt lat="45.28833" lon="5.78558">
        <ele>1949.6</ele>
        <time>2020-01-31T15:45:18Z</time>
      </trkpt>
      <trkpt lat="45.28833" lon="5.78558">
        <ele>1950.2</ele>
        <time>2020-01-31T15:45:19Z</time>
      </trkpt>
      <trkpt lat="45.28833" lon="5.78558">
        <ele>1950.6</ele>
        <time>2020-01-31T15:45:20Z</time>
      </trkpt>
      <trkpt lat="45.28833" lon="5.78558">
        <ele>1950.4</ele>
        <time>2020-01-31T15:45:21Z</time>
      </trkpt>
      <trkpt lat="45.28833" lon="5.78558">
        <ele>1950.4</ele>
        <time>2020-01-31T15:45:22Z</time>
      </trkpt>
      <trkpt lat="45.28834" lon="5.7856">
        <ele>1950.6</ele>
        <time>2020-01-31T15:45:23Z</time>
      </trkpt>
      <trkpt lat="45.28834" lon="5.7856">
        <ele>1950.8</ele>
        <time>2020-01-31T15:45:24Z</time>
      </trkpt>
      <trkpt lat="45.28834" lon="5.7856">
        <ele>1951</ele>
        <time>2020-01-31T15:45:25Z</time>
      </trkpt>
      <trkpt lat="45.28834" lon="5.7856">
        <ele>1951.4</ele>
        <time>2020-01-31T15:45:26Z</time>
      </trkpt>
      <trkpt lat="45.28834" lon="5.7856">
        <ele>1951.8</ele>
        <time>2020-01-31T15:45:27Z</time>
      </trkpt>
      <trkpt lat="45.28834" lon="5.7856">
        <ele>1951.8</ele>
        <time>2020-01-31T15:45:28Z</time>
      </trkpt>
      <trkpt lat="45.28833" lon="5.78564">
        <ele>1951.8</ele>
        <time>2020-01-31T15:45:29Z</time>
      </trkpt>
      <trkpt lat="45.28833" lon="5.78564">
        <ele>1952</ele>
        <time>2020-01-31T15:45:30Z</time>
      </trkpt>
      <trkpt lat="45.28833" lon="5.78564">
        <ele>1952.4</ele>
        <time>2020-01-31T15:45:31Z</time>
      </trkpt>
      <trkpt lat="45.28833" lon="5.78564">
        <ele>1952.4</ele>
        <time>2020-01-31T15:45:32Z</time>
      </trkpt>
      <trkpt lat="45.28833" lon="5.78564">
        <ele>1952.8</ele>
        <time>2020-01-31T15:45:33Z</time>
      </trkpt>
      <trkpt lat="45.28832" lon="5.78565">
        <ele>1953.2</ele>
        <time>2020-01-31T15:45:34Z</time>
      </trkpt>
      <trkpt lat="45.28832" lon="5.78565">
        <ele>1953.8</ele>
        <time>2020-01-31T15:45:35Z</time>
      </trkpt>
      <trkpt lat="45.28832" lon="5.78565">
        <ele>1954.2</ele>
        <time>2020-01-31T15:45:36Z</time>
      </trkpt>
      <trkpt lat="45.28832" lon="5.78565">
        <ele>1954.4</ele>
        <time>2020-01-31T15:45:37Z</time>
      </trkpt>
      <trkpt lat="45.28832" lon="5.78565">
        <ele>1954.4</ele>
        <time>2020-01-31T15:45:38Z</time>
      </trkpt>
      <trkpt lat="45.28832" lon="5.78565">
        <ele>1954.6</ele>
        <time>2020-01-31T15:45:39Z</time>
      </trkpt>
      <trkpt lat="45.28832" lon="5.78565">
        <ele>1954.8</ele>
        <time>2020-01-31T15:45:40Z</time>
      </trkpt>
      <trkpt lat="45.28832" lon="5.78565">
        <ele>1954.8</ele>
        <time>2020-01-31T15:45:41Z</time>
      </trkpt>
      <trkpt lat="45.2883" lon="5.78566">
        <ele>1955.2</ele>
        <time>2020-01-31T15:45:42Z</time>
      </trkpt>
      <trkpt lat="45.2883" lon="5.78566">
        <ele>1955.4</ele>
        <time>2020-01-31T15:45:43Z</time>
      </trkpt>
      <trkpt lat="45.2883" lon="5.78566">
        <ele>1955.6</ele>
        <time>2020-01-31T15:45:44Z</time>
      </trkpt>
      <trkpt lat="45.2883" lon="5.78566">
        <ele>1956</ele>
        <time>2020-01-31T15:45:45Z</time>
      </trkpt>
      <trkpt lat="45.2883" lon="5.78566">
        <ele>1956</ele>
        <time>2020-01-31T15:45:46Z</time>
      </trkpt>
      <trkpt lat="45.2883" lon="5.78566">
        <ele>1955.8</ele>
        <time>2020-01-31T15:45:47Z</time>
      </trkpt>
      <trkpt lat="45.2883" lon="5.78566">
        <ele>1955.8</ele>
        <time>2020-01-31T15:45:48Z</time>
      </trkpt>
      <trkpt lat="45.28829" lon="5.78569">
        <ele>1956</ele>
        <time>2020-01-31T15:45:49Z</time>
      </trkpt>
      <trkpt lat="45.28829" lon="5.78569">
        <ele>1956.2</ele>
        <time>2020-01-31T15:45:50Z</time>
      </trkpt>
      <trkpt lat="45.28829" lon="5.78569">
        <ele>1956.2</ele>
        <time>2020-01-31T15:45:51Z</time>
      </trkpt>
      <trkpt lat="45.28829" lon="5.78569">
        <ele>1956.2</ele>
        <time>2020-01-31T15:45:52Z</time>
      </trkpt>
      <trkpt lat="45.2883" lon="5.78572">
        <ele>1956.4</ele>
        <time>2020-01-31T15:45:53Z</time>
      </trkpt>
      <trkpt lat="45.2883" lon="5.78572">
        <ele>1956.8</ele>
        <time>2020-01-31T15:45:54Z</time>
      </trkpt>
      <trkpt lat="45.2883" lon="5.78572">
        <ele>1957</ele>
        <time>2020-01-31T15:45:55Z</time>
      </trkpt>
      <trkpt lat="45.2883" lon="5.78572">
        <ele>1957</ele>
        <time>2020-01-31T15:45:56Z</time>
      </trkpt>
      <trkpt lat="45.2883" lon="5.78575">
        <ele>1957.8</ele>
        <time>2020-01-31T15:45:57Z</time>
      </trkpt>
      <trkpt lat="45.2883" lon="5.78575">
        <ele>1958.2</ele>
        <time>2020-01-31T15:45:58Z</time>
      </trkpt>
      <trkpt lat="45.2883" lon="5.78575">
        <ele>1958.2</ele>
        <time>2020-01-31T15:45:59Z</time>
      </trkpt>
      <trkpt lat="45.2883" lon="5.78575">
        <ele>1958.4</ele>
        <time>2020-01-31T15:46:00Z</time>
      </trkpt>
      <trkpt lat="45.2883" lon="5.78575">
        <ele>1958.6</ele>
        <time>2020-01-31T15:46:01Z</time>
      </trkpt>
      <trkpt lat="45.2883" lon="5.78575">
        <ele>1958.8</ele>
        <time>2020-01-31T15:46:02Z</time>
      </trkpt>
      <trkpt lat="45.2883" lon="5.78578">
        <ele>1958.8</ele>
        <time>2020-01-31T15:46:03Z</time>
      </trkpt>
      <trkpt lat="45.2883" lon="5.78578">
        <ele>1959</ele>
        <time>2020-01-31T15:46:04Z</time>
      </trkpt>
      <trkpt lat="45.2883" lon="5.78578">
        <ele>1958.8</ele>
        <time>2020-01-31T15:46:05Z</time>
      </trkpt>
      <trkpt lat="45.2883" lon="5.78578">
        <ele>1958.8</ele>
        <time>2020-01-31T15:46:06Z</time>
      </trkpt>
      <trkpt lat="45.28831" lon="5.7858">
        <ele>1959</ele>
        <time>2020-01-31T15:46:07Z</time>
      </trkpt>
      <trkpt lat="45.28831" lon="5.7858">
        <ele>1959.4</ele>
        <time>2020-01-31T15:46:08Z</time>
      </trkpt>
      <trkpt lat="45.28831" lon="5.7858">
        <ele>1959.6</ele>
        <time>2020-01-31T15:46:09Z</time>
      </trkpt>
      <trkpt lat="45.28831" lon="5.7858">
        <ele>1959.8</ele>
        <time>2020-01-31T15:46:10Z</time>
      </trkpt>
      <trkpt lat="45.28832" lon="5.78583">
        <ele>1959.6</ele>
        <time>2020-01-31T15:46:11Z</time>
      </trkpt>
      <trkpt lat="45.28832" lon="5.78583">
        <ele>1960.4</ele>
        <time>2020-01-31T15:46:12Z</time>
      </trkpt>
      <trkpt lat="45.28832" lon="5.78583">
        <ele>1960.6</ele>
        <time>2020-01-31T15:46:13Z</time>
      </trkpt>
      <trkpt lat="45.28832" lon="5.78583">
        <ele>1961</ele>
        <time>2020-01-31T15:46:14Z</time>
      </trkpt>
      <trkpt lat="45.28832" lon="5.78583">
        <ele>1960.8</ele>
        <time>2020-01-31T15:46:15Z</time>
      </trkpt>
      <trkpt lat="45.28832" lon="5.78586">
        <ele>1961</ele>
        <time>2020-01-31T15:46:16Z</time>
      </trkpt>
      <trkpt lat="45.28832" lon="5.78586">
        <ele>1961.4</ele>
        <time>2020-01-31T15:46:17Z</time>
      </trkpt>
      <trkpt lat="45.28832" lon="5.78586">
        <ele>1961.4</ele>
        <time>2020-01-31T15:46:18Z</time>
      </trkpt>
      <trkpt lat="45.28832" lon="5.78586">
        <ele>1961.8</ele>
        <time>2020-01-31T15:46:19Z</time>
      </trkpt>
      <trkpt lat="45.28833" lon="5.78588">
        <ele>1962.2</ele>
        <time>2020-01-31T15:46:20Z</time>
      </trkpt>
      <trkpt lat="45.28833" lon="5.78588">
        <ele>1962.2</ele>
        <time>2020-01-31T15:46:21Z</time>
      </trkpt>
      <trkpt lat="45.28833" lon="5.78588">
        <ele>1962.2</ele>
        <time>2020-01-31T15:46:22Z</time>
      </trkpt>
      <trkpt lat="45.28833" lon="5.78588">
        <ele>1962.6</ele>
        <time>2020-01-31T15:46:23Z</time>
      </trkpt>
      <trkpt lat="45.28833" lon="5.78591">
        <ele>1962.8</ele>
        <time>2020-01-31T15:46:24Z</time>
      </trkpt>
      <trkpt lat="45.28833" lon="5.78591">
        <ele>1963.2</ele>
        <time>2020-01-31T15:46:25Z</time>
      </trkpt>
      <trkpt lat="45.28833" lon="5.78591">
        <ele>1963.6</ele>
        <time>2020-01-31T15:46:26Z</time>
      </trkpt>
      <trkpt lat="45.28833" lon="5.78591">
        <ele>1964.2</ele>
        <time>2020-01-31T15:46:27Z</time>
      </trkpt>
      <trkpt lat="45.28833" lon="5.78591">
        <ele>1964.8</ele>
        <time>2020-01-31T15:46:28Z</time>
      </trkpt>
      <trkpt lat="45.28831" lon="5.78592">
        <ele>1965.2</ele>
        <time>2020-01-31T15:46:29Z</time>
      </trkpt>
      <trkpt lat="45.28831" lon="5.78592">
        <ele>1965.2</ele>
        <time>2020-01-31T15:46:30Z</time>
      </trkpt>
      <trkpt lat="45.28831" lon="5.78592">
        <ele>1965.2</ele>
        <time>2020-01-31T15:46:31Z</time>
      </trkpt>
      <trkpt lat="45.28831" lon="5.78592">
        <ele>1965.8</ele>
        <time>2020-01-31T15:46:32Z</time>
      </trkpt>
      <trkpt lat="45.28831" lon="5.78592">
        <ele>1966</ele>
        <time>2020-01-31T15:46:33Z</time>
      </trkpt>
      <trkpt lat="45.28829" lon="5.78592">
        <ele>1965.8</ele>
        <time>2020-01-31T15:46:34Z</time>
      </trkpt>
      <trkpt lat="45.28829" lon="5.78592">
        <ele>1965.8</ele>
        <time>2020-01-31T15:46:35Z</time>
      </trkpt>
      <trkpt lat="45.28829" lon="5.78592">
        <ele>1966.2</ele>
        <time>2020-01-31T15:46:36Z</time>
      </trkpt>
      <trkpt lat="45.28829" lon="5.78592">
        <ele>1966.6</ele>
        <time>2020-01-31T15:46:37Z</time>
      </trkpt>
      <trkpt lat="45.28827" lon="5.78592">
        <ele>1966.8</ele>
        <time>2020-01-31T15:46:38Z</time>
      </trkpt>
      <trkpt lat="45.28827" lon="5.78592">
        <ele>1966.4</ele>
        <time>2020-01-31T15:46:39Z</time>
      </trkpt>
      <trkpt lat="45.28827" lon="5.78592">
        <ele>1966.4</ele>
        <time>2020-01-31T15:46:40Z</time>
      </trkpt>
      <trkpt lat="45.28827" lon="5.78592">
        <ele>1966.4</ele>
        <time>2020-01-31T15:46:41Z</time>
      </trkpt>
      <trkpt lat="45.28827" lon="5.78592">
        <ele>1966.6</ele>
        <time>2020-01-31T15:46:42Z</time>
      </trkpt>
      <trkpt lat="45.28825" lon="5.78592">
        <ele>1967.2</ele>
        <time>2020-01-31T15:46:43Z</time>
      </trkpt>
      <trkpt lat="45.28825" lon="5.78592">
        <ele>1967.4</ele>
        <time>2020-01-31T15:46:44Z</time>
      </trkpt>
      <trkpt lat="45.28825" lon="5.78592">
        <ele>1967.6</ele>
        <time>2020-01-31T15:46:45Z</time>
      </trkpt>
      <trkpt lat="45.28825" lon="5.78592">
        <ele>1967.4</ele>
        <time>2020-01-31T15:46:46Z</time>
      </trkpt>
      <trkpt lat="45.28825" lon="5.78592">
        <ele>1967.4</ele>
        <time>2020-01-31T15:46:47Z</time>
      </trkpt>
      <trkpt lat="45.28825" lon="5.78592">
        <ele>1967.2</ele>
        <time>2020-01-31T15:46:48Z</time>
      </trkpt>
      <trkpt lat="45.28823" lon="5.78592">
        <ele>1967.4</ele>
        <time>2020-01-31T15:46:49Z</time>
      </trkpt>
      <trkpt lat="45.28823" lon="5.78592">
        <ele>1967.4</ele>
        <time>2020-01-31T15:46:50Z</time>
      </trkpt>
      <trkpt lat="45.28823" lon="5.78592">
        <ele>1967.8</ele>
        <time>2020-01-31T15:46:51Z</time>
      </trkpt>
      <trkpt lat="45.28823" lon="5.78592">
        <ele>1968.4</ele>
        <time>2020-01-31T15:46:52Z</time>
      </trkpt>
      <trkpt lat="45.28822" lon="5.7859">
        <ele>1968.8</ele>
        <time>2020-01-31T15:46:53Z</time>
      </trkpt>
      <trkpt lat="45.28822" lon="5.7859">
        <ele>1969.2</ele>
        <time>2020-01-31T15:46:54Z</time>
      </trkpt>
      <trkpt lat="45.28822" lon="5.7859">
        <ele>1969.8</ele>
        <time>2020-01-31T15:46:55Z</time>
      </trkpt>
      <trkpt lat="45.28822" lon="5.7859">
        <ele>1970</ele>
        <time>2020-01-31T15:46:56Z</time>
      </trkpt>
      <trkpt lat="45.28822" lon="5.7859">
        <ele>1970.2</ele>
        <time>2020-01-31T15:46:57Z</time>
      </trkpt>
      <trkpt lat="45.2882" lon="5.7859">
        <ele>1970.4</ele>
        <time>2020-01-31T15:46:58Z</time>
      </trkpt>
      <trkpt lat="45.2882" lon="5.7859">
        <ele>1970.6</ele>
        <time>2020-01-31T15:46:59Z</time>
      </trkpt>
      <trkpt lat="45.2882" lon="5.7859">
        <ele>1970.6</ele>
        <time>2020-01-31T15:47:00Z</time>
      </trkpt>
      <trkpt lat="45.2882" lon="5.7859">
        <ele>1970.8</ele>
        <time>2020-01-31T15:47:01Z</time>
      </trkpt>
      <trkpt lat="45.28818" lon="5.78591">
        <ele>1971.4</ele>
        <time>2020-01-31T15:47:02Z</time>
      </trkpt>
      <trkpt lat="45.28818" lon="5.78591">
        <ele>1971.4</ele>
        <time>2020-01-31T15:47:03Z</time>
      </trkpt>
      <trkpt lat="45.28818" lon="5.78591">
        <ele>1971.4</ele>
        <time>2020-01-31T15:47:04Z</time>
      </trkpt>
      <trkpt lat="45.28818" lon="5.78591">
        <ele>1971.6</ele>
        <time>2020-01-31T15:47:05Z</time>
      </trkpt>
      <trkpt lat="45.28818" lon="5.78591">
        <ele>1971.8</ele>
        <time>2020-01-31T15:47:06Z</time>
      </trkpt>
      <trkpt lat="45.28816" lon="5.78591">
        <ele>1971.6</ele>
        <time>2020-01-31T15:47:07Z</time>
      </trkpt>
      <trkpt lat="45.28816" lon="5.78591">
        <ele>1971.8</ele>
        <time>2020-01-31T15:47:08Z</time>
      </trkpt>
      <trkpt lat="45.28816" lon="5.78591">
        <ele>1972</ele>
        <time>2020-01-31T15:47:09Z</time>
      </trkpt>
      <trkpt lat="45.28816" lon="5.78591">
        <ele>1972.2</ele>
        <time>2020-01-31T15:47:10Z</time>
      </trkpt>
      <trkpt lat="45.28816" lon="5.78591">
        <ele>1972.6</ele>
        <time>2020-01-31T15:47:11Z</time>
      </trkpt>
      <trkpt lat="45.28814" lon="5.7859">
        <ele>1972.8</ele>
        <time>2020-01-31T15:47:12Z</time>
      </trkpt>
      <trkpt lat="45.28814" lon="5.7859">
        <ele>1973</ele>
        <time>2020-01-31T15:47:13Z</time>
      </trkpt>
      <trkpt lat="45.28814" lon="5.7859">
        <ele>1973</ele>
        <time>2020-01-31T15:47:14Z</time>
      </trkpt>
      <trkpt lat="45.28814" lon="5.7859">
        <ele>1973.4</ele>
        <time>2020-01-31T15:47:15Z</time>
      </trkpt>
      <trkpt lat="45.28814" lon="5.7859">
        <ele>1973.4</ele>
        <time>2020-01-31T15:47:16Z</time>
      </trkpt>
      <trkpt lat="45.28814" lon="5.7859">
        <ele>1973.6</ele>
        <time>2020-01-31T15:47:17Z</time>
      </trkpt>
      <trkpt lat="45.28814" lon="5.7859">
        <ele>1973.6</ele>
        <time>2020-01-31T15:47:18Z</time>
      </trkpt>
      <trkpt lat="45.28814" lon="5.7859">
        <ele>1973.8</ele>
        <time>2020-01-31T15:47:19Z</time>
      </trkpt>
      <trkpt lat="45.28814" lon="5.7859">
        <ele>1973.8</ele>
        <time>2020-01-31T15:47:20Z</time>
      </trkpt>
      <trkpt lat="45.28814" lon="5.7859">
        <ele>1974</ele>
        <time>2020-01-31T15:47:21Z</time>
      </trkpt>
      <trkpt lat="45.28813" lon="5.78593">
        <ele>1973.8</ele>
        <time>2020-01-31T15:47:22Z</time>
      </trkpt>
      <trkpt lat="45.28813" lon="5.78593">
        <ele>1974</ele>
        <time>2020-01-31T15:47:23Z</time>
      </trkpt>
      <trkpt lat="45.28813" lon="5.78593">
        <ele>1974</ele>
        <time>2020-01-31T15:47:24Z</time>
      </trkpt>
      <trkpt lat="45.28813" lon="5.78593">
        <ele>1974</ele>
        <time>2020-01-31T15:47:25Z</time>
      </trkpt>
      <trkpt lat="45.28813" lon="5.78593">
        <ele>1973.8</ele>
        <time>2020-01-31T15:47:26Z</time>
      </trkpt>
      <trkpt lat="45.28814" lon="5.78596">
        <ele>1974.2</ele>
        <time>2020-01-31T15:47:27Z</time>
      </trkpt>
      <trkpt lat="45.28814" lon="5.78596">
        <ele>1974.4</ele>
        <time>2020-01-31T15:47:28Z</time>
      </trkpt>
      <trkpt lat="45.28814" lon="5.78596">
        <ele>1974.4</ele>
        <time>2020-01-31T15:47:29Z</time>
      </trkpt>
      <trkpt lat="45.28814" lon="5.78596">
        <ele>1974.8</ele>
        <time>2020-01-31T15:47:30Z</time>
      </trkpt>
      <trkpt lat="45.28814" lon="5.78596">
        <ele>1974.8</ele>
        <time>2020-01-31T15:47:31Z</time>
      </trkpt>
      <trkpt lat="45.28814" lon="5.78599">
        <ele>1975</ele>
        <time>2020-01-31T15:47:32Z</time>
      </trkpt>
      <trkpt lat="45.28814" lon="5.78599">
        <ele>1975.2</ele>
        <time>2020-01-31T15:47:33Z</time>
      </trkpt>
      <trkpt lat="45.28814" lon="5.78599">
        <ele>1975.6</ele>
        <time>2020-01-31T15:47:34Z</time>
      </trkpt>
      <trkpt lat="45.28814" lon="5.78599">
        <ele>1975.6</ele>
        <time>2020-01-31T15:47:35Z</time>
      </trkpt>
      <trkpt lat="45.28815" lon="5.78601">
        <ele>1975.6</ele>
        <time>2020-01-31T15:47:36Z</time>
      </trkpt>
      <trkpt lat="45.28815" lon="5.78601">
        <ele>1976</ele>
        <time>2020-01-31T15:47:37Z</time>
      </trkpt>
      <trkpt lat="45.28815" lon="5.78601">
        <ele>1976.2</ele>
        <time>2020-01-31T15:47:38Z</time>
      </trkpt>
      <trkpt lat="45.28815" lon="5.78601">
        <ele>1976</ele>
        <time>2020-01-31T15:47:39Z</time>
      </trkpt>
      <trkpt lat="45.28815" lon="5.78601">
        <ele>1976.4</ele>
        <time>2020-01-31T15:47:40Z</time>
      </trkpt>
      <trkpt lat="45.28815" lon="5.78604">
        <ele>1976.6</ele>
        <time>2020-01-31T15:47:41Z</time>
      </trkpt>
      <trkpt lat="45.28815" lon="5.78604">
        <ele>1976.6</ele>
        <time>2020-01-31T15:47:42Z</time>
      </trkpt>
      <trkpt lat="45.28815" lon="5.78604">
        <ele>1976.8</ele>
        <time>2020-01-31T15:47:43Z</time>
      </trkpt>
      <trkpt lat="45.28815" lon="5.78604">
        <ele>1976.8</ele>
        <time>2020-01-31T15:47:44Z</time>
      </trkpt>
      <trkpt lat="45.28817" lon="5.78607">
        <ele>1977.4</ele>
        <time>2020-01-31T15:47:45Z</time>
      </trkpt>
      <trkpt lat="45.28817" lon="5.78607">
        <ele>1977.4</ele>
        <time>2020-01-31T15:47:46Z</time>
      </trkpt>
      <trkpt lat="45.28817" lon="5.78607">
        <ele>1977.8</ele>
        <time>2020-01-31T15:47:47Z</time>
      </trkpt>
      <trkpt lat="45.28817" lon="5.78609">
        <ele>1977.8</ele>
        <time>2020-01-31T15:47:48Z</time>
      </trkpt>
      <trkpt lat="45.28817" lon="5.78609">
        <ele>1978</ele>
        <time>2020-01-31T15:47:49Z</time>
      </trkpt>
      <trkpt lat="45.28817" lon="5.78609">
        <ele>1978.6</ele>
        <time>2020-01-31T15:47:50Z</time>
      </trkpt>
      <trkpt lat="45.28817" lon="5.78609">
        <ele>1978.8</ele>
        <time>2020-01-31T15:47:51Z</time>
      </trkpt>
      <trkpt lat="45.28819" lon="5.78612">
        <ele>1978.8</ele>
        <time>2020-01-31T15:47:52Z</time>
      </trkpt>
      <trkpt lat="45.28819" lon="5.78612">
        <ele>1978.8</ele>
        <time>2020-01-31T15:47:53Z</time>
      </trkpt>
      <trkpt lat="45.28819" lon="5.78612">
        <ele>1979</ele>
        <time>2020-01-31T15:47:54Z</time>
      </trkpt>
      <trkpt lat="45.2882" lon="5.78614">
        <ele>1979.6</ele>
        <time>2020-01-31T15:47:55Z</time>
      </trkpt>
      <trkpt lat="45.2882" lon="5.78614">
        <ele>1979.6</ele>
        <time>2020-01-31T15:47:56Z</time>
      </trkpt>
      <trkpt lat="45.2882" lon="5.78614">
        <ele>1979.6</ele>
        <time>2020-01-31T15:47:57Z</time>
      </trkpt>
      <trkpt lat="45.2882" lon="5.78614">
        <ele>1980</ele>
        <time>2020-01-31T15:47:58Z</time>
      </trkpt>
      <trkpt lat="45.2882" lon="5.78616">
        <ele>1980.2</ele>
        <time>2020-01-31T15:47:59Z</time>
      </trkpt>
      <trkpt lat="45.2882" lon="5.78616">
        <ele>1980</ele>
        <time>2020-01-31T15:48:00Z</time>
      </trkpt>
      <trkpt lat="45.2882" lon="5.78616">
        <ele>1980.4</ele>
        <time>2020-01-31T15:48:01Z</time>
      </trkpt>
      <trkpt lat="45.2882" lon="5.78616">
        <ele>1980.4</ele>
        <time>2020-01-31T15:48:02Z</time>
      </trkpt>
      <trkpt lat="45.2882" lon="5.78619">
        <ele>1980.8</ele>
        <time>2020-01-31T15:48:03Z</time>
      </trkpt>
      <trkpt lat="45.2882" lon="5.78619">
        <ele>1981.2</ele>
        <time>2020-01-31T15:48:04Z</time>
      </trkpt>
      <trkpt lat="45.2882" lon="5.78619">
        <ele>1981.4</ele>
        <time>2020-01-31T15:48:05Z</time>
      </trkpt>
      <trkpt lat="45.2882" lon="5.78619">
        <ele>1982</ele>
        <time>2020-01-31T15:48:06Z</time>
      </trkpt>
      <trkpt lat="45.28818" lon="5.78619">
        <ele>1982.4</ele>
        <time>2020-01-31T15:48:07Z</time>
      </trkpt>
      <trkpt lat="45.28818" lon="5.78619">
        <ele>1982.8</ele>
        <time>2020-01-31T15:48:08Z</time>
      </trkpt>
      <trkpt lat="45.28818" lon="5.78619">
        <ele>1982.8</ele>
        <time>2020-01-31T15:48:09Z</time>
      </trkpt>
      <trkpt lat="45.28818" lon="5.78619">
        <ele>1982.8</ele>
        <time>2020-01-31T15:48:10Z</time>
      </trkpt>
      <trkpt lat="45.28818" lon="5.78619">
        <ele>1983.4</ele>
        <time>2020-01-31T15:48:11Z</time>
      </trkpt>
      <trkpt lat="45.28816" lon="5.78619">
        <ele>1983.6</ele>
        <time>2020-01-31T15:48:12Z</time>
      </trkpt>
      <trkpt lat="45.28816" lon="5.78619">
        <ele>1984</ele>
        <time>2020-01-31T15:48:13Z</time>
      </trkpt>
      <trkpt lat="45.28816" lon="5.78619">
        <ele>1984.2</ele>
        <time>2020-01-31T15:48:14Z</time>
      </trkpt>
      <trkpt lat="45.28816" lon="5.78619">
        <ele>1984.4</ele>
        <time>2020-01-31T15:48:15Z</time>
      </trkpt>
      <trkpt lat="45.28816" lon="5.78619">
        <ele>1984.4</ele>
        <time>2020-01-31T15:48:16Z</time>
      </trkpt>
      <trkpt lat="45.28816" lon="5.78619">
        <ele>1984.4</ele>
        <time>2020-01-31T15:48:17Z</time>
      </trkpt>
      <trkpt lat="45.28814" lon="5.7862">
        <ele>1984.2</ele>
        <time>2020-01-31T15:48:18Z</time>
      </trkpt>
      <trkpt lat="45.28814" lon="5.7862">
        <ele>1984.6</ele>
        <time>2020-01-31T15:48:19Z</time>
      </trkpt>
      <trkpt lat="45.28814" lon="5.7862">
        <ele>1984.8</ele>
        <time>2020-01-31T15:48:20Z</time>
      </trkpt>
      <trkpt lat="45.28812" lon="5.78621">
        <ele>1984.6</ele>
        <time>2020-01-31T15:48:21Z</time>
      </trkpt>
      <trkpt lat="45.28812" lon="5.78621">
        <ele>1985</ele>
        <time>2020-01-31T15:48:22Z</time>
      </trkpt>
      <trkpt lat="45.28812" lon="5.78621">
        <ele>1985.4</ele>
        <time>2020-01-31T15:48:23Z</time>
      </trkpt>
      <trkpt lat="45.2881" lon="5.78622">
        <ele>1985.6</ele>
        <time>2020-01-31T15:48:24Z</time>
      </trkpt>
      <trkpt lat="45.2881" lon="5.78622">
        <ele>1986</ele>
        <time>2020-01-31T15:48:25Z</time>
      </trkpt>
      <trkpt lat="45.2881" lon="5.78622">
        <ele>1986</ele>
        <time>2020-01-31T15:48:26Z</time>
      </trkpt>
      <trkpt lat="45.2881" lon="5.78622">
        <ele>1986.6</ele>
        <time>2020-01-31T15:48:27Z</time>
      </trkpt>
      <trkpt lat="45.2881" lon="5.78622">
        <ele>1986.6</ele>
        <time>2020-01-31T15:48:28Z</time>
      </trkpt>
      <trkpt lat="45.2881" lon="5.78622">
        <ele>1986.6</ele>
        <time>2020-01-31T15:48:29Z</time>
      </trkpt>
      <trkpt lat="45.2881" lon="5.78622">
        <ele>1986.8</ele>
        <time>2020-01-31T15:48:30Z</time>
      </trkpt>
      <trkpt lat="45.2881" lon="5.78622">
        <ele>1987</ele>
        <time>2020-01-31T15:48:31Z</time>
      </trkpt>
      <trkpt lat="45.28808" lon="5.78621">
        <ele>1987.2</ele>
        <time>2020-01-31T15:48:32Z</time>
      </trkpt>
      <trkpt lat="45.28808" lon="5.78621">
        <ele>1987.2</ele>
        <time>2020-01-31T15:48:33Z</time>
      </trkpt>
      <trkpt lat="45.28808" lon="5.78621">
        <ele>1987.2</ele>
        <time>2020-01-31T15:48:34Z</time>
      </trkpt>
      <trkpt lat="45.28808" lon="5.78621">
        <ele>1987.6</ele>
        <time>2020-01-31T15:48:35Z</time>
      </trkpt>
      <trkpt lat="45.28808" lon="5.78621">
        <ele>1987.8</ele>
        <time>2020-01-31T15:48:36Z</time>
      </trkpt>
      <trkpt lat="45.28806" lon="5.78621">
        <ele>1988</ele>
        <time>2020-01-31T15:48:37Z</time>
      </trkpt>
      <trkpt lat="45.28806" lon="5.78621">
        <ele>1987.8</ele>
        <time>2020-01-31T15:48:38Z</time>
      </trkpt>
      <trkpt lat="45.28806" lon="5.78621">
        <ele>1988</ele>
        <time>2020-01-31T15:48:39Z</time>
      </trkpt>
      <trkpt lat="45.28804" lon="5.78621">
        <ele>1988.2</ele>
        <time>2020-01-31T15:48:40Z</time>
      </trkpt>
      <trkpt lat="45.28804" lon="5.78621">
        <ele>1988.4</ele>
        <time>2020-01-31T15:48:41Z</time>
      </trkpt>
      <trkpt lat="45.28804" lon="5.78621">
        <ele>1988.2</ele>
        <time>2020-01-31T15:48:42Z</time>
      </trkpt>
      <trkpt lat="45.28802" lon="5.78622">
        <ele>1988.6</ele>
        <time>2020-01-31T15:48:43Z</time>
      </trkpt>
      <trkpt lat="45.28802" lon="5.78622">
        <ele>1988.8</ele>
        <time>2020-01-31T15:48:44Z</time>
      </trkpt>
      <trkpt lat="45.28802" lon="5.78622">
        <ele>1988.6</ele>
        <time>2020-01-31T15:48:45Z</time>
      </trkpt>
      <trkpt lat="45.28802" lon="5.78622">
        <ele>1989</ele>
        <time>2020-01-31T15:48:46Z</time>
      </trkpt>
      <trkpt lat="45.28802" lon="5.78622">
        <ele>1989.4</ele>
        <time>2020-01-31T15:48:47Z</time>
      </trkpt>
      <trkpt lat="45.288" lon="5.78623">
        <ele>1989.8</ele>
        <time>2020-01-31T15:48:48Z</time>
      </trkpt>
      <trkpt lat="45.288" lon="5.78623">
        <ele>1990</ele>
        <time>2020-01-31T15:48:49Z</time>
      </trkpt>
      <trkpt lat="45.288" lon="5.78623">
        <ele>1990.2</ele>
        <time>2020-01-31T15:48:50Z</time>
      </trkpt>
      <trkpt lat="45.288" lon="5.78623">
        <ele>1990.2</ele>
        <time>2020-01-31T15:48:51Z</time>
      </trkpt>
      <trkpt lat="45.288" lon="5.78623">
        <ele>1990.2</ele>
        <time>2020-01-31T15:48:52Z</time>
      </trkpt>
      <trkpt lat="45.28798" lon="5.78624">
        <ele>1990</ele>
        <time>2020-01-31T15:48:53Z</time>
      </trkpt>
      <trkpt lat="45.28798" lon="5.78624">
        <ele>1990.4</ele>
        <time>2020-01-31T15:48:54Z</time>
      </trkpt>
      <trkpt lat="45.28798" lon="5.78624">
        <ele>1990.8</ele>
        <time>2020-01-31T15:48:55Z</time>
      </trkpt>
      <trkpt lat="45.28798" lon="5.78624">
        <ele>1991</ele>
        <time>2020-01-31T15:48:56Z</time>
      </trkpt>
      <trkpt lat="45.28798" lon="5.78624">
        <ele>1991</ele>
        <time>2020-01-31T15:48:57Z</time>
      </trkpt>
      <trkpt lat="45.28796" lon="5.78625">
        <ele>1991.8</ele>
        <time>2020-01-31T15:48:58Z</time>
      </trkpt>
      <trkpt lat="45.28796" lon="5.78625">
        <ele>1991.8</ele>
        <time>2020-01-31T15:48:59Z</time>
      </trkpt>
      <trkpt lat="45.28796" lon="5.78625">
        <ele>1991.4</ele>
        <time>2020-01-31T15:49:00Z</time>
      </trkpt>
      <trkpt lat="45.28796" lon="5.78625">
        <ele>1991.6</ele>
        <time>2020-01-31T15:49:01Z</time>
      </trkpt>
      <trkpt lat="45.28794" lon="5.78626">
        <ele>1991.4</ele>
        <time>2020-01-31T15:49:02Z</time>
      </trkpt>
      <trkpt lat="45.28794" lon="5.78626">
        <ele>1991.4</ele>
        <time>2020-01-31T15:49:03Z</time>
      </trkpt>
      <trkpt lat="45.28794" lon="5.78626">
        <ele>1991.4</ele>
        <time>2020-01-31T15:49:04Z</time>
      </trkpt>
      <trkpt lat="45.28792" lon="5.78626">
        <ele>1991.6</ele>
        <time>2020-01-31T15:49:05Z</time>
      </trkpt>
      <trkpt lat="45.28792" lon="5.78626">
        <ele>1992.2</ele>
        <time>2020-01-31T15:49:06Z</time>
      </trkpt>
      <trkpt lat="45.28792" lon="5.78626">
        <ele>1992.4</ele>
        <time>2020-01-31T15:49:07Z</time>
      </trkpt>
      <trkpt lat="45.2879" lon="5.78625">
        <ele>1992.8</ele>
        <time>2020-01-31T15:49:08Z</time>
      </trkpt>
      <trkpt lat="45.2879" lon="5.78625">
        <ele>1993</ele>
        <time>2020-01-31T15:49:09Z</time>
      </trkpt>
      <trkpt lat="45.2879" lon="5.78625">
        <ele>1993.2</ele>
        <time>2020-01-31T15:49:10Z</time>
      </trkpt>
      <trkpt lat="45.28788" lon="5.78625">
        <ele>1993.4</ele>
        <time>2020-01-31T15:49:11Z</time>
      </trkpt>
      <trkpt lat="45.28788" lon="5.78625">
        <ele>1993.4</ele>
        <time>2020-01-31T15:49:12Z</time>
      </trkpt>
      <trkpt lat="45.28788" lon="5.78625">
        <ele>1993.6</ele>
        <time>2020-01-31T15:49:13Z</time>
      </trkpt>
      <trkpt lat="45.28788" lon="5.78625">
        <ele>1993.8</ele>
        <time>2020-01-31T15:49:14Z</time>
      </trkpt>
      <trkpt lat="45.28788" lon="5.78625">
        <ele>1994.2</ele>
        <time>2020-01-31T15:49:15Z</time>
      </trkpt>
      <trkpt lat="45.28788" lon="5.78625">
        <ele>1994.4</ele>
        <time>2020-01-31T15:49:16Z</time>
      </trkpt>
      <trkpt lat="45.28788" lon="5.78625">
        <ele>1994.6</ele>
        <time>2020-01-31T15:49:17Z</time>
      </trkpt>
      <trkpt lat="45.28786" lon="5.78626">
        <ele>1994.4</ele>
        <time>2020-01-31T15:49:18Z</time>
      </trkpt>
      <trkpt lat="45.28786" lon="5.78626">
        <ele>1994.2</ele>
        <time>2020-01-31T15:49:19Z</time>
      </trkpt>
      <trkpt lat="45.28786" lon="5.78626">
        <ele>1994.8</ele>
        <time>2020-01-31T15:49:20Z</time>
      </trkpt>
      <trkpt lat="45.28786" lon="5.78626">
        <ele>1995</ele>
        <time>2020-01-31T15:49:21Z</time>
      </trkpt>
      <trkpt lat="45.28786" lon="5.78626">
        <ele>1995</ele>
        <time>2020-01-31T15:49:22Z</time>
      </trkpt>
      <trkpt lat="45.28787" lon="5.78628">
        <ele>1995</ele>
        <time>2020-01-31T15:49:23Z</time>
      </trkpt>
      <trkpt lat="45.28787" lon="5.78628">
        <ele>1995.2</ele>
        <time>2020-01-31T15:49:24Z</time>
      </trkpt>
      <trkpt lat="45.28787" lon="5.78628">
        <ele>1995.2</ele>
        <time>2020-01-31T15:49:25Z</time>
      </trkpt>
      <trkpt lat="45.28788" lon="5.78631">
        <ele>1995.6</ele>
        <time>2020-01-31T15:49:26Z</time>
      </trkpt>
      <trkpt lat="45.28788" lon="5.78631">
        <ele>1995.6</ele>
        <time>2020-01-31T15:49:27Z</time>
      </trkpt>
      <trkpt lat="45.28788" lon="5.78631">
        <ele>1995.6</ele>
        <time>2020-01-31T15:49:28Z</time>
      </trkpt>
      <trkpt lat="45.28788" lon="5.78631">
        <ele>1996</ele>
        <time>2020-01-31T15:49:29Z</time>
      </trkpt>
      <trkpt lat="45.28788" lon="5.78631">
        <ele>1996</ele>
        <time>2020-01-31T15:49:30Z</time>
      </trkpt>
      <trkpt lat="45.28789" lon="5.78633">
        <ele>1996</ele>
        <time>2020-01-31T15:49:31Z</time>
      </trkpt>
      <trkpt lat="45.28789" lon="5.78633">
        <ele>1996.2</ele>
        <time>2020-01-31T15:49:32Z</time>
      </trkpt>
      <trkpt lat="45.28789" lon="5.78633">
        <ele>1996.2</ele>
        <time>2020-01-31T15:49:33Z</time>
      </trkpt>
      <trkpt lat="45.28789" lon="5.78633">
        <ele>1996.4</ele>
        <time>2020-01-31T15:49:34Z</time>
      </trkpt>
      <trkpt lat="45.28789" lon="5.78633">
        <ele>1996.8</ele>
        <time>2020-01-31T15:49:35Z</time>
      </trkpt>
      <trkpt lat="45.28791" lon="5.78634">
        <ele>1996.8</ele>
        <time>2020-01-31T15:49:36Z</time>
      </trkpt>
      <trkpt lat="45.28791" lon="5.78634">
        <ele>1997.4</ele>
        <time>2020-01-31T15:49:37Z</time>
      </trkpt>
      <trkpt lat="45.28791" lon="5.78634">
        <ele>1997.4</ele>
        <time>2020-01-31T15:49:38Z</time>
      </trkpt>
      <trkpt lat="45.28791" lon="5.78634">
        <ele>1997.6</ele>
        <time>2020-01-31T15:49:39Z</time>
      </trkpt>
      <trkpt lat="45.28791" lon="5.78634">
        <ele>1997.8</ele>
        <time>2020-01-31T15:49:40Z</time>
      </trkpt>
      <trkpt lat="45.28792" lon="5.78637">
        <ele>1997.8</ele>
        <time>2020-01-31T15:49:41Z</time>
      </trkpt>
      <trkpt lat="45.28792" lon="5.78637">
        <ele>1998</ele>
        <time>2020-01-31T15:49:42Z</time>
      </trkpt>
      <trkpt lat="45.28792" lon="5.78637">
        <ele>1998.4</ele>
        <time>2020-01-31T15:49:43Z</time>
      </trkpt>
      <trkpt lat="45.28792" lon="5.78637">
        <ele>1998.6</ele>
        <time>2020-01-31T15:49:44Z</time>
      </trkpt>
      <trkpt lat="45.28793" lon="5.7864">
        <ele>1998.6</ele>
        <time>2020-01-31T15:49:45Z</time>
      </trkpt>
      <trkpt lat="45.28793" lon="5.7864">
        <ele>1998.8</ele>
        <time>2020-01-31T15:49:46Z</time>
      </trkpt>
      <trkpt lat="45.28793" lon="5.7864">
        <ele>1999</ele>
        <time>2020-01-31T15:49:47Z</time>
      </trkpt>
      <trkpt lat="45.28793" lon="5.7864">
        <ele>1999.2</ele>
        <time>2020-01-31T15:49:48Z</time>
      </trkpt>
      <trkpt lat="45.28794" lon="5.78643">
        <ele>1999.6</ele>
        <time>2020-01-31T15:49:49Z</time>
      </trkpt>
      <trkpt lat="45.28794" lon="5.78643">
        <ele>2000</ele>
        <time>2020-01-31T15:49:50Z</time>
      </trkpt>
      <trkpt lat="45.28794" lon="5.78643">
        <ele>2000</ele>
        <time>2020-01-31T15:49:51Z</time>
      </trkpt>
      <trkpt lat="45.28794" lon="5.78643">
        <ele>2000</ele>
        <time>2020-01-31T15:49:52Z</time>
      </trkpt>
      <trkpt lat="45.28794" lon="5.78643">
        <ele>2000.4</ele>
        <time>2020-01-31T15:49:53Z</time>
      </trkpt>
      <trkpt lat="45.28795" lon="5.78646">
        <ele>2000.4</ele>
        <time>2020-01-31T15:49:54Z</time>
      </trkpt>
      <trkpt lat="45.28795" lon="5.78646">
        <ele>2000.6</ele>
        <time>2020-01-31T15:49:55Z</time>
      </trkpt>
      <trkpt lat="45.28795" lon="5.78646">
        <ele>2000.8</ele>
        <time>2020-01-31T15:49:56Z</time>
      </trkpt>
      <trkpt lat="45.28795" lon="5.78646">
        <ele>2000.8</ele>
        <time>2020-01-31T15:49:57Z</time>
      </trkpt>
      <trkpt lat="45.28795" lon="5.78646">
        <ele>2001.4</ele>
        <time>2020-01-31T15:49:58Z</time>
      </trkpt>
      <trkpt lat="45.28796" lon="5.78648">
        <ele>2001.4</ele>
        <time>2020-01-31T15:49:59Z</time>
      </trkpt>
      <trkpt lat="45.28796" lon="5.78648">
        <ele>2001.8</ele>
        <time>2020-01-31T15:50:00Z</time>
      </trkpt>
      <trkpt lat="45.28796" lon="5.78648">
        <ele>2002</ele>
        <time>2020-01-31T15:50:01Z</time>
      </trkpt>
      <trkpt lat="45.28796" lon="5.78648">
        <ele>2002</ele>
        <time>2020-01-31T15:50:02Z</time>
      </trkpt>
      <trkpt lat="45.28796" lon="5.78648">
        <ele>2002.2</ele>
        <time>2020-01-31T15:50:03Z</time>
      </trkpt>
      <trkpt lat="45.28797" lon="5.78651">
        <ele>2002.2</ele>
        <time>2020-01-31T15:50:04Z</time>
      </trkpt>
      <trkpt lat="45.28797" lon="5.78651">
        <ele>2002</ele>
        <time>2020-01-31T15:50:05Z</time>
      </trkpt>
      <trkpt lat="45.28797" lon="5.78651">
        <ele>2002.4</ele>
        <time>2020-01-31T15:50:06Z</time>
      </trkpt>
      <trkpt lat="45.28797" lon="5.78651">
        <ele>2002.4</ele>
        <time>2020-01-31T15:50:07Z</time>
      </trkpt>
      <trkpt lat="45.28799" lon="5.78654">
        <ele>2002.6</ele>
        <time>2020-01-31T15:50:08Z</time>
      </trkpt>
      <trkpt lat="45.28799" lon="5.78654">
        <ele>2002.4</ele>
        <time>2020-01-31T15:50:09Z</time>
      </trkpt>
      <trkpt lat="45.28799" lon="5.78654">
        <ele>2002.8</ele>
        <time>2020-01-31T15:50:10Z</time>
      </trkpt>
      <trkpt lat="45.28799" lon="5.78654">
        <ele>2003</ele>
        <time>2020-01-31T15:50:11Z</time>
      </trkpt>
      <trkpt lat="45.288" lon="5.78656">
        <ele>2003.4</ele>
        <time>2020-01-31T15:50:12Z</time>
      </trkpt>
      <trkpt lat="45.288" lon="5.78656">
        <ele>2003.6</ele>
        <time>2020-01-31T15:50:13Z</time>
      </trkpt>
      <trkpt lat="45.288" lon="5.78656">
        <ele>2003.8</ele>
        <time>2020-01-31T15:50:14Z</time>
      </trkpt>
      <trkpt lat="45.288" lon="5.78656">
        <ele>2004</ele>
        <time>2020-01-31T15:50:15Z</time>
      </trkpt>
      <trkpt lat="45.28802" lon="5.78658">
        <ele>2003.8</ele>
        <time>2020-01-31T15:50:16Z</time>
      </trkpt>
      <trkpt lat="45.28802" lon="5.78658">
        <ele>2004</ele>
        <time>2020-01-31T15:50:17Z</time>
      </trkpt>
      <trkpt lat="45.28802" lon="5.78658">
        <ele>2004.4</ele>
        <time>2020-01-31T15:50:18Z</time>
      </trkpt>
      <trkpt lat="45.28802" lon="5.78658">
        <ele>2004.4</ele>
        <time>2020-01-31T15:50:19Z</time>
      </trkpt>
      <trkpt lat="45.28803" lon="5.7866">
        <ele>2004.4</ele>
        <time>2020-01-31T15:50:20Z</time>
      </trkpt>
      <trkpt lat="45.28803" lon="5.7866">
        <ele>2005</ele>
        <time>2020-01-31T15:50:21Z</time>
      </trkpt>
      <trkpt lat="45.28803" lon="5.7866">
        <ele>2005</ele>
        <time>2020-01-31T15:50:22Z</time>
      </trkpt>
      <trkpt lat="45.28803" lon="5.7866">
        <ele>2004.8</ele>
        <time>2020-01-31T15:50:23Z</time>
      </trkpt>
      <trkpt lat="45.28804" lon="5.78662">
        <ele>2005.2</ele>
        <time>2020-01-31T15:50:24Z</time>
      </trkpt>
      <trkpt lat="45.28804" lon="5.78662">
        <ele>2005.6</ele>
        <time>2020-01-31T15:50:25Z</time>
      </trkpt>
      <trkpt lat="45.28804" lon="5.78662">
        <ele>2005.8</ele>
        <time>2020-01-31T15:50:26Z</time>
      </trkpt>
      <trkpt lat="45.28804" lon="5.78662">
        <ele>2006.2</ele>
        <time>2020-01-31T15:50:27Z</time>
      </trkpt>
      <trkpt lat="45.28805" lon="5.78665">
        <ele>2006.2</ele>
        <time>2020-01-31T15:50:28Z</time>
      </trkpt>
      <trkpt lat="45.28805" lon="5.78665">
        <ele>2006.2</ele>
        <time>2020-01-31T15:50:29Z</time>
      </trkpt>
      <trkpt lat="45.28805" lon="5.78665">
        <ele>2006.4</ele>
        <time>2020-01-31T15:50:30Z</time>
      </trkpt>
      <trkpt lat="45.28805" lon="5.78665">
        <ele>2006.6</ele>
        <time>2020-01-31T15:50:31Z</time>
      </trkpt>
      <trkpt lat="45.28806" lon="5.78667">
        <ele>2006.8</ele>
        <time>2020-01-31T15:50:32Z</time>
      </trkpt>
      <trkpt lat="45.28806" lon="5.78667">
        <ele>2007.2</ele>
        <time>2020-01-31T15:50:33Z</time>
      </trkpt>
      <trkpt lat="45.28806" lon="5.78667">
        <ele>2007.4</ele>
        <time>2020-01-31T15:50:34Z</time>
      </trkpt>
      <trkpt lat="45.28806" lon="5.78667">
        <ele>2007.4</ele>
        <time>2020-01-31T15:50:35Z</time>
      </trkpt>
      <trkpt lat="45.28806" lon="5.78667">
        <ele>2007.6</ele>
        <time>2020-01-31T15:50:36Z</time>
      </trkpt>
      <trkpt lat="45.28807" lon="5.7867">
        <ele>2007.6</ele>
        <time>2020-01-31T15:50:37Z</time>
      </trkpt>
      <trkpt lat="45.28807" lon="5.7867">
        <ele>2008</ele>
        <time>2020-01-31T15:50:38Z</time>
      </trkpt>
      <trkpt lat="45.28807" lon="5.7867">
        <ele>2008</ele>
        <time>2020-01-31T15:50:39Z</time>
      </trkpt>
      <trkpt lat="45.28807" lon="5.7867">
        <ele>2008</ele>
        <time>2020-01-31T15:50:40Z</time>
      </trkpt>
      <trkpt lat="45.28807" lon="5.78673">
        <ele>2008.2</ele>
        <time>2020-01-31T15:50:41Z</time>
      </trkpt>
      <trkpt lat="45.28807" lon="5.78673">
        <ele>2008.8</ele>
        <time>2020-01-31T15:50:42Z</time>
      </trkpt>
      <trkpt lat="45.28807" lon="5.78673">
        <ele>2009.4</ele>
        <time>2020-01-31T15:50:43Z</time>
      </trkpt>
      <trkpt lat="45.28807" lon="5.78673">
        <ele>2010.2</ele>
        <time>2020-01-31T15:50:44Z</time>
      </trkpt>
      <trkpt lat="45.28807" lon="5.78673">
        <ele>2010.6</ele>
        <time>2020-01-31T15:50:45Z</time>
      </trkpt>
      <trkpt lat="45.28807" lon="5.78673">
        <ele>2010.6</ele>
        <time>2020-01-31T15:50:46Z</time>
      </trkpt>
      <trkpt lat="45.28805" lon="5.78675">
        <ele>2010.8</ele>
        <time>2020-01-31T15:50:47Z</time>
      </trkpt>
      <trkpt lat="45.28805" lon="5.78675">
        <ele>2011.2</ele>
        <time>2020-01-31T15:50:48Z</time>
      </trkpt>
      <trkpt lat="45.28805" lon="5.78675">
        <ele>2011.4</ele>
        <time>2020-01-31T15:50:49Z</time>
      </trkpt>
      <trkpt lat="45.28803" lon="5.78675">
        <ele>2011.4</ele>
        <time>2020-01-31T15:50:50Z</time>
      </trkpt>
      <trkpt lat="45.28803" lon="5.78675">
        <ele>2011.8</ele>
        <time>2020-01-31T15:50:51Z</time>
      </trkpt>
      <trkpt lat="45.28803" lon="5.78675">
        <ele>2012</ele>
        <time>2020-01-31T15:50:52Z</time>
      </trkpt>
      <trkpt lat="45.28803" lon="5.78675">
        <ele>2012</ele>
        <time>2020-01-31T15:50:53Z</time>
      </trkpt>
      <trkpt lat="45.28803" lon="5.78675">
        <ele>2012.4</ele>
        <time>2020-01-31T15:50:54Z</time>
      </trkpt>
      <trkpt lat="45.288" lon="5.78675">
        <ele>2012.4</ele>
        <time>2020-01-31T15:50:55Z</time>
      </trkpt>
      <trkpt lat="45.288" lon="5.78675">
        <ele>2012.8</ele>
        <time>2020-01-31T15:50:56Z</time>
      </trkpt>
      <trkpt lat="45.288" lon="5.78675">
        <ele>2012.6</ele>
        <time>2020-01-31T15:50:57Z</time>
      </trkpt>
      <trkpt lat="45.288" lon="5.78675">
        <ele>2013</ele>
        <time>2020-01-31T15:50:58Z</time>
      </trkpt>
      <trkpt lat="45.288" lon="5.78675">
        <ele>2013.2</ele>
        <time>2020-01-31T15:50:59Z</time>
      </trkpt>
      <trkpt lat="45.28798" lon="5.78675">
        <ele>2013.4</ele>
        <time>2020-01-31T15:51:00Z</time>
      </trkpt>
      <trkpt lat="45.28798" lon="5.78675">
        <ele>2013.4</ele>
        <time>2020-01-31T15:51:01Z</time>
      </trkpt>
      <trkpt lat="45.28798" lon="5.78675">
        <ele>2013.6</ele>
        <time>2020-01-31T15:51:02Z</time>
      </trkpt>
      <trkpt lat="45.28796" lon="5.78675">
        <ele>2013.8</ele>
        <time>2020-01-31T15:51:03Z</time>
      </trkpt>
      <trkpt lat="45.28796" lon="5.78675">
        <ele>2014.2</ele>
        <time>2020-01-31T15:51:04Z</time>
      </trkpt>
      <trkpt lat="45.28796" lon="5.78675">
        <ele>2014.4</ele>
        <time>2020-01-31T15:51:05Z</time>
      </trkpt>
      <trkpt lat="45.28796" lon="5.78675">
        <ele>2014.6</ele>
        <time>2020-01-31T15:51:06Z</time>
      </trkpt>
      <trkpt lat="45.28794" lon="5.78676">
        <ele>2014.6</ele>
        <time>2020-01-31T15:51:07Z</time>
      </trkpt>
      <trkpt lat="45.28794" lon="5.78676">
        <ele>2015.6</ele>
        <time>2020-01-31T15:51:08Z</time>
      </trkpt>
      <trkpt lat="45.28794" lon="5.78676">
        <ele>2015.6</ele>
        <time>2020-01-31T15:51:09Z</time>
      </trkpt>
      <trkpt lat="45.28792" lon="5.78676">
        <ele>2015.2</ele>
        <time>2020-01-31T15:51:10Z</time>
      </trkpt>
      <trkpt lat="45.28792" lon="5.78676">
        <ele>2015.4</ele>
        <time>2020-01-31T15:51:11Z</time>
      </trkpt>
      <trkpt lat="45.28792" lon="5.78676">
        <ele>2015.6</ele>
        <time>2020-01-31T15:51:12Z</time>
      </trkpt>
      <trkpt lat="45.28792" lon="5.78676">
        <ele>2015.6</ele>
        <time>2020-01-31T15:51:13Z</time>
      </trkpt>
      <trkpt lat="45.28792" lon="5.78676">
        <ele>2015.6</ele>
        <time>2020-01-31T15:51:14Z</time>
      </trkpt>
      <trkpt lat="45.28792" lon="5.78676">
        <ele>2015.4</ele>
        <time>2020-01-31T15:51:15Z</time>
      </trkpt>
      <trkpt lat="45.28792" lon="5.78676">
        <ele>2015.6</ele>
        <time>2020-01-31T15:51:16Z</time>
      </trkpt>
      <trkpt lat="45.28792" lon="5.78676">
        <ele>2015.8</ele>
        <time>2020-01-31T15:51:17Z</time>
      </trkpt>
      <trkpt lat="45.28792" lon="5.78679">
        <ele>2015.6</ele>
        <time>2020-01-31T15:51:18Z</time>
      </trkpt>
      <trkpt lat="45.28792" lon="5.78679">
        <ele>2016</ele>
        <time>2020-01-31T15:51:19Z</time>
      </trkpt>
      <trkpt lat="45.28792" lon="5.78679">
        <ele>2016.2</ele>
        <time>2020-01-31T15:51:20Z</time>
      </trkpt>
      <trkpt lat="45.28792" lon="5.78679">
        <ele>2016.4</ele>
        <time>2020-01-31T15:51:21Z</time>
      </trkpt>
      <trkpt lat="45.28793" lon="5.78681">
        <ele>2016.6</ele>
        <time>2020-01-31T15:51:22Z</time>
      </trkpt>
      <trkpt lat="45.28793" lon="5.78681">
        <ele>2016.8</ele>
        <time>2020-01-31T15:51:23Z</time>
      </trkpt>
      <trkpt lat="45.28793" lon="5.78681">
        <ele>2016.6</ele>
        <time>2020-01-31T15:51:24Z</time>
      </trkpt>
      <trkpt lat="45.28793" lon="5.78681">
        <ele>2017</ele>
        <time>2020-01-31T15:51:25Z</time>
      </trkpt>
      <trkpt lat="45.28794" lon="5.78684">
        <ele>2017</ele>
        <time>2020-01-31T15:51:26Z</time>
      </trkpt>
      <trkpt lat="45.28794" lon="5.78684">
        <ele>2017.6</ele>
        <time>2020-01-31T15:51:27Z</time>
      </trkpt>
      <trkpt lat="45.28794" lon="5.78684">
        <ele>2017.6</ele>
        <time>2020-01-31T15:51:28Z</time>
      </trkpt>
      <trkpt lat="45.28794" lon="5.78684">
        <ele>2017.8</ele>
        <time>2020-01-31T15:51:29Z</time>
      </trkpt>
      <trkpt lat="45.28794" lon="5.78684">
        <ele>2018.4</ele>
        <time>2020-01-31T15:51:30Z</time>
      </trkpt>
      <trkpt lat="45.28794" lon="5.78687">
        <ele>2018.6</ele>
        <time>2020-01-31T15:51:31Z</time>
      </trkpt>
      <trkpt lat="45.28794" lon="5.78687">
        <ele>2019</ele>
        <time>2020-01-31T15:51:32Z</time>
      </trkpt>
      <trkpt lat="45.28794" lon="5.78687">
        <ele>2019</ele>
        <time>2020-01-31T15:51:33Z</time>
      </trkpt>
      <trkpt lat="45.28794" lon="5.78687">
        <ele>2019.2</ele>
        <time>2020-01-31T15:51:34Z</time>
      </trkpt>
      <trkpt lat="45.28794" lon="5.78687">
        <ele>2019.2</ele>
        <time>2020-01-31T15:51:35Z</time>
      </trkpt>
      <trkpt lat="45.28795" lon="5.7869">
        <ele>2019.2</ele>
        <time>2020-01-31T15:51:36Z</time>
      </trkpt>
      <trkpt lat="45.28795" lon="5.7869">
        <ele>2019.4</ele>
        <time>2020-01-31T15:51:37Z</time>
      </trkpt>
      <trkpt lat="45.28795" lon="5.7869">
        <ele>2019.2</ele>
        <time>2020-01-31T15:51:38Z</time>
      </trkpt>
      <trkpt lat="45.28795" lon="5.7869">
        <ele>2019.2</ele>
        <time>2020-01-31T15:51:39Z</time>
      </trkpt>
      <trkpt lat="45.28796" lon="5.78692">
        <ele>2019.8</ele>
        <time>2020-01-31T15:51:40Z</time>
      </trkpt>
      <trkpt lat="45.28796" lon="5.78692">
        <ele>2020.4</ele>
        <time>2020-01-31T15:51:41Z</time>
      </trkpt>
      <trkpt lat="45.28796" lon="5.78692">
        <ele>2020.4</ele>
        <time>2020-01-31T15:51:42Z</time>
      </trkpt>
      <trkpt lat="45.28796" lon="5.78692">
        <ele>2020.4</ele>
        <time>2020-01-31T15:51:43Z</time>
      </trkpt>
      <trkpt lat="45.28796" lon="5.78692">
        <ele>2021.2</ele>
        <time>2020-01-31T15:51:44Z</time>
      </trkpt>
      <trkpt lat="45.28796" lon="5.78692">
        <ele>2021.6</ele>
        <time>2020-01-31T15:51:45Z</time>
      </trkpt>
      <trkpt lat="45.28796" lon="5.78692">
        <ele>2021.6</ele>
        <time>2020-01-31T15:51:46Z</time>
      </trkpt>
      <trkpt lat="45.28796" lon="5.78692">
        <ele>2021.6</ele>
        <time>2020-01-31T15:51:47Z</time>
      </trkpt>
      <trkpt lat="45.28796" lon="5.78692">
        <ele>2021.6</ele>
        <time>2020-01-31T15:51:48Z</time>
      </trkpt>
      <trkpt lat="45.28796" lon="5.78692">
        <ele>2021.6</ele>
        <time>2020-01-31T15:51:49Z</time>
      </trkpt>
      <trkpt lat="45.28796" lon="5.78692">
        <ele>2021.6</ele>
        <time>2020-01-31T15:51:50Z</time>
      </trkpt>
      <trkpt lat="45.28796" lon="5.78692">
        <ele>2022</ele>
        <time>2020-01-31T15:51:51Z</time>
      </trkpt>
      <trkpt lat="45.28796" lon="5.78692">
        <ele>2022.2</ele>
        <time>2020-01-31T15:51:52Z</time>
      </trkpt>
      <trkpt lat="45.28796" lon="5.78692">
        <ele>2022.4</ele>
        <time>2020-01-31T15:51:53Z</time>
      </trkpt>
      <trkpt lat="45.28795" lon="5.78693">
        <ele>2022</ele>
        <time>2020-01-31T15:51:54Z</time>
      </trkpt>
      <trkpt lat="45.28795" lon="5.78693">
        <ele>2021.8</ele>
        <time>2020-01-31T15:51:55Z</time>
      </trkpt>
      <trkpt lat="45.28795" lon="5.78693">
        <ele>2022.2</ele>
        <time>2020-01-31T15:51:56Z</time>
      </trkpt>
      <trkpt lat="45.28795" lon="5.78693">
        <ele>2022.6</ele>
        <time>2020-01-31T15:51:57Z</time>
      </trkpt>
      <trkpt lat="45.28795" lon="5.78693">
        <ele>2022.8</ele>
        <time>2020-01-31T15:51:58Z</time>
      </trkpt>
      <trkpt lat="45.28793" lon="5.78694">
        <ele>2022.8</ele>
        <time>2020-01-31T15:51:59Z</time>
      </trkpt>
      <trkpt lat="45.28793" lon="5.78694">
        <ele>2023.2</ele>
        <time>2020-01-31T15:52:00Z</time>
      </trkpt>
      <trkpt lat="45.28793" lon="5.78694">
        <ele>2023.4</ele>
        <time>2020-01-31T15:52:01Z</time>
      </trkpt>
      <trkpt lat="45.28793" lon="5.78694">
        <ele>2023.6</ele>
        <time>2020-01-31T15:52:02Z</time>
      </trkpt>
      <trkpt lat="45.28793" lon="5.78694">
        <ele>2023.4</ele>
        <time>2020-01-31T15:52:03Z</time>
      </trkpt>
      <trkpt lat="45.28793" lon="5.78694">
        <ele>2023.6</ele>
        <time>2020-01-31T15:52:04Z</time>
      </trkpt>
      <trkpt lat="45.28793" lon="5.78694">
        <ele>2023.8</ele>
        <time>2020-01-31T15:52:05Z</time>
      </trkpt>
      <trkpt lat="45.28793" lon="5.78694">
        <ele>2024.2</ele>
        <time>2020-01-31T15:52:06Z</time>
      </trkpt>
      <trkpt lat="45.28793" lon="5.78694">
        <ele>2024.2</ele>
        <time>2020-01-31T15:52:07Z</time>
      </trkpt>
      <trkpt lat="45.28791" lon="5.78694">
        <ele>2024.4</ele>
        <time>2020-01-31T15:52:08Z</time>
      </trkpt>
      <trkpt lat="45.28791" lon="5.78694">
        <ele>2024.2</ele>
        <time>2020-01-31T15:52:09Z</time>
      </trkpt>
      <trkpt lat="45.28791" lon="5.78694">
        <ele>2024.2</ele>
        <time>2020-01-31T15:52:10Z</time>
      </trkpt>
      <trkpt lat="45.28791" lon="5.78694">
        <ele>2024.6</ele>
        <time>2020-01-31T15:52:11Z</time>
      </trkpt>
      <trkpt lat="45.28791" lon="5.78694">
        <ele>2024.8</ele>
        <time>2020-01-31T15:52:12Z</time>
      </trkpt>
      <trkpt lat="45.28791" lon="5.78694">
        <ele>2024.6</ele>
        <time>2020-01-31T15:52:13Z</time>
      </trkpt>
      <trkpt lat="45.28791" lon="5.78694">
        <ele>2024.6</ele>
        <time>2020-01-31T15:52:14Z</time>
      </trkpt>
      <trkpt lat="45.28791" lon="5.78694">
        <ele>2024.6</ele>
        <time>2020-01-31T15:52:15Z</time>
      </trkpt>
      <trkpt lat="45.28792" lon="5.78697">
        <ele>2024.6</ele>
        <time>2020-01-31T15:52:16Z</time>
      </trkpt>
      <trkpt lat="45.28792" lon="5.78697">
        <ele>2024.4</ele>
        <time>2020-01-31T15:52:17Z</time>
      </trkpt>
      <trkpt lat="45.28792" lon="5.78697">
        <ele>2024.6</ele>
        <time>2020-01-31T15:52:18Z</time>
      </trkpt>
      <trkpt lat="45.28792" lon="5.78697">
        <ele>2024.8</ele>
        <time>2020-01-31T15:52:19Z</time>
      </trkpt>
      <trkpt lat="45.28793" lon="5.787">
        <ele>2024.6</ele>
        <time>2020-01-31T15:52:20Z</time>
      </trkpt>
      <trkpt lat="45.28793" lon="5.787">
        <ele>2025.2</ele>
        <time>2020-01-31T15:52:21Z</time>
      </trkpt>
      <trkpt lat="45.28793" lon="5.787">
        <ele>2025.6</ele>
        <time>2020-01-31T15:52:22Z</time>
      </trkpt>
      <trkpt lat="45.28793" lon="5.787">
        <ele>2025.6</ele>
        <time>2020-01-31T15:52:23Z</time>
      </trkpt>
      <trkpt lat="45.28793" lon="5.787">
        <ele>2025.4</ele>
        <time>2020-01-31T15:52:24Z</time>
      </trkpt>
      <trkpt lat="45.28793" lon="5.787">
        <ele>2025.6</ele>
        <time>2020-01-31T15:52:25Z</time>
      </trkpt>
      <trkpt lat="45.28793" lon="5.787">
        <ele>2026</ele>
        <time>2020-01-31T15:52:26Z</time>
      </trkpt>
      <trkpt lat="45.28793" lon="5.787">
        <ele>2026.2</ele>
        <time>2020-01-31T15:52:27Z</time>
      </trkpt>
      <trkpt lat="45.28794" lon="5.78702">
        <ele>2026</ele>
        <time>2020-01-31T15:52:28Z</time>
      </trkpt>
      <trkpt lat="45.28794" lon="5.78702">
        <ele>2026.2</ele>
        <time>2020-01-31T15:52:29Z</time>
      </trkpt>
      <trkpt lat="45.28794" lon="5.78702">
        <ele>2026.4</ele>
        <time>2020-01-31T15:52:30Z</time>
      </trkpt>
      <trkpt lat="45.28794" lon="5.78702">
        <ele>2026.6</ele>
        <time>2020-01-31T15:52:31Z</time>
      </trkpt>
      <trkpt lat="45.28796" lon="5.78704">
        <ele>2026.6</ele>
        <time>2020-01-31T15:52:32Z</time>
      </trkpt>
      <trkpt lat="45.28796" lon="5.78704">
        <ele>2026.4</ele>
        <time>2020-01-31T15:52:33Z</time>
      </trkpt>
      <trkpt lat="45.28796" lon="5.78704">
        <ele>2027</ele>
        <time>2020-01-31T15:52:34Z</time>
      </trkpt>
      <trkpt lat="45.28797" lon="5.78706">
        <ele>2027</ele>
        <time>2020-01-31T15:52:35Z</time>
      </trkpt>
      <trkpt lat="45.28797" lon="5.78706">
        <ele>2027</ele>
        <time>2020-01-31T15:52:36Z</time>
      </trkpt>
      <trkpt lat="45.28797" lon="5.78706">
        <ele>2027.6</ele>
        <time>2020-01-31T15:52:37Z</time>
      </trkpt>
      <trkpt lat="45.28797" lon="5.78706">
        <ele>2027.6</ele>
        <time>2020-01-31T15:52:38Z</time>
      </trkpt>
      <trkpt lat="45.28798" lon="5.78709">
        <ele>2027.8</ele>
        <time>2020-01-31T15:52:39Z</time>
      </trkpt>
      <trkpt lat="45.28798" lon="5.78709">
        <ele>2028</ele>
        <time>2020-01-31T15:52:40Z</time>
      </trkpt>
      <trkpt lat="45.28798" lon="5.78709">
        <ele>2027.8</ele>
        <time>2020-01-31T15:52:41Z</time>
      </trkpt>
      <trkpt lat="45.28798" lon="5.78709">
        <ele>2028.4</ele>
        <time>2020-01-31T15:52:42Z</time>
      </trkpt>
      <trkpt lat="45.28799" lon="5.78711">
        <ele>2028.4</ele>
        <time>2020-01-31T15:52:43Z</time>
      </trkpt>
      <trkpt lat="45.28799" lon="5.78711">
        <ele>2028.8</ele>
        <time>2020-01-31T15:52:44Z</time>
      </trkpt>
      <trkpt lat="45.28799" lon="5.78711">
        <ele>2029.4</ele>
        <time>2020-01-31T15:52:45Z</time>
      </trkpt>
      <trkpt lat="45.28799" lon="5.78711">
        <ele>2029.4</ele>
        <time>2020-01-31T15:52:46Z</time>
      </trkpt>
      <trkpt lat="45.28799" lon="5.78711">
        <ele>2029.6</ele>
        <time>2020-01-31T15:52:47Z</time>
      </trkpt>
      <trkpt lat="45.28799" lon="5.78711">
        <ele>2029.4</ele>
        <time>2020-01-31T15:52:48Z</time>
      </trkpt>
      <trkpt lat="45.28799" lon="5.78711">
        <ele>2030</ele>
        <time>2020-01-31T15:52:49Z</time>
      </trkpt>
      <trkpt lat="45.288" lon="5.78714">
        <ele>2029.8</ele>
        <time>2020-01-31T15:52:50Z</time>
      </trkpt>
      <trkpt lat="45.288" lon="5.78714">
        <ele>2029.8</ele>
        <time>2020-01-31T15:52:51Z</time>
      </trkpt>
      <trkpt lat="45.288" lon="5.78714">
        <ele>2029.8</ele>
        <time>2020-01-31T15:52:52Z</time>
      </trkpt>
      <trkpt lat="45.288" lon="5.78714">
        <ele>2030.2</ele>
        <time>2020-01-31T15:52:53Z</time>
      </trkpt>
      <trkpt lat="45.288" lon="5.78714">
        <ele>2030.6</ele>
        <time>2020-01-31T15:52:54Z</time>
      </trkpt>
      <trkpt lat="45.288" lon="5.78717">
        <ele>2030.4</ele>
        <time>2020-01-31T15:52:55Z</time>
      </trkpt>
      <trkpt lat="45.288" lon="5.78717">
        <ele>2031</ele>
        <time>2020-01-31T15:52:56Z</time>
      </trkpt>
      <trkpt lat="45.288" lon="5.78717">
        <ele>2031</ele>
        <time>2020-01-31T15:52:57Z</time>
      </trkpt>
      <trkpt lat="45.28801" lon="5.78719">
        <ele>2031</ele>
        <time>2020-01-31T15:52:58Z</time>
      </trkpt>
      <trkpt lat="45.28801" lon="5.78719">
        <ele>2031.6</ele>
        <time>2020-01-31T15:52:59Z</time>
      </trkpt>
      <trkpt lat="45.28801" lon="5.78719">
        <ele>2031.6</ele>
        <time>2020-01-31T15:53:00Z</time>
      </trkpt>
      <trkpt lat="45.28801" lon="5.78719">
        <ele>2032</ele>
        <time>2020-01-31T15:53:01Z</time>
      </trkpt>
      <trkpt lat="45.28799" lon="5.78721">
        <ele>2032.8</ele>
        <time>2020-01-31T15:53:02Z</time>
      </trkpt>
      <trkpt lat="45.28799" lon="5.78721">
        <ele>2033</ele>
        <time>2020-01-31T15:53:03Z</time>
      </trkpt>
      <trkpt lat="45.28799" lon="5.78721">
        <ele>2033.4</ele>
        <time>2020-01-31T15:53:04Z</time>
      </trkpt>
      <trkpt lat="45.28799" lon="5.78721">
        <ele>2033.8</ele>
        <time>2020-01-31T15:53:05Z</time>
      </trkpt>
      <trkpt lat="45.28798" lon="5.78722">
        <ele>2033.8</ele>
        <time>2020-01-31T15:53:06Z</time>
      </trkpt>
      <trkpt lat="45.28798" lon="5.78722">
        <ele>2034.2</ele>
        <time>2020-01-31T15:53:07Z</time>
      </trkpt>
      <trkpt lat="45.28798" lon="5.78722">
        <ele>2034.8</ele>
        <time>2020-01-31T15:53:08Z</time>
      </trkpt>
      <trkpt lat="45.28796" lon="5.78722">
        <ele>2034.8</ele>
        <time>2020-01-31T15:53:09Z</time>
      </trkpt>
      <trkpt lat="45.28796" lon="5.78722">
        <ele>2035.2</ele>
        <time>2020-01-31T15:53:10Z</time>
      </trkpt>
      <trkpt lat="45.28796" lon="5.78722">
        <ele>2035.4</ele>
        <time>2020-01-31T15:53:11Z</time>
      </trkpt>
      <trkpt lat="45.28796" lon="5.78722">
        <ele>2035.4</ele>
        <time>2020-01-31T15:53:12Z</time>
      </trkpt>
      <trkpt lat="45.28794" lon="5.78723">
        <ele>2035.6</ele>
        <time>2020-01-31T15:53:13Z</time>
      </trkpt>
      <trkpt lat="45.28794" lon="5.78723">
        <ele>2036</ele>
        <time>2020-01-31T15:53:14Z</time>
      </trkpt>
      <trkpt lat="45.28794" lon="5.78723">
        <ele>2036.2</ele>
        <time>2020-01-31T15:53:15Z</time>
      </trkpt>
      <trkpt lat="45.28792" lon="5.78724">
        <ele>2036.4</ele>
        <time>2020-01-31T15:53:16Z</time>
      </trkpt>
      <trkpt lat="45.28792" lon="5.78724">
        <ele>2036.6</ele>
        <time>2020-01-31T15:53:17Z</time>
      </trkpt>
      <trkpt lat="45.28792" lon="5.78724">
        <ele>2036.8</ele>
        <time>2020-01-31T15:53:18Z</time>
      </trkpt>
      <trkpt lat="45.28792" lon="5.78724">
        <ele>2037</ele>
        <time>2020-01-31T15:53:19Z</time>
      </trkpt>
      <trkpt lat="45.28789" lon="5.78724">
        <ele>2037</ele>
        <time>2020-01-31T15:53:20Z</time>
      </trkpt>
      <trkpt lat="45.28789" lon="5.78724">
        <ele>2037.2</ele>
        <time>2020-01-31T15:53:21Z</time>
      </trkpt>
      <trkpt lat="45.28789" lon="5.78724">
        <ele>2037.6</ele>
        <time>2020-01-31T15:53:22Z</time>
      </trkpt>
      <trkpt lat="45.28789" lon="5.78724">
        <ele>2037.8</ele>
        <time>2020-01-31T15:53:23Z</time>
      </trkpt>
      <trkpt lat="45.28789" lon="5.78724">
        <ele>2038</ele>
        <time>2020-01-31T15:53:24Z</time>
      </trkpt>
      <trkpt lat="45.28787" lon="5.78726">
        <ele>2038.2</ele>
        <time>2020-01-31T15:53:25Z</time>
      </trkpt>
      <trkpt lat="45.28787" lon="5.78726">
        <ele>2038.4</ele>
        <time>2020-01-31T15:53:26Z</time>
      </trkpt>
      <trkpt lat="45.28787" lon="5.78726">
        <ele>2038.8</ele>
        <time>2020-01-31T15:53:27Z</time>
      </trkpt>
      <trkpt lat="45.28787" lon="5.78726">
        <ele>2038.6</ele>
        <time>2020-01-31T15:53:28Z</time>
      </trkpt>
      <trkpt lat="45.28785" lon="5.78726">
        <ele>2038.6</ele>
        <time>2020-01-31T15:53:29Z</time>
      </trkpt>
      <trkpt lat="45.28785" lon="5.78726">
        <ele>2039</ele>
        <time>2020-01-31T15:53:30Z</time>
      </trkpt>
      <trkpt lat="45.28785" lon="5.78726">
        <ele>2039.4</ele>
        <time>2020-01-31T15:53:31Z</time>
      </trkpt>
      <trkpt lat="45.28785" lon="5.78726">
        <ele>2039.4</ele>
        <time>2020-01-31T15:53:32Z</time>
      </trkpt>
      <trkpt lat="45.28783" lon="5.78727">
        <ele>2039.4</ele>
        <time>2020-01-31T15:53:33Z</time>
      </trkpt>
      <trkpt lat="45.28783" lon="5.78727">
        <ele>2039.4</ele>
        <time>2020-01-31T15:53:34Z</time>
      </trkpt>
      <trkpt lat="45.28783" lon="5.78727">
        <ele>2039.8</ele>
        <time>2020-01-31T15:53:35Z</time>
      </trkpt>
      <trkpt lat="45.28783" lon="5.78727">
        <ele>2039.8</ele>
        <time>2020-01-31T15:53:36Z</time>
      </trkpt>
      <trkpt lat="45.28783" lon="5.78727">
        <ele>2039.8</ele>
        <time>2020-01-31T15:53:37Z</time>
      </trkpt>
      <trkpt lat="45.28783" lon="5.78727">
        <ele>2040.2</ele>
        <time>2020-01-31T15:53:38Z</time>
      </trkpt>
      <trkpt lat="45.28783" lon="5.78727">
        <ele>2040.2</ele>
        <time>2020-01-31T15:53:39Z</time>
      </trkpt>
      <trkpt lat="45.28783" lon="5.78727">
        <ele>2040</ele>
        <time>2020-01-31T15:53:40Z</time>
      </trkpt>
      <trkpt lat="45.28783" lon="5.7873">
        <ele>2040.6</ele>
        <time>2020-01-31T15:53:41Z</time>
      </trkpt>
      <trkpt lat="45.28783" lon="5.7873">
        <ele>2040.8</ele>
        <time>2020-01-31T15:53:42Z</time>
      </trkpt>
      <trkpt lat="45.28783" lon="5.7873">
        <ele>2040.8</ele>
        <time>2020-01-31T15:53:43Z</time>
      </trkpt>
      <trkpt lat="45.28783" lon="5.7873">
        <ele>2040.6</ele>
        <time>2020-01-31T15:53:44Z</time>
      </trkpt>
      <trkpt lat="45.28783" lon="5.7873">
        <ele>2041.2</ele>
        <time>2020-01-31T15:53:45Z</time>
      </trkpt>
      <trkpt lat="45.28783" lon="5.7873">
        <ele>2041.4</ele>
        <time>2020-01-31T15:53:46Z</time>
      </trkpt>
      <trkpt lat="45.28783" lon="5.78732">
        <ele>2041.6</ele>
        <time>2020-01-31T15:53:47Z</time>
      </trkpt>
      <trkpt lat="45.28783" lon="5.78732">
        <ele>2041.8</ele>
        <time>2020-01-31T15:53:48Z</time>
      </trkpt>
      <trkpt lat="45.28783" lon="5.78732">
        <ele>2042</ele>
        <time>2020-01-31T15:53:49Z</time>
      </trkpt>
      <trkpt lat="45.28783" lon="5.78732">
        <ele>2042.2</ele>
        <time>2020-01-31T15:53:50Z</time>
      </trkpt>
      <trkpt lat="45.28783" lon="5.78732">
        <ele>2042.2</ele>
        <time>2020-01-31T15:53:51Z</time>
      </trkpt>
      <trkpt lat="45.28782" lon="5.78735">
        <ele>2042.8</ele>
        <time>2020-01-31T15:53:52Z</time>
      </trkpt>
      <trkpt lat="45.28782" lon="5.78735">
        <ele>2042.8</ele>
        <time>2020-01-31T15:53:53Z</time>
      </trkpt>
      <trkpt lat="45.28782" lon="5.78735">
        <ele>2043.2</ele>
        <time>2020-01-31T15:53:54Z</time>
      </trkpt>
      <trkpt lat="45.28782" lon="5.78735">
        <ele>2043.2</ele>
        <time>2020-01-31T15:53:55Z</time>
      </trkpt>
      <trkpt lat="45.28782" lon="5.78735">
        <ele>2043.6</ele>
        <time>2020-01-31T15:53:56Z</time>
      </trkpt>
      <trkpt lat="45.28782" lon="5.78735">
        <ele>2043.8</ele>
        <time>2020-01-31T15:53:57Z</time>
      </trkpt>
      <trkpt lat="45.28783" lon="5.78738">
        <ele>2043.6</ele>
        <time>2020-01-31T15:53:58Z</time>
      </trkpt>
      <trkpt lat="45.28783" lon="5.78738">
        <ele>2043.8</ele>
        <time>2020-01-31T15:53:59Z</time>
      </trkpt>
      <trkpt lat="45.28783" lon="5.78738">
        <ele>2044.2</ele>
        <time>2020-01-31T15:54:00Z</time>
      </trkpt>
      <trkpt lat="45.28783" lon="5.78738">
        <ele>2044.2</ele>
        <time>2020-01-31T15:54:01Z</time>
      </trkpt>
      <trkpt lat="45.28783" lon="5.78738">
        <ele>2044.2</ele>
        <time>2020-01-31T15:54:02Z</time>
      </trkpt>
      <trkpt lat="45.28783" lon="5.78738">
        <ele>2044.6</ele>
        <time>2020-01-31T15:54:03Z</time>
      </trkpt>
      <trkpt lat="45.28783" lon="5.78738">
        <ele>2045</ele>
        <time>2020-01-31T15:54:04Z</time>
      </trkpt>
      <trkpt lat="45.28783" lon="5.78741">
        <ele>2045</ele>
        <time>2020-01-31T15:54:05Z</time>
      </trkpt>
      <trkpt lat="45.28783" lon="5.78741">
        <ele>2045.2</ele>
        <time>2020-01-31T15:54:06Z</time>
      </trkpt>
      <trkpt lat="45.28783" lon="5.78741">
        <ele>2045.6</ele>
        <time>2020-01-31T15:54:07Z</time>
      </trkpt>
      <trkpt lat="45.28783" lon="5.78741">
        <ele>2045.6</ele>
        <time>2020-01-31T15:54:08Z</time>
      </trkpt>
      <trkpt lat="45.28783" lon="5.78741">
        <ele>2045.8</ele>
        <time>2020-01-31T15:54:09Z</time>
      </trkpt>
      <trkpt lat="45.28784" lon="5.78744">
        <ele>2046.2</ele>
        <time>2020-01-31T15:54:10Z</time>
      </trkpt>
      <trkpt lat="45.28784" lon="5.78744">
        <ele>2046.2</ele>
        <time>2020-01-31T15:54:11Z</time>
      </trkpt>
      <trkpt lat="45.28784" lon="5.78744">
        <ele>2046.8</ele>
        <time>2020-01-31T15:54:12Z</time>
      </trkpt>
      <trkpt lat="45.28784" lon="5.78744">
        <ele>2047.2</ele>
        <time>2020-01-31T15:54:13Z</time>
      </trkpt>
      <trkpt lat="45.28784" lon="5.78746">
        <ele>2047.4</ele>
        <time>2020-01-31T15:54:14Z</time>
      </trkpt>
      <trkpt lat="45.28784" lon="5.78746">
        <ele>2047.4</ele>
        <time>2020-01-31T15:54:15Z</time>
      </trkpt>
      <trkpt lat="45.28784" lon="5.78746">
        <ele>2047.8</ele>
        <time>2020-01-31T15:54:16Z</time>
      </trkpt>
      <trkpt lat="45.28784" lon="5.78746">
        <ele>2048</ele>
        <time>2020-01-31T15:54:17Z</time>
      </trkpt>
      <trkpt lat="45.28784" lon="5.78746">
        <ele>2048</ele>
        <time>2020-01-31T15:54:18Z</time>
      </trkpt>
      <trkpt lat="45.28784" lon="5.78746">
        <ele>2048.2</ele>
        <time>2020-01-31T15:54:19Z</time>
      </trkpt>
      <trkpt lat="45.28784" lon="5.78746">
        <ele>2048.6</ele>
        <time>2020-01-31T15:54:20Z</time>
      </trkpt>
      <trkpt lat="45.28784" lon="5.78746">
        <ele>2048.8</ele>
        <time>2020-01-31T15:54:21Z</time>
      </trkpt>
      <trkpt lat="45.28783" lon="5.78749">
        <ele>2048.6</ele>
        <time>2020-01-31T15:54:22Z</time>
      </trkpt>
      <trkpt lat="45.28783" lon="5.78749">
        <ele>2049</ele>
        <time>2020-01-31T15:54:23Z</time>
      </trkpt>
      <trkpt lat="45.28783" lon="5.78749">
        <ele>2049.2</ele>
        <time>2020-01-31T15:54:24Z</time>
      </trkpt>
      <trkpt lat="45.28783" lon="5.78749">
        <ele>2049.4</ele>
        <time>2020-01-31T15:54:25Z</time>
      </trkpt>
      <trkpt lat="45.28783" lon="5.78749">
        <ele>2049.6</ele>
        <time>2020-01-31T15:54:26Z</time>
      </trkpt>
      <trkpt lat="45.28783" lon="5.78749">
        <ele>2049.6</ele>
        <time>2020-01-31T15:54:27Z</time>
      </trkpt>
      <trkpt lat="45.28783" lon="5.78749">
        <ele>2049.8</ele>
        <time>2020-01-31T15:54:28Z</time>
      </trkpt>
      <trkpt lat="45.28783" lon="5.78749">
        <ele>2049.8</ele>
        <time>2020-01-31T15:54:29Z</time>
      </trkpt>
      <trkpt lat="45.28783" lon="5.78749">
        <ele>2049.8</ele>
        <time>2020-01-31T15:54:30Z</time>
      </trkpt>
      <trkpt lat="45.28783" lon="5.78749">
        <ele>2049.6</ele>
        <time>2020-01-31T15:54:31Z</time>
      </trkpt>
      <trkpt lat="45.28783" lon="5.78749">
        <ele>2049.6</ele>
        <time>2020-01-31T15:54:32Z</time>
      </trkpt>
      <trkpt lat="45.28783" lon="5.78749">
        <ele>2049.8</ele>
        <time>2020-01-31T15:54:33Z</time>
      </trkpt>
      <trkpt lat="45.28783" lon="5.78749">
        <ele>2050</ele>
        <time>2020-01-31T15:54:34Z</time>
      </trkpt>
      <trkpt lat="45.28783" lon="5.78749">
        <ele>2050.2</ele>
        <time>2020-01-31T15:54:35Z</time>
      </trkpt>
      <trkpt lat="45.28783" lon="5.78752">
        <ele>2050.4</ele>
        <time>2020-01-31T15:54:36Z</time>
      </trkpt>
      <trkpt lat="45.28783" lon="5.78752">
        <ele>2050.4</ele>
        <time>2020-01-31T15:54:37Z</time>
      </trkpt>
      <trkpt lat="45.28783" lon="5.78752">
        <ele>2050.2</ele>
        <time>2020-01-31T15:54:38Z</time>
      </trkpt>
      <trkpt lat="45.28783" lon="5.78752">
        <ele>2050.6</ele>
        <time>2020-01-31T15:54:39Z</time>
      </trkpt>
      <trkpt lat="45.28783" lon="5.78752">
        <ele>2050.6</ele>
        <time>2020-01-31T15:54:40Z</time>
      </trkpt>
      <trkpt lat="45.28782" lon="5.78754">
        <ele>2050.6</ele>
        <time>2020-01-31T15:54:41Z</time>
      </trkpt>
      <trkpt lat="45.28782" lon="5.78754">
        <ele>2050.8</ele>
        <time>2020-01-31T15:54:42Z</time>
      </trkpt>
      <trkpt lat="45.28782" lon="5.78754">
        <ele>2051.2</ele>
        <time>2020-01-31T15:54:43Z</time>
      </trkpt>
      <trkpt lat="45.28782" lon="5.78754">
        <ele>2051.4</ele>
        <time>2020-01-31T15:54:44Z</time>
      </trkpt>
      <trkpt lat="45.28782" lon="5.78754">
        <ele>2051.4</ele>
        <time>2020-01-31T15:54:45Z</time>
      </trkpt>
      <trkpt lat="45.28782" lon="5.78754">
        <ele>2051.4</ele>
        <time>2020-01-31T15:54:46Z</time>
      </trkpt>
      <trkpt lat="45.28782" lon="5.78757">
        <ele>2052</ele>
        <time>2020-01-31T15:54:47Z</time>
      </trkpt>
      <trkpt lat="45.28782" lon="5.78757">
        <ele>2052</ele>
        <time>2020-01-31T15:54:48Z</time>
      </trkpt>
      <trkpt lat="45.28782" lon="5.78757">
        <ele>2052</ele>
        <time>2020-01-31T15:54:49Z</time>
      </trkpt>
      <trkpt lat="45.28782" lon="5.78757">
        <ele>2052.4</ele>
        <time>2020-01-31T15:54:50Z</time>
      </trkpt>
      <trkpt lat="45.28782" lon="5.7876">
        <ele>2052.8</ele>
        <time>2020-01-31T15:54:51Z</time>
      </trkpt>
      <trkpt lat="45.28782" lon="5.7876">
        <ele>2053.4</ele>
        <time>2020-01-31T15:54:52Z</time>
      </trkpt>
      <trkpt lat="45.28782" lon="5.7876">
        <ele>2053.4</ele>
        <time>2020-01-31T15:54:53Z</time>
      </trkpt>
      <trkpt lat="45.28782" lon="5.7876">
        <ele>2054</ele>
        <time>2020-01-31T15:54:54Z</time>
      </trkpt>
      <trkpt lat="45.28782" lon="5.7876">
        <ele>2054.4</ele>
        <time>2020-01-31T15:54:55Z</time>
      </trkpt>
      <trkpt lat="45.28782" lon="5.7876">
        <ele>2054.8</ele>
        <time>2020-01-31T15:54:56Z</time>
      </trkpt>
      <trkpt lat="45.28782" lon="5.7876">
        <ele>2055</ele>
        <time>2020-01-31T15:54:57Z</time>
      </trkpt>
      <trkpt lat="45.28782" lon="5.78763">
        <ele>2055.4</ele>
        <time>2020-01-31T15:54:58Z</time>
      </trkpt>
      <trkpt lat="45.28782" lon="5.78763">
        <ele>2055.6</ele>
        <time>2020-01-31T15:54:59Z</time>
      </trkpt>
      <trkpt lat="45.28782" lon="5.78763">
        <ele>2055.8</ele>
        <time>2020-01-31T15:55:00Z</time>
      </trkpt>
      <trkpt lat="45.28782" lon="5.78763">
        <ele>2056</ele>
        <time>2020-01-31T15:55:01Z</time>
      </trkpt>
      <trkpt lat="45.28782" lon="5.78763">
        <ele>2056</ele>
        <time>2020-01-31T15:55:02Z</time>
      </trkpt>
      <trkpt lat="45.28782" lon="5.78763">
        <ele>2056.2</ele>
        <time>2020-01-31T15:55:03Z</time>
      </trkpt>
      <trkpt lat="45.28781" lon="5.78765">
        <ele>2056</ele>
        <time>2020-01-31T15:55:04Z</time>
      </trkpt>
      <trkpt lat="45.28781" lon="5.78765">
        <ele>2056.4</ele>
        <time>2020-01-31T15:55:05Z</time>
      </trkpt>
      <trkpt lat="45.28781" lon="5.78765">
        <ele>2056.8</ele>
        <time>2020-01-31T15:55:06Z</time>
      </trkpt>
      <trkpt lat="45.28781" lon="5.78765">
        <ele>2056.8</ele>
        <time>2020-01-31T15:55:07Z</time>
      </trkpt>
      <trkpt lat="45.28781" lon="5.78765">
        <ele>2057.4</ele>
        <time>2020-01-31T15:55:08Z</time>
      </trkpt>
      <trkpt lat="45.28781" lon="5.78768">
        <ele>2057.6</ele>
        <time>2020-01-31T15:55:09Z</time>
      </trkpt>
      <trkpt lat="45.28781" lon="5.78768">
        <ele>2057.4</ele>
        <time>2020-01-31T15:55:10Z</time>
      </trkpt>
      <trkpt lat="45.28781" lon="5.78768">
        <ele>2058</ele>
        <time>2020-01-31T15:55:11Z</time>
      </trkpt>
      <trkpt lat="45.28781" lon="5.78768">
        <ele>2058.2</ele>
        <time>2020-01-31T15:55:12Z</time>
      </trkpt>
      <trkpt lat="45.28781" lon="5.78768">
        <ele>2058.2</ele>
        <time>2020-01-31T15:55:13Z</time>
      </trkpt>
      <trkpt lat="45.28781" lon="5.78768">
        <ele>2058.4</ele>
        <time>2020-01-31T15:55:14Z</time>
      </trkpt>
      <trkpt lat="45.2878" lon="5.78771">
        <ele>2058.2</ele>
        <time>2020-01-31T15:55:15Z</time>
      </trkpt>
      <trkpt lat="45.2878" lon="5.78771">
        <ele>2058.8</ele>
        <time>2020-01-31T15:55:16Z</time>
      </trkpt>
      <trkpt lat="45.2878" lon="5.78771">
        <ele>2059</ele>
        <time>2020-01-31T15:55:17Z</time>
      </trkpt>
      <trkpt lat="45.2878" lon="5.78771">
        <ele>2059.2</ele>
        <time>2020-01-31T15:55:18Z</time>
      </trkpt>
      <trkpt lat="45.2878" lon="5.78771">
        <ele>2059.6</ele>
        <time>2020-01-31T15:55:19Z</time>
      </trkpt>
      <trkpt lat="45.2878" lon="5.78771">
        <ele>2059.6</ele>
        <time>2020-01-31T15:55:20Z</time>
      </trkpt>
      <trkpt lat="45.28779" lon="5.78774">
        <ele>2059.4</ele>
        <time>2020-01-31T15:55:21Z</time>
      </trkpt>
      <trkpt lat="45.28779" lon="5.78774">
        <ele>2060</ele>
        <time>2020-01-31T15:55:22Z</time>
      </trkpt>
      <trkpt lat="45.28779" lon="5.78774">
        <ele>2060</ele>
        <time>2020-01-31T15:55:23Z</time>
      </trkpt>
      <trkpt lat="45.28779" lon="5.78774">
        <ele>2060</ele>
        <time>2020-01-31T15:55:24Z</time>
      </trkpt>
      <trkpt lat="45.28779" lon="5.78774">
        <ele>2060.6</ele>
        <time>2020-01-31T15:55:25Z</time>
      </trkpt>
      <trkpt lat="45.28779" lon="5.78774">
        <ele>2061</ele>
        <time>2020-01-31T15:55:26Z</time>
      </trkpt>
      <trkpt lat="45.28779" lon="5.78777">
        <ele>2061</ele>
        <time>2020-01-31T15:55:27Z</time>
      </trkpt>
      <trkpt lat="45.28779" lon="5.78777">
        <ele>2061.4</ele>
        <time>2020-01-31T15:55:28Z</time>
      </trkpt>
      <trkpt lat="45.28779" lon="5.78777">
        <ele>2061.6</ele>
        <time>2020-01-31T15:55:29Z</time>
      </trkpt>
      <trkpt lat="45.28779" lon="5.78777">
        <ele>2061.6</ele>
        <time>2020-01-31T15:55:30Z</time>
      </trkpt>
      <trkpt lat="45.28779" lon="5.78777">
        <ele>2062</ele>
        <time>2020-01-31T15:55:31Z</time>
      </trkpt>
      <trkpt lat="45.28779" lon="5.78777">
        <ele>2062</ele>
        <time>2020-01-31T15:55:32Z</time>
      </trkpt>
      <trkpt lat="45.28778" lon="5.7878">
        <ele>2062.2</ele>
        <time>2020-01-31T15:55:33Z</time>
      </trkpt>
      <trkpt lat="45.28778" lon="5.7878">
        <ele>2062.4</ele>
        <time>2020-01-31T15:55:34Z</time>
      </trkpt>
      <trkpt lat="45.28778" lon="5.7878">
        <ele>2062.8</ele>
        <time>2020-01-31T15:55:35Z</time>
      </trkpt>
      <trkpt lat="45.28778" lon="5.7878">
        <ele>2063</ele>
        <time>2020-01-31T15:55:36Z</time>
      </trkpt>
      <trkpt lat="45.28778" lon="5.7878">
        <ele>2062.8</ele>
        <time>2020-01-31T15:55:37Z</time>
      </trkpt>
      <trkpt lat="45.28778" lon="5.7878">
        <ele>2063.6</ele>
        <time>2020-01-31T15:55:38Z</time>
      </trkpt>
      <trkpt lat="45.28777" lon="5.78782">
        <ele>2063.8</ele>
        <time>2020-01-31T15:55:39Z</time>
      </trkpt>
      <trkpt lat="45.28777" lon="5.78782">
        <ele>2063.8</ele>
        <time>2020-01-31T15:55:40Z</time>
      </trkpt>
      <trkpt lat="45.28777" lon="5.78782">
        <ele>2063.8</ele>
        <time>2020-01-31T15:55:41Z</time>
      </trkpt>
      <trkpt lat="45.28777" lon="5.78782">
        <ele>2064.4</ele>
        <time>2020-01-31T15:55:42Z</time>
      </trkpt>
      <trkpt lat="45.28777" lon="5.78782">
        <ele>2064.8</ele>
        <time>2020-01-31T15:55:43Z</time>
      </trkpt>
      <trkpt lat="45.28777" lon="5.78785">
        <ele>2065</ele>
        <time>2020-01-31T15:55:44Z</time>
      </trkpt>
      <trkpt lat="45.28777" lon="5.78785">
        <ele>2064.8</ele>
        <time>2020-01-31T15:55:45Z</time>
      </trkpt>
      <trkpt lat="45.28777" lon="5.78785">
        <ele>2065.4</ele>
        <time>2020-01-31T15:55:46Z</time>
      </trkpt>
      <trkpt lat="45.28777" lon="5.78785">
        <ele>2065.4</ele>
        <time>2020-01-31T15:55:47Z</time>
      </trkpt>
      <trkpt lat="45.28777" lon="5.78785">
        <ele>2065.4</ele>
        <time>2020-01-31T15:55:48Z</time>
      </trkpt>
      <trkpt lat="45.28777" lon="5.78788">
        <ele>2066</ele>
        <time>2020-01-31T15:55:49Z</time>
      </trkpt>
      <trkpt lat="45.28777" lon="5.78788">
        <ele>2066.4</ele>
        <time>2020-01-31T15:55:50Z</time>
      </trkpt>
      <trkpt lat="45.28777" lon="5.78788">
        <ele>2066.4</ele>
        <time>2020-01-31T15:55:51Z</time>
      </trkpt>
      <trkpt lat="45.28777" lon="5.78788">
        <ele>2066.8</ele>
        <time>2020-01-31T15:55:52Z</time>
      </trkpt>
      <trkpt lat="45.28776" lon="5.7879">
        <ele>2067.2</ele>
        <time>2020-01-31T15:55:53Z</time>
      </trkpt>
      <trkpt lat="45.28776" lon="5.7879">
        <ele>2067.2</ele>
        <time>2020-01-31T15:55:54Z</time>
      </trkpt>
      <trkpt lat="45.28776" lon="5.7879">
        <ele>2067.6</ele>
        <time>2020-01-31T15:55:55Z</time>
      </trkpt>
      <trkpt lat="45.28776" lon="5.7879">
        <ele>2068</ele>
        <time>2020-01-31T15:55:56Z</time>
      </trkpt>
      <trkpt lat="45.28776" lon="5.7879">
        <ele>2068</ele>
        <time>2020-01-31T15:55:57Z</time>
      </trkpt>
      <trkpt lat="45.28775" lon="5.78792">
        <ele>2067.8</ele>
        <time>2020-01-31T15:55:58Z</time>
      </trkpt>
      <trkpt lat="45.28775" lon="5.78792">
        <ele>2068.6</ele>
        <time>2020-01-31T15:55:59Z</time>
      </trkpt>
      <trkpt lat="45.28775" lon="5.78792">
        <ele>2069.2</ele>
        <time>2020-01-31T15:56:00Z</time>
      </trkpt>
      <trkpt lat="45.28775" lon="5.78792">
        <ele>2069</ele>
        <time>2020-01-31T15:56:01Z</time>
      </trkpt>
      <trkpt lat="45.28774" lon="5.78794">
        <ele>2069.4</ele>
        <time>2020-01-31T15:56:02Z</time>
      </trkpt>
      <trkpt lat="45.28774" lon="5.78794">
        <ele>2069.6</ele>
        <time>2020-01-31T15:56:03Z</time>
      </trkpt>
      <trkpt lat="45.28774" lon="5.78794">
        <ele>2070</ele>
        <time>2020-01-31T15:56:04Z</time>
      </trkpt>
      <trkpt lat="45.28774" lon="5.78794">
        <ele>2070.4</ele>
        <time>2020-01-31T15:56:05Z</time>
      </trkpt>
      <trkpt lat="45.28774" lon="5.78794">
        <ele>2070.6</ele>
        <time>2020-01-31T15:56:06Z</time>
      </trkpt>
      <trkpt lat="45.28772" lon="5.78796">
        <ele>2070.6</ele>
        <time>2020-01-31T15:56:07Z</time>
      </trkpt>
      <trkpt lat="45.28772" lon="5.78796">
        <ele>2070.4</ele>
        <time>2020-01-31T15:56:08Z</time>
      </trkpt>
      <trkpt lat="45.28772" lon="5.78796">
        <ele>2071.2</ele>
        <time>2020-01-31T15:56:09Z</time>
      </trkpt>
      <trkpt lat="45.28772" lon="5.78796">
        <ele>2071.4</ele>
        <time>2020-01-31T15:56:10Z</time>
      </trkpt>
      <trkpt lat="45.28771" lon="5.78799">
        <ele>2071.4</ele>
        <time>2020-01-31T15:56:11Z</time>
      </trkpt>
      <trkpt lat="45.28771" lon="5.78799">
        <ele>2071.8</ele>
        <time>2020-01-31T15:56:12Z</time>
      </trkpt>
      <trkpt lat="45.28771" lon="5.78799">
        <ele>2071.8</ele>
        <time>2020-01-31T15:56:13Z</time>
      </trkpt>
      <trkpt lat="45.28771" lon="5.78799">
        <ele>2072</ele>
        <time>2020-01-31T15:56:14Z</time>
      </trkpt>
      <trkpt lat="45.28771" lon="5.78799">
        <ele>2072.4</ele>
        <time>2020-01-31T15:56:15Z</time>
      </trkpt>
      <trkpt lat="45.28771" lon="5.78802">
        <ele>2072.6</ele>
        <time>2020-01-31T15:56:16Z</time>
      </trkpt>
      <trkpt lat="45.28771" lon="5.78802">
        <ele>2073</ele>
        <time>2020-01-31T15:56:17Z</time>
      </trkpt>
      <trkpt lat="45.28771" lon="5.78802">
        <ele>2073.4</ele>
        <time>2020-01-31T15:56:18Z</time>
      </trkpt>
      <trkpt lat="45.28771" lon="5.78802">
        <ele>2073.8</ele>
        <time>2020-01-31T15:56:19Z</time>
      </trkpt>
      <trkpt lat="45.2877" lon="5.78804">
        <ele>2074</ele>
        <time>2020-01-31T15:56:20Z</time>
      </trkpt>
      <trkpt lat="45.2877" lon="5.78804">
        <ele>2074</ele>
        <time>2020-01-31T15:56:21Z</time>
      </trkpt>
      <trkpt lat="45.2877" lon="5.78804">
        <ele>2074.6</ele>
        <time>2020-01-31T15:56:22Z</time>
      </trkpt>
      <trkpt lat="45.2877" lon="5.78804">
        <ele>2074.6</ele>
        <time>2020-01-31T15:56:23Z</time>
      </trkpt>
      <trkpt lat="45.2877" lon="5.78804">
        <ele>2074.8</ele>
        <time>2020-01-31T15:56:24Z</time>
      </trkpt>
      <trkpt lat="45.2877" lon="5.78807">
        <ele>2075.2</ele>
        <time>2020-01-31T15:56:25Z</time>
      </trkpt>
      <trkpt lat="45.2877" lon="5.78807">
        <ele>2075.6</ele>
        <time>2020-01-31T15:56:26Z</time>
      </trkpt>
      <trkpt lat="45.2877" lon="5.78807">
        <ele>2076</ele>
        <time>2020-01-31T15:56:27Z</time>
      </trkpt>
      <trkpt lat="45.2877" lon="5.78807">
        <ele>2076.2</ele>
        <time>2020-01-31T15:56:28Z</time>
      </trkpt>
      <trkpt lat="45.2877" lon="5.78807">
        <ele>2076.4</ele>
        <time>2020-01-31T15:56:29Z</time>
      </trkpt>
      <trkpt lat="45.2877" lon="5.78811">
        <ele>2076.4</ele>
        <time>2020-01-31T15:56:30Z</time>
      </trkpt>
      <trkpt lat="45.2877" lon="5.78811">
        <ele>2076.8</ele>
        <time>2020-01-31T15:56:31Z</time>
      </trkpt>
      <trkpt lat="45.2877" lon="5.78811">
        <ele>2077.2</ele>
        <time>2020-01-31T15:56:32Z</time>
      </trkpt>
      <trkpt lat="45.2877" lon="5.78814">
        <ele>2077.2</ele>
        <time>2020-01-31T15:56:33Z</time>
      </trkpt>
      <trkpt lat="45.2877" lon="5.78814">
        <ele>2077.6</ele>
        <time>2020-01-31T15:56:34Z</time>
      </trkpt>
      <trkpt lat="45.2877" lon="5.78814">
        <ele>2077.6</ele>
        <time>2020-01-31T15:56:35Z</time>
      </trkpt>
      <trkpt lat="45.2877" lon="5.78814">
        <ele>2077.8</ele>
        <time>2020-01-31T15:56:36Z</time>
      </trkpt>
      <trkpt lat="45.2877" lon="5.78817">
        <ele>2078.4</ele>
        <time>2020-01-31T15:56:37Z</time>
      </trkpt>
      <trkpt lat="45.2877" lon="5.78817">
        <ele>2078.4</ele>
        <time>2020-01-31T15:56:38Z</time>
      </trkpt>
      <trkpt lat="45.2877" lon="5.78817">
        <ele>2079</ele>
        <time>2020-01-31T15:56:39Z</time>
      </trkpt>
      <trkpt lat="45.2877" lon="5.78817">
        <ele>2079.4</ele>
        <time>2020-01-31T15:56:40Z</time>
      </trkpt>
      <trkpt lat="45.28768" lon="5.78817">
        <ele>2079.4</ele>
        <time>2020-01-31T15:56:41Z</time>
      </trkpt>
      <trkpt lat="45.28768" lon="5.78817">
        <ele>2079.8</ele>
        <time>2020-01-31T15:56:42Z</time>
      </trkpt>
      <trkpt lat="45.28768" lon="5.78817">
        <ele>2079.8</ele>
        <time>2020-01-31T15:56:43Z</time>
      </trkpt>
      <trkpt lat="45.28768" lon="5.78817">
        <ele>2079.8</ele>
        <time>2020-01-31T15:56:44Z</time>
      </trkpt>
      <trkpt lat="45.28766" lon="5.78818">
        <ele>2080.4</ele>
        <time>2020-01-31T15:56:45Z</time>
      </trkpt>
      <trkpt lat="45.28766" lon="5.78818">
        <ele>2081</ele>
        <time>2020-01-31T15:56:46Z</time>
      </trkpt>
      <trkpt lat="45.28766" lon="5.78818">
        <ele>2081</ele>
        <time>2020-01-31T15:56:47Z</time>
      </trkpt>
      <trkpt lat="45.28766" lon="5.78818">
        <ele>2081.2</ele>
        <time>2020-01-31T15:56:48Z</time>
      </trkpt>
      <trkpt lat="45.28766" lon="5.78818">
        <ele>2081.2</ele>
        <time>2020-01-31T15:56:49Z</time>
      </trkpt>
      <trkpt lat="45.28766" lon="5.78818">
        <ele>2081.2</ele>
        <time>2020-01-31T15:56:50Z</time>
      </trkpt>
      <trkpt lat="45.28766" lon="5.78818">
        <ele>2081</ele>
        <time>2020-01-31T15:56:51Z</time>
      </trkpt>
      <trkpt lat="45.28766" lon="5.78818">
        <ele>2081.2</ele>
        <time>2020-01-31T15:56:52Z</time>
      </trkpt>
      <trkpt lat="45.28766" lon="5.78818">
        <ele>2081.4</ele>
        <time>2020-01-31T15:56:53Z</time>
      </trkpt>
      <trkpt lat="45.28766" lon="5.78818">
        <ele>2081.4</ele>
        <time>2020-01-31T15:56:54Z</time>
      </trkpt>
      <trkpt lat="45.28766" lon="5.78818">
        <ele>2081.2</ele>
        <time>2020-01-31T15:56:55Z</time>
      </trkpt>
      <trkpt lat="45.28766" lon="5.78818">
        <ele>2081.6</ele>
        <time>2020-01-31T15:56:56Z</time>
      </trkpt>
      <trkpt lat="45.28766" lon="5.78818">
        <ele>2081.6</ele>
        <time>2020-01-31T15:56:57Z</time>
      </trkpt>
      <trkpt lat="45.28766" lon="5.78818">
        <ele>2081.6</ele>
        <time>2020-01-31T15:56:58Z</time>
      </trkpt>
      <trkpt lat="45.28766" lon="5.78818">
        <ele>2081.4</ele>
        <time>2020-01-31T15:56:59Z</time>
      </trkpt>
      <trkpt lat="45.28766" lon="5.78818">
        <ele>2081.2</ele>
        <time>2020-01-31T15:57:00Z</time>
      </trkpt>
      <trkpt lat="45.28766" lon="5.78818">
        <ele>2081</ele>
        <time>2020-01-31T15:57:01Z</time>
      </trkpt>
      <trkpt lat="45.28766" lon="5.78818">
        <ele>2081</ele>
        <time>2020-01-31T15:57:02Z</time>
      </trkpt>
      <trkpt lat="45.28766" lon="5.78818">
        <ele>2081</ele>
        <time>2020-01-31T15:57:03Z</time>
      </trkpt>
      <trkpt lat="45.28766" lon="5.78818">
        <ele>2081</ele>
        <time>2020-01-31T15:57:04Z</time>
      </trkpt>
      <trkpt lat="45.28766" lon="5.78818">
        <ele>2081</ele>
        <time>2020-01-31T15:57:05Z</time>
      </trkpt>
      <trkpt lat="45.28766" lon="5.78818">
        <ele>2080.6</ele>
        <time>2020-01-31T15:57:06Z</time>
      </trkpt>
      <trkpt lat="45.28766" lon="5.78818">
        <ele>2080.4</ele>
        <time>2020-01-31T15:57:07Z</time>
      </trkpt>
      <trkpt lat="45.28766" lon="5.78818">
        <ele>2080.4</ele>
        <time>2020-01-31T15:57:08Z</time>
      </trkpt>
      <trkpt lat="45.28766" lon="5.78818">
        <ele>2080.4</ele>
        <time>2020-01-31T15:57:09Z</time>
      </trkpt>
      <trkpt lat="45.28766" lon="5.78818">
        <ele>2080.4</ele>
        <time>2020-01-31T15:57:10Z</time>
      </trkpt>
      <trkpt lat="45.28766" lon="5.78818">
        <ele>2080.2</ele>
        <time>2020-01-31T15:57:11Z</time>
      </trkpt>
      <trkpt lat="45.28766" lon="5.78818">
        <ele>2080.2</ele>
        <time>2020-01-31T15:57:12Z</time>
      </trkpt>
      <trkpt lat="45.28766" lon="5.78818">
        <ele>2080.4</ele>
        <time>2020-01-31T15:57:13Z</time>
      </trkpt>
      <trkpt lat="45.28766" lon="5.78818">
        <ele>2080.4</ele>
        <time>2020-01-31T15:57:14Z</time>
      </trkpt>
      <trkpt lat="45.28766" lon="5.78818">
        <ele>2080.4</ele>
        <time>2020-01-31T15:57:15Z</time>
      </trkpt>
      <trkpt lat="45.28766" lon="5.78818">
        <ele>2080.4</ele>
        <time>2020-01-31T15:57:16Z</time>
      </trkpt>
      <trkpt lat="45.28766" lon="5.78818">
        <ele>2080.6</ele>
        <time>2020-01-31T15:57:17Z</time>
      </trkpt>
      <trkpt lat="45.28766" lon="5.78818">
        <ele>2080.4</ele>
        <time>2020-01-31T15:57:18Z</time>
      </trkpt>
      <trkpt lat="45.28766" lon="5.78818">
        <ele>2080.6</ele>
        <time>2020-01-31T15:57:19Z</time>
      </trkpt>
      <trkpt lat="45.28766" lon="5.78818">
        <ele>2080.6</ele>
        <time>2020-01-31T15:57:20Z</time>
      </trkpt>
      <trkpt lat="45.28766" lon="5.78818">
        <ele>2080.4</ele>
        <time>2020-01-31T15:57:21Z</time>
      </trkpt>
      <trkpt lat="45.28766" lon="5.78818">
        <ele>2080.4</ele>
        <time>2020-01-31T15:57:22Z</time>
      </trkpt>
      <trkpt lat="45.28766" lon="5.78818">
        <ele>2080.2</ele>
        <time>2020-01-31T15:57:23Z</time>
      </trkpt>
      <trkpt lat="45.28766" lon="5.78818">
        <ele>2080.4</ele>
        <time>2020-01-31T15:57:24Z</time>
      </trkpt>
      <trkpt lat="45.28766" lon="5.78818">
        <ele>2080.4</ele>
        <time>2020-01-31T15:57:25Z</time>
      </trkpt>
      <trkpt lat="45.28766" lon="5.78818">
        <ele>2080.2</ele>
        <time>2020-01-31T15:57:26Z</time>
      </trkpt>
      <trkpt lat="45.28766" lon="5.78818">
        <ele>2080.2</ele>
        <time>2020-01-31T15:57:27Z</time>
      </trkpt>
      <trkpt lat="45.28766" lon="5.78818">
        <ele>2080.2</ele>
        <time>2020-01-31T15:57:28Z</time>
      </trkpt>
      <trkpt lat="45.28766" lon="5.78818">
        <ele>2080.2</ele>
        <time>2020-01-31T15:57:29Z</time>
      </trkpt>
      <trkpt lat="45.28766" lon="5.78818">
        <ele>2080.2</ele>
        <time>2020-01-31T15:57:30Z</time>
      </trkpt>
      <trkpt lat="45.28766" lon="5.78818">
        <ele>2080</ele>
        <time>2020-01-31T15:57:31Z</time>
      </trkpt>
      <trkpt lat="45.28766" lon="5.78818">
        <ele>2080.2</ele>
        <time>2020-01-31T15:57:32Z</time>
      </trkpt>
      <trkpt lat="45.28766" lon="5.78818">
        <ele>2080.2</ele>
        <time>2020-01-31T15:57:33Z</time>
      </trkpt>
      <trkpt lat="45.28766" lon="5.78818">
        <ele>2080</ele>
        <time>2020-01-31T15:57:34Z</time>
      </trkpt>
      <trkpt lat="45.28766" lon="5.78818">
        <ele>2080.4</ele>
        <time>2020-01-31T15:57:35Z</time>
      </trkpt>
      <trkpt lat="45.28766" lon="5.78818">
        <ele>2080.6</ele>
        <time>2020-01-31T15:57:36Z</time>
      </trkpt>
      <trkpt lat="45.28766" lon="5.78818">
        <ele>2080.8</ele>
        <time>2020-01-31T15:57:37Z</time>
      </trkpt>
      <trkpt lat="45.28766" lon="5.78818">
        <ele>2080.8</ele>
        <time>2020-01-31T15:57:38Z</time>
      </trkpt>
      <trkpt lat="45.28766" lon="5.78818">
        <ele>2080.8</ele>
        <time>2020-01-31T15:57:39Z</time>
      </trkpt>
      <trkpt lat="45.28766" lon="5.78818">
        <ele>2080.8</ele>
        <time>2020-01-31T15:57:40Z</time>
      </trkpt>
      <trkpt lat="45.28766" lon="5.78818">
        <ele>2080.8</ele>
        <time>2020-01-31T15:57:41Z</time>
      </trkpt>
      <trkpt lat="45.28766" lon="5.78818">
        <ele>2080.8</ele>
        <time>2020-01-31T15:57:42Z</time>
      </trkpt>
      <trkpt lat="45.28766" lon="5.78818">
        <ele>2080.4</ele>
        <time>2020-01-31T15:57:43Z</time>
      </trkpt>
      <trkpt lat="45.28766" lon="5.78818">
        <ele>2080.2</ele>
        <time>2020-01-31T15:57:44Z</time>
      </trkpt>
      <trkpt lat="45.28766" lon="5.78818">
        <ele>2080.2</ele>
        <time>2020-01-31T15:57:45Z</time>
      </trkpt>
      <trkpt lat="45.28766" lon="5.78818">
        <ele>2080</ele>
        <time>2020-01-31T15:57:46Z</time>
      </trkpt>
      <trkpt lat="45.28766" lon="5.78818">
        <ele>2080.2</ele>
        <time>2020-01-31T15:57:47Z</time>
      </trkpt>
      <trkpt lat="45.28766" lon="5.78818">
        <ele>2080.2</ele>
        <time>2020-01-31T15:57:48Z</time>
      </trkpt>
      <trkpt lat="45.28766" lon="5.78818">
        <ele>2080</ele>
        <time>2020-01-31T15:57:49Z</time>
      </trkpt>
      <trkpt lat="45.28766" lon="5.78818">
        <ele>2080</ele>
        <time>2020-01-31T15:57:50Z</time>
      </trkpt>
      <trkpt lat="45.28766" lon="5.78818">
        <ele>2080</ele>
        <time>2020-01-31T15:57:51Z</time>
      </trkpt>
      <trkpt lat="45.28766" lon="5.78818">
        <ele>2080</ele>
        <time>2020-01-31T15:57:52Z</time>
      </trkpt>
      <trkpt lat="45.28766" lon="5.78818">
        <ele>2079.8</ele>
        <time>2020-01-31T15:57:53Z</time>
      </trkpt>
      <trkpt lat="45.28766" lon="5.78818">
        <ele>2080</ele>
        <time>2020-01-31T15:57:54Z</time>
      </trkpt>
      <trkpt lat="45.28766" lon="5.78818">
        <ele>2080</ele>
        <time>2020-01-31T15:57:55Z</time>
      </trkpt>
      <trkpt lat="45.28766" lon="5.78818">
        <ele>2080.2</ele>
        <time>2020-01-31T15:57:56Z</time>
      </trkpt>
      <trkpt lat="45.28766" lon="5.78818">
        <ele>2080.4</ele>
        <time>2020-01-31T15:57:57Z</time>
      </trkpt>
      <trkpt lat="45.28766" lon="5.78818">
        <ele>2080.2</ele>
        <time>2020-01-31T15:57:58Z</time>
      </trkpt>
      <trkpt lat="45.28766" lon="5.78818">
        <ele>2080.4</ele>
        <time>2020-01-31T15:57:59Z</time>
      </trkpt>
      <trkpt lat="45.28766" lon="5.78818">
        <ele>2080.6</ele>
        <time>2020-01-31T15:58:00Z</time>
      </trkpt>
      <trkpt lat="45.28766" lon="5.78818">
        <ele>2080.6</ele>
        <time>2020-01-31T15:58:01Z</time>
      </trkpt>
      <trkpt lat="45.28766" lon="5.78818">
        <ele>2080.4</ele>
        <time>2020-01-31T15:58:02Z</time>
      </trkpt>
      <trkpt lat="45.28766" lon="5.78818">
        <ele>2080.2</ele>
        <time>2020-01-31T15:58:03Z</time>
      </trkpt>
      <trkpt lat="45.28766" lon="5.78818">
        <ele>2080.2</ele>
        <time>2020-01-31T15:58:04Z</time>
      </trkpt>
      <trkpt lat="45.28766" lon="5.78818">
        <ele>2080.2</ele>
        <time>2020-01-31T15:58:05Z</time>
      </trkpt>
      <trkpt lat="45.28766" lon="5.78818">
        <ele>2080.2</ele>
        <time>2020-01-31T15:58:06Z</time>
      </trkpt>
      <trkpt lat="45.28766" lon="5.78818">
        <ele>2080</ele>
        <time>2020-01-31T15:58:07Z</time>
      </trkpt>
      <trkpt lat="45.28766" lon="5.78818">
        <ele>2080.4</ele>
        <time>2020-01-31T15:58:08Z</time>
      </trkpt>
      <trkpt lat="45.28766" lon="5.78818">
        <ele>2080.6</ele>
        <time>2020-01-31T15:58:09Z</time>
      </trkpt>
      <trkpt lat="45.28766" lon="5.78818">
        <ele>2080.8</ele>
        <time>2020-01-31T15:58:10Z</time>
      </trkpt>
      <trkpt lat="45.28766" lon="5.78818">
        <ele>2081</ele>
        <time>2020-01-31T15:58:11Z</time>
      </trkpt>
      <trkpt lat="45.28766" lon="5.78818">
        <ele>2081</ele>
        <time>2020-01-31T15:58:12Z</time>
      </trkpt>
      <trkpt lat="45.28766" lon="5.78818">
        <ele>2081</ele>
        <time>2020-01-31T15:58:13Z</time>
      </trkpt>
      <trkpt lat="45.28766" lon="5.78818">
        <ele>2081</ele>
        <time>2020-01-31T15:58:14Z</time>
      </trkpt>
      <trkpt lat="45.28766" lon="5.78818">
        <ele>2081</ele>
        <time>2020-01-31T15:58:15Z</time>
      </trkpt>
      <trkpt lat="45.28766" lon="5.78818">
        <ele>2081.2</ele>
        <time>2020-01-31T15:58:16Z</time>
      </trkpt>
      <trkpt lat="45.28766" lon="5.78818">
        <ele>2081.4</ele>
        <time>2020-01-31T15:58:17Z</time>
      </trkpt>
      <trkpt lat="45.28766" lon="5.78818">
        <ele>2081.6</ele>
        <time>2020-01-31T15:58:18Z</time>
      </trkpt>
      <trkpt lat="45.28766" lon="5.78818">
        <ele>2082.2</ele>
        <time>2020-01-31T15:58:19Z</time>
      </trkpt>
      <trkpt lat="45.28766" lon="5.78818">
        <ele>2082</ele>
        <time>2020-01-31T15:58:20Z</time>
      </trkpt>
      <trkpt lat="45.28766" lon="5.78818">
        <ele>2081.8</ele>
        <time>2020-01-31T15:58:21Z</time>
      </trkpt>
      <trkpt lat="45.28766" lon="5.78818">
        <ele>2081.6</ele>
        <time>2020-01-31T15:58:22Z</time>
      </trkpt>
      <trkpt lat="45.28766" lon="5.78818">
        <ele>2081.6</ele>
        <time>2020-01-31T15:58:23Z</time>
      </trkpt>
      <trkpt lat="45.28766" lon="5.78818">
        <ele>2081.4</ele>
        <time>2020-01-31T15:58:24Z</time>
      </trkpt>
      <trkpt lat="45.28766" lon="5.78818">
        <ele>2081.4</ele>
        <time>2020-01-31T15:58:25Z</time>
      </trkpt>
      <trkpt lat="45.28766" lon="5.78818">
        <ele>2081.6</ele>
        <time>2020-01-31T15:58:26Z</time>
      </trkpt>
      <trkpt lat="45.28766" lon="5.78818">
        <ele>2081.4</ele>
        <time>2020-01-31T15:58:27Z</time>
      </trkpt>
      <trkpt lat="45.28766" lon="5.78818">
        <ele>2081.4</ele>
        <time>2020-01-31T15:58:28Z</time>
      </trkpt>
      <trkpt lat="45.28766" lon="5.78818">
        <ele>2081.6</ele>
        <time>2020-01-31T15:58:29Z</time>
      </trkpt>
      <trkpt lat="45.28766" lon="5.78818">
        <ele>2081.4</ele>
        <time>2020-01-31T15:58:30Z</time>
      </trkpt>
      <trkpt lat="45.28766" lon="5.78818">
        <ele>2081.6</ele>
        <time>2020-01-31T15:58:31Z</time>
      </trkpt>
      <trkpt lat="45.28766" lon="5.78818">
        <ele>2081.6</ele>
        <time>2020-01-31T15:58:32Z</time>
      </trkpt>
      <trkpt lat="45.28766" lon="5.78818">
        <ele>2081.6</ele>
        <time>2020-01-31T15:58:33Z</time>
      </trkpt>
      <trkpt lat="45.28766" lon="5.78818">
        <ele>2081.8</ele>
        <time>2020-01-31T15:58:34Z</time>
      </trkpt>
      <trkpt lat="45.28766" lon="5.78818">
        <ele>2081.8</ele>
        <time>2020-01-31T15:58:35Z</time>
      </trkpt>
      <trkpt lat="45.28766" lon="5.78818">
        <ele>2081.4</ele>
        <time>2020-01-31T15:58:36Z</time>
      </trkpt>
      <trkpt lat="45.28766" lon="5.78818">
        <ele>2081.4</ele>
        <time>2020-01-31T15:58:37Z</time>
      </trkpt>
      <trkpt lat="45.28766" lon="5.78818">
        <ele>2081.4</ele>
        <time>2020-01-31T15:58:38Z</time>
      </trkpt>
      <trkpt lat="45.28766" lon="5.78818">
        <ele>2081.4</ele>
        <time>2020-01-31T15:58:39Z</time>
      </trkpt>
      <trkpt lat="45.28766" lon="5.78818">
        <ele>2081.4</ele>
        <time>2020-01-31T15:58:40Z</time>
      </trkpt>
      <trkpt lat="45.28766" lon="5.78818">
        <ele>2081.2</ele>
        <time>2020-01-31T15:58:41Z</time>
      </trkpt>
      <trkpt lat="45.28766" lon="5.78818">
        <ele>2081.2</ele>
        <time>2020-01-31T15:58:42Z</time>
      </trkpt>
      <trkpt lat="45.28766" lon="5.78818">
        <ele>2081.2</ele>
        <time>2020-01-31T15:58:43Z</time>
      </trkpt>
      <trkpt lat="45.28766" lon="5.78818">
        <ele>2081.4</ele>
        <time>2020-01-31T15:58:44Z</time>
      </trkpt>
      <trkpt lat="45.28766" lon="5.78818">
        <ele>2081.4</ele>
        <time>2020-01-31T15:58:45Z</time>
      </trkpt>
      <trkpt lat="45.28766" lon="5.78818">
        <ele>2081.4</ele>
        <time>2020-01-31T15:58:46Z</time>
      </trkpt>
      <trkpt lat="45.28766" lon="5.78818">
        <ele>2081.4</ele>
        <time>2020-01-31T15:58:47Z</time>
      </trkpt>
      <trkpt lat="45.28766" lon="5.78818">
        <ele>2081.4</ele>
        <time>2020-01-31T15:58:48Z</time>
      </trkpt>
      <trkpt lat="45.28766" lon="5.78818">
        <ele>2081</ele>
        <time>2020-01-31T15:58:49Z</time>
      </trkpt>
      <trkpt lat="45.28766" lon="5.78818">
        <ele>2081</ele>
        <time>2020-01-31T15:58:50Z</time>
      </trkpt>
      <trkpt lat="45.28766" lon="5.78818">
        <ele>2081</ele>
        <time>2020-01-31T15:58:51Z</time>
      </trkpt>
      <trkpt lat="45.28766" lon="5.78818">
        <ele>2081</ele>
        <time>2020-01-31T15:58:52Z</time>
      </trkpt>
      <trkpt lat="45.28766" lon="5.78818">
        <ele>2081</ele>
        <time>2020-01-31T15:58:53Z</time>
      </trkpt>
      <trkpt lat="45.28766" lon="5.78818">
        <ele>2081</ele>
        <time>2020-01-31T15:58:54Z</time>
      </trkpt>
      <trkpt lat="45.28766" lon="5.78818">
        <ele>2081</ele>
        <time>2020-01-31T15:58:55Z</time>
      </trkpt>
      <trkpt lat="45.28766" lon="5.78818">
        <ele>2081</ele>
        <time>2020-01-31T15:58:56Z</time>
      </trkpt>
      <trkpt lat="45.28766" lon="5.78818">
        <ele>2081</ele>
        <time>2020-01-31T15:58:57Z</time>
      </trkpt>
      <trkpt lat="45.28766" lon="5.78818">
        <ele>2081.2</ele>
        <time>2020-01-31T15:58:58Z</time>
      </trkpt>
      <trkpt lat="45.28766" lon="5.78818">
        <ele>2081</ele>
        <time>2020-01-31T15:58:59Z</time>
      </trkpt>
      <trkpt lat="45.28766" lon="5.78818">
        <ele>2081.2</ele>
        <time>2020-01-31T15:59:00Z</time>
      </trkpt>
      <trkpt lat="45.28766" lon="5.78818">
        <ele>2081</ele>
        <time>2020-01-31T15:59:01Z</time>
      </trkpt>
      <trkpt lat="45.28766" lon="5.78818">
        <ele>2081</ele>
        <time>2020-01-31T15:59:02Z</time>
      </trkpt>
      <trkpt lat="45.28766" lon="5.78818">
        <ele>2081.2</ele>
        <time>2020-01-31T15:59:03Z</time>
      </trkpt>
      <trkpt lat="45.28766" lon="5.78818">
        <ele>2081</ele>
        <time>2020-01-31T15:59:04Z</time>
      </trkpt>
      <trkpt lat="45.28766" lon="5.78818">
        <ele>2081.2</ele>
        <time>2020-01-31T15:59:05Z</time>
      </trkpt>
      <trkpt lat="45.28766" lon="5.78818">
        <ele>2081.4</ele>
        <time>2020-01-31T15:59:06Z</time>
      </trkpt>
      <trkpt lat="45.28766" lon="5.78818">
        <ele>2081.4</ele>
        <time>2020-01-31T15:59:07Z</time>
      </trkpt>
      <trkpt lat="45.28766" lon="5.78818">
        <ele>2081.4</ele>
        <time>2020-01-31T15:59:08Z</time>
      </trkpt>
      <trkpt lat="45.28766" lon="5.78818">
        <ele>2081.6</ele>
        <time>2020-01-31T15:59:09Z</time>
      </trkpt>
      <trkpt lat="45.28766" lon="5.78818">
        <ele>2081.4</ele>
        <time>2020-01-31T15:59:10Z</time>
      </trkpt>
      <trkpt lat="45.28766" lon="5.78818">
        <ele>2081.4</ele>
        <time>2020-01-31T15:59:11Z</time>
      </trkpt>
      <trkpt lat="45.28766" lon="5.78818">
        <ele>2081.4</ele>
        <time>2020-01-31T15:59:12Z</time>
      </trkpt>
      <trkpt lat="45.28766" lon="5.78818">
        <ele>2081.4</ele>
        <time>2020-01-31T15:59:13Z</time>
      </trkpt>
      <trkpt lat="45.28766" lon="5.78818">
        <ele>2081.6</ele>
        <time>2020-01-31T15:59:14Z</time>
      </trkpt>
      <trkpt lat="45.28766" lon="5.78818">
        <ele>2081.6</ele>
        <time>2020-01-31T15:59:15Z</time>
      </trkpt>
      <trkpt lat="45.28766" lon="5.78818">
        <ele>2082</ele>
        <time>2020-01-31T15:59:16Z</time>
      </trkpt>
      <trkpt lat="45.28766" lon="5.78818">
        <ele>2082</ele>
        <time>2020-01-31T15:59:17Z</time>
      </trkpt>
      <trkpt lat="45.28766" lon="5.78818">
        <ele>2082.2</ele>
        <time>2020-01-31T15:59:18Z</time>
      </trkpt>
      <trkpt lat="45.28766" lon="5.78818">
        <ele>2082.2</ele>
        <time>2020-01-31T15:59:19Z</time>
      </trkpt>
      <trkpt lat="45.28766" lon="5.78818">
        <ele>2082.2</ele>
        <time>2020-01-31T15:59:20Z</time>
      </trkpt>
      <trkpt lat="45.28766" lon="5.78818">
        <ele>2082.2</ele>
        <time>2020-01-31T15:59:21Z</time>
      </trkpt>
      <trkpt lat="45.28766" lon="5.78818">
        <ele>2082.4</ele>
        <time>2020-01-31T15:59:22Z</time>
      </trkpt>
      <trkpt lat="45.28766" lon="5.78818">
        <ele>2082.4</ele>
        <time>2020-01-31T15:59:23Z</time>
      </trkpt>
      <trkpt lat="45.28766" lon="5.78818">
        <ele>2082.6</ele>
        <time>2020-01-31T15:59:24Z</time>
      </trkpt>
      <trkpt lat="45.28766" lon="5.78818">
        <ele>2082.6</ele>
        <time>2020-01-31T15:59:25Z</time>
      </trkpt>
      <trkpt lat="45.28766" lon="5.78818">
        <ele>2082.8</ele>
        <time>2020-01-31T15:59:26Z</time>
      </trkpt>
      <trkpt lat="45.28766" lon="5.78818">
        <ele>2082.8</ele>
        <time>2020-01-31T15:59:27Z</time>
      </trkpt>
      <trkpt lat="45.28766" lon="5.78818">
        <ele>2083</ele>
        <time>2020-01-31T15:59:28Z</time>
      </trkpt>
      <trkpt lat="45.28766" lon="5.78818">
        <ele>2083</ele>
        <time>2020-01-31T15:59:29Z</time>
      </trkpt>
      <trkpt lat="45.28766" lon="5.78818">
        <ele>2082.8</ele>
        <time>2020-01-31T15:59:30Z</time>
      </trkpt>
      <trkpt lat="45.28766" lon="5.78818">
        <ele>2082.6</ele>
        <time>2020-01-31T15:59:31Z</time>
      </trkpt>
      <trkpt lat="45.28766" lon="5.78818">
        <ele>2082.4</ele>
        <time>2020-01-31T15:59:32Z</time>
      </trkpt>
      <trkpt lat="45.28766" lon="5.78818">
        <ele>2082.2</ele>
        <time>2020-01-31T15:59:33Z</time>
      </trkpt>
      <trkpt lat="45.28766" lon="5.78818">
        <ele>2082</ele>
        <time>2020-01-31T15:59:34Z</time>
      </trkpt>
      <trkpt lat="45.28766" lon="5.78818">
        <ele>2082.2</ele>
        <time>2020-01-31T15:59:35Z</time>
      </trkpt>
      <trkpt lat="45.28766" lon="5.78818">
        <ele>2082.2</ele>
        <time>2020-01-31T15:59:36Z</time>
      </trkpt>
      <trkpt lat="45.28766" lon="5.78818">
        <ele>2082</ele>
        <time>2020-01-31T15:59:37Z</time>
      </trkpt>
      <trkpt lat="45.28766" lon="5.78818">
        <ele>2082</ele>
        <time>2020-01-31T15:59:38Z</time>
      </trkpt>
      <trkpt lat="45.28766" lon="5.78818">
        <ele>2082</ele>
        <time>2020-01-31T15:59:39Z</time>
      </trkpt>
      <trkpt lat="45.28766" lon="5.78818">
        <ele>2081.6</ele>
        <time>2020-01-31T15:59:40Z</time>
      </trkpt>
      <trkpt lat="45.28766" lon="5.78818">
        <ele>2081.8</ele>
        <time>2020-01-31T15:59:41Z</time>
      </trkpt>
      <trkpt lat="45.28766" lon="5.78818">
        <ele>2081.8</ele>
        <time>2020-01-31T15:59:42Z</time>
      </trkpt>
      <trkpt lat="45.28766" lon="5.78818">
        <ele>2081.8</ele>
        <time>2020-01-31T15:59:43Z</time>
      </trkpt>
      <trkpt lat="45.28766" lon="5.78818">
        <ele>2081.8</ele>
        <time>2020-01-31T15:59:44Z</time>
      </trkpt>
      <trkpt lat="45.28766" lon="5.78818">
        <ele>2081.8</ele>
        <time>2020-01-31T15:59:45Z</time>
      </trkpt>
      <trkpt lat="45.28766" lon="5.78818">
        <ele>2081.8</ele>
        <time>2020-01-31T15:59:46Z</time>
      </trkpt>
      <trkpt lat="45.28766" lon="5.78818">
        <ele>2081.8</ele>
        <time>2020-01-31T15:59:47Z</time>
      </trkpt>
      <trkpt lat="45.28766" lon="5.78818">
        <ele>2081.8</ele>
        <time>2020-01-31T15:59:48Z</time>
      </trkpt>
      <trkpt lat="45.28766" lon="5.78818">
        <ele>2081.6</ele>
        <time>2020-01-31T15:59:49Z</time>
      </trkpt>
      <trkpt lat="45.28766" lon="5.78818">
        <ele>2081.4</ele>
        <time>2020-01-31T15:59:50Z</time>
      </trkpt>
      <trkpt lat="45.28766" lon="5.78818">
        <ele>2081.4</ele>
        <time>2020-01-31T15:59:51Z</time>
      </trkpt>
      <trkpt lat="45.28766" lon="5.78818">
        <ele>2081.2</ele>
        <time>2020-01-31T15:59:52Z</time>
      </trkpt>
      <trkpt lat="45.28766" lon="5.78818">
        <ele>2081.2</ele>
        <time>2020-01-31T15:59:53Z</time>
      </trkpt>
      <trkpt lat="45.28766" lon="5.78818">
        <ele>2080.8</ele>
        <time>2020-01-31T15:59:54Z</time>
      </trkpt>
      <trkpt lat="45.28766" lon="5.78818">
        <ele>2081</ele>
        <time>2020-01-31T15:59:55Z</time>
      </trkpt>
      <trkpt lat="45.28766" lon="5.78818">
        <ele>2081.4</ele>
        <time>2020-01-31T15:59:56Z</time>
      </trkpt>
      <trkpt lat="45.28766" lon="5.78818">
        <ele>2081.6</ele>
        <time>2020-01-31T15:59:57Z</time>
      </trkpt>
      <trkpt lat="45.28766" lon="5.78818">
        <ele>2081.4</ele>
        <time>2020-01-31T15:59:58Z</time>
      </trkpt>
      <trkpt lat="45.28766" lon="5.78818">
        <ele>2081.6</ele>
        <time>2020-01-31T15:59:59Z</time>
      </trkpt>
      <trkpt lat="45.28766" lon="5.78818">
        <ele>2081.4</ele>
        <time>2020-01-31T16:00:00Z</time>
      </trkpt>
      <trkpt lat="45.28766" lon="5.78818">
        <ele>2081.6</ele>
        <time>2020-01-31T16:00:01Z</time>
      </trkpt>
      <trkpt lat="45.28766" lon="5.78818">
        <ele>2081.8</ele>
        <time>2020-01-31T16:00:02Z</time>
      </trkpt>
      <trkpt lat="45.28766" lon="5.78818">
        <ele>2082</ele>
        <time>2020-01-31T16:00:03Z</time>
      </trkpt>
      <trkpt lat="45.28766" lon="5.78818">
        <ele>2081.8</ele>
        <time>2020-01-31T16:00:04Z</time>
      </trkpt>
      <trkpt lat="45.28766" lon="5.78818">
        <ele>2081.6</ele>
        <time>2020-01-31T16:00:05Z</time>
      </trkpt>
      <trkpt lat="45.28766" lon="5.78818">
        <ele>2081.2</ele>
        <time>2020-01-31T16:00:06Z</time>
      </trkpt>
      <trkpt lat="45.28766" lon="5.78818">
        <ele>2081</ele>
        <time>2020-01-31T16:00:07Z</time>
      </trkpt>
      <trkpt lat="45.28766" lon="5.78818">
        <ele>2081</ele>
        <time>2020-01-31T16:00:08Z</time>
      </trkpt>
      <trkpt lat="45.28766" lon="5.78818">
        <ele>2080.8</ele>
        <time>2020-01-31T16:00:09Z</time>
      </trkpt>
      <trkpt lat="45.28767" lon="5.78819">
        <ele>2080.8</ele>
        <time>2020-01-31T16:00:10Z</time>
      </trkpt>
      <trkpt lat="45.28767" lon="5.78819">
        <ele>2081</ele>
        <time>2020-01-31T16:00:11Z</time>
      </trkpt>
      <trkpt lat="45.28767" lon="5.78819">
        <ele>2081</ele>
        <time>2020-01-31T16:00:12Z</time>
      </trkpt>
      <trkpt lat="45.28767" lon="5.78819">
        <ele>2081.4</ele>
        <time>2020-01-31T16:00:13Z</time>
      </trkpt>
      <trkpt lat="45.28767" lon="5.78819">
        <ele>2081.6</ele>
        <time>2020-01-31T16:00:14Z</time>
      </trkpt>
      <trkpt lat="45.28766" lon="5.78817">
        <ele>2081.6</ele>
        <time>2020-01-31T16:00:15Z</time>
      </trkpt>
      <trkpt lat="45.28766" lon="5.78817">
        <ele>2081.6</ele>
        <time>2020-01-31T16:00:16Z</time>
      </trkpt>
      <trkpt lat="45.28764" lon="5.78815">
        <ele>2081.2</ele>
        <time>2020-01-31T16:00:17Z</time>
      </trkpt>
      <trkpt lat="45.28764" lon="5.78815">
        <ele>2081.6</ele>
        <time>2020-01-31T16:00:18Z</time>
      </trkpt>
      <trkpt lat="45.28761" lon="5.78813">
        <ele>2081.4</ele>
        <time>2020-01-31T16:00:19Z</time>
      </trkpt>
      <trkpt lat="45.28761" lon="5.78813">
        <ele>2081.4</ele>
        <time>2020-01-31T16:00:20Z</time>
      </trkpt>
      <trkpt lat="45.28758" lon="5.78811">
        <ele>2081.2</ele>
        <time>2020-01-31T16:00:21Z</time>
      </trkpt>
      <trkpt lat="45.28758" lon="5.78811">
        <ele>2081</ele>
        <time>2020-01-31T16:00:22Z</time>
      </trkpt>
      <trkpt lat="45.28755" lon="5.78809">
        <ele>2080.6</ele>
        <time>2020-01-31T16:00:23Z</time>
      </trkpt>
      <trkpt lat="45.28755" lon="5.78809">
        <ele>2080.6</ele>
        <time>2020-01-31T16:00:24Z</time>
      </trkpt>
      <trkpt lat="45.28753" lon="5.78807">
        <ele>2080.4</ele>
        <time>2020-01-31T16:00:25Z</time>
      </trkpt>
      <trkpt lat="45.28751" lon="5.78806">
        <ele>2080.4</ele>
        <time>2020-01-31T16:00:26Z</time>
      </trkpt>
      <trkpt lat="45.28751" lon="5.78806">
        <ele>2080.2</ele>
        <time>2020-01-31T16:00:27Z</time>
      </trkpt>
      <trkpt lat="45.28748" lon="5.78803">
        <ele>2080.2</ele>
        <time>2020-01-31T16:00:28Z</time>
      </trkpt>
      <trkpt lat="45.28748" lon="5.78803">
        <ele>2079.8</ele>
        <time>2020-01-31T16:00:29Z</time>
      </trkpt>
      <trkpt lat="45.28746" lon="5.78801">
        <ele>2079.8</ele>
        <time>2020-01-31T16:00:30Z</time>
      </trkpt>
      <trkpt lat="45.28746" lon="5.78801">
        <ele>2079.2</ele>
        <time>2020-01-31T16:00:31Z</time>
      </trkpt>
      <trkpt lat="45.28743" lon="5.78799">
        <ele>2079.2</ele>
        <time>2020-01-31T16:00:32Z</time>
      </trkpt>
      <trkpt lat="45.28743" lon="5.78799">
        <ele>2079.6</ele>
        <time>2020-01-31T16:00:33Z</time>
      </trkpt>
      <trkpt lat="45.2874" lon="5.78797">
        <ele>2079.6</ele>
        <time>2020-01-31T16:00:34Z</time>
      </trkpt>
      <trkpt lat="45.2874" lon="5.78797">
        <ele>2079.6</ele>
        <time>2020-01-31T16:00:35Z</time>
      </trkpt>
      <trkpt lat="45.28738" lon="5.78796">
        <ele>2079.6</ele>
        <time>2020-01-31T16:00:36Z</time>
      </trkpt>
      <trkpt lat="45.28738" lon="5.78796">
        <ele>2079.8</ele>
        <time>2020-01-31T16:00:37Z</time>
      </trkpt>
      <trkpt lat="45.28736" lon="5.78795">
        <ele>2079.6</ele>
        <time>2020-01-31T16:00:38Z</time>
      </trkpt>
      <trkpt lat="45.28736" lon="5.78795">
        <ele>2079.2</ele>
        <time>2020-01-31T16:00:39Z</time>
      </trkpt>
      <trkpt lat="45.28733" lon="5.78793">
        <ele>2079.2</ele>
        <time>2020-01-31T16:00:40Z</time>
      </trkpt>
      <trkpt lat="45.28733" lon="5.78793">
        <ele>2079.2</ele>
        <time>2020-01-31T16:00:41Z</time>
      </trkpt>
      <trkpt lat="45.28731" lon="5.78791">
        <ele>2079.2</ele>
        <time>2020-01-31T16:00:42Z</time>
      </trkpt>
      <trkpt lat="45.28731" lon="5.78791">
        <ele>2078.8</ele>
        <time>2020-01-31T16:00:43Z</time>
      </trkpt>
      <trkpt lat="45.28728" lon="5.7879">
        <ele>2078.6</ele>
        <time>2020-01-31T16:00:44Z</time>
      </trkpt>
      <trkpt lat="45.28728" lon="5.7879">
        <ele>2078</ele>
        <time>2020-01-31T16:00:45Z</time>
      </trkpt>
      <trkpt lat="45.28726" lon="5.78788">
        <ele>2078</ele>
        <time>2020-01-31T16:00:46Z</time>
      </trkpt>
      <trkpt lat="45.28726" lon="5.78788">
        <ele>2077.8</ele>
        <time>2020-01-31T16:00:47Z</time>
      </trkpt>
      <trkpt lat="45.28724" lon="5.78787">
        <ele>2077.6</ele>
        <time>2020-01-31T16:00:48Z</time>
      </trkpt>
      <trkpt lat="45.28724" lon="5.78787">
        <ele>2077.8</ele>
        <time>2020-01-31T16:00:49Z</time>
      </trkpt>
      <trkpt lat="45.28722" lon="5.78786">
        <ele>2077.6</ele>
        <time>2020-01-31T16:00:50Z</time>
      </trkpt>
      <trkpt lat="45.28722" lon="5.78786">
        <ele>2077.2</ele>
        <time>2020-01-31T16:00:51Z</time>
      </trkpt>
      <trkpt lat="45.2872" lon="5.78785">
        <ele>2077.2</ele>
        <time>2020-01-31T16:00:52Z</time>
      </trkpt>
      <trkpt lat="45.2872" lon="5.78785">
        <ele>2077.2</ele>
        <time>2020-01-31T16:00:53Z</time>
      </trkpt>
      <trkpt lat="45.28718" lon="5.78785">
        <ele>2077.2</ele>
        <time>2020-01-31T16:00:54Z</time>
      </trkpt>
      <trkpt lat="45.28718" lon="5.78785">
        <ele>2077.2</ele>
        <time>2020-01-31T16:00:55Z</time>
      </trkpt>
      <trkpt lat="45.28716" lon="5.78785">
        <ele>2077.4</ele>
        <time>2020-01-31T16:00:56Z</time>
      </trkpt>
      <trkpt lat="45.28716" lon="5.78785">
        <ele>2077.4</ele>
        <time>2020-01-31T16:00:57Z</time>
      </trkpt>
      <trkpt lat="45.28716" lon="5.78785">
        <ele>2077.2</ele>
        <time>2020-01-31T16:00:58Z</time>
      </trkpt>
      <trkpt lat="45.28714" lon="5.78783">
        <ele>2077.2</ele>
        <time>2020-01-31T16:00:59Z</time>
      </trkpt>
      <trkpt lat="45.28714" lon="5.78783">
        <ele>2077</ele>
        <time>2020-01-31T16:01:00Z</time>
      </trkpt>
      <trkpt lat="45.28714" lon="5.78783">
        <ele>2077</ele>
        <time>2020-01-31T16:01:01Z</time>
      </trkpt>
      <trkpt lat="45.28714" lon="5.78783">
        <ele>2076.8</ele>
        <time>2020-01-31T16:01:02Z</time>
      </trkpt>
      <trkpt lat="45.28714" lon="5.78783">
        <ele>2076.6</ele>
        <time>2020-01-31T16:01:03Z</time>
      </trkpt>
      <trkpt lat="45.28712" lon="5.78782">
        <ele>2076.8</ele>
        <time>2020-01-31T16:01:04Z</time>
      </trkpt>
      <trkpt lat="45.28712" lon="5.78782">
        <ele>2076.8</ele>
        <time>2020-01-31T16:01:05Z</time>
      </trkpt>
      <trkpt lat="45.28712" lon="5.78782">
        <ele>2076.4</ele>
        <time>2020-01-31T16:01:06Z</time>
      </trkpt>
      <trkpt lat="45.28712" lon="5.78782">
        <ele>2076.4</ele>
        <time>2020-01-31T16:01:07Z</time>
      </trkpt>
      <trkpt lat="45.28712" lon="5.78782">
        <ele>2076.2</ele>
        <time>2020-01-31T16:01:08Z</time>
      </trkpt>
      <trkpt lat="45.28712" lon="5.78782">
        <ele>2075.8</ele>
        <time>2020-01-31T16:01:09Z</time>
      </trkpt>
      <trkpt lat="45.2871" lon="5.78783">
        <ele>2075.6</ele>
        <time>2020-01-31T16:01:10Z</time>
      </trkpt>
      <trkpt lat="45.2871" lon="5.78783">
        <ele>2075.2</ele>
        <time>2020-01-31T16:01:11Z</time>
      </trkpt>
      <trkpt lat="45.2871" lon="5.78783">
        <ele>2075</ele>
        <time>2020-01-31T16:01:12Z</time>
      </trkpt>
      <trkpt lat="45.2871" lon="5.78783">
        <ele>2075</ele>
        <time>2020-01-31T16:01:13Z</time>
      </trkpt>
      <trkpt lat="45.2871" lon="5.78783">
        <ele>2074.8</ele>
        <time>2020-01-31T16:01:14Z</time>
      </trkpt>
      <trkpt lat="45.2871" lon="5.78783">
        <ele>2075</ele>
        <time>2020-01-31T16:01:15Z</time>
      </trkpt>
      <trkpt lat="45.2871" lon="5.78783">
        <ele>2075.4</ele>
        <time>2020-01-31T16:01:16Z</time>
      </trkpt>
      <trkpt lat="45.2871" lon="5.78783">
        <ele>2075.2</ele>
        <time>2020-01-31T16:01:17Z</time>
      </trkpt>
      <trkpt lat="45.2871" lon="5.78783">
        <ele>2075.2</ele>
        <time>2020-01-31T16:01:18Z</time>
      </trkpt>
      <trkpt lat="45.2871" lon="5.78783">
        <ele>2075.2</ele>
        <time>2020-01-31T16:01:19Z</time>
      </trkpt>
      <trkpt lat="45.2871" lon="5.78783">
        <ele>2075</ele>
        <time>2020-01-31T16:01:20Z</time>
      </trkpt>
      <trkpt lat="45.28711" lon="5.78786">
        <ele>2075</ele>
        <time>2020-01-31T16:01:21Z</time>
      </trkpt>
      <trkpt lat="45.2871" lon="5.78787">
        <ele>2075</ele>
        <time>2020-01-31T16:01:22Z</time>
      </trkpt>
      <trkpt lat="45.28709" lon="5.78787">
        <ele>2074.8</ele>
        <time>2020-01-31T16:01:23Z</time>
      </trkpt>
      <trkpt lat="45.28709" lon="5.78788">
        <ele>2074.6</ele>
        <time>2020-01-31T16:01:24Z</time>
      </trkpt>
      <trkpt lat="45.28708" lon="5.78789">
        <ele>2074.4</ele>
        <time>2020-01-31T16:01:25Z</time>
      </trkpt>
      <trkpt lat="45.28708" lon="5.7879">
        <ele>2074.4</ele>
        <time>2020-01-31T16:01:26Z</time>
      </trkpt>
      <trkpt lat="45.28707" lon="5.78791">
        <ele>2074</ele>
        <time>2020-01-31T16:01:27Z</time>
      </trkpt>
      <trkpt lat="45.28706" lon="5.78792">
        <ele>2073.6</ele>
        <time>2020-01-31T16:01:28Z</time>
      </trkpt>
      <trkpt lat="45.28706" lon="5.78792">
        <ele>2073.4</ele>
        <time>2020-01-31T16:01:29Z</time>
      </trkpt>
      <trkpt lat="45.28705" lon="5.78793">
        <ele>2072</ele>
        <time>2020-01-31T16:01:30Z</time>
      </trkpt>
      <trkpt lat="45.28704" lon="5.78794">
        <ele>2071.8</ele>
        <time>2020-01-31T16:01:31Z</time>
      </trkpt>
      <trkpt lat="45.28704" lon="5.78795">
        <ele>2071.8</ele>
        <time>2020-01-31T16:01:32Z</time>
      </trkpt>
      <trkpt lat="45.28704" lon="5.78795">
        <ele>2071.8</ele>
        <time>2020-01-31T16:01:33Z</time>
      </trkpt>
      <trkpt lat="45.28704" lon="5.78795">
        <ele>2072</ele>
        <time>2020-01-31T16:01:34Z</time>
      </trkpt>
      <trkpt lat="45.28704" lon="5.78795">
        <ele>2072.2</ele>
        <time>2020-01-31T16:01:35Z</time>
      </trkpt>
      <trkpt lat="45.28704" lon="5.78795">
        <ele>2072.2</ele>
        <time>2020-01-31T16:01:36Z</time>
      </trkpt>
      <trkpt lat="45.28704" lon="5.78795">
        <ele>2072</ele>
        <time>2020-01-31T16:01:37Z</time>
      </trkpt>
      <trkpt lat="45.28705" lon="5.78793">
        <ele>2072.4</ele>
        <time>2020-01-31T16:01:38Z</time>
      </trkpt>
      <trkpt lat="45.28705" lon="5.78793">
        <ele>2072.2</ele>
        <time>2020-01-31T16:01:39Z</time>
      </trkpt>
      <trkpt lat="45.28705" lon="5.78793">
        <ele>2072</ele>
        <time>2020-01-31T16:01:40Z</time>
      </trkpt>
      <trkpt lat="45.28705" lon="5.78793">
        <ele>2072.2</ele>
        <time>2020-01-31T16:01:41Z</time>
      </trkpt>
      <trkpt lat="45.28705" lon="5.78793">
        <ele>2072.4</ele>
        <time>2020-01-31T16:01:42Z</time>
      </trkpt>
      <trkpt lat="45.28705" lon="5.78793">
        <ele>2072.4</ele>
        <time>2020-01-31T16:01:43Z</time>
      </trkpt>
      <trkpt lat="45.28705" lon="5.78793">
        <ele>2072.4</ele>
        <time>2020-01-31T16:01:44Z</time>
      </trkpt>
      <trkpt lat="45.28705" lon="5.78793">
        <ele>2072.2</ele>
        <time>2020-01-31T16:01:45Z</time>
      </trkpt>
      <trkpt lat="45.28705" lon="5.78793">
        <ele>2072.6</ele>
        <time>2020-01-31T16:01:46Z</time>
      </trkpt>
      <trkpt lat="45.28705" lon="5.78793">
        <ele>2072.6</ele>
        <time>2020-01-31T16:01:47Z</time>
      </trkpt>
      <trkpt lat="45.28705" lon="5.78793">
        <ele>2072.6</ele>
        <time>2020-01-31T16:01:48Z</time>
      </trkpt>
      <trkpt lat="45.28705" lon="5.78793">
        <ele>2073</ele>
        <time>2020-01-31T16:01:49Z</time>
      </trkpt>
      <trkpt lat="45.28705" lon="5.78793">
        <ele>2073</ele>
        <time>2020-01-31T16:01:50Z</time>
      </trkpt>
      <trkpt lat="45.28705" lon="5.78793">
        <ele>2073</ele>
        <time>2020-01-31T16:01:51Z</time>
      </trkpt>
      <trkpt lat="45.28705" lon="5.78793">
        <ele>2072.6</ele>
        <time>2020-01-31T16:01:52Z</time>
      </trkpt>
      <trkpt lat="45.28705" lon="5.78793">
        <ele>2072.4</ele>
        <time>2020-01-31T16:01:53Z</time>
      </trkpt>
      <trkpt lat="45.28705" lon="5.78793">
        <ele>2071.8</ele>
        <time>2020-01-31T16:01:54Z</time>
      </trkpt>
      <trkpt lat="45.28705" lon="5.78793">
        <ele>2071.6</ele>
        <time>2020-01-31T16:01:55Z</time>
      </trkpt>
      <trkpt lat="45.28705" lon="5.78793">
        <ele>2071</ele>
        <time>2020-01-31T16:01:56Z</time>
      </trkpt>
      <trkpt lat="45.28705" lon="5.78793">
        <ele>2070.8</ele>
        <time>2020-01-31T16:01:57Z</time>
      </trkpt>
      <trkpt lat="45.28705" lon="5.78793">
        <ele>2071</ele>
        <time>2020-01-31T16:01:58Z</time>
      </trkpt>
      <trkpt lat="45.28705" lon="5.78793">
        <ele>2071</ele>
        <time>2020-01-31T16:01:59Z</time>
      </trkpt>
      <trkpt lat="45.28705" lon="5.78793">
        <ele>2071</ele>
        <time>2020-01-31T16:02:00Z</time>
      </trkpt>
      <trkpt lat="45.28705" lon="5.78793">
        <ele>2070.8</ele>
        <time>2020-01-31T16:02:01Z</time>
      </trkpt>
      <trkpt lat="45.28705" lon="5.78793">
        <ele>2070.8</ele>
        <time>2020-01-31T16:02:02Z</time>
      </trkpt>
      <trkpt lat="45.28705" lon="5.78793">
        <ele>2070.8</ele>
        <time>2020-01-31T16:02:03Z</time>
      </trkpt>
      <trkpt lat="45.28705" lon="5.78793">
        <ele>2070.6</ele>
        <time>2020-01-31T16:02:04Z</time>
      </trkpt>
      <trkpt lat="45.28705" lon="5.78793">
        <ele>2070.4</ele>
        <time>2020-01-31T16:02:05Z</time>
      </trkpt>
      <trkpt lat="45.28705" lon="5.78793">
        <ele>2070.4</ele>
        <time>2020-01-31T16:02:06Z</time>
      </trkpt>
      <trkpt lat="45.28705" lon="5.78793">
        <ele>2070.4</ele>
        <time>2020-01-31T16:02:07Z</time>
      </trkpt>
      <trkpt lat="45.28705" lon="5.78793">
        <ele>2070.2</ele>
        <time>2020-01-31T16:02:08Z</time>
      </trkpt>
      <trkpt lat="45.28705" lon="5.78793">
        <ele>2070.4</ele>
        <time>2020-01-31T16:02:09Z</time>
      </trkpt>
      <trkpt lat="45.28705" lon="5.78793">
        <ele>2070.4</ele>
        <time>2020-01-31T16:02:10Z</time>
      </trkpt>
      <trkpt lat="45.28705" lon="5.78793">
        <ele>2070.2</ele>
        <time>2020-01-31T16:02:11Z</time>
      </trkpt>
      <trkpt lat="45.28705" lon="5.78793">
        <ele>2071</ele>
        <time>2020-01-31T16:02:12Z</time>
      </trkpt>
      <trkpt lat="45.28705" lon="5.78793">
        <ele>2070.8</ele>
        <time>2020-01-31T16:02:13Z</time>
      </trkpt>
      <trkpt lat="45.28705" lon="5.78793">
        <ele>2070.6</ele>
        <time>2020-01-31T16:02:14Z</time>
      </trkpt>
      <trkpt lat="45.28705" lon="5.78793">
        <ele>2070.8</ele>
        <time>2020-01-31T16:02:15Z</time>
      </trkpt>
      <trkpt lat="45.28705" lon="5.78793">
        <ele>2070.6</ele>
        <time>2020-01-31T16:02:16Z</time>
      </trkpt>
      <trkpt lat="45.28705" lon="5.78793">
        <ele>2070.8</ele>
        <time>2020-01-31T16:02:17Z</time>
      </trkpt>
      <trkpt lat="45.28705" lon="5.78793">
        <ele>2070.6</ele>
        <time>2020-01-31T16:02:18Z</time>
      </trkpt>
      <trkpt lat="45.28705" lon="5.78793">
        <ele>2070.6</ele>
        <time>2020-01-31T16:02:19Z</time>
      </trkpt>
      <trkpt lat="45.28705" lon="5.78793">
        <ele>2070.6</ele>
        <time>2020-01-31T16:02:20Z</time>
      </trkpt>
      <trkpt lat="45.28705" lon="5.78793">
        <ele>2070.8</ele>
        <time>2020-01-31T16:02:21Z</time>
      </trkpt>
      <trkpt lat="45.28705" lon="5.78793">
        <ele>2070.6</ele>
        <time>2020-01-31T16:02:22Z</time>
      </trkpt>
      <trkpt lat="45.28705" lon="5.78793">
        <ele>2070.6</ele>
        <time>2020-01-31T16:02:23Z</time>
      </trkpt>
      <trkpt lat="45.28705" lon="5.78793">
        <ele>2070.6</ele>
        <time>2020-01-31T16:02:24Z</time>
      </trkpt>
      <trkpt lat="45.28705" lon="5.78793">
        <ele>2071.4</ele>
        <time>2020-01-31T16:02:25Z</time>
      </trkpt>
      <trkpt lat="45.28705" lon="5.78793">
        <ele>2071.8</ele>
        <time>2020-01-31T16:02:26Z</time>
      </trkpt>
      <trkpt lat="45.28705" lon="5.78793">
        <ele>2072.4</ele>
        <time>2020-01-31T16:02:27Z</time>
      </trkpt>
      <trkpt lat="45.28705" lon="5.78793">
        <ele>2072.6</ele>
        <time>2020-01-31T16:02:28Z</time>
      </trkpt>
      <trkpt lat="45.28705" lon="5.78793">
        <ele>2072.4</ele>
        <time>2020-01-31T16:02:29Z</time>
      </trkpt>
      <trkpt lat="45.28705" lon="5.78793">
        <ele>2072.4</ele>
        <time>2020-01-31T16:02:30Z</time>
      </trkpt>
      <trkpt lat="45.28705" lon="5.78793">
        <ele>2072.2</ele>
        <time>2020-01-31T16:02:31Z</time>
      </trkpt>
      <trkpt lat="45.28705" lon="5.78793">
        <ele>2072.4</ele>
        <time>2020-01-31T16:02:32Z</time>
      </trkpt>
      <trkpt lat="45.28705" lon="5.78793">
        <ele>2072.4</ele>
        <time>2020-01-31T16:02:33Z</time>
      </trkpt>
      <trkpt lat="45.28705" lon="5.78793">
        <ele>2072.4</ele>
        <time>2020-01-31T16:02:34Z</time>
      </trkpt>
      <trkpt lat="45.28705" lon="5.78793">
        <ele>2072.4</ele>
        <time>2020-01-31T16:02:35Z</time>
      </trkpt>
      <trkpt lat="45.28705" lon="5.78793">
        <ele>2072.4</ele>
        <time>2020-01-31T16:02:36Z</time>
      </trkpt>
      <trkpt lat="45.28705" lon="5.78793">
        <ele>2072.4</ele>
        <time>2020-01-31T16:02:37Z</time>
      </trkpt>
      <trkpt lat="45.28705" lon="5.78793">
        <ele>2072.6</ele>
        <time>2020-01-31T16:02:38Z</time>
      </trkpt>
      <trkpt lat="45.28705" lon="5.78793">
        <ele>2072.6</ele>
        <time>2020-01-31T16:02:39Z</time>
      </trkpt>
      <trkpt lat="45.28705" lon="5.78793">
        <ele>2072.4</ele>
        <time>2020-01-31T16:02:40Z</time>
      </trkpt>
      <trkpt lat="45.28705" lon="5.78793">
        <ele>2072.4</ele>
        <time>2020-01-31T16:02:41Z</time>
      </trkpt>
      <trkpt lat="45.28705" lon="5.78793">
        <ele>2072.2</ele>
        <time>2020-01-31T16:02:42Z</time>
      </trkpt>
      <trkpt lat="45.28705" lon="5.78793">
        <ele>2072.4</ele>
        <time>2020-01-31T16:02:43Z</time>
      </trkpt>
      <trkpt lat="45.28705" lon="5.78793">
        <ele>2072.4</ele>
        <time>2020-01-31T16:02:44Z</time>
      </trkpt>
      <trkpt lat="45.28705" lon="5.78793">
        <ele>2072.8</ele>
        <time>2020-01-31T16:02:45Z</time>
      </trkpt>
      <trkpt lat="45.28705" lon="5.78793">
        <ele>2072.8</ele>
        <time>2020-01-31T16:02:46Z</time>
      </trkpt>
      <trkpt lat="45.28705" lon="5.78793">
        <ele>2072.6</ele>
        <time>2020-01-31T16:02:47Z</time>
      </trkpt>
      <trkpt lat="45.28705" lon="5.78793">
        <ele>2072.8</ele>
        <time>2020-01-31T16:02:48Z</time>
      </trkpt>
      <trkpt lat="45.28705" lon="5.78793">
        <ele>2072.8</ele>
        <time>2020-01-31T16:02:49Z</time>
      </trkpt>
      <trkpt lat="45.28705" lon="5.78793">
        <ele>2072.6</ele>
        <time>2020-01-31T16:02:50Z</time>
      </trkpt>
      <trkpt lat="45.28705" lon="5.78793">
        <ele>2072.6</ele>
        <time>2020-01-31T16:02:51Z</time>
      </trkpt>
      <trkpt lat="45.28705" lon="5.78793">
        <ele>2072.6</ele>
        <time>2020-01-31T16:02:52Z</time>
      </trkpt>
      <trkpt lat="45.28705" lon="5.78793">
        <ele>2072.6</ele>
        <time>2020-01-31T16:02:53Z</time>
      </trkpt>
      <trkpt lat="45.28705" lon="5.78793">
        <ele>2072.8</ele>
        <time>2020-01-31T16:02:54Z</time>
      </trkpt>
      <trkpt lat="45.28705" lon="5.78793">
        <ele>2072.8</ele>
        <time>2020-01-31T16:02:55Z</time>
      </trkpt>
      <trkpt lat="45.28705" lon="5.78793">
        <ele>2072.6</ele>
        <time>2020-01-31T16:02:56Z</time>
      </trkpt>
      <trkpt lat="45.28705" lon="5.78793">
        <ele>2072.8</ele>
        <time>2020-01-31T16:02:57Z</time>
      </trkpt>
      <trkpt lat="45.28705" lon="5.78793">
        <ele>2073</ele>
        <time>2020-01-31T16:02:58Z</time>
      </trkpt>
      <trkpt lat="45.28705" lon="5.78793">
        <ele>2073</ele>
        <time>2020-01-31T16:02:59Z</time>
      </trkpt>
      <trkpt lat="45.28705" lon="5.78793">
        <ele>2072.8</ele>
        <time>2020-01-31T16:03:00Z</time>
      </trkpt>
      <trkpt lat="45.28705" lon="5.78793">
        <ele>2073.2</ele>
        <time>2020-01-31T16:03:01Z</time>
      </trkpt>
      <trkpt lat="45.28705" lon="5.78793">
        <ele>2073</ele>
        <time>2020-01-31T16:03:02Z</time>
      </trkpt>
      <trkpt lat="45.28705" lon="5.7879">
        <ele>2073.2</ele>
        <time>2020-01-31T16:03:03Z</time>
      </trkpt>
      <trkpt lat="45.28705" lon="5.7879">
        <ele>2073.2</ele>
        <time>2020-01-31T16:03:04Z</time>
      </trkpt>
      <trkpt lat="45.28705" lon="5.7879">
        <ele>2073.4</ele>
        <time>2020-01-31T16:03:05Z</time>
      </trkpt>
      <trkpt lat="45.28705" lon="5.7879">
        <ele>2073.6</ele>
        <time>2020-01-31T16:03:06Z</time>
      </trkpt>
      <trkpt lat="45.28705" lon="5.7879">
        <ele>2073.4</ele>
        <time>2020-01-31T16:03:07Z</time>
      </trkpt>
      <trkpt lat="45.28705" lon="5.7879">
        <ele>2073.4</ele>
        <time>2020-01-31T16:03:08Z</time>
      </trkpt>
      <trkpt lat="45.28705" lon="5.7879">
        <ele>2073.4</ele>
        <time>2020-01-31T16:03:09Z</time>
      </trkpt>
      <trkpt lat="45.28705" lon="5.7879">
        <ele>2072.8</ele>
        <time>2020-01-31T16:03:10Z</time>
      </trkpt>
      <trkpt lat="45.28705" lon="5.7879">
        <ele>2072.4</ele>
        <time>2020-01-31T16:03:11Z</time>
      </trkpt>
      <trkpt lat="45.28705" lon="5.7879">
        <ele>2072</ele>
        <time>2020-01-31T16:03:12Z</time>
      </trkpt>
      <trkpt lat="45.28705" lon="5.7879">
        <ele>2072</ele>
        <time>2020-01-31T16:03:13Z</time>
      </trkpt>
      <trkpt lat="45.28705" lon="5.7879">
        <ele>2071.8</ele>
        <time>2020-01-31T16:03:14Z</time>
      </trkpt>
      <trkpt lat="45.28705" lon="5.7879">
        <ele>2071.6</ele>
        <time>2020-01-31T16:03:15Z</time>
      </trkpt>
      <trkpt lat="45.28705" lon="5.7879">
        <ele>2071.6</ele>
        <time>2020-01-31T16:03:16Z</time>
      </trkpt>
      <trkpt lat="45.28705" lon="5.7879">
        <ele>2071.4</ele>
        <time>2020-01-31T16:03:17Z</time>
      </trkpt>
      <trkpt lat="45.28705" lon="5.7879">
        <ele>2071</ele>
        <time>2020-01-31T16:03:18Z</time>
      </trkpt>
      <trkpt lat="45.28705" lon="5.7879">
        <ele>2071.6</ele>
        <time>2020-01-31T16:03:19Z</time>
      </trkpt>
      <trkpt lat="45.28705" lon="5.7879">
        <ele>2072</ele>
        <time>2020-01-31T16:03:20Z</time>
      </trkpt>
      <trkpt lat="45.28705" lon="5.7879">
        <ele>2072.2</ele>
        <time>2020-01-31T16:03:21Z</time>
      </trkpt>
      <trkpt lat="45.28705" lon="5.7879">
        <ele>2072</ele>
        <time>2020-01-31T16:03:22Z</time>
      </trkpt>
      <trkpt lat="45.28705" lon="5.7879">
        <ele>2072</ele>
        <time>2020-01-31T16:03:23Z</time>
      </trkpt>
      <trkpt lat="45.28705" lon="5.7879">
        <ele>2071.8</ele>
        <time>2020-01-31T16:03:24Z</time>
      </trkpt>
      <trkpt lat="45.28705" lon="5.7879">
        <ele>2071.8</ele>
        <time>2020-01-31T16:03:25Z</time>
      </trkpt>
      <trkpt lat="45.28705" lon="5.7879">
        <ele>2072</ele>
        <time>2020-01-31T16:03:26Z</time>
      </trkpt>
      <trkpt lat="45.28705" lon="5.7879">
        <ele>2071.4</ele>
        <time>2020-01-31T16:03:27Z</time>
      </trkpt>
      <trkpt lat="45.28705" lon="5.7879">
        <ele>2071.4</ele>
        <time>2020-01-31T16:03:28Z</time>
      </trkpt>
      <trkpt lat="45.28705" lon="5.7879">
        <ele>2071.4</ele>
        <time>2020-01-31T16:03:29Z</time>
      </trkpt>
      <trkpt lat="45.28705" lon="5.7879">
        <ele>2071.6</ele>
        <time>2020-01-31T16:03:30Z</time>
      </trkpt>
      <trkpt lat="45.28705" lon="5.7879">
        <ele>2071.4</ele>
        <time>2020-01-31T16:03:31Z</time>
      </trkpt>
      <trkpt lat="45.28705" lon="5.7879">
        <ele>2071.6</ele>
        <time>2020-01-31T16:03:32Z</time>
      </trkpt>
      <trkpt lat="45.28705" lon="5.7879">
        <ele>2072</ele>
        <time>2020-01-31T16:03:33Z</time>
      </trkpt>
      <trkpt lat="45.28705" lon="5.7879">
        <ele>2072.4</ele>
        <time>2020-01-31T16:03:34Z</time>
      </trkpt>
      <trkpt lat="45.28705" lon="5.7879">
        <ele>2072.2</ele>
        <time>2020-01-31T16:03:35Z</time>
      </trkpt>
      <trkpt lat="45.28705" lon="5.7879">
        <ele>2072</ele>
        <time>2020-01-31T16:03:36Z</time>
      </trkpt>
      <trkpt lat="45.28705" lon="5.7879">
        <ele>2072.4</ele>
        <time>2020-01-31T16:03:37Z</time>
      </trkpt>
      <trkpt lat="45.28705" lon="5.7879">
        <ele>2072.2</ele>
        <time>2020-01-31T16:03:38Z</time>
      </trkpt>
      <trkpt lat="45.28705" lon="5.7879">
        <ele>2072</ele>
        <time>2020-01-31T16:03:39Z</time>
      </trkpt>
      <trkpt lat="45.28705" lon="5.7879">
        <ele>2071.8</ele>
        <time>2020-01-31T16:03:40Z</time>
      </trkpt>
      <trkpt lat="45.28705" lon="5.7879">
        <ele>2071.8</ele>
        <time>2020-01-31T16:03:41Z</time>
      </trkpt>
      <trkpt lat="45.28705" lon="5.7879">
        <ele>2072</ele>
        <time>2020-01-31T16:03:42Z</time>
      </trkpt>
      <trkpt lat="45.28705" lon="5.7879">
        <ele>2072.2</ele>
        <time>2020-01-31T16:03:43Z</time>
      </trkpt>
      <trkpt lat="45.28705" lon="5.7879">
        <ele>2072.2</ele>
        <time>2020-01-31T16:03:44Z</time>
      </trkpt>
      <trkpt lat="45.28705" lon="5.7879">
        <ele>2072</ele>
        <time>2020-01-31T16:03:45Z</time>
      </trkpt>
      <trkpt lat="45.28705" lon="5.7879">
        <ele>2071.8</ele>
        <time>2020-01-31T16:03:46Z</time>
      </trkpt>
      <trkpt lat="45.28705" lon="5.7879">
        <ele>2071.4</ele>
        <time>2020-01-31T16:03:47Z</time>
      </trkpt>
      <trkpt lat="45.28705" lon="5.7879">
        <ele>2071.6</ele>
        <time>2020-01-31T16:03:48Z</time>
      </trkpt>
      <trkpt lat="45.28705" lon="5.7879">
        <ele>2071.6</ele>
        <time>2020-01-31T16:03:49Z</time>
      </trkpt>
      <trkpt lat="45.28705" lon="5.7879">
        <ele>2071.6</ele>
        <time>2020-01-31T16:03:50Z</time>
      </trkpt>
      <trkpt lat="45.28705" lon="5.7879">
        <ele>2071.6</ele>
        <time>2020-01-31T16:03:51Z</time>
      </trkpt>
      <trkpt lat="45.28705" lon="5.7879">
        <ele>2071.6</ele>
        <time>2020-01-31T16:03:52Z</time>
      </trkpt>
      <trkpt lat="45.28705" lon="5.7879">
        <ele>2071.6</ele>
        <time>2020-01-31T16:03:53Z</time>
      </trkpt>
      <trkpt lat="45.28705" lon="5.7879">
        <ele>2071.4</ele>
        <time>2020-01-31T16:03:54Z</time>
      </trkpt>
      <trkpt lat="45.28705" lon="5.7879">
        <ele>2071.4</ele>
        <time>2020-01-31T16:03:55Z</time>
      </trkpt>
      <trkpt lat="45.28705" lon="5.7879">
        <ele>2071.4</ele>
        <time>2020-01-31T16:03:56Z</time>
      </trkpt>
      <trkpt lat="45.28705" lon="5.7879">
        <ele>2071.4</ele>
        <time>2020-01-31T16:03:57Z</time>
      </trkpt>
      <trkpt lat="45.28705" lon="5.7879">
        <ele>2071.4</ele>
        <time>2020-01-31T16:03:58Z</time>
      </trkpt>
      <trkpt lat="45.28705" lon="5.7879">
        <ele>2071.6</ele>
        <time>2020-01-31T16:03:59Z</time>
      </trkpt>
      <trkpt lat="45.28705" lon="5.7879">
        <ele>2071.8</ele>
        <time>2020-01-31T16:04:00Z</time>
      </trkpt>
      <trkpt lat="45.28705" lon="5.7879">
        <ele>2072.2</ele>
        <time>2020-01-31T16:04:01Z</time>
      </trkpt>
      <trkpt lat="45.28705" lon="5.7879">
        <ele>2072.4</ele>
        <time>2020-01-31T16:04:02Z</time>
      </trkpt>
      <trkpt lat="45.28705" lon="5.7879">
        <ele>2072.6</ele>
        <time>2020-01-31T16:04:03Z</time>
      </trkpt>
      <trkpt lat="45.28705" lon="5.7879">
        <ele>2072.6</ele>
        <time>2020-01-31T16:04:04Z</time>
      </trkpt>
      <trkpt lat="45.28705" lon="5.7879">
        <ele>2072.4</ele>
        <time>2020-01-31T16:04:05Z</time>
      </trkpt>
      <trkpt lat="45.28705" lon="5.7879">
        <ele>2073</ele>
        <time>2020-01-31T16:04:06Z</time>
      </trkpt>
      <trkpt lat="45.28705" lon="5.7879">
        <ele>2073.2</ele>
        <time>2020-01-31T16:04:07Z</time>
      </trkpt>
      <trkpt lat="45.28705" lon="5.7879">
        <ele>2073.2</ele>
        <time>2020-01-31T16:04:08Z</time>
      </trkpt>
      <trkpt lat="45.28705" lon="5.7879">
        <ele>2073.2</ele>
        <time>2020-01-31T16:04:09Z</time>
      </trkpt>
      <trkpt lat="45.28705" lon="5.7879">
        <ele>2073.2</ele>
        <time>2020-01-31T16:04:10Z</time>
      </trkpt>
      <trkpt lat="45.28705" lon="5.7879">
        <ele>2073.2</ele>
        <time>2020-01-31T16:04:11Z</time>
      </trkpt>
      <trkpt lat="45.28705" lon="5.7879">
        <ele>2073.4</ele>
        <time>2020-01-31T16:04:12Z</time>
      </trkpt>
      <trkpt lat="45.28705" lon="5.7879">
        <ele>2073.2</ele>
        <time>2020-01-31T16:04:13Z</time>
      </trkpt>
      <trkpt lat="45.28705" lon="5.7879">
        <ele>2073</ele>
        <time>2020-01-31T16:04:14Z</time>
      </trkpt>
      <trkpt lat="45.28705" lon="5.7879">
        <ele>2072.8</ele>
        <time>2020-01-31T16:04:15Z</time>
      </trkpt>
      <trkpt lat="45.28705" lon="5.7879">
        <ele>2072.4</ele>
        <time>2020-01-31T16:04:16Z</time>
      </trkpt>
      <trkpt lat="45.28705" lon="5.7879">
        <ele>2072.4</ele>
        <time>2020-01-31T16:04:17Z</time>
      </trkpt>
      <trkpt lat="45.28705" lon="5.7879">
        <ele>2072.6</ele>
        <time>2020-01-31T16:04:18Z</time>
      </trkpt>
      <trkpt lat="45.28705" lon="5.7879">
        <ele>2073</ele>
        <time>2020-01-31T16:04:19Z</time>
      </trkpt>
      <trkpt lat="45.28705" lon="5.7879">
        <ele>2073.2</ele>
        <time>2020-01-31T16:04:20Z</time>
      </trkpt>
      <trkpt lat="45.28705" lon="5.7879">
        <ele>2073.2</ele>
        <time>2020-01-31T16:04:21Z</time>
      </trkpt>
      <trkpt lat="45.28705" lon="5.7879">
        <ele>2073.4</ele>
        <time>2020-01-31T16:04:22Z</time>
      </trkpt>
      <trkpt lat="45.28705" lon="5.7879">
        <ele>2073.2</ele>
        <time>2020-01-31T16:04:23Z</time>
      </trkpt>
      <trkpt lat="45.28705" lon="5.7879">
        <ele>2073</ele>
        <time>2020-01-31T16:04:24Z</time>
      </trkpt>
      <trkpt lat="45.28705" lon="5.7879">
        <ele>2073.2</ele>
        <time>2020-01-31T16:04:25Z</time>
      </trkpt>
      <trkpt lat="45.28705" lon="5.7879">
        <ele>2073</ele>
        <time>2020-01-31T16:04:26Z</time>
      </trkpt>
      <trkpt lat="45.28705" lon="5.7879">
        <ele>2072.8</ele>
        <time>2020-01-31T16:04:27Z</time>
      </trkpt>
      <trkpt lat="45.28705" lon="5.7879">
        <ele>2072.6</ele>
        <time>2020-01-31T16:04:28Z</time>
      </trkpt>
      <trkpt lat="45.28705" lon="5.7879">
        <ele>2072.6</ele>
        <time>2020-01-31T16:04:29Z</time>
      </trkpt>
      <trkpt lat="45.28705" lon="5.7879">
        <ele>2072.6</ele>
        <time>2020-01-31T16:04:30Z</time>
      </trkpt>
      <trkpt lat="45.28705" lon="5.7879">
        <ele>2073</ele>
        <time>2020-01-31T16:04:31Z</time>
      </trkpt>
      <trkpt lat="45.28705" lon="5.7879">
        <ele>2073</ele>
        <time>2020-01-31T16:04:32Z</time>
      </trkpt>
      <trkpt lat="45.28705" lon="5.7879">
        <ele>2073.4</ele>
        <time>2020-01-31T16:04:33Z</time>
      </trkpt>
      <trkpt lat="45.28705" lon="5.7879">
        <ele>2073.4</ele>
        <time>2020-01-31T16:04:34Z</time>
      </trkpt>
      <trkpt lat="45.28705" lon="5.7879">
        <ele>2073.4</ele>
        <time>2020-01-31T16:04:35Z</time>
      </trkpt>
      <trkpt lat="45.28705" lon="5.7879">
        <ele>2073.2</ele>
        <time>2020-01-31T16:04:36Z</time>
      </trkpt>
      <trkpt lat="45.28705" lon="5.7879">
        <ele>2072.8</ele>
        <time>2020-01-31T16:04:37Z</time>
      </trkpt>
      <trkpt lat="45.28705" lon="5.7879">
        <ele>2072.8</ele>
        <time>2020-01-31T16:04:38Z</time>
      </trkpt>
      <trkpt lat="45.28705" lon="5.7879">
        <ele>2072.6</ele>
        <time>2020-01-31T16:04:39Z</time>
      </trkpt>
      <trkpt lat="45.28705" lon="5.7879">
        <ele>2072.6</ele>
        <time>2020-01-31T16:04:40Z</time>
      </trkpt>
      <trkpt lat="45.28705" lon="5.7879">
        <ele>2072.4</ele>
        <time>2020-01-31T16:04:41Z</time>
      </trkpt>
      <trkpt lat="45.28705" lon="5.7879">
        <ele>2072.2</ele>
        <time>2020-01-31T16:04:42Z</time>
      </trkpt>
      <trkpt lat="45.28705" lon="5.7879">
        <ele>2072.2</ele>
        <time>2020-01-31T16:04:43Z</time>
      </trkpt>
      <trkpt lat="45.28705" lon="5.7879">
        <ele>2072.2</ele>
        <time>2020-01-31T16:04:44Z</time>
      </trkpt>
      <trkpt lat="45.28705" lon="5.7879">
        <ele>2072</ele>
        <time>2020-01-31T16:04:45Z</time>
      </trkpt>
      <trkpt lat="45.28705" lon="5.7879">
        <ele>2072</ele>
        <time>2020-01-31T16:04:46Z</time>
      </trkpt>
      <trkpt lat="45.28705" lon="5.7879">
        <ele>2071.6</ele>
        <time>2020-01-31T16:04:47Z</time>
      </trkpt>
      <trkpt lat="45.28705" lon="5.7879">
        <ele>2071.8</ele>
        <time>2020-01-31T16:04:48Z</time>
      </trkpt>
      <trkpt lat="45.28705" lon="5.7879">
        <ele>2072.2</ele>
        <time>2020-01-31T16:04:49Z</time>
      </trkpt>
      <trkpt lat="45.28705" lon="5.7879">
        <ele>2072.4</ele>
        <time>2020-01-31T16:04:50Z</time>
      </trkpt>
      <trkpt lat="45.28705" lon="5.7879">
        <ele>2073</ele>
        <time>2020-01-31T16:04:51Z</time>
      </trkpt>
      <trkpt lat="45.28705" lon="5.7879">
        <ele>2072.6</ele>
        <time>2020-01-31T16:04:52Z</time>
      </trkpt>
      <trkpt lat="45.28705" lon="5.7879">
        <ele>2072.6</ele>
        <time>2020-01-31T16:04:53Z</time>
      </trkpt>
      <trkpt lat="45.28705" lon="5.7879">
        <ele>2072.8</ele>
        <time>2020-01-31T16:04:54Z</time>
      </trkpt>
      <trkpt lat="45.28705" lon="5.7879">
        <ele>2072.8</ele>
        <time>2020-01-31T16:04:55Z</time>
      </trkpt>
      <trkpt lat="45.28705" lon="5.7879">
        <ele>2072.8</ele>
        <time>2020-01-31T16:04:56Z</time>
      </trkpt>
      <trkpt lat="45.28705" lon="5.7879">
        <ele>2072.6</ele>
        <time>2020-01-31T16:04:57Z</time>
      </trkpt>
      <trkpt lat="45.28705" lon="5.7879">
        <ele>2072.4</ele>
        <time>2020-01-31T16:04:58Z</time>
      </trkpt>
      <trkpt lat="45.28705" lon="5.7879">
        <ele>2072.6</ele>
        <time>2020-01-31T16:04:59Z</time>
      </trkpt>
      <trkpt lat="45.28705" lon="5.7879">
        <ele>2072.4</ele>
        <time>2020-01-31T16:05:00Z</time>
      </trkpt>
      <trkpt lat="45.28705" lon="5.7879">
        <ele>2072.4</ele>
        <time>2020-01-31T16:05:01Z</time>
      </trkpt>
      <trkpt lat="45.28705" lon="5.7879">
        <ele>2072.4</ele>
        <time>2020-01-31T16:05:02Z</time>
      </trkpt>
      <trkpt lat="45.28705" lon="5.7879">
        <ele>2072.6</ele>
        <time>2020-01-31T16:05:03Z</time>
      </trkpt>
      <trkpt lat="45.28705" lon="5.7879">
        <ele>2072.6</ele>
        <time>2020-01-31T16:05:04Z</time>
      </trkpt>
      <trkpt lat="45.28705" lon="5.7879">
        <ele>2072.6</ele>
        <time>2020-01-31T16:05:05Z</time>
      </trkpt>
      <trkpt lat="45.28705" lon="5.7879">
        <ele>2072.6</ele>
        <time>2020-01-31T16:05:06Z</time>
      </trkpt>
      <trkpt lat="45.28705" lon="5.7879">
        <ele>2072.6</ele>
        <time>2020-01-31T16:05:07Z</time>
      </trkpt>
      <trkpt lat="45.28705" lon="5.7879">
        <ele>2072.8</ele>
        <time>2020-01-31T16:05:08Z</time>
      </trkpt>
      <trkpt lat="45.28705" lon="5.7879">
        <ele>2072.8</ele>
        <time>2020-01-31T16:05:09Z</time>
      </trkpt>
      <trkpt lat="45.28705" lon="5.7879">
        <ele>2073</ele>
        <time>2020-01-31T16:05:10Z</time>
      </trkpt>
      <trkpt lat="45.28705" lon="5.7879">
        <ele>2073</ele>
        <time>2020-01-31T16:05:11Z</time>
      </trkpt>
      <trkpt lat="45.28705" lon="5.7879">
        <ele>2073</ele>
        <time>2020-01-31T16:05:12Z</time>
      </trkpt>
      <trkpt lat="45.28705" lon="5.7879">
        <ele>2073</ele>
        <time>2020-01-31T16:05:13Z</time>
      </trkpt>
      <trkpt lat="45.28705" lon="5.7879">
        <ele>2073</ele>
        <time>2020-01-31T16:05:14Z</time>
      </trkpt>
      <trkpt lat="45.28705" lon="5.7879">
        <ele>2073.2</ele>
        <time>2020-01-31T16:05:15Z</time>
      </trkpt>
      <trkpt lat="45.28705" lon="5.7879">
        <ele>2073.4</ele>
        <time>2020-01-31T16:05:16Z</time>
      </trkpt>
      <trkpt lat="45.28705" lon="5.7879">
        <ele>2073.2</ele>
        <time>2020-01-31T16:05:17Z</time>
      </trkpt>
      <trkpt lat="45.28705" lon="5.7879">
        <ele>2073.2</ele>
        <time>2020-01-31T16:05:18Z</time>
      </trkpt>
      <trkpt lat="45.28705" lon="5.7879">
        <ele>2073</ele>
        <time>2020-01-31T16:05:19Z</time>
      </trkpt>
      <trkpt lat="45.28705" lon="5.7879">
        <ele>2073</ele>
        <time>2020-01-31T16:05:20Z</time>
      </trkpt>
      <trkpt lat="45.28705" lon="5.7879">
        <ele>2073.2</ele>
        <time>2020-01-31T16:05:21Z</time>
      </trkpt>
      <trkpt lat="45.28705" lon="5.7879">
        <ele>2073.2</ele>
        <time>2020-01-31T16:05:22Z</time>
      </trkpt>
      <trkpt lat="45.28705" lon="5.7879">
        <ele>2073.2</ele>
        <time>2020-01-31T16:05:23Z</time>
      </trkpt>
      <trkpt lat="45.28705" lon="5.7879">
        <ele>2073.4</ele>
        <time>2020-01-31T16:05:24Z</time>
      </trkpt>
      <trkpt lat="45.28705" lon="5.7879">
        <ele>2073.4</ele>
        <time>2020-01-31T16:05:25Z</time>
      </trkpt>
      <trkpt lat="45.28705" lon="5.7879">
        <ele>2073.2</ele>
        <time>2020-01-31T16:05:26Z</time>
      </trkpt>
      <trkpt lat="45.28705" lon="5.7879">
        <ele>2073.4</ele>
        <time>2020-01-31T16:05:27Z</time>
      </trkpt>
      <trkpt lat="45.28705" lon="5.7879">
        <ele>2073.4</ele>
        <time>2020-01-31T16:05:28Z</time>
      </trkpt>
      <trkpt lat="45.28705" lon="5.7879">
        <ele>2073.4</ele>
        <time>2020-01-31T16:05:29Z</time>
      </trkpt>
      <trkpt lat="45.28705" lon="5.7879">
        <ele>2073.4</ele>
        <time>2020-01-31T16:05:30Z</time>
      </trkpt>
      <trkpt lat="45.28705" lon="5.7879">
        <ele>2073.4</ele>
        <time>2020-01-31T16:05:31Z</time>
      </trkpt>
      <trkpt lat="45.28705" lon="5.7879">
        <ele>2073.4</ele>
        <time>2020-01-31T16:05:32Z</time>
      </trkpt>
      <trkpt lat="45.28705" lon="5.7879">
        <ele>2073.2</ele>
        <time>2020-01-31T16:05:33Z</time>
      </trkpt>
      <trkpt lat="45.28705" lon="5.7879">
        <ele>2073</ele>
        <time>2020-01-31T16:05:34Z</time>
      </trkpt>
      <trkpt lat="45.28705" lon="5.7879">
        <ele>2073.4</ele>
        <time>2020-01-31T16:05:35Z</time>
      </trkpt>
      <trkpt lat="45.28705" lon="5.7879">
        <ele>2073.4</ele>
        <time>2020-01-31T16:05:36Z</time>
      </trkpt>
      <trkpt lat="45.28705" lon="5.7879">
        <ele>2073.4</ele>
        <time>2020-01-31T16:05:37Z</time>
      </trkpt>
      <trkpt lat="45.28705" lon="5.7879">
        <ele>2073.6</ele>
        <time>2020-01-31T16:05:38Z</time>
      </trkpt>
      <trkpt lat="45.28705" lon="5.7879">
        <ele>2073.4</ele>
        <time>2020-01-31T16:05:39Z</time>
      </trkpt>
      <trkpt lat="45.28705" lon="5.7879">
        <ele>2073.2</ele>
        <time>2020-01-31T16:05:40Z</time>
      </trkpt>
      <trkpt lat="45.28705" lon="5.7879">
        <ele>2073.2</ele>
        <time>2020-01-31T16:05:41Z</time>
      </trkpt>
      <trkpt lat="45.28705" lon="5.7879">
        <ele>2073</ele>
        <time>2020-01-31T16:05:42Z</time>
      </trkpt>
      <trkpt lat="45.28705" lon="5.7879">
        <ele>2072.8</ele>
        <time>2020-01-31T16:05:43Z</time>
      </trkpt>
      <trkpt lat="45.28705" lon="5.7879">
        <ele>2072.8</ele>
        <time>2020-01-31T16:05:44Z</time>
      </trkpt>
      <trkpt lat="45.28705" lon="5.7879">
        <ele>2072.8</ele>
        <time>2020-01-31T16:05:45Z</time>
      </trkpt>
      <trkpt lat="45.28705" lon="5.7879">
        <ele>2073</ele>
        <time>2020-01-31T16:05:46Z</time>
      </trkpt>
      <trkpt lat="45.28705" lon="5.7879">
        <ele>2072.8</ele>
        <time>2020-01-31T16:05:47Z</time>
      </trkpt>
      <trkpt lat="45.28705" lon="5.7879">
        <ele>2072.6</ele>
        <time>2020-01-31T16:05:48Z</time>
      </trkpt>
      <trkpt lat="45.28705" lon="5.7879">
        <ele>2072.8</ele>
        <time>2020-01-31T16:05:49Z</time>
      </trkpt>
      <trkpt lat="45.28705" lon="5.7879">
        <ele>2072.8</ele>
        <time>2020-01-31T16:05:50Z</time>
      </trkpt>
      <trkpt lat="45.28705" lon="5.7879">
        <ele>2072.8</ele>
        <time>2020-01-31T16:05:51Z</time>
      </trkpt>
      <trkpt lat="45.28705" lon="5.7879">
        <ele>2073</ele>
        <time>2020-01-31T16:05:52Z</time>
      </trkpt>
      <trkpt lat="45.28705" lon="5.7879">
        <ele>2073</ele>
        <time>2020-01-31T16:05:53Z</time>
      </trkpt>
      <trkpt lat="45.28705" lon="5.7879">
        <ele>2072.8</ele>
        <time>2020-01-31T16:05:54Z</time>
      </trkpt>
      <trkpt lat="45.28705" lon="5.7879">
        <ele>2073</ele>
        <time>2020-01-31T16:05:55Z</time>
      </trkpt>
      <trkpt lat="45.28705" lon="5.7879">
        <ele>2073.2</ele>
        <time>2020-01-31T16:05:56Z</time>
      </trkpt>
      <trkpt lat="45.28705" lon="5.7879">
        <ele>2073.2</ele>
        <time>2020-01-31T16:05:57Z</time>
      </trkpt>
      <trkpt lat="45.28705" lon="5.7879">
        <ele>2073</ele>
        <time>2020-01-31T16:05:58Z</time>
      </trkpt>
      <trkpt lat="45.28705" lon="5.7879">
        <ele>2073.2</ele>
        <time>2020-01-31T16:05:59Z</time>
      </trkpt>
      <trkpt lat="45.28705" lon="5.7879">
        <ele>2073.2</ele>
        <time>2020-01-31T16:06:00Z</time>
      </trkpt>
      <trkpt lat="45.28705" lon="5.7879">
        <ele>2073</ele>
        <time>2020-01-31T16:06:01Z</time>
      </trkpt>
      <trkpt lat="45.28705" lon="5.7879">
        <ele>2072.8</ele>
        <time>2020-01-31T16:06:02Z</time>
      </trkpt>
      <trkpt lat="45.28705" lon="5.7879">
        <ele>2073</ele>
        <time>2020-01-31T16:06:03Z</time>
      </trkpt>
      <trkpt lat="45.28705" lon="5.7879">
        <ele>2072.8</ele>
        <time>2020-01-31T16:06:04Z</time>
      </trkpt>
      <trkpt lat="45.28705" lon="5.7879">
        <ele>2072.8</ele>
        <time>2020-01-31T16:06:05Z</time>
      </trkpt>
      <trkpt lat="45.28705" lon="5.7879">
        <ele>2072.8</ele>
        <time>2020-01-31T16:06:06Z</time>
      </trkpt>
      <trkpt lat="45.28705" lon="5.7879">
        <ele>2072.8</ele>
        <time>2020-01-31T16:06:07Z</time>
      </trkpt>
      <trkpt lat="45.28705" lon="5.7879">
        <ele>2072.8</ele>
        <time>2020-01-31T16:06:08Z</time>
      </trkpt>
      <trkpt lat="45.28705" lon="5.7879">
        <ele>2072.8</ele>
        <time>2020-01-31T16:06:09Z</time>
      </trkpt>
      <trkpt lat="45.28705" lon="5.7879">
        <ele>2072.8</ele>
        <time>2020-01-31T16:06:10Z</time>
      </trkpt>
      <trkpt lat="45.28705" lon="5.7879">
        <ele>2073</ele>
        <time>2020-01-31T16:06:11Z</time>
      </trkpt>
      <trkpt lat="45.28705" lon="5.7879">
        <ele>2073</ele>
        <time>2020-01-31T16:06:12Z</time>
      </trkpt>
      <trkpt lat="45.28705" lon="5.7879">
        <ele>2073</ele>
        <time>2020-01-31T16:06:13Z</time>
      </trkpt>
      <trkpt lat="45.28705" lon="5.7879">
        <ele>2072.8</ele>
        <time>2020-01-31T16:06:14Z</time>
      </trkpt>
      <trkpt lat="45.28705" lon="5.7879">
        <ele>2072.6</ele>
        <time>2020-01-31T16:06:15Z</time>
      </trkpt>
      <trkpt lat="45.28705" lon="5.7879">
        <ele>2072.8</ele>
        <time>2020-01-31T16:06:16Z</time>
      </trkpt>
      <trkpt lat="45.28705" lon="5.7879">
        <ele>2072.8</ele>
        <time>2020-01-31T16:06:17Z</time>
      </trkpt>
      <trkpt lat="45.28705" lon="5.7879">
        <ele>2072.8</ele>
        <time>2020-01-31T16:06:18Z</time>
      </trkpt>
      <trkpt lat="45.28705" lon="5.7879">
        <ele>2073</ele>
        <time>2020-01-31T16:06:19Z</time>
      </trkpt>
      <trkpt lat="45.28705" lon="5.7879">
        <ele>2073</ele>
        <time>2020-01-31T16:06:20Z</time>
      </trkpt>
      <trkpt lat="45.28705" lon="5.7879">
        <ele>2073</ele>
        <time>2020-01-31T16:06:21Z</time>
      </trkpt>
      <trkpt lat="45.28705" lon="5.7879">
        <ele>2073.2</ele>
        <time>2020-01-31T16:06:22Z</time>
      </trkpt>
      <trkpt lat="45.28705" lon="5.7879">
        <ele>2073.2</ele>
        <time>2020-01-31T16:06:23Z</time>
      </trkpt>
      <trkpt lat="45.28705" lon="5.7879">
        <ele>2073.2</ele>
        <time>2020-01-31T16:06:24Z</time>
      </trkpt>
      <trkpt lat="45.28705" lon="5.7879">
        <ele>2073.2</ele>
        <time>2020-01-31T16:06:25Z</time>
      </trkpt>
      <trkpt lat="45.28705" lon="5.7879">
        <ele>2073</ele>
        <time>2020-01-31T16:06:26Z</time>
      </trkpt>
      <trkpt lat="45.28705" lon="5.7879">
        <ele>2073.2</ele>
        <time>2020-01-31T16:06:27Z</time>
      </trkpt>
      <trkpt lat="45.28705" lon="5.7879">
        <ele>2073</ele>
        <time>2020-01-31T16:06:28Z</time>
      </trkpt>
      <trkpt lat="45.28705" lon="5.7879">
        <ele>2073</ele>
        <time>2020-01-31T16:06:29Z</time>
      </trkpt>
      <trkpt lat="45.28705" lon="5.7879">
        <ele>2072.8</ele>
        <time>2020-01-31T16:06:30Z</time>
      </trkpt>
      <trkpt lat="45.28705" lon="5.7879">
        <ele>2072.8</ele>
        <time>2020-01-31T16:06:31Z</time>
      </trkpt>
      <trkpt lat="45.28705" lon="5.7879">
        <ele>2073</ele>
        <time>2020-01-31T16:06:32Z</time>
      </trkpt>
      <trkpt lat="45.28705" lon="5.7879">
        <ele>2073</ele>
        <time>2020-01-31T16:06:33Z</time>
      </trkpt>
      <trkpt lat="45.28705" lon="5.7879">
        <ele>2073</ele>
        <time>2020-01-31T16:06:34Z</time>
      </trkpt>
      <trkpt lat="45.28705" lon="5.7879">
        <ele>2072.8</ele>
        <time>2020-01-31T16:06:35Z</time>
      </trkpt>
      <trkpt lat="45.28705" lon="5.7879">
        <ele>2073</ele>
        <time>2020-01-31T16:06:36Z</time>
      </trkpt>
      <trkpt lat="45.28705" lon="5.7879">
        <ele>2073.2</ele>
        <time>2020-01-31T16:06:37Z</time>
      </trkpt>
      <trkpt lat="45.28705" lon="5.7879">
        <ele>2073.4</ele>
        <time>2020-01-31T16:06:38Z</time>
      </trkpt>
      <trkpt lat="45.28705" lon="5.7879">
        <ele>2073.4</ele>
        <time>2020-01-31T16:06:39Z</time>
      </trkpt>
      <trkpt lat="45.28705" lon="5.7879">
        <ele>2073.4</ele>
        <time>2020-01-31T16:06:40Z</time>
      </trkpt>
      <trkpt lat="45.28705" lon="5.7879">
        <ele>2073.2</ele>
        <time>2020-01-31T16:06:41Z</time>
      </trkpt>
      <trkpt lat="45.28705" lon="5.7879">
        <ele>2073</ele>
        <time>2020-01-31T16:06:42Z</time>
      </trkpt>
      <trkpt lat="45.28705" lon="5.7879">
        <ele>2073.2</ele>
        <time>2020-01-31T16:06:43Z</time>
      </trkpt>
      <trkpt lat="45.28705" lon="5.7879">
        <ele>2073.2</ele>
        <time>2020-01-31T16:06:44Z</time>
      </trkpt>
      <trkpt lat="45.28705" lon="5.7879">
        <ele>2073</ele>
        <time>2020-01-31T16:06:45Z</time>
      </trkpt>
      <trkpt lat="45.28705" lon="5.7879">
        <ele>2073.4</ele>
        <time>2020-01-31T16:06:46Z</time>
      </trkpt>
      <trkpt lat="45.28705" lon="5.7879">
        <ele>2073.4</ele>
        <time>2020-01-31T16:06:47Z</time>
      </trkpt>
      <trkpt lat="45.28705" lon="5.7879">
        <ele>2073.4</ele>
        <time>2020-01-31T16:06:48Z</time>
      </trkpt>
      <trkpt lat="45.28705" lon="5.7879">
        <ele>2073.6</ele>
        <time>2020-01-31T16:06:49Z</time>
      </trkpt>
      <trkpt lat="45.28705" lon="5.7879">
        <ele>2073.4</ele>
        <time>2020-01-31T16:06:50Z</time>
      </trkpt>
      <trkpt lat="45.28705" lon="5.7879">
        <ele>2073.4</ele>
        <time>2020-01-31T16:06:51Z</time>
      </trkpt>
      <trkpt lat="45.28705" lon="5.7879">
        <ele>2073.6</ele>
        <time>2020-01-31T16:06:52Z</time>
      </trkpt>
      <trkpt lat="45.28705" lon="5.7879">
        <ele>2073.4</ele>
        <time>2020-01-31T16:06:53Z</time>
      </trkpt>
      <trkpt lat="45.28705" lon="5.7879">
        <ele>2073.6</ele>
        <time>2020-01-31T16:06:54Z</time>
      </trkpt>
      <trkpt lat="45.28705" lon="5.7879">
        <ele>2073.6</ele>
        <time>2020-01-31T16:06:55Z</time>
      </trkpt>
      <trkpt lat="45.28705" lon="5.7879">
        <ele>2073.6</ele>
        <time>2020-01-31T16:06:56Z</time>
      </trkpt>
      <trkpt lat="45.28705" lon="5.7879">
        <ele>2073.6</ele>
        <time>2020-01-31T16:06:57Z</time>
      </trkpt>
      <trkpt lat="45.28705" lon="5.7879">
        <ele>2073.6</ele>
        <time>2020-01-31T16:06:58Z</time>
      </trkpt>
      <trkpt lat="45.28705" lon="5.7879">
        <ele>2073.4</ele>
        <time>2020-01-31T16:06:59Z</time>
      </trkpt>
      <trkpt lat="45.28705" lon="5.7879">
        <ele>2073.6</ele>
        <time>2020-01-31T16:07:00Z</time>
      </trkpt>
      <trkpt lat="45.28705" lon="5.7879">
        <ele>2073.8</ele>
        <time>2020-01-31T16:07:01Z</time>
      </trkpt>
      <trkpt lat="45.28705" lon="5.7879">
        <ele>2073.8</ele>
        <time>2020-01-31T16:07:02Z</time>
      </trkpt>
      <trkpt lat="45.28705" lon="5.7879">
        <ele>2073.8</ele>
        <time>2020-01-31T16:07:03Z</time>
      </trkpt>
      <trkpt lat="45.28705" lon="5.7879">
        <ele>2073.6</ele>
        <time>2020-01-31T16:07:04Z</time>
      </trkpt>
      <trkpt lat="45.28705" lon="5.7879">
        <ele>2073.4</ele>
        <time>2020-01-31T16:07:05Z</time>
      </trkpt>
      <trkpt lat="45.28705" lon="5.7879">
        <ele>2073.6</ele>
        <time>2020-01-31T16:07:06Z</time>
      </trkpt>
      <trkpt lat="45.28705" lon="5.7879">
        <ele>2073.6</ele>
        <time>2020-01-31T16:07:07Z</time>
      </trkpt>
      <trkpt lat="45.28705" lon="5.7879">
        <ele>2073.4</ele>
        <time>2020-01-31T16:07:08Z</time>
      </trkpt>
      <trkpt lat="45.28705" lon="5.7879">
        <ele>2073.6</ele>
        <time>2020-01-31T16:07:09Z</time>
      </trkpt>
      <trkpt lat="45.28705" lon="5.7879">
        <ele>2073.4</ele>
        <time>2020-01-31T16:07:10Z</time>
      </trkpt>
      <trkpt lat="45.28705" lon="5.7879">
        <ele>2073.4</ele>
        <time>2020-01-31T16:07:11Z</time>
      </trkpt>
      <trkpt lat="45.28705" lon="5.7879">
        <ele>2073.4</ele>
        <time>2020-01-31T16:07:12Z</time>
      </trkpt>
      <trkpt lat="45.28705" lon="5.7879">
        <ele>2073.6</ele>
        <time>2020-01-31T16:07:13Z</time>
      </trkpt>
      <trkpt lat="45.28705" lon="5.7879">
        <ele>2073.4</ele>
        <time>2020-01-31T16:07:14Z</time>
      </trkpt>
      <trkpt lat="45.28705" lon="5.7879">
        <ele>2073.6</ele>
        <time>2020-01-31T16:07:15Z</time>
      </trkpt>
      <trkpt lat="45.28705" lon="5.7879">
        <ele>2073.6</ele>
        <time>2020-01-31T16:07:16Z</time>
      </trkpt>
      <trkpt lat="45.28705" lon="5.7879">
        <ele>2073.4</ele>
        <time>2020-01-31T16:07:17Z</time>
      </trkpt>
      <trkpt lat="45.28705" lon="5.7879">
        <ele>2073.4</ele>
        <time>2020-01-31T16:07:18Z</time>
      </trkpt>
      <trkpt lat="45.28705" lon="5.7879">
        <ele>2073.4</ele>
        <time>2020-01-31T16:07:19Z</time>
      </trkpt>
      <trkpt lat="45.28705" lon="5.7879">
        <ele>2073.6</ele>
        <time>2020-01-31T16:07:20Z</time>
      </trkpt>
      <trkpt lat="45.28705" lon="5.7879">
        <ele>2073.4</ele>
        <time>2020-01-31T16:07:21Z</time>
      </trkpt>
      <trkpt lat="45.28705" lon="5.7879">
        <ele>2073.4</ele>
        <time>2020-01-31T16:07:22Z</time>
      </trkpt>
      <trkpt lat="45.28705" lon="5.7879">
        <ele>2073.4</ele>
        <time>2020-01-31T16:07:23Z</time>
      </trkpt>
      <trkpt lat="45.28705" lon="5.7879">
        <ele>2073.6</ele>
        <time>2020-01-31T16:07:24Z</time>
      </trkpt>
      <trkpt lat="45.28705" lon="5.7879">
        <ele>2073.6</ele>
        <time>2020-01-31T16:07:25Z</time>
      </trkpt>
      <trkpt lat="45.28705" lon="5.7879">
        <ele>2073.8</ele>
        <time>2020-01-31T16:07:26Z</time>
      </trkpt>
      <trkpt lat="45.28705" lon="5.7879">
        <ele>2073.8</ele>
        <time>2020-01-31T16:07:27Z</time>
      </trkpt>
      <trkpt lat="45.28705" lon="5.7879">
        <ele>2073.8</ele>
        <time>2020-01-31T16:07:28Z</time>
      </trkpt>
      <trkpt lat="45.28705" lon="5.7879">
        <ele>2073.8</ele>
        <time>2020-01-31T16:07:29Z</time>
      </trkpt>
      <trkpt lat="45.28705" lon="5.7879">
        <ele>2074</ele>
        <time>2020-01-31T16:07:30Z</time>
      </trkpt>
      <trkpt lat="45.28705" lon="5.7879">
        <ele>2074</ele>
        <time>2020-01-31T16:07:31Z</time>
      </trkpt>
      <trkpt lat="45.28705" lon="5.7879">
        <ele>2074.4</ele>
        <time>2020-01-31T16:07:32Z</time>
      </trkpt>
      <trkpt lat="45.28705" lon="5.7879">
        <ele>2074.4</ele>
        <time>2020-01-31T16:07:33Z</time>
      </trkpt>
      <trkpt lat="45.28705" lon="5.7879">
        <ele>2074.4</ele>
        <time>2020-01-31T16:07:34Z</time>
      </trkpt>
      <trkpt lat="45.28705" lon="5.7879">
        <ele>2074.4</ele>
        <time>2020-01-31T16:07:35Z</time>
      </trkpt>
      <trkpt lat="45.28705" lon="5.7879">
        <ele>2074.4</ele>
        <time>2020-01-31T16:07:36Z</time>
      </trkpt>
      <trkpt lat="45.28705" lon="5.7879">
        <ele>2074.4</ele>
        <time>2020-01-31T16:07:37Z</time>
      </trkpt>
      <trkpt lat="45.28705" lon="5.7879">
        <ele>2074.6</ele>
        <time>2020-01-31T16:07:38Z</time>
      </trkpt>
      <trkpt lat="45.28705" lon="5.7879">
        <ele>2074.6</ele>
        <time>2020-01-31T16:07:39Z</time>
      </trkpt>
      <trkpt lat="45.28705" lon="5.7879">
        <ele>2074.8</ele>
        <time>2020-01-31T16:07:40Z</time>
      </trkpt>
      <trkpt lat="45.28705" lon="5.7879">
        <ele>2074.6</ele>
        <time>2020-01-31T16:07:41Z</time>
      </trkpt>
      <trkpt lat="45.28705" lon="5.7879">
        <ele>2074.6</ele>
        <time>2020-01-31T16:07:42Z</time>
      </trkpt>
      <trkpt lat="45.28705" lon="5.7879">
        <ele>2074.8</ele>
        <time>2020-01-31T16:07:43Z</time>
      </trkpt>
      <trkpt lat="45.28705" lon="5.7879">
        <ele>2074.4</ele>
        <time>2020-01-31T16:07:44Z</time>
      </trkpt>
      <trkpt lat="45.28705" lon="5.7879">
        <ele>2074.4</ele>
        <time>2020-01-31T16:07:45Z</time>
      </trkpt>
      <trkpt lat="45.28705" lon="5.7879">
        <ele>2074.6</ele>
        <time>2020-01-31T16:07:46Z</time>
      </trkpt>
      <trkpt lat="45.28705" lon="5.7879">
        <ele>2074.6</ele>
        <time>2020-01-31T16:07:47Z</time>
      </trkpt>
      <trkpt lat="45.28705" lon="5.7879">
        <ele>2074.6</ele>
        <time>2020-01-31T16:07:48Z</time>
      </trkpt>
      <trkpt lat="45.28705" lon="5.7879">
        <ele>2074.4</ele>
        <time>2020-01-31T16:07:49Z</time>
      </trkpt>
      <trkpt lat="45.28705" lon="5.7879">
        <ele>2074.6</ele>
        <time>2020-01-31T16:07:50Z</time>
      </trkpt>
      <trkpt lat="45.28705" lon="5.7879">
        <ele>2074.8</ele>
        <time>2020-01-31T16:07:51Z</time>
      </trkpt>
      <trkpt lat="45.28705" lon="5.7879">
        <ele>2074.6</ele>
        <time>2020-01-31T16:07:52Z</time>
      </trkpt>
      <trkpt lat="45.28705" lon="5.7879">
        <ele>2074.6</ele>
        <time>2020-01-31T16:07:53Z</time>
      </trkpt>
      <trkpt lat="45.28705" lon="5.7879">
        <ele>2074.4</ele>
        <time>2020-01-31T16:07:54Z</time>
      </trkpt>
      <trkpt lat="45.28705" lon="5.7879">
        <ele>2074.6</ele>
        <time>2020-01-31T16:07:55Z</time>
      </trkpt>
      <trkpt lat="45.28705" lon="5.7879">
        <ele>2074.6</ele>
        <time>2020-01-31T16:07:56Z</time>
      </trkpt>
      <trkpt lat="45.28705" lon="5.7879">
        <ele>2074.8</ele>
        <time>2020-01-31T16:07:57Z</time>
      </trkpt>
      <trkpt lat="45.28705" lon="5.7879">
        <ele>2074.8</ele>
        <time>2020-01-31T16:07:58Z</time>
      </trkpt>
      <trkpt lat="45.28705" lon="5.7879">
        <ele>2074.8</ele>
        <time>2020-01-31T16:07:59Z</time>
      </trkpt>
      <trkpt lat="45.28705" lon="5.7879">
        <ele>2074.8</ele>
        <time>2020-01-31T16:08:00Z</time>
      </trkpt>
      <trkpt lat="45.28705" lon="5.7879">
        <ele>2074.8</ele>
        <time>2020-01-31T16:08:01Z</time>
      </trkpt>
      <trkpt lat="45.28705" lon="5.7879">
        <ele>2074.6</ele>
        <time>2020-01-31T16:08:02Z</time>
      </trkpt>
      <trkpt lat="45.28705" lon="5.7879">
        <ele>2074.6</ele>
        <time>2020-01-31T16:08:03Z</time>
      </trkpt>
      <trkpt lat="45.28705" lon="5.7879">
        <ele>2074.4</ele>
        <time>2020-01-31T16:08:04Z</time>
      </trkpt>
      <trkpt lat="45.28705" lon="5.7879">
        <ele>2074.4</ele>
        <time>2020-01-31T16:08:05Z</time>
      </trkpt>
      <trkpt lat="45.28705" lon="5.7879">
        <ele>2074.6</ele>
        <time>2020-01-31T16:08:06Z</time>
      </trkpt>
      <trkpt lat="45.28705" lon="5.7879">
        <ele>2074.8</ele>
        <time>2020-01-31T16:08:07Z</time>
      </trkpt>
      <trkpt lat="45.28705" lon="5.7879">
        <ele>2074.8</ele>
        <time>2020-01-31T16:08:08Z</time>
      </trkpt>
      <trkpt lat="45.28705" lon="5.7879">
        <ele>2074.8</ele>
        <time>2020-01-31T16:08:09Z</time>
      </trkpt>
      <trkpt lat="45.28705" lon="5.7879">
        <ele>2074.8</ele>
        <time>2020-01-31T16:08:10Z</time>
      </trkpt>
      <trkpt lat="45.28705" lon="5.7879">
        <ele>2074.6</ele>
        <time>2020-01-31T16:08:11Z</time>
      </trkpt>
      <trkpt lat="45.28705" lon="5.7879">
        <ele>2074.6</ele>
        <time>2020-01-31T16:08:12Z</time>
      </trkpt>
      <trkpt lat="45.28705" lon="5.7879">
        <ele>2074.8</ele>
        <time>2020-01-31T16:08:13Z</time>
      </trkpt>
      <trkpt lat="45.28705" lon="5.7879">
        <ele>2074.6</ele>
        <time>2020-01-31T16:08:14Z</time>
      </trkpt>
      <trkpt lat="45.28705" lon="5.7879">
        <ele>2074.6</ele>
        <time>2020-01-31T16:08:15Z</time>
      </trkpt>
      <trkpt lat="45.28705" lon="5.7879">
        <ele>2074.6</ele>
        <time>2020-01-31T16:08:16Z</time>
      </trkpt>
      <trkpt lat="45.28705" lon="5.7879">
        <ele>2074.6</ele>
        <time>2020-01-31T16:08:17Z</time>
      </trkpt>
      <trkpt lat="45.28705" lon="5.7879">
        <ele>2074.8</ele>
        <time>2020-01-31T16:08:18Z</time>
      </trkpt>
      <trkpt lat="45.28705" lon="5.7879">
        <ele>2074.8</ele>
        <time>2020-01-31T16:08:19Z</time>
      </trkpt>
      <trkpt lat="45.28705" lon="5.7879">
        <ele>2074.8</ele>
        <time>2020-01-31T16:08:20Z</time>
      </trkpt>
      <trkpt lat="45.28705" lon="5.7879">
        <ele>2074.8</ele>
        <time>2020-01-31T16:08:21Z</time>
      </trkpt>
      <trkpt lat="45.28705" lon="5.7879">
        <ele>2075</ele>
        <time>2020-01-31T16:08:22Z</time>
      </trkpt>
      <trkpt lat="45.28705" lon="5.7879">
        <ele>2074.8</ele>
        <time>2020-01-31T16:08:23Z</time>
      </trkpt>
      <trkpt lat="45.28705" lon="5.7879">
        <ele>2074.8</ele>
        <time>2020-01-31T16:08:24Z</time>
      </trkpt>
      <trkpt lat="45.28705" lon="5.7879">
        <ele>2074.8</ele>
        <time>2020-01-31T16:08:25Z</time>
      </trkpt>
      <trkpt lat="45.28705" lon="5.7879">
        <ele>2074.8</ele>
        <time>2020-01-31T16:08:26Z</time>
      </trkpt>
      <trkpt lat="45.28705" lon="5.7879">
        <ele>2074.6</ele>
        <time>2020-01-31T16:08:27Z</time>
      </trkpt>
      <trkpt lat="45.28705" lon="5.7879">
        <ele>2074.8</ele>
        <time>2020-01-31T16:08:28Z</time>
      </trkpt>
      <trkpt lat="45.28705" lon="5.7879">
        <ele>2074.8</ele>
        <time>2020-01-31T16:08:29Z</time>
      </trkpt>
      <trkpt lat="45.28705" lon="5.7879">
        <ele>2075</ele>
        <time>2020-01-31T16:08:30Z</time>
      </trkpt>
      <trkpt lat="45.28705" lon="5.7879">
        <ele>2075</ele>
        <time>2020-01-31T16:08:31Z</time>
      </trkpt>
      <trkpt lat="45.28705" lon="5.7879">
        <ele>2075</ele>
        <time>2020-01-31T16:08:32Z</time>
      </trkpt>
      <trkpt lat="45.28705" lon="5.7879">
        <ele>2075</ele>
        <time>2020-01-31T16:08:33Z</time>
      </trkpt>
      <trkpt lat="45.28705" lon="5.7879">
        <ele>2075.2</ele>
        <time>2020-01-31T16:08:34Z</time>
      </trkpt>
      <trkpt lat="45.28705" lon="5.7879">
        <ele>2075</ele>
        <time>2020-01-31T16:08:35Z</time>
      </trkpt>
      <trkpt lat="45.28705" lon="5.7879">
        <ele>2074.8</ele>
        <time>2020-01-31T16:08:36Z</time>
      </trkpt>
      <trkpt lat="45.28705" lon="5.7879">
        <ele>2074.6</ele>
        <time>2020-01-31T16:08:37Z</time>
      </trkpt>
      <trkpt lat="45.28705" lon="5.7879">
        <ele>2074.6</ele>
        <time>2020-01-31T16:08:38Z</time>
      </trkpt>
      <trkpt lat="45.28705" lon="5.7879">
        <ele>2074.8</ele>
        <time>2020-01-31T16:08:39Z</time>
      </trkpt>
      <trkpt lat="45.28705" lon="5.7879">
        <ele>2074.8</ele>
        <time>2020-01-31T16:08:40Z</time>
      </trkpt>
      <trkpt lat="45.28705" lon="5.7879">
        <ele>2074.8</ele>
        <time>2020-01-31T16:08:41Z</time>
      </trkpt>
      <trkpt lat="45.28705" lon="5.7879">
        <ele>2074.8</ele>
        <time>2020-01-31T16:08:42Z</time>
      </trkpt>
      <trkpt lat="45.28705" lon="5.7879">
        <ele>2074.6</ele>
        <time>2020-01-31T16:08:43Z</time>
      </trkpt>
      <trkpt lat="45.28705" lon="5.7879">
        <ele>2074.8</ele>
        <time>2020-01-31T16:08:44Z</time>
      </trkpt>
      <trkpt lat="45.28705" lon="5.7879">
        <ele>2074.8</ele>
        <time>2020-01-31T16:08:45Z</time>
      </trkpt>
      <trkpt lat="45.28705" lon="5.7879">
        <ele>2074.8</ele>
        <time>2020-01-31T16:08:46Z</time>
      </trkpt>
      <trkpt lat="45.28705" lon="5.7879">
        <ele>2074.6</ele>
        <time>2020-01-31T16:08:47Z</time>
      </trkpt>
      <trkpt lat="45.28705" lon="5.7879">
        <ele>2074.6</ele>
        <time>2020-01-31T16:08:48Z</time>
      </trkpt>
      <trkpt lat="45.28705" lon="5.7879">
        <ele>2074.6</ele>
        <time>2020-01-31T16:08:49Z</time>
      </trkpt>
      <trkpt lat="45.28705" lon="5.7879">
        <ele>2075</ele>
        <time>2020-01-31T16:08:50Z</time>
      </trkpt>
      <trkpt lat="45.28705" lon="5.7879">
        <ele>2074.8</ele>
        <time>2020-01-31T16:08:51Z</time>
      </trkpt>
      <trkpt lat="45.28705" lon="5.7879">
        <ele>2075</ele>
        <time>2020-01-31T16:08:52Z</time>
      </trkpt>
      <trkpt lat="45.28705" lon="5.7879">
        <ele>2075</ele>
        <time>2020-01-31T16:08:53Z</time>
      </trkpt>
      <trkpt lat="45.28705" lon="5.7879">
        <ele>2074.6</ele>
        <time>2020-01-31T16:08:54Z</time>
      </trkpt>
      <trkpt lat="45.28705" lon="5.7879">
        <ele>2074.6</ele>
        <time>2020-01-31T16:08:55Z</time>
      </trkpt>
      <trkpt lat="45.28705" lon="5.7879">
        <ele>2074.6</ele>
        <time>2020-01-31T16:08:56Z</time>
      </trkpt>
      <trkpt lat="45.28705" lon="5.7879">
        <ele>2074.4</ele>
        <time>2020-01-31T16:08:57Z</time>
      </trkpt>
      <trkpt lat="45.28705" lon="5.7879">
        <ele>2074.2</ele>
        <time>2020-01-31T16:08:58Z</time>
      </trkpt>
      <trkpt lat="45.28705" lon="5.7879">
        <ele>2074.2</ele>
        <time>2020-01-31T16:08:59Z</time>
      </trkpt>
      <trkpt lat="45.28705" lon="5.7879">
        <ele>2074.4</ele>
        <time>2020-01-31T16:09:00Z</time>
      </trkpt>
      <trkpt lat="45.28705" lon="5.7879">
        <ele>2074.2</ele>
        <time>2020-01-31T16:09:01Z</time>
      </trkpt>
      <trkpt lat="45.28705" lon="5.7879">
        <ele>2074</ele>
        <time>2020-01-31T16:09:02Z</time>
      </trkpt>
      <trkpt lat="45.28705" lon="5.7879">
        <ele>2074.2</ele>
        <time>2020-01-31T16:09:03Z</time>
      </trkpt>
      <trkpt lat="45.28705" lon="5.7879">
        <ele>2074.2</ele>
        <time>2020-01-31T16:09:04Z</time>
      </trkpt>
      <trkpt lat="45.28705" lon="5.7879">
        <ele>2074.2</ele>
        <time>2020-01-31T16:09:05Z</time>
      </trkpt>
      <trkpt lat="45.28705" lon="5.7879">
        <ele>2074</ele>
        <time>2020-01-31T16:09:06Z</time>
      </trkpt>
      <trkpt lat="45.28705" lon="5.7879">
        <ele>2074.2</ele>
        <time>2020-01-31T16:09:07Z</time>
      </trkpt>
      <trkpt lat="45.28705" lon="5.7879">
        <ele>2074</ele>
        <time>2020-01-31T16:09:08Z</time>
      </trkpt>
      <trkpt lat="45.28705" lon="5.7879">
        <ele>2074</ele>
        <time>2020-01-31T16:09:09Z</time>
      </trkpt>
      <trkpt lat="45.28705" lon="5.7879">
        <ele>2074.2</ele>
        <time>2020-01-31T16:09:10Z</time>
      </trkpt>
      <trkpt lat="45.28705" lon="5.7879">
        <ele>2074.2</ele>
        <time>2020-01-31T16:09:11Z</time>
      </trkpt>
      <trkpt lat="45.28705" lon="5.7879">
        <ele>2074.2</ele>
        <time>2020-01-31T16:09:12Z</time>
      </trkpt>
      <trkpt lat="45.28705" lon="5.7879">
        <ele>2074.2</ele>
        <time>2020-01-31T16:09:13Z</time>
      </trkpt>
      <trkpt lat="45.28705" lon="5.7879">
        <ele>2074.4</ele>
        <time>2020-01-31T16:09:14Z</time>
      </trkpt>
      <trkpt lat="45.28705" lon="5.7879">
        <ele>2074.2</ele>
        <time>2020-01-31T16:09:15Z</time>
      </trkpt>
      <trkpt lat="45.28705" lon="5.7879">
        <ele>2074.2</ele>
        <time>2020-01-31T16:09:16Z</time>
      </trkpt>
      <trkpt lat="45.28705" lon="5.7879">
        <ele>2074.2</ele>
        <time>2020-01-31T16:09:17Z</time>
      </trkpt>
      <trkpt lat="45.28705" lon="5.7879">
        <ele>2074</ele>
        <time>2020-01-31T16:09:18Z</time>
      </trkpt>
      <trkpt lat="45.28705" lon="5.7879">
        <ele>2074.2</ele>
        <time>2020-01-31T16:09:19Z</time>
      </trkpt>
      <trkpt lat="45.28705" lon="5.7879">
        <ele>2074.2</ele>
        <time>2020-01-31T16:09:20Z</time>
      </trkpt>
      <trkpt lat="45.28705" lon="5.7879">
        <ele>2074.2</ele>
        <time>2020-01-31T16:09:21Z</time>
      </trkpt>
      <trkpt lat="45.28705" lon="5.7879">
        <ele>2074.4</ele>
        <time>2020-01-31T16:09:22Z</time>
      </trkpt>
      <trkpt lat="45.28705" lon="5.7879">
        <ele>2074.2</ele>
        <time>2020-01-31T16:09:23Z</time>
      </trkpt>
      <trkpt lat="45.28705" lon="5.7879">
        <ele>2074.4</ele>
        <time>2020-01-31T16:09:24Z</time>
      </trkpt>
      <trkpt lat="45.28705" lon="5.7879">
        <ele>2074</ele>
        <time>2020-01-31T16:09:25Z</time>
      </trkpt>
      <trkpt lat="45.28705" lon="5.7879">
        <ele>2074.2</ele>
        <time>2020-01-31T16:09:26Z</time>
      </trkpt>
      <trkpt lat="45.28705" lon="5.7879">
        <ele>2074</ele>
        <time>2020-01-31T16:09:27Z</time>
      </trkpt>
      <trkpt lat="45.28705" lon="5.7879">
        <ele>2074.2</ele>
        <time>2020-01-31T16:09:28Z</time>
      </trkpt>
      <trkpt lat="45.28705" lon="5.7879">
        <ele>2074.2</ele>
        <time>2020-01-31T16:09:29Z</time>
      </trkpt>
      <trkpt lat="45.28705" lon="5.7879">
        <ele>2074.2</ele>
        <time>2020-01-31T16:09:30Z</time>
      </trkpt>
      <trkpt lat="45.28705" lon="5.7879">
        <ele>2074.2</ele>
        <time>2020-01-31T16:09:31Z</time>
      </trkpt>
      <trkpt lat="45.28705" lon="5.7879">
        <ele>2074.2</ele>
        <time>2020-01-31T16:09:32Z</time>
      </trkpt>
      <trkpt lat="45.28705" lon="5.7879">
        <ele>2074.2</ele>
        <time>2020-01-31T16:09:33Z</time>
      </trkpt>
      <trkpt lat="45.28705" lon="5.7879">
        <ele>2074.4</ele>
        <time>2020-01-31T16:09:34Z</time>
      </trkpt>
      <trkpt lat="45.28705" lon="5.7879">
        <ele>2074.4</ele>
        <time>2020-01-31T16:09:35Z</time>
      </trkpt>
      <trkpt lat="45.28705" lon="5.7879">
        <ele>2074.4</ele>
        <time>2020-01-31T16:09:36Z</time>
      </trkpt>
      <trkpt lat="45.28705" lon="5.7879">
        <ele>2074.4</ele>
        <time>2020-01-31T16:09:37Z</time>
      </trkpt>
      <trkpt lat="45.28705" lon="5.7879">
        <ele>2074.2</ele>
        <time>2020-01-31T16:09:38Z</time>
      </trkpt>
      <trkpt lat="45.28705" lon="5.7879">
        <ele>2074.4</ele>
        <time>2020-01-31T16:09:39Z</time>
      </trkpt>
      <trkpt lat="45.28705" lon="5.7879">
        <ele>2074.4</ele>
        <time>2020-01-31T16:09:40Z</time>
      </trkpt>
      <trkpt lat="45.28705" lon="5.7879">
        <ele>2074.4</ele>
        <time>2020-01-31T16:09:41Z</time>
      </trkpt>
      <trkpt lat="45.28705" lon="5.7879">
        <ele>2074.2</ele>
        <time>2020-01-31T16:09:42Z</time>
      </trkpt>
      <trkpt lat="45.28705" lon="5.7879">
        <ele>2074.2</ele>
        <time>2020-01-31T16:09:43Z</time>
      </trkpt>
      <trkpt lat="45.28705" lon="5.7879">
        <ele>2074.2</ele>
        <time>2020-01-31T16:09:44Z</time>
      </trkpt>
      <trkpt lat="45.28705" lon="5.7879">
        <ele>2074.2</ele>
        <time>2020-01-31T16:09:45Z</time>
      </trkpt>
      <trkpt lat="45.28705" lon="5.7879">
        <ele>2074.2</ele>
        <time>2020-01-31T16:09:46Z</time>
      </trkpt>
      <trkpt lat="45.28705" lon="5.7879">
        <ele>2074</ele>
        <time>2020-01-31T16:09:47Z</time>
      </trkpt>
      <trkpt lat="45.28705" lon="5.7879">
        <ele>2074.2</ele>
        <time>2020-01-31T16:09:48Z</time>
      </trkpt>
      <trkpt lat="45.28705" lon="5.7879">
        <ele>2074.2</ele>
        <time>2020-01-31T16:09:49Z</time>
      </trkpt>
      <trkpt lat="45.28705" lon="5.7879">
        <ele>2074.2</ele>
        <time>2020-01-31T16:09:50Z</time>
      </trkpt>
      <trkpt lat="45.28705" lon="5.7879">
        <ele>2074.4</ele>
        <time>2020-01-31T16:09:51Z</time>
      </trkpt>
      <trkpt lat="45.28705" lon="5.7879">
        <ele>2074.4</ele>
        <time>2020-01-31T16:09:52Z</time>
      </trkpt>
      <trkpt lat="45.28705" lon="5.7879">
        <ele>2074.6</ele>
        <time>2020-01-31T16:09:53Z</time>
      </trkpt>
      <trkpt lat="45.28705" lon="5.7879">
        <ele>2074.6</ele>
        <time>2020-01-31T16:09:54Z</time>
      </trkpt>
      <trkpt lat="45.28705" lon="5.7879">
        <ele>2074.6</ele>
        <time>2020-01-31T16:09:55Z</time>
      </trkpt>
      <trkpt lat="45.28705" lon="5.7879">
        <ele>2074.4</ele>
        <time>2020-01-31T16:09:56Z</time>
      </trkpt>
      <trkpt lat="45.28705" lon="5.7879">
        <ele>2074.4</ele>
        <time>2020-01-31T16:09:57Z</time>
      </trkpt>
      <trkpt lat="45.28705" lon="5.7879">
        <ele>2074.4</ele>
        <time>2020-01-31T16:09:58Z</time>
      </trkpt>
      <trkpt lat="45.28705" lon="5.7879">
        <ele>2074.4</ele>
        <time>2020-01-31T16:09:59Z</time>
      </trkpt>
      <trkpt lat="45.28705" lon="5.7879">
        <ele>2074.4</ele>
        <time>2020-01-31T16:10:00Z</time>
      </trkpt>
      <trkpt lat="45.28705" lon="5.7879">
        <ele>2074.2</ele>
        <time>2020-01-31T16:10:01Z</time>
      </trkpt>
      <trkpt lat="45.28705" lon="5.7879">
        <ele>2074.2</ele>
        <time>2020-01-31T16:10:02Z</time>
      </trkpt>
      <trkpt lat="45.28705" lon="5.7879">
        <ele>2074.2</ele>
        <time>2020-01-31T16:10:03Z</time>
      </trkpt>
      <trkpt lat="45.28705" lon="5.7879">
        <ele>2074</ele>
        <time>2020-01-31T16:10:04Z</time>
      </trkpt>
      <trkpt lat="45.28705" lon="5.7879">
        <ele>2074.2</ele>
        <time>2020-01-31T16:10:05Z</time>
      </trkpt>
      <trkpt lat="45.28705" lon="5.7879">
        <ele>2074.4</ele>
        <time>2020-01-31T16:10:06Z</time>
      </trkpt>
      <trkpt lat="45.28705" lon="5.7879">
        <ele>2074.4</ele>
        <time>2020-01-31T16:10:07Z</time>
      </trkpt>
      <trkpt lat="45.28705" lon="5.7879">
        <ele>2074.4</ele>
        <time>2020-01-31T16:10:08Z</time>
      </trkpt>
      <trkpt lat="45.28705" lon="5.7879">
        <ele>2074.4</ele>
        <time>2020-01-31T16:10:09Z</time>
      </trkpt>
      <trkpt lat="45.28705" lon="5.7879">
        <ele>2074.6</ele>
        <time>2020-01-31T16:10:10Z</time>
      </trkpt>
      <trkpt lat="45.28705" lon="5.7879">
        <ele>2074.6</ele>
        <time>2020-01-31T16:10:11Z</time>
      </trkpt>
      <trkpt lat="45.28705" lon="5.7879">
        <ele>2074.6</ele>
        <time>2020-01-31T16:10:12Z</time>
      </trkpt>
      <trkpt lat="45.28705" lon="5.7879">
        <ele>2074.6</ele>
        <time>2020-01-31T16:10:13Z</time>
      </trkpt>
      <trkpt lat="45.28705" lon="5.7879">
        <ele>2074.4</ele>
        <time>2020-01-31T16:10:14Z</time>
      </trkpt>
      <trkpt lat="45.28705" lon="5.7879">
        <ele>2074.6</ele>
        <time>2020-01-31T16:10:15Z</time>
      </trkpt>
      <trkpt lat="45.28705" lon="5.7879">
        <ele>2074.8</ele>
        <time>2020-01-31T16:10:16Z</time>
      </trkpt>
      <trkpt lat="45.28705" lon="5.7879">
        <ele>2075</ele>
        <time>2020-01-31T16:10:17Z</time>
      </trkpt>
      <trkpt lat="45.28705" lon="5.7879">
        <ele>2075.2</ele>
        <time>2020-01-31T16:10:18Z</time>
      </trkpt>
      <trkpt lat="45.28705" lon="5.7879">
        <ele>2075.4</ele>
        <time>2020-01-31T16:10:19Z</time>
      </trkpt>
      <trkpt lat="45.28705" lon="5.7879">
        <ele>2075.4</ele>
        <time>2020-01-31T16:10:20Z</time>
      </trkpt>
      <trkpt lat="45.28705" lon="5.7879">
        <ele>2075.6</ele>
        <time>2020-01-31T16:10:21Z</time>
      </trkpt>
      <trkpt lat="45.28705" lon="5.7879">
        <ele>2075.4</ele>
        <time>2020-01-31T16:10:22Z</time>
      </trkpt>
      <trkpt lat="45.28705" lon="5.7879">
        <ele>2075.6</ele>
        <time>2020-01-31T16:10:23Z</time>
      </trkpt>
      <trkpt lat="45.28705" lon="5.7879">
        <ele>2075.4</ele>
        <time>2020-01-31T16:10:24Z</time>
      </trkpt>
      <trkpt lat="45.28705" lon="5.7879">
        <ele>2075.4</ele>
        <time>2020-01-31T16:10:25Z</time>
      </trkpt>
      <trkpt lat="45.28703" lon="5.7879">
        <ele>2075.6</ele>
        <time>2020-01-31T16:10:26Z</time>
      </trkpt>
      <trkpt lat="45.28703" lon="5.7879">
        <ele>2075.4</ele>
        <time>2020-01-31T16:10:27Z</time>
      </trkpt>
      <trkpt lat="45.28703" lon="5.7879">
        <ele>2075.6</ele>
        <time>2020-01-31T16:10:28Z</time>
      </trkpt>
      <trkpt lat="45.28703" lon="5.7879">
        <ele>2075.6</ele>
        <time>2020-01-31T16:10:29Z</time>
      </trkpt>
      <trkpt lat="45.28703" lon="5.7879">
        <ele>2075.6</ele>
        <time>2020-01-31T16:10:30Z</time>
      </trkpt>
      <trkpt lat="45.28703" lon="5.7879">
        <ele>2075.6</ele>
        <time>2020-01-31T16:10:31Z</time>
      </trkpt>
      <trkpt lat="45.28703" lon="5.7879">
        <ele>2075.6</ele>
        <time>2020-01-31T16:10:32Z</time>
      </trkpt>
      <trkpt lat="45.28703" lon="5.7879">
        <ele>2075.4</ele>
        <time>2020-01-31T16:10:33Z</time>
      </trkpt>
      <trkpt lat="45.28701" lon="5.78786">
        <ele>2074.8</ele>
        <time>2020-01-31T16:10:34Z</time>
      </trkpt>
      <trkpt lat="45.28701" lon="5.78783">
        <ele>2074.2</ele>
        <time>2020-01-31T16:10:35Z</time>
      </trkpt>
      <trkpt lat="45.28703" lon="5.7878">
        <ele>2073</ele>
        <time>2020-01-31T16:10:36Z</time>
      </trkpt>
      <trkpt lat="45.28704" lon="5.78777">
        <ele>2072</ele>
        <time>2020-01-31T16:10:37Z</time>
      </trkpt>
      <trkpt lat="45.28703" lon="5.78774">
        <ele>2071.2</ele>
        <time>2020-01-31T16:10:38Z</time>
      </trkpt>
      <trkpt lat="45.28702" lon="5.78771">
        <ele>2069.8</ele>
        <time>2020-01-31T16:10:39Z</time>
      </trkpt>
      <trkpt lat="45.28701" lon="5.78767">
        <ele>2068.6</ele>
        <time>2020-01-31T16:10:40Z</time>
      </trkpt>
      <trkpt lat="45.28702" lon="5.78763">
        <ele>2067</ele>
        <time>2020-01-31T16:10:41Z</time>
      </trkpt>
      <trkpt lat="45.28704" lon="5.78759">
        <ele>2065.6</ele>
        <time>2020-01-31T16:10:42Z</time>
      </trkpt>
      <trkpt lat="45.28703" lon="5.78755">
        <ele>2064.4</ele>
        <time>2020-01-31T16:10:43Z</time>
      </trkpt>
      <trkpt lat="45.28704" lon="5.78749">
        <ele>2062</ele>
        <time>2020-01-31T16:10:44Z</time>
      </trkpt>
      <trkpt lat="45.28706" lon="5.78742">
        <ele>2060.2</ele>
        <time>2020-01-31T16:10:45Z</time>
      </trkpt>
      <trkpt lat="45.28707" lon="5.7874">
        <ele>2058.4</ele>
        <time>2020-01-31T16:10:46Z</time>
      </trkpt>
      <trkpt lat="45.28708" lon="5.78737">
        <ele>2057</ele>
        <time>2020-01-31T16:10:47Z</time>
      </trkpt>
      <trkpt lat="45.28709" lon="5.78734">
        <ele>2055.6</ele>
        <time>2020-01-31T16:10:48Z</time>
      </trkpt>
      <trkpt lat="45.2871" lon="5.78731">
        <ele>2054.2</ele>
        <time>2020-01-31T16:10:49Z</time>
      </trkpt>
      <trkpt lat="45.28711" lon="5.78729">
        <ele>2052.4</ele>
        <time>2020-01-31T16:10:50Z</time>
      </trkpt>
      <trkpt lat="45.28712" lon="5.78727">
        <ele>2050.4</ele>
        <time>2020-01-31T16:10:51Z</time>
      </trkpt>
      <trkpt lat="45.28713" lon="5.78725">
        <ele>2048.6</ele>
        <time>2020-01-31T16:10:52Z</time>
      </trkpt>
      <trkpt lat="45.28717" lon="5.78718">
        <ele>2046.8</ele>
        <time>2020-01-31T16:10:53Z</time>
      </trkpt>
      <trkpt lat="45.28717" lon="5.78716">
        <ele>2045.4</ele>
        <time>2020-01-31T16:10:54Z</time>
      </trkpt>
      <trkpt lat="45.28716" lon="5.78714">
        <ele>2044</ele>
        <time>2020-01-31T16:10:55Z</time>
      </trkpt>
      <trkpt lat="45.28716" lon="5.78712">
        <ele>2042.6</ele>
        <time>2020-01-31T16:10:56Z</time>
      </trkpt>
      <trkpt lat="45.28717" lon="5.78704">
        <ele>2041</ele>
        <time>2020-01-31T16:10:57Z</time>
      </trkpt>
      <trkpt lat="45.28718" lon="5.78702">
        <ele>2039.4</ele>
        <time>2020-01-31T16:10:58Z</time>
      </trkpt>
      <trkpt lat="45.28719" lon="5.78701">
        <ele>2037.8</ele>
        <time>2020-01-31T16:10:59Z</time>
      </trkpt>
      <trkpt lat="45.2872" lon="5.787">
        <ele>2036.4</ele>
        <time>2020-01-31T16:11:00Z</time>
      </trkpt>
      <trkpt lat="45.28724" lon="5.78692">
        <ele>2035.2</ele>
        <time>2020-01-31T16:11:01Z</time>
      </trkpt>
      <trkpt lat="45.28724" lon="5.7869">
        <ele>2034.2</ele>
        <time>2020-01-31T16:11:02Z</time>
      </trkpt>
      <trkpt lat="45.28724" lon="5.78688">
        <ele>2033.2</ele>
        <time>2020-01-31T16:11:03Z</time>
      </trkpt>
      <trkpt lat="45.28724" lon="5.78686">
        <ele>2031.6</ele>
        <time>2020-01-31T16:11:04Z</time>
      </trkpt>
      <trkpt lat="45.28724" lon="5.78683">
        <ele>2030.2</ele>
        <time>2020-01-31T16:11:05Z</time>
      </trkpt>
      <trkpt lat="45.28724" lon="5.78681">
        <ele>2029</ele>
        <time>2020-01-31T16:11:06Z</time>
      </trkpt>
      <trkpt lat="45.28724" lon="5.78679">
        <ele>2028.2</ele>
        <time>2020-01-31T16:11:07Z</time>
      </trkpt>
      <trkpt lat="45.28724" lon="5.78677">
        <ele>2027.4</ele>
        <time>2020-01-31T16:11:08Z</time>
      </trkpt>
      <trkpt lat="45.28724" lon="5.78675">
        <ele>2027</ele>
        <time>2020-01-31T16:11:09Z</time>
      </trkpt>
      <trkpt lat="45.28724" lon="5.78673">
        <ele>2026</ele>
        <time>2020-01-31T16:11:10Z</time>
      </trkpt>
      <trkpt lat="45.28724" lon="5.7867">
        <ele>2025</ele>
        <time>2020-01-31T16:11:11Z</time>
      </trkpt>
      <trkpt lat="45.28724" lon="5.78668">
        <ele>2023.6</ele>
        <time>2020-01-31T16:11:12Z</time>
      </trkpt>
      <trkpt lat="45.28725" lon="5.78667">
        <ele>2022.8</ele>
        <time>2020-01-31T16:11:13Z</time>
      </trkpt>
      <trkpt lat="45.28727" lon="5.78666">
        <ele>2021.4</ele>
        <time>2020-01-31T16:11:14Z</time>
      </trkpt>
      <trkpt lat="45.28729" lon="5.78665">
        <ele>2020.4</ele>
        <time>2020-01-31T16:11:15Z</time>
      </trkpt>
      <trkpt lat="45.28732" lon="5.78661">
        <ele>2019.2</ele>
        <time>2020-01-31T16:11:16Z</time>
      </trkpt>
      <trkpt lat="45.28731" lon="5.78661">
        <ele>2018</ele>
        <time>2020-01-31T16:11:17Z</time>
      </trkpt>
      <trkpt lat="45.28729" lon="5.7866">
        <ele>2016.6</ele>
        <time>2020-01-31T16:11:18Z</time>
      </trkpt>
      <trkpt lat="45.28728" lon="5.7866">
        <ele>2015.2</ele>
        <time>2020-01-31T16:11:19Z</time>
      </trkpt>
      <trkpt lat="45.28722" lon="5.78659">
        <ele>2014.8</ele>
        <time>2020-01-31T16:11:20Z</time>
      </trkpt>
      <trkpt lat="45.28721" lon="5.7866">
        <ele>2014.4</ele>
        <time>2020-01-31T16:11:21Z</time>
      </trkpt>
      <trkpt lat="45.28721" lon="5.7866">
        <ele>2014</ele>
        <time>2020-01-31T16:11:22Z</time>
      </trkpt>
      <trkpt lat="45.28721" lon="5.7866">
        <ele>2013.8</ele>
        <time>2020-01-31T16:11:23Z</time>
      </trkpt>
      <trkpt lat="45.2872" lon="5.7866">
        <ele>2013.4</ele>
        <time>2020-01-31T16:11:24Z</time>
      </trkpt>
      <trkpt lat="45.2872" lon="5.7866">
        <ele>2012.8</ele>
        <time>2020-01-31T16:11:25Z</time>
      </trkpt>
      <trkpt lat="45.2872" lon="5.7866">
        <ele>2012.2</ele>
        <time>2020-01-31T16:11:26Z</time>
      </trkpt>
      <trkpt lat="45.28719" lon="5.7866">
        <ele>2011.6</ele>
        <time>2020-01-31T16:11:27Z</time>
      </trkpt>
      <trkpt lat="45.28719" lon="5.7866">
        <ele>2011.2</ele>
        <time>2020-01-31T16:11:28Z</time>
      </trkpt>
      <trkpt lat="45.28719" lon="5.78661">
        <ele>2010.8</ele>
        <time>2020-01-31T16:11:29Z</time>
      </trkpt>
      <trkpt lat="45.28718" lon="5.78661">
        <ele>2010.8</ele>
        <time>2020-01-31T16:11:30Z</time>
      </trkpt>
      <trkpt lat="45.28719" lon="5.78661">
        <ele>2010.4</ele>
        <time>2020-01-31T16:11:31Z</time>
      </trkpt>
      <trkpt lat="45.2872" lon="5.7866">
        <ele>2009.8</ele>
        <time>2020-01-31T16:11:32Z</time>
      </trkpt>
      <trkpt lat="45.2872" lon="5.7866">
        <ele>2009.6</ele>
        <time>2020-01-31T16:11:33Z</time>
      </trkpt>
      <trkpt lat="45.28721" lon="5.7866">
        <ele>2009.8</ele>
        <time>2020-01-31T16:11:34Z</time>
      </trkpt>
      <trkpt lat="45.28722" lon="5.7866">
        <ele>2009.8</ele>
        <time>2020-01-31T16:11:35Z</time>
      </trkpt>
      <trkpt lat="45.28723" lon="5.78659">
        <ele>2010.2</ele>
        <time>2020-01-31T16:11:36Z</time>
      </trkpt>
      <trkpt lat="45.28724" lon="5.78659">
        <ele>2010.2</ele>
        <time>2020-01-31T16:11:37Z</time>
      </trkpt>
      <trkpt lat="45.28724" lon="5.78659">
        <ele>2010.4</ele>
        <time>2020-01-31T16:11:38Z</time>
      </trkpt>
      <trkpt lat="45.28725" lon="5.78659">
        <ele>2010.2</ele>
        <time>2020-01-31T16:11:39Z</time>
      </trkpt>
      <trkpt lat="45.28726" lon="5.78659">
        <ele>2010</ele>
        <time>2020-01-31T16:11:40Z</time>
      </trkpt>
      <trkpt lat="45.28727" lon="5.78658">
        <ele>2009.6</ele>
        <time>2020-01-31T16:11:41Z</time>
      </trkpt>
      <trkpt lat="45.28727" lon="5.78658">
        <ele>2009.6</ele>
        <time>2020-01-31T16:11:42Z</time>
      </trkpt>
      <trkpt lat="45.28728" lon="5.78657">
        <ele>2009.2</ele>
        <time>2020-01-31T16:11:43Z</time>
      </trkpt>
      <trkpt lat="45.2873" lon="5.78656">
        <ele>2008.8</ele>
        <time>2020-01-31T16:11:44Z</time>
      </trkpt>
      <trkpt lat="45.28731" lon="5.78654">
        <ele>2008.2</ele>
        <time>2020-01-31T16:11:45Z</time>
      </trkpt>
      <trkpt lat="45.2873" lon="5.78654">
        <ele>2007.4</ele>
        <time>2020-01-31T16:11:46Z</time>
      </trkpt>
      <trkpt lat="45.2873" lon="5.78654">
        <ele>2007</ele>
        <time>2020-01-31T16:11:47Z</time>
      </trkpt>
      <trkpt lat="45.28729" lon="5.78654">
        <ele>2006</ele>
        <time>2020-01-31T16:11:48Z</time>
      </trkpt>
      <trkpt lat="45.28728" lon="5.78653">
        <ele>2005</ele>
        <time>2020-01-31T16:11:49Z</time>
      </trkpt>
      <trkpt lat="45.28728" lon="5.78653">
        <ele>2004.4</ele>
        <time>2020-01-31T16:11:50Z</time>
      </trkpt>
      <trkpt lat="45.28727" lon="5.78653">
        <ele>2004.2</ele>
        <time>2020-01-31T16:11:51Z</time>
      </trkpt>
      <trkpt lat="45.28726" lon="5.78653">
        <ele>2004</ele>
        <time>2020-01-31T16:11:52Z</time>
      </trkpt>
      <trkpt lat="45.28726" lon="5.78652">
        <ele>2003.6</ele>
        <time>2020-01-31T16:11:53Z</time>
      </trkpt>
      <trkpt lat="45.28725" lon="5.78652">
        <ele>2003.4</ele>
        <time>2020-01-31T16:11:54Z</time>
      </trkpt>
      <trkpt lat="45.28725" lon="5.78651">
        <ele>2003.4</ele>
        <time>2020-01-31T16:11:55Z</time>
      </trkpt>
      <trkpt lat="45.28725" lon="5.78649">
        <ele>2003.2</ele>
        <time>2020-01-31T16:11:56Z</time>
      </trkpt>
      <trkpt lat="45.28725" lon="5.78647">
        <ele>2002.8</ele>
        <time>2020-01-31T16:11:57Z</time>
      </trkpt>
      <trkpt lat="45.28725" lon="5.78645">
        <ele>2002.2</ele>
        <time>2020-01-31T16:11:58Z</time>
      </trkpt>
      <trkpt lat="45.28725" lon="5.78644">
        <ele>2001.4</ele>
        <time>2020-01-31T16:11:59Z</time>
      </trkpt>
      <trkpt lat="45.28725" lon="5.78642">
        <ele>2001</ele>
        <time>2020-01-31T16:12:00Z</time>
      </trkpt>
      <trkpt lat="45.28725" lon="5.7864">
        <ele>2000</ele>
        <time>2020-01-31T16:12:01Z</time>
      </trkpt>
      <trkpt lat="45.28724" lon="5.78638">
        <ele>1999.4</ele>
        <time>2020-01-31T16:12:02Z</time>
      </trkpt>
      <trkpt lat="45.28724" lon="5.78637">
        <ele>1998.4</ele>
        <time>2020-01-31T16:12:03Z</time>
      </trkpt>
      <trkpt lat="45.28723" lon="5.78636">
        <ele>1997.6</ele>
        <time>2020-01-31T16:12:04Z</time>
      </trkpt>
      <trkpt lat="45.28723" lon="5.78635">
        <ele>1996.4</ele>
        <time>2020-01-31T16:12:05Z</time>
      </trkpt>
      <trkpt lat="45.28722" lon="5.78634">
        <ele>1995.4</ele>
        <time>2020-01-31T16:12:06Z</time>
      </trkpt>
      <trkpt lat="45.28722" lon="5.78633">
        <ele>1994.6</ele>
        <time>2020-01-31T16:12:07Z</time>
      </trkpt>
      <trkpt lat="45.28721" lon="5.78632">
        <ele>1994.4</ele>
        <time>2020-01-31T16:12:08Z</time>
      </trkpt>
      <trkpt lat="45.2872" lon="5.78631">
        <ele>1994</ele>
        <time>2020-01-31T16:12:09Z</time>
      </trkpt>
      <trkpt lat="45.2872" lon="5.78629">
        <ele>1992.8</ele>
        <time>2020-01-31T16:12:10Z</time>
      </trkpt>
      <trkpt lat="45.28719" lon="5.78628">
        <ele>1992</ele>
        <time>2020-01-31T16:12:11Z</time>
      </trkpt>
      <trkpt lat="45.28719" lon="5.78627">
        <ele>1991.2</ele>
        <time>2020-01-31T16:12:12Z</time>
      </trkpt>
      <trkpt lat="45.28718" lon="5.78627">
        <ele>1990</ele>
        <time>2020-01-31T16:12:13Z</time>
      </trkpt>
      <trkpt lat="45.28718" lon="5.78627">
        <ele>1989.2</ele>
        <time>2020-01-31T16:12:14Z</time>
      </trkpt>
      <trkpt lat="45.28718" lon="5.78628">
        <ele>1988.8</ele>
        <time>2020-01-31T16:12:15Z</time>
      </trkpt>
      <trkpt lat="45.28718" lon="5.78628">
        <ele>1988.2</ele>
        <time>2020-01-31T16:12:16Z</time>
      </trkpt>
      <trkpt lat="45.28717" lon="5.78628">
        <ele>1988</ele>
        <time>2020-01-31T16:12:17Z</time>
      </trkpt>
      <trkpt lat="45.28717" lon="5.78628">
        <ele>1987.6</ele>
        <time>2020-01-31T16:12:18Z</time>
      </trkpt>
      <trkpt lat="45.28717" lon="5.78628">
        <ele>1987.4</ele>
        <time>2020-01-31T16:12:19Z</time>
      </trkpt>
      <trkpt lat="45.28716" lon="5.78628">
        <ele>1987.2</ele>
        <time>2020-01-31T16:12:20Z</time>
      </trkpt>
      <trkpt lat="45.28716" lon="5.78628">
        <ele>1987.2</ele>
        <time>2020-01-31T16:12:21Z</time>
      </trkpt>
      <trkpt lat="45.28716" lon="5.78628">
        <ele>1987</ele>
        <time>2020-01-31T16:12:22Z</time>
      </trkpt>
      <trkpt lat="45.28716" lon="5.78628">
        <ele>1986.8</ele>
        <time>2020-01-31T16:12:23Z</time>
      </trkpt>
      <trkpt lat="45.28715" lon="5.78628">
        <ele>1986.6</ele>
        <time>2020-01-31T16:12:24Z</time>
      </trkpt>
      <trkpt lat="45.28715" lon="5.78628">
        <ele>1986.6</ele>
        <time>2020-01-31T16:12:25Z</time>
      </trkpt>
      <trkpt lat="45.28715" lon="5.78629">
        <ele>1986.6</ele>
        <time>2020-01-31T16:12:26Z</time>
      </trkpt>
      <trkpt lat="45.28714" lon="5.78629">
        <ele>1986.6</ele>
        <time>2020-01-31T16:12:27Z</time>
      </trkpt>
      <trkpt lat="45.28714" lon="5.78629">
        <ele>1986.2</ele>
        <time>2020-01-31T16:12:28Z</time>
      </trkpt>
      <trkpt lat="45.28714" lon="5.78629">
        <ele>1986.2</ele>
        <time>2020-01-31T16:12:29Z</time>
      </trkpt>
      <trkpt lat="45.28714" lon="5.78629">
        <ele>1986.8</ele>
        <time>2020-01-31T16:12:30Z</time>
      </trkpt>
      <trkpt lat="45.28713" lon="5.78629">
        <ele>1986.6</ele>
        <time>2020-01-31T16:12:31Z</time>
      </trkpt>
      <trkpt lat="45.28713" lon="5.78629">
        <ele>1986.4</ele>
        <time>2020-01-31T16:12:32Z</time>
      </trkpt>
      <trkpt lat="45.28713" lon="5.78629">
        <ele>1986.6</ele>
        <time>2020-01-31T16:12:33Z</time>
      </trkpt>
      <trkpt lat="45.28713" lon="5.78629">
        <ele>1986.8</ele>
        <time>2020-01-31T16:12:34Z</time>
      </trkpt>
      <trkpt lat="45.28708" lon="5.78628">
        <ele>1986.6</ele>
        <time>2020-01-31T16:12:35Z</time>
      </trkpt>
      <trkpt lat="45.28703" lon="5.78627">
        <ele>1985.6</ele>
        <time>2020-01-31T16:12:36Z</time>
      </trkpt>
      <trkpt lat="45.287" lon="5.78626">
        <ele>1984.8</ele>
        <time>2020-01-31T16:12:37Z</time>
      </trkpt>
      <trkpt lat="45.28697" lon="5.78625">
        <ele>1983.8</ele>
        <time>2020-01-31T16:12:38Z</time>
      </trkpt>
      <trkpt lat="45.28686" lon="5.78621">
        <ele>1982.6</ele>
        <time>2020-01-31T16:12:39Z</time>
      </trkpt>
      <trkpt lat="45.28681" lon="5.7862">
        <ele>1981.4</ele>
        <time>2020-01-31T16:12:40Z</time>
      </trkpt>
      <trkpt lat="45.28671" lon="5.78616">
        <ele>1979.8</ele>
        <time>2020-01-31T16:12:41Z</time>
      </trkpt>
      <trkpt lat="45.28669" lon="5.78616">
        <ele>1978.2</ele>
        <time>2020-01-31T16:12:42Z</time>
      </trkpt>
      <trkpt lat="45.28667" lon="5.78615">
        <ele>1977</ele>
        <time>2020-01-31T16:12:43Z</time>
      </trkpt>
      <trkpt lat="45.28665" lon="5.78615">
        <ele>1976</ele>
        <time>2020-01-31T16:12:44Z</time>
      </trkpt>
      <trkpt lat="45.28659" lon="5.7861">
        <ele>1975.2</ele>
        <time>2020-01-31T16:12:45Z</time>
      </trkpt>
      <trkpt lat="45.28659" lon="5.78607">
        <ele>1974</ele>
        <time>2020-01-31T16:12:46Z</time>
      </trkpt>
      <trkpt lat="45.28659" lon="5.78603">
        <ele>1973</ele>
        <time>2020-01-31T16:12:47Z</time>
      </trkpt>
      <trkpt lat="45.28658" lon="5.786">
        <ele>1971.8</ele>
        <time>2020-01-31T16:12:48Z</time>
      </trkpt>
      <trkpt lat="45.28657" lon="5.78599">
        <ele>1970.8</ele>
        <time>2020-01-31T16:12:49Z</time>
      </trkpt>
      <trkpt lat="45.28656" lon="5.78598">
        <ele>1969.4</ele>
        <time>2020-01-31T16:12:50Z</time>
      </trkpt>
      <trkpt lat="45.28654" lon="5.78597">
        <ele>1968.6</ele>
        <time>2020-01-31T16:12:51Z</time>
      </trkpt>
      <trkpt lat="45.28653" lon="5.78596">
        <ele>1967.8</ele>
        <time>2020-01-31T16:12:52Z</time>
      </trkpt>
      <trkpt lat="45.28643" lon="5.78591">
        <ele>1966.8</ele>
        <time>2020-01-31T16:12:53Z</time>
      </trkpt>
      <trkpt lat="45.28638" lon="5.7859">
        <ele>1966</ele>
        <time>2020-01-31T16:12:54Z</time>
      </trkpt>
      <trkpt lat="45.28637" lon="5.7859">
        <ele>1964.8</ele>
        <time>2020-01-31T16:12:55Z</time>
      </trkpt>
      <trkpt lat="45.28635" lon="5.7859">
        <ele>1963.8</ele>
        <time>2020-01-31T16:12:56Z</time>
      </trkpt>
      <trkpt lat="45.28633" lon="5.7859">
        <ele>1963</ele>
        <time>2020-01-31T16:12:57Z</time>
      </trkpt>
      <trkpt lat="45.28626" lon="5.78589">
        <ele>1962.4</ele>
        <time>2020-01-31T16:12:58Z</time>
      </trkpt>
      <trkpt lat="45.28624" lon="5.78588">
        <ele>1961.4</ele>
        <time>2020-01-31T16:12:59Z</time>
      </trkpt>
      <trkpt lat="45.28623" lon="5.78588">
        <ele>1961</ele>
        <time>2020-01-31T16:13:00Z</time>
      </trkpt>
      <trkpt lat="45.28621" lon="5.78588">
        <ele>1961</ele>
        <time>2020-01-31T16:13:01Z</time>
      </trkpt>
      <trkpt lat="45.28613" lon="5.78585">
        <ele>1960</ele>
        <time>2020-01-31T16:13:02Z</time>
      </trkpt>
      <trkpt lat="45.28611" lon="5.78583">
        <ele>1959</ele>
        <time>2020-01-31T16:13:03Z</time>
      </trkpt>
      <trkpt lat="45.28603" lon="5.78579">
        <ele>1958</ele>
        <time>2020-01-31T16:13:04Z</time>
      </trkpt>
      <trkpt lat="45.28601" lon="5.78577">
        <ele>1957.2</ele>
        <time>2020-01-31T16:13:05Z</time>
      </trkpt>
      <trkpt lat="45.28592" lon="5.78574">
        <ele>1956.2</ele>
        <time>2020-01-31T16:13:06Z</time>
      </trkpt>
      <trkpt lat="45.28589" lon="5.78572">
        <ele>1954.8</ele>
        <time>2020-01-31T16:13:07Z</time>
      </trkpt>
      <trkpt lat="45.28581" lon="5.78569">
        <ele>1954</ele>
        <time>2020-01-31T16:13:08Z</time>
      </trkpt>
      <trkpt lat="45.28578" lon="5.78568">
        <ele>1953</ele>
        <time>2020-01-31T16:13:09Z</time>
      </trkpt>
      <trkpt lat="45.28569" lon="5.78566">
        <ele>1952.2</ele>
        <time>2020-01-31T16:13:10Z</time>
      </trkpt>
      <trkpt lat="45.28566" lon="5.78565">
        <ele>1951.2</ele>
        <time>2020-01-31T16:13:11Z</time>
      </trkpt>
      <trkpt lat="45.28558" lon="5.78562">
        <ele>1950.2</ele>
        <time>2020-01-31T16:13:12Z</time>
      </trkpt>
      <trkpt lat="45.28555" lon="5.78561">
        <ele>1948.8</ele>
        <time>2020-01-31T16:13:13Z</time>
      </trkpt>
      <trkpt lat="45.28546" lon="5.78558">
        <ele>1948</ele>
        <time>2020-01-31T16:13:14Z</time>
      </trkpt>
      <trkpt lat="45.28542" lon="5.78557">
        <ele>1947</ele>
        <time>2020-01-31T16:13:15Z</time>
      </trkpt>
      <trkpt lat="45.28532" lon="5.78555">
        <ele>1946</ele>
        <time>2020-01-31T16:13:16Z</time>
      </trkpt>
      <trkpt lat="45.28529" lon="5.78554">
        <ele>1945</ele>
        <time>2020-01-31T16:13:17Z</time>
      </trkpt>
      <trkpt lat="45.28518" lon="5.78553">
        <ele>1943.8</ele>
        <time>2020-01-31T16:13:18Z</time>
      </trkpt>
      <trkpt lat="45.28515" lon="5.78552">
        <ele>1942.8</ele>
        <time>2020-01-31T16:13:19Z</time>
      </trkpt>
      <trkpt lat="45.28508" lon="5.78552">
        <ele>1941.8</ele>
        <time>2020-01-31T16:13:20Z</time>
      </trkpt>
      <trkpt lat="45.28508" lon="5.78552">
        <ele>1940.4</ele>
        <time>2020-01-31T16:13:21Z</time>
      </trkpt>
      <trkpt lat="45.28508" lon="5.78552">
        <ele>1939.8</ele>
        <time>2020-01-31T16:13:22Z</time>
      </trkpt>
      <trkpt lat="45.28508" lon="5.78552">
        <ele>1939.4</ele>
        <time>2020-01-31T16:13:23Z</time>
      </trkpt>
      <trkpt lat="45.28508" lon="5.78552">
        <ele>1939</ele>
        <time>2020-01-31T16:13:24Z</time>
      </trkpt>
      <trkpt lat="45.28508" lon="5.78552">
        <ele>1938.4</ele>
        <time>2020-01-31T16:13:25Z</time>
      </trkpt>
      <trkpt lat="45.28508" lon="5.78552">
        <ele>1938</ele>
        <time>2020-01-31T16:13:26Z</time>
      </trkpt>
      <trkpt lat="45.28508" lon="5.78552">
        <ele>1938</ele>
        <time>2020-01-31T16:13:27Z</time>
      </trkpt>
      <trkpt lat="45.28508" lon="5.78552">
        <ele>1937.6</ele>
        <time>2020-01-31T16:13:28Z</time>
      </trkpt>
      <trkpt lat="45.28508" lon="5.78552">
        <ele>1937.6</ele>
        <time>2020-01-31T16:13:29Z</time>
      </trkpt>
      <trkpt lat="45.28508" lon="5.78552">
        <ele>1937.8</ele>
        <time>2020-01-31T16:13:30Z</time>
      </trkpt>
      <trkpt lat="45.28508" lon="5.78552">
        <ele>1937.8</ele>
        <time>2020-01-31T16:13:31Z</time>
      </trkpt>
      <trkpt lat="45.28504" lon="5.78553">
        <ele>1937.2</ele>
        <time>2020-01-31T16:13:32Z</time>
      </trkpt>
      <trkpt lat="45.285" lon="5.78552">
        <ele>1936.8</ele>
        <time>2020-01-31T16:13:33Z</time>
      </trkpt>
      <trkpt lat="45.28495" lon="5.7855">
        <ele>1936.2</ele>
        <time>2020-01-31T16:13:34Z</time>
      </trkpt>
      <trkpt lat="45.28489" lon="5.78547">
        <ele>1935.6</ele>
        <time>2020-01-31T16:13:35Z</time>
      </trkpt>
      <trkpt lat="45.28481" lon="5.78544">
        <ele>1934.8</ele>
        <time>2020-01-31T16:13:36Z</time>
      </trkpt>
      <trkpt lat="45.28473" lon="5.78541">
        <ele>1934</ele>
        <time>2020-01-31T16:13:37Z</time>
      </trkpt>
      <trkpt lat="45.28464" lon="5.78539">
        <ele>1932.6</ele>
        <time>2020-01-31T16:13:38Z</time>
      </trkpt>
      <trkpt lat="45.28454" lon="5.78536">
        <ele>1931.6</ele>
        <time>2020-01-31T16:13:39Z</time>
      </trkpt>
      <trkpt lat="45.28445" lon="5.78533">
        <ele>1930</ele>
        <time>2020-01-31T16:13:40Z</time>
      </trkpt>
      <trkpt lat="45.28436" lon="5.78531">
        <ele>1928.2</ele>
        <time>2020-01-31T16:13:41Z</time>
      </trkpt>
      <trkpt lat="45.28426" lon="5.78527">
        <ele>1926.6</ele>
        <time>2020-01-31T16:13:42Z</time>
      </trkpt>
      <trkpt lat="45.28417" lon="5.78523">
        <ele>1925</ele>
        <time>2020-01-31T16:13:43Z</time>
      </trkpt>
      <trkpt lat="45.28408" lon="5.78519">
        <ele>1923.2</ele>
        <time>2020-01-31T16:13:44Z</time>
      </trkpt>
      <trkpt lat="45.28403" lon="5.78515">
        <ele>1921.8</ele>
        <time>2020-01-31T16:13:45Z</time>
      </trkpt>
      <trkpt lat="45.28397" lon="5.78511">
        <ele>1920.4</ele>
        <time>2020-01-31T16:13:46Z</time>
      </trkpt>
      <trkpt lat="45.28386" lon="5.78503">
        <ele>1919</ele>
        <time>2020-01-31T16:13:47Z</time>
      </trkpt>
      <trkpt lat="45.28383" lon="5.785">
        <ele>1917.6</ele>
        <time>2020-01-31T16:13:48Z</time>
      </trkpt>
      <trkpt lat="45.2838" lon="5.78498">
        <ele>1916.2</ele>
        <time>2020-01-31T16:13:49Z</time>
      </trkpt>
      <trkpt lat="45.28369" lon="5.78489">
        <ele>1915</ele>
        <time>2020-01-31T16:13:50Z</time>
      </trkpt>
      <trkpt lat="45.28365" lon="5.78486">
        <ele>1914.4</ele>
        <time>2020-01-31T16:13:51Z</time>
      </trkpt>
      <trkpt lat="45.28356" lon="5.78481">
        <ele>1913.2</ele>
        <time>2020-01-31T16:13:52Z</time>
      </trkpt>
      <trkpt lat="45.28351" lon="5.78475">
        <ele>1912.2</ele>
        <time>2020-01-31T16:13:53Z</time>
      </trkpt>
      <trkpt lat="45.28345" lon="5.78468">
        <ele>1911.2</ele>
        <time>2020-01-31T16:13:54Z</time>
      </trkpt>
      <trkpt lat="45.2834" lon="5.78462">
        <ele>1910</ele>
        <time>2020-01-31T16:13:55Z</time>
      </trkpt>
      <trkpt lat="45.28335" lon="5.78456">
        <ele>1909.2</ele>
        <time>2020-01-31T16:13:56Z</time>
      </trkpt>
      <trkpt lat="45.2833" lon="5.7845">
        <ele>1908.2</ele>
        <time>2020-01-31T16:13:57Z</time>
      </trkpt>
      <trkpt lat="45.28324" lon="5.78443">
        <ele>1907.4</ele>
        <time>2020-01-31T16:13:58Z</time>
      </trkpt>
      <trkpt lat="45.28319" lon="5.78437">
        <ele>1906.4</ele>
        <time>2020-01-31T16:13:59Z</time>
      </trkpt>
      <trkpt lat="45.28315" lon="5.78432">
        <ele>1905.4</ele>
        <time>2020-01-31T16:14:00Z</time>
      </trkpt>
      <trkpt lat="45.28311" lon="5.78426">
        <ele>1904.4</ele>
        <time>2020-01-31T16:14:01Z</time>
      </trkpt>
      <trkpt lat="45.28308" lon="5.78421">
        <ele>1903.6</ele>
        <time>2020-01-31T16:14:02Z</time>
      </trkpt>
      <trkpt lat="45.28305" lon="5.78417">
        <ele>1903</ele>
        <time>2020-01-31T16:14:03Z</time>
      </trkpt>
      <trkpt lat="45.28299" lon="5.78408">
        <ele>1902.2</ele>
        <time>2020-01-31T16:14:04Z</time>
      </trkpt>
      <trkpt lat="45.28295" lon="5.78401">
        <ele>1901.4</ele>
        <time>2020-01-31T16:14:05Z</time>
      </trkpt>
      <trkpt lat="45.2829" lon="5.78394">
        <ele>1900.4</ele>
        <time>2020-01-31T16:14:06Z</time>
      </trkpt>
      <trkpt lat="45.28286" lon="5.78388">
        <ele>1899.8</ele>
        <time>2020-01-31T16:14:07Z</time>
      </trkpt>
      <trkpt lat="45.28282" lon="5.78382">
        <ele>1898.8</ele>
        <time>2020-01-31T16:14:08Z</time>
      </trkpt>
      <trkpt lat="45.28278" lon="5.78376">
        <ele>1898</ele>
        <time>2020-01-31T16:14:09Z</time>
      </trkpt>
      <trkpt lat="45.28275" lon="5.78373">
        <ele>1897.4</ele>
        <time>2020-01-31T16:14:10Z</time>
      </trkpt>
      <trkpt lat="45.28275" lon="5.78373">
        <ele>1896.6</ele>
        <time>2020-01-31T16:14:11Z</time>
      </trkpt>
      <trkpt lat="45.28275" lon="5.78373">
        <ele>1896.8</ele>
        <time>2020-01-31T16:14:12Z</time>
      </trkpt>
      <trkpt lat="45.28275" lon="5.78373">
        <ele>1896.4</ele>
        <time>2020-01-31T16:14:13Z</time>
      </trkpt>
      <trkpt lat="45.28275" lon="5.78373">
        <ele>1896.2</ele>
        <time>2020-01-31T16:14:14Z</time>
      </trkpt>
      <trkpt lat="45.28275" lon="5.78373">
        <ele>1895.8</ele>
        <time>2020-01-31T16:14:15Z</time>
      </trkpt>
      <trkpt lat="45.28277" lon="5.78373">
        <ele>1896</ele>
        <time>2020-01-31T16:14:16Z</time>
      </trkpt>
      <trkpt lat="45.28277" lon="5.78373">
        <ele>1896</ele>
        <time>2020-01-31T16:14:17Z</time>
      </trkpt>
      <trkpt lat="45.28277" lon="5.78373">
        <ele>1896</ele>
        <time>2020-01-31T16:14:18Z</time>
      </trkpt>
      <trkpt lat="45.28277" lon="5.78373">
        <ele>1896.2</ele>
        <time>2020-01-31T16:14:19Z</time>
      </trkpt>
      <trkpt lat="45.28277" lon="5.78373">
        <ele>1896.4</ele>
        <time>2020-01-31T16:14:20Z</time>
      </trkpt>
      <trkpt lat="45.28277" lon="5.78373">
        <ele>1896.4</ele>
        <time>2020-01-31T16:14:21Z</time>
      </trkpt>
      <trkpt lat="45.28277" lon="5.78373">
        <ele>1896.4</ele>
        <time>2020-01-31T16:14:22Z</time>
      </trkpt>
      <trkpt lat="45.28277" lon="5.78373">
        <ele>1896.2</ele>
        <time>2020-01-31T16:14:23Z</time>
      </trkpt>
      <trkpt lat="45.28277" lon="5.78373">
        <ele>1895.8</ele>
        <time>2020-01-31T16:14:24Z</time>
      </trkpt>
      <trkpt lat="45.28277" lon="5.78373">
        <ele>1896</ele>
        <time>2020-01-31T16:14:25Z</time>
      </trkpt>
      <trkpt lat="45.28277" lon="5.78373">
        <ele>1895.8</ele>
        <time>2020-01-31T16:14:26Z</time>
      </trkpt>
      <trkpt lat="45.28277" lon="5.78373">
        <ele>1896</ele>
        <time>2020-01-31T16:14:27Z</time>
      </trkpt>
      <trkpt lat="45.28277" lon="5.78373">
        <ele>1896.2</ele>
        <time>2020-01-31T16:14:28Z</time>
      </trkpt>
      <trkpt lat="45.28277" lon="5.78373">
        <ele>1895.8</ele>
        <time>2020-01-31T16:14:29Z</time>
      </trkpt>
      <trkpt lat="45.28277" lon="5.78373">
        <ele>1895.4</ele>
        <time>2020-01-31T16:14:30Z</time>
      </trkpt>
      <trkpt lat="45.28277" lon="5.78373">
        <ele>1895.2</ele>
        <time>2020-01-31T16:14:31Z</time>
      </trkpt>
      <trkpt lat="45.28279" lon="5.78372">
        <ele>1895</ele>
        <time>2020-01-31T16:14:32Z</time>
      </trkpt>
      <trkpt lat="45.28279" lon="5.78372">
        <ele>1895.6</ele>
        <time>2020-01-31T16:14:33Z</time>
      </trkpt>
      <trkpt lat="45.28279" lon="5.78372">
        <ele>1895.6</ele>
        <time>2020-01-31T16:14:34Z</time>
      </trkpt>
      <trkpt lat="45.28279" lon="5.78372">
        <ele>1895.8</ele>
        <time>2020-01-31T16:14:35Z</time>
      </trkpt>
      <trkpt lat="45.28279" lon="5.78372">
        <ele>1896.2</ele>
        <time>2020-01-31T16:14:36Z</time>
      </trkpt>
      <trkpt lat="45.28279" lon="5.78372">
        <ele>1896.2</ele>
        <time>2020-01-31T16:14:37Z</time>
      </trkpt>
      <trkpt lat="45.28279" lon="5.78372">
        <ele>1895.8</ele>
        <time>2020-01-31T16:14:38Z</time>
      </trkpt>
      <trkpt lat="45.28279" lon="5.78372">
        <ele>1895.8</ele>
        <time>2020-01-31T16:14:39Z</time>
      </trkpt>
      <trkpt lat="45.28279" lon="5.78372">
        <ele>1895.4</ele>
        <time>2020-01-31T16:14:40Z</time>
      </trkpt>
      <trkpt lat="45.28279" lon="5.78372">
        <ele>1895.2</ele>
        <time>2020-01-31T16:14:41Z</time>
      </trkpt>
      <trkpt lat="45.28279" lon="5.78372">
        <ele>1895.2</ele>
        <time>2020-01-31T16:14:42Z</time>
      </trkpt>
      <trkpt lat="45.28279" lon="5.78372">
        <ele>1895.2</ele>
        <time>2020-01-31T16:14:43Z</time>
      </trkpt>
      <trkpt lat="45.28279" lon="5.78372">
        <ele>1895</ele>
        <time>2020-01-31T16:14:44Z</time>
      </trkpt>
      <trkpt lat="45.28279" lon="5.78372">
        <ele>1894.8</ele>
        <time>2020-01-31T16:14:45Z</time>
      </trkpt>
      <trkpt lat="45.28279" lon="5.78372">
        <ele>1894.8</ele>
        <time>2020-01-31T16:14:46Z</time>
      </trkpt>
      <trkpt lat="45.28279" lon="5.78372">
        <ele>1895.4</ele>
        <time>2020-01-31T16:14:47Z</time>
      </trkpt>
      <trkpt lat="45.28279" lon="5.78372">
        <ele>1895.6</ele>
        <time>2020-01-31T16:14:48Z</time>
      </trkpt>
      <trkpt lat="45.28279" lon="5.78372">
        <ele>1895.6</ele>
        <time>2020-01-31T16:14:49Z</time>
      </trkpt>
      <trkpt lat="45.28279" lon="5.78372">
        <ele>1896</ele>
        <time>2020-01-31T16:14:50Z</time>
      </trkpt>
      <trkpt lat="45.28279" lon="5.78372">
        <ele>1896</ele>
        <time>2020-01-31T16:14:51Z</time>
      </trkpt>
      <trkpt lat="45.28279" lon="5.78372">
        <ele>1896</ele>
        <time>2020-01-31T16:14:52Z</time>
      </trkpt>
      <trkpt lat="45.28279" lon="5.78372">
        <ele>1895.2</ele>
        <time>2020-01-31T16:14:53Z</time>
      </trkpt>
      <trkpt lat="45.28279" lon="5.78372">
        <ele>1895</ele>
        <time>2020-01-31T16:14:54Z</time>
      </trkpt>
      <trkpt lat="45.28279" lon="5.78372">
        <ele>1895</ele>
        <time>2020-01-31T16:14:55Z</time>
      </trkpt>
      <trkpt lat="45.28279" lon="5.78372">
        <ele>1895.2</ele>
        <time>2020-01-31T16:14:56Z</time>
      </trkpt>
      <trkpt lat="45.28279" lon="5.78372">
        <ele>1895.2</ele>
        <time>2020-01-31T16:14:57Z</time>
      </trkpt>
      <trkpt lat="45.28279" lon="5.78372">
        <ele>1895.2</ele>
        <time>2020-01-31T16:14:58Z</time>
      </trkpt>
      <trkpt lat="45.28279" lon="5.78372">
        <ele>1895.2</ele>
        <time>2020-01-31T16:14:59Z</time>
      </trkpt>
      <trkpt lat="45.28279" lon="5.78372">
        <ele>1895.6</ele>
        <time>2020-01-31T16:15:00Z</time>
      </trkpt>
      <trkpt lat="45.28279" lon="5.78372">
        <ele>1896</ele>
        <time>2020-01-31T16:15:01Z</time>
      </trkpt>
      <trkpt lat="45.28279" lon="5.78372">
        <ele>1896.4</ele>
        <time>2020-01-31T16:15:02Z</time>
      </trkpt>
      <trkpt lat="45.28279" lon="5.78372">
        <ele>1896.4</ele>
        <time>2020-01-31T16:15:03Z</time>
      </trkpt>
      <trkpt lat="45.28279" lon="5.78372">
        <ele>1896.4</ele>
        <time>2020-01-31T16:15:04Z</time>
      </trkpt>
      <trkpt lat="45.28279" lon="5.78372">
        <ele>1896.4</ele>
        <time>2020-01-31T16:15:05Z</time>
      </trkpt>
      <trkpt lat="45.28279" lon="5.78372">
        <ele>1896.6</ele>
        <time>2020-01-31T16:15:06Z</time>
      </trkpt>
      <trkpt lat="45.28279" lon="5.78372">
        <ele>1896.8</ele>
        <time>2020-01-31T16:15:07Z</time>
      </trkpt>
      <trkpt lat="45.28279" lon="5.78372">
        <ele>1896.8</ele>
        <time>2020-01-31T16:15:08Z</time>
      </trkpt>
      <trkpt lat="45.28279" lon="5.78372">
        <ele>1896.6</ele>
        <time>2020-01-31T16:15:09Z</time>
      </trkpt>
      <trkpt lat="45.28279" lon="5.78372">
        <ele>1896.6</ele>
        <time>2020-01-31T16:15:10Z</time>
      </trkpt>
      <trkpt lat="45.28279" lon="5.78372">
        <ele>1896.4</ele>
        <time>2020-01-31T16:15:11Z</time>
      </trkpt>
      <trkpt lat="45.28279" lon="5.78372">
        <ele>1896.4</ele>
        <time>2020-01-31T16:15:12Z</time>
      </trkpt>
      <trkpt lat="45.28279" lon="5.78372">
        <ele>1896.2</ele>
        <time>2020-01-31T16:15:13Z</time>
      </trkpt>
      <trkpt lat="45.28279" lon="5.78372">
        <ele>1896.4</ele>
        <time>2020-01-31T16:15:14Z</time>
      </trkpt>
      <trkpt lat="45.28279" lon="5.78372">
        <ele>1896.2</ele>
        <time>2020-01-31T16:15:15Z</time>
      </trkpt>
      <trkpt lat="45.28279" lon="5.78372">
        <ele>1896.2</ele>
        <time>2020-01-31T16:15:16Z</time>
      </trkpt>
      <trkpt lat="45.28279" lon="5.78369">
        <ele>1896.4</ele>
        <time>2020-01-31T16:15:17Z</time>
      </trkpt>
      <trkpt lat="45.28279" lon="5.78369">
        <ele>1896.4</ele>
        <time>2020-01-31T16:15:18Z</time>
      </trkpt>
      <trkpt lat="45.28279" lon="5.78364">
        <ele>1895.8</ele>
        <time>2020-01-31T16:15:19Z</time>
      </trkpt>
      <trkpt lat="45.28282" lon="5.78362">
        <ele>1895.4</ele>
        <time>2020-01-31T16:15:20Z</time>
      </trkpt>
      <trkpt lat="45.28286" lon="5.7836">
        <ele>1894.6</ele>
        <time>2020-01-31T16:15:21Z</time>
      </trkpt>
      <trkpt lat="45.28288" lon="5.78355">
        <ele>1893.8</ele>
        <time>2020-01-31T16:15:22Z</time>
      </trkpt>
      <trkpt lat="45.28291" lon="5.7835">
        <ele>1892.6</ele>
        <time>2020-01-31T16:15:23Z</time>
      </trkpt>
      <trkpt lat="45.28294" lon="5.78347">
        <ele>1890.8</ele>
        <time>2020-01-31T16:15:24Z</time>
      </trkpt>
      <trkpt lat="45.28296" lon="5.78341">
        <ele>1889.6</ele>
        <time>2020-01-31T16:15:25Z</time>
      </trkpt>
      <trkpt lat="45.28298" lon="5.78335">
        <ele>1888</ele>
        <time>2020-01-31T16:15:26Z</time>
      </trkpt>
      <trkpt lat="45.28302" lon="5.78332">
        <ele>1885.8</ele>
        <time>2020-01-31T16:15:27Z</time>
      </trkpt>
      <trkpt lat="45.28306" lon="5.78329">
        <ele>1884.4</ele>
        <time>2020-01-31T16:15:28Z</time>
      </trkpt>
      <trkpt lat="45.28307" lon="5.78324">
        <ele>1882.6</ele>
        <time>2020-01-31T16:15:29Z</time>
      </trkpt>
      <trkpt lat="45.28309" lon="5.7832">
        <ele>1881</ele>
        <time>2020-01-31T16:15:30Z</time>
      </trkpt>
      <trkpt lat="45.28314" lon="5.78318">
        <ele>1879.2</ele>
        <time>2020-01-31T16:15:31Z</time>
      </trkpt>
      <trkpt lat="45.28314" lon="5.78313">
        <ele>1877.8</ele>
        <time>2020-01-31T16:15:32Z</time>
      </trkpt>
      <trkpt lat="45.28314" lon="5.78307">
        <ele>1876</ele>
        <time>2020-01-31T16:15:33Z</time>
      </trkpt>
      <trkpt lat="45.28318" lon="5.78303">
        <ele>1874</ele>
        <time>2020-01-31T16:15:34Z</time>
      </trkpt>
      <trkpt lat="45.28322" lon="5.78301">
        <ele>1872.2</ele>
        <time>2020-01-31T16:15:35Z</time>
      </trkpt>
      <trkpt lat="45.28321" lon="5.78294">
        <ele>1870</ele>
        <time>2020-01-31T16:15:36Z</time>
      </trkpt>
      <trkpt lat="45.28317" lon="5.78285">
        <ele>1868.2</ele>
        <time>2020-01-31T16:15:37Z</time>
      </trkpt>
      <trkpt lat="45.28312" lon="5.78276">
        <ele>1866.6</ele>
        <time>2020-01-31T16:15:38Z</time>
      </trkpt>
      <trkpt lat="45.28307" lon="5.78268">
        <ele>1865</ele>
        <time>2020-01-31T16:15:39Z</time>
      </trkpt>
      <trkpt lat="45.28306" lon="5.78263">
        <ele>1862.8</ele>
        <time>2020-01-31T16:15:40Z</time>
      </trkpt>
      <trkpt lat="45.28311" lon="5.78263">
        <ele>1861</ele>
        <time>2020-01-31T16:15:41Z</time>
      </trkpt>
      <trkpt lat="45.28316" lon="5.78263">
        <ele>1859.4</ele>
        <time>2020-01-31T16:15:42Z</time>
      </trkpt>
      <trkpt lat="45.2832" lon="5.78262">
        <ele>1857.8</ele>
        <time>2020-01-31T16:15:43Z</time>
      </trkpt>
      <trkpt lat="45.28322" lon="5.78256">
        <ele>1856.4</ele>
        <time>2020-01-31T16:15:44Z</time>
      </trkpt>
      <trkpt lat="45.28324" lon="5.7825">
        <ele>1854.4</ele>
        <time>2020-01-31T16:15:45Z</time>
      </trkpt>
      <trkpt lat="45.2833" lon="5.78248">
        <ele>1852.6</ele>
        <time>2020-01-31T16:15:46Z</time>
      </trkpt>
      <trkpt lat="45.28336" lon="5.78248">
        <ele>1851</ele>
        <time>2020-01-31T16:15:47Z</time>
      </trkpt>
      <trkpt lat="45.28343" lon="5.78248">
        <ele>1849.4</ele>
        <time>2020-01-31T16:15:48Z</time>
      </trkpt>
      <trkpt lat="45.2835" lon="5.78248">
        <ele>1848</ele>
        <time>2020-01-31T16:15:49Z</time>
      </trkpt>
      <trkpt lat="45.28358" lon="5.78249">
        <ele>1846.8</ele>
        <time>2020-01-31T16:15:50Z</time>
      </trkpt>
      <trkpt lat="45.28365" lon="5.7825">
        <ele>1845.6</ele>
        <time>2020-01-31T16:15:51Z</time>
      </trkpt>
      <trkpt lat="45.28372" lon="5.78252">
        <ele>1844.4</ele>
        <time>2020-01-31T16:15:52Z</time>
      </trkpt>
      <trkpt lat="45.28378" lon="5.78255">
        <ele>1843.2</ele>
        <time>2020-01-31T16:15:53Z</time>
      </trkpt>
      <trkpt lat="45.28383" lon="5.78257">
        <ele>1842.2</ele>
        <time>2020-01-31T16:15:54Z</time>
      </trkpt>
      <trkpt lat="45.28385" lon="5.78255">
        <ele>1841.4</ele>
        <time>2020-01-31T16:15:55Z</time>
      </trkpt>
      <trkpt lat="45.28383" lon="5.78251">
        <ele>1840.6</ele>
        <time>2020-01-31T16:15:56Z</time>
      </trkpt>
      <trkpt lat="45.28384" lon="5.78245">
        <ele>1839.6</ele>
        <time>2020-01-31T16:15:57Z</time>
      </trkpt>
      <trkpt lat="45.28387" lon="5.7824">
        <ele>1838</ele>
        <time>2020-01-31T16:15:58Z</time>
      </trkpt>
      <trkpt lat="45.28385" lon="5.78237">
        <ele>1836.8</ele>
        <time>2020-01-31T16:15:59Z</time>
      </trkpt>
      <trkpt lat="45.28383" lon="5.78235">
        <ele>1835</ele>
        <time>2020-01-31T16:16:00Z</time>
      </trkpt>
      <trkpt lat="45.2838" lon="5.78232">
        <ele>1833.4</ele>
        <time>2020-01-31T16:16:01Z</time>
      </trkpt>
      <trkpt lat="45.28373" lon="5.78224">
        <ele>1832.2</ele>
        <time>2020-01-31T16:16:02Z</time>
      </trkpt>
      <trkpt lat="45.2837" lon="5.78224">
        <ele>1830.6</ele>
        <time>2020-01-31T16:16:03Z</time>
      </trkpt>
      <trkpt lat="45.2837" lon="5.78224">
        <ele>1830</ele>
        <time>2020-01-31T16:16:04Z</time>
      </trkpt>
      <trkpt lat="45.2837" lon="5.78224">
        <ele>1829.6</ele>
        <time>2020-01-31T16:16:05Z</time>
      </trkpt>
      <trkpt lat="45.2837" lon="5.78224">
        <ele>1829</ele>
        <time>2020-01-31T16:16:06Z</time>
      </trkpt>
      <trkpt lat="45.2837" lon="5.78224">
        <ele>1829</ele>
        <time>2020-01-31T16:16:07Z</time>
      </trkpt>
      <trkpt lat="45.2837" lon="5.78224">
        <ele>1829</ele>
        <time>2020-01-31T16:16:08Z</time>
      </trkpt>
      <trkpt lat="45.2837" lon="5.78224">
        <ele>1828.6</ele>
        <time>2020-01-31T16:16:09Z</time>
      </trkpt>
      <trkpt lat="45.2837" lon="5.78224">
        <ele>1828.4</ele>
        <time>2020-01-31T16:16:10Z</time>
      </trkpt>
      <trkpt lat="45.2837" lon="5.78224">
        <ele>1828.2</ele>
        <time>2020-01-31T16:16:11Z</time>
      </trkpt>
      <trkpt lat="45.2837" lon="5.78224">
        <ele>1828.2</ele>
        <time>2020-01-31T16:16:12Z</time>
      </trkpt>
      <trkpt lat="45.2837" lon="5.78224">
        <ele>1828</ele>
        <time>2020-01-31T16:16:13Z</time>
      </trkpt>
      <trkpt lat="45.2837" lon="5.78224">
        <ele>1827.6</ele>
        <time>2020-01-31T16:16:14Z</time>
      </trkpt>
      <trkpt lat="45.2837" lon="5.78224">
        <ele>1827.6</ele>
        <time>2020-01-31T16:16:15Z</time>
      </trkpt>
      <trkpt lat="45.2837" lon="5.78224">
        <ele>1827.6</ele>
        <time>2020-01-31T16:16:16Z</time>
      </trkpt>
      <trkpt lat="45.2837" lon="5.78224">
        <ele>1827.6</ele>
        <time>2020-01-31T16:16:17Z</time>
      </trkpt>
      <trkpt lat="45.28372" lon="5.78223">
        <ele>1827.4</ele>
        <time>2020-01-31T16:16:18Z</time>
      </trkpt>
      <trkpt lat="45.28372" lon="5.78223">
        <ele>1827.4</ele>
        <time>2020-01-31T16:16:19Z</time>
      </trkpt>
      <trkpt lat="45.28372" lon="5.78223">
        <ele>1827.2</ele>
        <time>2020-01-31T16:16:20Z</time>
      </trkpt>
      <trkpt lat="45.28372" lon="5.78223">
        <ele>1827.2</ele>
        <time>2020-01-31T16:16:21Z</time>
      </trkpt>
      <trkpt lat="45.28372" lon="5.78223">
        <ele>1827.4</ele>
        <time>2020-01-31T16:16:22Z</time>
      </trkpt>
      <trkpt lat="45.28372" lon="5.78223">
        <ele>1827.4</ele>
        <time>2020-01-31T16:16:23Z</time>
      </trkpt>
      <trkpt lat="45.28372" lon="5.78223">
        <ele>1827.4</ele>
        <time>2020-01-31T16:16:24Z</time>
      </trkpt>
      <trkpt lat="45.28375" lon="5.78222">
        <ele>1827</ele>
        <time>2020-01-31T16:16:25Z</time>
      </trkpt>
      <trkpt lat="45.28378" lon="5.78221">
        <ele>1826.8</ele>
        <time>2020-01-31T16:16:26Z</time>
      </trkpt>
      <trkpt lat="45.28382" lon="5.7822">
        <ele>1826.6</ele>
        <time>2020-01-31T16:16:27Z</time>
      </trkpt>
      <trkpt lat="45.28386" lon="5.78218">
        <ele>1825.8</ele>
        <time>2020-01-31T16:16:28Z</time>
      </trkpt>
      <trkpt lat="45.2839" lon="5.78213">
        <ele>1825.2</ele>
        <time>2020-01-31T16:16:29Z</time>
      </trkpt>
      <trkpt lat="45.28393" lon="5.78207">
        <ele>1824</ele>
        <time>2020-01-31T16:16:30Z</time>
      </trkpt>
      <trkpt lat="45.28396" lon="5.78202">
        <ele>1823</ele>
        <time>2020-01-31T16:16:31Z</time>
      </trkpt>
      <trkpt lat="45.28396" lon="5.78195">
        <ele>1821.6</ele>
        <time>2020-01-31T16:16:32Z</time>
      </trkpt>
      <trkpt lat="45.28396" lon="5.78189">
        <ele>1820</ele>
        <time>2020-01-31T16:16:33Z</time>
      </trkpt>
      <trkpt lat="45.28396" lon="5.78183">
        <ele>1818.4</ele>
        <time>2020-01-31T16:16:34Z</time>
      </trkpt>
      <trkpt lat="45.28393" lon="5.78176">
        <ele>1816.6</ele>
        <time>2020-01-31T16:16:35Z</time>
      </trkpt>
      <trkpt lat="45.28389" lon="5.78171">
        <ele>1815</ele>
        <time>2020-01-31T16:16:36Z</time>
      </trkpt>
      <trkpt lat="45.28384" lon="5.78165">
        <ele>1813.4</ele>
        <time>2020-01-31T16:16:37Z</time>
      </trkpt>
      <trkpt lat="45.28379" lon="5.7816">
        <ele>1812</ele>
        <time>2020-01-31T16:16:38Z</time>
      </trkpt>
      <trkpt lat="45.28374" lon="5.78155">
        <ele>1811.2</ele>
        <time>2020-01-31T16:16:39Z</time>
      </trkpt>
      <trkpt lat="45.2837" lon="5.78152">
        <ele>1810</ele>
        <time>2020-01-31T16:16:40Z</time>
      </trkpt>
      <trkpt lat="45.28367" lon="5.78148">
        <ele>1809.2</ele>
        <time>2020-01-31T16:16:41Z</time>
      </trkpt>
      <trkpt lat="45.28366" lon="5.78143">
        <ele>1808.6</ele>
        <time>2020-01-31T16:16:42Z</time>
      </trkpt>
      <trkpt lat="45.28369" lon="5.7814">
        <ele>1807.6</ele>
        <time>2020-01-31T16:16:43Z</time>
      </trkpt>
      <trkpt lat="45.28377" lon="5.7814">
        <ele>1806.8</ele>
        <time>2020-01-31T16:16:44Z</time>
      </trkpt>
      <trkpt lat="45.28382" lon="5.78138">
        <ele>1805.4</ele>
        <time>2020-01-31T16:16:45Z</time>
      </trkpt>
      <trkpt lat="45.28387" lon="5.78135">
        <ele>1804</ele>
        <time>2020-01-31T16:16:46Z</time>
      </trkpt>
      <trkpt lat="45.28392" lon="5.78131">
        <ele>1802.8</ele>
        <time>2020-01-31T16:16:47Z</time>
      </trkpt>
      <trkpt lat="45.28395" lon="5.78128">
        <ele>1801.4</ele>
        <time>2020-01-31T16:16:48Z</time>
      </trkpt>
      <trkpt lat="45.28393" lon="5.78124">
        <ele>1800.2</ele>
        <time>2020-01-31T16:16:49Z</time>
      </trkpt>
      <trkpt lat="45.2839" lon="5.7812">
        <ele>1798.8</ele>
        <time>2020-01-31T16:16:50Z</time>
      </trkpt>
      <trkpt lat="45.28386" lon="5.78117">
        <ele>1797.6</ele>
        <time>2020-01-31T16:16:51Z</time>
      </trkpt>
      <trkpt lat="45.28381" lon="5.78113">
        <ele>1796.2</ele>
        <time>2020-01-31T16:16:52Z</time>
      </trkpt>
      <trkpt lat="45.28377" lon="5.78109">
        <ele>1795.2</ele>
        <time>2020-01-31T16:16:53Z</time>
      </trkpt>
      <trkpt lat="45.28374" lon="5.78104">
        <ele>1794.2</ele>
        <time>2020-01-31T16:16:54Z</time>
      </trkpt>
      <trkpt lat="45.28371" lon="5.781">
        <ele>1793.2</ele>
        <time>2020-01-31T16:16:55Z</time>
      </trkpt>
      <trkpt lat="45.28368" lon="5.78097">
        <ele>1792.4</ele>
        <time>2020-01-31T16:16:56Z</time>
      </trkpt>
      <trkpt lat="45.28366" lon="5.78093">
        <ele>1791.8</ele>
        <time>2020-01-31T16:16:57Z</time>
      </trkpt>
      <trkpt lat="45.28366" lon="5.78088">
        <ele>1791.4</ele>
        <time>2020-01-31T16:16:58Z</time>
      </trkpt>
      <trkpt lat="45.28368" lon="5.78086">
        <ele>1790.4</ele>
        <time>2020-01-31T16:16:59Z</time>
      </trkpt>
      <trkpt lat="45.28374" lon="5.78085">
        <ele>1789.8</ele>
        <time>2020-01-31T16:17:00Z</time>
      </trkpt>
      <trkpt lat="45.28379" lon="5.78087">
        <ele>1789</ele>
        <time>2020-01-31T16:17:01Z</time>
      </trkpt>
      <trkpt lat="45.28383" lon="5.78089">
        <ele>1788</ele>
        <time>2020-01-31T16:17:02Z</time>
      </trkpt>
      <trkpt lat="45.28386" lon="5.78088">
        <ele>1787.2</ele>
        <time>2020-01-31T16:17:03Z</time>
      </trkpt>
      <trkpt lat="45.28384" lon="5.78084">
        <ele>1786.4</ele>
        <time>2020-01-31T16:17:04Z</time>
      </trkpt>
      <trkpt lat="45.28381" lon="5.78078">
        <ele>1785.6</ele>
        <time>2020-01-31T16:17:05Z</time>
      </trkpt>
      <trkpt lat="45.28379" lon="5.78072">
        <ele>1784.6</ele>
        <time>2020-01-31T16:17:06Z</time>
      </trkpt>
      <trkpt lat="45.28376" lon="5.78067">
        <ele>1783.4</ele>
        <time>2020-01-31T16:17:07Z</time>
      </trkpt>
      <trkpt lat="45.28374" lon="5.78063">
        <ele>1782</ele>
        <time>2020-01-31T16:17:08Z</time>
      </trkpt>
      <trkpt lat="45.28374" lon="5.7806">
        <ele>1781.2</ele>
        <time>2020-01-31T16:17:09Z</time>
      </trkpt>
      <trkpt lat="45.28377" lon="5.78059">
        <ele>1780.6</ele>
        <time>2020-01-31T16:17:10Z</time>
      </trkpt>
      <trkpt lat="45.28379" lon="5.78059">
        <ele>1779.4</ele>
        <time>2020-01-31T16:17:11Z</time>
      </trkpt>
      <trkpt lat="45.28381" lon="5.78059">
        <ele>1778.8</ele>
        <time>2020-01-31T16:17:12Z</time>
      </trkpt>
      <trkpt lat="45.28383" lon="5.78059">
        <ele>1778.2</ele>
        <time>2020-01-31T16:17:13Z</time>
      </trkpt>
      <trkpt lat="45.28386" lon="5.78059">
        <ele>1777.6</ele>
        <time>2020-01-31T16:17:14Z</time>
      </trkpt>
      <trkpt lat="45.28384" lon="5.78055">
        <ele>1777</ele>
        <time>2020-01-31T16:17:15Z</time>
      </trkpt>
      <trkpt lat="45.28383" lon="5.78053">
        <ele>1776</ele>
        <time>2020-01-31T16:17:16Z</time>
      </trkpt>
      <trkpt lat="45.28381" lon="5.78051">
        <ele>1775.6</ele>
        <time>2020-01-31T16:17:17Z</time>
      </trkpt>
      <trkpt lat="45.28379" lon="5.78049">
        <ele>1775.2</ele>
        <time>2020-01-31T16:17:18Z</time>
      </trkpt>
      <trkpt lat="45.28378" lon="5.78045">
        <ele>1774.4</ele>
        <time>2020-01-31T16:17:19Z</time>
      </trkpt>
      <trkpt lat="45.28379" lon="5.78042">
        <ele>1773.6</ele>
        <time>2020-01-31T16:17:20Z</time>
      </trkpt>
      <trkpt lat="45.28382" lon="5.7804">
        <ele>1773</ele>
        <time>2020-01-31T16:17:21Z</time>
      </trkpt>
      <trkpt lat="45.28384" lon="5.78041">
        <ele>1772.4</ele>
        <time>2020-01-31T16:17:22Z</time>
      </trkpt>
      <trkpt lat="45.28385" lon="5.78042">
        <ele>1771.6</ele>
        <time>2020-01-31T16:17:23Z</time>
      </trkpt>
      <trkpt lat="45.28387" lon="5.78043">
        <ele>1771.2</ele>
        <time>2020-01-31T16:17:24Z</time>
      </trkpt>
      <trkpt lat="45.28388" lon="5.78044">
        <ele>1770.6</ele>
        <time>2020-01-31T16:17:25Z</time>
      </trkpt>
      <trkpt lat="45.28395" lon="5.78047">
        <ele>1770.2</ele>
        <time>2020-01-31T16:17:26Z</time>
      </trkpt>
      <trkpt lat="45.28395" lon="5.78047">
        <ele>1769.6</ele>
        <time>2020-01-31T16:17:27Z</time>
      </trkpt>
      <trkpt lat="45.28397" lon="5.78046">
        <ele>1769.2</ele>
        <time>2020-01-31T16:17:28Z</time>
      </trkpt>
      <trkpt lat="45.28397" lon="5.78046">
        <ele>1768.4</ele>
        <time>2020-01-31T16:17:29Z</time>
      </trkpt>
      <trkpt lat="45.28397" lon="5.78046">
        <ele>1767.8</ele>
        <time>2020-01-31T16:17:30Z</time>
      </trkpt>
      <trkpt lat="45.28399" lon="5.78046">
        <ele>1767.6</ele>
        <time>2020-01-31T16:17:31Z</time>
      </trkpt>
      <trkpt lat="45.28399" lon="5.78046">
        <ele>1767.2</ele>
        <time>2020-01-31T16:17:32Z</time>
      </trkpt>
      <trkpt lat="45.28399" lon="5.78046">
        <ele>1766.8</ele>
        <time>2020-01-31T16:17:33Z</time>
      </trkpt>
      <trkpt lat="45.28399" lon="5.78046">
        <ele>1766.6</ele>
        <time>2020-01-31T16:17:34Z</time>
      </trkpt>
      <trkpt lat="45.28397" lon="5.78046">
        <ele>1766.4</ele>
        <time>2020-01-31T16:17:35Z</time>
      </trkpt>
      <trkpt lat="45.28397" lon="5.78046">
        <ele>1766</ele>
        <time>2020-01-31T16:17:36Z</time>
      </trkpt>
      <trkpt lat="45.28397" lon="5.78046">
        <ele>1765.6</ele>
        <time>2020-01-31T16:17:37Z</time>
      </trkpt>
      <trkpt lat="45.28397" lon="5.78046">
        <ele>1765.2</ele>
        <time>2020-01-31T16:17:38Z</time>
      </trkpt>
      <trkpt lat="45.28397" lon="5.78046">
        <ele>1765</ele>
        <time>2020-01-31T16:17:39Z</time>
      </trkpt>
      <trkpt lat="45.28398" lon="5.78047">
        <ele>1764.8</ele>
        <time>2020-01-31T16:17:40Z</time>
      </trkpt>
      <trkpt lat="45.28398" lon="5.78047">
        <ele>1765.2</ele>
        <time>2020-01-31T16:17:41Z</time>
      </trkpt>
      <trkpt lat="45.28398" lon="5.78047">
        <ele>1765.6</ele>
        <time>2020-01-31T16:17:42Z</time>
      </trkpt>
      <trkpt lat="45.28398" lon="5.78047">
        <ele>1765.2</ele>
        <time>2020-01-31T16:17:43Z</time>
      </trkpt>
      <trkpt lat="45.28399" lon="5.78047">
        <ele>1765.4</ele>
        <time>2020-01-31T16:17:44Z</time>
      </trkpt>
      <trkpt lat="45.28399" lon="5.78047">
        <ele>1765.8</ele>
        <time>2020-01-31T16:17:45Z</time>
      </trkpt>
      <trkpt lat="45.28399" lon="5.78048">
        <ele>1766.2</ele>
        <time>2020-01-31T16:17:46Z</time>
      </trkpt>
      <trkpt lat="45.28399" lon="5.78048">
        <ele>1766</ele>
        <time>2020-01-31T16:17:47Z</time>
      </trkpt>
      <trkpt lat="45.28399" lon="5.78048">
        <ele>1766</ele>
        <time>2020-01-31T16:17:48Z</time>
      </trkpt>
      <trkpt lat="45.284" lon="5.78048">
        <ele>1766</ele>
        <time>2020-01-31T16:17:49Z</time>
      </trkpt>
      <trkpt lat="45.284" lon="5.78048">
        <ele>1766</ele>
        <time>2020-01-31T16:17:50Z</time>
      </trkpt>
      <trkpt lat="45.284" lon="5.78048">
        <ele>1766</ele>
        <time>2020-01-31T16:17:51Z</time>
      </trkpt>
      <trkpt lat="45.284" lon="5.78049">
        <ele>1765.8</ele>
        <time>2020-01-31T16:17:52Z</time>
      </trkpt>
      <trkpt lat="45.284" lon="5.78049">
        <ele>1765.6</ele>
        <time>2020-01-31T16:17:53Z</time>
      </trkpt>
      <trkpt lat="45.28401" lon="5.78049">
        <ele>1765.4</ele>
        <time>2020-01-31T16:17:54Z</time>
      </trkpt>
      <trkpt lat="45.28401" lon="5.78049">
        <ele>1765.2</ele>
        <time>2020-01-31T16:17:55Z</time>
      </trkpt>
      <trkpt lat="45.28401" lon="5.78049">
        <ele>1765.2</ele>
        <time>2020-01-31T16:17:56Z</time>
      </trkpt>
      <trkpt lat="45.28401" lon="5.78049">
        <ele>1765</ele>
        <time>2020-01-31T16:17:57Z</time>
      </trkpt>
      <trkpt lat="45.28402" lon="5.78049">
        <ele>1765</ele>
        <time>2020-01-31T16:17:58Z</time>
      </trkpt>
      <trkpt lat="45.28402" lon="5.7805">
        <ele>1764.8</ele>
        <time>2020-01-31T16:17:59Z</time>
      </trkpt>
      <trkpt lat="45.28402" lon="5.7805">
        <ele>1764.8</ele>
        <time>2020-01-31T16:18:00Z</time>
      </trkpt>
      <trkpt lat="45.28402" lon="5.7805">
        <ele>1765</ele>
        <time>2020-01-31T16:18:01Z</time>
      </trkpt>
      <trkpt lat="45.28402" lon="5.7805">
        <ele>1764.6</ele>
        <time>2020-01-31T16:18:02Z</time>
      </trkpt>
      <trkpt lat="45.28403" lon="5.7805">
        <ele>1764.6</ele>
        <time>2020-01-31T16:18:03Z</time>
      </trkpt>
      <trkpt lat="45.28403" lon="5.7805">
        <ele>1764.6</ele>
        <time>2020-01-31T16:18:04Z</time>
      </trkpt>
      <trkpt lat="45.28403" lon="5.78051">
        <ele>1764.4</ele>
        <time>2020-01-31T16:18:05Z</time>
      </trkpt>
      <trkpt lat="45.28403" lon="5.78051">
        <ele>1764.2</ele>
        <time>2020-01-31T16:18:06Z</time>
      </trkpt>
      <trkpt lat="45.28403" lon="5.78051">
        <ele>1764.2</ele>
        <time>2020-01-31T16:18:07Z</time>
      </trkpt>
      <trkpt lat="45.28404" lon="5.78051">
        <ele>1763.6</ele>
        <time>2020-01-31T16:18:08Z</time>
      </trkpt>
      <trkpt lat="45.28404" lon="5.78051">
        <ele>1763.6</ele>
        <time>2020-01-31T16:18:09Z</time>
      </trkpt>
      <trkpt lat="45.28404" lon="5.78051">
        <ele>1763.6</ele>
        <time>2020-01-31T16:18:10Z</time>
      </trkpt>
      <trkpt lat="45.28404" lon="5.78051">
        <ele>1763.2</ele>
        <time>2020-01-31T16:18:11Z</time>
      </trkpt>
      <trkpt lat="45.28405" lon="5.78052">
        <ele>1763</ele>
        <time>2020-01-31T16:18:12Z</time>
      </trkpt>
      <trkpt lat="45.28405" lon="5.78052">
        <ele>1763</ele>
        <time>2020-01-31T16:18:13Z</time>
      </trkpt>
      <trkpt lat="45.28405" lon="5.78052">
        <ele>1763</ele>
        <time>2020-01-31T16:18:14Z</time>
      </trkpt>
      <trkpt lat="45.28405" lon="5.78052">
        <ele>1762.8</ele>
        <time>2020-01-31T16:18:15Z</time>
      </trkpt>
      <trkpt lat="45.28405" lon="5.78052">
        <ele>1762.8</ele>
        <time>2020-01-31T16:18:16Z</time>
      </trkpt>
      <trkpt lat="45.28406" lon="5.78052">
        <ele>1762.6</ele>
        <time>2020-01-31T16:18:17Z</time>
      </trkpt>
      <trkpt lat="45.28406" lon="5.78052">
        <ele>1762.4</ele>
        <time>2020-01-31T16:18:18Z</time>
      </trkpt>
      <trkpt lat="45.28406" lon="5.78052">
        <ele>1762</ele>
        <time>2020-01-31T16:18:19Z</time>
      </trkpt>
      <trkpt lat="45.28406" lon="5.78052">
        <ele>1761.8</ele>
        <time>2020-01-31T16:18:20Z</time>
      </trkpt>
      <trkpt lat="45.28407" lon="5.78052">
        <ele>1761.6</ele>
        <time>2020-01-31T16:18:21Z</time>
      </trkpt>
      <trkpt lat="45.28407" lon="5.78052">
        <ele>1761.4</ele>
        <time>2020-01-31T16:18:22Z</time>
      </trkpt>
      <trkpt lat="45.28407" lon="5.78052">
        <ele>1761.4</ele>
        <time>2020-01-31T16:18:23Z</time>
      </trkpt>
      <trkpt lat="45.28407" lon="5.78052">
        <ele>1761.4</ele>
        <time>2020-01-31T16:18:24Z</time>
      </trkpt>
      <trkpt lat="45.28408" lon="5.78052">
        <ele>1761.6</ele>
        <time>2020-01-31T16:18:25Z</time>
      </trkpt>
      <trkpt lat="45.28408" lon="5.78052">
        <ele>1761.2</ele>
        <time>2020-01-31T16:18:26Z</time>
      </trkpt>
      <trkpt lat="45.28408" lon="5.78052">
        <ele>1760.8</ele>
        <time>2020-01-31T16:18:27Z</time>
      </trkpt>
      <trkpt lat="45.28408" lon="5.78052">
        <ele>1761.2</ele>
        <time>2020-01-31T16:18:28Z</time>
      </trkpt>
      <trkpt lat="45.28409" lon="5.78052">
        <ele>1761.2</ele>
        <time>2020-01-31T16:18:29Z</time>
      </trkpt>
      <trkpt lat="45.28409" lon="5.78052">
        <ele>1761.2</ele>
        <time>2020-01-31T16:18:30Z</time>
      </trkpt>
      <trkpt lat="45.28409" lon="5.78052">
        <ele>1761</ele>
        <time>2020-01-31T16:18:31Z</time>
      </trkpt>
      <trkpt lat="45.28409" lon="5.78052">
        <ele>1760.4</ele>
        <time>2020-01-31T16:18:32Z</time>
      </trkpt>
      <trkpt lat="45.28409" lon="5.78052">
        <ele>1760.4</ele>
        <time>2020-01-31T16:18:33Z</time>
      </trkpt>
      <trkpt lat="45.2841" lon="5.78052">
        <ele>1760</ele>
        <time>2020-01-31T16:18:34Z</time>
      </trkpt>
      <trkpt lat="45.2841" lon="5.78052">
        <ele>1760.2</ele>
        <time>2020-01-31T16:18:35Z</time>
      </trkpt>
      <trkpt lat="45.2841" lon="5.78052">
        <ele>1760</ele>
        <time>2020-01-31T16:18:36Z</time>
      </trkpt>
      <trkpt lat="45.2841" lon="5.78052">
        <ele>1760.2</ele>
        <time>2020-01-31T16:18:37Z</time>
      </trkpt>
      <trkpt lat="45.28411" lon="5.78052">
        <ele>1760.2</ele>
        <time>2020-01-31T16:18:38Z</time>
      </trkpt>
      <trkpt lat="45.28411" lon="5.78052">
        <ele>1760.2</ele>
        <time>2020-01-31T16:18:39Z</time>
      </trkpt>
      <trkpt lat="45.28411" lon="5.78052">
        <ele>1760.6</ele>
        <time>2020-01-31T16:18:40Z</time>
      </trkpt>
      <trkpt lat="45.28411" lon="5.78052">
        <ele>1760.4</ele>
        <time>2020-01-31T16:18:41Z</time>
      </trkpt>
      <trkpt lat="45.28412" lon="5.78052">
        <ele>1760.4</ele>
        <time>2020-01-31T16:18:42Z</time>
      </trkpt>
      <trkpt lat="45.28412" lon="5.78052">
        <ele>1760.6</ele>
        <time>2020-01-31T16:18:43Z</time>
      </trkpt>
      <trkpt lat="45.28412" lon="5.78052">
        <ele>1760.8</ele>
        <time>2020-01-31T16:18:44Z</time>
      </trkpt>
      <trkpt lat="45.28412" lon="5.78052">
        <ele>1761</ele>
        <time>2020-01-31T16:18:45Z</time>
      </trkpt>
      <trkpt lat="45.28413" lon="5.78052">
        <ele>1761</ele>
        <time>2020-01-31T16:18:46Z</time>
      </trkpt>
      <trkpt lat="45.28413" lon="5.78052">
        <ele>1761</ele>
        <time>2020-01-31T16:18:47Z</time>
      </trkpt>
      <trkpt lat="45.28413" lon="5.78052">
        <ele>1761</ele>
        <time>2020-01-31T16:18:48Z</time>
      </trkpt>
      <trkpt lat="45.28413" lon="5.78052">
        <ele>1761.4</ele>
        <time>2020-01-31T16:18:49Z</time>
      </trkpt>
      <trkpt lat="45.28414" lon="5.78052">
        <ele>1761.4</ele>
        <time>2020-01-31T16:18:50Z</time>
      </trkpt>
      <trkpt lat="45.28414" lon="5.78052">
        <ele>1761.6</ele>
        <time>2020-01-31T16:18:51Z</time>
      </trkpt>
      <trkpt lat="45.28414" lon="5.78052">
        <ele>1761.6</ele>
        <time>2020-01-31T16:18:52Z</time>
      </trkpt>
      <trkpt lat="45.28414" lon="5.78052">
        <ele>1761.4</ele>
        <time>2020-01-31T16:18:53Z</time>
      </trkpt>
      <trkpt lat="45.28414" lon="5.78052">
        <ele>1761.6</ele>
        <time>2020-01-31T16:18:54Z</time>
      </trkpt>
      <trkpt lat="45.28417" lon="5.78054">
        <ele>1761.6</ele>
        <time>2020-01-31T16:18:55Z</time>
      </trkpt>
      <trkpt lat="45.2842" lon="5.78057">
        <ele>1761.4</ele>
        <time>2020-01-31T16:18:56Z</time>
      </trkpt>
      <trkpt lat="45.28422" lon="5.78059">
        <ele>1761</ele>
        <time>2020-01-31T16:18:57Z</time>
      </trkpt>
      <trkpt lat="45.28426" lon="5.78063">
        <ele>1760.2</ele>
        <time>2020-01-31T16:18:58Z</time>
      </trkpt>
      <trkpt lat="45.2843" lon="5.78066">
        <ele>1759.4</ele>
        <time>2020-01-31T16:18:59Z</time>
      </trkpt>
      <trkpt lat="45.28433" lon="5.78067">
        <ele>1758.8</ele>
        <time>2020-01-31T16:19:00Z</time>
      </trkpt>
      <trkpt lat="45.2843" lon="5.78067">
        <ele>1758.2</ele>
        <time>2020-01-31T16:19:01Z</time>
      </trkpt>
      <trkpt lat="45.28427" lon="5.78066">
        <ele>1758.2</ele>
        <time>2020-01-31T16:19:02Z</time>
      </trkpt>
      <trkpt lat="45.28424" lon="5.78064">
        <ele>1757.2</ele>
        <time>2020-01-31T16:19:03Z</time>
      </trkpt>
      <trkpt lat="45.2842" lon="5.78061">
        <ele>1756.2</ele>
        <time>2020-01-31T16:19:04Z</time>
      </trkpt>
      <trkpt lat="45.28419" lon="5.78058">
        <ele>1755.6</ele>
        <time>2020-01-31T16:19:05Z</time>
      </trkpt>
      <trkpt lat="45.28417" lon="5.78056">
        <ele>1755</ele>
        <time>2020-01-31T16:19:06Z</time>
      </trkpt>
      <trkpt lat="45.28416" lon="5.78053">
        <ele>1754.4</ele>
        <time>2020-01-31T16:19:07Z</time>
      </trkpt>
      <trkpt lat="45.28417" lon="5.78052">
        <ele>1754</ele>
        <time>2020-01-31T16:19:08Z</time>
      </trkpt>
      <trkpt lat="45.28418" lon="5.78052">
        <ele>1752.8</ele>
        <time>2020-01-31T16:19:09Z</time>
      </trkpt>
      <trkpt lat="45.28419" lon="5.78051">
        <ele>1752.2</ele>
        <time>2020-01-31T16:19:10Z</time>
      </trkpt>
      <trkpt lat="45.2842" lon="5.78051">
        <ele>1751.8</ele>
        <time>2020-01-31T16:19:11Z</time>
      </trkpt>
      <trkpt lat="45.28421" lon="5.7805">
        <ele>1751.4</ele>
        <time>2020-01-31T16:19:12Z</time>
      </trkpt>
      <trkpt lat="45.28421" lon="5.7805">
        <ele>1750.2</ele>
        <time>2020-01-31T16:19:13Z</time>
      </trkpt>
      <trkpt lat="45.28422" lon="5.78049">
        <ele>1749.2</ele>
        <time>2020-01-31T16:19:14Z</time>
      </trkpt>
      <trkpt lat="45.28423" lon="5.78049">
        <ele>1748.2</ele>
        <time>2020-01-31T16:19:15Z</time>
      </trkpt>
      <trkpt lat="45.28424" lon="5.78048">
        <ele>1747.4</ele>
        <time>2020-01-31T16:19:16Z</time>
      </trkpt>
      <trkpt lat="45.28425" lon="5.78048">
        <ele>1746.4</ele>
        <time>2020-01-31T16:19:17Z</time>
      </trkpt>
      <trkpt lat="45.28426" lon="5.78047">
        <ele>1745.6</ele>
        <time>2020-01-31T16:19:18Z</time>
      </trkpt>
      <trkpt lat="45.2843" lon="5.78048">
        <ele>1744.6</ele>
        <time>2020-01-31T16:19:19Z</time>
      </trkpt>
      <trkpt lat="45.28435" lon="5.78049">
        <ele>1743.8</ele>
        <time>2020-01-31T16:19:20Z</time>
      </trkpt>
      <trkpt lat="45.28447" lon="5.78051">
        <ele>1742.8</ele>
        <time>2020-01-31T16:19:21Z</time>
      </trkpt>
      <trkpt lat="45.28451" lon="5.78052">
        <ele>1741.6</ele>
        <time>2020-01-31T16:19:22Z</time>
      </trkpt>
      <trkpt lat="45.28462" lon="5.78054">
        <ele>1740.6</ele>
        <time>2020-01-31T16:19:23Z</time>
      </trkpt>
      <trkpt lat="45.28465" lon="5.78055">
        <ele>1739.6</ele>
        <time>2020-01-31T16:19:24Z</time>
      </trkpt>
      <trkpt lat="45.28475" lon="5.78057">
        <ele>1738.4</ele>
        <time>2020-01-31T16:19:25Z</time>
      </trkpt>
      <trkpt lat="45.28478" lon="5.78058">
        <ele>1737.6</ele>
        <time>2020-01-31T16:19:26Z</time>
      </trkpt>
      <trkpt lat="45.28486" lon="5.78059">
        <ele>1736</ele>
        <time>2020-01-31T16:19:27Z</time>
      </trkpt>
      <trkpt lat="45.28489" lon="5.7806">
        <ele>1735.2</ele>
        <time>2020-01-31T16:19:28Z</time>
      </trkpt>
      <trkpt lat="45.28498" lon="5.78062">
        <ele>1734</ele>
        <time>2020-01-31T16:19:29Z</time>
      </trkpt>
      <trkpt lat="45.28501" lon="5.78063">
        <ele>1732.4</ele>
        <time>2020-01-31T16:19:30Z</time>
      </trkpt>
      <trkpt lat="45.28508" lon="5.78065">
        <ele>1731.2</ele>
        <time>2020-01-31T16:19:31Z</time>
      </trkpt>
      <trkpt lat="45.28509" lon="5.78066">
        <ele>1730.2</ele>
        <time>2020-01-31T16:19:32Z</time>
      </trkpt>
      <trkpt lat="45.28509" lon="5.78066">
        <ele>1729.6</ele>
        <time>2020-01-31T16:19:33Z</time>
      </trkpt>
      <trkpt lat="45.2851" lon="5.78066">
        <ele>1729.2</ele>
        <time>2020-01-31T16:19:34Z</time>
      </trkpt>
      <trkpt lat="45.2851" lon="5.78067">
        <ele>1728.8</ele>
        <time>2020-01-31T16:19:35Z</time>
      </trkpt>
      <trkpt lat="45.28511" lon="5.78067">
        <ele>1728.6</ele>
        <time>2020-01-31T16:19:36Z</time>
      </trkpt>
      <trkpt lat="45.28511" lon="5.78067">
        <ele>1728.2</ele>
        <time>2020-01-31T16:19:37Z</time>
      </trkpt>
      <trkpt lat="45.28511" lon="5.78067">
        <ele>1727.6</ele>
        <time>2020-01-31T16:19:38Z</time>
      </trkpt>
      <trkpt lat="45.28512" lon="5.78068">
        <ele>1727.6</ele>
        <time>2020-01-31T16:19:39Z</time>
      </trkpt>
      <trkpt lat="45.28512" lon="5.78068">
        <ele>1727.2</ele>
        <time>2020-01-31T16:19:40Z</time>
      </trkpt>
      <trkpt lat="45.28513" lon="5.78068">
        <ele>1727.4</ele>
        <time>2020-01-31T16:19:41Z</time>
      </trkpt>
      <trkpt lat="45.28513" lon="5.78069">
        <ele>1727.2</ele>
        <time>2020-01-31T16:19:42Z</time>
      </trkpt>
      <trkpt lat="45.28514" lon="5.78069">
        <ele>1727.2</ele>
        <time>2020-01-31T16:19:43Z</time>
      </trkpt>
      <trkpt lat="45.28514" lon="5.78069">
        <ele>1727.2</ele>
        <time>2020-01-31T16:19:44Z</time>
      </trkpt>
      <trkpt lat="45.28515" lon="5.7807">
        <ele>1727</ele>
        <time>2020-01-31T16:19:45Z</time>
      </trkpt>
      <trkpt lat="45.28522" lon="5.78074">
        <ele>1726.2</ele>
        <time>2020-01-31T16:19:46Z</time>
      </trkpt>
      <trkpt lat="45.28526" lon="5.78076">
        <ele>1725.6</ele>
        <time>2020-01-31T16:19:47Z</time>
      </trkpt>
      <trkpt lat="45.2853" lon="5.78078">
        <ele>1725</ele>
        <time>2020-01-31T16:19:48Z</time>
      </trkpt>
      <trkpt lat="45.28533" lon="5.78081">
        <ele>1724.6</ele>
        <time>2020-01-31T16:19:49Z</time>
      </trkpt>
      <trkpt lat="45.28537" lon="5.78084">
        <ele>1723.4</ele>
        <time>2020-01-31T16:19:50Z</time>
      </trkpt>
      <trkpt lat="45.28541" lon="5.78087">
        <ele>1723</ele>
        <time>2020-01-31T16:19:51Z</time>
      </trkpt>
      <trkpt lat="45.28546" lon="5.7809">
        <ele>1722.6</ele>
        <time>2020-01-31T16:19:52Z</time>
      </trkpt>
      <trkpt lat="45.28549" lon="5.78093">
        <ele>1722</ele>
        <time>2020-01-31T16:19:53Z</time>
      </trkpt>
      <trkpt lat="45.28553" lon="5.78094">
        <ele>1721.2</ele>
        <time>2020-01-31T16:19:54Z</time>
      </trkpt>
      <trkpt lat="45.28556" lon="5.78096">
        <ele>1720.4</ele>
        <time>2020-01-31T16:19:55Z</time>
      </trkpt>
      <trkpt lat="45.2856" lon="5.78098">
        <ele>1719.8</ele>
        <time>2020-01-31T16:19:56Z</time>
      </trkpt>
      <trkpt lat="45.28562" lon="5.78099">
        <ele>1719</ele>
        <time>2020-01-31T16:19:57Z</time>
      </trkpt>
      <trkpt lat="45.28564" lon="5.781">
        <ele>1718.2</ele>
        <time>2020-01-31T16:19:58Z</time>
      </trkpt>
      <trkpt lat="45.28566" lon="5.78101">
        <ele>1717.6</ele>
        <time>2020-01-31T16:19:59Z</time>
      </trkpt>
      <trkpt lat="45.28568" lon="5.78102">
        <ele>1717</ele>
        <time>2020-01-31T16:20:00Z</time>
      </trkpt>
      <trkpt lat="45.28569" lon="5.78103">
        <ele>1716.4</ele>
        <time>2020-01-31T16:20:01Z</time>
      </trkpt>
      <trkpt lat="45.28571" lon="5.78103">
        <ele>1715.6</ele>
        <time>2020-01-31T16:20:02Z</time>
      </trkpt>
      <trkpt lat="45.28572" lon="5.78103">
        <ele>1715.2</ele>
        <time>2020-01-31T16:20:03Z</time>
      </trkpt>
      <trkpt lat="45.28573" lon="5.78103">
        <ele>1715</ele>
        <time>2020-01-31T16:20:04Z</time>
      </trkpt>
      <trkpt lat="45.28574" lon="5.78103">
        <ele>1714.4</ele>
        <time>2020-01-31T16:20:05Z</time>
      </trkpt>
      <trkpt lat="45.28575" lon="5.78103">
        <ele>1713.8</ele>
        <time>2020-01-31T16:20:06Z</time>
      </trkpt>
      <trkpt lat="45.28576" lon="5.78103">
        <ele>1713.4</ele>
        <time>2020-01-31T16:20:07Z</time>
      </trkpt>
      <trkpt lat="45.28588" lon="5.78104">
        <ele>1712.6</ele>
        <time>2020-01-31T16:20:08Z</time>
      </trkpt>
      <trkpt lat="45.28593" lon="5.78105">
        <ele>1711.8</ele>
        <time>2020-01-31T16:20:09Z</time>
      </trkpt>
      <trkpt lat="45.28592" lon="5.78105">
        <ele>1711</ele>
        <time>2020-01-31T16:20:10Z</time>
      </trkpt>
      <trkpt lat="45.28591" lon="5.78106">
        <ele>1710.2</ele>
        <time>2020-01-31T16:20:11Z</time>
      </trkpt>
      <trkpt lat="45.28591" lon="5.78106">
        <ele>1709.4</ele>
        <time>2020-01-31T16:20:12Z</time>
      </trkpt>
      <trkpt lat="45.2859" lon="5.78107">
        <ele>1709</ele>
        <time>2020-01-31T16:20:13Z</time>
      </trkpt>
      <trkpt lat="45.2859" lon="5.78107">
        <ele>1709.2</ele>
        <time>2020-01-31T16:20:14Z</time>
      </trkpt>
      <trkpt lat="45.28589" lon="5.78107">
        <ele>1709</ele>
        <time>2020-01-31T16:20:15Z</time>
      </trkpt>
      <trkpt lat="45.28589" lon="5.78108">
        <ele>1708.6</ele>
        <time>2020-01-31T16:20:16Z</time>
      </trkpt>
      <trkpt lat="45.28588" lon="5.78108">
        <ele>1708.2</ele>
        <time>2020-01-31T16:20:17Z</time>
      </trkpt>
      <trkpt lat="45.28587" lon="5.78109">
        <ele>1708</ele>
        <time>2020-01-31T16:20:18Z</time>
      </trkpt>
      <trkpt lat="45.28587" lon="5.78109">
        <ele>1707.8</ele>
        <time>2020-01-31T16:20:19Z</time>
      </trkpt>
      <trkpt lat="45.28586" lon="5.7811">
        <ele>1707.6</ele>
        <time>2020-01-31T16:20:20Z</time>
      </trkpt>
      <trkpt lat="45.28586" lon="5.7811">
        <ele>1707.6</ele>
        <time>2020-01-31T16:20:21Z</time>
      </trkpt>
      <trkpt lat="45.28585" lon="5.78111">
        <ele>1707.4</ele>
        <time>2020-01-31T16:20:22Z</time>
      </trkpt>
      <trkpt lat="45.28585" lon="5.78111">
        <ele>1707.4</ele>
        <time>2020-01-31T16:20:23Z</time>
      </trkpt>
      <trkpt lat="45.28584" lon="5.78112">
        <ele>1707.4</ele>
        <time>2020-01-31T16:20:24Z</time>
      </trkpt>
      <trkpt lat="45.28583" lon="5.78111">
        <ele>1707.4</ele>
        <time>2020-01-31T16:20:25Z</time>
      </trkpt>
      <trkpt lat="45.28582" lon="5.7811">
        <ele>1707.6</ele>
        <time>2020-01-31T16:20:26Z</time>
      </trkpt>
      <trkpt lat="45.28581" lon="5.78109">
        <ele>1707.6</ele>
        <time>2020-01-31T16:20:27Z</time>
      </trkpt>
      <trkpt lat="45.28581" lon="5.78108">
        <ele>1707.6</ele>
        <time>2020-01-31T16:20:28Z</time>
      </trkpt>
      <trkpt lat="45.2858" lon="5.78107">
        <ele>1707.2</ele>
        <time>2020-01-31T16:20:29Z</time>
      </trkpt>
      <trkpt lat="45.28575" lon="5.78102">
        <ele>1706.6</ele>
        <time>2020-01-31T16:20:30Z</time>
      </trkpt>
      <trkpt lat="45.28568" lon="5.78094">
        <ele>1705.4</ele>
        <time>2020-01-31T16:20:31Z</time>
      </trkpt>
      <trkpt lat="45.28563" lon="5.78089">
        <ele>1703.2</ele>
        <time>2020-01-31T16:20:32Z</time>
      </trkpt>
      <trkpt lat="45.28562" lon="5.78085">
        <ele>1701.6</ele>
        <time>2020-01-31T16:20:33Z</time>
      </trkpt>
      <trkpt lat="45.28561" lon="5.78082">
        <ele>1700.2</ele>
        <time>2020-01-31T16:20:34Z</time>
      </trkpt>
      <trkpt lat="45.28562" lon="5.78074">
        <ele>1698.4</ele>
        <time>2020-01-31T16:20:35Z</time>
      </trkpt>
      <trkpt lat="45.28564" lon="5.78072">
        <ele>1696.8</ele>
        <time>2020-01-31T16:20:36Z</time>
      </trkpt>
      <trkpt lat="45.28573" lon="5.7807">
        <ele>1695.4</ele>
        <time>2020-01-31T16:20:37Z</time>
      </trkpt>
      <trkpt lat="45.28576" lon="5.78069">
        <ele>1693.6</ele>
        <time>2020-01-31T16:20:38Z</time>
      </trkpt>
      <trkpt lat="45.28582" lon="5.78066">
        <ele>1692.2</ele>
        <time>2020-01-31T16:20:39Z</time>
      </trkpt>
      <trkpt lat="45.28582" lon="5.78063">
        <ele>1690.6</ele>
        <time>2020-01-31T16:20:40Z</time>
      </trkpt>
      <trkpt lat="45.28582" lon="5.7806">
        <ele>1688.8</ele>
        <time>2020-01-31T16:20:41Z</time>
      </trkpt>
      <trkpt lat="45.28585" lon="5.7805">
        <ele>1687</ele>
        <time>2020-01-31T16:20:42Z</time>
      </trkpt>
      <trkpt lat="45.28588" lon="5.78048">
        <ele>1685.4</ele>
        <time>2020-01-31T16:20:43Z</time>
      </trkpt>
      <trkpt lat="45.28597" lon="5.78044">
        <ele>1683.8</ele>
        <time>2020-01-31T16:20:44Z</time>
      </trkpt>
      <trkpt lat="45.286" lon="5.78043">
        <ele>1682.6</ele>
        <time>2020-01-31T16:20:45Z</time>
      </trkpt>
      <trkpt lat="45.28605" lon="5.78041">
        <ele>1681</ele>
        <time>2020-01-31T16:20:46Z</time>
      </trkpt>
      <trkpt lat="45.28603" lon="5.7804">
        <ele>1679.2</ele>
        <time>2020-01-31T16:20:47Z</time>
      </trkpt>
      <trkpt lat="45.28601" lon="5.7804">
        <ele>1677.4</ele>
        <time>2020-01-31T16:20:48Z</time>
      </trkpt>
      <trkpt lat="45.28594" lon="5.78035">
        <ele>1675.8</ele>
        <time>2020-01-31T16:20:49Z</time>
      </trkpt>
      <trkpt lat="45.28593" lon="5.78032">
        <ele>1674.6</ele>
        <time>2020-01-31T16:20:50Z</time>
      </trkpt>
      <trkpt lat="45.286" lon="5.78028">
        <ele>1672.8</ele>
        <time>2020-01-31T16:20:51Z</time>
      </trkpt>
      <trkpt lat="45.286" lon="5.78028">
        <ele>1671.4</ele>
        <time>2020-01-31T16:20:52Z</time>
      </trkpt>
      <trkpt lat="45.286" lon="5.78028">
        <ele>1669.6</ele>
        <time>2020-01-31T16:20:53Z</time>
      </trkpt>
      <trkpt lat="45.286" lon="5.78028">
        <ele>1668</ele>
        <time>2020-01-31T16:20:54Z</time>
      </trkpt>
      <trkpt lat="45.286" lon="5.78028">
        <ele>1666.6</ele>
        <time>2020-01-31T16:20:55Z</time>
      </trkpt>
      <trkpt lat="45.286" lon="5.78028">
        <ele>1665.6</ele>
        <time>2020-01-31T16:20:56Z</time>
      </trkpt>
      <trkpt lat="45.286" lon="5.78028">
        <ele>1665.2</ele>
        <time>2020-01-31T16:20:57Z</time>
      </trkpt>
      <trkpt lat="45.286" lon="5.78028">
        <ele>1664.6</ele>
        <time>2020-01-31T16:20:58Z</time>
      </trkpt>
      <trkpt lat="45.286" lon="5.78028">
        <ele>1664</ele>
        <time>2020-01-31T16:20:59Z</time>
      </trkpt>
      <trkpt lat="45.286" lon="5.78028">
        <ele>1663.8</ele>
        <time>2020-01-31T16:21:00Z</time>
      </trkpt>
      <trkpt lat="45.286" lon="5.78028">
        <ele>1663.6</ele>
        <time>2020-01-31T16:21:01Z</time>
      </trkpt>
      <trkpt lat="45.286" lon="5.78028">
        <ele>1663.6</ele>
        <time>2020-01-31T16:21:02Z</time>
      </trkpt>
      <trkpt lat="45.286" lon="5.78028">
        <ele>1663.4</ele>
        <time>2020-01-31T16:21:03Z</time>
      </trkpt>
      <trkpt lat="45.286" lon="5.78028">
        <ele>1663.4</ele>
        <time>2020-01-31T16:21:04Z</time>
      </trkpt>
      <trkpt lat="45.286" lon="5.78028">
        <ele>1663.4</ele>
        <time>2020-01-31T16:21:05Z</time>
      </trkpt>
      <trkpt lat="45.28599" lon="5.78033">
        <ele>1663.2</ele>
        <time>2020-01-31T16:21:06Z</time>
      </trkpt>
      <trkpt lat="45.28599" lon="5.78033">
        <ele>1663.4</ele>
        <time>2020-01-31T16:21:07Z</time>
      </trkpt>
      <trkpt lat="45.28599" lon="5.78033">
        <ele>1663.2</ele>
        <time>2020-01-31T16:21:08Z</time>
      </trkpt>
      <trkpt lat="45.28597" lon="5.78031">
        <ele>1663.2</ele>
        <time>2020-01-31T16:21:09Z</time>
      </trkpt>
      <trkpt lat="45.28597" lon="5.78029">
        <ele>1663</ele>
        <time>2020-01-31T16:21:10Z</time>
      </trkpt>
      <trkpt lat="45.286" lon="5.78024">
        <ele>1662.6</ele>
        <time>2020-01-31T16:21:11Z</time>
      </trkpt>
      <trkpt lat="45.28604" lon="5.78019">
        <ele>1661.8</ele>
        <time>2020-01-31T16:21:12Z</time>
      </trkpt>
      <trkpt lat="45.2861" lon="5.78014">
        <ele>1661</ele>
        <time>2020-01-31T16:21:13Z</time>
      </trkpt>
      <trkpt lat="45.28613" lon="5.78013">
        <ele>1659.6</ele>
        <time>2020-01-31T16:21:14Z</time>
      </trkpt>
      <trkpt lat="45.28617" lon="5.78011">
        <ele>1658.6</ele>
        <time>2020-01-31T16:21:15Z</time>
      </trkpt>
      <trkpt lat="45.28618" lon="5.7801">
        <ele>1658</ele>
        <time>2020-01-31T16:21:16Z</time>
      </trkpt>
      <trkpt lat="45.28619" lon="5.78008">
        <ele>1657.2</ele>
        <time>2020-01-31T16:21:17Z</time>
      </trkpt>
      <trkpt lat="45.2862" lon="5.78007">
        <ele>1656.2</ele>
        <time>2020-01-31T16:21:18Z</time>
      </trkpt>
      <trkpt lat="45.28621" lon="5.78005">
        <ele>1655.4</ele>
        <time>2020-01-31T16:21:19Z</time>
      </trkpt>
      <trkpt lat="45.28628" lon="5.77997">
        <ele>1654.4</ele>
        <time>2020-01-31T16:21:20Z</time>
      </trkpt>
      <trkpt lat="45.28631" lon="5.77995">
        <ele>1653</ele>
        <time>2020-01-31T16:21:21Z</time>
      </trkpt>
      <trkpt lat="45.2864" lon="5.77988">
        <ele>1651.6</ele>
        <time>2020-01-31T16:21:22Z</time>
      </trkpt>
      <trkpt lat="45.28643" lon="5.77985">
        <ele>1650</ele>
        <time>2020-01-31T16:21:23Z</time>
      </trkpt>
      <trkpt lat="45.28649" lon="5.77978">
        <ele>1648.4</ele>
        <time>2020-01-31T16:21:24Z</time>
      </trkpt>
      <trkpt lat="45.28648" lon="5.77976">
        <ele>1647.4</ele>
        <time>2020-01-31T16:21:25Z</time>
      </trkpt>
      <trkpt lat="45.28648" lon="5.77973">
        <ele>1646.8</ele>
        <time>2020-01-31T16:21:26Z</time>
      </trkpt>
      <trkpt lat="45.28648" lon="5.77971">
        <ele>1645.6</ele>
        <time>2020-01-31T16:21:27Z</time>
      </trkpt>
      <trkpt lat="45.28648" lon="5.77969">
        <ele>1644.6</ele>
        <time>2020-01-31T16:21:28Z</time>
      </trkpt>
      <trkpt lat="45.28648" lon="5.77966">
        <ele>1643</ele>
        <time>2020-01-31T16:21:29Z</time>
      </trkpt>
      <trkpt lat="45.28648" lon="5.77964">
        <ele>1641.6</ele>
        <time>2020-01-31T16:21:30Z</time>
      </trkpt>
      <trkpt lat="45.28648" lon="5.77961">
        <ele>1640.4</ele>
        <time>2020-01-31T16:21:31Z</time>
      </trkpt>
      <trkpt lat="45.28648" lon="5.77958">
        <ele>1639.2</ele>
        <time>2020-01-31T16:21:32Z</time>
      </trkpt>
      <trkpt lat="45.28648" lon="5.77956">
        <ele>1638</ele>
        <time>2020-01-31T16:21:33Z</time>
      </trkpt>
      <trkpt lat="45.28648" lon="5.77953">
        <ele>1636.8</ele>
        <time>2020-01-31T16:21:34Z</time>
      </trkpt>
      <trkpt lat="45.28648" lon="5.77953">
        <ele>1636</ele>
        <time>2020-01-31T16:21:35Z</time>
      </trkpt>
      <trkpt lat="45.28646" lon="5.77952">
        <ele>1635.4</ele>
        <time>2020-01-31T16:21:36Z</time>
      </trkpt>
      <trkpt lat="45.28644" lon="5.77951">
        <ele>1634.6</ele>
        <time>2020-01-31T16:21:37Z</time>
      </trkpt>
      <trkpt lat="45.28641" lon="5.77949">
        <ele>1633.8</ele>
        <time>2020-01-31T16:21:38Z</time>
      </trkpt>
      <trkpt lat="45.28638" lon="5.77947">
        <ele>1633</ele>
        <time>2020-01-31T16:21:39Z</time>
      </trkpt>
      <trkpt lat="45.28637" lon="5.77947">
        <ele>1632</ele>
        <time>2020-01-31T16:21:40Z</time>
      </trkpt>
      <trkpt lat="45.28636" lon="5.77947">
        <ele>1631</ele>
        <time>2020-01-31T16:21:41Z</time>
      </trkpt>
      <trkpt lat="45.28634" lon="5.77946">
        <ele>1630.4</ele>
        <time>2020-01-31T16:21:42Z</time>
      </trkpt>
      <trkpt lat="45.28633" lon="5.77946">
        <ele>1629.6</ele>
        <time>2020-01-31T16:21:43Z</time>
      </trkpt>
      <trkpt lat="45.28628" lon="5.77945">
        <ele>1629</ele>
        <time>2020-01-31T16:21:44Z</time>
      </trkpt>
      <trkpt lat="45.28628" lon="5.77945">
        <ele>1628.2</ele>
        <time>2020-01-31T16:21:45Z</time>
      </trkpt>
      <trkpt lat="45.28628" lon="5.77939">
        <ele>1627.6</ele>
        <time>2020-01-31T16:21:46Z</time>
      </trkpt>
      <trkpt lat="45.28633" lon="5.77936">
        <ele>1626.4</ele>
        <time>2020-01-31T16:21:47Z</time>
      </trkpt>
      <trkpt lat="45.28634" lon="5.77935">
        <ele>1625.8</ele>
        <time>2020-01-31T16:21:48Z</time>
      </trkpt>
      <trkpt lat="45.28636" lon="5.77933">
        <ele>1625</ele>
        <time>2020-01-31T16:21:49Z</time>
      </trkpt>
      <trkpt lat="45.28637" lon="5.77932">
        <ele>1624.4</ele>
        <time>2020-01-31T16:21:50Z</time>
      </trkpt>
      <trkpt lat="45.28644" lon="5.77927">
        <ele>1623.6</ele>
        <time>2020-01-31T16:21:51Z</time>
      </trkpt>
      <trkpt lat="45.28647" lon="5.77926">
        <ele>1623.2</ele>
        <time>2020-01-31T16:21:52Z</time>
      </trkpt>
      <trkpt lat="45.28649" lon="5.77924">
        <ele>1622.6</ele>
        <time>2020-01-31T16:21:53Z</time>
      </trkpt>
      <trkpt lat="45.28647" lon="5.77923">
        <ele>1622.2</ele>
        <time>2020-01-31T16:21:54Z</time>
      </trkpt>
      <trkpt lat="45.28646" lon="5.77921">
        <ele>1621.4</ele>
        <time>2020-01-31T16:21:55Z</time>
      </trkpt>
      <trkpt lat="45.28645" lon="5.7792">
        <ele>1620.4</ele>
        <time>2020-01-31T16:21:56Z</time>
      </trkpt>
      <trkpt lat="45.28638" lon="5.77915">
        <ele>1619.4</ele>
        <time>2020-01-31T16:21:57Z</time>
      </trkpt>
      <trkpt lat="45.28636" lon="5.77914">
        <ele>1618.4</ele>
        <time>2020-01-31T16:21:58Z</time>
      </trkpt>
      <trkpt lat="45.28634" lon="5.77914">
        <ele>1617</ele>
        <time>2020-01-31T16:21:59Z</time>
      </trkpt>
      <trkpt lat="45.28629" lon="5.77912">
        <ele>1616.2</ele>
        <time>2020-01-31T16:22:00Z</time>
      </trkpt>
      <trkpt lat="45.28629" lon="5.77912">
        <ele>1615.8</ele>
        <time>2020-01-31T16:22:01Z</time>
      </trkpt>
      <trkpt lat="45.2863" lon="5.7791">
        <ele>1615.2</ele>
        <time>2020-01-31T16:22:02Z</time>
      </trkpt>
      <trkpt lat="45.28634" lon="5.77908">
        <ele>1614.4</ele>
        <time>2020-01-31T16:22:03Z</time>
      </trkpt>
      <trkpt lat="45.28636" lon="5.77906">
        <ele>1613.4</ele>
        <time>2020-01-31T16:22:04Z</time>
      </trkpt>
      <trkpt lat="45.28636" lon="5.77906">
        <ele>1612.6</ele>
        <time>2020-01-31T16:22:05Z</time>
      </trkpt>
      <trkpt lat="45.28636" lon="5.77906">
        <ele>1611.8</ele>
        <time>2020-01-31T16:22:06Z</time>
      </trkpt>
      <trkpt lat="45.28638" lon="5.77902">
        <ele>1611.6</ele>
        <time>2020-01-31T16:22:07Z</time>
      </trkpt>
      <trkpt lat="45.28638" lon="5.77902">
        <ele>1611.8</ele>
        <time>2020-01-31T16:22:08Z</time>
      </trkpt>
      <trkpt lat="45.2864" lon="5.77899">
        <ele>1611.2</ele>
        <time>2020-01-31T16:22:09Z</time>
      </trkpt>
      <trkpt lat="45.28642" lon="5.77897">
        <ele>1610.2</ele>
        <time>2020-01-31T16:22:10Z</time>
      </trkpt>
      <trkpt lat="45.28642" lon="5.77897">
        <ele>1609.2</ele>
        <time>2020-01-31T16:22:11Z</time>
      </trkpt>
      <trkpt lat="45.28643" lon="5.77894">
        <ele>1608.8</ele>
        <time>2020-01-31T16:22:12Z</time>
      </trkpt>
      <trkpt lat="45.28643" lon="5.77894">
        <ele>1608.6</ele>
        <time>2020-01-31T16:22:13Z</time>
      </trkpt>
      <trkpt lat="45.28644" lon="5.7789">
        <ele>1608</ele>
        <time>2020-01-31T16:22:14Z</time>
      </trkpt>
      <trkpt lat="45.28644" lon="5.7789">
        <ele>1607.4</ele>
        <time>2020-01-31T16:22:15Z</time>
      </trkpt>
      <trkpt lat="45.28641" lon="5.77888">
        <ele>1606.8</ele>
        <time>2020-01-31T16:22:16Z</time>
      </trkpt>
      <trkpt lat="45.28639" lon="5.77885">
        <ele>1606.4</ele>
        <time>2020-01-31T16:22:17Z</time>
      </trkpt>
      <trkpt lat="45.28639" lon="5.77885">
        <ele>1606</ele>
        <time>2020-01-31T16:22:18Z</time>
      </trkpt>
      <trkpt lat="45.28636" lon="5.77884">
        <ele>1605.4</ele>
        <time>2020-01-31T16:22:19Z</time>
      </trkpt>
      <trkpt lat="45.28634" lon="5.77884">
        <ele>1605</ele>
        <time>2020-01-31T16:22:20Z</time>
      </trkpt>
      <trkpt lat="45.28632" lon="5.77883">
        <ele>1604.6</ele>
        <time>2020-01-31T16:22:21Z</time>
      </trkpt>
      <trkpt lat="45.28629" lon="5.77881">
        <ele>1604</ele>
        <time>2020-01-31T16:22:22Z</time>
      </trkpt>
      <trkpt lat="45.28628" lon="5.77881">
        <ele>1603.2</ele>
        <time>2020-01-31T16:22:23Z</time>
      </trkpt>
      <trkpt lat="45.28626" lon="5.77881">
        <ele>1602</ele>
        <time>2020-01-31T16:22:24Z</time>
      </trkpt>
      <trkpt lat="45.28625" lon="5.77881">
        <ele>1601</ele>
        <time>2020-01-31T16:22:25Z</time>
      </trkpt>
      <trkpt lat="45.28624" lon="5.7788">
        <ele>1599.8</ele>
        <time>2020-01-31T16:22:26Z</time>
      </trkpt>
      <trkpt lat="45.28618" lon="5.77879">
        <ele>1599</ele>
        <time>2020-01-31T16:22:27Z</time>
      </trkpt>
      <trkpt lat="45.28618" lon="5.77878">
        <ele>1598.8</ele>
        <time>2020-01-31T16:22:28Z</time>
      </trkpt>
      <trkpt lat="45.28618" lon="5.77877">
        <ele>1598.4</ele>
        <time>2020-01-31T16:22:29Z</time>
      </trkpt>
      <trkpt lat="45.28619" lon="5.77877">
        <ele>1598.2</ele>
        <time>2020-01-31T16:22:30Z</time>
      </trkpt>
      <trkpt lat="45.28619" lon="5.77876">
        <ele>1598</ele>
        <time>2020-01-31T16:22:31Z</time>
      </trkpt>
      <trkpt lat="45.28619" lon="5.77875">
        <ele>1597.4</ele>
        <time>2020-01-31T16:22:32Z</time>
      </trkpt>
      <trkpt lat="45.28619" lon="5.77874">
        <ele>1597</ele>
        <time>2020-01-31T16:22:33Z</time>
      </trkpt>
      <trkpt lat="45.28619" lon="5.77873">
        <ele>1595.8</ele>
        <time>2020-01-31T16:22:34Z</time>
      </trkpt>
      <trkpt lat="45.28619" lon="5.77873">
        <ele>1594.8</ele>
        <time>2020-01-31T16:22:35Z</time>
      </trkpt>
      <trkpt lat="45.28619" lon="5.77872">
        <ele>1594</ele>
        <time>2020-01-31T16:22:36Z</time>
      </trkpt>
      <trkpt lat="45.28622" lon="5.77862">
        <ele>1593.4</ele>
        <time>2020-01-31T16:22:37Z</time>
      </trkpt>
      <trkpt lat="45.28624" lon="5.77861">
        <ele>1592.6</ele>
        <time>2020-01-31T16:22:38Z</time>
      </trkpt>
      <trkpt lat="45.28625" lon="5.7786">
        <ele>1591.8</ele>
        <time>2020-01-31T16:22:39Z</time>
      </trkpt>
      <trkpt lat="45.28628" lon="5.77854">
        <ele>1591.4</ele>
        <time>2020-01-31T16:22:40Z</time>
      </trkpt>
      <trkpt lat="45.28627" lon="5.77852">
        <ele>1590.6</ele>
        <time>2020-01-31T16:22:41Z</time>
      </trkpt>
      <trkpt lat="45.28625" lon="5.7785">
        <ele>1589.6</ele>
        <time>2020-01-31T16:22:42Z</time>
      </trkpt>
      <trkpt lat="45.28624" lon="5.77848">
        <ele>1589</ele>
        <time>2020-01-31T16:22:43Z</time>
      </trkpt>
      <trkpt lat="45.28622" lon="5.77847">
        <ele>1588</ele>
        <time>2020-01-31T16:22:44Z</time>
      </trkpt>
      <trkpt lat="45.28623" lon="5.77844">
        <ele>1587.6</ele>
        <time>2020-01-31T16:22:45Z</time>
      </trkpt>
      <trkpt lat="45.28624" lon="5.77842">
        <ele>1587</ele>
        <time>2020-01-31T16:22:46Z</time>
      </trkpt>
      <trkpt lat="45.28625" lon="5.77839">
        <ele>1586.2</ele>
        <time>2020-01-31T16:22:47Z</time>
      </trkpt>
      <trkpt lat="45.28626" lon="5.77837">
        <ele>1585.6</ele>
        <time>2020-01-31T16:22:48Z</time>
      </trkpt>
      <trkpt lat="45.28627" lon="5.77834">
        <ele>1585.2</ele>
        <time>2020-01-31T16:22:49Z</time>
      </trkpt>
      <trkpt lat="45.28627" lon="5.77834">
        <ele>1584.2</ele>
        <time>2020-01-31T16:22:50Z</time>
      </trkpt>
      <trkpt lat="45.28626" lon="5.77833">
        <ele>1583.4</ele>
        <time>2020-01-31T16:22:51Z</time>
      </trkpt>
      <trkpt lat="45.28626" lon="5.77832">
        <ele>1583</ele>
        <time>2020-01-31T16:22:52Z</time>
      </trkpt>
      <trkpt lat="45.28626" lon="5.77832">
        <ele>1582.6</ele>
        <time>2020-01-31T16:22:53Z</time>
      </trkpt>
      <trkpt lat="45.28625" lon="5.77831">
        <ele>1582</ele>
        <time>2020-01-31T16:22:54Z</time>
      </trkpt>
      <trkpt lat="45.28625" lon="5.7783">
        <ele>1581.6</ele>
        <time>2020-01-31T16:22:55Z</time>
      </trkpt>
      <trkpt lat="45.28625" lon="5.7783">
        <ele>1581.2</ele>
        <time>2020-01-31T16:22:56Z</time>
      </trkpt>
      <trkpt lat="45.28624" lon="5.77829">
        <ele>1581</ele>
        <time>2020-01-31T16:22:57Z</time>
      </trkpt>
      <trkpt lat="45.28624" lon="5.77829">
        <ele>1579.8</ele>
        <time>2020-01-31T16:22:58Z</time>
      </trkpt>
      <trkpt lat="45.28619" lon="5.77821">
        <ele>1579</ele>
        <time>2020-01-31T16:22:59Z</time>
      </trkpt>
      <trkpt lat="45.28617" lon="5.7782">
        <ele>1578</ele>
        <time>2020-01-31T16:23:00Z</time>
      </trkpt>
      <trkpt lat="45.28615" lon="5.77818">
        <ele>1577.2</ele>
        <time>2020-01-31T16:23:01Z</time>
      </trkpt>
      <trkpt lat="45.28611" lon="5.77812">
        <ele>1576.2</ele>
        <time>2020-01-31T16:23:02Z</time>
      </trkpt>
      <trkpt lat="45.28611" lon="5.77811">
        <ele>1575</ele>
        <time>2020-01-31T16:23:03Z</time>
      </trkpt>
      <trkpt lat="45.28612" lon="5.7781">
        <ele>1574.6</ele>
        <time>2020-01-31T16:23:04Z</time>
      </trkpt>
      <trkpt lat="45.28613" lon="5.77809">
        <ele>1574</ele>
        <time>2020-01-31T16:23:05Z</time>
      </trkpt>
      <trkpt lat="45.28613" lon="5.77808">
        <ele>1573.2</ele>
        <time>2020-01-31T16:23:06Z</time>
      </trkpt>
      <trkpt lat="45.28614" lon="5.77807">
        <ele>1572.4</ele>
        <time>2020-01-31T16:23:07Z</time>
      </trkpt>
      <trkpt lat="45.28617" lon="5.778">
        <ele>1572.2</ele>
        <time>2020-01-31T16:23:08Z</time>
      </trkpt>
      <trkpt lat="45.28617" lon="5.778">
        <ele>1571.8</ele>
        <time>2020-01-31T16:23:09Z</time>
      </trkpt>
      <trkpt lat="45.28616" lon="5.778">
        <ele>1571</ele>
        <time>2020-01-31T16:23:10Z</time>
      </trkpt>
      <trkpt lat="45.28616" lon="5.77799">
        <ele>1570.6</ele>
        <time>2020-01-31T16:23:11Z</time>
      </trkpt>
      <trkpt lat="45.28616" lon="5.77799">
        <ele>1570</ele>
        <time>2020-01-31T16:23:12Z</time>
      </trkpt>
      <trkpt lat="45.28615" lon="5.77799">
        <ele>1569.4</ele>
        <time>2020-01-31T16:23:13Z</time>
      </trkpt>
      <trkpt lat="45.28615" lon="5.77798">
        <ele>1568.4</ele>
        <time>2020-01-31T16:23:14Z</time>
      </trkpt>
      <trkpt lat="45.28615" lon="5.77798">
        <ele>1567.4</ele>
        <time>2020-01-31T16:23:15Z</time>
      </trkpt>
      <trkpt lat="45.28614" lon="5.77798">
        <ele>1567.2</ele>
        <time>2020-01-31T16:23:16Z</time>
      </trkpt>
      <trkpt lat="45.28614" lon="5.77797">
        <ele>1567</ele>
        <time>2020-01-31T16:23:17Z</time>
      </trkpt>
      <trkpt lat="45.28614" lon="5.77797">
        <ele>1566.8</ele>
        <time>2020-01-31T16:23:18Z</time>
      </trkpt>
      <trkpt lat="45.28613" lon="5.77797">
        <ele>1566.6</ele>
        <time>2020-01-31T16:23:19Z</time>
      </trkpt>
      <trkpt lat="45.28613" lon="5.77797">
        <ele>1566.6</ele>
        <time>2020-01-31T16:23:20Z</time>
      </trkpt>
      <trkpt lat="45.28612" lon="5.77796">
        <ele>1566.4</ele>
        <time>2020-01-31T16:23:21Z</time>
      </trkpt>
      <trkpt lat="45.28612" lon="5.77796">
        <ele>1566.2</ele>
        <time>2020-01-31T16:23:22Z</time>
      </trkpt>
      <trkpt lat="45.28612" lon="5.77796">
        <ele>1566.2</ele>
        <time>2020-01-31T16:23:23Z</time>
      </trkpt>
      <trkpt lat="45.28611" lon="5.77795">
        <ele>1566</ele>
        <time>2020-01-31T16:23:24Z</time>
      </trkpt>
      <trkpt lat="45.28611" lon="5.77795">
        <ele>1565.4</ele>
        <time>2020-01-31T16:23:25Z</time>
      </trkpt>
      <trkpt lat="45.28611" lon="5.77795">
        <ele>1565</ele>
        <time>2020-01-31T16:23:26Z</time>
      </trkpt>
      <trkpt lat="45.2861" lon="5.77794">
        <ele>1565.2</ele>
        <time>2020-01-31T16:23:27Z</time>
      </trkpt>
      <trkpt lat="45.2861" lon="5.77794">
        <ele>1564.8</ele>
        <time>2020-01-31T16:23:28Z</time>
      </trkpt>
      <trkpt lat="45.2861" lon="5.77794">
        <ele>1565</ele>
        <time>2020-01-31T16:23:29Z</time>
      </trkpt>
      <trkpt lat="45.28611" lon="5.77793">
        <ele>1565</ele>
        <time>2020-01-31T16:23:30Z</time>
      </trkpt>
      <trkpt lat="45.28612" lon="5.77792">
        <ele>1564.8</ele>
        <time>2020-01-31T16:23:31Z</time>
      </trkpt>
      <trkpt lat="45.28614" lon="5.77791">
        <ele>1564</ele>
        <time>2020-01-31T16:23:32Z</time>
      </trkpt>
      <trkpt lat="45.28615" lon="5.7779">
        <ele>1563.6</ele>
        <time>2020-01-31T16:23:33Z</time>
      </trkpt>
      <trkpt lat="45.28623" lon="5.77784">
        <ele>1563</ele>
        <time>2020-01-31T16:23:34Z</time>
      </trkpt>
      <trkpt lat="45.28625" lon="5.77783">
        <ele>1562.4</ele>
        <time>2020-01-31T16:23:35Z</time>
      </trkpt>
      <trkpt lat="45.28629" lon="5.7778">
        <ele>1561.8</ele>
        <time>2020-01-31T16:23:36Z</time>
      </trkpt>
      <trkpt lat="45.28628" lon="5.77778">
        <ele>1561</ele>
        <time>2020-01-31T16:23:37Z</time>
      </trkpt>
      <trkpt lat="45.28627" lon="5.77777">
        <ele>1560.6</ele>
        <time>2020-01-31T16:23:38Z</time>
      </trkpt>
      <trkpt lat="45.28626" lon="5.77775">
        <ele>1560.2</ele>
        <time>2020-01-31T16:23:39Z</time>
      </trkpt>
      <trkpt lat="45.28624" lon="5.77774">
        <ele>1560.2</ele>
        <time>2020-01-31T16:23:40Z</time>
      </trkpt>
      <trkpt lat="45.28623" lon="5.77772">
        <ele>1559.4</ele>
        <time>2020-01-31T16:23:41Z</time>
      </trkpt>
      <trkpt lat="45.28624" lon="5.77769">
        <ele>1558.8</ele>
        <time>2020-01-31T16:23:42Z</time>
      </trkpt>
      <trkpt lat="45.28625" lon="5.77765">
        <ele>1558.2</ele>
        <time>2020-01-31T16:23:43Z</time>
      </trkpt>
      <trkpt lat="45.28626" lon="5.77762">
        <ele>1557</ele>
        <time>2020-01-31T16:23:44Z</time>
      </trkpt>
      <trkpt lat="45.28627" lon="5.77758">
        <ele>1555.6</ele>
        <time>2020-01-31T16:23:45Z</time>
      </trkpt>
      <trkpt lat="45.28627" lon="5.77757">
        <ele>1554.6</ele>
        <time>2020-01-31T16:23:46Z</time>
      </trkpt>
      <trkpt lat="45.28627" lon="5.77756">
        <ele>1553.8</ele>
        <time>2020-01-31T16:23:47Z</time>
      </trkpt>
      <trkpt lat="45.28627" lon="5.77754">
        <ele>1553.2</ele>
        <time>2020-01-31T16:23:48Z</time>
      </trkpt>
      <trkpt lat="45.28627" lon="5.77753">
        <ele>1552</ele>
        <time>2020-01-31T16:23:49Z</time>
      </trkpt>
      <trkpt lat="45.28627" lon="5.77751">
        <ele>1551.2</ele>
        <time>2020-01-31T16:23:50Z</time>
      </trkpt>
      <trkpt lat="45.28627" lon="5.7775">
        <ele>1550.2</ele>
        <time>2020-01-31T16:23:51Z</time>
      </trkpt>
      <trkpt lat="45.28627" lon="5.77749">
        <ele>1549.6</ele>
        <time>2020-01-31T16:23:52Z</time>
      </trkpt>
      <trkpt lat="45.28627" lon="5.77747">
        <ele>1549</ele>
        <time>2020-01-31T16:23:53Z</time>
      </trkpt>
      <trkpt lat="45.28627" lon="5.77746">
        <ele>1548.4</ele>
        <time>2020-01-31T16:23:54Z</time>
      </trkpt>
      <trkpt lat="45.28627" lon="5.77745">
        <ele>1547.6</ele>
        <time>2020-01-31T16:23:55Z</time>
      </trkpt>
      <trkpt lat="45.28626" lon="5.77744">
        <ele>1547</ele>
        <time>2020-01-31T16:23:56Z</time>
      </trkpt>
      <trkpt lat="45.28625" lon="5.77742">
        <ele>1546.2</ele>
        <time>2020-01-31T16:23:57Z</time>
      </trkpt>
      <trkpt lat="45.28624" lon="5.77741">
        <ele>1545.6</ele>
        <time>2020-01-31T16:23:58Z</time>
      </trkpt>
      <trkpt lat="45.28623" lon="5.7774">
        <ele>1544.8</ele>
        <time>2020-01-31T16:23:59Z</time>
      </trkpt>
      <trkpt lat="45.28622" lon="5.77739">
        <ele>1544.4</ele>
        <time>2020-01-31T16:24:00Z</time>
      </trkpt>
      <trkpt lat="45.28622" lon="5.77738">
        <ele>1543.8</ele>
        <time>2020-01-31T16:24:01Z</time>
      </trkpt>
      <trkpt lat="45.28621" lon="5.77737">
        <ele>1543.2</ele>
        <time>2020-01-31T16:24:02Z</time>
      </trkpt>
      <trkpt lat="45.2862" lon="5.77736">
        <ele>1542.6</ele>
        <time>2020-01-31T16:24:03Z</time>
      </trkpt>
      <trkpt lat="45.28619" lon="5.77735">
        <ele>1542</ele>
        <time>2020-01-31T16:24:04Z</time>
      </trkpt>
      <trkpt lat="45.28619" lon="5.77735">
        <ele>1541</ele>
        <time>2020-01-31T16:24:05Z</time>
      </trkpt>
      <trkpt lat="45.28619" lon="5.77735">
        <ele>1540</ele>
        <time>2020-01-31T16:24:06Z</time>
      </trkpt>
      <trkpt lat="45.28619" lon="5.77735">
        <ele>1539.6</ele>
        <time>2020-01-31T16:24:07Z</time>
      </trkpt>
      <trkpt lat="45.28619" lon="5.77735">
        <ele>1539.2</ele>
        <time>2020-01-31T16:24:08Z</time>
      </trkpt>
      <trkpt lat="45.28619" lon="5.77735">
        <ele>1538.8</ele>
        <time>2020-01-31T16:24:09Z</time>
      </trkpt>
      <trkpt lat="45.28619" lon="5.77735">
        <ele>1538.6</ele>
        <time>2020-01-31T16:24:10Z</time>
      </trkpt>
      <trkpt lat="45.28617" lon="5.77735">
        <ele>1538.4</ele>
        <time>2020-01-31T16:24:11Z</time>
      </trkpt>
      <trkpt lat="45.28617" lon="5.77735">
        <ele>1537.8</ele>
        <time>2020-01-31T16:24:12Z</time>
      </trkpt>
      <trkpt lat="45.28617" lon="5.77735">
        <ele>1537.8</ele>
        <time>2020-01-31T16:24:13Z</time>
      </trkpt>
      <trkpt lat="45.28615" lon="5.77732">
        <ele>1537.6</ele>
        <time>2020-01-31T16:24:14Z</time>
      </trkpt>
      <trkpt lat="45.28614" lon="5.7773">
        <ele>1537.2</ele>
        <time>2020-01-31T16:24:15Z</time>
      </trkpt>
      <trkpt lat="45.28613" lon="5.77728">
        <ele>1536.2</ele>
        <time>2020-01-31T16:24:16Z</time>
      </trkpt>
      <trkpt lat="45.28612" lon="5.77725">
        <ele>1535.4</ele>
        <time>2020-01-31T16:24:17Z</time>
      </trkpt>
      <trkpt lat="45.28612" lon="5.77717">
        <ele>1534.6</ele>
        <time>2020-01-31T16:24:18Z</time>
      </trkpt>
      <trkpt lat="45.28614" lon="5.77716">
        <ele>1534.2</ele>
        <time>2020-01-31T16:24:19Z</time>
      </trkpt>
      <trkpt lat="45.28617" lon="5.77715">
        <ele>1533.6</ele>
        <time>2020-01-31T16:24:20Z</time>
      </trkpt>
      <trkpt lat="45.28619" lon="5.77715">
        <ele>1533.8</ele>
        <time>2020-01-31T16:24:21Z</time>
      </trkpt>
      <trkpt lat="45.28621" lon="5.77714">
        <ele>1533.6</ele>
        <time>2020-01-31T16:24:22Z</time>
      </trkpt>
      <trkpt lat="45.28623" lon="5.77714">
        <ele>1533.2</ele>
        <time>2020-01-31T16:24:23Z</time>
      </trkpt>
      <trkpt lat="45.28625" lon="5.77714">
        <ele>1532.8</ele>
        <time>2020-01-31T16:24:24Z</time>
      </trkpt>
      <trkpt lat="45.28627" lon="5.77713">
        <ele>1532.8</ele>
        <time>2020-01-31T16:24:25Z</time>
      </trkpt>
      <trkpt lat="45.28629" lon="5.77713">
        <ele>1532.4</ele>
        <time>2020-01-31T16:24:26Z</time>
      </trkpt>
      <trkpt lat="45.28633" lon="5.7771">
        <ele>1532.2</ele>
        <time>2020-01-31T16:24:27Z</time>
      </trkpt>
      <trkpt lat="45.28638" lon="5.77706">
        <ele>1531.6</ele>
        <time>2020-01-31T16:24:28Z</time>
      </trkpt>
      <trkpt lat="45.28642" lon="5.77703">
        <ele>1530.8</ele>
        <time>2020-01-31T16:24:29Z</time>
      </trkpt>
      <trkpt lat="45.28647" lon="5.777">
        <ele>1529.4</ele>
        <time>2020-01-31T16:24:30Z</time>
      </trkpt>
      <trkpt lat="45.28646" lon="5.77696">
        <ele>1528.4</ele>
        <time>2020-01-31T16:24:31Z</time>
      </trkpt>
      <trkpt lat="45.28646" lon="5.77693">
        <ele>1527</ele>
        <time>2020-01-31T16:24:32Z</time>
      </trkpt>
      <trkpt lat="45.28645" lon="5.7769">
        <ele>1526</ele>
        <time>2020-01-31T16:24:33Z</time>
      </trkpt>
      <trkpt lat="45.28645" lon="5.77686">
        <ele>1524.8</ele>
        <time>2020-01-31T16:24:34Z</time>
      </trkpt>
      <trkpt lat="45.28643" lon="5.77684">
        <ele>1523.4</ele>
        <time>2020-01-31T16:24:35Z</time>
      </trkpt>
      <trkpt lat="45.28642" lon="5.77682">
        <ele>1521.6</ele>
        <time>2020-01-31T16:24:36Z</time>
      </trkpt>
      <trkpt lat="45.28641" lon="5.77681">
        <ele>1520.4</ele>
        <time>2020-01-31T16:24:37Z</time>
      </trkpt>
      <trkpt lat="45.28636" lon="5.77674">
        <ele>1519</ele>
        <time>2020-01-31T16:24:38Z</time>
      </trkpt>
      <trkpt lat="45.28635" lon="5.77672">
        <ele>1517.6</ele>
        <time>2020-01-31T16:24:39Z</time>
      </trkpt>
      <trkpt lat="45.28634" lon="5.7767">
        <ele>1516</ele>
        <time>2020-01-31T16:24:40Z</time>
      </trkpt>
      <trkpt lat="45.28633" lon="5.77669">
        <ele>1514.6</ele>
        <time>2020-01-31T16:24:41Z</time>
      </trkpt>
      <trkpt lat="45.28625" lon="5.77658">
        <ele>1513.6</ele>
        <time>2020-01-31T16:24:42Z</time>
      </trkpt>
      <trkpt lat="45.28621" lon="5.77653">
        <ele>1512.6</ele>
        <time>2020-01-31T16:24:43Z</time>
      </trkpt>
      <trkpt lat="45.28618" lon="5.77647">
        <ele>1511.4</ele>
        <time>2020-01-31T16:24:44Z</time>
      </trkpt>
      <trkpt lat="45.28614" lon="5.77641">
        <ele>1510.4</ele>
        <time>2020-01-31T16:24:45Z</time>
      </trkpt>
      <trkpt lat="45.28611" lon="5.77635">
        <ele>1509.2</ele>
        <time>2020-01-31T16:24:46Z</time>
      </trkpt>
      <trkpt lat="45.28609" lon="5.77629">
        <ele>1508.4</ele>
        <time>2020-01-31T16:24:47Z</time>
      </trkpt>
      <trkpt lat="45.28611" lon="5.77625">
        <ele>1507.6</ele>
        <time>2020-01-31T16:24:48Z</time>
      </trkpt>
      <trkpt lat="45.28615" lon="5.77622">
        <ele>1507</ele>
        <time>2020-01-31T16:24:49Z</time>
      </trkpt>
      <trkpt lat="45.28619" lon="5.77621">
        <ele>1506</ele>
        <time>2020-01-31T16:24:50Z</time>
      </trkpt>
      <trkpt lat="45.28622" lon="5.7762">
        <ele>1505</ele>
        <time>2020-01-31T16:24:51Z</time>
      </trkpt>
      <trkpt lat="45.28627" lon="5.77614">
        <ele>1503.6</ele>
        <time>2020-01-31T16:24:52Z</time>
      </trkpt>
      <trkpt lat="45.28627" lon="5.77611">
        <ele>1502.2</ele>
        <time>2020-01-31T16:24:53Z</time>
      </trkpt>
      <trkpt lat="45.28626" lon="5.77608">
        <ele>1500.6</ele>
        <time>2020-01-31T16:24:54Z</time>
      </trkpt>
      <trkpt lat="45.28626" lon="5.77605">
        <ele>1499.4</ele>
        <time>2020-01-31T16:24:55Z</time>
      </trkpt>
      <trkpt lat="45.28625" lon="5.77603">
        <ele>1498.2</ele>
        <time>2020-01-31T16:24:56Z</time>
      </trkpt>
      <trkpt lat="45.28624" lon="5.77601">
        <ele>1497</ele>
        <time>2020-01-31T16:24:57Z</time>
      </trkpt>
      <trkpt lat="45.28624" lon="5.77599">
        <ele>1496.2</ele>
        <time>2020-01-31T16:24:58Z</time>
      </trkpt>
      <trkpt lat="45.28623" lon="5.77598">
        <ele>1495.4</ele>
        <time>2020-01-31T16:24:59Z</time>
      </trkpt>
      <trkpt lat="45.2862" lon="5.77587">
        <ele>1494.6</ele>
        <time>2020-01-31T16:25:00Z</time>
      </trkpt>
      <trkpt lat="45.28619" lon="5.77583">
        <ele>1493.8</ele>
        <time>2020-01-31T16:25:01Z</time>
      </trkpt>
      <trkpt lat="45.28615" lon="5.77572">
        <ele>1492.8</ele>
        <time>2020-01-31T16:25:02Z</time>
      </trkpt>
      <trkpt lat="45.28613" lon="5.77568">
        <ele>1491.6</ele>
        <time>2020-01-31T16:25:03Z</time>
      </trkpt>
      <trkpt lat="45.28607" lon="5.77558">
        <ele>1490.6</ele>
        <time>2020-01-31T16:25:04Z</time>
      </trkpt>
      <trkpt lat="45.28605" lon="5.77555">
        <ele>1489.8</ele>
        <time>2020-01-31T16:25:05Z</time>
      </trkpt>
      <trkpt lat="45.28596" lon="5.77547">
        <ele>1488.8</ele>
        <time>2020-01-31T16:25:06Z</time>
      </trkpt>
      <trkpt lat="45.28592" lon="5.77543">
        <ele>1487.8</ele>
        <time>2020-01-31T16:25:07Z</time>
      </trkpt>
      <trkpt lat="45.28594" lon="5.7754">
        <ele>1487.4</ele>
        <time>2020-01-31T16:25:08Z</time>
      </trkpt>
      <trkpt lat="45.28596" lon="5.77537">
        <ele>1486.6</ele>
        <time>2020-01-31T16:25:09Z</time>
      </trkpt>
      <trkpt lat="45.28597" lon="5.77535">
        <ele>1485.8</ele>
        <time>2020-01-31T16:25:10Z</time>
      </trkpt>
      <trkpt lat="45.28598" lon="5.77534">
        <ele>1485</ele>
        <time>2020-01-31T16:25:11Z</time>
      </trkpt>
      <trkpt lat="45.28599" lon="5.77532">
        <ele>1484</ele>
        <time>2020-01-31T16:25:12Z</time>
      </trkpt>
      <trkpt lat="45.28599" lon="5.77531">
        <ele>1482.8</ele>
        <time>2020-01-31T16:25:13Z</time>
      </trkpt>
      <trkpt lat="45.286" lon="5.77529">
        <ele>1481.8</ele>
        <time>2020-01-31T16:25:14Z</time>
      </trkpt>
      <trkpt lat="45.28606" lon="5.7752">
        <ele>1480.8</ele>
        <time>2020-01-31T16:25:15Z</time>
      </trkpt>
      <trkpt lat="45.28609" lon="5.77518">
        <ele>1479.4</ele>
        <time>2020-01-31T16:25:16Z</time>
      </trkpt>
      <trkpt lat="45.28612" lon="5.77516">
        <ele>1478.2</ele>
        <time>2020-01-31T16:25:17Z</time>
      </trkpt>
      <trkpt lat="45.28611" lon="5.77513">
        <ele>1477.2</ele>
        <time>2020-01-31T16:25:18Z</time>
      </trkpt>
      <trkpt lat="45.28611" lon="5.77509">
        <ele>1476</ele>
        <time>2020-01-31T16:25:19Z</time>
      </trkpt>
      <trkpt lat="45.2861" lon="5.77505">
        <ele>1475</ele>
        <time>2020-01-31T16:25:20Z</time>
      </trkpt>
      <trkpt lat="45.28612" lon="5.77504">
        <ele>1473.8</ele>
        <time>2020-01-31T16:25:21Z</time>
      </trkpt>
      <trkpt lat="45.28614" lon="5.77503">
        <ele>1472.6</ele>
        <time>2020-01-31T16:25:22Z</time>
      </trkpt>
      <trkpt lat="45.28616" lon="5.77503">
        <ele>1471.2</ele>
        <time>2020-01-31T16:25:23Z</time>
      </trkpt>
      <trkpt lat="45.28621" lon="5.77498">
        <ele>1470</ele>
        <time>2020-01-31T16:25:24Z</time>
      </trkpt>
      <trkpt lat="45.2862" lon="5.77495">
        <ele>1468.6</ele>
        <time>2020-01-31T16:25:25Z</time>
      </trkpt>
      <trkpt lat="45.28619" lon="5.77492">
        <ele>1467.4</ele>
        <time>2020-01-31T16:25:26Z</time>
      </trkpt>
      <trkpt lat="45.28617" lon="5.77478">
        <ele>1466.2</ele>
        <time>2020-01-31T16:25:27Z</time>
      </trkpt>
      <trkpt lat="45.28618" lon="5.77472">
        <ele>1464.4</ele>
        <time>2020-01-31T16:25:28Z</time>
      </trkpt>
      <trkpt lat="45.28622" lon="5.77469">
        <ele>1463.4</ele>
        <time>2020-01-31T16:25:29Z</time>
      </trkpt>
      <trkpt lat="45.28626" lon="5.77466">
        <ele>1462.2</ele>
        <time>2020-01-31T16:25:30Z</time>
      </trkpt>
      <trkpt lat="45.28627" lon="5.77461">
        <ele>1460.6</ele>
        <time>2020-01-31T16:25:31Z</time>
      </trkpt>
      <trkpt lat="45.28628" lon="5.77456">
        <ele>1459</ele>
        <time>2020-01-31T16:25:32Z</time>
      </trkpt>
      <trkpt lat="45.28629" lon="5.77452">
        <ele>1457.6</ele>
        <time>2020-01-31T16:25:33Z</time>
      </trkpt>
      <trkpt lat="45.28629" lon="5.7745">
        <ele>1455.6</ele>
        <time>2020-01-31T16:25:34Z</time>
      </trkpt>
      <trkpt lat="45.2863" lon="5.77448">
        <ele>1454.4</ele>
        <time>2020-01-31T16:25:35Z</time>
      </trkpt>
      <trkpt lat="45.2863" lon="5.77446">
        <ele>1453</ele>
        <time>2020-01-31T16:25:36Z</time>
      </trkpt>
      <trkpt lat="45.2863" lon="5.77444">
        <ele>1451.6</ele>
        <time>2020-01-31T16:25:37Z</time>
      </trkpt>
      <trkpt lat="45.28634" lon="5.77434">
        <ele>1450.2</ele>
        <time>2020-01-31T16:25:38Z</time>
      </trkpt>
      <trkpt lat="45.28636" lon="5.77432">
        <ele>1448.4</ele>
        <time>2020-01-31T16:25:39Z</time>
      </trkpt>
      <trkpt lat="45.28638" lon="5.7743">
        <ele>1447.4</ele>
        <time>2020-01-31T16:25:40Z</time>
      </trkpt>
      <trkpt lat="45.28647" lon="5.77423">
        <ele>1446.2</ele>
        <time>2020-01-31T16:25:41Z</time>
      </trkpt>
      <trkpt lat="45.28649" lon="5.77422">
        <ele>1444.4</ele>
        <time>2020-01-31T16:25:42Z</time>
      </trkpt>
      <trkpt lat="45.28655" lon="5.77419">
        <ele>1442.8</ele>
        <time>2020-01-31T16:25:43Z</time>
      </trkpt>
      <trkpt lat="45.28656" lon="5.77417">
        <ele>1441.2</ele>
        <time>2020-01-31T16:25:44Z</time>
      </trkpt>
      <trkpt lat="45.28657" lon="5.77415">
        <ele>1439.8</ele>
        <time>2020-01-31T16:25:45Z</time>
      </trkpt>
      <trkpt lat="45.28658" lon="5.77414">
        <ele>1438.2</ele>
        <time>2020-01-31T16:25:46Z</time>
      </trkpt>
      <trkpt lat="45.28661" lon="5.77404">
        <ele>1436.6</ele>
        <time>2020-01-31T16:25:47Z</time>
      </trkpt>
      <trkpt lat="45.28661" lon="5.77402">
        <ele>1435</ele>
        <time>2020-01-31T16:25:48Z</time>
      </trkpt>
      <trkpt lat="45.28661" lon="5.774">
        <ele>1433.6</ele>
        <time>2020-01-31T16:25:49Z</time>
      </trkpt>
      <trkpt lat="45.2866" lon="5.77397">
        <ele>1432.2</ele>
        <time>2020-01-31T16:25:50Z</time>
      </trkpt>
      <trkpt lat="45.28662" lon="5.77385">
        <ele>1431</ele>
        <time>2020-01-31T16:25:51Z</time>
      </trkpt>
      <trkpt lat="45.28664" lon="5.77382">
        <ele>1429.4</ele>
        <time>2020-01-31T16:25:52Z</time>
      </trkpt>
      <trkpt lat="45.28668" lon="5.77371">
        <ele>1428.2</ele>
        <time>2020-01-31T16:25:53Z</time>
      </trkpt>
      <trkpt lat="45.28669" lon="5.77367">
        <ele>1427.2</ele>
        <time>2020-01-31T16:25:54Z</time>
      </trkpt>
      <trkpt lat="45.28669" lon="5.77362">
        <ele>1425.8</ele>
        <time>2020-01-31T16:25:55Z</time>
      </trkpt>
      <trkpt lat="45.28671" lon="5.77359">
        <ele>1424.6</ele>
        <time>2020-01-31T16:25:56Z</time>
      </trkpt>
      <trkpt lat="45.28673" lon="5.77356">
        <ele>1423.2</ele>
        <time>2020-01-31T16:25:57Z</time>
      </trkpt>
      <trkpt lat="45.28681" lon="5.77351">
        <ele>1421.8</ele>
        <time>2020-01-31T16:25:58Z</time>
      </trkpt>
      <trkpt lat="45.28683" lon="5.77352">
        <ele>1420.8</ele>
        <time>2020-01-31T16:25:59Z</time>
      </trkpt>
      <trkpt lat="45.28686" lon="5.77353">
        <ele>1419.8</ele>
        <time>2020-01-31T16:26:00Z</time>
      </trkpt>
      <trkpt lat="45.28686" lon="5.77353">
        <ele>1419.2</ele>
        <time>2020-01-31T16:26:01Z</time>
      </trkpt>
      <trkpt lat="45.28686" lon="5.77353">
        <ele>1418.6</ele>
        <time>2020-01-31T16:26:02Z</time>
      </trkpt>
      <trkpt lat="45.28686" lon="5.77353">
        <ele>1418</ele>
        <time>2020-01-31T16:26:03Z</time>
      </trkpt>
      <trkpt lat="45.28686" lon="5.77353">
        <ele>1417.8</ele>
        <time>2020-01-31T16:26:04Z</time>
      </trkpt>
      <trkpt lat="45.28686" lon="5.77353">
        <ele>1417.6</ele>
        <time>2020-01-31T16:26:05Z</time>
      </trkpt>
      <trkpt lat="45.28686" lon="5.77353">
        <ele>1417.4</ele>
        <time>2020-01-31T16:26:06Z</time>
      </trkpt>
      <trkpt lat="45.28687" lon="5.7735">
        <ele>1416.6</ele>
        <time>2020-01-31T16:26:07Z</time>
      </trkpt>
      <trkpt lat="45.28686" lon="5.77345">
        <ele>1416.2</ele>
        <time>2020-01-31T16:26:08Z</time>
      </trkpt>
      <trkpt lat="45.28683" lon="5.77341">
        <ele>1415.4</ele>
        <time>2020-01-31T16:26:09Z</time>
      </trkpt>
      <trkpt lat="45.2868" lon="5.77336">
        <ele>1414.8</ele>
        <time>2020-01-31T16:26:10Z</time>
      </trkpt>
      <trkpt lat="45.28676" lon="5.7733">
        <ele>1414.4</ele>
        <time>2020-01-31T16:26:11Z</time>
      </trkpt>
      <trkpt lat="45.28674" lon="5.77325">
        <ele>1413.6</ele>
        <time>2020-01-31T16:26:12Z</time>
      </trkpt>
      <trkpt lat="45.28674" lon="5.77317">
        <ele>1413</ele>
        <time>2020-01-31T16:26:13Z</time>
      </trkpt>
      <trkpt lat="45.28673" lon="5.7731">
        <ele>1412</ele>
        <time>2020-01-31T16:26:14Z</time>
      </trkpt>
      <trkpt lat="45.28671" lon="5.77301">
        <ele>1411</ele>
        <time>2020-01-31T16:26:15Z</time>
      </trkpt>
      <trkpt lat="45.28673" lon="5.77294">
        <ele>1409.4</ele>
        <time>2020-01-31T16:26:16Z</time>
      </trkpt>
      <trkpt lat="45.28678" lon="5.77288">
        <ele>1407.8</ele>
        <time>2020-01-31T16:26:17Z</time>
      </trkpt>
      <trkpt lat="45.28682" lon="5.7728">
        <ele>1406.8</ele>
        <time>2020-01-31T16:26:18Z</time>
      </trkpt>
      <trkpt lat="45.28688" lon="5.77272">
        <ele>1404.8</ele>
        <time>2020-01-31T16:26:19Z</time>
      </trkpt>
      <trkpt lat="45.28692" lon="5.77263">
        <ele>1403.4</ele>
        <time>2020-01-31T16:26:20Z</time>
      </trkpt>
      <trkpt lat="45.28693" lon="5.77253">
        <ele>1402</ele>
        <time>2020-01-31T16:26:21Z</time>
      </trkpt>
      <trkpt lat="45.28692" lon="5.77245">
        <ele>1400.8</ele>
        <time>2020-01-31T16:26:22Z</time>
      </trkpt>
      <trkpt lat="45.2869" lon="5.77237">
        <ele>1398.8</ele>
        <time>2020-01-31T16:26:23Z</time>
      </trkpt>
      <trkpt lat="45.28688" lon="5.77221">
        <ele>1396.8</ele>
        <time>2020-01-31T16:26:24Z</time>
      </trkpt>
      <trkpt lat="45.2869" lon="5.7721">
        <ele>1394.2</ele>
        <time>2020-01-31T16:26:25Z</time>
      </trkpt>
      <trkpt lat="45.28692" lon="5.77199">
        <ele>1392.6</ele>
        <time>2020-01-31T16:26:26Z</time>
      </trkpt>
      <trkpt lat="45.28689" lon="5.77191">
        <ele>1390.6</ele>
        <time>2020-01-31T16:26:27Z</time>
      </trkpt>
      <trkpt lat="45.28686" lon="5.77183">
        <ele>1388.8</ele>
        <time>2020-01-31T16:26:28Z</time>
      </trkpt>
      <trkpt lat="45.28679" lon="5.77168">
        <ele>1386.8</ele>
        <time>2020-01-31T16:26:29Z</time>
      </trkpt>
      <trkpt lat="45.28675" lon="5.77157">
        <ele>1384.2</ele>
        <time>2020-01-31T16:26:30Z</time>
      </trkpt>
      <trkpt lat="45.28675" lon="5.77145">
        <ele>1382.2</ele>
        <time>2020-01-31T16:26:31Z</time>
      </trkpt>
      <trkpt lat="45.28675" lon="5.7714">
        <ele>1380</ele>
        <time>2020-01-31T16:26:32Z</time>
      </trkpt>
      <trkpt lat="45.28675" lon="5.77135">
        <ele>1378.6</ele>
        <time>2020-01-31T16:26:33Z</time>
      </trkpt>
      <trkpt lat="45.28673" lon="5.7712">
        <ele>1376.8</ele>
        <time>2020-01-31T16:26:34Z</time>
      </trkpt>
      <trkpt lat="45.28671" lon="5.77116">
        <ele>1375.4</ele>
        <time>2020-01-31T16:26:35Z</time>
      </trkpt>
      <trkpt lat="45.28664" lon="5.77103">
        <ele>1373.6</ele>
        <time>2020-01-31T16:26:36Z</time>
      </trkpt>
      <trkpt lat="45.28662" lon="5.77099">
        <ele>1371.4</ele>
        <time>2020-01-31T16:26:37Z</time>
      </trkpt>
      <trkpt lat="45.28657" lon="5.77079">
        <ele>1370</ele>
        <time>2020-01-31T16:26:38Z</time>
      </trkpt>
      <trkpt lat="45.28654" lon="5.77069">
        <ele>1368.4</ele>
        <time>2020-01-31T16:26:39Z</time>
      </trkpt>
      <trkpt lat="45.2865" lon="5.77049">
        <ele>1366.8</ele>
        <time>2020-01-31T16:26:40Z</time>
      </trkpt>
      <trkpt lat="45.28645" lon="5.77036">
        <ele>1365.2</ele>
        <time>2020-01-31T16:26:41Z</time>
      </trkpt>
      <trkpt lat="45.28642" lon="5.77023">
        <ele>1362.8</ele>
        <time>2020-01-31T16:26:42Z</time>
      </trkpt>
      <trkpt lat="45.28641" lon="5.7701">
        <ele>1360.6</ele>
        <time>2020-01-31T16:26:43Z</time>
      </trkpt>
      <trkpt lat="45.2864" lon="5.76996">
        <ele>1358.4</ele>
        <time>2020-01-31T16:26:44Z</time>
      </trkpt>
      <trkpt lat="45.28637" lon="5.76983">
        <ele>1356.8</ele>
        <time>2020-01-31T16:26:45Z</time>
      </trkpt>
      <trkpt lat="45.28633" lon="5.76971">
        <ele>1355.6</ele>
        <time>2020-01-31T16:26:46Z</time>
      </trkpt>
      <trkpt lat="45.28628" lon="5.76958">
        <ele>1353.2</ele>
        <time>2020-01-31T16:26:47Z</time>
      </trkpt>
      <trkpt lat="45.28621" lon="5.76945">
        <ele>1351.8</ele>
        <time>2020-01-31T16:26:48Z</time>
      </trkpt>
      <trkpt lat="45.28615" lon="5.76932">
        <ele>1350.2</ele>
        <time>2020-01-31T16:26:49Z</time>
      </trkpt>
      <trkpt lat="45.28608" lon="5.7692">
        <ele>1347.6</ele>
        <time>2020-01-31T16:26:50Z</time>
      </trkpt>
      <trkpt lat="45.286" lon="5.76911">
        <ele>1346.4</ele>
        <time>2020-01-31T16:26:51Z</time>
      </trkpt>
      <trkpt lat="45.28593" lon="5.76908">
        <ele>1344</ele>
        <time>2020-01-31T16:26:52Z</time>
      </trkpt>
      <trkpt lat="45.28586" lon="5.76905">
        <ele>1341.6</ele>
        <time>2020-01-31T16:26:53Z</time>
      </trkpt>
      <trkpt lat="45.28572" lon="5.76899">
        <ele>1339.2</ele>
        <time>2020-01-31T16:26:54Z</time>
      </trkpt>
      <trkpt lat="45.28563" lon="5.76895">
        <ele>1337.2</ele>
        <time>2020-01-31T16:26:55Z</time>
      </trkpt>
      <trkpt lat="45.28553" lon="5.7689">
        <ele>1335.2</ele>
        <time>2020-01-31T16:26:56Z</time>
      </trkpt>
      <trkpt lat="45.28543" lon="5.76887">
        <ele>1333</ele>
        <time>2020-01-31T16:26:57Z</time>
      </trkpt>
      <trkpt lat="45.28533" lon="5.76884">
        <ele>1330.4</ele>
        <time>2020-01-31T16:26:58Z</time>
      </trkpt>
      <trkpt lat="45.28522" lon="5.76883">
        <ele>1328.4</ele>
        <time>2020-01-31T16:26:59Z</time>
      </trkpt>
      <trkpt lat="45.28511" lon="5.76879">
        <ele>1326.4</ele>
        <time>2020-01-31T16:27:00Z</time>
      </trkpt>
      <trkpt lat="45.28502" lon="5.76875">
        <ele>1324.4</ele>
        <time>2020-01-31T16:27:01Z</time>
      </trkpt>
      <trkpt lat="45.28493" lon="5.76872">
        <ele>1322.4</ele>
        <time>2020-01-31T16:27:02Z</time>
      </trkpt>
      <trkpt lat="45.28483" lon="5.76869">
        <ele>1320.6</ele>
        <time>2020-01-31T16:27:03Z</time>
      </trkpt>
      <trkpt lat="45.28474" lon="5.76866">
        <ele>1318.8</ele>
        <time>2020-01-31T16:27:04Z</time>
      </trkpt>
      <trkpt lat="45.28463" lon="5.76865">
        <ele>1317.4</ele>
        <time>2020-01-31T16:27:05Z</time>
      </trkpt>
      <trkpt lat="45.28459" lon="5.76864">
        <ele>1315.8</ele>
        <time>2020-01-31T16:27:06Z</time>
      </trkpt>
      <trkpt lat="45.28455" lon="5.76862">
        <ele>1314.6</ele>
        <time>2020-01-31T16:27:07Z</time>
      </trkpt>
      <trkpt lat="45.28443" lon="5.76857">
        <ele>1313.2</ele>
        <time>2020-01-31T16:27:08Z</time>
      </trkpt>
      <trkpt lat="45.2844" lon="5.76854">
        <ele>1312</ele>
        <time>2020-01-31T16:27:09Z</time>
      </trkpt>
      <trkpt lat="45.28429" lon="5.76847">
        <ele>1310.4</ele>
        <time>2020-01-31T16:27:10Z</time>
      </trkpt>
      <trkpt lat="45.28426" lon="5.76845">
        <ele>1309.2</ele>
        <time>2020-01-31T16:27:11Z</time>
      </trkpt>
      <trkpt lat="45.28415" lon="5.76839">
        <ele>1307.6</ele>
        <time>2020-01-31T16:27:12Z</time>
      </trkpt>
      <trkpt lat="45.28411" lon="5.76837">
        <ele>1306.4</ele>
        <time>2020-01-31T16:27:13Z</time>
      </trkpt>
      <trkpt lat="45.28399" lon="5.76832">
        <ele>1305</ele>
        <time>2020-01-31T16:27:14Z</time>
      </trkpt>
      <trkpt lat="45.28395" lon="5.7683">
        <ele>1303.4</ele>
        <time>2020-01-31T16:27:15Z</time>
      </trkpt>
      <trkpt lat="45.28382" lon="5.76821">
        <ele>1302</ele>
        <time>2020-01-31T16:27:16Z</time>
      </trkpt>
      <trkpt lat="45.28376" lon="5.76816">
        <ele>1300.4</ele>
        <time>2020-01-31T16:27:17Z</time>
      </trkpt>
      <trkpt lat="45.28364" lon="5.76806">
        <ele>1298.4</ele>
        <time>2020-01-31T16:27:18Z</time>
      </trkpt>
      <trkpt lat="45.28357" lon="5.76794">
        <ele>1296</ele>
        <time>2020-01-31T16:27:19Z</time>
      </trkpt>
      <trkpt lat="45.2835" lon="5.76785">
        <ele>1293.8</ele>
        <time>2020-01-31T16:27:20Z</time>
      </trkpt>
      <trkpt lat="45.28342" lon="5.76777">
        <ele>1292</ele>
        <time>2020-01-31T16:27:21Z</time>
      </trkpt>
      <trkpt lat="45.28333" lon="5.7677">
        <ele>1290.8</ele>
        <time>2020-01-31T16:27:22Z</time>
      </trkpt>
      <trkpt lat="45.28325" lon="5.7676">
        <ele>1288.4</ele>
        <time>2020-01-31T16:27:23Z</time>
      </trkpt>
      <trkpt lat="45.28319" lon="5.76749">
        <ele>1286.2</ele>
        <time>2020-01-31T16:27:24Z</time>
      </trkpt>
      <trkpt lat="45.28311" lon="5.76741">
        <ele>1284.8</ele>
        <time>2020-01-31T16:27:25Z</time>
      </trkpt>
      <trkpt lat="45.28302" lon="5.76732">
        <ele>1283</ele>
        <time>2020-01-31T16:27:26Z</time>
      </trkpt>
      <trkpt lat="45.28293" lon="5.76722">
        <ele>1281.4</ele>
        <time>2020-01-31T16:27:27Z</time>
      </trkpt>
      <trkpt lat="45.28286" lon="5.76711">
        <ele>1279.4</ele>
        <time>2020-01-31T16:27:28Z</time>
      </trkpt>
      <trkpt lat="45.28279" lon="5.76702">
        <ele>1277.4</ele>
        <time>2020-01-31T16:27:29Z</time>
      </trkpt>
      <trkpt lat="45.28271" lon="5.76695">
        <ele>1275.6</ele>
        <time>2020-01-31T16:27:30Z</time>
      </trkpt>
      <trkpt lat="45.28263" lon="5.76687">
        <ele>1273</ele>
        <time>2020-01-31T16:27:31Z</time>
      </trkpt>
      <trkpt lat="45.28259" lon="5.76676">
        <ele>1271.2</ele>
        <time>2020-01-31T16:27:32Z</time>
      </trkpt>
      <trkpt lat="45.28256" lon="5.76671">
        <ele>1269</ele>
        <time>2020-01-31T16:27:33Z</time>
      </trkpt>
      <trkpt lat="45.28254" lon="5.76666">
        <ele>1267.2</ele>
        <time>2020-01-31T16:27:34Z</time>
      </trkpt>
      <trkpt lat="45.28247" lon="5.76652">
        <ele>1265.8</ele>
        <time>2020-01-31T16:27:35Z</time>
      </trkpt>
      <trkpt lat="45.28244" lon="5.76649">
        <ele>1263.6</ele>
        <time>2020-01-31T16:27:36Z</time>
      </trkpt>
      <trkpt lat="45.28238" lon="5.76641">
        <ele>1262.4</ele>
        <time>2020-01-31T16:27:37Z</time>
      </trkpt>
      <trkpt lat="45.28238" lon="5.76641">
        <ele>1261.4</ele>
        <time>2020-01-31T16:27:38Z</time>
      </trkpt>
    </trkseg>
  </trk>
</gpx>